<?xml version="1.0" encoding="UTF-8" standalone="no" ?>
<gpx xmlns="http://www.topografix.com/GPX/1/1" xmlns:xsi="http://www.w3.org/2001/XMLSchema-instance" xsi:schemaLocation="http://www.topografix.com/GPX/1/1 http://www.topografix.com/GPX/1/1/gpx.xsd" version="1.1" creator="VisuGPX - https://www.visugpx.com">
  <metadata>
    <name>4 fils Aymon 2020_11_13</name>
  </metadata>
  <trk>
    <name><![CDATA[4 fils Aymon 2020_11_13_1]]></name>
    <trkseg>
      <trkpt lat="49.75383" lon="4.82199">
        <ele>207</ele>
        <time>2020-11-13T06:45:31.000Z</time>
      </trkpt>
      <trkpt lat="49.75383" lon="4.82199">
        <ele>207</ele>
        <time>2020-11-13T06:45:32.000Z</time>
      </trkpt>
      <trkpt lat="49.75384" lon="4.82199">
        <ele>207</ele>
        <time>2020-11-13T06:45:33.000Z</time>
      </trkpt>
      <trkpt lat="49.75385" lon="4.82198">
        <ele>206</ele>
        <time>2020-11-13T06:45:34.000Z</time>
      </trkpt>
      <trkpt lat="49.75386" lon="4.82196">
        <ele>205</ele>
        <time>2020-11-13T06:45:35.000Z</time>
      </trkpt>
      <trkpt lat="49.75388" lon="4.82195">
        <ele>204</ele>
        <time>2020-11-13T06:45:36.000Z</time>
      </trkpt>
      <trkpt lat="49.7539" lon="4.82194">
        <ele>204</ele>
        <time>2020-11-13T06:45:37.000Z</time>
      </trkpt>
      <trkpt lat="49.75394" lon="4.82194">
        <ele>203</ele>
        <time>2020-11-13T06:45:38.000Z</time>
      </trkpt>
      <trkpt lat="49.75397" lon="4.82194">
        <ele>202</ele>
        <time>2020-11-13T06:45:39.000Z</time>
      </trkpt>
      <trkpt lat="49.75401" lon="4.82195">
        <ele>201</ele>
        <time>2020-11-13T06:45:40.000Z</time>
      </trkpt>
      <trkpt lat="49.75406" lon="4.82197">
        <ele>200</ele>
        <time>2020-11-13T06:45:41.000Z</time>
      </trkpt>
      <trkpt lat="49.75411" lon="4.822">
        <ele>199</ele>
        <time>2020-11-13T06:45:42.000Z</time>
      </trkpt>
      <trkpt lat="49.75416" lon="4.82202">
        <ele>199</ele>
        <time>2020-11-13T06:45:43.000Z</time>
      </trkpt>
      <trkpt lat="49.75421" lon="4.82205">
        <ele>198</ele>
        <time>2020-11-13T06:45:44.000Z</time>
      </trkpt>
      <trkpt lat="49.75426" lon="4.82208">
        <ele>198</ele>
        <time>2020-11-13T06:45:45.000Z</time>
      </trkpt>
      <trkpt lat="49.75431" lon="4.82212">
        <ele>197</ele>
        <time>2020-11-13T06:45:46.000Z</time>
      </trkpt>
      <trkpt lat="49.75434" lon="4.82218">
        <ele>197</ele>
        <time>2020-11-13T06:45:47.000Z</time>
      </trkpt>
      <trkpt lat="49.75438" lon="4.82224">
        <ele>197</ele>
        <time>2020-11-13T06:45:48.000Z</time>
      </trkpt>
      <trkpt lat="49.75442" lon="4.82226">
        <ele>196</ele>
        <time>2020-11-13T06:45:49.000Z</time>
      </trkpt>
      <trkpt lat="49.75447" lon="4.82227">
        <ele>196</ele>
        <time>2020-11-13T06:45:50.000Z</time>
      </trkpt>
      <trkpt lat="49.75453" lon="4.82228">
        <ele>196</ele>
        <time>2020-11-13T06:45:51.000Z</time>
      </trkpt>
      <trkpt lat="49.75458" lon="4.8223">
        <ele>195</ele>
        <time>2020-11-13T06:45:52.000Z</time>
      </trkpt>
      <trkpt lat="49.75464" lon="4.82235">
        <ele>195</ele>
        <time>2020-11-13T06:45:53.000Z</time>
      </trkpt>
      <trkpt lat="49.75468" lon="4.82241">
        <ele>194</ele>
        <time>2020-11-13T06:45:54.000Z</time>
      </trkpt>
      <trkpt lat="49.75473" lon="4.82248">
        <ele>194</ele>
        <time>2020-11-13T06:45:55.000Z</time>
      </trkpt>
      <trkpt lat="49.75477" lon="4.82253">
        <ele>194</ele>
        <time>2020-11-13T06:45:56.000Z</time>
      </trkpt>
      <trkpt lat="49.75482" lon="4.82258">
        <ele>194</ele>
        <time>2020-11-13T06:45:57.000Z</time>
      </trkpt>
      <trkpt lat="49.75487" lon="4.82263">
        <ele>194</ele>
        <time>2020-11-13T06:45:58.000Z</time>
      </trkpt>
      <trkpt lat="49.75493" lon="4.82267">
        <ele>193</ele>
        <time>2020-11-13T06:45:59.000Z</time>
      </trkpt>
      <trkpt lat="49.75498" lon="4.82271">
        <ele>193</ele>
        <time>2020-11-13T06:46:00.000Z</time>
      </trkpt>
      <trkpt lat="49.75504" lon="4.82274">
        <ele>193</ele>
        <time>2020-11-13T06:46:01.000Z</time>
      </trkpt>
      <trkpt lat="49.7551" lon="4.82277">
        <ele>193</ele>
        <time>2020-11-13T06:46:02.000Z</time>
      </trkpt>
      <trkpt lat="49.75516" lon="4.8228">
        <ele>193</ele>
        <time>2020-11-13T06:46:03.000Z</time>
      </trkpt>
      <trkpt lat="49.75521" lon="4.82283">
        <ele>192</ele>
        <time>2020-11-13T06:46:04.000Z</time>
      </trkpt>
      <trkpt lat="49.75527" lon="4.82285">
        <ele>192</ele>
        <time>2020-11-13T06:46:05.000Z</time>
      </trkpt>
      <trkpt lat="49.75532" lon="4.82286">
        <ele>192</ele>
        <time>2020-11-13T06:46:06.000Z</time>
      </trkpt>
      <trkpt lat="49.75538" lon="4.82286">
        <ele>192</ele>
        <time>2020-11-13T06:46:07.000Z</time>
      </trkpt>
      <trkpt lat="49.75542" lon="4.82281">
        <ele>192</ele>
        <time>2020-11-13T06:46:08.000Z</time>
      </trkpt>
      <trkpt lat="49.75546" lon="4.82276">
        <ele>192</ele>
        <time>2020-11-13T06:46:09.000Z</time>
      </trkpt>
      <trkpt lat="49.75549" lon="4.8227">
        <ele>192</ele>
        <time>2020-11-13T06:46:10.000Z</time>
      </trkpt>
      <trkpt lat="49.75551" lon="4.82263">
        <ele>192</ele>
        <time>2020-11-13T06:46:11.000Z</time>
      </trkpt>
      <trkpt lat="49.75552" lon="4.82255">
        <ele>192</ele>
        <time>2020-11-13T06:46:12.000Z</time>
      </trkpt>
      <trkpt lat="49.75551" lon="4.82247">
        <ele>192</ele>
        <time>2020-11-13T06:46:13.000Z</time>
      </trkpt>
      <trkpt lat="49.75548" lon="4.82238">
        <ele>192</ele>
        <time>2020-11-13T06:46:14.000Z</time>
      </trkpt>
      <trkpt lat="49.75544" lon="4.82231">
        <ele>192</ele>
        <time>2020-11-13T06:46:15.000Z</time>
      </trkpt>
      <trkpt lat="49.7554" lon="4.82224">
        <ele>192</ele>
        <time>2020-11-13T06:46:16.000Z</time>
      </trkpt>
      <trkpt lat="49.75536" lon="4.82216">
        <ele>192</ele>
        <time>2020-11-13T06:46:17.000Z</time>
      </trkpt>
      <trkpt lat="49.75532" lon="4.82209">
        <ele>192</ele>
        <time>2020-11-13T06:46:18.000Z</time>
      </trkpt>
      <trkpt lat="49.75528" lon="4.82202">
        <ele>191</ele>
        <time>2020-11-13T06:46:19.000Z</time>
      </trkpt>
      <trkpt lat="49.75524" lon="4.82194">
        <ele>191</ele>
        <time>2020-11-13T06:46:20.000Z</time>
      </trkpt>
      <trkpt lat="49.7552" lon="4.82187">
        <ele>191</ele>
        <time>2020-11-13T06:46:21.000Z</time>
      </trkpt>
      <trkpt lat="49.75516" lon="4.8218">
        <ele>191</ele>
        <time>2020-11-13T06:46:22.000Z</time>
      </trkpt>
      <trkpt lat="49.75512" lon="4.82174">
        <ele>191</ele>
        <time>2020-11-13T06:46:23.000Z</time>
      </trkpt>
      <trkpt lat="49.75508" lon="4.82167">
        <ele>191</ele>
        <time>2020-11-13T06:46:24.000Z</time>
      </trkpt>
      <trkpt lat="49.75503" lon="4.82161">
        <ele>191</ele>
        <time>2020-11-13T06:46:25.000Z</time>
      </trkpt>
      <trkpt lat="49.75499" lon="4.82155">
        <ele>191</ele>
        <time>2020-11-13T06:46:26.000Z</time>
      </trkpt>
      <trkpt lat="49.75495" lon="4.82149">
        <ele>190</ele>
        <time>2020-11-13T06:46:27.000Z</time>
      </trkpt>
      <trkpt lat="49.75491" lon="4.82143">
        <ele>190</ele>
        <time>2020-11-13T06:46:28.000Z</time>
      </trkpt>
      <trkpt lat="49.75487" lon="4.82137">
        <ele>190</ele>
        <time>2020-11-13T06:46:29.000Z</time>
      </trkpt>
      <trkpt lat="49.75483" lon="4.82131">
        <ele>190</ele>
        <time>2020-11-13T06:46:30.000Z</time>
      </trkpt>
      <trkpt lat="49.75479" lon="4.82125">
        <ele>190</ele>
        <time>2020-11-13T06:46:31.000Z</time>
      </trkpt>
      <trkpt lat="49.75475" lon="4.82119">
        <ele>190</ele>
        <time>2020-11-13T06:46:32.000Z</time>
      </trkpt>
      <trkpt lat="49.75471" lon="4.82114">
        <ele>190</ele>
        <time>2020-11-13T06:46:33.000Z</time>
      </trkpt>
      <trkpt lat="49.75467" lon="4.82109">
        <ele>190</ele>
        <time>2020-11-13T06:46:34.000Z</time>
      </trkpt>
      <trkpt lat="49.75463" lon="4.82104">
        <ele>190</ele>
        <time>2020-11-13T06:46:35.000Z</time>
      </trkpt>
      <trkpt lat="49.75459" lon="4.82099">
        <ele>190</ele>
        <time>2020-11-13T06:46:36.000Z</time>
      </trkpt>
      <trkpt lat="49.75455" lon="4.82096">
        <ele>190</ele>
        <time>2020-11-13T06:46:37.000Z</time>
      </trkpt>
      <trkpt lat="49.7545" lon="4.82092">
        <ele>190</ele>
        <time>2020-11-13T06:46:38.000Z</time>
      </trkpt>
      <trkpt lat="49.75446" lon="4.82088">
        <ele>190</ele>
        <time>2020-11-13T06:46:39.000Z</time>
      </trkpt>
      <trkpt lat="49.75441" lon="4.82084">
        <ele>190</ele>
        <time>2020-11-13T06:46:40.000Z</time>
      </trkpt>
      <trkpt lat="49.75437" lon="4.8208">
        <ele>190</ele>
        <time>2020-11-13T06:46:41.000Z</time>
      </trkpt>
      <trkpt lat="49.75433" lon="4.82076">
        <ele>190</ele>
        <time>2020-11-13T06:46:42.000Z</time>
      </trkpt>
      <trkpt lat="49.75428" lon="4.82071">
        <ele>190</ele>
        <time>2020-11-13T06:46:43.000Z</time>
      </trkpt>
      <trkpt lat="49.75424" lon="4.82067">
        <ele>190</ele>
        <time>2020-11-13T06:46:44.000Z</time>
      </trkpt>
      <trkpt lat="49.7542" lon="4.82063">
        <ele>190</ele>
        <time>2020-11-13T06:46:45.000Z</time>
      </trkpt>
      <trkpt lat="49.75416" lon="4.82059">
        <ele>190</ele>
        <time>2020-11-13T06:46:46.000Z</time>
      </trkpt>
      <trkpt lat="49.75412" lon="4.82056">
        <ele>190</ele>
        <time>2020-11-13T06:46:47.000Z</time>
      </trkpt>
      <trkpt lat="49.75408" lon="4.82052">
        <ele>190</ele>
        <time>2020-11-13T06:46:48.000Z</time>
      </trkpt>
      <trkpt lat="49.75404" lon="4.82048">
        <ele>190</ele>
        <time>2020-11-13T06:46:49.000Z</time>
      </trkpt>
      <trkpt lat="49.754" lon="4.82044">
        <ele>190</ele>
        <time>2020-11-13T06:46:50.000Z</time>
      </trkpt>
      <trkpt lat="49.75395" lon="4.82041">
        <ele>190</ele>
        <time>2020-11-13T06:46:51.000Z</time>
      </trkpt>
      <trkpt lat="49.75391" lon="4.82037">
        <ele>190</ele>
        <time>2020-11-13T06:46:52.000Z</time>
      </trkpt>
      <trkpt lat="49.75386" lon="4.82034">
        <ele>190</ele>
        <time>2020-11-13T06:46:53.000Z</time>
      </trkpt>
      <trkpt lat="49.75382" lon="4.82031">
        <ele>190</ele>
        <time>2020-11-13T06:46:54.000Z</time>
      </trkpt>
      <trkpt lat="49.75378" lon="4.82028">
        <ele>190</ele>
        <time>2020-11-13T06:46:55.000Z</time>
      </trkpt>
      <trkpt lat="49.75373" lon="4.82026">
        <ele>190</ele>
        <time>2020-11-13T06:46:56.000Z</time>
      </trkpt>
      <trkpt lat="49.75369" lon="4.82024">
        <ele>190</ele>
        <time>2020-11-13T06:46:57.000Z</time>
      </trkpt>
      <trkpt lat="49.75365" lon="4.82022">
        <ele>190</ele>
        <time>2020-11-13T06:46:58.000Z</time>
      </trkpt>
      <trkpt lat="49.75361" lon="4.8202">
        <ele>190</ele>
        <time>2020-11-13T06:46:59.000Z</time>
      </trkpt>
      <trkpt lat="49.75358" lon="4.82018">
        <ele>190</ele>
        <time>2020-11-13T06:47:00.000Z</time>
      </trkpt>
      <trkpt lat="49.75354" lon="4.82016">
        <ele>190</ele>
        <time>2020-11-13T06:47:01.000Z</time>
      </trkpt>
      <trkpt lat="49.75351" lon="4.82014">
        <ele>190</ele>
        <time>2020-11-13T06:47:02.000Z</time>
      </trkpt>
      <trkpt lat="49.75348" lon="4.82011">
        <ele>190</ele>
        <time>2020-11-13T06:47:03.000Z</time>
      </trkpt>
      <trkpt lat="49.75345" lon="4.82009">
        <ele>190</ele>
        <time>2020-11-13T06:47:04.000Z</time>
      </trkpt>
      <trkpt lat="49.75342" lon="4.82007">
        <ele>190</ele>
        <time>2020-11-13T06:47:05.000Z</time>
      </trkpt>
      <trkpt lat="49.75339" lon="4.82006">
        <ele>190</ele>
        <time>2020-11-13T06:47:06.000Z</time>
      </trkpt>
      <trkpt lat="49.75336" lon="4.82004">
        <ele>190</ele>
        <time>2020-11-13T06:47:07.000Z</time>
      </trkpt>
      <trkpt lat="49.75333" lon="4.82002">
        <ele>190</ele>
        <time>2020-11-13T06:47:08.000Z</time>
      </trkpt>
      <trkpt lat="49.7533" lon="4.82">
        <ele>190</ele>
        <time>2020-11-13T06:47:09.000Z</time>
      </trkpt>
      <trkpt lat="49.75327" lon="4.81998">
        <ele>190</ele>
        <time>2020-11-13T06:47:10.000Z</time>
      </trkpt>
      <trkpt lat="49.75323" lon="4.81995">
        <ele>190</ele>
        <time>2020-11-13T06:47:11.000Z</time>
      </trkpt>
      <trkpt lat="49.7532" lon="4.81993">
        <ele>190</ele>
        <time>2020-11-13T06:47:12.000Z</time>
      </trkpt>
      <trkpt lat="49.75317" lon="4.81991">
        <ele>190</ele>
        <time>2020-11-13T06:47:13.000Z</time>
      </trkpt>
      <trkpt lat="49.75313" lon="4.81989">
        <ele>190</ele>
        <time>2020-11-13T06:47:14.000Z</time>
      </trkpt>
      <trkpt lat="49.7531" lon="4.81986">
        <ele>190</ele>
        <time>2020-11-13T06:47:15.000Z</time>
      </trkpt>
      <trkpt lat="49.75307" lon="4.81984">
        <ele>191</ele>
        <time>2020-11-13T06:47:16.000Z</time>
      </trkpt>
      <trkpt lat="49.75304" lon="4.81982">
        <ele>191</ele>
        <time>2020-11-13T06:47:17.000Z</time>
      </trkpt>
      <trkpt lat="49.75301" lon="4.8198">
        <ele>191</ele>
        <time>2020-11-13T06:47:18.000Z</time>
      </trkpt>
      <trkpt lat="49.75298" lon="4.81977">
        <ele>191</ele>
        <time>2020-11-13T06:47:19.000Z</time>
      </trkpt>
      <trkpt lat="49.75295" lon="4.81975">
        <ele>191</ele>
        <time>2020-11-13T06:47:20.000Z</time>
      </trkpt>
      <trkpt lat="49.75293" lon="4.81972">
        <ele>191</ele>
        <time>2020-11-13T06:47:21.000Z</time>
      </trkpt>
      <trkpt lat="49.7529" lon="4.8197">
        <ele>191</ele>
        <time>2020-11-13T06:47:22.000Z</time>
      </trkpt>
      <trkpt lat="49.75286" lon="4.81967">
        <ele>191</ele>
        <time>2020-11-13T06:47:23.000Z</time>
      </trkpt>
      <trkpt lat="49.75283" lon="4.81964">
        <ele>191</ele>
        <time>2020-11-13T06:47:24.000Z</time>
      </trkpt>
      <trkpt lat="49.75279" lon="4.81962">
        <ele>192</ele>
        <time>2020-11-13T06:47:25.000Z</time>
      </trkpt>
      <trkpt lat="49.75276" lon="4.81959">
        <ele>192</ele>
        <time>2020-11-13T06:47:26.000Z</time>
      </trkpt>
      <trkpt lat="49.75273" lon="4.81956">
        <ele>192</ele>
        <time>2020-11-13T06:47:27.000Z</time>
      </trkpt>
      <trkpt lat="49.7527" lon="4.81953">
        <ele>192</ele>
        <time>2020-11-13T06:47:28.000Z</time>
      </trkpt>
      <trkpt lat="49.75267" lon="4.8195">
        <ele>192</ele>
        <time>2020-11-13T06:47:29.000Z</time>
      </trkpt>
      <trkpt lat="49.75264" lon="4.81946">
        <ele>192</ele>
        <time>2020-11-13T06:47:30.000Z</time>
      </trkpt>
      <trkpt lat="49.75261" lon="4.81943">
        <ele>192</ele>
        <time>2020-11-13T06:47:31.000Z</time>
      </trkpt>
      <trkpt lat="49.75258" lon="4.81939">
        <ele>192</ele>
        <time>2020-11-13T06:47:32.000Z</time>
      </trkpt>
      <trkpt lat="49.75255" lon="4.81936">
        <ele>193</ele>
        <time>2020-11-13T06:47:33.000Z</time>
      </trkpt>
      <trkpt lat="49.75253" lon="4.81932">
        <ele>193</ele>
        <time>2020-11-13T06:47:34.000Z</time>
      </trkpt>
      <trkpt lat="49.7525" lon="4.81927">
        <ele>193</ele>
        <time>2020-11-13T06:47:35.000Z</time>
      </trkpt>
      <trkpt lat="49.75248" lon="4.81923">
        <ele>193</ele>
        <time>2020-11-13T06:47:36.000Z</time>
      </trkpt>
      <trkpt lat="49.75245" lon="4.8192">
        <ele>193</ele>
        <time>2020-11-13T06:47:37.000Z</time>
      </trkpt>
      <trkpt lat="49.75242" lon="4.81917">
        <ele>193</ele>
        <time>2020-11-13T06:47:38.000Z</time>
      </trkpt>
      <trkpt lat="49.75239" lon="4.81913">
        <ele>194</ele>
        <time>2020-11-13T06:47:39.000Z</time>
      </trkpt>
      <trkpt lat="49.75236" lon="4.8191">
        <ele>194</ele>
        <time>2020-11-13T06:47:40.000Z</time>
      </trkpt>
      <trkpt lat="49.75233" lon="4.81907">
        <ele>194</ele>
        <time>2020-11-13T06:47:41.000Z</time>
      </trkpt>
      <trkpt lat="49.7523" lon="4.81903">
        <ele>194</ele>
        <time>2020-11-13T06:47:42.000Z</time>
      </trkpt>
      <trkpt lat="49.75227" lon="4.819">
        <ele>194</ele>
        <time>2020-11-13T06:47:43.000Z</time>
      </trkpt>
      <trkpt lat="49.75224" lon="4.81896">
        <ele>194</ele>
        <time>2020-11-13T06:47:44.000Z</time>
      </trkpt>
      <trkpt lat="49.75221" lon="4.81892">
        <ele>194</ele>
        <time>2020-11-13T06:47:45.000Z</time>
      </trkpt>
      <trkpt lat="49.75218" lon="4.81888">
        <ele>195</ele>
        <time>2020-11-13T06:47:46.000Z</time>
      </trkpt>
      <trkpt lat="49.75214" lon="4.81884">
        <ele>195</ele>
        <time>2020-11-13T06:47:47.000Z</time>
      </trkpt>
      <trkpt lat="49.75211" lon="4.8188">
        <ele>195</ele>
        <time>2020-11-13T06:47:48.000Z</time>
      </trkpt>
      <trkpt lat="49.75208" lon="4.81876">
        <ele>195</ele>
        <time>2020-11-13T06:47:49.000Z</time>
      </trkpt>
      <trkpt lat="49.75205" lon="4.81872">
        <ele>195</ele>
        <time>2020-11-13T06:47:50.000Z</time>
      </trkpt>
      <trkpt lat="49.75202" lon="4.81868">
        <ele>195</ele>
        <time>2020-11-13T06:47:51.000Z</time>
      </trkpt>
      <trkpt lat="49.75199" lon="4.81863">
        <ele>195</ele>
        <time>2020-11-13T06:47:52.000Z</time>
      </trkpt>
      <trkpt lat="49.75196" lon="4.81859">
        <ele>195</ele>
        <time>2020-11-13T06:47:53.000Z</time>
      </trkpt>
      <trkpt lat="49.75194" lon="4.81854">
        <ele>195</ele>
        <time>2020-11-13T06:47:54.000Z</time>
      </trkpt>
      <trkpt lat="49.75191" lon="4.8185">
        <ele>196</ele>
        <time>2020-11-13T06:47:55.000Z</time>
      </trkpt>
      <trkpt lat="49.75188" lon="4.81845">
        <ele>196</ele>
        <time>2020-11-13T06:47:56.000Z</time>
      </trkpt>
      <trkpt lat="49.75185" lon="4.8184">
        <ele>196</ele>
        <time>2020-11-13T06:47:57.000Z</time>
      </trkpt>
      <trkpt lat="49.75182" lon="4.81835">
        <ele>196</ele>
        <time>2020-11-13T06:47:58.000Z</time>
      </trkpt>
      <trkpt lat="49.75179" lon="4.81829">
        <ele>196</ele>
        <time>2020-11-13T06:47:59.000Z</time>
      </trkpt>
      <trkpt lat="49.75177" lon="4.81824">
        <ele>196</ele>
        <time>2020-11-13T06:48:00.000Z</time>
      </trkpt>
      <trkpt lat="49.75174" lon="4.8182">
        <ele>196</ele>
        <time>2020-11-13T06:48:01.000Z</time>
      </trkpt>
      <trkpt lat="49.75171" lon="4.81815">
        <ele>196</ele>
        <time>2020-11-13T06:48:02.000Z</time>
      </trkpt>
      <trkpt lat="49.75168" lon="4.8181">
        <ele>196</ele>
        <time>2020-11-13T06:48:03.000Z</time>
      </trkpt>
      <trkpt lat="49.75165" lon="4.81805">
        <ele>196</ele>
        <time>2020-11-13T06:48:04.000Z</time>
      </trkpt>
      <trkpt lat="49.75162" lon="4.818">
        <ele>196</ele>
        <time>2020-11-13T06:48:05.000Z</time>
      </trkpt>
      <trkpt lat="49.75159" lon="4.81795">
        <ele>196</ele>
        <time>2020-11-13T06:48:06.000Z</time>
      </trkpt>
      <trkpt lat="49.75156" lon="4.8179">
        <ele>196</ele>
        <time>2020-11-13T06:48:07.000Z</time>
      </trkpt>
      <trkpt lat="49.75153" lon="4.81785">
        <ele>196</ele>
        <time>2020-11-13T06:48:08.000Z</time>
      </trkpt>
      <trkpt lat="49.7515" lon="4.81779">
        <ele>196</ele>
        <time>2020-11-13T06:48:09.000Z</time>
      </trkpt>
      <trkpt lat="49.75147" lon="4.81774">
        <ele>196</ele>
        <time>2020-11-13T06:48:10.000Z</time>
      </trkpt>
      <trkpt lat="49.75144" lon="4.81769">
        <ele>196</ele>
        <time>2020-11-13T06:48:11.000Z</time>
      </trkpt>
      <trkpt lat="49.75141" lon="4.81763">
        <ele>196</ele>
        <time>2020-11-13T06:48:12.000Z</time>
      </trkpt>
      <trkpt lat="49.75138" lon="4.81756">
        <ele>196</ele>
        <time>2020-11-13T06:48:13.000Z</time>
      </trkpt>
      <trkpt lat="49.75136" lon="4.81749">
        <ele>196</ele>
        <time>2020-11-13T06:48:14.000Z</time>
      </trkpt>
      <trkpt lat="49.75134" lon="4.81742">
        <ele>196</ele>
        <time>2020-11-13T06:48:15.000Z</time>
      </trkpt>
      <trkpt lat="49.75132" lon="4.81735">
        <ele>196</ele>
        <time>2020-11-13T06:48:16.000Z</time>
      </trkpt>
      <trkpt lat="49.7513" lon="4.81728">
        <ele>197</ele>
        <time>2020-11-13T06:48:17.000Z</time>
      </trkpt>
      <trkpt lat="49.75127" lon="4.81722">
        <ele>197</ele>
        <time>2020-11-13T06:48:18.000Z</time>
      </trkpt>
      <trkpt lat="49.75125" lon="4.81715">
        <ele>197</ele>
        <time>2020-11-13T06:48:19.000Z</time>
      </trkpt>
      <trkpt lat="49.75122" lon="4.81709">
        <ele>197</ele>
        <time>2020-11-13T06:48:20.000Z</time>
      </trkpt>
      <trkpt lat="49.7512" lon="4.81702">
        <ele>197</ele>
        <time>2020-11-13T06:48:21.000Z</time>
      </trkpt>
      <trkpt lat="49.75118" lon="4.81696">
        <ele>198</ele>
        <time>2020-11-13T06:48:22.000Z</time>
      </trkpt>
      <trkpt lat="49.75116" lon="4.81689">
        <ele>198</ele>
        <time>2020-11-13T06:48:23.000Z</time>
      </trkpt>
      <trkpt lat="49.75115" lon="4.81682">
        <ele>198</ele>
        <time>2020-11-13T06:48:24.000Z</time>
      </trkpt>
      <trkpt lat="49.75114" lon="4.81675">
        <ele>198</ele>
        <time>2020-11-13T06:48:25.000Z</time>
      </trkpt>
      <trkpt lat="49.75113" lon="4.81667">
        <ele>198</ele>
        <time>2020-11-13T06:48:26.000Z</time>
      </trkpt>
      <trkpt lat="49.75113" lon="4.8166">
        <ele>198</ele>
        <time>2020-11-13T06:48:27.000Z</time>
      </trkpt>
      <trkpt lat="49.75113" lon="4.81652">
        <ele>199</ele>
        <time>2020-11-13T06:48:28.000Z</time>
      </trkpt>
      <trkpt lat="49.75113" lon="4.81644">
        <ele>199</ele>
        <time>2020-11-13T06:48:29.000Z</time>
      </trkpt>
      <trkpt lat="49.75112" lon="4.81636">
        <ele>199</ele>
        <time>2020-11-13T06:48:30.000Z</time>
      </trkpt>
      <trkpt lat="49.75112" lon="4.81628">
        <ele>199</ele>
        <time>2020-11-13T06:48:31.000Z</time>
      </trkpt>
      <trkpt lat="49.75112" lon="4.8162">
        <ele>199</ele>
        <time>2020-11-13T06:48:32.000Z</time>
      </trkpt>
      <trkpt lat="49.75112" lon="4.81612">
        <ele>199</ele>
        <time>2020-11-13T06:48:33.000Z</time>
      </trkpt>
      <trkpt lat="49.75112" lon="4.81604">
        <ele>199</ele>
        <time>2020-11-13T06:48:34.000Z</time>
      </trkpt>
      <trkpt lat="49.75112" lon="4.81596">
        <ele>199</ele>
        <time>2020-11-13T06:48:35.000Z</time>
      </trkpt>
      <trkpt lat="49.75112" lon="4.81588">
        <ele>199</ele>
        <time>2020-11-13T06:48:36.000Z</time>
      </trkpt>
      <trkpt lat="49.75112" lon="4.81581">
        <ele>200</ele>
        <time>2020-11-13T06:48:37.000Z</time>
      </trkpt>
      <trkpt lat="49.75113" lon="4.81574">
        <ele>200</ele>
        <time>2020-11-13T06:48:38.000Z</time>
      </trkpt>
      <trkpt lat="49.75114" lon="4.81566">
        <ele>200</ele>
        <time>2020-11-13T06:48:39.000Z</time>
      </trkpt>
      <trkpt lat="49.75115" lon="4.81559">
        <ele>200</ele>
        <time>2020-11-13T06:48:40.000Z</time>
      </trkpt>
      <trkpt lat="49.75115" lon="4.81551">
        <ele>200</ele>
        <time>2020-11-13T06:48:41.000Z</time>
      </trkpt>
      <trkpt lat="49.75116" lon="4.81543">
        <ele>200</ele>
        <time>2020-11-13T06:48:42.000Z</time>
      </trkpt>
      <trkpt lat="49.75118" lon="4.81535">
        <ele>200</ele>
        <time>2020-11-13T06:48:43.000Z</time>
      </trkpt>
      <trkpt lat="49.75119" lon="4.81528">
        <ele>200</ele>
        <time>2020-11-13T06:48:44.000Z</time>
      </trkpt>
      <trkpt lat="49.7512" lon="4.8152">
        <ele>200</ele>
        <time>2020-11-13T06:48:45.000Z</time>
      </trkpt>
      <trkpt lat="49.75122" lon="4.81513">
        <ele>200</ele>
        <time>2020-11-13T06:48:46.000Z</time>
      </trkpt>
      <trkpt lat="49.75123" lon="4.81506">
        <ele>200</ele>
        <time>2020-11-13T06:48:47.000Z</time>
      </trkpt>
      <trkpt lat="49.75125" lon="4.81499">
        <ele>200</ele>
        <time>2020-11-13T06:48:48.000Z</time>
      </trkpt>
      <trkpt lat="49.75127" lon="4.81492">
        <ele>201</ele>
        <time>2020-11-13T06:48:49.000Z</time>
      </trkpt>
      <trkpt lat="49.75129" lon="4.81485">
        <ele>201</ele>
        <time>2020-11-13T06:48:50.000Z</time>
      </trkpt>
      <trkpt lat="49.75131" lon="4.81479">
        <ele>201</ele>
        <time>2020-11-13T06:48:51.000Z</time>
      </trkpt>
      <trkpt lat="49.75132" lon="4.81473">
        <ele>201</ele>
        <time>2020-11-13T06:48:52.000Z</time>
      </trkpt>
      <trkpt lat="49.75133" lon="4.81466">
        <ele>201</ele>
        <time>2020-11-13T06:48:53.000Z</time>
      </trkpt>
      <trkpt lat="49.75135" lon="4.8146">
        <ele>201</ele>
        <time>2020-11-13T06:48:54.000Z</time>
      </trkpt>
      <trkpt lat="49.75136" lon="4.81454">
        <ele>201</ele>
        <time>2020-11-13T06:48:55.000Z</time>
      </trkpt>
      <trkpt lat="49.75137" lon="4.81448">
        <ele>202</ele>
        <time>2020-11-13T06:48:56.000Z</time>
      </trkpt>
      <trkpt lat="49.75137" lon="4.81442">
        <ele>202</ele>
        <time>2020-11-13T06:48:57.000Z</time>
      </trkpt>
      <trkpt lat="49.75138" lon="4.81436">
        <ele>202</ele>
        <time>2020-11-13T06:48:58.000Z</time>
      </trkpt>
      <trkpt lat="49.75139" lon="4.81431">
        <ele>202</ele>
        <time>2020-11-13T06:48:59.000Z</time>
      </trkpt>
      <trkpt lat="49.75139" lon="4.81426">
        <ele>203</ele>
        <time>2020-11-13T06:49:00.000Z</time>
      </trkpt>
      <trkpt lat="49.7514" lon="4.81421">
        <ele>203</ele>
        <time>2020-11-13T06:49:01.000Z</time>
      </trkpt>
      <trkpt lat="49.75141" lon="4.81416">
        <ele>203</ele>
        <time>2020-11-13T06:49:02.000Z</time>
      </trkpt>
      <trkpt lat="49.75141" lon="4.81411">
        <ele>203</ele>
        <time>2020-11-13T06:49:03.000Z</time>
      </trkpt>
      <trkpt lat="49.75142" lon="4.81406">
        <ele>204</ele>
        <time>2020-11-13T06:49:04.000Z</time>
      </trkpt>
      <trkpt lat="49.75143" lon="4.814">
        <ele>204</ele>
        <time>2020-11-13T06:49:05.000Z</time>
      </trkpt>
      <trkpt lat="49.75144" lon="4.81395">
        <ele>204</ele>
        <time>2020-11-13T06:49:06.000Z</time>
      </trkpt>
      <trkpt lat="49.75144" lon="4.8139">
        <ele>204</ele>
        <time>2020-11-13T06:49:07.000Z</time>
      </trkpt>
      <trkpt lat="49.75145" lon="4.81385">
        <ele>205</ele>
        <time>2020-11-13T06:49:08.000Z</time>
      </trkpt>
      <trkpt lat="49.75145" lon="4.8138">
        <ele>205</ele>
        <time>2020-11-13T06:49:09.000Z</time>
      </trkpt>
      <trkpt lat="49.75145" lon="4.81376">
        <ele>205</ele>
        <time>2020-11-13T06:49:10.000Z</time>
      </trkpt>
      <trkpt lat="49.75146" lon="4.81372">
        <ele>205</ele>
        <time>2020-11-13T06:49:11.000Z</time>
      </trkpt>
      <trkpt lat="49.75146" lon="4.81368">
        <ele>205</ele>
        <time>2020-11-13T06:49:12.000Z</time>
      </trkpt>
      <trkpt lat="49.75146" lon="4.81364">
        <ele>206</ele>
        <time>2020-11-13T06:49:13.000Z</time>
      </trkpt>
      <trkpt lat="49.75146" lon="4.8136">
        <ele>206</ele>
        <time>2020-11-13T06:49:14.000Z</time>
      </trkpt>
      <trkpt lat="49.75146" lon="4.81357">
        <ele>206</ele>
        <time>2020-11-13T06:49:15.000Z</time>
      </trkpt>
      <trkpt lat="49.75146" lon="4.81353">
        <ele>206</ele>
        <time>2020-11-13T06:49:16.000Z</time>
      </trkpt>
      <trkpt lat="49.75146" lon="4.81349">
        <ele>206</ele>
        <time>2020-11-13T06:49:17.000Z</time>
      </trkpt>
      <trkpt lat="49.75146" lon="4.81345">
        <ele>207</ele>
        <time>2020-11-13T06:49:18.000Z</time>
      </trkpt>
      <trkpt lat="49.75146" lon="4.81342">
        <ele>207</ele>
        <time>2020-11-13T06:49:19.000Z</time>
      </trkpt>
      <trkpt lat="49.75145" lon="4.81338">
        <ele>207</ele>
        <time>2020-11-13T06:49:20.000Z</time>
      </trkpt>
      <trkpt lat="49.75145" lon="4.81334">
        <ele>207</ele>
        <time>2020-11-13T06:49:21.000Z</time>
      </trkpt>
      <trkpt lat="49.75145" lon="4.81331">
        <ele>208</ele>
        <time>2020-11-13T06:49:22.000Z</time>
      </trkpt>
      <trkpt lat="49.75145" lon="4.81327">
        <ele>208</ele>
        <time>2020-11-13T06:49:23.000Z</time>
      </trkpt>
      <trkpt lat="49.75144" lon="4.81323">
        <ele>208</ele>
        <time>2020-11-13T06:49:24.000Z</time>
      </trkpt>
      <trkpt lat="49.75144" lon="4.8132">
        <ele>208</ele>
        <time>2020-11-13T06:49:25.000Z</time>
      </trkpt>
      <trkpt lat="49.75144" lon="4.81316">
        <ele>209</ele>
        <time>2020-11-13T06:49:26.000Z</time>
      </trkpt>
      <trkpt lat="49.75143" lon="4.81312">
        <ele>209</ele>
        <time>2020-11-13T06:49:27.000Z</time>
      </trkpt>
      <trkpt lat="49.75143" lon="4.81308">
        <ele>209</ele>
        <time>2020-11-13T06:49:28.000Z</time>
      </trkpt>
      <trkpt lat="49.75142" lon="4.81305">
        <ele>209</ele>
        <time>2020-11-13T06:49:29.000Z</time>
      </trkpt>
      <trkpt lat="49.75141" lon="4.81301">
        <ele>210</ele>
        <time>2020-11-13T06:49:30.000Z</time>
      </trkpt>
      <trkpt lat="49.75141" lon="4.81297">
        <ele>210</ele>
        <time>2020-11-13T06:49:31.000Z</time>
      </trkpt>
      <trkpt lat="49.7514" lon="4.81294">
        <ele>210</ele>
        <time>2020-11-13T06:49:32.000Z</time>
      </trkpt>
      <trkpt lat="49.75139" lon="4.8129">
        <ele>211</ele>
        <time>2020-11-13T06:49:33.000Z</time>
      </trkpt>
      <trkpt lat="49.75139" lon="4.81286">
        <ele>211</ele>
        <time>2020-11-13T06:49:34.000Z</time>
      </trkpt>
      <trkpt lat="49.75138" lon="4.81281">
        <ele>211</ele>
        <time>2020-11-13T06:49:35.000Z</time>
      </trkpt>
      <trkpt lat="49.75137" lon="4.81277">
        <ele>211</ele>
        <time>2020-11-13T06:49:36.000Z</time>
      </trkpt>
      <trkpt lat="49.75136" lon="4.81272">
        <ele>212</ele>
        <time>2020-11-13T06:49:37.000Z</time>
      </trkpt>
      <trkpt lat="49.75135" lon="4.81267">
        <ele>212</ele>
        <time>2020-11-13T06:49:38.000Z</time>
      </trkpt>
      <trkpt lat="49.75134" lon="4.81262">
        <ele>212</ele>
        <time>2020-11-13T06:49:39.000Z</time>
      </trkpt>
      <trkpt lat="49.75133" lon="4.81258">
        <ele>213</ele>
        <time>2020-11-13T06:49:40.000Z</time>
      </trkpt>
      <trkpt lat="49.75132" lon="4.81253">
        <ele>213</ele>
        <time>2020-11-13T06:49:41.000Z</time>
      </trkpt>
      <trkpt lat="49.75131" lon="4.81249">
        <ele>213</ele>
        <time>2020-11-13T06:49:42.000Z</time>
      </trkpt>
      <trkpt lat="49.7513" lon="4.81245">
        <ele>213</ele>
        <time>2020-11-13T06:49:43.000Z</time>
      </trkpt>
      <trkpt lat="49.75129" lon="4.8124">
        <ele>213</ele>
        <time>2020-11-13T06:49:44.000Z</time>
      </trkpt>
      <trkpt lat="49.75129" lon="4.81236">
        <ele>214</ele>
        <time>2020-11-13T06:49:45.000Z</time>
      </trkpt>
      <trkpt lat="49.75128" lon="4.81231">
        <ele>214</ele>
        <time>2020-11-13T06:49:46.000Z</time>
      </trkpt>
      <trkpt lat="49.75127" lon="4.81227">
        <ele>214</ele>
        <time>2020-11-13T06:49:47.000Z</time>
      </trkpt>
      <trkpt lat="49.75126" lon="4.81223">
        <ele>214</ele>
        <time>2020-11-13T06:49:48.000Z</time>
      </trkpt>
      <trkpt lat="49.75126" lon="4.8122">
        <ele>214</ele>
        <time>2020-11-13T06:49:49.000Z</time>
      </trkpt>
      <trkpt lat="49.75125" lon="4.81216">
        <ele>214</ele>
        <time>2020-11-13T06:49:50.000Z</time>
      </trkpt>
      <trkpt lat="49.75124" lon="4.81212">
        <ele>214</ele>
        <time>2020-11-13T06:49:51.000Z</time>
      </trkpt>
      <trkpt lat="49.75123" lon="4.81208">
        <ele>215</ele>
        <time>2020-11-13T06:49:52.000Z</time>
      </trkpt>
      <trkpt lat="49.75123" lon="4.81204">
        <ele>215</ele>
        <time>2020-11-13T06:49:53.000Z</time>
      </trkpt>
      <trkpt lat="49.75122" lon="4.812">
        <ele>215</ele>
        <time>2020-11-13T06:49:54.000Z</time>
      </trkpt>
      <trkpt lat="49.75121" lon="4.81196">
        <ele>215</ele>
        <time>2020-11-13T06:49:55.000Z</time>
      </trkpt>
      <trkpt lat="49.7512" lon="4.81192">
        <ele>215</ele>
        <time>2020-11-13T06:49:56.000Z</time>
      </trkpt>
      <trkpt lat="49.75119" lon="4.81188">
        <ele>215</ele>
        <time>2020-11-13T06:49:57.000Z</time>
      </trkpt>
      <trkpt lat="49.75119" lon="4.81183">
        <ele>215</ele>
        <time>2020-11-13T06:49:58.000Z</time>
      </trkpt>
      <trkpt lat="49.75118" lon="4.81179">
        <ele>215</ele>
        <time>2020-11-13T06:49:59.000Z</time>
      </trkpt>
      <trkpt lat="49.75118" lon="4.81174">
        <ele>215</ele>
        <time>2020-11-13T06:50:00.000Z</time>
      </trkpt>
      <trkpt lat="49.75117" lon="4.81169">
        <ele>216</ele>
        <time>2020-11-13T06:50:01.000Z</time>
      </trkpt>
      <trkpt lat="49.75116" lon="4.81164">
        <ele>216</ele>
        <time>2020-11-13T06:50:02.000Z</time>
      </trkpt>
      <trkpt lat="49.75116" lon="4.8116">
        <ele>216</ele>
        <time>2020-11-13T06:50:03.000Z</time>
      </trkpt>
      <trkpt lat="49.75115" lon="4.81155">
        <ele>216</ele>
        <time>2020-11-13T06:50:04.000Z</time>
      </trkpt>
      <trkpt lat="49.75114" lon="4.81151">
        <ele>216</ele>
        <time>2020-11-13T06:50:05.000Z</time>
      </trkpt>
      <trkpt lat="49.75112" lon="4.81146">
        <ele>216</ele>
        <time>2020-11-13T06:50:06.000Z</time>
      </trkpt>
      <trkpt lat="49.75111" lon="4.81141">
        <ele>216</ele>
        <time>2020-11-13T06:50:07.000Z</time>
      </trkpt>
      <trkpt lat="49.7511" lon="4.81136">
        <ele>217</ele>
        <time>2020-11-13T06:50:08.000Z</time>
      </trkpt>
      <trkpt lat="49.75109" lon="4.81131">
        <ele>217</ele>
        <time>2020-11-13T06:50:09.000Z</time>
      </trkpt>
      <trkpt lat="49.75107" lon="4.81127">
        <ele>217</ele>
        <time>2020-11-13T06:50:10.000Z</time>
      </trkpt>
      <trkpt lat="49.75106" lon="4.81122">
        <ele>217</ele>
        <time>2020-11-13T06:50:11.000Z</time>
      </trkpt>
      <trkpt lat="49.75104" lon="4.81117">
        <ele>217</ele>
        <time>2020-11-13T06:50:12.000Z</time>
      </trkpt>
      <trkpt lat="49.75103" lon="4.81112">
        <ele>218</ele>
        <time>2020-11-13T06:50:13.000Z</time>
      </trkpt>
      <trkpt lat="49.75102" lon="4.81107">
        <ele>218</ele>
        <time>2020-11-13T06:50:14.000Z</time>
      </trkpt>
      <trkpt lat="49.751" lon="4.81103">
        <ele>218</ele>
        <time>2020-11-13T06:50:15.000Z</time>
      </trkpt>
      <trkpt lat="49.75099" lon="4.81098">
        <ele>218</ele>
        <time>2020-11-13T06:50:16.000Z</time>
      </trkpt>
      <trkpt lat="49.75097" lon="4.81094">
        <ele>218</ele>
        <time>2020-11-13T06:50:17.000Z</time>
      </trkpt>
      <trkpt lat="49.75096" lon="4.81089">
        <ele>218</ele>
        <time>2020-11-13T06:50:18.000Z</time>
      </trkpt>
      <trkpt lat="49.75096" lon="4.81085">
        <ele>219</ele>
        <time>2020-11-13T06:50:19.000Z</time>
      </trkpt>
      <trkpt lat="49.75095" lon="4.8108">
        <ele>219</ele>
        <time>2020-11-13T06:50:20.000Z</time>
      </trkpt>
      <trkpt lat="49.75093" lon="4.81075">
        <ele>219</ele>
        <time>2020-11-13T06:50:21.000Z</time>
      </trkpt>
      <trkpt lat="49.75092" lon="4.8107">
        <ele>219</ele>
        <time>2020-11-13T06:50:22.000Z</time>
      </trkpt>
      <trkpt lat="49.75091" lon="4.81064">
        <ele>219</ele>
        <time>2020-11-13T06:50:23.000Z</time>
      </trkpt>
      <trkpt lat="49.75089" lon="4.81058">
        <ele>219</ele>
        <time>2020-11-13T06:50:24.000Z</time>
      </trkpt>
      <trkpt lat="49.75088" lon="4.81053">
        <ele>219</ele>
        <time>2020-11-13T06:50:25.000Z</time>
      </trkpt>
      <trkpt lat="49.75087" lon="4.81047">
        <ele>219</ele>
        <time>2020-11-13T06:50:26.000Z</time>
      </trkpt>
      <trkpt lat="49.75086" lon="4.81041">
        <ele>219</ele>
        <time>2020-11-13T06:50:27.000Z</time>
      </trkpt>
      <trkpt lat="49.75084" lon="4.81035">
        <ele>219</ele>
        <time>2020-11-13T06:50:28.000Z</time>
      </trkpt>
      <trkpt lat="49.75082" lon="4.81029">
        <ele>219</ele>
        <time>2020-11-13T06:50:29.000Z</time>
      </trkpt>
      <trkpt lat="49.75081" lon="4.81023">
        <ele>219</ele>
        <time>2020-11-13T06:50:30.000Z</time>
      </trkpt>
      <trkpt lat="49.7508" lon="4.81017">
        <ele>219</ele>
        <time>2020-11-13T06:50:31.000Z</time>
      </trkpt>
      <trkpt lat="49.75078" lon="4.81011">
        <ele>219</ele>
        <time>2020-11-13T06:50:32.000Z</time>
      </trkpt>
      <trkpt lat="49.75076" lon="4.81006">
        <ele>219</ele>
        <time>2020-11-13T06:50:33.000Z</time>
      </trkpt>
      <trkpt lat="49.75075" lon="4.81001">
        <ele>219</ele>
        <time>2020-11-13T06:50:34.000Z</time>
      </trkpt>
      <trkpt lat="49.75073" lon="4.80996">
        <ele>219</ele>
        <time>2020-11-13T06:50:35.000Z</time>
      </trkpt>
      <trkpt lat="49.75072" lon="4.8099">
        <ele>219</ele>
        <time>2020-11-13T06:50:36.000Z</time>
      </trkpt>
      <trkpt lat="49.7507" lon="4.80985">
        <ele>219</ele>
        <time>2020-11-13T06:50:37.000Z</time>
      </trkpt>
      <trkpt lat="49.75069" lon="4.80979">
        <ele>220</ele>
        <time>2020-11-13T06:50:38.000Z</time>
      </trkpt>
      <trkpt lat="49.75067" lon="4.80973">
        <ele>220</ele>
        <time>2020-11-13T06:50:39.000Z</time>
      </trkpt>
      <trkpt lat="49.75065" lon="4.80967">
        <ele>220</ele>
        <time>2020-11-13T06:50:40.000Z</time>
      </trkpt>
      <trkpt lat="49.75064" lon="4.80961">
        <ele>220</ele>
        <time>2020-11-13T06:50:41.000Z</time>
      </trkpt>
      <trkpt lat="49.75063" lon="4.80954">
        <ele>220</ele>
        <time>2020-11-13T06:50:42.000Z</time>
      </trkpt>
      <trkpt lat="49.75061" lon="4.80946">
        <ele>220</ele>
        <time>2020-11-13T06:50:43.000Z</time>
      </trkpt>
      <trkpt lat="49.7506" lon="4.80938">
        <ele>220</ele>
        <time>2020-11-13T06:50:44.000Z</time>
      </trkpt>
      <trkpt lat="49.7506" lon="4.80928">
        <ele>220</ele>
        <time>2020-11-13T06:50:45.000Z</time>
      </trkpt>
      <trkpt lat="49.75059" lon="4.80917">
        <ele>220</ele>
        <time>2020-11-13T06:50:46.000Z</time>
      </trkpt>
      <trkpt lat="49.75059" lon="4.80906">
        <ele>220</ele>
        <time>2020-11-13T06:50:47.000Z</time>
      </trkpt>
      <trkpt lat="49.75058" lon="4.80895">
        <ele>219</ele>
        <time>2020-11-13T06:50:48.000Z</time>
      </trkpt>
      <trkpt lat="49.75059" lon="4.80883">
        <ele>219</ele>
        <time>2020-11-13T06:50:49.000Z</time>
      </trkpt>
      <trkpt lat="49.75059" lon="4.8087">
        <ele>219</ele>
        <time>2020-11-13T06:50:50.000Z</time>
      </trkpt>
      <trkpt lat="49.75059" lon="4.80856">
        <ele>219</ele>
        <time>2020-11-13T06:50:51.000Z</time>
      </trkpt>
      <trkpt lat="49.7506" lon="4.80841">
        <ele>218</ele>
        <time>2020-11-13T06:50:52.000Z</time>
      </trkpt>
      <trkpt lat="49.7506" lon="4.80826">
        <ele>218</ele>
        <time>2020-11-13T06:50:53.000Z</time>
      </trkpt>
      <trkpt lat="49.75062" lon="4.8081">
        <ele>218</ele>
        <time>2020-11-13T06:50:54.000Z</time>
      </trkpt>
      <trkpt lat="49.75065" lon="4.80795">
        <ele>217</ele>
        <time>2020-11-13T06:50:55.000Z</time>
      </trkpt>
      <trkpt lat="49.75067" lon="4.8078">
        <ele>217</ele>
        <time>2020-11-13T06:50:56.000Z</time>
      </trkpt>
      <trkpt lat="49.7507" lon="4.80766">
        <ele>217</ele>
        <time>2020-11-13T06:50:57.000Z</time>
      </trkpt>
      <trkpt lat="49.75073" lon="4.80752">
        <ele>216</ele>
        <time>2020-11-13T06:50:58.000Z</time>
      </trkpt>
      <trkpt lat="49.75078" lon="4.80739">
        <ele>216</ele>
        <time>2020-11-13T06:50:59.000Z</time>
      </trkpt>
      <trkpt lat="49.75083" lon="4.80728">
        <ele>215</ele>
        <time>2020-11-13T06:51:00.000Z</time>
      </trkpt>
      <trkpt lat="49.75091" lon="4.80718">
        <ele>215</ele>
        <time>2020-11-13T06:51:01.000Z</time>
      </trkpt>
      <trkpt lat="49.751" lon="4.80711">
        <ele>214</ele>
        <time>2020-11-13T06:51:02.000Z</time>
      </trkpt>
      <trkpt lat="49.75109" lon="4.80706">
        <ele>213</ele>
        <time>2020-11-13T06:51:03.000Z</time>
      </trkpt>
      <trkpt lat="49.75117" lon="4.80701">
        <ele>211</ele>
        <time>2020-11-13T06:51:04.000Z</time>
      </trkpt>
      <trkpt lat="49.75125" lon="4.80697">
        <ele>211</ele>
        <time>2020-11-13T06:51:05.000Z</time>
      </trkpt>
      <trkpt lat="49.75133" lon="4.80694">
        <ele>210</ele>
        <time>2020-11-13T06:51:06.000Z</time>
      </trkpt>
      <trkpt lat="49.7514" lon="4.80694">
        <ele>209</ele>
        <time>2020-11-13T06:51:07.000Z</time>
      </trkpt>
      <trkpt lat="49.75147" lon="4.80694">
        <ele>208</ele>
        <time>2020-11-13T06:51:08.000Z</time>
      </trkpt>
      <trkpt lat="49.75154" lon="4.80695">
        <ele>208</ele>
        <time>2020-11-13T06:51:09.000Z</time>
      </trkpt>
      <trkpt lat="49.7516" lon="4.80695">
        <ele>208</ele>
        <time>2020-11-13T06:51:10.000Z</time>
      </trkpt>
      <trkpt lat="49.75166" lon="4.80694">
        <ele>207</ele>
        <time>2020-11-13T06:51:11.000Z</time>
      </trkpt>
      <trkpt lat="49.75172" lon="4.80694">
        <ele>207</ele>
        <time>2020-11-13T06:51:12.000Z</time>
      </trkpt>
      <trkpt lat="49.75178" lon="4.80693">
        <ele>207</ele>
        <time>2020-11-13T06:51:13.000Z</time>
      </trkpt>
      <trkpt lat="49.75184" lon="4.80692">
        <ele>207</ele>
        <time>2020-11-13T06:51:14.000Z</time>
      </trkpt>
      <trkpt lat="49.7519" lon="4.80692">
        <ele>206</ele>
        <time>2020-11-13T06:51:15.000Z</time>
      </trkpt>
      <trkpt lat="49.75195" lon="4.80691">
        <ele>206</ele>
        <time>2020-11-13T06:51:16.000Z</time>
      </trkpt>
      <trkpt lat="49.75201" lon="4.80691">
        <ele>206</ele>
        <time>2020-11-13T06:51:17.000Z</time>
      </trkpt>
      <trkpt lat="49.75206" lon="4.80691">
        <ele>206</ele>
        <time>2020-11-13T06:51:18.000Z</time>
      </trkpt>
      <trkpt lat="49.75212" lon="4.8069">
        <ele>206</ele>
        <time>2020-11-13T06:51:19.000Z</time>
      </trkpt>
      <trkpt lat="49.75217" lon="4.8069">
        <ele>205</ele>
        <time>2020-11-13T06:51:20.000Z</time>
      </trkpt>
      <trkpt lat="49.75222" lon="4.8069">
        <ele>205</ele>
        <time>2020-11-13T06:51:21.000Z</time>
      </trkpt>
      <trkpt lat="49.75227" lon="4.80691">
        <ele>205</ele>
        <time>2020-11-13T06:51:22.000Z</time>
      </trkpt>
      <trkpt lat="49.75232" lon="4.80692">
        <ele>205</ele>
        <time>2020-11-13T06:51:23.000Z</time>
      </trkpt>
      <trkpt lat="49.75236" lon="4.80694">
        <ele>205</ele>
        <time>2020-11-13T06:51:24.000Z</time>
      </trkpt>
      <trkpt lat="49.7524" lon="4.80696">
        <ele>204</ele>
        <time>2020-11-13T06:51:25.000Z</time>
      </trkpt>
      <trkpt lat="49.75244" lon="4.80697">
        <ele>204</ele>
        <time>2020-11-13T06:51:26.000Z</time>
      </trkpt>
      <trkpt lat="49.75248" lon="4.80699">
        <ele>204</ele>
        <time>2020-11-13T06:51:27.000Z</time>
      </trkpt>
      <trkpt lat="49.75252" lon="4.80699">
        <ele>204</ele>
        <time>2020-11-13T06:51:28.000Z</time>
      </trkpt>
      <trkpt lat="49.75256" lon="4.80699">
        <ele>204</ele>
        <time>2020-11-13T06:51:29.000Z</time>
      </trkpt>
      <trkpt lat="49.7526" lon="4.80699">
        <ele>204</ele>
        <time>2020-11-13T06:51:30.000Z</time>
      </trkpt>
      <trkpt lat="49.75264" lon="4.80698">
        <ele>204</ele>
        <time>2020-11-13T06:51:31.000Z</time>
      </trkpt>
      <trkpt lat="49.75267" lon="4.80697">
        <ele>204</ele>
        <time>2020-11-13T06:51:32.000Z</time>
      </trkpt>
      <trkpt lat="49.75271" lon="4.80696">
        <ele>204</ele>
        <time>2020-11-13T06:51:33.000Z</time>
      </trkpt>
      <trkpt lat="49.75274" lon="4.80694">
        <ele>204</ele>
        <time>2020-11-13T06:51:34.000Z</time>
      </trkpt>
      <trkpt lat="49.75278" lon="4.80692">
        <ele>204</ele>
        <time>2020-11-13T06:51:35.000Z</time>
      </trkpt>
      <trkpt lat="49.75281" lon="4.80689">
        <ele>204</ele>
        <time>2020-11-13T06:51:36.000Z</time>
      </trkpt>
      <trkpt lat="49.75285" lon="4.80687">
        <ele>204</ele>
        <time>2020-11-13T06:51:37.000Z</time>
      </trkpt>
      <trkpt lat="49.75288" lon="4.80684">
        <ele>204</ele>
        <time>2020-11-13T06:51:38.000Z</time>
      </trkpt>
      <trkpt lat="49.75291" lon="4.80682">
        <ele>204</ele>
        <time>2020-11-13T06:51:39.000Z</time>
      </trkpt>
      <trkpt lat="49.75294" lon="4.8068">
        <ele>204</ele>
        <time>2020-11-13T06:51:40.000Z</time>
      </trkpt>
      <trkpt lat="49.75297" lon="4.80679">
        <ele>205</ele>
        <time>2020-11-13T06:51:41.000Z</time>
      </trkpt>
      <trkpt lat="49.753" lon="4.80678">
        <ele>205</ele>
        <time>2020-11-13T06:51:42.000Z</time>
      </trkpt>
      <trkpt lat="49.75303" lon="4.80678">
        <ele>205</ele>
        <time>2020-11-13T06:51:43.000Z</time>
      </trkpt>
      <trkpt lat="49.75306" lon="4.80678">
        <ele>205</ele>
        <time>2020-11-13T06:51:44.000Z</time>
      </trkpt>
      <trkpt lat="49.75309" lon="4.80677">
        <ele>205</ele>
        <time>2020-11-13T06:51:45.000Z</time>
      </trkpt>
      <trkpt lat="49.75312" lon="4.80676">
        <ele>205</ele>
        <time>2020-11-13T06:51:46.000Z</time>
      </trkpt>
      <trkpt lat="49.75315" lon="4.80676">
        <ele>205</ele>
        <time>2020-11-13T06:51:47.000Z</time>
      </trkpt>
      <trkpt lat="49.75318" lon="4.80676">
        <ele>205</ele>
        <time>2020-11-13T06:51:48.000Z</time>
      </trkpt>
      <trkpt lat="49.75322" lon="4.80675">
        <ele>205</ele>
        <time>2020-11-13T06:51:49.000Z</time>
      </trkpt>
      <trkpt lat="49.75326" lon="4.80675">
        <ele>205</ele>
        <time>2020-11-13T06:51:50.000Z</time>
      </trkpt>
      <trkpt lat="49.7533" lon="4.80676">
        <ele>205</ele>
        <time>2020-11-13T06:51:51.000Z</time>
      </trkpt>
      <trkpt lat="49.75333" lon="4.80677">
        <ele>205</ele>
        <time>2020-11-13T06:51:52.000Z</time>
      </trkpt>
      <trkpt lat="49.75337" lon="4.80677">
        <ele>205</ele>
        <time>2020-11-13T06:51:53.000Z</time>
      </trkpt>
      <trkpt lat="49.75341" lon="4.80678">
        <ele>205</ele>
        <time>2020-11-13T06:51:54.000Z</time>
      </trkpt>
      <trkpt lat="49.75344" lon="4.80679">
        <ele>206</ele>
        <time>2020-11-13T06:51:55.000Z</time>
      </trkpt>
      <trkpt lat="49.75346" lon="4.8068">
        <ele>206</ele>
        <time>2020-11-13T06:51:56.000Z</time>
      </trkpt>
      <trkpt lat="49.75349" lon="4.80681">
        <ele>206</ele>
        <time>2020-11-13T06:51:57.000Z</time>
      </trkpt>
      <trkpt lat="49.75352" lon="4.80681">
        <ele>206</ele>
        <time>2020-11-13T06:51:58.000Z</time>
      </trkpt>
      <trkpt lat="49.75355" lon="4.80682">
        <ele>207</ele>
        <time>2020-11-13T06:51:59.000Z</time>
      </trkpt>
      <trkpt lat="49.75357" lon="4.80683">
        <ele>207</ele>
        <time>2020-11-13T06:52:00.000Z</time>
      </trkpt>
      <trkpt lat="49.7536" lon="4.80684">
        <ele>207</ele>
        <time>2020-11-13T06:52:01.000Z</time>
      </trkpt>
      <trkpt lat="49.75362" lon="4.80685">
        <ele>208</ele>
        <time>2020-11-13T06:52:02.000Z</time>
      </trkpt>
      <trkpt lat="49.75365" lon="4.80685">
        <ele>208</ele>
        <time>2020-11-13T06:52:03.000Z</time>
      </trkpt>
      <trkpt lat="49.75368" lon="4.80686">
        <ele>209</ele>
        <time>2020-11-13T06:52:04.000Z</time>
      </trkpt>
      <trkpt lat="49.7537" lon="4.80687">
        <ele>209</ele>
        <time>2020-11-13T06:52:05.000Z</time>
      </trkpt>
      <trkpt lat="49.75373" lon="4.80688">
        <ele>209</ele>
        <time>2020-11-13T06:52:06.000Z</time>
      </trkpt>
      <trkpt lat="49.75377" lon="4.80688">
        <ele>210</ele>
        <time>2020-11-13T06:52:07.000Z</time>
      </trkpt>
      <trkpt lat="49.75379" lon="4.8069">
        <ele>210</ele>
        <time>2020-11-13T06:52:08.000Z</time>
      </trkpt>
      <trkpt lat="49.75382" lon="4.80691">
        <ele>211</ele>
        <time>2020-11-13T06:52:09.000Z</time>
      </trkpt>
      <trkpt lat="49.75385" lon="4.80692">
        <ele>211</ele>
        <time>2020-11-13T06:52:10.000Z</time>
      </trkpt>
      <trkpt lat="49.75388" lon="4.80692">
        <ele>212</ele>
        <time>2020-11-13T06:52:11.000Z</time>
      </trkpt>
      <trkpt lat="49.7539" lon="4.80693">
        <ele>212</ele>
        <time>2020-11-13T06:52:12.000Z</time>
      </trkpt>
      <trkpt lat="49.75392" lon="4.80693">
        <ele>213</ele>
        <time>2020-11-13T06:52:13.000Z</time>
      </trkpt>
      <trkpt lat="49.75394" lon="4.80694">
        <ele>213</ele>
        <time>2020-11-13T06:52:14.000Z</time>
      </trkpt>
      <trkpt lat="49.75396" lon="4.80695">
        <ele>213</ele>
        <time>2020-11-13T06:52:15.000Z</time>
      </trkpt>
      <trkpt lat="49.75399" lon="4.80696">
        <ele>214</ele>
        <time>2020-11-13T06:52:16.000Z</time>
      </trkpt>
      <trkpt lat="49.75402" lon="4.80698">
        <ele>214</ele>
        <time>2020-11-13T06:52:17.000Z</time>
      </trkpt>
      <trkpt lat="49.75404" lon="4.80699">
        <ele>214</ele>
        <time>2020-11-13T06:52:18.000Z</time>
      </trkpt>
      <trkpt lat="49.75407" lon="4.807">
        <ele>214</ele>
        <time>2020-11-13T06:52:19.000Z</time>
      </trkpt>
      <trkpt lat="49.75411" lon="4.80701">
        <ele>215</ele>
        <time>2020-11-13T06:52:20.000Z</time>
      </trkpt>
      <trkpt lat="49.75414" lon="4.80701">
        <ele>215</ele>
        <time>2020-11-13T06:52:21.000Z</time>
      </trkpt>
      <trkpt lat="49.75416" lon="4.80702">
        <ele>215</ele>
        <time>2020-11-13T06:52:22.000Z</time>
      </trkpt>
      <trkpt lat="49.75418" lon="4.80703">
        <ele>215</ele>
        <time>2020-11-13T06:52:23.000Z</time>
      </trkpt>
      <trkpt lat="49.75421" lon="4.80704">
        <ele>215</ele>
        <time>2020-11-13T06:52:24.000Z</time>
      </trkpt>
      <trkpt lat="49.75424" lon="4.80705">
        <ele>215</ele>
        <time>2020-11-13T06:52:25.000Z</time>
      </trkpt>
      <trkpt lat="49.75427" lon="4.80706">
        <ele>215</ele>
        <time>2020-11-13T06:52:26.000Z</time>
      </trkpt>
      <trkpt lat="49.75431" lon="4.80707">
        <ele>216</ele>
        <time>2020-11-13T06:52:27.000Z</time>
      </trkpt>
      <trkpt lat="49.75433" lon="4.80708">
        <ele>216</ele>
        <time>2020-11-13T06:52:28.000Z</time>
      </trkpt>
      <trkpt lat="49.75436" lon="4.8071">
        <ele>216</ele>
        <time>2020-11-13T06:52:29.000Z</time>
      </trkpt>
      <trkpt lat="49.75439" lon="4.80713">
        <ele>216</ele>
        <time>2020-11-13T06:52:30.000Z</time>
      </trkpt>
      <trkpt lat="49.75441" lon="4.80715">
        <ele>216</ele>
        <time>2020-11-13T06:52:31.000Z</time>
      </trkpt>
      <trkpt lat="49.75444" lon="4.80717">
        <ele>216</ele>
        <time>2020-11-13T06:52:32.000Z</time>
      </trkpt>
      <trkpt lat="49.75447" lon="4.80719">
        <ele>216</ele>
        <time>2020-11-13T06:52:33.000Z</time>
      </trkpt>
      <trkpt lat="49.7545" lon="4.8072">
        <ele>216</ele>
        <time>2020-11-13T06:52:34.000Z</time>
      </trkpt>
      <trkpt lat="49.75453" lon="4.80722">
        <ele>216</ele>
        <time>2020-11-13T06:52:35.000Z</time>
      </trkpt>
      <trkpt lat="49.75456" lon="4.80724">
        <ele>216</ele>
        <time>2020-11-13T06:52:36.000Z</time>
      </trkpt>
      <trkpt lat="49.75459" lon="4.80726">
        <ele>217</ele>
        <time>2020-11-13T06:52:37.000Z</time>
      </trkpt>
      <trkpt lat="49.75461" lon="4.80727">
        <ele>217</ele>
        <time>2020-11-13T06:52:38.000Z</time>
      </trkpt>
      <trkpt lat="49.75464" lon="4.80729">
        <ele>217</ele>
        <time>2020-11-13T06:52:39.000Z</time>
      </trkpt>
      <trkpt lat="49.75466" lon="4.80732">
        <ele>217</ele>
        <time>2020-11-13T06:52:40.000Z</time>
      </trkpt>
      <trkpt lat="49.75469" lon="4.80734">
        <ele>217</ele>
        <time>2020-11-13T06:52:41.000Z</time>
      </trkpt>
      <trkpt lat="49.75471" lon="4.80736">
        <ele>218</ele>
        <time>2020-11-13T06:52:42.000Z</time>
      </trkpt>
      <trkpt lat="49.75474" lon="4.80739">
        <ele>218</ele>
        <time>2020-11-13T06:52:43.000Z</time>
      </trkpt>
      <trkpt lat="49.75477" lon="4.80741">
        <ele>218</ele>
        <time>2020-11-13T06:52:44.000Z</time>
      </trkpt>
      <trkpt lat="49.7548" lon="4.80743">
        <ele>218</ele>
        <time>2020-11-13T06:52:45.000Z</time>
      </trkpt>
      <trkpt lat="49.75483" lon="4.80745">
        <ele>218</ele>
        <time>2020-11-13T06:52:46.000Z</time>
      </trkpt>
      <trkpt lat="49.75485" lon="4.80747">
        <ele>218</ele>
        <time>2020-11-13T06:52:47.000Z</time>
      </trkpt>
      <trkpt lat="49.75488" lon="4.80749">
        <ele>218</ele>
        <time>2020-11-13T06:52:48.000Z</time>
      </trkpt>
      <trkpt lat="49.7549" lon="4.80751">
        <ele>218</ele>
        <time>2020-11-13T06:52:49.000Z</time>
      </trkpt>
      <trkpt lat="49.75492" lon="4.80753">
        <ele>218</ele>
        <time>2020-11-13T06:52:50.000Z</time>
      </trkpt>
      <trkpt lat="49.75494" lon="4.80756">
        <ele>218</ele>
        <time>2020-11-13T06:52:51.000Z</time>
      </trkpt>
      <trkpt lat="49.75496" lon="4.80758">
        <ele>218</ele>
        <time>2020-11-13T06:52:52.000Z</time>
      </trkpt>
      <trkpt lat="49.75498" lon="4.8076">
        <ele>218</ele>
        <time>2020-11-13T06:52:53.000Z</time>
      </trkpt>
      <trkpt lat="49.755" lon="4.80763">
        <ele>218</ele>
        <time>2020-11-13T06:52:54.000Z</time>
      </trkpt>
      <trkpt lat="49.75503" lon="4.80765">
        <ele>218</ele>
        <time>2020-11-13T06:52:55.000Z</time>
      </trkpt>
      <trkpt lat="49.75506" lon="4.80766">
        <ele>218</ele>
        <time>2020-11-13T06:52:56.000Z</time>
      </trkpt>
      <trkpt lat="49.75508" lon="4.80768">
        <ele>218</ele>
        <time>2020-11-13T06:52:57.000Z</time>
      </trkpt>
      <trkpt lat="49.75511" lon="4.80771">
        <ele>219</ele>
        <time>2020-11-13T06:52:58.000Z</time>
      </trkpt>
      <trkpt lat="49.75513" lon="4.80773">
        <ele>219</ele>
        <time>2020-11-13T06:52:59.000Z</time>
      </trkpt>
      <trkpt lat="49.75516" lon="4.80775">
        <ele>219</ele>
        <time>2020-11-13T06:53:00.000Z</time>
      </trkpt>
      <trkpt lat="49.75518" lon="4.80777">
        <ele>219</ele>
        <time>2020-11-13T06:53:01.000Z</time>
      </trkpt>
      <trkpt lat="49.7552" lon="4.80779">
        <ele>220</ele>
        <time>2020-11-13T06:53:02.000Z</time>
      </trkpt>
      <trkpt lat="49.75523" lon="4.8078">
        <ele>220</ele>
        <time>2020-11-13T06:53:03.000Z</time>
      </trkpt>
      <trkpt lat="49.75526" lon="4.80783">
        <ele>220</ele>
        <time>2020-11-13T06:53:04.000Z</time>
      </trkpt>
      <trkpt lat="49.75529" lon="4.80785">
        <ele>221</ele>
        <time>2020-11-13T06:53:05.000Z</time>
      </trkpt>
      <trkpt lat="49.75532" lon="4.80788">
        <ele>221</ele>
        <time>2020-11-13T06:53:06.000Z</time>
      </trkpt>
      <trkpt lat="49.75534" lon="4.80789">
        <ele>221</ele>
        <time>2020-11-13T06:53:07.000Z</time>
      </trkpt>
      <trkpt lat="49.75536" lon="4.80791">
        <ele>222</ele>
        <time>2020-11-13T06:53:08.000Z</time>
      </trkpt>
      <trkpt lat="49.75538" lon="4.80793">
        <ele>222</ele>
        <time>2020-11-13T06:53:09.000Z</time>
      </trkpt>
      <trkpt lat="49.7554" lon="4.80795">
        <ele>222</ele>
        <time>2020-11-13T06:53:10.000Z</time>
      </trkpt>
      <trkpt lat="49.75542" lon="4.80797">
        <ele>223</ele>
        <time>2020-11-13T06:53:11.000Z</time>
      </trkpt>
      <trkpt lat="49.75544" lon="4.808">
        <ele>223</ele>
        <time>2020-11-13T06:53:12.000Z</time>
      </trkpt>
      <trkpt lat="49.75547" lon="4.80803">
        <ele>223</ele>
        <time>2020-11-13T06:53:13.000Z</time>
      </trkpt>
      <trkpt lat="49.75548" lon="4.80806">
        <ele>223</ele>
        <time>2020-11-13T06:53:14.000Z</time>
      </trkpt>
      <trkpt lat="49.7555" lon="4.80809">
        <ele>224</ele>
        <time>2020-11-13T06:53:15.000Z</time>
      </trkpt>
      <trkpt lat="49.75552" lon="4.80812">
        <ele>224</ele>
        <time>2020-11-13T06:53:16.000Z</time>
      </trkpt>
      <trkpt lat="49.75554" lon="4.80814">
        <ele>224</ele>
        <time>2020-11-13T06:53:17.000Z</time>
      </trkpt>
      <trkpt lat="49.75556" lon="4.80817">
        <ele>224</ele>
        <time>2020-11-13T06:53:18.000Z</time>
      </trkpt>
      <trkpt lat="49.75558" lon="4.8082">
        <ele>224</ele>
        <time>2020-11-13T06:53:19.000Z</time>
      </trkpt>
      <trkpt lat="49.7556" lon="4.80822">
        <ele>225</ele>
        <time>2020-11-13T06:53:20.000Z</time>
      </trkpt>
      <trkpt lat="49.75562" lon="4.80824">
        <ele>225</ele>
        <time>2020-11-13T06:53:21.000Z</time>
      </trkpt>
      <trkpt lat="49.75564" lon="4.80826">
        <ele>225</ele>
        <time>2020-11-13T06:53:22.000Z</time>
      </trkpt>
      <trkpt lat="49.75566" lon="4.80828">
        <ele>225</ele>
        <time>2020-11-13T06:53:23.000Z</time>
      </trkpt>
      <trkpt lat="49.75568" lon="4.8083">
        <ele>225</ele>
        <time>2020-11-13T06:53:24.000Z</time>
      </trkpt>
      <trkpt lat="49.75571" lon="4.80831">
        <ele>226</ele>
        <time>2020-11-13T06:53:25.000Z</time>
      </trkpt>
      <trkpt lat="49.75573" lon="4.80833">
        <ele>226</ele>
        <time>2020-11-13T06:53:26.000Z</time>
      </trkpt>
      <trkpt lat="49.75575" lon="4.80834">
        <ele>226</ele>
        <time>2020-11-13T06:53:27.000Z</time>
      </trkpt>
      <trkpt lat="49.75578" lon="4.80836">
        <ele>226</ele>
        <time>2020-11-13T06:53:28.000Z</time>
      </trkpt>
      <trkpt lat="49.75581" lon="4.80837">
        <ele>227</ele>
        <time>2020-11-13T06:53:29.000Z</time>
      </trkpt>
      <trkpt lat="49.75583" lon="4.80838">
        <ele>227</ele>
        <time>2020-11-13T06:53:30.000Z</time>
      </trkpt>
      <trkpt lat="49.75586" lon="4.80838">
        <ele>227</ele>
        <time>2020-11-13T06:53:31.000Z</time>
      </trkpt>
      <trkpt lat="49.75588" lon="4.80839">
        <ele>227</ele>
        <time>2020-11-13T06:53:32.000Z</time>
      </trkpt>
      <trkpt lat="49.75591" lon="4.8084">
        <ele>227</ele>
        <time>2020-11-13T06:53:33.000Z</time>
      </trkpt>
      <trkpt lat="49.75594" lon="4.80841">
        <ele>228</ele>
        <time>2020-11-13T06:53:34.000Z</time>
      </trkpt>
      <trkpt lat="49.75597" lon="4.80841">
        <ele>228</ele>
        <time>2020-11-13T06:53:35.000Z</time>
      </trkpt>
      <trkpt lat="49.75599" lon="4.80842">
        <ele>228</ele>
        <time>2020-11-13T06:53:36.000Z</time>
      </trkpt>
      <trkpt lat="49.75601" lon="4.80844">
        <ele>228</ele>
        <time>2020-11-13T06:53:37.000Z</time>
      </trkpt>
      <trkpt lat="49.75604" lon="4.80844">
        <ele>228</ele>
        <time>2020-11-13T06:53:38.000Z</time>
      </trkpt>
      <trkpt lat="49.75607" lon="4.80846">
        <ele>228</ele>
        <time>2020-11-13T06:53:39.000Z</time>
      </trkpt>
      <trkpt lat="49.75609" lon="4.80847">
        <ele>228</ele>
        <time>2020-11-13T06:53:40.000Z</time>
      </trkpt>
      <trkpt lat="49.75612" lon="4.80849">
        <ele>229</ele>
        <time>2020-11-13T06:53:41.000Z</time>
      </trkpt>
      <trkpt lat="49.75615" lon="4.8085">
        <ele>229</ele>
        <time>2020-11-13T06:53:42.000Z</time>
      </trkpt>
      <trkpt lat="49.75618" lon="4.80851">
        <ele>229</ele>
        <time>2020-11-13T06:53:43.000Z</time>
      </trkpt>
      <trkpt lat="49.75621" lon="4.80852">
        <ele>229</ele>
        <time>2020-11-13T06:53:44.000Z</time>
      </trkpt>
      <trkpt lat="49.75624" lon="4.80853">
        <ele>229</ele>
        <time>2020-11-13T06:53:45.000Z</time>
      </trkpt>
      <trkpt lat="49.75626" lon="4.80855">
        <ele>230</ele>
        <time>2020-11-13T06:53:46.000Z</time>
      </trkpt>
      <trkpt lat="49.75629" lon="4.80856">
        <ele>230</ele>
        <time>2020-11-13T06:53:47.000Z</time>
      </trkpt>
      <trkpt lat="49.75631" lon="4.80857">
        <ele>230</ele>
        <time>2020-11-13T06:53:48.000Z</time>
      </trkpt>
      <trkpt lat="49.75634" lon="4.80858">
        <ele>230</ele>
        <time>2020-11-13T06:53:49.000Z</time>
      </trkpt>
      <trkpt lat="49.75637" lon="4.80859">
        <ele>230</ele>
        <time>2020-11-13T06:53:50.000Z</time>
      </trkpt>
      <trkpt lat="49.75641" lon="4.8086">
        <ele>231</ele>
        <time>2020-11-13T06:53:51.000Z</time>
      </trkpt>
      <trkpt lat="49.75644" lon="4.80861">
        <ele>231</ele>
        <time>2020-11-13T06:53:52.000Z</time>
      </trkpt>
      <trkpt lat="49.75647" lon="4.80862">
        <ele>231</ele>
        <time>2020-11-13T06:53:53.000Z</time>
      </trkpt>
      <trkpt lat="49.75651" lon="4.80862">
        <ele>231</ele>
        <time>2020-11-13T06:53:54.000Z</time>
      </trkpt>
      <trkpt lat="49.75653" lon="4.80863">
        <ele>231</ele>
        <time>2020-11-13T06:53:55.000Z</time>
      </trkpt>
      <trkpt lat="49.75656" lon="4.80865">
        <ele>231</ele>
        <time>2020-11-13T06:53:56.000Z</time>
      </trkpt>
      <trkpt lat="49.75659" lon="4.80865">
        <ele>231</ele>
        <time>2020-11-13T06:53:57.000Z</time>
      </trkpt>
      <trkpt lat="49.75662" lon="4.80866">
        <ele>231</ele>
        <time>2020-11-13T06:53:58.000Z</time>
      </trkpt>
      <trkpt lat="49.75665" lon="4.80867">
        <ele>231</ele>
        <time>2020-11-13T06:53:59.000Z</time>
      </trkpt>
      <trkpt lat="49.75667" lon="4.80868">
        <ele>231</ele>
        <time>2020-11-13T06:54:00.000Z</time>
      </trkpt>
      <trkpt lat="49.7567" lon="4.8087">
        <ele>231</ele>
        <time>2020-11-13T06:54:01.000Z</time>
      </trkpt>
      <trkpt lat="49.75673" lon="4.80871">
        <ele>231</ele>
        <time>2020-11-13T06:54:02.000Z</time>
      </trkpt>
      <trkpt lat="49.75675" lon="4.80873">
        <ele>231</ele>
        <time>2020-11-13T06:54:03.000Z</time>
      </trkpt>
      <trkpt lat="49.75678" lon="4.80874">
        <ele>231</ele>
        <time>2020-11-13T06:54:04.000Z</time>
      </trkpt>
      <trkpt lat="49.75681" lon="4.80875">
        <ele>231</ele>
        <time>2020-11-13T06:54:05.000Z</time>
      </trkpt>
      <trkpt lat="49.75684" lon="4.80876">
        <ele>231</ele>
        <time>2020-11-13T06:54:06.000Z</time>
      </trkpt>
      <trkpt lat="49.75687" lon="4.80877">
        <ele>231</ele>
        <time>2020-11-13T06:54:07.000Z</time>
      </trkpt>
      <trkpt lat="49.7569" lon="4.80879">
        <ele>231</ele>
        <time>2020-11-13T06:54:08.000Z</time>
      </trkpt>
      <trkpt lat="49.75692" lon="4.8088">
        <ele>231</ele>
        <time>2020-11-13T06:54:09.000Z</time>
      </trkpt>
      <trkpt lat="49.75695" lon="4.80881">
        <ele>231</ele>
        <time>2020-11-13T06:54:10.000Z</time>
      </trkpt>
      <trkpt lat="49.75698" lon="4.80883">
        <ele>232</ele>
        <time>2020-11-13T06:54:11.000Z</time>
      </trkpt>
      <trkpt lat="49.757" lon="4.80884">
        <ele>232</ele>
        <time>2020-11-13T06:54:12.000Z</time>
      </trkpt>
      <trkpt lat="49.75703" lon="4.80885">
        <ele>232</ele>
        <time>2020-11-13T06:54:13.000Z</time>
      </trkpt>
      <trkpt lat="49.75706" lon="4.80886">
        <ele>232</ele>
        <time>2020-11-13T06:54:14.000Z</time>
      </trkpt>
      <trkpt lat="49.75709" lon="4.80887">
        <ele>232</ele>
        <time>2020-11-13T06:54:15.000Z</time>
      </trkpt>
      <trkpt lat="49.75712" lon="4.80888">
        <ele>232</ele>
        <time>2020-11-13T06:54:16.000Z</time>
      </trkpt>
      <trkpt lat="49.75714" lon="4.80889">
        <ele>232</ele>
        <time>2020-11-13T06:54:17.000Z</time>
      </trkpt>
      <trkpt lat="49.75717" lon="4.8089">
        <ele>233</ele>
        <time>2020-11-13T06:54:18.000Z</time>
      </trkpt>
      <trkpt lat="49.7572" lon="4.80892">
        <ele>233</ele>
        <time>2020-11-13T06:54:19.000Z</time>
      </trkpt>
      <trkpt lat="49.75723" lon="4.80893">
        <ele>233</ele>
        <time>2020-11-13T06:54:20.000Z</time>
      </trkpt>
      <trkpt lat="49.75726" lon="4.80894">
        <ele>233</ele>
        <time>2020-11-13T06:54:21.000Z</time>
      </trkpt>
      <trkpt lat="49.75729" lon="4.80895">
        <ele>233</ele>
        <time>2020-11-13T06:54:22.000Z</time>
      </trkpt>
      <trkpt lat="49.75733" lon="4.80896">
        <ele>233</ele>
        <time>2020-11-13T06:54:23.000Z</time>
      </trkpt>
      <trkpt lat="49.75736" lon="4.80897">
        <ele>233</ele>
        <time>2020-11-13T06:54:24.000Z</time>
      </trkpt>
      <trkpt lat="49.75739" lon="4.80898">
        <ele>233</ele>
        <time>2020-11-13T06:54:25.000Z</time>
      </trkpt>
      <trkpt lat="49.75742" lon="4.80899">
        <ele>233</ele>
        <time>2020-11-13T06:54:26.000Z</time>
      </trkpt>
      <trkpt lat="49.75745" lon="4.80899">
        <ele>233</ele>
        <time>2020-11-13T06:54:27.000Z</time>
      </trkpt>
      <trkpt lat="49.75749" lon="4.809">
        <ele>233</ele>
        <time>2020-11-13T06:54:28.000Z</time>
      </trkpt>
      <trkpt lat="49.75752" lon="4.809">
        <ele>233</ele>
        <time>2020-11-13T06:54:29.000Z</time>
      </trkpt>
      <trkpt lat="49.75755" lon="4.80901">
        <ele>233</ele>
        <time>2020-11-13T06:54:30.000Z</time>
      </trkpt>
      <trkpt lat="49.75758" lon="4.80902">
        <ele>233</ele>
        <time>2020-11-13T06:54:31.000Z</time>
      </trkpt>
      <trkpt lat="49.75762" lon="4.80901">
        <ele>233</ele>
        <time>2020-11-13T06:54:32.000Z</time>
      </trkpt>
      <trkpt lat="49.75765" lon="4.80902">
        <ele>234</ele>
        <time>2020-11-13T06:54:33.000Z</time>
      </trkpt>
      <trkpt lat="49.75767" lon="4.80903">
        <ele>234</ele>
        <time>2020-11-13T06:54:34.000Z</time>
      </trkpt>
      <trkpt lat="49.7577" lon="4.80904">
        <ele>234</ele>
        <time>2020-11-13T06:54:35.000Z</time>
      </trkpt>
      <trkpt lat="49.75773" lon="4.80903">
        <ele>234</ele>
        <time>2020-11-13T06:54:36.000Z</time>
      </trkpt>
      <trkpt lat="49.75775" lon="4.80903">
        <ele>234</ele>
        <time>2020-11-13T06:54:37.000Z</time>
      </trkpt>
      <trkpt lat="49.75778" lon="4.80903">
        <ele>234</ele>
        <time>2020-11-13T06:54:38.000Z</time>
      </trkpt>
      <trkpt lat="49.75782" lon="4.80904">
        <ele>234</ele>
        <time>2020-11-13T06:54:39.000Z</time>
      </trkpt>
      <trkpt lat="49.75784" lon="4.80904">
        <ele>234</ele>
        <time>2020-11-13T06:54:40.000Z</time>
      </trkpt>
      <trkpt lat="49.75787" lon="4.80904">
        <ele>234</ele>
        <time>2020-11-13T06:54:41.000Z</time>
      </trkpt>
      <trkpt lat="49.75789" lon="4.80904">
        <ele>234</ele>
        <time>2020-11-13T06:54:42.000Z</time>
      </trkpt>
      <trkpt lat="49.75791" lon="4.80905">
        <ele>234</ele>
        <time>2020-11-13T06:54:43.000Z</time>
      </trkpt>
      <trkpt lat="49.75793" lon="4.80905">
        <ele>234</ele>
        <time>2020-11-13T06:54:44.000Z</time>
      </trkpt>
      <trkpt lat="49.75796" lon="4.80906">
        <ele>234</ele>
        <time>2020-11-13T06:54:45.000Z</time>
      </trkpt>
      <trkpt lat="49.75798" lon="4.80906">
        <ele>234</ele>
        <time>2020-11-13T06:54:46.000Z</time>
      </trkpt>
      <trkpt lat="49.75801" lon="4.80907">
        <ele>234</ele>
        <time>2020-11-13T06:54:47.000Z</time>
      </trkpt>
      <trkpt lat="49.75805" lon="4.80907">
        <ele>234</ele>
        <time>2020-11-13T06:54:48.000Z</time>
      </trkpt>
      <trkpt lat="49.75808" lon="4.80908">
        <ele>234</ele>
        <time>2020-11-13T06:54:49.000Z</time>
      </trkpt>
      <trkpt lat="49.75811" lon="4.8091">
        <ele>235</ele>
        <time>2020-11-13T06:54:50.000Z</time>
      </trkpt>
      <trkpt lat="49.75814" lon="4.80911">
        <ele>235</ele>
        <time>2020-11-13T06:54:51.000Z</time>
      </trkpt>
      <trkpt lat="49.75816" lon="4.80912">
        <ele>235</ele>
        <time>2020-11-13T06:54:52.000Z</time>
      </trkpt>
      <trkpt lat="49.75819" lon="4.80914">
        <ele>235</ele>
        <time>2020-11-13T06:54:53.000Z</time>
      </trkpt>
      <trkpt lat="49.75822" lon="4.80914">
        <ele>235</ele>
        <time>2020-11-13T06:54:54.000Z</time>
      </trkpt>
      <trkpt lat="49.75824" lon="4.80915">
        <ele>236</ele>
        <time>2020-11-13T06:54:55.000Z</time>
      </trkpt>
      <trkpt lat="49.75827" lon="4.80917">
        <ele>236</ele>
        <time>2020-11-13T06:54:56.000Z</time>
      </trkpt>
      <trkpt lat="49.7583" lon="4.80919">
        <ele>236</ele>
        <time>2020-11-13T06:54:57.000Z</time>
      </trkpt>
      <trkpt lat="49.75833" lon="4.80921">
        <ele>236</ele>
        <time>2020-11-13T06:54:58.000Z</time>
      </trkpt>
      <trkpt lat="49.75836" lon="4.80922">
        <ele>237</ele>
        <time>2020-11-13T06:54:59.000Z</time>
      </trkpt>
      <trkpt lat="49.75838" lon="4.80924">
        <ele>237</ele>
        <time>2020-11-13T06:55:00.000Z</time>
      </trkpt>
      <trkpt lat="49.75841" lon="4.80926">
        <ele>237</ele>
        <time>2020-11-13T06:55:01.000Z</time>
      </trkpt>
      <trkpt lat="49.75844" lon="4.80928">
        <ele>237</ele>
        <time>2020-11-13T06:55:02.000Z</time>
      </trkpt>
      <trkpt lat="49.75846" lon="4.80931">
        <ele>238</ele>
        <time>2020-11-13T06:55:03.000Z</time>
      </trkpt>
      <trkpt lat="49.75849" lon="4.80934">
        <ele>238</ele>
        <time>2020-11-13T06:55:04.000Z</time>
      </trkpt>
      <trkpt lat="49.75851" lon="4.80938">
        <ele>238</ele>
        <time>2020-11-13T06:55:05.000Z</time>
      </trkpt>
      <trkpt lat="49.75854" lon="4.80941">
        <ele>238</ele>
        <time>2020-11-13T06:55:06.000Z</time>
      </trkpt>
      <trkpt lat="49.75856" lon="4.80943">
        <ele>238</ele>
        <time>2020-11-13T06:55:07.000Z</time>
      </trkpt>
      <trkpt lat="49.75858" lon="4.80946">
        <ele>238</ele>
        <time>2020-11-13T06:55:08.000Z</time>
      </trkpt>
      <trkpt lat="49.75861" lon="4.80949">
        <ele>238</ele>
        <time>2020-11-13T06:55:09.000Z</time>
      </trkpt>
      <trkpt lat="49.75864" lon="4.80951">
        <ele>239</ele>
        <time>2020-11-13T06:55:10.000Z</time>
      </trkpt>
      <trkpt lat="49.75867" lon="4.80954">
        <ele>239</ele>
        <time>2020-11-13T06:55:11.000Z</time>
      </trkpt>
      <trkpt lat="49.75869" lon="4.80957">
        <ele>239</ele>
        <time>2020-11-13T06:55:12.000Z</time>
      </trkpt>
      <trkpt lat="49.75872" lon="4.8096">
        <ele>239</ele>
        <time>2020-11-13T06:55:13.000Z</time>
      </trkpt>
      <trkpt lat="49.75874" lon="4.80962">
        <ele>239</ele>
        <time>2020-11-13T06:55:14.000Z</time>
      </trkpt>
      <trkpt lat="49.75877" lon="4.80965">
        <ele>239</ele>
        <time>2020-11-13T06:55:15.000Z</time>
      </trkpt>
      <trkpt lat="49.75879" lon="4.80967">
        <ele>239</ele>
        <time>2020-11-13T06:55:16.000Z</time>
      </trkpt>
      <trkpt lat="49.75881" lon="4.8097">
        <ele>239</ele>
        <time>2020-11-13T06:55:17.000Z</time>
      </trkpt>
      <trkpt lat="49.75884" lon="4.80972">
        <ele>239</ele>
        <time>2020-11-13T06:55:18.000Z</time>
      </trkpt>
      <trkpt lat="49.75886" lon="4.80975">
        <ele>239</ele>
        <time>2020-11-13T06:55:19.000Z</time>
      </trkpt>
      <trkpt lat="49.75889" lon="4.80977">
        <ele>239</ele>
        <time>2020-11-13T06:55:20.000Z</time>
      </trkpt>
      <trkpt lat="49.75891" lon="4.80979">
        <ele>239</ele>
        <time>2020-11-13T06:55:21.000Z</time>
      </trkpt>
      <trkpt lat="49.75893" lon="4.80981">
        <ele>239</ele>
        <time>2020-11-13T06:55:22.000Z</time>
      </trkpt>
      <trkpt lat="49.75895" lon="4.80984">
        <ele>240</ele>
        <time>2020-11-13T06:55:23.000Z</time>
      </trkpt>
      <trkpt lat="49.75897" lon="4.80987">
        <ele>240</ele>
        <time>2020-11-13T06:55:24.000Z</time>
      </trkpt>
      <trkpt lat="49.75898" lon="4.8099">
        <ele>240</ele>
        <time>2020-11-13T06:55:25.000Z</time>
      </trkpt>
      <trkpt lat="49.759" lon="4.80993">
        <ele>240</ele>
        <time>2020-11-13T06:55:26.000Z</time>
      </trkpt>
      <trkpt lat="49.75902" lon="4.80996">
        <ele>240</ele>
        <time>2020-11-13T06:55:27.000Z</time>
      </trkpt>
      <trkpt lat="49.75904" lon="4.80999">
        <ele>240</ele>
        <time>2020-11-13T06:55:28.000Z</time>
      </trkpt>
      <trkpt lat="49.75906" lon="4.81002">
        <ele>240</ele>
        <time>2020-11-13T06:55:29.000Z</time>
      </trkpt>
      <trkpt lat="49.75908" lon="4.81005">
        <ele>240</ele>
        <time>2020-11-13T06:55:30.000Z</time>
      </trkpt>
      <trkpt lat="49.7591" lon="4.81009">
        <ele>240</ele>
        <time>2020-11-13T06:55:31.000Z</time>
      </trkpt>
      <trkpt lat="49.75911" lon="4.81012">
        <ele>241</ele>
        <time>2020-11-13T06:55:32.000Z</time>
      </trkpt>
      <trkpt lat="49.75912" lon="4.81016">
        <ele>241</ele>
        <time>2020-11-13T06:55:33.000Z</time>
      </trkpt>
      <trkpt lat="49.75914" lon="4.8102">
        <ele>241</ele>
        <time>2020-11-13T06:55:34.000Z</time>
      </trkpt>
      <trkpt lat="49.75916" lon="4.81023">
        <ele>241</ele>
        <time>2020-11-13T06:55:35.000Z</time>
      </trkpt>
      <trkpt lat="49.75918" lon="4.81027">
        <ele>241</ele>
        <time>2020-11-13T06:55:36.000Z</time>
      </trkpt>
      <trkpt lat="49.75921" lon="4.8103">
        <ele>242</ele>
        <time>2020-11-13T06:55:37.000Z</time>
      </trkpt>
      <trkpt lat="49.75923" lon="4.81034">
        <ele>242</ele>
        <time>2020-11-13T06:55:38.000Z</time>
      </trkpt>
      <trkpt lat="49.75924" lon="4.81038">
        <ele>242</ele>
        <time>2020-11-13T06:55:39.000Z</time>
      </trkpt>
      <trkpt lat="49.75926" lon="4.81041">
        <ele>242</ele>
        <time>2020-11-13T06:55:40.000Z</time>
      </trkpt>
      <trkpt lat="49.75928" lon="4.81045">
        <ele>242</ele>
        <time>2020-11-13T06:55:41.000Z</time>
      </trkpt>
      <trkpt lat="49.7593" lon="4.81048">
        <ele>242</ele>
        <time>2020-11-13T06:55:42.000Z</time>
      </trkpt>
      <trkpt lat="49.75932" lon="4.8105">
        <ele>242</ele>
        <time>2020-11-13T06:55:43.000Z</time>
      </trkpt>
      <trkpt lat="49.75934" lon="4.81053">
        <ele>242</ele>
        <time>2020-11-13T06:55:44.000Z</time>
      </trkpt>
      <trkpt lat="49.75935" lon="4.81055">
        <ele>242</ele>
        <time>2020-11-13T06:55:45.000Z</time>
      </trkpt>
      <trkpt lat="49.75936" lon="4.81057">
        <ele>242</ele>
        <time>2020-11-13T06:55:46.000Z</time>
      </trkpt>
      <trkpt lat="49.75938" lon="4.81059">
        <ele>243</ele>
        <time>2020-11-13T06:55:47.000Z</time>
      </trkpt>
      <trkpt lat="49.7594" lon="4.81061">
        <ele>243</ele>
        <time>2020-11-13T06:55:48.000Z</time>
      </trkpt>
      <trkpt lat="49.75941" lon="4.81063">
        <ele>243</ele>
        <time>2020-11-13T06:55:49.000Z</time>
      </trkpt>
      <trkpt lat="49.75943" lon="4.81065">
        <ele>243</ele>
        <time>2020-11-13T06:55:50.000Z</time>
      </trkpt>
      <trkpt lat="49.75945" lon="4.81068">
        <ele>243</ele>
        <time>2020-11-13T06:55:51.000Z</time>
      </trkpt>
      <trkpt lat="49.75946" lon="4.81071">
        <ele>244</ele>
        <time>2020-11-13T06:55:52.000Z</time>
      </trkpt>
      <trkpt lat="49.75948" lon="4.81075">
        <ele>244</ele>
        <time>2020-11-13T06:55:53.000Z</time>
      </trkpt>
      <trkpt lat="49.75949" lon="4.81078">
        <ele>244</ele>
        <time>2020-11-13T06:55:54.000Z</time>
      </trkpt>
      <trkpt lat="49.75951" lon="4.81082">
        <ele>244</ele>
        <time>2020-11-13T06:55:55.000Z</time>
      </trkpt>
      <trkpt lat="49.75953" lon="4.81085">
        <ele>245</ele>
        <time>2020-11-13T06:55:56.000Z</time>
      </trkpt>
      <trkpt lat="49.75955" lon="4.81088">
        <ele>245</ele>
        <time>2020-11-13T06:55:57.000Z</time>
      </trkpt>
      <trkpt lat="49.75956" lon="4.81091">
        <ele>245</ele>
        <time>2020-11-13T06:55:58.000Z</time>
      </trkpt>
      <trkpt lat="49.75958" lon="4.81095">
        <ele>245</ele>
        <time>2020-11-13T06:55:59.000Z</time>
      </trkpt>
      <trkpt lat="49.75959" lon="4.81098">
        <ele>245</ele>
        <time>2020-11-13T06:56:00.000Z</time>
      </trkpt>
      <trkpt lat="49.75961" lon="4.81102">
        <ele>246</ele>
        <time>2020-11-13T06:56:01.000Z</time>
      </trkpt>
      <trkpt lat="49.75962" lon="4.81106">
        <ele>246</ele>
        <time>2020-11-13T06:56:02.000Z</time>
      </trkpt>
      <trkpt lat="49.75964" lon="4.8111">
        <ele>246</ele>
        <time>2020-11-13T06:56:03.000Z</time>
      </trkpt>
      <trkpt lat="49.75966" lon="4.81113">
        <ele>246</ele>
        <time>2020-11-13T06:56:04.000Z</time>
      </trkpt>
      <trkpt lat="49.75969" lon="4.81116">
        <ele>247</ele>
        <time>2020-11-13T06:56:05.000Z</time>
      </trkpt>
      <trkpt lat="49.75971" lon="4.81119">
        <ele>247</ele>
        <time>2020-11-13T06:56:06.000Z</time>
      </trkpt>
      <trkpt lat="49.75972" lon="4.81123">
        <ele>247</ele>
        <time>2020-11-13T06:56:07.000Z</time>
      </trkpt>
      <trkpt lat="49.75974" lon="4.81126">
        <ele>248</ele>
        <time>2020-11-13T06:56:08.000Z</time>
      </trkpt>
      <trkpt lat="49.75976" lon="4.81128">
        <ele>248</ele>
        <time>2020-11-13T06:56:09.000Z</time>
      </trkpt>
      <trkpt lat="49.75978" lon="4.81131">
        <ele>248</ele>
        <time>2020-11-13T06:56:10.000Z</time>
      </trkpt>
      <trkpt lat="49.7598" lon="4.81133">
        <ele>248</ele>
        <time>2020-11-13T06:56:11.000Z</time>
      </trkpt>
      <trkpt lat="49.75982" lon="4.81135">
        <ele>249</ele>
        <time>2020-11-13T06:56:12.000Z</time>
      </trkpt>
      <trkpt lat="49.75985" lon="4.81138">
        <ele>249</ele>
        <time>2020-11-13T06:56:13.000Z</time>
      </trkpt>
      <trkpt lat="49.75985" lon="4.81138">
        <ele>249</ele>
        <time>2020-11-13T06:56:14.000Z</time>
      </trkpt>
      <trkpt lat="49.75985" lon="4.81138">
        <ele>249</ele>
        <time>2020-11-13T06:56:15.000Z</time>
      </trkpt>
      <trkpt lat="49.75986" lon="4.8114">
        <ele>249</ele>
        <time>2020-11-13T06:56:16.000Z</time>
      </trkpt>
      <trkpt lat="49.75988" lon="4.81142">
        <ele>250</ele>
        <time>2020-11-13T06:56:17.000Z</time>
      </trkpt>
      <trkpt lat="49.7599" lon="4.81144">
        <ele>250</ele>
        <time>2020-11-13T06:56:18.000Z</time>
      </trkpt>
      <trkpt lat="49.75993" lon="4.81147">
        <ele>250</ele>
        <time>2020-11-13T06:56:19.000Z</time>
      </trkpt>
      <trkpt lat="49.75996" lon="4.81149">
        <ele>250</ele>
        <time>2020-11-13T06:56:20.000Z</time>
      </trkpt>
      <trkpt lat="49.75998" lon="4.81152">
        <ele>250</ele>
        <time>2020-11-13T06:56:21.000Z</time>
      </trkpt>
      <trkpt lat="49.76002" lon="4.81155">
        <ele>251</ele>
        <time>2020-11-13T06:56:22.000Z</time>
      </trkpt>
      <trkpt lat="49.76004" lon="4.81159">
        <ele>251</ele>
        <time>2020-11-13T06:56:23.000Z</time>
      </trkpt>
      <trkpt lat="49.76007" lon="4.81162">
        <ele>251</ele>
        <time>2020-11-13T06:56:24.000Z</time>
      </trkpt>
      <trkpt lat="49.76009" lon="4.81165">
        <ele>251</ele>
        <time>2020-11-13T06:56:25.000Z</time>
      </trkpt>
      <trkpt lat="49.76012" lon="4.81167">
        <ele>251</ele>
        <time>2020-11-13T06:56:26.000Z</time>
      </trkpt>
      <trkpt lat="49.76014" lon="4.8117">
        <ele>252</ele>
        <time>2020-11-13T06:56:27.000Z</time>
      </trkpt>
      <trkpt lat="49.76016" lon="4.81173">
        <ele>252</ele>
        <time>2020-11-13T06:56:28.000Z</time>
      </trkpt>
      <trkpt lat="49.76017" lon="4.81176">
        <ele>252</ele>
        <time>2020-11-13T06:56:29.000Z</time>
      </trkpt>
      <trkpt lat="49.76018" lon="4.81179">
        <ele>252</ele>
        <time>2020-11-13T06:56:30.000Z</time>
      </trkpt>
      <trkpt lat="49.76019" lon="4.81182">
        <ele>252</ele>
        <time>2020-11-13T06:56:31.000Z</time>
      </trkpt>
      <trkpt lat="49.76022" lon="4.81185">
        <ele>253</ele>
        <time>2020-11-13T06:56:32.000Z</time>
      </trkpt>
      <trkpt lat="49.76024" lon="4.81188">
        <ele>253</ele>
        <time>2020-11-13T06:56:33.000Z</time>
      </trkpt>
      <trkpt lat="49.76026" lon="4.81191">
        <ele>253</ele>
        <time>2020-11-13T06:56:34.000Z</time>
      </trkpt>
      <trkpt lat="49.76028" lon="4.81195">
        <ele>253</ele>
        <time>2020-11-13T06:56:35.000Z</time>
      </trkpt>
      <trkpt lat="49.7603" lon="4.81197">
        <ele>253</ele>
        <time>2020-11-13T06:56:36.000Z</time>
      </trkpt>
      <trkpt lat="49.76032" lon="4.812">
        <ele>253</ele>
        <time>2020-11-13T06:56:37.000Z</time>
      </trkpt>
      <trkpt lat="49.76034" lon="4.81202">
        <ele>253</ele>
        <time>2020-11-13T06:56:38.000Z</time>
      </trkpt>
      <trkpt lat="49.76036" lon="4.81204">
        <ele>253</ele>
        <time>2020-11-13T06:56:39.000Z</time>
      </trkpt>
      <trkpt lat="49.76037" lon="4.81207">
        <ele>253</ele>
        <time>2020-11-13T06:56:40.000Z</time>
      </trkpt>
      <trkpt lat="49.76039" lon="4.81211">
        <ele>254</ele>
        <time>2020-11-13T06:56:41.000Z</time>
      </trkpt>
      <trkpt lat="49.7604" lon="4.81215">
        <ele>254</ele>
        <time>2020-11-13T06:56:42.000Z</time>
      </trkpt>
      <trkpt lat="49.76042" lon="4.81218">
        <ele>254</ele>
        <time>2020-11-13T06:56:43.000Z</time>
      </trkpt>
      <trkpt lat="49.76044" lon="4.8122">
        <ele>254</ele>
        <time>2020-11-13T06:56:44.000Z</time>
      </trkpt>
      <trkpt lat="49.76047" lon="4.81223">
        <ele>254</ele>
        <time>2020-11-13T06:56:45.000Z</time>
      </trkpt>
      <trkpt lat="49.7605" lon="4.81225">
        <ele>254</ele>
        <time>2020-11-13T06:56:46.000Z</time>
      </trkpt>
      <trkpt lat="49.76053" lon="4.81228">
        <ele>254</ele>
        <time>2020-11-13T06:56:47.000Z</time>
      </trkpt>
      <trkpt lat="49.76056" lon="4.8123">
        <ele>254</ele>
        <time>2020-11-13T06:56:48.000Z</time>
      </trkpt>
      <trkpt lat="49.76059" lon="4.81233">
        <ele>254</ele>
        <time>2020-11-13T06:56:49.000Z</time>
      </trkpt>
      <trkpt lat="49.76061" lon="4.81236">
        <ele>254</ele>
        <time>2020-11-13T06:56:50.000Z</time>
      </trkpt>
      <trkpt lat="49.76063" lon="4.81239">
        <ele>254</ele>
        <time>2020-11-13T06:56:51.000Z</time>
      </trkpt>
      <trkpt lat="49.76065" lon="4.81243">
        <ele>253</ele>
        <time>2020-11-13T06:56:52.000Z</time>
      </trkpt>
      <trkpt lat="49.76068" lon="4.81246">
        <ele>253</ele>
        <time>2020-11-13T06:56:53.000Z</time>
      </trkpt>
      <trkpt lat="49.7607" lon="4.81249">
        <ele>253</ele>
        <time>2020-11-13T06:56:54.000Z</time>
      </trkpt>
      <trkpt lat="49.76072" lon="4.81251">
        <ele>253</ele>
        <time>2020-11-13T06:56:55.000Z</time>
      </trkpt>
      <trkpt lat="49.76074" lon="4.81254">
        <ele>253</ele>
        <time>2020-11-13T06:56:56.000Z</time>
      </trkpt>
      <trkpt lat="49.76077" lon="4.81257">
        <ele>253</ele>
        <time>2020-11-13T06:56:57.000Z</time>
      </trkpt>
      <trkpt lat="49.76079" lon="4.81259">
        <ele>253</ele>
        <time>2020-11-13T06:56:58.000Z</time>
      </trkpt>
      <trkpt lat="49.76082" lon="4.81262">
        <ele>253</ele>
        <time>2020-11-13T06:56:59.000Z</time>
      </trkpt>
      <trkpt lat="49.76084" lon="4.81264">
        <ele>253</ele>
        <time>2020-11-13T06:57:00.000Z</time>
      </trkpt>
      <trkpt lat="49.76087" lon="4.81266">
        <ele>253</ele>
        <time>2020-11-13T06:57:01.000Z</time>
      </trkpt>
      <trkpt lat="49.76089" lon="4.81268">
        <ele>253</ele>
        <time>2020-11-13T06:57:02.000Z</time>
      </trkpt>
      <trkpt lat="49.76092" lon="4.8127">
        <ele>253</ele>
        <time>2020-11-13T06:57:03.000Z</time>
      </trkpt>
      <trkpt lat="49.76094" lon="4.81272">
        <ele>254</ele>
        <time>2020-11-13T06:57:04.000Z</time>
      </trkpt>
      <trkpt lat="49.76096" lon="4.81274">
        <ele>254</ele>
        <time>2020-11-13T06:57:05.000Z</time>
      </trkpt>
      <trkpt lat="49.76098" lon="4.81276">
        <ele>254</ele>
        <time>2020-11-13T06:57:06.000Z</time>
      </trkpt>
      <trkpt lat="49.761" lon="4.81278">
        <ele>254</ele>
        <time>2020-11-13T06:57:07.000Z</time>
      </trkpt>
      <trkpt lat="49.76102" lon="4.81281">
        <ele>254</ele>
        <time>2020-11-13T06:57:08.000Z</time>
      </trkpt>
      <trkpt lat="49.76104" lon="4.81284">
        <ele>254</ele>
        <time>2020-11-13T06:57:09.000Z</time>
      </trkpt>
      <trkpt lat="49.76106" lon="4.81287">
        <ele>254</ele>
        <time>2020-11-13T06:57:10.000Z</time>
      </trkpt>
      <trkpt lat="49.76108" lon="4.8129">
        <ele>254</ele>
        <time>2020-11-13T06:57:11.000Z</time>
      </trkpt>
      <trkpt lat="49.7611" lon="4.81292">
        <ele>255</ele>
        <time>2020-11-13T06:57:12.000Z</time>
      </trkpt>
      <trkpt lat="49.76112" lon="4.81293">
        <ele>255</ele>
        <time>2020-11-13T06:57:13.000Z</time>
      </trkpt>
      <trkpt lat="49.76114" lon="4.81295">
        <ele>255</ele>
        <time>2020-11-13T06:57:14.000Z</time>
      </trkpt>
      <trkpt lat="49.76117" lon="4.81296">
        <ele>255</ele>
        <time>2020-11-13T06:57:15.000Z</time>
      </trkpt>
      <trkpt lat="49.76119" lon="4.81297">
        <ele>256</ele>
        <time>2020-11-13T06:57:16.000Z</time>
      </trkpt>
      <trkpt lat="49.76121" lon="4.81298">
        <ele>256</ele>
        <time>2020-11-13T06:57:17.000Z</time>
      </trkpt>
      <trkpt lat="49.76124" lon="4.81299">
        <ele>256</ele>
        <time>2020-11-13T06:57:18.000Z</time>
      </trkpt>
      <trkpt lat="49.76126" lon="4.81301">
        <ele>256</ele>
        <time>2020-11-13T06:57:19.000Z</time>
      </trkpt>
      <trkpt lat="49.76128" lon="4.81304">
        <ele>257</ele>
        <time>2020-11-13T06:57:20.000Z</time>
      </trkpt>
      <trkpt lat="49.7613" lon="4.81308">
        <ele>257</ele>
        <time>2020-11-13T06:57:21.000Z</time>
      </trkpt>
      <trkpt lat="49.76131" lon="4.81311">
        <ele>257</ele>
        <time>2020-11-13T06:57:22.000Z</time>
      </trkpt>
      <trkpt lat="49.76133" lon="4.81314">
        <ele>257</ele>
        <time>2020-11-13T06:57:23.000Z</time>
      </trkpt>
      <trkpt lat="49.76133" lon="4.81317">
        <ele>257</ele>
        <time>2020-11-13T06:57:24.000Z</time>
      </trkpt>
      <trkpt lat="49.76134" lon="4.81321">
        <ele>257</ele>
        <time>2020-11-13T06:57:25.000Z</time>
      </trkpt>
      <trkpt lat="49.76134" lon="4.81324">
        <ele>257</ele>
        <time>2020-11-13T06:57:26.000Z</time>
      </trkpt>
      <trkpt lat="49.76134" lon="4.81327">
        <ele>257</ele>
        <time>2020-11-13T06:57:27.000Z</time>
      </trkpt>
      <trkpt lat="49.76134" lon="4.81331">
        <ele>257</ele>
        <time>2020-11-13T06:57:28.000Z</time>
      </trkpt>
      <trkpt lat="49.76134" lon="4.81334">
        <ele>257</ele>
        <time>2020-11-13T06:57:29.000Z</time>
      </trkpt>
      <trkpt lat="49.76134" lon="4.81336">
        <ele>257</ele>
        <time>2020-11-13T06:57:30.000Z</time>
      </trkpt>
      <trkpt lat="49.76135" lon="4.81339">
        <ele>257</ele>
        <time>2020-11-13T06:57:31.000Z</time>
      </trkpt>
      <trkpt lat="49.76135" lon="4.81342">
        <ele>257</ele>
        <time>2020-11-13T06:57:32.000Z</time>
      </trkpt>
      <trkpt lat="49.76134" lon="4.81345">
        <ele>257</ele>
        <time>2020-11-13T06:57:33.000Z</time>
      </trkpt>
      <trkpt lat="49.76134" lon="4.81347">
        <ele>257</ele>
        <time>2020-11-13T06:57:34.000Z</time>
      </trkpt>
      <trkpt lat="49.76134" lon="4.8135">
        <ele>257</ele>
        <time>2020-11-13T06:57:35.000Z</time>
      </trkpt>
      <trkpt lat="49.76134" lon="4.81352">
        <ele>257</ele>
        <time>2020-11-13T06:57:36.000Z</time>
      </trkpt>
      <trkpt lat="49.76134" lon="4.81355">
        <ele>257</ele>
        <time>2020-11-13T06:57:37.000Z</time>
      </trkpt>
      <trkpt lat="49.76134" lon="4.81357">
        <ele>258</ele>
        <time>2020-11-13T06:57:38.000Z</time>
      </trkpt>
      <trkpt lat="49.76134" lon="4.8136">
        <ele>258</ele>
        <time>2020-11-13T06:57:39.000Z</time>
      </trkpt>
      <trkpt lat="49.76134" lon="4.81362">
        <ele>258</ele>
        <time>2020-11-13T06:57:40.000Z</time>
      </trkpt>
      <trkpt lat="49.76134" lon="4.81365">
        <ele>258</ele>
        <time>2020-11-13T06:57:41.000Z</time>
      </trkpt>
      <trkpt lat="49.76134" lon="4.81368">
        <ele>258</ele>
        <time>2020-11-13T06:57:42.000Z</time>
      </trkpt>
      <trkpt lat="49.76134" lon="4.81371">
        <ele>258</ele>
        <time>2020-11-13T06:57:43.000Z</time>
      </trkpt>
      <trkpt lat="49.76133" lon="4.81374">
        <ele>258</ele>
        <time>2020-11-13T06:57:44.000Z</time>
      </trkpt>
      <trkpt lat="49.76132" lon="4.81378">
        <ele>258</ele>
        <time>2020-11-13T06:57:45.000Z</time>
      </trkpt>
      <trkpt lat="49.76132" lon="4.8138">
        <ele>259</ele>
        <time>2020-11-13T06:57:46.000Z</time>
      </trkpt>
      <trkpt lat="49.76132" lon="4.81383">
        <ele>259</ele>
        <time>2020-11-13T06:57:47.000Z</time>
      </trkpt>
      <trkpt lat="49.76132" lon="4.81387">
        <ele>259</ele>
        <time>2020-11-13T06:57:48.000Z</time>
      </trkpt>
      <trkpt lat="49.76132" lon="4.8139">
        <ele>259</ele>
        <time>2020-11-13T06:57:49.000Z</time>
      </trkpt>
      <trkpt lat="49.76131" lon="4.81393">
        <ele>259</ele>
        <time>2020-11-13T06:57:50.000Z</time>
      </trkpt>
      <trkpt lat="49.76131" lon="4.81396">
        <ele>259</ele>
        <time>2020-11-13T06:57:51.000Z</time>
      </trkpt>
      <trkpt lat="49.76131" lon="4.814">
        <ele>260</ele>
        <time>2020-11-13T06:57:52.000Z</time>
      </trkpt>
      <trkpt lat="49.76131" lon="4.81403">
        <ele>260</ele>
        <time>2020-11-13T06:57:53.000Z</time>
      </trkpt>
      <trkpt lat="49.76131" lon="4.81407">
        <ele>260</ele>
        <time>2020-11-13T06:57:54.000Z</time>
      </trkpt>
      <trkpt lat="49.76131" lon="4.81411">
        <ele>261</ele>
        <time>2020-11-13T06:57:55.000Z</time>
      </trkpt>
      <trkpt lat="49.76131" lon="4.81414">
        <ele>261</ele>
        <time>2020-11-13T06:57:56.000Z</time>
      </trkpt>
      <trkpt lat="49.7613" lon="4.81417">
        <ele>261</ele>
        <time>2020-11-13T06:57:57.000Z</time>
      </trkpt>
      <trkpt lat="49.76131" lon="4.8142">
        <ele>261</ele>
        <time>2020-11-13T06:57:58.000Z</time>
      </trkpt>
      <trkpt lat="49.76132" lon="4.81423">
        <ele>261</ele>
        <time>2020-11-13T06:57:59.000Z</time>
      </trkpt>
      <trkpt lat="49.76133" lon="4.81425">
        <ele>262</ele>
        <time>2020-11-13T06:58:00.000Z</time>
      </trkpt>
      <trkpt lat="49.76135" lon="4.81428">
        <ele>262</ele>
        <time>2020-11-13T06:58:01.000Z</time>
      </trkpt>
      <trkpt lat="49.76137" lon="4.8143">
        <ele>262</ele>
        <time>2020-11-13T06:58:02.000Z</time>
      </trkpt>
      <trkpt lat="49.76139" lon="4.81431">
        <ele>262</ele>
        <time>2020-11-13T06:58:03.000Z</time>
      </trkpt>
      <trkpt lat="49.76141" lon="4.81432">
        <ele>262</ele>
        <time>2020-11-13T06:58:04.000Z</time>
      </trkpt>
      <trkpt lat="49.76144" lon="4.81433">
        <ele>262</ele>
        <time>2020-11-13T06:58:05.000Z</time>
      </trkpt>
      <trkpt lat="49.76146" lon="4.81434">
        <ele>262</ele>
        <time>2020-11-13T06:58:06.000Z</time>
      </trkpt>
      <trkpt lat="49.76148" lon="4.81434">
        <ele>263</ele>
        <time>2020-11-13T06:58:07.000Z</time>
      </trkpt>
      <trkpt lat="49.76151" lon="4.81435">
        <ele>263</ele>
        <time>2020-11-13T06:58:08.000Z</time>
      </trkpt>
      <trkpt lat="49.76153" lon="4.81436">
        <ele>263</ele>
        <time>2020-11-13T06:58:09.000Z</time>
      </trkpt>
      <trkpt lat="49.76156" lon="4.81436">
        <ele>263</ele>
        <time>2020-11-13T06:58:10.000Z</time>
      </trkpt>
      <trkpt lat="49.76159" lon="4.81437">
        <ele>263</ele>
        <time>2020-11-13T06:58:11.000Z</time>
      </trkpt>
      <trkpt lat="49.76162" lon="4.81438">
        <ele>263</ele>
        <time>2020-11-13T06:58:12.000Z</time>
      </trkpt>
      <trkpt lat="49.76165" lon="4.81438">
        <ele>263</ele>
        <time>2020-11-13T06:58:13.000Z</time>
      </trkpt>
      <trkpt lat="49.76169" lon="4.81439">
        <ele>263</ele>
        <time>2020-11-13T06:58:14.000Z</time>
      </trkpt>
      <trkpt lat="49.76172" lon="4.8144">
        <ele>263</ele>
        <time>2020-11-13T06:58:15.000Z</time>
      </trkpt>
      <trkpt lat="49.76174" lon="4.81442">
        <ele>264</ele>
        <time>2020-11-13T06:58:16.000Z</time>
      </trkpt>
      <trkpt lat="49.76177" lon="4.81442">
        <ele>264</ele>
        <time>2020-11-13T06:58:17.000Z</time>
      </trkpt>
      <trkpt lat="49.76179" lon="4.81442">
        <ele>264</ele>
        <time>2020-11-13T06:58:18.000Z</time>
      </trkpt>
      <trkpt lat="49.76181" lon="4.81441">
        <ele>264</ele>
        <time>2020-11-13T06:58:19.000Z</time>
      </trkpt>
      <trkpt lat="49.76182" lon="4.81439">
        <ele>264</ele>
        <time>2020-11-13T06:58:20.000Z</time>
      </trkpt>
      <trkpt lat="49.76182" lon="4.81435">
        <ele>264</ele>
        <time>2020-11-13T06:58:21.000Z</time>
      </trkpt>
      <trkpt lat="49.76182" lon="4.81429">
        <ele>264</ele>
        <time>2020-11-13T06:58:22.000Z</time>
      </trkpt>
      <trkpt lat="49.76182" lon="4.81421">
        <ele>265</ele>
        <time>2020-11-13T06:58:23.000Z</time>
      </trkpt>
      <trkpt lat="49.76182" lon="4.81413">
        <ele>265</ele>
        <time>2020-11-13T06:58:24.000Z</time>
      </trkpt>
      <trkpt lat="49.76183" lon="4.81405">
        <ele>265</ele>
        <time>2020-11-13T06:58:25.000Z</time>
      </trkpt>
      <trkpt lat="49.76183" lon="4.81397">
        <ele>265</ele>
        <time>2020-11-13T06:58:26.000Z</time>
      </trkpt>
      <trkpt lat="49.76183" lon="4.81388">
        <ele>266</ele>
        <time>2020-11-13T06:58:27.000Z</time>
      </trkpt>
      <trkpt lat="49.76182" lon="4.81379">
        <ele>266</ele>
        <time>2020-11-13T06:58:28.000Z</time>
      </trkpt>
      <trkpt lat="49.76182" lon="4.81369">
        <ele>266</ele>
        <time>2020-11-13T06:58:29.000Z</time>
      </trkpt>
      <trkpt lat="49.76182" lon="4.81359">
        <ele>266</ele>
        <time>2020-11-13T06:58:30.000Z</time>
      </trkpt>
      <trkpt lat="49.76183" lon="4.81348">
        <ele>266</ele>
        <time>2020-11-13T06:58:31.000Z</time>
      </trkpt>
      <trkpt lat="49.76183" lon="4.81336">
        <ele>266</ele>
        <time>2020-11-13T06:58:32.000Z</time>
      </trkpt>
      <trkpt lat="49.76182" lon="4.81325">
        <ele>267</ele>
        <time>2020-11-13T06:58:33.000Z</time>
      </trkpt>
      <trkpt lat="49.76182" lon="4.81314">
        <ele>267</ele>
        <time>2020-11-13T06:58:34.000Z</time>
      </trkpt>
      <trkpt lat="49.76183" lon="4.81304">
        <ele>267</ele>
        <time>2020-11-13T06:58:35.000Z</time>
      </trkpt>
      <trkpt lat="49.76184" lon="4.81296">
        <ele>267</ele>
        <time>2020-11-13T06:58:36.000Z</time>
      </trkpt>
      <trkpt lat="49.76185" lon="4.81289">
        <ele>267</ele>
        <time>2020-11-13T06:58:37.000Z</time>
      </trkpt>
      <trkpt lat="49.76185" lon="4.81283">
        <ele>267</ele>
        <time>2020-11-13T06:58:38.000Z</time>
      </trkpt>
      <trkpt lat="49.76184" lon="4.81278">
        <ele>267</ele>
        <time>2020-11-13T06:58:39.000Z</time>
      </trkpt>
      <trkpt lat="49.76184" lon="4.81273">
        <ele>268</ele>
        <time>2020-11-13T06:58:40.000Z</time>
      </trkpt>
      <trkpt lat="49.76183" lon="4.81268">
        <ele>268</ele>
        <time>2020-11-13T06:58:41.000Z</time>
      </trkpt>
      <trkpt lat="49.76183" lon="4.81263">
        <ele>268</ele>
        <time>2020-11-13T06:58:42.000Z</time>
      </trkpt>
      <trkpt lat="49.76183" lon="4.81258">
        <ele>268</ele>
        <time>2020-11-13T06:58:43.000Z</time>
      </trkpt>
      <trkpt lat="49.76184" lon="4.81253">
        <ele>269</ele>
        <time>2020-11-13T06:58:44.000Z</time>
      </trkpt>
      <trkpt lat="49.76185" lon="4.81249">
        <ele>269</ele>
        <time>2020-11-13T06:58:45.000Z</time>
      </trkpt>
      <trkpt lat="49.76187" lon="4.81246">
        <ele>269</ele>
        <time>2020-11-13T06:58:46.000Z</time>
      </trkpt>
      <trkpt lat="49.76188" lon="4.81244">
        <ele>269</ele>
        <time>2020-11-13T06:58:47.000Z</time>
      </trkpt>
      <trkpt lat="49.7619" lon="4.8124">
        <ele>270</ele>
        <time>2020-11-13T06:58:48.000Z</time>
      </trkpt>
      <trkpt lat="49.7619" lon="4.81236">
        <ele>270</ele>
        <time>2020-11-13T06:58:49.000Z</time>
      </trkpt>
      <trkpt lat="49.76189" lon="4.81232">
        <ele>270</ele>
        <time>2020-11-13T06:58:50.000Z</time>
      </trkpt>
      <trkpt lat="49.76187" lon="4.81227">
        <ele>270</ele>
        <time>2020-11-13T06:58:51.000Z</time>
      </trkpt>
      <trkpt lat="49.76186" lon="4.81221">
        <ele>270</ele>
        <time>2020-11-13T06:58:52.000Z</time>
      </trkpt>
      <trkpt lat="49.76185" lon="4.81215">
        <ele>270</ele>
        <time>2020-11-13T06:58:53.000Z</time>
      </trkpt>
      <trkpt lat="49.76185" lon="4.81208">
        <ele>270</ele>
        <time>2020-11-13T06:58:54.000Z</time>
      </trkpt>
      <trkpt lat="49.76186" lon="4.81202">
        <ele>270</ele>
        <time>2020-11-13T06:58:55.000Z</time>
      </trkpt>
      <trkpt lat="49.76187" lon="4.81195">
        <ele>270</ele>
        <time>2020-11-13T06:58:56.000Z</time>
      </trkpt>
      <trkpt lat="49.76188" lon="4.81189">
        <ele>270</ele>
        <time>2020-11-13T06:58:57.000Z</time>
      </trkpt>
      <trkpt lat="49.76188" lon="4.81182">
        <ele>270</ele>
        <time>2020-11-13T06:58:58.000Z</time>
      </trkpt>
      <trkpt lat="49.76188" lon="4.81176">
        <ele>270</ele>
        <time>2020-11-13T06:58:59.000Z</time>
      </trkpt>
      <trkpt lat="49.76188" lon="4.81169">
        <ele>270</ele>
        <time>2020-11-13T06:59:00.000Z</time>
      </trkpt>
      <trkpt lat="49.76188" lon="4.81162">
        <ele>270</ele>
        <time>2020-11-13T06:59:01.000Z</time>
      </trkpt>
      <trkpt lat="49.76189" lon="4.81154">
        <ele>270</ele>
        <time>2020-11-13T06:59:02.000Z</time>
      </trkpt>
      <trkpt lat="49.7619" lon="4.81147">
        <ele>269</ele>
        <time>2020-11-13T06:59:03.000Z</time>
      </trkpt>
      <trkpt lat="49.76191" lon="4.81139">
        <ele>269</ele>
        <time>2020-11-13T06:59:04.000Z</time>
      </trkpt>
      <trkpt lat="49.76191" lon="4.81131">
        <ele>269</ele>
        <time>2020-11-13T06:59:05.000Z</time>
      </trkpt>
      <trkpt lat="49.76192" lon="4.81123">
        <ele>269</ele>
        <time>2020-11-13T06:59:06.000Z</time>
      </trkpt>
      <trkpt lat="49.76192" lon="4.81115">
        <ele>269</ele>
        <time>2020-11-13T06:59:07.000Z</time>
      </trkpt>
      <trkpt lat="49.76193" lon="4.81106">
        <ele>269</ele>
        <time>2020-11-13T06:59:08.000Z</time>
      </trkpt>
      <trkpt lat="49.76193" lon="4.81096">
        <ele>269</ele>
        <time>2020-11-13T06:59:09.000Z</time>
      </trkpt>
      <trkpt lat="49.76193" lon="4.81086">
        <ele>268</ele>
        <time>2020-11-13T06:59:10.000Z</time>
      </trkpt>
      <trkpt lat="49.76194" lon="4.81076">
        <ele>268</ele>
        <time>2020-11-13T06:59:11.000Z</time>
      </trkpt>
      <trkpt lat="49.76194" lon="4.81066">
        <ele>268</ele>
        <time>2020-11-13T06:59:12.000Z</time>
      </trkpt>
      <trkpt lat="49.76195" lon="4.81056">
        <ele>268</ele>
        <time>2020-11-13T06:59:13.000Z</time>
      </trkpt>
      <trkpt lat="49.76195" lon="4.81046">
        <ele>268</ele>
        <time>2020-11-13T06:59:14.000Z</time>
      </trkpt>
      <trkpt lat="49.76195" lon="4.81036">
        <ele>268</ele>
        <time>2020-11-13T06:59:15.000Z</time>
      </trkpt>
      <trkpt lat="49.76195" lon="4.81028">
        <ele>268</ele>
        <time>2020-11-13T06:59:16.000Z</time>
      </trkpt>
      <trkpt lat="49.76195" lon="4.81019">
        <ele>268</ele>
        <time>2020-11-13T06:59:17.000Z</time>
      </trkpt>
      <trkpt lat="49.76195" lon="4.81012">
        <ele>268</ele>
        <time>2020-11-13T06:59:18.000Z</time>
      </trkpt>
      <trkpt lat="49.76195" lon="4.81004">
        <ele>268</ele>
        <time>2020-11-13T06:59:19.000Z</time>
      </trkpt>
      <trkpt lat="49.76196" lon="4.80996">
        <ele>268</ele>
        <time>2020-11-13T06:59:20.000Z</time>
      </trkpt>
      <trkpt lat="49.76196" lon="4.80989">
        <ele>268</ele>
        <time>2020-11-13T06:59:21.000Z</time>
      </trkpt>
      <trkpt lat="49.76197" lon="4.80982">
        <ele>268</ele>
        <time>2020-11-13T06:59:22.000Z</time>
      </trkpt>
      <trkpt lat="49.76197" lon="4.80975">
        <ele>268</ele>
        <time>2020-11-13T06:59:23.000Z</time>
      </trkpt>
      <trkpt lat="49.76197" lon="4.80968">
        <ele>268</ele>
        <time>2020-11-13T06:59:24.000Z</time>
      </trkpt>
      <trkpt lat="49.76197" lon="4.80961">
        <ele>268</ele>
        <time>2020-11-13T06:59:25.000Z</time>
      </trkpt>
      <trkpt lat="49.76197" lon="4.80955">
        <ele>268</ele>
        <time>2020-11-13T06:59:26.000Z</time>
      </trkpt>
      <trkpt lat="49.76198" lon="4.80949">
        <ele>268</ele>
        <time>2020-11-13T06:59:27.000Z</time>
      </trkpt>
      <trkpt lat="49.76198" lon="4.80942">
        <ele>268</ele>
        <time>2020-11-13T06:59:28.000Z</time>
      </trkpt>
      <trkpt lat="49.76197" lon="4.80936">
        <ele>268</ele>
        <time>2020-11-13T06:59:29.000Z</time>
      </trkpt>
      <trkpt lat="49.76196" lon="4.80929">
        <ele>268</ele>
        <time>2020-11-13T06:59:30.000Z</time>
      </trkpt>
      <trkpt lat="49.76196" lon="4.80922">
        <ele>268</ele>
        <time>2020-11-13T06:59:31.000Z</time>
      </trkpt>
      <trkpt lat="49.76197" lon="4.80916">
        <ele>267</ele>
        <time>2020-11-13T06:59:32.000Z</time>
      </trkpt>
      <trkpt lat="49.762" lon="4.80913">
        <ele>267</ele>
        <time>2020-11-13T06:59:33.000Z</time>
      </trkpt>
      <trkpt lat="49.76202" lon="4.8091">
        <ele>267</ele>
        <time>2020-11-13T06:59:34.000Z</time>
      </trkpt>
      <trkpt lat="49.76205" lon="4.80909">
        <ele>267</ele>
        <time>2020-11-13T06:59:35.000Z</time>
      </trkpt>
      <trkpt lat="49.76207" lon="4.80908">
        <ele>267</ele>
        <time>2020-11-13T06:59:36.000Z</time>
      </trkpt>
      <trkpt lat="49.7621" lon="4.80907">
        <ele>267</ele>
        <time>2020-11-13T06:59:37.000Z</time>
      </trkpt>
      <trkpt lat="49.76212" lon="4.80907">
        <ele>267</ele>
        <time>2020-11-13T06:59:38.000Z</time>
      </trkpt>
      <trkpt lat="49.76215" lon="4.80907">
        <ele>267</ele>
        <time>2020-11-13T06:59:39.000Z</time>
      </trkpt>
      <trkpt lat="49.76217" lon="4.80907">
        <ele>267</ele>
        <time>2020-11-13T06:59:40.000Z</time>
      </trkpt>
      <trkpt lat="49.76219" lon="4.80908">
        <ele>266</ele>
        <time>2020-11-13T06:59:41.000Z</time>
      </trkpt>
      <trkpt lat="49.76222" lon="4.80909">
        <ele>266</ele>
        <time>2020-11-13T06:59:42.000Z</time>
      </trkpt>
      <trkpt lat="49.76224" lon="4.8091">
        <ele>266</ele>
        <time>2020-11-13T06:59:43.000Z</time>
      </trkpt>
      <trkpt lat="49.76227" lon="4.80911">
        <ele>266</ele>
        <time>2020-11-13T06:59:44.000Z</time>
      </trkpt>
      <trkpt lat="49.76229" lon="4.80912">
        <ele>266</ele>
        <time>2020-11-13T06:59:45.000Z</time>
      </trkpt>
      <trkpt lat="49.76231" lon="4.80913">
        <ele>266</ele>
        <time>2020-11-13T06:59:46.000Z</time>
      </trkpt>
      <trkpt lat="49.76234" lon="4.80914">
        <ele>266</ele>
        <time>2020-11-13T06:59:47.000Z</time>
      </trkpt>
      <trkpt lat="49.76236" lon="4.80915">
        <ele>266</ele>
        <time>2020-11-13T06:59:48.000Z</time>
      </trkpt>
      <trkpt lat="49.76239" lon="4.80917">
        <ele>266</ele>
        <time>2020-11-13T06:59:49.000Z</time>
      </trkpt>
      <trkpt lat="49.76242" lon="4.80918">
        <ele>266</ele>
        <time>2020-11-13T06:59:50.000Z</time>
      </trkpt>
      <trkpt lat="49.76245" lon="4.80919">
        <ele>266</ele>
        <time>2020-11-13T06:59:51.000Z</time>
      </trkpt>
      <trkpt lat="49.76247" lon="4.80921">
        <ele>266</ele>
        <time>2020-11-13T06:59:52.000Z</time>
      </trkpt>
      <trkpt lat="49.7625" lon="4.80922">
        <ele>266</ele>
        <time>2020-11-13T06:59:53.000Z</time>
      </trkpt>
      <trkpt lat="49.76253" lon="4.80923">
        <ele>266</ele>
        <time>2020-11-13T06:59:54.000Z</time>
      </trkpt>
      <trkpt lat="49.76256" lon="4.80925">
        <ele>266</ele>
        <time>2020-11-13T06:59:55.000Z</time>
      </trkpt>
      <trkpt lat="49.76259" lon="4.80926">
        <ele>266</ele>
        <time>2020-11-13T06:59:56.000Z</time>
      </trkpt>
      <trkpt lat="49.76262" lon="4.80928">
        <ele>267</ele>
        <time>2020-11-13T06:59:57.000Z</time>
      </trkpt>
      <trkpt lat="49.76265" lon="4.80929">
        <ele>267</ele>
        <time>2020-11-13T06:59:58.000Z</time>
      </trkpt>
      <trkpt lat="49.76268" lon="4.8093">
        <ele>267</ele>
        <time>2020-11-13T06:59:59.000Z</time>
      </trkpt>
      <trkpt lat="49.76271" lon="4.80931">
        <ele>267</ele>
        <time>2020-11-13T07:00:00.000Z</time>
      </trkpt>
      <trkpt lat="49.76274" lon="4.80933">
        <ele>267</ele>
        <time>2020-11-13T07:00:01.000Z</time>
      </trkpt>
      <trkpt lat="49.76277" lon="4.80934">
        <ele>267</ele>
        <time>2020-11-13T07:00:02.000Z</time>
      </trkpt>
      <trkpt lat="49.7628" lon="4.80935">
        <ele>267</ele>
        <time>2020-11-13T07:00:03.000Z</time>
      </trkpt>
      <trkpt lat="49.76283" lon="4.80936">
        <ele>267</ele>
        <time>2020-11-13T07:00:04.000Z</time>
      </trkpt>
      <trkpt lat="49.76286" lon="4.80938">
        <ele>267</ele>
        <time>2020-11-13T07:00:05.000Z</time>
      </trkpt>
      <trkpt lat="49.76289" lon="4.80939">
        <ele>267</ele>
        <time>2020-11-13T07:00:06.000Z</time>
      </trkpt>
      <trkpt lat="49.76291" lon="4.8094">
        <ele>268</ele>
        <time>2020-11-13T07:00:07.000Z</time>
      </trkpt>
      <trkpt lat="49.76294" lon="4.80941">
        <ele>268</ele>
        <time>2020-11-13T07:00:08.000Z</time>
      </trkpt>
      <trkpt lat="49.76297" lon="4.80942">
        <ele>268</ele>
        <time>2020-11-13T07:00:09.000Z</time>
      </trkpt>
      <trkpt lat="49.763" lon="4.80943">
        <ele>268</ele>
        <time>2020-11-13T07:00:10.000Z</time>
      </trkpt>
      <trkpt lat="49.76303" lon="4.80942">
        <ele>268</ele>
        <time>2020-11-13T07:00:11.000Z</time>
      </trkpt>
      <trkpt lat="49.76305" lon="4.8094">
        <ele>268</ele>
        <time>2020-11-13T07:00:12.000Z</time>
      </trkpt>
      <trkpt lat="49.76306" lon="4.80936">
        <ele>268</ele>
        <time>2020-11-13T07:00:13.000Z</time>
      </trkpt>
      <trkpt lat="49.76307" lon="4.80931">
        <ele>268</ele>
        <time>2020-11-13T07:00:14.000Z</time>
      </trkpt>
      <trkpt lat="49.76308" lon="4.80926">
        <ele>269</ele>
        <time>2020-11-13T07:00:15.000Z</time>
      </trkpt>
      <trkpt lat="49.76309" lon="4.8092">
        <ele>269</ele>
        <time>2020-11-13T07:00:16.000Z</time>
      </trkpt>
      <trkpt lat="49.7631" lon="4.80914">
        <ele>269</ele>
        <time>2020-11-13T07:00:17.000Z</time>
      </trkpt>
      <trkpt lat="49.76311" lon="4.80909">
        <ele>269</ele>
        <time>2020-11-13T07:00:18.000Z</time>
      </trkpt>
      <trkpt lat="49.76311" lon="4.80903">
        <ele>269</ele>
        <time>2020-11-13T07:00:19.000Z</time>
      </trkpt>
      <trkpt lat="49.7631" lon="4.80897">
        <ele>269</ele>
        <time>2020-11-13T07:00:20.000Z</time>
      </trkpt>
      <trkpt lat="49.7631" lon="4.8089">
        <ele>269</ele>
        <time>2020-11-13T07:00:21.000Z</time>
      </trkpt>
      <trkpt lat="49.7631" lon="4.80884">
        <ele>269</ele>
        <time>2020-11-13T07:00:22.000Z</time>
      </trkpt>
      <trkpt lat="49.76311" lon="4.80878">
        <ele>269</ele>
        <time>2020-11-13T07:00:23.000Z</time>
      </trkpt>
      <trkpt lat="49.76311" lon="4.80872">
        <ele>270</ele>
        <time>2020-11-13T07:00:24.000Z</time>
      </trkpt>
      <trkpt lat="49.76311" lon="4.80866">
        <ele>270</ele>
        <time>2020-11-13T07:00:25.000Z</time>
      </trkpt>
      <trkpt lat="49.76312" lon="4.8086">
        <ele>270</ele>
        <time>2020-11-13T07:00:26.000Z</time>
      </trkpt>
      <trkpt lat="49.76312" lon="4.80854">
        <ele>270</ele>
        <time>2020-11-13T07:00:27.000Z</time>
      </trkpt>
      <trkpt lat="49.76312" lon="4.80848">
        <ele>271</ele>
        <time>2020-11-13T07:00:28.000Z</time>
      </trkpt>
      <trkpt lat="49.76312" lon="4.80842">
        <ele>271</ele>
        <time>2020-11-13T07:00:29.000Z</time>
      </trkpt>
      <trkpt lat="49.76312" lon="4.80836">
        <ele>271</ele>
        <time>2020-11-13T07:00:30.000Z</time>
      </trkpt>
      <trkpt lat="49.76312" lon="4.8083">
        <ele>271</ele>
        <time>2020-11-13T07:00:31.000Z</time>
      </trkpt>
      <trkpt lat="49.76311" lon="4.80823">
        <ele>271</ele>
        <time>2020-11-13T07:00:32.000Z</time>
      </trkpt>
      <trkpt lat="49.76311" lon="4.80817">
        <ele>271</ele>
        <time>2020-11-13T07:00:33.000Z</time>
      </trkpt>
      <trkpt lat="49.7631" lon="4.80811">
        <ele>272</ele>
        <time>2020-11-13T07:00:34.000Z</time>
      </trkpt>
      <trkpt lat="49.7631" lon="4.80804">
        <ele>272</ele>
        <time>2020-11-13T07:00:35.000Z</time>
      </trkpt>
      <trkpt lat="49.7631" lon="4.80797">
        <ele>272</ele>
        <time>2020-11-13T07:00:36.000Z</time>
      </trkpt>
      <trkpt lat="49.76309" lon="4.80791">
        <ele>272</ele>
        <time>2020-11-13T07:00:37.000Z</time>
      </trkpt>
      <trkpt lat="49.76309" lon="4.80784">
        <ele>272</ele>
        <time>2020-11-13T07:00:38.000Z</time>
      </trkpt>
      <trkpt lat="49.76309" lon="4.80777">
        <ele>272</ele>
        <time>2020-11-13T07:00:39.000Z</time>
      </trkpt>
      <trkpt lat="49.76309" lon="4.80771">
        <ele>272</ele>
        <time>2020-11-13T07:00:40.000Z</time>
      </trkpt>
      <trkpt lat="49.7631" lon="4.80764">
        <ele>272</ele>
        <time>2020-11-13T07:00:41.000Z</time>
      </trkpt>
      <trkpt lat="49.76311" lon="4.80758">
        <ele>272</ele>
        <time>2020-11-13T07:00:42.000Z</time>
      </trkpt>
      <trkpt lat="49.76312" lon="4.80751">
        <ele>272</ele>
        <time>2020-11-13T07:00:43.000Z</time>
      </trkpt>
      <trkpt lat="49.76313" lon="4.80745">
        <ele>272</ele>
        <time>2020-11-13T07:00:44.000Z</time>
      </trkpt>
      <trkpt lat="49.76315" lon="4.80739">
        <ele>272</ele>
        <time>2020-11-13T07:00:45.000Z</time>
      </trkpt>
      <trkpt lat="49.76317" lon="4.80733">
        <ele>272</ele>
        <time>2020-11-13T07:00:46.000Z</time>
      </trkpt>
      <trkpt lat="49.7632" lon="4.80727">
        <ele>272</ele>
        <time>2020-11-13T07:00:47.000Z</time>
      </trkpt>
      <trkpt lat="49.76322" lon="4.80721">
        <ele>272</ele>
        <time>2020-11-13T07:00:48.000Z</time>
      </trkpt>
      <trkpt lat="49.76326" lon="4.80715">
        <ele>272</ele>
        <time>2020-11-13T07:00:49.000Z</time>
      </trkpt>
      <trkpt lat="49.76329" lon="4.8071">
        <ele>272</ele>
        <time>2020-11-13T07:00:50.000Z</time>
      </trkpt>
      <trkpt lat="49.76332" lon="4.80704">
        <ele>272</ele>
        <time>2020-11-13T07:00:51.000Z</time>
      </trkpt>
      <trkpt lat="49.76335" lon="4.80698">
        <ele>272</ele>
        <time>2020-11-13T07:00:52.000Z</time>
      </trkpt>
      <trkpt lat="49.76338" lon="4.80693">
        <ele>272</ele>
        <time>2020-11-13T07:00:53.000Z</time>
      </trkpt>
      <trkpt lat="49.76341" lon="4.80687">
        <ele>272</ele>
        <time>2020-11-13T07:00:54.000Z</time>
      </trkpt>
      <trkpt lat="49.76344" lon="4.80682">
        <ele>272</ele>
        <time>2020-11-13T07:00:55.000Z</time>
      </trkpt>
      <trkpt lat="49.76347" lon="4.80676">
        <ele>272</ele>
        <time>2020-11-13T07:00:56.000Z</time>
      </trkpt>
      <trkpt lat="49.7635" lon="4.80671">
        <ele>272</ele>
        <time>2020-11-13T07:00:57.000Z</time>
      </trkpt>
      <trkpt lat="49.76354" lon="4.80666">
        <ele>272</ele>
        <time>2020-11-13T07:00:58.000Z</time>
      </trkpt>
      <trkpt lat="49.76358" lon="4.8066">
        <ele>272</ele>
        <time>2020-11-13T07:00:59.000Z</time>
      </trkpt>
      <trkpt lat="49.76362" lon="4.80655">
        <ele>272</ele>
        <time>2020-11-13T07:01:00.000Z</time>
      </trkpt>
      <trkpt lat="49.76367" lon="4.80651">
        <ele>272</ele>
        <time>2020-11-13T07:01:01.000Z</time>
      </trkpt>
      <trkpt lat="49.76372" lon="4.80647">
        <ele>272</ele>
        <time>2020-11-13T07:01:02.000Z</time>
      </trkpt>
      <trkpt lat="49.76376" lon="4.80643">
        <ele>272</ele>
        <time>2020-11-13T07:01:03.000Z</time>
      </trkpt>
      <trkpt lat="49.76381" lon="4.80639">
        <ele>272</ele>
        <time>2020-11-13T07:01:04.000Z</time>
      </trkpt>
      <trkpt lat="49.76386" lon="4.80636">
        <ele>272</ele>
        <time>2020-11-13T07:01:05.000Z</time>
      </trkpt>
      <trkpt lat="49.76391" lon="4.80632">
        <ele>272</ele>
        <time>2020-11-13T07:01:06.000Z</time>
      </trkpt>
      <trkpt lat="49.76396" lon="4.80628">
        <ele>272</ele>
        <time>2020-11-13T07:01:07.000Z</time>
      </trkpt>
      <trkpt lat="49.76401" lon="4.80625">
        <ele>272</ele>
        <time>2020-11-13T07:01:08.000Z</time>
      </trkpt>
      <trkpt lat="49.76407" lon="4.80621">
        <ele>272</ele>
        <time>2020-11-13T07:01:09.000Z</time>
      </trkpt>
      <trkpt lat="49.76412" lon="4.80618">
        <ele>272</ele>
        <time>2020-11-13T07:01:10.000Z</time>
      </trkpt>
      <trkpt lat="49.76417" lon="4.80614">
        <ele>272</ele>
        <time>2020-11-13T07:01:11.000Z</time>
      </trkpt>
      <trkpt lat="49.76422" lon="4.80611">
        <ele>272</ele>
        <time>2020-11-13T07:01:12.000Z</time>
      </trkpt>
      <trkpt lat="49.76428" lon="4.80608">
        <ele>272</ele>
        <time>2020-11-13T07:01:13.000Z</time>
      </trkpt>
      <trkpt lat="49.76433" lon="4.80604">
        <ele>272</ele>
        <time>2020-11-13T07:01:14.000Z</time>
      </trkpt>
      <trkpt lat="49.76438" lon="4.806">
        <ele>272</ele>
        <time>2020-11-13T07:01:15.000Z</time>
      </trkpt>
      <trkpt lat="49.76443" lon="4.80597">
        <ele>272</ele>
        <time>2020-11-13T07:01:16.000Z</time>
      </trkpt>
      <trkpt lat="49.76448" lon="4.80593">
        <ele>272</ele>
        <time>2020-11-13T07:01:17.000Z</time>
      </trkpt>
      <trkpt lat="49.76452" lon="4.80589">
        <ele>272</ele>
        <time>2020-11-13T07:01:18.000Z</time>
      </trkpt>
      <trkpt lat="49.76457" lon="4.80585">
        <ele>272</ele>
        <time>2020-11-13T07:01:19.000Z</time>
      </trkpt>
      <trkpt lat="49.76462" lon="4.80581">
        <ele>272</ele>
        <time>2020-11-13T07:01:20.000Z</time>
      </trkpt>
      <trkpt lat="49.76467" lon="4.80577">
        <ele>272</ele>
        <time>2020-11-13T07:01:21.000Z</time>
      </trkpt>
      <trkpt lat="49.76472" lon="4.80573">
        <ele>271</ele>
        <time>2020-11-13T07:01:22.000Z</time>
      </trkpt>
      <trkpt lat="49.76477" lon="4.8057">
        <ele>271</ele>
        <time>2020-11-13T07:01:23.000Z</time>
      </trkpt>
      <trkpt lat="49.76481" lon="4.80566">
        <ele>271</ele>
        <time>2020-11-13T07:01:24.000Z</time>
      </trkpt>
      <trkpt lat="49.76486" lon="4.80562">
        <ele>271</ele>
        <time>2020-11-13T07:01:25.000Z</time>
      </trkpt>
      <trkpt lat="49.7649" lon="4.80558">
        <ele>271</ele>
        <time>2020-11-13T07:01:26.000Z</time>
      </trkpt>
      <trkpt lat="49.76495" lon="4.80554">
        <ele>271</ele>
        <time>2020-11-13T07:01:27.000Z</time>
      </trkpt>
      <trkpt lat="49.76499" lon="4.8055">
        <ele>271</ele>
        <time>2020-11-13T07:01:28.000Z</time>
      </trkpt>
      <trkpt lat="49.76503" lon="4.80546">
        <ele>271</ele>
        <time>2020-11-13T07:01:29.000Z</time>
      </trkpt>
      <trkpt lat="49.76507" lon="4.80542">
        <ele>271</ele>
        <time>2020-11-13T07:01:30.000Z</time>
      </trkpt>
      <trkpt lat="49.76511" lon="4.80539">
        <ele>271</ele>
        <time>2020-11-13T07:01:31.000Z</time>
      </trkpt>
      <trkpt lat="49.76515" lon="4.80535">
        <ele>271</ele>
        <time>2020-11-13T07:01:32.000Z</time>
      </trkpt>
      <trkpt lat="49.76519" lon="4.8053">
        <ele>271</ele>
        <time>2020-11-13T07:01:33.000Z</time>
      </trkpt>
      <trkpt lat="49.76524" lon="4.80527">
        <ele>271</ele>
        <time>2020-11-13T07:01:34.000Z</time>
      </trkpt>
      <trkpt lat="49.76529" lon="4.80524">
        <ele>271</ele>
        <time>2020-11-13T07:01:35.000Z</time>
      </trkpt>
      <trkpt lat="49.76535" lon="4.80522">
        <ele>271</ele>
        <time>2020-11-13T07:01:36.000Z</time>
      </trkpt>
      <trkpt lat="49.7654" lon="4.80522">
        <ele>271</ele>
        <time>2020-11-13T07:01:37.000Z</time>
      </trkpt>
      <trkpt lat="49.76546" lon="4.80521">
        <ele>271</ele>
        <time>2020-11-13T07:01:38.000Z</time>
      </trkpt>
      <trkpt lat="49.76551" lon="4.80519">
        <ele>272</ele>
        <time>2020-11-13T07:01:39.000Z</time>
      </trkpt>
      <trkpt lat="49.76556" lon="4.80517">
        <ele>272</ele>
        <time>2020-11-13T07:01:40.000Z</time>
      </trkpt>
      <trkpt lat="49.7656" lon="4.80515">
        <ele>272</ele>
        <time>2020-11-13T07:01:41.000Z</time>
      </trkpt>
      <trkpt lat="49.76564" lon="4.80514">
        <ele>272</ele>
        <time>2020-11-13T07:01:42.000Z</time>
      </trkpt>
      <trkpt lat="49.76568" lon="4.80512">
        <ele>272</ele>
        <time>2020-11-13T07:01:43.000Z</time>
      </trkpt>
      <trkpt lat="49.76573" lon="4.8051">
        <ele>272</ele>
        <time>2020-11-13T07:01:44.000Z</time>
      </trkpt>
      <trkpt lat="49.76578" lon="4.80508">
        <ele>272</ele>
        <time>2020-11-13T07:01:45.000Z</time>
      </trkpt>
      <trkpt lat="49.76582" lon="4.80507">
        <ele>272</ele>
        <time>2020-11-13T07:01:46.000Z</time>
      </trkpt>
      <trkpt lat="49.76586" lon="4.80506">
        <ele>273</ele>
        <time>2020-11-13T07:01:47.000Z</time>
      </trkpt>
      <trkpt lat="49.76589" lon="4.80505">
        <ele>273</ele>
        <time>2020-11-13T07:01:48.000Z</time>
      </trkpt>
      <trkpt lat="49.76593" lon="4.80504">
        <ele>273</ele>
        <time>2020-11-13T07:01:49.000Z</time>
      </trkpt>
      <trkpt lat="49.76597" lon="4.80503">
        <ele>274</ele>
        <time>2020-11-13T07:01:50.000Z</time>
      </trkpt>
      <trkpt lat="49.766" lon="4.80502">
        <ele>274</ele>
        <time>2020-11-13T07:01:51.000Z</time>
      </trkpt>
      <trkpt lat="49.76603" lon="4.80501">
        <ele>274</ele>
        <time>2020-11-13T07:01:52.000Z</time>
      </trkpt>
      <trkpt lat="49.76605" lon="4.805">
        <ele>274</ele>
        <time>2020-11-13T07:01:53.000Z</time>
      </trkpt>
      <trkpt lat="49.76608" lon="4.805">
        <ele>275</ele>
        <time>2020-11-13T07:01:54.000Z</time>
      </trkpt>
      <trkpt lat="49.76612" lon="4.80498">
        <ele>275</ele>
        <time>2020-11-13T07:01:55.000Z</time>
      </trkpt>
      <trkpt lat="49.76615" lon="4.80497">
        <ele>275</ele>
        <time>2020-11-13T07:01:56.000Z</time>
      </trkpt>
      <trkpt lat="49.76618" lon="4.80495">
        <ele>275</ele>
        <time>2020-11-13T07:01:57.000Z</time>
      </trkpt>
      <trkpt lat="49.7662" lon="4.80494">
        <ele>275</ele>
        <time>2020-11-13T07:01:58.000Z</time>
      </trkpt>
      <trkpt lat="49.76623" lon="4.80492">
        <ele>276</ele>
        <time>2020-11-13T07:01:59.000Z</time>
      </trkpt>
      <trkpt lat="49.76626" lon="4.80491">
        <ele>276</ele>
        <time>2020-11-13T07:02:00.000Z</time>
      </trkpt>
      <trkpt lat="49.76629" lon="4.8049">
        <ele>276</ele>
        <time>2020-11-13T07:02:01.000Z</time>
      </trkpt>
      <trkpt lat="49.76632" lon="4.8049">
        <ele>276</ele>
        <time>2020-11-13T07:02:02.000Z</time>
      </trkpt>
      <trkpt lat="49.76634" lon="4.8049">
        <ele>277</ele>
        <time>2020-11-13T07:02:03.000Z</time>
      </trkpt>
      <trkpt lat="49.76637" lon="4.80489">
        <ele>277</ele>
        <time>2020-11-13T07:02:04.000Z</time>
      </trkpt>
      <trkpt lat="49.7664" lon="4.80489">
        <ele>277</ele>
        <time>2020-11-13T07:02:05.000Z</time>
      </trkpt>
      <trkpt lat="49.76643" lon="4.80488">
        <ele>277</ele>
        <time>2020-11-13T07:02:06.000Z</time>
      </trkpt>
      <trkpt lat="49.76646" lon="4.80487">
        <ele>277</ele>
        <time>2020-11-13T07:02:07.000Z</time>
      </trkpt>
      <trkpt lat="49.76649" lon="4.80486">
        <ele>278</ele>
        <time>2020-11-13T07:02:08.000Z</time>
      </trkpt>
      <trkpt lat="49.76653" lon="4.80485">
        <ele>278</ele>
        <time>2020-11-13T07:02:09.000Z</time>
      </trkpt>
      <trkpt lat="49.76656" lon="4.80486">
        <ele>278</ele>
        <time>2020-11-13T07:02:10.000Z</time>
      </trkpt>
      <trkpt lat="49.7666" lon="4.80486">
        <ele>278</ele>
        <time>2020-11-13T07:02:11.000Z</time>
      </trkpt>
      <trkpt lat="49.76663" lon="4.80486">
        <ele>279</ele>
        <time>2020-11-13T07:02:12.000Z</time>
      </trkpt>
      <trkpt lat="49.76667" lon="4.80487">
        <ele>279</ele>
        <time>2020-11-13T07:02:13.000Z</time>
      </trkpt>
      <trkpt lat="49.7667" lon="4.80487">
        <ele>279</ele>
        <time>2020-11-13T07:02:14.000Z</time>
      </trkpt>
      <trkpt lat="49.76673" lon="4.80487">
        <ele>279</ele>
        <time>2020-11-13T07:02:15.000Z</time>
      </trkpt>
      <trkpt lat="49.76676" lon="4.80487">
        <ele>279</ele>
        <time>2020-11-13T07:02:16.000Z</time>
      </trkpt>
      <trkpt lat="49.76679" lon="4.80487">
        <ele>279</ele>
        <time>2020-11-13T07:02:17.000Z</time>
      </trkpt>
      <trkpt lat="49.76682" lon="4.80487">
        <ele>279</ele>
        <time>2020-11-13T07:02:18.000Z</time>
      </trkpt>
      <trkpt lat="49.76685" lon="4.80487">
        <ele>279</ele>
        <time>2020-11-13T07:02:19.000Z</time>
      </trkpt>
      <trkpt lat="49.76688" lon="4.80486">
        <ele>279</ele>
        <time>2020-11-13T07:02:20.000Z</time>
      </trkpt>
      <trkpt lat="49.76692" lon="4.80484">
        <ele>279</ele>
        <time>2020-11-13T07:02:21.000Z</time>
      </trkpt>
      <trkpt lat="49.76696" lon="4.80483">
        <ele>279</ele>
        <time>2020-11-13T07:02:22.000Z</time>
      </trkpt>
      <trkpt lat="49.76699" lon="4.80482">
        <ele>279</ele>
        <time>2020-11-13T07:02:23.000Z</time>
      </trkpt>
      <trkpt lat="49.76703" lon="4.80481">
        <ele>280</ele>
        <time>2020-11-13T07:02:24.000Z</time>
      </trkpt>
      <trkpt lat="49.76707" lon="4.80479">
        <ele>280</ele>
        <time>2020-11-13T07:02:25.000Z</time>
      </trkpt>
      <trkpt lat="49.7671" lon="4.80478">
        <ele>280</ele>
        <time>2020-11-13T07:02:26.000Z</time>
      </trkpt>
      <trkpt lat="49.76714" lon="4.80477">
        <ele>280</ele>
        <time>2020-11-13T07:02:27.000Z</time>
      </trkpt>
      <trkpt lat="49.76718" lon="4.80476">
        <ele>280</ele>
        <time>2020-11-13T07:02:28.000Z</time>
      </trkpt>
      <trkpt lat="49.76722" lon="4.80475">
        <ele>279</ele>
        <time>2020-11-13T07:02:29.000Z</time>
      </trkpt>
      <trkpt lat="49.76727" lon="4.80474">
        <ele>279</ele>
        <time>2020-11-13T07:02:30.000Z</time>
      </trkpt>
      <trkpt lat="49.76731" lon="4.80474">
        <ele>279</ele>
        <time>2020-11-13T07:02:31.000Z</time>
      </trkpt>
      <trkpt lat="49.76735" lon="4.80473">
        <ele>279</ele>
        <time>2020-11-13T07:02:32.000Z</time>
      </trkpt>
      <trkpt lat="49.76738" lon="4.80471">
        <ele>279</ele>
        <time>2020-11-13T07:02:33.000Z</time>
      </trkpt>
      <trkpt lat="49.76742" lon="4.80469">
        <ele>279</ele>
        <time>2020-11-13T07:02:34.000Z</time>
      </trkpt>
      <trkpt lat="49.76746" lon="4.80468">
        <ele>279</ele>
        <time>2020-11-13T07:02:35.000Z</time>
      </trkpt>
      <trkpt lat="49.76751" lon="4.80467">
        <ele>279</ele>
        <time>2020-11-13T07:02:36.000Z</time>
      </trkpt>
      <trkpt lat="49.76755" lon="4.80466">
        <ele>279</ele>
        <time>2020-11-13T07:02:37.000Z</time>
      </trkpt>
      <trkpt lat="49.7676" lon="4.80465">
        <ele>279</ele>
        <time>2020-11-13T07:02:38.000Z</time>
      </trkpt>
      <trkpt lat="49.76764" lon="4.80464">
        <ele>279</ele>
        <time>2020-11-13T07:02:39.000Z</time>
      </trkpt>
      <trkpt lat="49.76768" lon="4.80463">
        <ele>279</ele>
        <time>2020-11-13T07:02:40.000Z</time>
      </trkpt>
      <trkpt lat="49.76773" lon="4.80462">
        <ele>279</ele>
        <time>2020-11-13T07:02:41.000Z</time>
      </trkpt>
      <trkpt lat="49.76777" lon="4.8046">
        <ele>279</ele>
        <time>2020-11-13T07:02:42.000Z</time>
      </trkpt>
      <trkpt lat="49.76782" lon="4.80459">
        <ele>279</ele>
        <time>2020-11-13T07:02:43.000Z</time>
      </trkpt>
      <trkpt lat="49.76786" lon="4.80457">
        <ele>279</ele>
        <time>2020-11-13T07:02:44.000Z</time>
      </trkpt>
      <trkpt lat="49.76791" lon="4.80455">
        <ele>279</ele>
        <time>2020-11-13T07:02:45.000Z</time>
      </trkpt>
      <trkpt lat="49.76795" lon="4.80454">
        <ele>279</ele>
        <time>2020-11-13T07:02:46.000Z</time>
      </trkpt>
      <trkpt lat="49.768" lon="4.80452">
        <ele>279</ele>
        <time>2020-11-13T07:02:47.000Z</time>
      </trkpt>
      <trkpt lat="49.76805" lon="4.80449">
        <ele>279</ele>
        <time>2020-11-13T07:02:48.000Z</time>
      </trkpt>
      <trkpt lat="49.76809" lon="4.80446">
        <ele>280</ele>
        <time>2020-11-13T07:02:49.000Z</time>
      </trkpt>
      <trkpt lat="49.76812" lon="4.80444">
        <ele>280</ele>
        <time>2020-11-13T07:02:50.000Z</time>
      </trkpt>
      <trkpt lat="49.76816" lon="4.80442">
        <ele>280</ele>
        <time>2020-11-13T07:02:51.000Z</time>
      </trkpt>
      <trkpt lat="49.7682" lon="4.80439">
        <ele>280</ele>
        <time>2020-11-13T07:02:52.000Z</time>
      </trkpt>
      <trkpt lat="49.76824" lon="4.80436">
        <ele>280</ele>
        <time>2020-11-13T07:02:53.000Z</time>
      </trkpt>
      <trkpt lat="49.76828" lon="4.80433">
        <ele>281</ele>
        <time>2020-11-13T07:02:54.000Z</time>
      </trkpt>
      <trkpt lat="49.76833" lon="4.8043">
        <ele>281</ele>
        <time>2020-11-13T07:02:55.000Z</time>
      </trkpt>
      <trkpt lat="49.76836" lon="4.80427">
        <ele>281</ele>
        <time>2020-11-13T07:02:56.000Z</time>
      </trkpt>
      <trkpt lat="49.7684" lon="4.80423">
        <ele>281</ele>
        <time>2020-11-13T07:02:57.000Z</time>
      </trkpt>
      <trkpt lat="49.76844" lon="4.8042">
        <ele>281</ele>
        <time>2020-11-13T07:02:58.000Z</time>
      </trkpt>
      <trkpt lat="49.76848" lon="4.80417">
        <ele>282</ele>
        <time>2020-11-13T07:02:59.000Z</time>
      </trkpt>
      <trkpt lat="49.76852" lon="4.80415">
        <ele>282</ele>
        <time>2020-11-13T07:03:00.000Z</time>
      </trkpt>
      <trkpt lat="49.76856" lon="4.80412">
        <ele>282</ele>
        <time>2020-11-13T07:03:01.000Z</time>
      </trkpt>
      <trkpt lat="49.76861" lon="4.80409">
        <ele>282</ele>
        <time>2020-11-13T07:03:02.000Z</time>
      </trkpt>
      <trkpt lat="49.76865" lon="4.80407">
        <ele>282</ele>
        <time>2020-11-13T07:03:03.000Z</time>
      </trkpt>
      <trkpt lat="49.76869" lon="4.80404">
        <ele>282</ele>
        <time>2020-11-13T07:03:04.000Z</time>
      </trkpt>
      <trkpt lat="49.76873" lon="4.80402">
        <ele>282</ele>
        <time>2020-11-13T07:03:05.000Z</time>
      </trkpt>
      <trkpt lat="49.76877" lon="4.804">
        <ele>282</ele>
        <time>2020-11-13T07:03:06.000Z</time>
      </trkpt>
      <trkpt lat="49.76881" lon="4.80398">
        <ele>282</ele>
        <time>2020-11-13T07:03:07.000Z</time>
      </trkpt>
      <trkpt lat="49.76885" lon="4.80395">
        <ele>282</ele>
        <time>2020-11-13T07:03:08.000Z</time>
      </trkpt>
      <trkpt lat="49.76889" lon="4.80393">
        <ele>282</ele>
        <time>2020-11-13T07:03:09.000Z</time>
      </trkpt>
      <trkpt lat="49.76893" lon="4.80389">
        <ele>282</ele>
        <time>2020-11-13T07:03:10.000Z</time>
      </trkpt>
      <trkpt lat="49.76897" lon="4.80385">
        <ele>282</ele>
        <time>2020-11-13T07:03:11.000Z</time>
      </trkpt>
      <trkpt lat="49.76902" lon="4.80381">
        <ele>282</ele>
        <time>2020-11-13T07:03:12.000Z</time>
      </trkpt>
      <trkpt lat="49.76906" lon="4.80375">
        <ele>282</ele>
        <time>2020-11-13T07:03:13.000Z</time>
      </trkpt>
      <trkpt lat="49.7691" lon="4.8037">
        <ele>282</ele>
        <time>2020-11-13T07:03:14.000Z</time>
      </trkpt>
      <trkpt lat="49.76914" lon="4.80364">
        <ele>282</ele>
        <time>2020-11-13T07:03:15.000Z</time>
      </trkpt>
      <trkpt lat="49.76917" lon="4.80358">
        <ele>282</ele>
        <time>2020-11-13T07:03:16.000Z</time>
      </trkpt>
      <trkpt lat="49.76921" lon="4.80353">
        <ele>282</ele>
        <time>2020-11-13T07:03:17.000Z</time>
      </trkpt>
      <trkpt lat="49.76925" lon="4.80349">
        <ele>282</ele>
        <time>2020-11-13T07:03:18.000Z</time>
      </trkpt>
      <trkpt lat="49.76928" lon="4.80345">
        <ele>282</ele>
        <time>2020-11-13T07:03:19.000Z</time>
      </trkpt>
      <trkpt lat="49.76932" lon="4.80341">
        <ele>282</ele>
        <time>2020-11-13T07:03:20.000Z</time>
      </trkpt>
      <trkpt lat="49.76935" lon="4.80338">
        <ele>282</ele>
        <time>2020-11-13T07:03:21.000Z</time>
      </trkpt>
      <trkpt lat="49.76938" lon="4.80335">
        <ele>282</ele>
        <time>2020-11-13T07:03:22.000Z</time>
      </trkpt>
      <trkpt lat="49.7694" lon="4.80332">
        <ele>282</ele>
        <time>2020-11-13T07:03:23.000Z</time>
      </trkpt>
      <trkpt lat="49.76942" lon="4.80329">
        <ele>282</ele>
        <time>2020-11-13T07:03:24.000Z</time>
      </trkpt>
      <trkpt lat="49.76945" lon="4.80326">
        <ele>282</ele>
        <time>2020-11-13T07:03:25.000Z</time>
      </trkpt>
      <trkpt lat="49.76947" lon="4.80324">
        <ele>283</ele>
        <time>2020-11-13T07:03:26.000Z</time>
      </trkpt>
      <trkpt lat="49.76949" lon="4.80322">
        <ele>283</ele>
        <time>2020-11-13T07:03:27.000Z</time>
      </trkpt>
      <trkpt lat="49.76952" lon="4.8032">
        <ele>283</ele>
        <time>2020-11-13T07:03:28.000Z</time>
      </trkpt>
      <trkpt lat="49.76953" lon="4.80318">
        <ele>283</ele>
        <time>2020-11-13T07:03:29.000Z</time>
      </trkpt>
      <trkpt lat="49.76955" lon="4.80316">
        <ele>283</ele>
        <time>2020-11-13T07:03:30.000Z</time>
      </trkpt>
      <trkpt lat="49.76956" lon="4.80314">
        <ele>283</ele>
        <time>2020-11-13T07:03:31.000Z</time>
      </trkpt>
      <trkpt lat="49.76958" lon="4.80312">
        <ele>284</ele>
        <time>2020-11-13T07:03:32.000Z</time>
      </trkpt>
      <trkpt lat="49.76959" lon="4.8031">
        <ele>284</ele>
        <time>2020-11-13T07:03:33.000Z</time>
      </trkpt>
      <trkpt lat="49.76961" lon="4.80308">
        <ele>284</ele>
        <time>2020-11-13T07:03:34.000Z</time>
      </trkpt>
      <trkpt lat="49.76962" lon="4.80307">
        <ele>284</ele>
        <time>2020-11-13T07:03:35.000Z</time>
      </trkpt>
      <trkpt lat="49.76963" lon="4.80305">
        <ele>284</ele>
        <time>2020-11-13T07:03:36.000Z</time>
      </trkpt>
      <trkpt lat="49.76964" lon="4.80303">
        <ele>285</ele>
        <time>2020-11-13T07:03:37.000Z</time>
      </trkpt>
      <trkpt lat="49.76966" lon="4.803">
        <ele>285</ele>
        <time>2020-11-13T07:03:38.000Z</time>
      </trkpt>
      <trkpt lat="49.76968" lon="4.80298">
        <ele>285</ele>
        <time>2020-11-13T07:03:39.000Z</time>
      </trkpt>
      <trkpt lat="49.76969" lon="4.80296">
        <ele>285</ele>
        <time>2020-11-13T07:03:40.000Z</time>
      </trkpt>
      <trkpt lat="49.7697" lon="4.80294">
        <ele>285</ele>
        <time>2020-11-13T07:03:41.000Z</time>
      </trkpt>
      <trkpt lat="49.76971" lon="4.80291">
        <ele>286</ele>
        <time>2020-11-13T07:03:42.000Z</time>
      </trkpt>
      <trkpt lat="49.76973" lon="4.8029">
        <ele>286</ele>
        <time>2020-11-13T07:03:43.000Z</time>
      </trkpt>
      <trkpt lat="49.76975" lon="4.80287">
        <ele>286</ele>
        <time>2020-11-13T07:03:44.000Z</time>
      </trkpt>
      <trkpt lat="49.76976" lon="4.80285">
        <ele>286</ele>
        <time>2020-11-13T07:03:45.000Z</time>
      </trkpt>
      <trkpt lat="49.76978" lon="4.80283">
        <ele>287</ele>
        <time>2020-11-13T07:03:46.000Z</time>
      </trkpt>
      <trkpt lat="49.76979" lon="4.80279">
        <ele>287</ele>
        <time>2020-11-13T07:03:47.000Z</time>
      </trkpt>
      <trkpt lat="49.76981" lon="4.80277">
        <ele>287</ele>
        <time>2020-11-13T07:03:48.000Z</time>
      </trkpt>
      <trkpt lat="49.76983" lon="4.80274">
        <ele>287</ele>
        <time>2020-11-13T07:03:49.000Z</time>
      </trkpt>
      <trkpt lat="49.76985" lon="4.80272">
        <ele>288</ele>
        <time>2020-11-13T07:03:50.000Z</time>
      </trkpt>
      <trkpt lat="49.76986" lon="4.8027">
        <ele>288</ele>
        <time>2020-11-13T07:03:51.000Z</time>
      </trkpt>
      <trkpt lat="49.76988" lon="4.80267">
        <ele>288</ele>
        <time>2020-11-13T07:03:52.000Z</time>
      </trkpt>
      <trkpt lat="49.76989" lon="4.80265">
        <ele>289</ele>
        <time>2020-11-13T07:03:53.000Z</time>
      </trkpt>
      <trkpt lat="49.76991" lon="4.80263">
        <ele>289</ele>
        <time>2020-11-13T07:03:54.000Z</time>
      </trkpt>
      <trkpt lat="49.76993" lon="4.80261">
        <ele>290</ele>
        <time>2020-11-13T07:03:55.000Z</time>
      </trkpt>
      <trkpt lat="49.76995" lon="4.80258">
        <ele>290</ele>
        <time>2020-11-13T07:03:56.000Z</time>
      </trkpt>
      <trkpt lat="49.76997" lon="4.80256">
        <ele>291</ele>
        <time>2020-11-13T07:03:57.000Z</time>
      </trkpt>
      <trkpt lat="49.76999" lon="4.80253">
        <ele>291</ele>
        <time>2020-11-13T07:03:58.000Z</time>
      </trkpt>
      <trkpt lat="49.77001" lon="4.80251">
        <ele>291</ele>
        <time>2020-11-13T07:03:59.000Z</time>
      </trkpt>
      <trkpt lat="49.77003" lon="4.80248">
        <ele>292</ele>
        <time>2020-11-13T07:04:00.000Z</time>
      </trkpt>
      <trkpt lat="49.77005" lon="4.80245">
        <ele>292</ele>
        <time>2020-11-13T07:04:01.000Z</time>
      </trkpt>
      <trkpt lat="49.77008" lon="4.80242">
        <ele>292</ele>
        <time>2020-11-13T07:04:02.000Z</time>
      </trkpt>
      <trkpt lat="49.7701" lon="4.80239">
        <ele>292</ele>
        <time>2020-11-13T07:04:03.000Z</time>
      </trkpt>
      <trkpt lat="49.77012" lon="4.80237">
        <ele>292</ele>
        <time>2020-11-13T07:04:04.000Z</time>
      </trkpt>
      <trkpt lat="49.77015" lon="4.80234">
        <ele>293</ele>
        <time>2020-11-13T07:04:05.000Z</time>
      </trkpt>
      <trkpt lat="49.77016" lon="4.80231">
        <ele>293</ele>
        <time>2020-11-13T07:04:06.000Z</time>
      </trkpt>
      <trkpt lat="49.77019" lon="4.80228">
        <ele>293</ele>
        <time>2020-11-13T07:04:07.000Z</time>
      </trkpt>
      <trkpt lat="49.77021" lon="4.80226">
        <ele>293</ele>
        <time>2020-11-13T07:04:08.000Z</time>
      </trkpt>
      <trkpt lat="49.77023" lon="4.80223">
        <ele>293</ele>
        <time>2020-11-13T07:04:09.000Z</time>
      </trkpt>
      <trkpt lat="49.77026" lon="4.80221">
        <ele>293</ele>
        <time>2020-11-13T07:04:10.000Z</time>
      </trkpt>
      <trkpt lat="49.77028" lon="4.80218">
        <ele>293</ele>
        <time>2020-11-13T07:04:11.000Z</time>
      </trkpt>
      <trkpt lat="49.7703" lon="4.80216">
        <ele>293</ele>
        <time>2020-11-13T07:04:12.000Z</time>
      </trkpt>
      <trkpt lat="49.77033" lon="4.80214">
        <ele>293</ele>
        <time>2020-11-13T07:04:13.000Z</time>
      </trkpt>
      <trkpt lat="49.77036" lon="4.80211">
        <ele>294</ele>
        <time>2020-11-13T07:04:14.000Z</time>
      </trkpt>
      <trkpt lat="49.77038" lon="4.80209">
        <ele>294</ele>
        <time>2020-11-13T07:04:15.000Z</time>
      </trkpt>
      <trkpt lat="49.77041" lon="4.80207">
        <ele>294</ele>
        <time>2020-11-13T07:04:16.000Z</time>
      </trkpt>
      <trkpt lat="49.77043" lon="4.80204">
        <ele>294</ele>
        <time>2020-11-13T07:04:17.000Z</time>
      </trkpt>
      <trkpt lat="49.77045" lon="4.80201">
        <ele>294</ele>
        <time>2020-11-13T07:04:18.000Z</time>
      </trkpt>
      <trkpt lat="49.77047" lon="4.80199">
        <ele>294</ele>
        <time>2020-11-13T07:04:19.000Z</time>
      </trkpt>
      <trkpt lat="49.77049" lon="4.80196">
        <ele>294</ele>
        <time>2020-11-13T07:04:20.000Z</time>
      </trkpt>
      <trkpt lat="49.77051" lon="4.80194">
        <ele>294</ele>
        <time>2020-11-13T07:04:21.000Z</time>
      </trkpt>
      <trkpt lat="49.77052" lon="4.80191">
        <ele>294</ele>
        <time>2020-11-13T07:04:22.000Z</time>
      </trkpt>
      <trkpt lat="49.77054" lon="4.80188">
        <ele>294</ele>
        <time>2020-11-13T07:04:23.000Z</time>
      </trkpt>
      <trkpt lat="49.77056" lon="4.80184">
        <ele>294</ele>
        <time>2020-11-13T07:04:24.000Z</time>
      </trkpt>
      <trkpt lat="49.77058" lon="4.80181">
        <ele>295</ele>
        <time>2020-11-13T07:04:25.000Z</time>
      </trkpt>
      <trkpt lat="49.77059" lon="4.80178">
        <ele>295</ele>
        <time>2020-11-13T07:04:26.000Z</time>
      </trkpt>
      <trkpt lat="49.77061" lon="4.80175">
        <ele>295</ele>
        <time>2020-11-13T07:04:27.000Z</time>
      </trkpt>
      <trkpt lat="49.77063" lon="4.80171">
        <ele>295</ele>
        <time>2020-11-13T07:04:28.000Z</time>
      </trkpt>
      <trkpt lat="49.77065" lon="4.80169">
        <ele>295</ele>
        <time>2020-11-13T07:04:29.000Z</time>
      </trkpt>
      <trkpt lat="49.77068" lon="4.80167">
        <ele>295</ele>
        <time>2020-11-13T07:04:30.000Z</time>
      </trkpt>
      <trkpt lat="49.77072" lon="4.80167">
        <ele>295</ele>
        <time>2020-11-13T07:04:31.000Z</time>
      </trkpt>
      <trkpt lat="49.77075" lon="4.80169">
        <ele>295</ele>
        <time>2020-11-13T07:04:32.000Z</time>
      </trkpt>
      <trkpt lat="49.77079" lon="4.80171">
        <ele>295</ele>
        <time>2020-11-13T07:04:33.000Z</time>
      </trkpt>
      <trkpt lat="49.77082" lon="4.80173">
        <ele>295</ele>
        <time>2020-11-13T07:04:34.000Z</time>
      </trkpt>
      <trkpt lat="49.77086" lon="4.80176">
        <ele>295</ele>
        <time>2020-11-13T07:04:35.000Z</time>
      </trkpt>
      <trkpt lat="49.7709" lon="4.80179">
        <ele>296</ele>
        <time>2020-11-13T07:04:36.000Z</time>
      </trkpt>
      <trkpt lat="49.77093" lon="4.80181">
        <ele>296</ele>
        <time>2020-11-13T07:04:37.000Z</time>
      </trkpt>
      <trkpt lat="49.77097" lon="4.80184">
        <ele>296</ele>
        <time>2020-11-13T07:04:38.000Z</time>
      </trkpt>
      <trkpt lat="49.77101" lon="4.80185">
        <ele>296</ele>
        <time>2020-11-13T07:04:39.000Z</time>
      </trkpt>
      <trkpt lat="49.77105" lon="4.80187">
        <ele>296</ele>
        <time>2020-11-13T07:04:40.000Z</time>
      </trkpt>
      <trkpt lat="49.77108" lon="4.80188">
        <ele>296</ele>
        <time>2020-11-13T07:04:41.000Z</time>
      </trkpt>
      <trkpt lat="49.77112" lon="4.80187">
        <ele>296</ele>
        <time>2020-11-13T07:04:42.000Z</time>
      </trkpt>
      <trkpt lat="49.77116" lon="4.80186">
        <ele>296</ele>
        <time>2020-11-13T07:04:43.000Z</time>
      </trkpt>
      <trkpt lat="49.7712" lon="4.80185">
        <ele>296</ele>
        <time>2020-11-13T07:04:44.000Z</time>
      </trkpt>
      <trkpt lat="49.77124" lon="4.80184">
        <ele>296</ele>
        <time>2020-11-13T07:04:45.000Z</time>
      </trkpt>
      <trkpt lat="49.77127" lon="4.80183">
        <ele>296</ele>
        <time>2020-11-13T07:04:46.000Z</time>
      </trkpt>
      <trkpt lat="49.77131" lon="4.80181">
        <ele>296</ele>
        <time>2020-11-13T07:04:47.000Z</time>
      </trkpt>
      <trkpt lat="49.77135" lon="4.80179">
        <ele>296</ele>
        <time>2020-11-13T07:04:48.000Z</time>
      </trkpt>
      <trkpt lat="49.77139" lon="4.80177">
        <ele>296</ele>
        <time>2020-11-13T07:04:49.000Z</time>
      </trkpt>
      <trkpt lat="49.77143" lon="4.80176">
        <ele>296</ele>
        <time>2020-11-13T07:04:50.000Z</time>
      </trkpt>
      <trkpt lat="49.77147" lon="4.80175">
        <ele>296</ele>
        <time>2020-11-13T07:04:51.000Z</time>
      </trkpt>
      <trkpt lat="49.77151" lon="4.80174">
        <ele>295</ele>
        <time>2020-11-13T07:04:52.000Z</time>
      </trkpt>
      <trkpt lat="49.77155" lon="4.80175">
        <ele>295</ele>
        <time>2020-11-13T07:04:53.000Z</time>
      </trkpt>
      <trkpt lat="49.77159" lon="4.80176">
        <ele>295</ele>
        <time>2020-11-13T07:04:54.000Z</time>
      </trkpt>
      <trkpt lat="49.77163" lon="4.80176">
        <ele>295</ele>
        <time>2020-11-13T07:04:55.000Z</time>
      </trkpt>
      <trkpt lat="49.77168" lon="4.80175">
        <ele>295</ele>
        <time>2020-11-13T07:04:56.000Z</time>
      </trkpt>
      <trkpt lat="49.77173" lon="4.80175">
        <ele>295</ele>
        <time>2020-11-13T07:04:57.000Z</time>
      </trkpt>
      <trkpt lat="49.77178" lon="4.80174">
        <ele>295</ele>
        <time>2020-11-13T07:04:58.000Z</time>
      </trkpt>
      <trkpt lat="49.77183" lon="4.80174">
        <ele>295</ele>
        <time>2020-11-13T07:04:59.000Z</time>
      </trkpt>
      <trkpt lat="49.77187" lon="4.80173">
        <ele>295</ele>
        <time>2020-11-13T07:05:00.000Z</time>
      </trkpt>
      <trkpt lat="49.77192" lon="4.80173">
        <ele>295</ele>
        <time>2020-11-13T07:05:01.000Z</time>
      </trkpt>
      <trkpt lat="49.77197" lon="4.80172">
        <ele>295</ele>
        <time>2020-11-13T07:05:02.000Z</time>
      </trkpt>
      <trkpt lat="49.77202" lon="4.80172">
        <ele>294</ele>
        <time>2020-11-13T07:05:03.000Z</time>
      </trkpt>
      <trkpt lat="49.77207" lon="4.80171">
        <ele>294</ele>
        <time>2020-11-13T07:05:04.000Z</time>
      </trkpt>
      <trkpt lat="49.77212" lon="4.8017">
        <ele>294</ele>
        <time>2020-11-13T07:05:05.000Z</time>
      </trkpt>
      <trkpt lat="49.77218" lon="4.80169">
        <ele>294</ele>
        <time>2020-11-13T07:05:06.000Z</time>
      </trkpt>
      <trkpt lat="49.77223" lon="4.80168">
        <ele>294</ele>
        <time>2020-11-13T07:05:07.000Z</time>
      </trkpt>
      <trkpt lat="49.77228" lon="4.80168">
        <ele>293</ele>
        <time>2020-11-13T07:05:08.000Z</time>
      </trkpt>
      <trkpt lat="49.77234" lon="4.80167">
        <ele>293</ele>
        <time>2020-11-13T07:05:09.000Z</time>
      </trkpt>
      <trkpt lat="49.77239" lon="4.80167">
        <ele>293</ele>
        <time>2020-11-13T07:05:10.000Z</time>
      </trkpt>
      <trkpt lat="49.77244" lon="4.80167">
        <ele>293</ele>
        <time>2020-11-13T07:05:11.000Z</time>
      </trkpt>
      <trkpt lat="49.77249" lon="4.80166">
        <ele>293</ele>
        <time>2020-11-13T07:05:12.000Z</time>
      </trkpt>
      <trkpt lat="49.77255" lon="4.80165">
        <ele>293</ele>
        <time>2020-11-13T07:05:13.000Z</time>
      </trkpt>
      <trkpt lat="49.7726" lon="4.80164">
        <ele>292</ele>
        <time>2020-11-13T07:05:14.000Z</time>
      </trkpt>
      <trkpt lat="49.77266" lon="4.80163">
        <ele>292</ele>
        <time>2020-11-13T07:05:15.000Z</time>
      </trkpt>
      <trkpt lat="49.77272" lon="4.80162">
        <ele>292</ele>
        <time>2020-11-13T07:05:16.000Z</time>
      </trkpt>
      <trkpt lat="49.77278" lon="4.80161">
        <ele>292</ele>
        <time>2020-11-13T07:05:17.000Z</time>
      </trkpt>
      <trkpt lat="49.77285" lon="4.8016">
        <ele>291</ele>
        <time>2020-11-13T07:05:18.000Z</time>
      </trkpt>
      <trkpt lat="49.77291" lon="4.80158">
        <ele>291</ele>
        <time>2020-11-13T07:05:19.000Z</time>
      </trkpt>
      <trkpt lat="49.77298" lon="4.80157">
        <ele>291</ele>
        <time>2020-11-13T07:05:20.000Z</time>
      </trkpt>
      <trkpt lat="49.77305" lon="4.80155">
        <ele>290</ele>
        <time>2020-11-13T07:05:21.000Z</time>
      </trkpt>
      <trkpt lat="49.77312" lon="4.80153">
        <ele>290</ele>
        <time>2020-11-13T07:05:22.000Z</time>
      </trkpt>
      <trkpt lat="49.77318" lon="4.80151">
        <ele>290</ele>
        <time>2020-11-13T07:05:23.000Z</time>
      </trkpt>
      <trkpt lat="49.77325" lon="4.80149">
        <ele>289</ele>
        <time>2020-11-13T07:05:24.000Z</time>
      </trkpt>
      <trkpt lat="49.77331" lon="4.80146">
        <ele>289</ele>
        <time>2020-11-13T07:05:25.000Z</time>
      </trkpt>
      <trkpt lat="49.77337" lon="4.80143">
        <ele>289</ele>
        <time>2020-11-13T07:05:26.000Z</time>
      </trkpt>
      <trkpt lat="49.77342" lon="4.80138">
        <ele>288</ele>
        <time>2020-11-13T07:05:27.000Z</time>
      </trkpt>
      <trkpt lat="49.77347" lon="4.80133">
        <ele>288</ele>
        <time>2020-11-13T07:05:28.000Z</time>
      </trkpt>
      <trkpt lat="49.77352" lon="4.80128">
        <ele>288</ele>
        <time>2020-11-13T07:05:29.000Z</time>
      </trkpt>
      <trkpt lat="49.77358" lon="4.80122">
        <ele>288</ele>
        <time>2020-11-13T07:05:30.000Z</time>
      </trkpt>
      <trkpt lat="49.77363" lon="4.80116">
        <ele>288</ele>
        <time>2020-11-13T07:05:31.000Z</time>
      </trkpt>
      <trkpt lat="49.77367" lon="4.8011">
        <ele>288</ele>
        <time>2020-11-13T07:05:32.000Z</time>
      </trkpt>
      <trkpt lat="49.77372" lon="4.80103">
        <ele>287</ele>
        <time>2020-11-13T07:05:33.000Z</time>
      </trkpt>
      <trkpt lat="49.77377" lon="4.80096">
        <ele>287</ele>
        <time>2020-11-13T07:05:34.000Z</time>
      </trkpt>
      <trkpt lat="49.77381" lon="4.80089">
        <ele>287</ele>
        <time>2020-11-13T07:05:35.000Z</time>
      </trkpt>
      <trkpt lat="49.77385" lon="4.80082">
        <ele>287</ele>
        <time>2020-11-13T07:05:36.000Z</time>
      </trkpt>
      <trkpt lat="49.77389" lon="4.80076">
        <ele>286</ele>
        <time>2020-11-13T07:05:37.000Z</time>
      </trkpt>
      <trkpt lat="49.77392" lon="4.80069">
        <ele>286</ele>
        <time>2020-11-13T07:05:38.000Z</time>
      </trkpt>
      <trkpt lat="49.77395" lon="4.80062">
        <ele>286</ele>
        <time>2020-11-13T07:05:39.000Z</time>
      </trkpt>
      <trkpt lat="49.77398" lon="4.80054">
        <ele>286</ele>
        <time>2020-11-13T07:05:40.000Z</time>
      </trkpt>
      <trkpt lat="49.77402" lon="4.80046">
        <ele>286</ele>
        <time>2020-11-13T07:05:41.000Z</time>
      </trkpt>
      <trkpt lat="49.77407" lon="4.8004">
        <ele>285</ele>
        <time>2020-11-13T07:05:42.000Z</time>
      </trkpt>
      <trkpt lat="49.77414" lon="4.80037">
        <ele>285</ele>
        <time>2020-11-13T07:05:43.000Z</time>
      </trkpt>
      <trkpt lat="49.77421" lon="4.80036">
        <ele>285</ele>
        <time>2020-11-13T07:05:44.000Z</time>
      </trkpt>
      <trkpt lat="49.77428" lon="4.80037">
        <ele>285</ele>
        <time>2020-11-13T07:05:45.000Z</time>
      </trkpt>
      <trkpt lat="49.77436" lon="4.80038">
        <ele>284</ele>
        <time>2020-11-13T07:05:46.000Z</time>
      </trkpt>
      <trkpt lat="49.77443" lon="4.80037">
        <ele>284</ele>
        <time>2020-11-13T07:05:47.000Z</time>
      </trkpt>
      <trkpt lat="49.77451" lon="4.80035">
        <ele>283</ele>
        <time>2020-11-13T07:05:48.000Z</time>
      </trkpt>
      <trkpt lat="49.77458" lon="4.80032">
        <ele>283</ele>
        <time>2020-11-13T07:05:49.000Z</time>
      </trkpt>
      <trkpt lat="49.77466" lon="4.80027">
        <ele>282</ele>
        <time>2020-11-13T07:05:50.000Z</time>
      </trkpt>
      <trkpt lat="49.77473" lon="4.80021">
        <ele>282</ele>
        <time>2020-11-13T07:05:51.000Z</time>
      </trkpt>
      <trkpt lat="49.7748" lon="4.80016">
        <ele>281</ele>
        <time>2020-11-13T07:05:52.000Z</time>
      </trkpt>
      <trkpt lat="49.77486" lon="4.80011">
        <ele>280</ele>
        <time>2020-11-13T07:05:53.000Z</time>
      </trkpt>
      <trkpt lat="49.77493" lon="4.80007">
        <ele>279</ele>
        <time>2020-11-13T07:05:54.000Z</time>
      </trkpt>
      <trkpt lat="49.77499" lon="4.80003">
        <ele>278</ele>
        <time>2020-11-13T07:05:55.000Z</time>
      </trkpt>
      <trkpt lat="49.77506" lon="4.79998">
        <ele>277</ele>
        <time>2020-11-13T07:05:56.000Z</time>
      </trkpt>
      <trkpt lat="49.77514" lon="4.79995">
        <ele>275</ele>
        <time>2020-11-13T07:05:57.000Z</time>
      </trkpt>
      <trkpt lat="49.77522" lon="4.79992">
        <ele>274</ele>
        <time>2020-11-13T07:05:58.000Z</time>
      </trkpt>
      <trkpt lat="49.77531" lon="4.79991">
        <ele>273</ele>
        <time>2020-11-13T07:05:59.000Z</time>
      </trkpt>
      <trkpt lat="49.77539" lon="4.7999">
        <ele>271</ele>
        <time>2020-11-13T07:06:00.000Z</time>
      </trkpt>
      <trkpt lat="49.77548" lon="4.79988">
        <ele>270</ele>
        <time>2020-11-13T07:06:01.000Z</time>
      </trkpt>
      <trkpt lat="49.77556" lon="4.79986">
        <ele>269</ele>
        <time>2020-11-13T07:06:02.000Z</time>
      </trkpt>
      <trkpt lat="49.77565" lon="4.79985">
        <ele>268</ele>
        <time>2020-11-13T07:06:03.000Z</time>
      </trkpt>
      <trkpt lat="49.77574" lon="4.79984">
        <ele>267</ele>
        <time>2020-11-13T07:06:04.000Z</time>
      </trkpt>
      <trkpt lat="49.77583" lon="4.79983">
        <ele>266</ele>
        <time>2020-11-13T07:06:05.000Z</time>
      </trkpt>
      <trkpt lat="49.77592" lon="4.79982">
        <ele>265</ele>
        <time>2020-11-13T07:06:06.000Z</time>
      </trkpt>
      <trkpt lat="49.77601" lon="4.79981">
        <ele>264</ele>
        <time>2020-11-13T07:06:07.000Z</time>
      </trkpt>
      <trkpt lat="49.7761" lon="4.7998">
        <ele>263</ele>
        <time>2020-11-13T07:06:08.000Z</time>
      </trkpt>
      <trkpt lat="49.77618" lon="4.79979">
        <ele>262</ele>
        <time>2020-11-13T07:06:09.000Z</time>
      </trkpt>
      <trkpt lat="49.77627" lon="4.79977">
        <ele>262</ele>
        <time>2020-11-13T07:06:10.000Z</time>
      </trkpt>
      <trkpt lat="49.77635" lon="4.79973">
        <ele>262</ele>
        <time>2020-11-13T07:06:11.000Z</time>
      </trkpt>
      <trkpt lat="49.77642" lon="4.79969">
        <ele>261</ele>
        <time>2020-11-13T07:06:12.000Z</time>
      </trkpt>
      <trkpt lat="49.77649" lon="4.79964">
        <ele>261</ele>
        <time>2020-11-13T07:06:13.000Z</time>
      </trkpt>
      <trkpt lat="49.77656" lon="4.7996">
        <ele>260</ele>
        <time>2020-11-13T07:06:14.000Z</time>
      </trkpt>
      <trkpt lat="49.77662" lon="4.79954">
        <ele>260</ele>
        <time>2020-11-13T07:06:15.000Z</time>
      </trkpt>
      <trkpt lat="49.77668" lon="4.79948">
        <ele>260</ele>
        <time>2020-11-13T07:06:16.000Z</time>
      </trkpt>
      <trkpt lat="49.77674" lon="4.79941">
        <ele>259</ele>
        <time>2020-11-13T07:06:17.000Z</time>
      </trkpt>
      <trkpt lat="49.7768" lon="4.79934">
        <ele>259</ele>
        <time>2020-11-13T07:06:18.000Z</time>
      </trkpt>
      <trkpt lat="49.77686" lon="4.79928">
        <ele>258</ele>
        <time>2020-11-13T07:06:19.000Z</time>
      </trkpt>
      <trkpt lat="49.77692" lon="4.79921">
        <ele>258</ele>
        <time>2020-11-13T07:06:20.000Z</time>
      </trkpt>
      <trkpt lat="49.77698" lon="4.79914">
        <ele>258</ele>
        <time>2020-11-13T07:06:21.000Z</time>
      </trkpt>
      <trkpt lat="49.77704" lon="4.79908">
        <ele>257</ele>
        <time>2020-11-13T07:06:22.000Z</time>
      </trkpt>
      <trkpt lat="49.7771" lon="4.79902">
        <ele>257</ele>
        <time>2020-11-13T07:06:23.000Z</time>
      </trkpt>
      <trkpt lat="49.77716" lon="4.79896">
        <ele>257</ele>
        <time>2020-11-13T07:06:24.000Z</time>
      </trkpt>
      <trkpt lat="49.77722" lon="4.7989">
        <ele>256</ele>
        <time>2020-11-13T07:06:25.000Z</time>
      </trkpt>
      <trkpt lat="49.77728" lon="4.79885">
        <ele>256</ele>
        <time>2020-11-13T07:06:26.000Z</time>
      </trkpt>
      <trkpt lat="49.77734" lon="4.79881">
        <ele>256</ele>
        <time>2020-11-13T07:06:27.000Z</time>
      </trkpt>
      <trkpt lat="49.7774" lon="4.79876">
        <ele>256</ele>
        <time>2020-11-13T07:06:28.000Z</time>
      </trkpt>
      <trkpt lat="49.77745" lon="4.79872">
        <ele>256</ele>
        <time>2020-11-13T07:06:29.000Z</time>
      </trkpt>
      <trkpt lat="49.77751" lon="4.79867">
        <ele>255</ele>
        <time>2020-11-13T07:06:30.000Z</time>
      </trkpt>
      <trkpt lat="49.77757" lon="4.79863">
        <ele>255</ele>
        <time>2020-11-13T07:06:31.000Z</time>
      </trkpt>
      <trkpt lat="49.77763" lon="4.79858">
        <ele>255</ele>
        <time>2020-11-13T07:06:32.000Z</time>
      </trkpt>
      <trkpt lat="49.77768" lon="4.79853">
        <ele>255</ele>
        <time>2020-11-13T07:06:33.000Z</time>
      </trkpt>
      <trkpt lat="49.77774" lon="4.79847">
        <ele>255</ele>
        <time>2020-11-13T07:06:34.000Z</time>
      </trkpt>
      <trkpt lat="49.77779" lon="4.79842">
        <ele>255</ele>
        <time>2020-11-13T07:06:35.000Z</time>
      </trkpt>
      <trkpt lat="49.77784" lon="4.79836">
        <ele>255</ele>
        <time>2020-11-13T07:06:36.000Z</time>
      </trkpt>
      <trkpt lat="49.77789" lon="4.7983">
        <ele>255</ele>
        <time>2020-11-13T07:06:37.000Z</time>
      </trkpt>
      <trkpt lat="49.77793" lon="4.79825">
        <ele>255</ele>
        <time>2020-11-13T07:06:38.000Z</time>
      </trkpt>
      <trkpt lat="49.77798" lon="4.7982">
        <ele>255</ele>
        <time>2020-11-13T07:06:39.000Z</time>
      </trkpt>
      <trkpt lat="49.77804" lon="4.79816">
        <ele>255</ele>
        <time>2020-11-13T07:06:40.000Z</time>
      </trkpt>
      <trkpt lat="49.77808" lon="4.79812">
        <ele>255</ele>
        <time>2020-11-13T07:06:41.000Z</time>
      </trkpt>
      <trkpt lat="49.77813" lon="4.79809">
        <ele>255</ele>
        <time>2020-11-13T07:06:42.000Z</time>
      </trkpt>
      <trkpt lat="49.77818" lon="4.79807">
        <ele>254</ele>
        <time>2020-11-13T07:06:43.000Z</time>
      </trkpt>
      <trkpt lat="49.77823" lon="4.79806">
        <ele>254</ele>
        <time>2020-11-13T07:06:44.000Z</time>
      </trkpt>
      <trkpt lat="49.77827" lon="4.79804">
        <ele>254</ele>
        <time>2020-11-13T07:06:45.000Z</time>
      </trkpt>
      <trkpt lat="49.77832" lon="4.79803">
        <ele>254</ele>
        <time>2020-11-13T07:06:46.000Z</time>
      </trkpt>
      <trkpt lat="49.77836" lon="4.79802">
        <ele>254</ele>
        <time>2020-11-13T07:06:47.000Z</time>
      </trkpt>
      <trkpt lat="49.7784" lon="4.79799">
        <ele>254</ele>
        <time>2020-11-13T07:06:48.000Z</time>
      </trkpt>
      <trkpt lat="49.77843" lon="4.79796">
        <ele>254</ele>
        <time>2020-11-13T07:06:49.000Z</time>
      </trkpt>
      <trkpt lat="49.77848" lon="4.79792">
        <ele>254</ele>
        <time>2020-11-13T07:06:50.000Z</time>
      </trkpt>
      <trkpt lat="49.77852" lon="4.79788">
        <ele>254</ele>
        <time>2020-11-13T07:06:51.000Z</time>
      </trkpt>
      <trkpt lat="49.77858" lon="4.79783">
        <ele>254</ele>
        <time>2020-11-13T07:06:52.000Z</time>
      </trkpt>
      <trkpt lat="49.77863" lon="4.79778">
        <ele>254</ele>
        <time>2020-11-13T07:06:53.000Z</time>
      </trkpt>
      <trkpt lat="49.77869" lon="4.79774">
        <ele>254</ele>
        <time>2020-11-13T07:06:54.000Z</time>
      </trkpt>
      <trkpt lat="49.77875" lon="4.79769">
        <ele>254</ele>
        <time>2020-11-13T07:06:55.000Z</time>
      </trkpt>
      <trkpt lat="49.7788" lon="4.79764">
        <ele>253</ele>
        <time>2020-11-13T07:06:56.000Z</time>
      </trkpt>
      <trkpt lat="49.77886" lon="4.79759">
        <ele>253</ele>
        <time>2020-11-13T07:06:57.000Z</time>
      </trkpt>
      <trkpt lat="49.77893" lon="4.79754">
        <ele>253</ele>
        <time>2020-11-13T07:06:58.000Z</time>
      </trkpt>
      <trkpt lat="49.77899" lon="4.79749">
        <ele>253</ele>
        <time>2020-11-13T07:06:59.000Z</time>
      </trkpt>
      <trkpt lat="49.77906" lon="4.79744">
        <ele>253</ele>
        <time>2020-11-13T07:07:00.000Z</time>
      </trkpt>
      <trkpt lat="49.77913" lon="4.79739">
        <ele>252</ele>
        <time>2020-11-13T07:07:01.000Z</time>
      </trkpt>
      <trkpt lat="49.7792" lon="4.79735">
        <ele>252</ele>
        <time>2020-11-13T07:07:02.000Z</time>
      </trkpt>
      <trkpt lat="49.77928" lon="4.79731">
        <ele>251</ele>
        <time>2020-11-13T07:07:03.000Z</time>
      </trkpt>
      <trkpt lat="49.77936" lon="4.79729">
        <ele>251</ele>
        <time>2020-11-13T07:07:04.000Z</time>
      </trkpt>
      <trkpt lat="49.77944" lon="4.79727">
        <ele>250</ele>
        <time>2020-11-13T07:07:05.000Z</time>
      </trkpt>
      <trkpt lat="49.77953" lon="4.79725">
        <ele>249</ele>
        <time>2020-11-13T07:07:06.000Z</time>
      </trkpt>
      <trkpt lat="49.7796" lon="4.79725">
        <ele>249</ele>
        <time>2020-11-13T07:07:07.000Z</time>
      </trkpt>
      <trkpt lat="49.77967" lon="4.79726">
        <ele>248</ele>
        <time>2020-11-13T07:07:08.000Z</time>
      </trkpt>
      <trkpt lat="49.77973" lon="4.79731">
        <ele>248</ele>
        <time>2020-11-13T07:07:09.000Z</time>
      </trkpt>
      <trkpt lat="49.77978" lon="4.79737">
        <ele>247</ele>
        <time>2020-11-13T07:07:10.000Z</time>
      </trkpt>
      <trkpt lat="49.77982" lon="4.79744">
        <ele>247</ele>
        <time>2020-11-13T07:07:11.000Z</time>
      </trkpt>
      <trkpt lat="49.77984" lon="4.79752">
        <ele>248</ele>
        <time>2020-11-13T07:07:12.000Z</time>
      </trkpt>
      <trkpt lat="49.77987" lon="4.79759">
        <ele>248</ele>
        <time>2020-11-13T07:07:13.000Z</time>
      </trkpt>
      <trkpt lat="49.77991" lon="4.79765">
        <ele>248</ele>
        <time>2020-11-13T07:07:14.000Z</time>
      </trkpt>
      <trkpt lat="49.77995" lon="4.7977">
        <ele>248</ele>
        <time>2020-11-13T07:07:15.000Z</time>
      </trkpt>
      <trkpt lat="49.78" lon="4.79773">
        <ele>248</ele>
        <time>2020-11-13T07:07:16.000Z</time>
      </trkpt>
      <trkpt lat="49.78005" lon="4.79776">
        <ele>248</ele>
        <time>2020-11-13T07:07:17.000Z</time>
      </trkpt>
      <trkpt lat="49.7801" lon="4.79778">
        <ele>248</ele>
        <time>2020-11-13T07:07:18.000Z</time>
      </trkpt>
      <trkpt lat="49.78016" lon="4.7978">
        <ele>248</ele>
        <time>2020-11-13T07:07:19.000Z</time>
      </trkpt>
      <trkpt lat="49.78021" lon="4.79781">
        <ele>248</ele>
        <time>2020-11-13T07:07:20.000Z</time>
      </trkpt>
      <trkpt lat="49.78026" lon="4.79782">
        <ele>248</ele>
        <time>2020-11-13T07:07:21.000Z</time>
      </trkpt>
      <trkpt lat="49.78031" lon="4.79783">
        <ele>249</ele>
        <time>2020-11-13T07:07:22.000Z</time>
      </trkpt>
      <trkpt lat="49.78037" lon="4.79782">
        <ele>249</ele>
        <time>2020-11-13T07:07:23.000Z</time>
      </trkpt>
      <trkpt lat="49.78042" lon="4.79782">
        <ele>249</ele>
        <time>2020-11-13T07:07:24.000Z</time>
      </trkpt>
      <trkpt lat="49.78047" lon="4.79782">
        <ele>249</ele>
        <time>2020-11-13T07:07:25.000Z</time>
      </trkpt>
      <trkpt lat="49.78052" lon="4.79781">
        <ele>249</ele>
        <time>2020-11-13T07:07:26.000Z</time>
      </trkpt>
      <trkpt lat="49.78058" lon="4.79781">
        <ele>249</ele>
        <time>2020-11-13T07:07:27.000Z</time>
      </trkpt>
      <trkpt lat="49.78063" lon="4.79779">
        <ele>249</ele>
        <time>2020-11-13T07:07:28.000Z</time>
      </trkpt>
      <trkpt lat="49.78068" lon="4.79778">
        <ele>249</ele>
        <time>2020-11-13T07:07:29.000Z</time>
      </trkpt>
      <trkpt lat="49.78073" lon="4.79774">
        <ele>248</ele>
        <time>2020-11-13T07:07:30.000Z</time>
      </trkpt>
      <trkpt lat="49.78079" lon="4.7977">
        <ele>248</ele>
        <time>2020-11-13T07:07:31.000Z</time>
      </trkpt>
      <trkpt lat="49.78083" lon="4.79766">
        <ele>248</ele>
        <time>2020-11-13T07:07:32.000Z</time>
      </trkpt>
      <trkpt lat="49.78088" lon="4.79759">
        <ele>248</ele>
        <time>2020-11-13T07:07:33.000Z</time>
      </trkpt>
      <trkpt lat="49.78092" lon="4.79752">
        <ele>247</ele>
        <time>2020-11-13T07:07:34.000Z</time>
      </trkpt>
      <trkpt lat="49.78097" lon="4.79743">
        <ele>247</ele>
        <time>2020-11-13T07:07:35.000Z</time>
      </trkpt>
      <trkpt lat="49.78101" lon="4.79736">
        <ele>247</ele>
        <time>2020-11-13T07:07:36.000Z</time>
      </trkpt>
      <trkpt lat="49.78105" lon="4.79729">
        <ele>247</ele>
        <time>2020-11-13T07:07:37.000Z</time>
      </trkpt>
      <trkpt lat="49.78109" lon="4.79721">
        <ele>248</ele>
        <time>2020-11-13T07:07:38.000Z</time>
      </trkpt>
      <trkpt lat="49.78112" lon="4.79714">
        <ele>248</ele>
        <time>2020-11-13T07:07:39.000Z</time>
      </trkpt>
      <trkpt lat="49.78117" lon="4.79707">
        <ele>248</ele>
        <time>2020-11-13T07:07:40.000Z</time>
      </trkpt>
      <trkpt lat="49.78122" lon="4.79702">
        <ele>248</ele>
        <time>2020-11-13T07:07:41.000Z</time>
      </trkpt>
      <trkpt lat="49.78127" lon="4.79699">
        <ele>249</ele>
        <time>2020-11-13T07:07:42.000Z</time>
      </trkpt>
      <trkpt lat="49.78131" lon="4.79696">
        <ele>249</ele>
        <time>2020-11-13T07:07:43.000Z</time>
      </trkpt>
      <trkpt lat="49.78136" lon="4.79693">
        <ele>249</ele>
        <time>2020-11-13T07:07:44.000Z</time>
      </trkpt>
      <trkpt lat="49.78141" lon="4.7969">
        <ele>249</ele>
        <time>2020-11-13T07:07:45.000Z</time>
      </trkpt>
      <trkpt lat="49.78145" lon="4.79687">
        <ele>249</ele>
        <time>2020-11-13T07:07:46.000Z</time>
      </trkpt>
      <trkpt lat="49.7815" lon="4.79684">
        <ele>249</ele>
        <time>2020-11-13T07:07:47.000Z</time>
      </trkpt>
      <trkpt lat="49.78155" lon="4.7968">
        <ele>250</ele>
        <time>2020-11-13T07:07:48.000Z</time>
      </trkpt>
      <trkpt lat="49.78161" lon="4.79676">
        <ele>250</ele>
        <time>2020-11-13T07:07:49.000Z</time>
      </trkpt>
      <trkpt lat="49.78166" lon="4.79672">
        <ele>250</ele>
        <time>2020-11-13T07:07:50.000Z</time>
      </trkpt>
      <trkpt lat="49.78171" lon="4.79668">
        <ele>250</ele>
        <time>2020-11-13T07:07:51.000Z</time>
      </trkpt>
      <trkpt lat="49.78176" lon="4.79664">
        <ele>250</ele>
        <time>2020-11-13T07:07:52.000Z</time>
      </trkpt>
      <trkpt lat="49.78181" lon="4.7966">
        <ele>251</ele>
        <time>2020-11-13T07:07:53.000Z</time>
      </trkpt>
      <trkpt lat="49.78186" lon="4.79656">
        <ele>251</ele>
        <time>2020-11-13T07:07:54.000Z</time>
      </trkpt>
      <trkpt lat="49.78191" lon="4.79651">
        <ele>251</ele>
        <time>2020-11-13T07:07:55.000Z</time>
      </trkpt>
      <trkpt lat="49.78196" lon="4.79647">
        <ele>251</ele>
        <time>2020-11-13T07:07:56.000Z</time>
      </trkpt>
      <trkpt lat="49.78201" lon="4.79642">
        <ele>251</ele>
        <time>2020-11-13T07:07:57.000Z</time>
      </trkpt>
      <trkpt lat="49.78207" lon="4.79638">
        <ele>251</ele>
        <time>2020-11-13T07:07:58.000Z</time>
      </trkpt>
      <trkpt lat="49.78212" lon="4.79633">
        <ele>251</ele>
        <time>2020-11-13T07:07:59.000Z</time>
      </trkpt>
      <trkpt lat="49.78218" lon="4.79629">
        <ele>251</ele>
        <time>2020-11-13T07:08:00.000Z</time>
      </trkpt>
      <trkpt lat="49.78223" lon="4.79625">
        <ele>251</ele>
        <time>2020-11-13T07:08:01.000Z</time>
      </trkpt>
      <trkpt lat="49.78229" lon="4.79621">
        <ele>251</ele>
        <time>2020-11-13T07:08:02.000Z</time>
      </trkpt>
      <trkpt lat="49.78235" lon="4.79617">
        <ele>251</ele>
        <time>2020-11-13T07:08:03.000Z</time>
      </trkpt>
      <trkpt lat="49.78242" lon="4.79613">
        <ele>250</ele>
        <time>2020-11-13T07:08:04.000Z</time>
      </trkpt>
      <trkpt lat="49.7825" lon="4.7961">
        <ele>250</ele>
        <time>2020-11-13T07:08:05.000Z</time>
      </trkpt>
      <trkpt lat="49.78257" lon="4.79607">
        <ele>250</ele>
        <time>2020-11-13T07:08:06.000Z</time>
      </trkpt>
      <trkpt lat="49.78264" lon="4.79604">
        <ele>249</ele>
        <time>2020-11-13T07:08:07.000Z</time>
      </trkpt>
      <trkpt lat="49.78271" lon="4.79602">
        <ele>249</ele>
        <time>2020-11-13T07:08:08.000Z</time>
      </trkpt>
      <trkpt lat="49.78279" lon="4.796">
        <ele>249</ele>
        <time>2020-11-13T07:08:09.000Z</time>
      </trkpt>
      <trkpt lat="49.78287" lon="4.79597">
        <ele>248</ele>
        <time>2020-11-13T07:08:10.000Z</time>
      </trkpt>
      <trkpt lat="49.78295" lon="4.79595">
        <ele>248</ele>
        <time>2020-11-13T07:08:11.000Z</time>
      </trkpt>
      <trkpt lat="49.78303" lon="4.79595">
        <ele>248</ele>
        <time>2020-11-13T07:08:12.000Z</time>
      </trkpt>
      <trkpt lat="49.78311" lon="4.79597">
        <ele>248</ele>
        <time>2020-11-13T07:08:13.000Z</time>
      </trkpt>
      <trkpt lat="49.78318" lon="4.79601">
        <ele>247</ele>
        <time>2020-11-13T07:08:14.000Z</time>
      </trkpt>
      <trkpt lat="49.78325" lon="4.79605">
        <ele>247</ele>
        <time>2020-11-13T07:08:15.000Z</time>
      </trkpt>
      <trkpt lat="49.78331" lon="4.7961">
        <ele>247</ele>
        <time>2020-11-13T07:08:16.000Z</time>
      </trkpt>
      <trkpt lat="49.78338" lon="4.79614">
        <ele>248</ele>
        <time>2020-11-13T07:08:17.000Z</time>
      </trkpt>
      <trkpt lat="49.78344" lon="4.79618">
        <ele>248</ele>
        <time>2020-11-13T07:08:18.000Z</time>
      </trkpt>
      <trkpt lat="49.7835" lon="4.79622">
        <ele>248</ele>
        <time>2020-11-13T07:08:19.000Z</time>
      </trkpt>
      <trkpt lat="49.78357" lon="4.79625">
        <ele>248</ele>
        <time>2020-11-13T07:08:20.000Z</time>
      </trkpt>
      <trkpt lat="49.78362" lon="4.79629">
        <ele>248</ele>
        <time>2020-11-13T07:08:21.000Z</time>
      </trkpt>
      <trkpt lat="49.78368" lon="4.79633">
        <ele>248</ele>
        <time>2020-11-13T07:08:22.000Z</time>
      </trkpt>
      <trkpt lat="49.78374" lon="4.79636">
        <ele>248</ele>
        <time>2020-11-13T07:08:23.000Z</time>
      </trkpt>
      <trkpt lat="49.7838" lon="4.7964">
        <ele>248</ele>
        <time>2020-11-13T07:08:24.000Z</time>
      </trkpt>
      <trkpt lat="49.78385" lon="4.79643">
        <ele>249</ele>
        <time>2020-11-13T07:08:25.000Z</time>
      </trkpt>
      <trkpt lat="49.7839" lon="4.79646">
        <ele>249</ele>
        <time>2020-11-13T07:08:26.000Z</time>
      </trkpt>
      <trkpt lat="49.78395" lon="4.79648">
        <ele>249</ele>
        <time>2020-11-13T07:08:27.000Z</time>
      </trkpt>
      <trkpt lat="49.784" lon="4.79651">
        <ele>249</ele>
        <time>2020-11-13T07:08:28.000Z</time>
      </trkpt>
      <trkpt lat="49.78405" lon="4.79654">
        <ele>249</ele>
        <time>2020-11-13T07:08:29.000Z</time>
      </trkpt>
      <trkpt lat="49.7841" lon="4.79656">
        <ele>249</ele>
        <time>2020-11-13T07:08:30.000Z</time>
      </trkpt>
      <trkpt lat="49.78415" lon="4.79659">
        <ele>249</ele>
        <time>2020-11-13T07:08:31.000Z</time>
      </trkpt>
      <trkpt lat="49.78421" lon="4.79661">
        <ele>250</ele>
        <time>2020-11-13T07:08:32.000Z</time>
      </trkpt>
      <trkpt lat="49.78425" lon="4.79663">
        <ele>250</ele>
        <time>2020-11-13T07:08:33.000Z</time>
      </trkpt>
      <trkpt lat="49.7843" lon="4.79665">
        <ele>250</ele>
        <time>2020-11-13T07:08:34.000Z</time>
      </trkpt>
      <trkpt lat="49.78435" lon="4.79667">
        <ele>250</ele>
        <time>2020-11-13T07:08:35.000Z</time>
      </trkpt>
      <trkpt lat="49.7844" lon="4.79669">
        <ele>251</ele>
        <time>2020-11-13T07:08:36.000Z</time>
      </trkpt>
      <trkpt lat="49.78445" lon="4.79671">
        <ele>251</ele>
        <time>2020-11-13T07:08:37.000Z</time>
      </trkpt>
      <trkpt lat="49.7845" lon="4.79672">
        <ele>251</ele>
        <time>2020-11-13T07:08:38.000Z</time>
      </trkpt>
      <trkpt lat="49.78455" lon="4.79674">
        <ele>251</ele>
        <time>2020-11-13T07:08:39.000Z</time>
      </trkpt>
      <trkpt lat="49.78459" lon="4.79676">
        <ele>252</ele>
        <time>2020-11-13T07:08:40.000Z</time>
      </trkpt>
      <trkpt lat="49.78464" lon="4.79678">
        <ele>252</ele>
        <time>2020-11-13T07:08:41.000Z</time>
      </trkpt>
      <trkpt lat="49.78469" lon="4.7968">
        <ele>252</ele>
        <time>2020-11-13T07:08:42.000Z</time>
      </trkpt>
      <trkpt lat="49.78473" lon="4.79682">
        <ele>252</ele>
        <time>2020-11-13T07:08:43.000Z</time>
      </trkpt>
      <trkpt lat="49.78478" lon="4.79684">
        <ele>253</ele>
        <time>2020-11-13T07:08:44.000Z</time>
      </trkpt>
      <trkpt lat="49.78483" lon="4.79685">
        <ele>253</ele>
        <time>2020-11-13T07:08:45.000Z</time>
      </trkpt>
      <trkpt lat="49.78488" lon="4.79687">
        <ele>253</ele>
        <time>2020-11-13T07:08:46.000Z</time>
      </trkpt>
      <trkpt lat="49.78493" lon="4.79689">
        <ele>253</ele>
        <time>2020-11-13T07:08:47.000Z</time>
      </trkpt>
      <trkpt lat="49.78497" lon="4.79691">
        <ele>254</ele>
        <time>2020-11-13T07:08:48.000Z</time>
      </trkpt>
      <trkpt lat="49.78502" lon="4.79693">
        <ele>254</ele>
        <time>2020-11-13T07:08:49.000Z</time>
      </trkpt>
      <trkpt lat="49.78507" lon="4.79696">
        <ele>254</ele>
        <time>2020-11-13T07:08:50.000Z</time>
      </trkpt>
      <trkpt lat="49.78512" lon="4.79698">
        <ele>254</ele>
        <time>2020-11-13T07:08:51.000Z</time>
      </trkpt>
      <trkpt lat="49.78517" lon="4.797">
        <ele>255</ele>
        <time>2020-11-13T07:08:52.000Z</time>
      </trkpt>
      <trkpt lat="49.78522" lon="4.79702">
        <ele>255</ele>
        <time>2020-11-13T07:08:53.000Z</time>
      </trkpt>
      <trkpt lat="49.78527" lon="4.79703">
        <ele>255</ele>
        <time>2020-11-13T07:08:54.000Z</time>
      </trkpt>
      <trkpt lat="49.78532" lon="4.79705">
        <ele>256</ele>
        <time>2020-11-13T07:08:55.000Z</time>
      </trkpt>
      <trkpt lat="49.78537" lon="4.79706">
        <ele>256</ele>
        <time>2020-11-13T07:08:56.000Z</time>
      </trkpt>
      <trkpt lat="49.78542" lon="4.79707">
        <ele>256</ele>
        <time>2020-11-13T07:08:57.000Z</time>
      </trkpt>
      <trkpt lat="49.78546" lon="4.79709">
        <ele>257</ele>
        <time>2020-11-13T07:08:58.000Z</time>
      </trkpt>
      <trkpt lat="49.78551" lon="4.79711">
        <ele>257</ele>
        <time>2020-11-13T07:08:59.000Z</time>
      </trkpt>
      <trkpt lat="49.78556" lon="4.79713">
        <ele>257</ele>
        <time>2020-11-13T07:09:00.000Z</time>
      </trkpt>
      <trkpt lat="49.7856" lon="4.79714">
        <ele>257</ele>
        <time>2020-11-13T07:09:01.000Z</time>
      </trkpt>
      <trkpt lat="49.78565" lon="4.79716">
        <ele>258</ele>
        <time>2020-11-13T07:09:02.000Z</time>
      </trkpt>
      <trkpt lat="49.7857" lon="4.79718">
        <ele>258</ele>
        <time>2020-11-13T07:09:03.000Z</time>
      </trkpt>
      <trkpt lat="49.78574" lon="4.7972">
        <ele>258</ele>
        <time>2020-11-13T07:09:04.000Z</time>
      </trkpt>
      <trkpt lat="49.78579" lon="4.79721">
        <ele>258</ele>
        <time>2020-11-13T07:09:05.000Z</time>
      </trkpt>
      <trkpt lat="49.78583" lon="4.79723">
        <ele>259</ele>
        <time>2020-11-13T07:09:06.000Z</time>
      </trkpt>
      <trkpt lat="49.78588" lon="4.79724">
        <ele>259</ele>
        <time>2020-11-13T07:09:07.000Z</time>
      </trkpt>
      <trkpt lat="49.78592" lon="4.79726">
        <ele>259</ele>
        <time>2020-11-13T07:09:08.000Z</time>
      </trkpt>
      <trkpt lat="49.78597" lon="4.79728">
        <ele>259</ele>
        <time>2020-11-13T07:09:09.000Z</time>
      </trkpt>
      <trkpt lat="49.78601" lon="4.79729">
        <ele>260</ele>
        <time>2020-11-13T07:09:10.000Z</time>
      </trkpt>
      <trkpt lat="49.78606" lon="4.79731">
        <ele>260</ele>
        <time>2020-11-13T07:09:11.000Z</time>
      </trkpt>
      <trkpt lat="49.7861" lon="4.79732">
        <ele>260</ele>
        <time>2020-11-13T07:09:12.000Z</time>
      </trkpt>
      <trkpt lat="49.78615" lon="4.79734">
        <ele>260</ele>
        <time>2020-11-13T07:09:13.000Z</time>
      </trkpt>
      <trkpt lat="49.78619" lon="4.79735">
        <ele>260</ele>
        <time>2020-11-13T07:09:14.000Z</time>
      </trkpt>
      <trkpt lat="49.78624" lon="4.79737">
        <ele>261</ele>
        <time>2020-11-13T07:09:15.000Z</time>
      </trkpt>
      <trkpt lat="49.78628" lon="4.79739">
        <ele>261</ele>
        <time>2020-11-13T07:09:16.000Z</time>
      </trkpt>
      <trkpt lat="49.78633" lon="4.79741">
        <ele>261</ele>
        <time>2020-11-13T07:09:17.000Z</time>
      </trkpt>
      <trkpt lat="49.78638" lon="4.79742">
        <ele>261</ele>
        <time>2020-11-13T07:09:18.000Z</time>
      </trkpt>
      <trkpt lat="49.78643" lon="4.79744">
        <ele>261</ele>
        <time>2020-11-13T07:09:19.000Z</time>
      </trkpt>
      <trkpt lat="49.78647" lon="4.79746">
        <ele>261</ele>
        <time>2020-11-13T07:09:20.000Z</time>
      </trkpt>
      <trkpt lat="49.78652" lon="4.79748">
        <ele>261</ele>
        <time>2020-11-13T07:09:21.000Z</time>
      </trkpt>
      <trkpt lat="49.78657" lon="4.7975">
        <ele>261</ele>
        <time>2020-11-13T07:09:22.000Z</time>
      </trkpt>
      <trkpt lat="49.78662" lon="4.79751">
        <ele>261</ele>
        <time>2020-11-13T07:09:23.000Z</time>
      </trkpt>
      <trkpt lat="49.78667" lon="4.79753">
        <ele>261</ele>
        <time>2020-11-13T07:09:24.000Z</time>
      </trkpt>
      <trkpt lat="49.78672" lon="4.79755">
        <ele>261</ele>
        <time>2020-11-13T07:09:25.000Z</time>
      </trkpt>
      <trkpt lat="49.78677" lon="4.79757">
        <ele>261</ele>
        <time>2020-11-13T07:09:26.000Z</time>
      </trkpt>
      <trkpt lat="49.78682" lon="4.79758">
        <ele>261</ele>
        <time>2020-11-13T07:09:27.000Z</time>
      </trkpt>
      <trkpt lat="49.78687" lon="4.7976">
        <ele>261</ele>
        <time>2020-11-13T07:09:28.000Z</time>
      </trkpt>
      <trkpt lat="49.78692" lon="4.79762">
        <ele>262</ele>
        <time>2020-11-13T07:09:29.000Z</time>
      </trkpt>
      <trkpt lat="49.78697" lon="4.79764">
        <ele>262</ele>
        <time>2020-11-13T07:09:30.000Z</time>
      </trkpt>
      <trkpt lat="49.78702" lon="4.79766">
        <ele>262</ele>
        <time>2020-11-13T07:09:31.000Z</time>
      </trkpt>
      <trkpt lat="49.78707" lon="4.79767">
        <ele>262</ele>
        <time>2020-11-13T07:09:32.000Z</time>
      </trkpt>
      <trkpt lat="49.78712" lon="4.79769">
        <ele>262</ele>
        <time>2020-11-13T07:09:33.000Z</time>
      </trkpt>
      <trkpt lat="49.78717" lon="4.79771">
        <ele>262</ele>
        <time>2020-11-13T07:09:34.000Z</time>
      </trkpt>
      <trkpt lat="49.78722" lon="4.79772">
        <ele>263</ele>
        <time>2020-11-13T07:09:35.000Z</time>
      </trkpt>
      <trkpt lat="49.78726" lon="4.79774">
        <ele>263</ele>
        <time>2020-11-13T07:09:36.000Z</time>
      </trkpt>
      <trkpt lat="49.78731" lon="4.79776">
        <ele>263</ele>
        <time>2020-11-13T07:09:37.000Z</time>
      </trkpt>
      <trkpt lat="49.78736" lon="4.79778">
        <ele>263</ele>
        <time>2020-11-13T07:09:38.000Z</time>
      </trkpt>
      <trkpt lat="49.78741" lon="4.7978">
        <ele>263</ele>
        <time>2020-11-13T07:09:39.000Z</time>
      </trkpt>
      <trkpt lat="49.78746" lon="4.79782">
        <ele>264</ele>
        <time>2020-11-13T07:09:40.000Z</time>
      </trkpt>
      <trkpt lat="49.78751" lon="4.79785">
        <ele>264</ele>
        <time>2020-11-13T07:09:41.000Z</time>
      </trkpt>
      <trkpt lat="49.78756" lon="4.79787">
        <ele>264</ele>
        <time>2020-11-13T07:09:42.000Z</time>
      </trkpt>
      <trkpt lat="49.78762" lon="4.79789">
        <ele>264</ele>
        <time>2020-11-13T07:09:43.000Z</time>
      </trkpt>
      <trkpt lat="49.78767" lon="4.79791">
        <ele>264</ele>
        <time>2020-11-13T07:09:44.000Z</time>
      </trkpt>
      <trkpt lat="49.78773" lon="4.79794">
        <ele>264</ele>
        <time>2020-11-13T07:09:45.000Z</time>
      </trkpt>
      <trkpt lat="49.78778" lon="4.79796">
        <ele>264</ele>
        <time>2020-11-13T07:09:46.000Z</time>
      </trkpt>
      <trkpt lat="49.78784" lon="4.79799">
        <ele>264</ele>
        <time>2020-11-13T07:09:47.000Z</time>
      </trkpt>
      <trkpt lat="49.78789" lon="4.79802">
        <ele>264</ele>
        <time>2020-11-13T07:09:48.000Z</time>
      </trkpt>
      <trkpt lat="49.78795" lon="4.79804">
        <ele>264</ele>
        <time>2020-11-13T07:09:49.000Z</time>
      </trkpt>
      <trkpt lat="49.788" lon="4.79807">
        <ele>264</ele>
        <time>2020-11-13T07:09:50.000Z</time>
      </trkpt>
      <trkpt lat="49.78806" lon="4.7981">
        <ele>264</ele>
        <time>2020-11-13T07:09:51.000Z</time>
      </trkpt>
      <trkpt lat="49.78811" lon="4.79813">
        <ele>265</ele>
        <time>2020-11-13T07:09:52.000Z</time>
      </trkpt>
      <trkpt lat="49.78817" lon="4.79816">
        <ele>265</ele>
        <time>2020-11-13T07:09:53.000Z</time>
      </trkpt>
      <trkpt lat="49.78823" lon="4.79819">
        <ele>265</ele>
        <time>2020-11-13T07:09:54.000Z</time>
      </trkpt>
      <trkpt lat="49.78828" lon="4.79822">
        <ele>265</ele>
        <time>2020-11-13T07:09:55.000Z</time>
      </trkpt>
      <trkpt lat="49.78834" lon="4.79826">
        <ele>265</ele>
        <time>2020-11-13T07:09:56.000Z</time>
      </trkpt>
      <trkpt lat="49.7884" lon="4.79829">
        <ele>265</ele>
        <time>2020-11-13T07:09:57.000Z</time>
      </trkpt>
      <trkpt lat="49.78845" lon="4.79833">
        <ele>265</ele>
        <time>2020-11-13T07:09:58.000Z</time>
      </trkpt>
      <trkpt lat="49.78851" lon="4.79836">
        <ele>265</ele>
        <time>2020-11-13T07:09:59.000Z</time>
      </trkpt>
      <trkpt lat="49.78857" lon="4.7984">
        <ele>265</ele>
        <time>2020-11-13T07:10:00.000Z</time>
      </trkpt>
      <trkpt lat="49.78862" lon="4.79844">
        <ele>265</ele>
        <time>2020-11-13T07:10:01.000Z</time>
      </trkpt>
      <trkpt lat="49.78868" lon="4.79847">
        <ele>265</ele>
        <time>2020-11-13T07:10:02.000Z</time>
      </trkpt>
      <trkpt lat="49.78874" lon="4.79851">
        <ele>265</ele>
        <time>2020-11-13T07:10:03.000Z</time>
      </trkpt>
      <trkpt lat="49.78879" lon="4.79855">
        <ele>265</ele>
        <time>2020-11-13T07:10:04.000Z</time>
      </trkpt>
      <trkpt lat="49.78885" lon="4.79859">
        <ele>265</ele>
        <time>2020-11-13T07:10:05.000Z</time>
      </trkpt>
      <trkpt lat="49.78891" lon="4.79863">
        <ele>265</ele>
        <time>2020-11-13T07:10:06.000Z</time>
      </trkpt>
      <trkpt lat="49.78896" lon="4.79867">
        <ele>265</ele>
        <time>2020-11-13T07:10:07.000Z</time>
      </trkpt>
      <trkpt lat="49.78902" lon="4.79871">
        <ele>265</ele>
        <time>2020-11-13T07:10:08.000Z</time>
      </trkpt>
      <trkpt lat="49.78908" lon="4.79875">
        <ele>265</ele>
        <time>2020-11-13T07:10:09.000Z</time>
      </trkpt>
      <trkpt lat="49.78913" lon="4.7988">
        <ele>265</ele>
        <time>2020-11-13T07:10:10.000Z</time>
      </trkpt>
      <trkpt lat="49.78919" lon="4.79884">
        <ele>265</ele>
        <time>2020-11-13T07:10:11.000Z</time>
      </trkpt>
      <trkpt lat="49.78925" lon="4.79889">
        <ele>265</ele>
        <time>2020-11-13T07:10:12.000Z</time>
      </trkpt>
      <trkpt lat="49.7893" lon="4.79894">
        <ele>265</ele>
        <time>2020-11-13T07:10:13.000Z</time>
      </trkpt>
      <trkpt lat="49.78936" lon="4.79899">
        <ele>265</ele>
        <time>2020-11-13T07:10:14.000Z</time>
      </trkpt>
      <trkpt lat="49.78941" lon="4.79904">
        <ele>265</ele>
        <time>2020-11-13T07:10:15.000Z</time>
      </trkpt>
      <trkpt lat="49.78947" lon="4.79908">
        <ele>265</ele>
        <time>2020-11-13T07:10:16.000Z</time>
      </trkpt>
      <trkpt lat="49.78952" lon="4.79913">
        <ele>265</ele>
        <time>2020-11-13T07:10:17.000Z</time>
      </trkpt>
      <trkpt lat="49.78958" lon="4.79918">
        <ele>265</ele>
        <time>2020-11-13T07:10:18.000Z</time>
      </trkpt>
      <trkpt lat="49.78963" lon="4.79923">
        <ele>265</ele>
        <time>2020-11-13T07:10:19.000Z</time>
      </trkpt>
      <trkpt lat="49.78969" lon="4.79928">
        <ele>264</ele>
        <time>2020-11-13T07:10:20.000Z</time>
      </trkpt>
      <trkpt lat="49.78974" lon="4.79933">
        <ele>264</ele>
        <time>2020-11-13T07:10:21.000Z</time>
      </trkpt>
      <trkpt lat="49.78979" lon="4.79938">
        <ele>264</ele>
        <time>2020-11-13T07:10:22.000Z</time>
      </trkpt>
      <trkpt lat="49.78985" lon="4.79943">
        <ele>264</ele>
        <time>2020-11-13T07:10:23.000Z</time>
      </trkpt>
      <trkpt lat="49.7899" lon="4.79948">
        <ele>264</ele>
        <time>2020-11-13T07:10:24.000Z</time>
      </trkpt>
      <trkpt lat="49.78996" lon="4.79953">
        <ele>264</ele>
        <time>2020-11-13T07:10:25.000Z</time>
      </trkpt>
      <trkpt lat="49.79002" lon="4.79958">
        <ele>263</ele>
        <time>2020-11-13T07:10:26.000Z</time>
      </trkpt>
      <trkpt lat="49.79007" lon="4.79964">
        <ele>263</ele>
        <time>2020-11-13T07:10:27.000Z</time>
      </trkpt>
      <trkpt lat="49.79013" lon="4.79969">
        <ele>263</ele>
        <time>2020-11-13T07:10:28.000Z</time>
      </trkpt>
      <trkpt lat="49.79019" lon="4.79973">
        <ele>263</ele>
        <time>2020-11-13T07:10:29.000Z</time>
      </trkpt>
      <trkpt lat="49.79024" lon="4.79979">
        <ele>263</ele>
        <time>2020-11-13T07:10:30.000Z</time>
      </trkpt>
      <trkpt lat="49.7903" lon="4.79984">
        <ele>263</ele>
        <time>2020-11-13T07:10:31.000Z</time>
      </trkpt>
      <trkpt lat="49.79036" lon="4.79989">
        <ele>263</ele>
        <time>2020-11-13T07:10:32.000Z</time>
      </trkpt>
      <trkpt lat="49.79041" lon="4.79994">
        <ele>263</ele>
        <time>2020-11-13T07:10:33.000Z</time>
      </trkpt>
      <trkpt lat="49.79047" lon="4.79999">
        <ele>263</ele>
        <time>2020-11-13T07:10:34.000Z</time>
      </trkpt>
      <trkpt lat="49.79052" lon="4.80004">
        <ele>262</ele>
        <time>2020-11-13T07:10:35.000Z</time>
      </trkpt>
      <trkpt lat="49.79058" lon="4.8001">
        <ele>262</ele>
        <time>2020-11-13T07:10:36.000Z</time>
      </trkpt>
      <trkpt lat="49.79064" lon="4.80015">
        <ele>262</ele>
        <time>2020-11-13T07:10:37.000Z</time>
      </trkpt>
      <trkpt lat="49.7907" lon="4.8002">
        <ele>262</ele>
        <time>2020-11-13T07:10:38.000Z</time>
      </trkpt>
      <trkpt lat="49.79075" lon="4.80024">
        <ele>262</ele>
        <time>2020-11-13T07:10:39.000Z</time>
      </trkpt>
      <trkpt lat="49.79081" lon="4.80029">
        <ele>262</ele>
        <time>2020-11-13T07:10:40.000Z</time>
      </trkpt>
      <trkpt lat="49.79086" lon="4.80034">
        <ele>262</ele>
        <time>2020-11-13T07:10:41.000Z</time>
      </trkpt>
      <trkpt lat="49.79092" lon="4.80039">
        <ele>262</ele>
        <time>2020-11-13T07:10:42.000Z</time>
      </trkpt>
      <trkpt lat="49.79097" lon="4.80044">
        <ele>262</ele>
        <time>2020-11-13T07:10:43.000Z</time>
      </trkpt>
      <trkpt lat="49.79103" lon="4.80048">
        <ele>262</ele>
        <time>2020-11-13T07:10:44.000Z</time>
      </trkpt>
      <trkpt lat="49.79109" lon="4.80051">
        <ele>262</ele>
        <time>2020-11-13T07:10:45.000Z</time>
      </trkpt>
      <trkpt lat="49.79115" lon="4.80055">
        <ele>262</ele>
        <time>2020-11-13T07:10:46.000Z</time>
      </trkpt>
      <trkpt lat="49.79121" lon="4.80059">
        <ele>262</ele>
        <time>2020-11-13T07:10:47.000Z</time>
      </trkpt>
      <trkpt lat="49.79127" lon="4.80063">
        <ele>262</ele>
        <time>2020-11-13T07:10:48.000Z</time>
      </trkpt>
      <trkpt lat="49.79132" lon="4.80067">
        <ele>263</ele>
        <time>2020-11-13T07:10:49.000Z</time>
      </trkpt>
      <trkpt lat="49.79138" lon="4.8007">
        <ele>263</ele>
        <time>2020-11-13T07:10:50.000Z</time>
      </trkpt>
      <trkpt lat="49.79144" lon="4.80072">
        <ele>263</ele>
        <time>2020-11-13T07:10:51.000Z</time>
      </trkpt>
      <trkpt lat="49.7915" lon="4.80072">
        <ele>263</ele>
        <time>2020-11-13T07:10:52.000Z</time>
      </trkpt>
      <trkpt lat="49.79156" lon="4.80071">
        <ele>263</ele>
        <time>2020-11-13T07:10:53.000Z</time>
      </trkpt>
      <trkpt lat="49.79162" lon="4.8007">
        <ele>263</ele>
        <time>2020-11-13T07:10:54.000Z</time>
      </trkpt>
      <trkpt lat="49.79169" lon="4.80069">
        <ele>263</ele>
        <time>2020-11-13T07:10:55.000Z</time>
      </trkpt>
      <trkpt lat="49.79175" lon="4.80068">
        <ele>263</ele>
        <time>2020-11-13T07:10:56.000Z</time>
      </trkpt>
      <trkpt lat="49.7918" lon="4.80067">
        <ele>263</ele>
        <time>2020-11-13T07:10:57.000Z</time>
      </trkpt>
      <trkpt lat="49.79185" lon="4.80067">
        <ele>263</ele>
        <time>2020-11-13T07:10:58.000Z</time>
      </trkpt>
      <trkpt lat="49.7919" lon="4.80066">
        <ele>263</ele>
        <time>2020-11-13T07:10:59.000Z</time>
      </trkpt>
      <trkpt lat="49.79195" lon="4.80064">
        <ele>263</ele>
        <time>2020-11-13T07:11:00.000Z</time>
      </trkpt>
      <trkpt lat="49.792" lon="4.80064">
        <ele>264</ele>
        <time>2020-11-13T07:11:01.000Z</time>
      </trkpt>
      <trkpt lat="49.79205" lon="4.80063">
        <ele>264</ele>
        <time>2020-11-13T07:11:02.000Z</time>
      </trkpt>
      <trkpt lat="49.79209" lon="4.80062">
        <ele>264</ele>
        <time>2020-11-13T07:11:03.000Z</time>
      </trkpt>
      <trkpt lat="49.79212" lon="4.80062">
        <ele>264</ele>
        <time>2020-11-13T07:11:04.000Z</time>
      </trkpt>
      <trkpt lat="49.79215" lon="4.80061">
        <ele>265</ele>
        <time>2020-11-13T07:11:05.000Z</time>
      </trkpt>
      <trkpt lat="49.79217" lon="4.80061">
        <ele>265</ele>
        <time>2020-11-13T07:11:06.000Z</time>
      </trkpt>
      <trkpt lat="49.7922" lon="4.8006">
        <ele>265</ele>
        <time>2020-11-13T07:11:07.000Z</time>
      </trkpt>
      <trkpt lat="49.79223" lon="4.8006">
        <ele>265</ele>
        <time>2020-11-13T07:11:08.000Z</time>
      </trkpt>
      <trkpt lat="49.79226" lon="4.80059">
        <ele>265</ele>
        <time>2020-11-13T07:11:09.000Z</time>
      </trkpt>
      <trkpt lat="49.79229" lon="4.80059">
        <ele>265</ele>
        <time>2020-11-13T07:11:10.000Z</time>
      </trkpt>
      <trkpt lat="49.79232" lon="4.80059">
        <ele>266</ele>
        <time>2020-11-13T07:11:11.000Z</time>
      </trkpt>
      <trkpt lat="49.79235" lon="4.80058">
        <ele>266</ele>
        <time>2020-11-13T07:11:12.000Z</time>
      </trkpt>
      <trkpt lat="49.79238" lon="4.80058">
        <ele>266</ele>
        <time>2020-11-13T07:11:13.000Z</time>
      </trkpt>
      <trkpt lat="49.79242" lon="4.80058">
        <ele>266</ele>
        <time>2020-11-13T07:11:14.000Z</time>
      </trkpt>
      <trkpt lat="49.79244" lon="4.80058">
        <ele>266</ele>
        <time>2020-11-13T07:11:15.000Z</time>
      </trkpt>
      <trkpt lat="49.79247" lon="4.80058">
        <ele>267</ele>
        <time>2020-11-13T07:11:16.000Z</time>
      </trkpt>
      <trkpt lat="49.79249" lon="4.80056">
        <ele>267</ele>
        <time>2020-11-13T07:11:17.000Z</time>
      </trkpt>
      <trkpt lat="49.79252" lon="4.80055">
        <ele>267</ele>
        <time>2020-11-13T07:11:18.000Z</time>
      </trkpt>
      <trkpt lat="49.79253" lon="4.80054">
        <ele>267</ele>
        <time>2020-11-13T07:11:19.000Z</time>
      </trkpt>
      <trkpt lat="49.79255" lon="4.80054">
        <ele>267</ele>
        <time>2020-11-13T07:11:20.000Z</time>
      </trkpt>
      <trkpt lat="49.79257" lon="4.80053">
        <ele>268</ele>
        <time>2020-11-13T07:11:21.000Z</time>
      </trkpt>
      <trkpt lat="49.79259" lon="4.80053">
        <ele>268</ele>
        <time>2020-11-13T07:11:22.000Z</time>
      </trkpt>
      <trkpt lat="49.7926" lon="4.80052">
        <ele>268</ele>
        <time>2020-11-13T07:11:23.000Z</time>
      </trkpt>
      <trkpt lat="49.79263" lon="4.80052">
        <ele>268</ele>
        <time>2020-11-13T07:11:24.000Z</time>
      </trkpt>
      <trkpt lat="49.79265" lon="4.80052">
        <ele>268</ele>
        <time>2020-11-13T07:11:25.000Z</time>
      </trkpt>
      <trkpt lat="49.79267" lon="4.80051">
        <ele>269</ele>
        <time>2020-11-13T07:11:26.000Z</time>
      </trkpt>
      <trkpt lat="49.79269" lon="4.80051">
        <ele>269</ele>
        <time>2020-11-13T07:11:27.000Z</time>
      </trkpt>
      <trkpt lat="49.79272" lon="4.8005">
        <ele>269</ele>
        <time>2020-11-13T07:11:28.000Z</time>
      </trkpt>
      <trkpt lat="49.79275" lon="4.8005">
        <ele>269</ele>
        <time>2020-11-13T07:11:29.000Z</time>
      </trkpt>
      <trkpt lat="49.79278" lon="4.8005">
        <ele>269</ele>
        <time>2020-11-13T07:11:30.000Z</time>
      </trkpt>
      <trkpt lat="49.7928" lon="4.80049">
        <ele>269</ele>
        <time>2020-11-13T07:11:31.000Z</time>
      </trkpt>
      <trkpt lat="49.79281" lon="4.80048">
        <ele>269</ele>
        <time>2020-11-13T07:11:32.000Z</time>
      </trkpt>
      <trkpt lat="49.79283" lon="4.80048">
        <ele>270</ele>
        <time>2020-11-13T07:11:33.000Z</time>
      </trkpt>
      <trkpt lat="49.79285" lon="4.80047">
        <ele>270</ele>
        <time>2020-11-13T07:11:34.000Z</time>
      </trkpt>
      <trkpt lat="49.79287" lon="4.80047">
        <ele>270</ele>
        <time>2020-11-13T07:11:35.000Z</time>
      </trkpt>
      <trkpt lat="49.7929" lon="4.80047">
        <ele>270</ele>
        <time>2020-11-13T07:11:36.000Z</time>
      </trkpt>
      <trkpt lat="49.79292" lon="4.80047">
        <ele>270</ele>
        <time>2020-11-13T07:11:37.000Z</time>
      </trkpt>
      <trkpt lat="49.79295" lon="4.80047">
        <ele>270</ele>
        <time>2020-11-13T07:11:38.000Z</time>
      </trkpt>
      <trkpt lat="49.79298" lon="4.80046">
        <ele>270</ele>
        <time>2020-11-13T07:11:39.000Z</time>
      </trkpt>
      <trkpt lat="49.79301" lon="4.80046">
        <ele>271</ele>
        <time>2020-11-13T07:11:40.000Z</time>
      </trkpt>
      <trkpt lat="49.79303" lon="4.80045">
        <ele>271</ele>
        <time>2020-11-13T07:11:41.000Z</time>
      </trkpt>
      <trkpt lat="49.79305" lon="4.80043">
        <ele>271</ele>
        <time>2020-11-13T07:11:42.000Z</time>
      </trkpt>
      <trkpt lat="49.79307" lon="4.80041">
        <ele>271</ele>
        <time>2020-11-13T07:11:43.000Z</time>
      </trkpt>
      <trkpt lat="49.79309" lon="4.80037">
        <ele>271</ele>
        <time>2020-11-13T07:11:44.000Z</time>
      </trkpt>
      <trkpt lat="49.79311" lon="4.80032">
        <ele>272</ele>
        <time>2020-11-13T07:11:45.000Z</time>
      </trkpt>
      <trkpt lat="49.79312" lon="4.80028">
        <ele>272</ele>
        <time>2020-11-13T07:11:46.000Z</time>
      </trkpt>
      <trkpt lat="49.79314" lon="4.80024">
        <ele>272</ele>
        <time>2020-11-13T07:11:47.000Z</time>
      </trkpt>
      <trkpt lat="49.79316" lon="4.80019">
        <ele>272</ele>
        <time>2020-11-13T07:11:48.000Z</time>
      </trkpt>
      <trkpt lat="49.79317" lon="4.80014">
        <ele>272</ele>
        <time>2020-11-13T07:11:49.000Z</time>
      </trkpt>
      <trkpt lat="49.79319" lon="4.80009">
        <ele>272</ele>
        <time>2020-11-13T07:11:50.000Z</time>
      </trkpt>
      <trkpt lat="49.79322" lon="4.80004">
        <ele>272</ele>
        <time>2020-11-13T07:11:51.000Z</time>
      </trkpt>
      <trkpt lat="49.79324" lon="4.8">
        <ele>272</ele>
        <time>2020-11-13T07:11:52.000Z</time>
      </trkpt>
      <trkpt lat="49.79326" lon="4.79995">
        <ele>272</ele>
        <time>2020-11-13T07:11:53.000Z</time>
      </trkpt>
      <trkpt lat="49.79328" lon="4.7999">
        <ele>272</ele>
        <time>2020-11-13T07:11:54.000Z</time>
      </trkpt>
      <trkpt lat="49.7933" lon="4.79984">
        <ele>272</ele>
        <time>2020-11-13T07:11:55.000Z</time>
      </trkpt>
      <trkpt lat="49.79332" lon="4.79979">
        <ele>273</ele>
        <time>2020-11-13T07:11:56.000Z</time>
      </trkpt>
      <trkpt lat="49.79333" lon="4.79975">
        <ele>273</ele>
        <time>2020-11-13T07:11:57.000Z</time>
      </trkpt>
      <trkpt lat="49.79334" lon="4.79971">
        <ele>273</ele>
        <time>2020-11-13T07:11:58.000Z</time>
      </trkpt>
      <trkpt lat="49.79335" lon="4.79967">
        <ele>273</ele>
        <time>2020-11-13T07:11:59.000Z</time>
      </trkpt>
      <trkpt lat="49.79336" lon="4.79963">
        <ele>273</ele>
        <time>2020-11-13T07:12:00.000Z</time>
      </trkpt>
      <trkpt lat="49.79337" lon="4.79959">
        <ele>273</ele>
        <time>2020-11-13T07:12:01.000Z</time>
      </trkpt>
      <trkpt lat="49.79339" lon="4.79954">
        <ele>273</ele>
        <time>2020-11-13T07:12:02.000Z</time>
      </trkpt>
      <trkpt lat="49.7934" lon="4.79949">
        <ele>274</ele>
        <time>2020-11-13T07:12:03.000Z</time>
      </trkpt>
      <trkpt lat="49.79341" lon="4.79945">
        <ele>274</ele>
        <time>2020-11-13T07:12:04.000Z</time>
      </trkpt>
      <trkpt lat="49.79343" lon="4.79942">
        <ele>274</ele>
        <time>2020-11-13T07:12:05.000Z</time>
      </trkpt>
      <trkpt lat="49.79345" lon="4.79938">
        <ele>274</ele>
        <time>2020-11-13T07:12:06.000Z</time>
      </trkpt>
      <trkpt lat="49.79347" lon="4.79933">
        <ele>274</ele>
        <time>2020-11-13T07:12:07.000Z</time>
      </trkpt>
      <trkpt lat="49.79349" lon="4.79929">
        <ele>274</ele>
        <time>2020-11-13T07:12:08.000Z</time>
      </trkpt>
      <trkpt lat="49.7935" lon="4.79923">
        <ele>275</ele>
        <time>2020-11-13T07:12:09.000Z</time>
      </trkpt>
      <trkpt lat="49.79352" lon="4.79919">
        <ele>275</ele>
        <time>2020-11-13T07:12:10.000Z</time>
      </trkpt>
      <trkpt lat="49.79353" lon="4.79914">
        <ele>275</ele>
        <time>2020-11-13T07:12:11.000Z</time>
      </trkpt>
      <trkpt lat="49.79355" lon="4.7991">
        <ele>275</ele>
        <time>2020-11-13T07:12:12.000Z</time>
      </trkpt>
      <trkpt lat="49.79356" lon="4.79905">
        <ele>275</ele>
        <time>2020-11-13T07:12:13.000Z</time>
      </trkpt>
      <trkpt lat="49.79357" lon="4.799">
        <ele>275</ele>
        <time>2020-11-13T07:12:14.000Z</time>
      </trkpt>
      <trkpt lat="49.7936" lon="4.79896">
        <ele>275</ele>
        <time>2020-11-13T07:12:15.000Z</time>
      </trkpt>
      <trkpt lat="49.79362" lon="4.79894">
        <ele>275</ele>
        <time>2020-11-13T07:12:16.000Z</time>
      </trkpt>
      <trkpt lat="49.79365" lon="4.79891">
        <ele>275</ele>
        <time>2020-11-13T07:12:17.000Z</time>
      </trkpt>
      <trkpt lat="49.79367" lon="4.79887">
        <ele>275</ele>
        <time>2020-11-13T07:12:18.000Z</time>
      </trkpt>
      <trkpt lat="49.7937" lon="4.79884">
        <ele>275</ele>
        <time>2020-11-13T07:12:19.000Z</time>
      </trkpt>
      <trkpt lat="49.79371" lon="4.79881">
        <ele>275</ele>
        <time>2020-11-13T07:12:20.000Z</time>
      </trkpt>
      <trkpt lat="49.79373" lon="4.79877">
        <ele>275</ele>
        <time>2020-11-13T07:12:21.000Z</time>
      </trkpt>
      <trkpt lat="49.79374" lon="4.79873">
        <ele>275</ele>
        <time>2020-11-13T07:12:22.000Z</time>
      </trkpt>
      <trkpt lat="49.79375" lon="4.7987">
        <ele>275</ele>
        <time>2020-11-13T07:12:23.000Z</time>
      </trkpt>
      <trkpt lat="49.79377" lon="4.79866">
        <ele>276</ele>
        <time>2020-11-13T07:12:24.000Z</time>
      </trkpt>
      <trkpt lat="49.79378" lon="4.79862">
        <ele>276</ele>
        <time>2020-11-13T07:12:25.000Z</time>
      </trkpt>
      <trkpt lat="49.7938" lon="4.79859">
        <ele>276</ele>
        <time>2020-11-13T07:12:26.000Z</time>
      </trkpt>
      <trkpt lat="49.79382" lon="4.79857">
        <ele>276</ele>
        <time>2020-11-13T07:12:27.000Z</time>
      </trkpt>
      <trkpt lat="49.79384" lon="4.79855">
        <ele>277</ele>
        <time>2020-11-13T07:12:28.000Z</time>
      </trkpt>
      <trkpt lat="49.79386" lon="4.79853">
        <ele>277</ele>
        <time>2020-11-13T07:12:29.000Z</time>
      </trkpt>
      <trkpt lat="49.79387" lon="4.79851">
        <ele>277</ele>
        <time>2020-11-13T07:12:30.000Z</time>
      </trkpt>
      <trkpt lat="49.79388" lon="4.79849">
        <ele>277</ele>
        <time>2020-11-13T07:12:31.000Z</time>
      </trkpt>
      <trkpt lat="49.7939" lon="4.79849">
        <ele>277</ele>
        <time>2020-11-13T07:12:32.000Z</time>
      </trkpt>
      <trkpt lat="49.79391" lon="4.79848">
        <ele>277</ele>
        <time>2020-11-13T07:12:33.000Z</time>
      </trkpt>
      <trkpt lat="49.79393" lon="4.79848">
        <ele>277</ele>
        <time>2020-11-13T07:12:34.000Z</time>
      </trkpt>
      <trkpt lat="49.79395" lon="4.79847">
        <ele>277</ele>
        <time>2020-11-13T07:12:35.000Z</time>
      </trkpt>
      <trkpt lat="49.79398" lon="4.79847">
        <ele>277</ele>
        <time>2020-11-13T07:12:36.000Z</time>
      </trkpt>
      <trkpt lat="49.79399" lon="4.79847">
        <ele>277</ele>
        <time>2020-11-13T07:12:37.000Z</time>
      </trkpt>
      <trkpt lat="49.79401" lon="4.79846">
        <ele>277</ele>
        <time>2020-11-13T07:12:38.000Z</time>
      </trkpt>
      <trkpt lat="49.79404" lon="4.79846">
        <ele>277</ele>
        <time>2020-11-13T07:12:39.000Z</time>
      </trkpt>
      <trkpt lat="49.79406" lon="4.79846">
        <ele>277</ele>
        <time>2020-11-13T07:12:40.000Z</time>
      </trkpt>
      <trkpt lat="49.79408" lon="4.79846">
        <ele>277</ele>
        <time>2020-11-13T07:12:41.000Z</time>
      </trkpt>
      <trkpt lat="49.7941" lon="4.79847">
        <ele>276</ele>
        <time>2020-11-13T07:12:42.000Z</time>
      </trkpt>
      <trkpt lat="49.79411" lon="4.79847">
        <ele>277</ele>
        <time>2020-11-13T07:12:43.000Z</time>
      </trkpt>
      <trkpt lat="49.79413" lon="4.79847">
        <ele>276</ele>
        <time>2020-11-13T07:12:44.000Z</time>
      </trkpt>
      <trkpt lat="49.79415" lon="4.79848">
        <ele>276</ele>
        <time>2020-11-13T07:12:45.000Z</time>
      </trkpt>
      <trkpt lat="49.79417" lon="4.79848">
        <ele>276</ele>
        <time>2020-11-13T07:12:46.000Z</time>
      </trkpt>
      <trkpt lat="49.79419" lon="4.79848">
        <ele>277</ele>
        <time>2020-11-13T07:12:47.000Z</time>
      </trkpt>
      <trkpt lat="49.79422" lon="4.79847">
        <ele>277</ele>
        <time>2020-11-13T07:12:48.000Z</time>
      </trkpt>
      <trkpt lat="49.79424" lon="4.79847">
        <ele>277</ele>
        <time>2020-11-13T07:12:49.000Z</time>
      </trkpt>
      <trkpt lat="49.79427" lon="4.79847">
        <ele>277</ele>
        <time>2020-11-13T07:12:50.000Z</time>
      </trkpt>
      <trkpt lat="49.79429" lon="4.79847">
        <ele>277</ele>
        <time>2020-11-13T07:12:51.000Z</time>
      </trkpt>
      <trkpt lat="49.79432" lon="4.79847">
        <ele>277</ele>
        <time>2020-11-13T07:12:52.000Z</time>
      </trkpt>
      <trkpt lat="49.79434" lon="4.79847">
        <ele>277</ele>
        <time>2020-11-13T07:12:53.000Z</time>
      </trkpt>
      <trkpt lat="49.79437" lon="4.79847">
        <ele>277</ele>
        <time>2020-11-13T07:12:54.000Z</time>
      </trkpt>
      <trkpt lat="49.7944" lon="4.79847">
        <ele>278</ele>
        <time>2020-11-13T07:12:55.000Z</time>
      </trkpt>
      <trkpt lat="49.79443" lon="4.79847">
        <ele>278</ele>
        <time>2020-11-13T07:12:56.000Z</time>
      </trkpt>
      <trkpt lat="49.79445" lon="4.79846">
        <ele>278</ele>
        <time>2020-11-13T07:12:57.000Z</time>
      </trkpt>
      <trkpt lat="49.79448" lon="4.79846">
        <ele>278</ele>
        <time>2020-11-13T07:12:58.000Z</time>
      </trkpt>
      <trkpt lat="49.79451" lon="4.79845">
        <ele>279</ele>
        <time>2020-11-13T07:12:59.000Z</time>
      </trkpt>
      <trkpt lat="49.79454" lon="4.79845">
        <ele>279</ele>
        <time>2020-11-13T07:13:00.000Z</time>
      </trkpt>
      <trkpt lat="49.79457" lon="4.79845">
        <ele>279</ele>
        <time>2020-11-13T07:13:01.000Z</time>
      </trkpt>
      <trkpt lat="49.7946" lon="4.79845">
        <ele>279</ele>
        <time>2020-11-13T07:13:02.000Z</time>
      </trkpt>
      <trkpt lat="49.79463" lon="4.79846">
        <ele>280</ele>
        <time>2020-11-13T07:13:03.000Z</time>
      </trkpt>
      <trkpt lat="49.79466" lon="4.79846">
        <ele>280</ele>
        <time>2020-11-13T07:13:04.000Z</time>
      </trkpt>
      <trkpt lat="49.79468" lon="4.79846">
        <ele>280</ele>
        <time>2020-11-13T07:13:05.000Z</time>
      </trkpt>
      <trkpt lat="49.79471" lon="4.79845">
        <ele>280</ele>
        <time>2020-11-13T07:13:06.000Z</time>
      </trkpt>
      <trkpt lat="49.79473" lon="4.79844">
        <ele>280</ele>
        <time>2020-11-13T07:13:07.000Z</time>
      </trkpt>
      <trkpt lat="49.79476" lon="4.79843">
        <ele>281</ele>
        <time>2020-11-13T07:13:08.000Z</time>
      </trkpt>
      <trkpt lat="49.79479" lon="4.79843">
        <ele>281</ele>
        <time>2020-11-13T07:13:09.000Z</time>
      </trkpt>
      <trkpt lat="49.79482" lon="4.79843">
        <ele>281</ele>
        <time>2020-11-13T07:13:10.000Z</time>
      </trkpt>
      <trkpt lat="49.79485" lon="4.79842">
        <ele>281</ele>
        <time>2020-11-13T07:13:11.000Z</time>
      </trkpt>
      <trkpt lat="49.79487" lon="4.79842">
        <ele>281</ele>
        <time>2020-11-13T07:13:12.000Z</time>
      </trkpt>
      <trkpt lat="49.7949" lon="4.79842">
        <ele>282</ele>
        <time>2020-11-13T07:13:13.000Z</time>
      </trkpt>
      <trkpt lat="49.79493" lon="4.79842">
        <ele>282</ele>
        <time>2020-11-13T07:13:14.000Z</time>
      </trkpt>
      <trkpt lat="49.79496" lon="4.79842">
        <ele>282</ele>
        <time>2020-11-13T07:13:15.000Z</time>
      </trkpt>
      <trkpt lat="49.79498" lon="4.79842">
        <ele>282</ele>
        <time>2020-11-13T07:13:16.000Z</time>
      </trkpt>
      <trkpt lat="49.795" lon="4.79841">
        <ele>283</ele>
        <time>2020-11-13T07:13:17.000Z</time>
      </trkpt>
      <trkpt lat="49.79503" lon="4.79841">
        <ele>283</ele>
        <time>2020-11-13T07:13:18.000Z</time>
      </trkpt>
      <trkpt lat="49.79506" lon="4.79841">
        <ele>283</ele>
        <time>2020-11-13T07:13:19.000Z</time>
      </trkpt>
      <trkpt lat="49.79509" lon="4.79841">
        <ele>283</ele>
        <time>2020-11-13T07:13:20.000Z</time>
      </trkpt>
      <trkpt lat="49.79512" lon="4.79841">
        <ele>284</ele>
        <time>2020-11-13T07:13:21.000Z</time>
      </trkpt>
      <trkpt lat="49.79515" lon="4.79841">
        <ele>284</ele>
        <time>2020-11-13T07:13:22.000Z</time>
      </trkpt>
      <trkpt lat="49.79517" lon="4.79841">
        <ele>284</ele>
        <time>2020-11-13T07:13:23.000Z</time>
      </trkpt>
      <trkpt lat="49.7952" lon="4.7984">
        <ele>284</ele>
        <time>2020-11-13T07:13:24.000Z</time>
      </trkpt>
      <trkpt lat="49.79523" lon="4.7984">
        <ele>284</ele>
        <time>2020-11-13T07:13:25.000Z</time>
      </trkpt>
      <trkpt lat="49.79525" lon="4.7984">
        <ele>284</ele>
        <time>2020-11-13T07:13:26.000Z</time>
      </trkpt>
      <trkpt lat="49.79527" lon="4.7984">
        <ele>284</ele>
        <time>2020-11-13T07:13:27.000Z</time>
      </trkpt>
      <trkpt lat="49.79529" lon="4.7984">
        <ele>284</ele>
        <time>2020-11-13T07:13:28.000Z</time>
      </trkpt>
      <trkpt lat="49.79531" lon="4.7984">
        <ele>285</ele>
        <time>2020-11-13T07:13:29.000Z</time>
      </trkpt>
      <trkpt lat="49.79533" lon="4.7984">
        <ele>285</ele>
        <time>2020-11-13T07:13:30.000Z</time>
      </trkpt>
      <trkpt lat="49.79535" lon="4.79839">
        <ele>285</ele>
        <time>2020-11-13T07:13:31.000Z</time>
      </trkpt>
      <trkpt lat="49.79538" lon="4.79839">
        <ele>285</ele>
        <time>2020-11-13T07:13:32.000Z</time>
      </trkpt>
      <trkpt lat="49.7954" lon="4.79839">
        <ele>285</ele>
        <time>2020-11-13T07:13:33.000Z</time>
      </trkpt>
      <trkpt lat="49.79543" lon="4.79839">
        <ele>285</ele>
        <time>2020-11-13T07:13:34.000Z</time>
      </trkpt>
      <trkpt lat="49.79545" lon="4.79839">
        <ele>286</ele>
        <time>2020-11-13T07:13:35.000Z</time>
      </trkpt>
      <trkpt lat="49.79547" lon="4.7984">
        <ele>286</ele>
        <time>2020-11-13T07:13:36.000Z</time>
      </trkpt>
      <trkpt lat="49.7955" lon="4.79839">
        <ele>286</ele>
        <time>2020-11-13T07:13:37.000Z</time>
      </trkpt>
      <trkpt lat="49.79553" lon="4.79839">
        <ele>286</ele>
        <time>2020-11-13T07:13:38.000Z</time>
      </trkpt>
      <trkpt lat="49.79555" lon="4.79839">
        <ele>286</ele>
        <time>2020-11-13T07:13:39.000Z</time>
      </trkpt>
      <trkpt lat="49.79557" lon="4.79839">
        <ele>286</ele>
        <time>2020-11-13T07:13:40.000Z</time>
      </trkpt>
      <trkpt lat="49.7956" lon="4.79839">
        <ele>286</ele>
        <time>2020-11-13T07:13:41.000Z</time>
      </trkpt>
      <trkpt lat="49.79561" lon="4.7984">
        <ele>287</ele>
        <time>2020-11-13T07:13:42.000Z</time>
      </trkpt>
      <trkpt lat="49.79563" lon="4.79841">
        <ele>287</ele>
        <time>2020-11-13T07:13:43.000Z</time>
      </trkpt>
      <trkpt lat="49.79564" lon="4.79842">
        <ele>287</ele>
        <time>2020-11-13T07:13:44.000Z</time>
      </trkpt>
      <trkpt lat="49.79566" lon="4.79842">
        <ele>287</ele>
        <time>2020-11-13T07:13:45.000Z</time>
      </trkpt>
      <trkpt lat="49.79568" lon="4.79842">
        <ele>287</ele>
        <time>2020-11-13T07:13:46.000Z</time>
      </trkpt>
      <trkpt lat="49.79571" lon="4.79842">
        <ele>287</ele>
        <time>2020-11-13T07:13:47.000Z</time>
      </trkpt>
      <trkpt lat="49.79573" lon="4.79841">
        <ele>287</ele>
        <time>2020-11-13T07:13:48.000Z</time>
      </trkpt>
      <trkpt lat="49.79576" lon="4.7984">
        <ele>287</ele>
        <time>2020-11-13T07:13:49.000Z</time>
      </trkpt>
      <trkpt lat="49.79578" lon="4.7984">
        <ele>287</ele>
        <time>2020-11-13T07:13:50.000Z</time>
      </trkpt>
      <trkpt lat="49.79581" lon="4.79839">
        <ele>288</ele>
        <time>2020-11-13T07:13:51.000Z</time>
      </trkpt>
      <trkpt lat="49.79583" lon="4.79839">
        <ele>288</ele>
        <time>2020-11-13T07:13:52.000Z</time>
      </trkpt>
      <trkpt lat="49.79586" lon="4.79838">
        <ele>288</ele>
        <time>2020-11-13T07:13:53.000Z</time>
      </trkpt>
      <trkpt lat="49.79588" lon="4.79838">
        <ele>288</ele>
        <time>2020-11-13T07:13:54.000Z</time>
      </trkpt>
      <trkpt lat="49.7959" lon="4.79838">
        <ele>288</ele>
        <time>2020-11-13T07:13:55.000Z</time>
      </trkpt>
      <trkpt lat="49.79593" lon="4.79837">
        <ele>288</ele>
        <time>2020-11-13T07:13:56.000Z</time>
      </trkpt>
      <trkpt lat="49.79596" lon="4.79836">
        <ele>288</ele>
        <time>2020-11-13T07:13:57.000Z</time>
      </trkpt>
      <trkpt lat="49.79599" lon="4.79835">
        <ele>289</ele>
        <time>2020-11-13T07:13:58.000Z</time>
      </trkpt>
      <trkpt lat="49.79602" lon="4.79835">
        <ele>289</ele>
        <time>2020-11-13T07:13:59.000Z</time>
      </trkpt>
      <trkpt lat="49.79604" lon="4.79834">
        <ele>289</ele>
        <time>2020-11-13T07:14:00.000Z</time>
      </trkpt>
      <trkpt lat="49.79606" lon="4.79834">
        <ele>290</ele>
        <time>2020-11-13T07:14:01.000Z</time>
      </trkpt>
      <trkpt lat="49.79609" lon="4.79834">
        <ele>290</ele>
        <time>2020-11-13T07:14:02.000Z</time>
      </trkpt>
      <trkpt lat="49.79611" lon="4.79833">
        <ele>290</ele>
        <time>2020-11-13T07:14:03.000Z</time>
      </trkpt>
      <trkpt lat="49.79614" lon="4.79832">
        <ele>291</ele>
        <time>2020-11-13T07:14:04.000Z</time>
      </trkpt>
      <trkpt lat="49.79616" lon="4.79831">
        <ele>291</ele>
        <time>2020-11-13T07:14:05.000Z</time>
      </trkpt>
      <trkpt lat="49.79619" lon="4.79831">
        <ele>292</ele>
        <time>2020-11-13T07:14:06.000Z</time>
      </trkpt>
      <trkpt lat="49.79621" lon="4.79831">
        <ele>292</ele>
        <time>2020-11-13T07:14:07.000Z</time>
      </trkpt>
      <trkpt lat="49.79623" lon="4.79831">
        <ele>292</ele>
        <time>2020-11-13T07:14:08.000Z</time>
      </trkpt>
      <trkpt lat="49.79626" lon="4.79831">
        <ele>293</ele>
        <time>2020-11-13T07:14:09.000Z</time>
      </trkpt>
      <trkpt lat="49.79628" lon="4.7983">
        <ele>293</ele>
        <time>2020-11-13T07:14:10.000Z</time>
      </trkpt>
      <trkpt lat="49.7963" lon="4.7983">
        <ele>293</ele>
        <time>2020-11-13T07:14:11.000Z</time>
      </trkpt>
      <trkpt lat="49.79633" lon="4.79829">
        <ele>293</ele>
        <time>2020-11-13T07:14:12.000Z</time>
      </trkpt>
      <trkpt lat="49.79635" lon="4.79829">
        <ele>293</ele>
        <time>2020-11-13T07:14:13.000Z</time>
      </trkpt>
      <trkpt lat="49.79637" lon="4.79829">
        <ele>293</ele>
        <time>2020-11-13T07:14:14.000Z</time>
      </trkpt>
      <trkpt lat="49.7964" lon="4.79828">
        <ele>294</ele>
        <time>2020-11-13T07:14:15.000Z</time>
      </trkpt>
      <trkpt lat="49.79642" lon="4.79828">
        <ele>294</ele>
        <time>2020-11-13T07:14:16.000Z</time>
      </trkpt>
      <trkpt lat="49.79645" lon="4.79828">
        <ele>294</ele>
        <time>2020-11-13T07:14:17.000Z</time>
      </trkpt>
      <trkpt lat="49.79648" lon="4.79829">
        <ele>294</ele>
        <time>2020-11-13T07:14:18.000Z</time>
      </trkpt>
      <trkpt lat="49.79651" lon="4.79829">
        <ele>294</ele>
        <time>2020-11-13T07:14:19.000Z</time>
      </trkpt>
      <trkpt lat="49.79654" lon="4.7983">
        <ele>294</ele>
        <time>2020-11-13T07:14:20.000Z</time>
      </trkpt>
      <trkpt lat="49.79658" lon="4.7983">
        <ele>294</ele>
        <time>2020-11-13T07:14:21.000Z</time>
      </trkpt>
      <trkpt lat="49.79661" lon="4.7983">
        <ele>294</ele>
        <time>2020-11-13T07:14:22.000Z</time>
      </trkpt>
      <trkpt lat="49.79664" lon="4.7983">
        <ele>294</ele>
        <time>2020-11-13T07:14:23.000Z</time>
      </trkpt>
      <trkpt lat="49.79667" lon="4.79829">
        <ele>295</ele>
        <time>2020-11-13T07:14:24.000Z</time>
      </trkpt>
      <trkpt lat="49.7967" lon="4.79828">
        <ele>295</ele>
        <time>2020-11-13T07:14:25.000Z</time>
      </trkpt>
      <trkpt lat="49.79674" lon="4.79827">
        <ele>295</ele>
        <time>2020-11-13T07:14:26.000Z</time>
      </trkpt>
      <trkpt lat="49.79677" lon="4.79827">
        <ele>295</ele>
        <time>2020-11-13T07:14:27.000Z</time>
      </trkpt>
      <trkpt lat="49.79679" lon="4.79827">
        <ele>295</ele>
        <time>2020-11-13T07:14:28.000Z</time>
      </trkpt>
      <trkpt lat="49.79682" lon="4.79827">
        <ele>295</ele>
        <time>2020-11-13T07:14:29.000Z</time>
      </trkpt>
      <trkpt lat="49.79685" lon="4.79826">
        <ele>295</ele>
        <time>2020-11-13T07:14:30.000Z</time>
      </trkpt>
      <trkpt lat="49.79688" lon="4.79826">
        <ele>295</ele>
        <time>2020-11-13T07:14:31.000Z</time>
      </trkpt>
      <trkpt lat="49.79692" lon="4.79826">
        <ele>295</ele>
        <time>2020-11-13T07:14:32.000Z</time>
      </trkpt>
      <trkpt lat="49.79695" lon="4.79827">
        <ele>295</ele>
        <time>2020-11-13T07:14:33.000Z</time>
      </trkpt>
      <trkpt lat="49.79699" lon="4.79826">
        <ele>295</ele>
        <time>2020-11-13T07:14:34.000Z</time>
      </trkpt>
      <trkpt lat="49.79703" lon="4.79826">
        <ele>295</ele>
        <time>2020-11-13T07:14:35.000Z</time>
      </trkpt>
      <trkpt lat="49.79707" lon="4.79826">
        <ele>295</ele>
        <time>2020-11-13T07:14:36.000Z</time>
      </trkpt>
      <trkpt lat="49.79711" lon="4.79826">
        <ele>295</ele>
        <time>2020-11-13T07:14:37.000Z</time>
      </trkpt>
      <trkpt lat="49.79715" lon="4.79825">
        <ele>296</ele>
        <time>2020-11-13T07:14:38.000Z</time>
      </trkpt>
      <trkpt lat="49.79718" lon="4.79824">
        <ele>296</ele>
        <time>2020-11-13T07:14:39.000Z</time>
      </trkpt>
      <trkpt lat="49.79721" lon="4.79823">
        <ele>296</ele>
        <time>2020-11-13T07:14:40.000Z</time>
      </trkpt>
      <trkpt lat="49.79725" lon="4.79823">
        <ele>296</ele>
        <time>2020-11-13T07:14:41.000Z</time>
      </trkpt>
      <trkpt lat="49.79729" lon="4.79823">
        <ele>296</ele>
        <time>2020-11-13T07:14:42.000Z</time>
      </trkpt>
      <trkpt lat="49.79733" lon="4.79822">
        <ele>296</ele>
        <time>2020-11-13T07:14:43.000Z</time>
      </trkpt>
      <trkpt lat="49.79737" lon="4.79822">
        <ele>296</ele>
        <time>2020-11-13T07:14:44.000Z</time>
      </trkpt>
      <trkpt lat="49.79741" lon="4.79821">
        <ele>296</ele>
        <time>2020-11-13T07:14:45.000Z</time>
      </trkpt>
      <trkpt lat="49.79745" lon="4.79821">
        <ele>296</ele>
        <time>2020-11-13T07:14:46.000Z</time>
      </trkpt>
      <trkpt lat="49.7975" lon="4.7982">
        <ele>296</ele>
        <time>2020-11-13T07:14:47.000Z</time>
      </trkpt>
      <trkpt lat="49.79753" lon="4.7982">
        <ele>296</ele>
        <time>2020-11-13T07:14:48.000Z</time>
      </trkpt>
      <trkpt lat="49.79757" lon="4.7982">
        <ele>297</ele>
        <time>2020-11-13T07:14:49.000Z</time>
      </trkpt>
      <trkpt lat="49.79761" lon="4.7982">
        <ele>297</ele>
        <time>2020-11-13T07:14:50.000Z</time>
      </trkpt>
      <trkpt lat="49.79765" lon="4.7982">
        <ele>297</ele>
        <time>2020-11-13T07:14:51.000Z</time>
      </trkpt>
      <trkpt lat="49.79769" lon="4.7982">
        <ele>297</ele>
        <time>2020-11-13T07:14:52.000Z</time>
      </trkpt>
      <trkpt lat="49.79773" lon="4.7982">
        <ele>297</ele>
        <time>2020-11-13T07:14:53.000Z</time>
      </trkpt>
      <trkpt lat="49.79776" lon="4.7982">
        <ele>297</ele>
        <time>2020-11-13T07:14:54.000Z</time>
      </trkpt>
      <trkpt lat="49.79781" lon="4.7982">
        <ele>297</ele>
        <time>2020-11-13T07:14:55.000Z</time>
      </trkpt>
      <trkpt lat="49.79785" lon="4.79819">
        <ele>297</ele>
        <time>2020-11-13T07:14:56.000Z</time>
      </trkpt>
      <trkpt lat="49.7979" lon="4.79818">
        <ele>297</ele>
        <time>2020-11-13T07:14:57.000Z</time>
      </trkpt>
      <trkpt lat="49.79795" lon="4.79818">
        <ele>297</ele>
        <time>2020-11-13T07:14:58.000Z</time>
      </trkpt>
      <trkpt lat="49.798" lon="4.79818">
        <ele>298</ele>
        <time>2020-11-13T07:14:59.000Z</time>
      </trkpt>
      <trkpt lat="49.79805" lon="4.79818">
        <ele>298</ele>
        <time>2020-11-13T07:15:00.000Z</time>
      </trkpt>
      <trkpt lat="49.7981" lon="4.79818">
        <ele>298</ele>
        <time>2020-11-13T07:15:01.000Z</time>
      </trkpt>
      <trkpt lat="49.79816" lon="4.79817">
        <ele>298</ele>
        <time>2020-11-13T07:15:02.000Z</time>
      </trkpt>
      <trkpt lat="49.79821" lon="4.79817">
        <ele>298</ele>
        <time>2020-11-13T07:15:03.000Z</time>
      </trkpt>
      <trkpt lat="49.79826" lon="4.79816">
        <ele>298</ele>
        <time>2020-11-13T07:15:04.000Z</time>
      </trkpt>
      <trkpt lat="49.79831" lon="4.79816">
        <ele>298</ele>
        <time>2020-11-13T07:15:05.000Z</time>
      </trkpt>
      <trkpt lat="49.79836" lon="4.79815">
        <ele>298</ele>
        <time>2020-11-13T07:15:06.000Z</time>
      </trkpt>
      <trkpt lat="49.79841" lon="4.79815">
        <ele>298</ele>
        <time>2020-11-13T07:15:07.000Z</time>
      </trkpt>
      <trkpt lat="49.79846" lon="4.79814">
        <ele>298</ele>
        <time>2020-11-13T07:15:08.000Z</time>
      </trkpt>
      <trkpt lat="49.79851" lon="4.79814">
        <ele>298</ele>
        <time>2020-11-13T07:15:09.000Z</time>
      </trkpt>
      <trkpt lat="49.79856" lon="4.79813">
        <ele>298</ele>
        <time>2020-11-13T07:15:10.000Z</time>
      </trkpt>
      <trkpt lat="49.79861" lon="4.79811">
        <ele>298</ele>
        <time>2020-11-13T07:15:11.000Z</time>
      </trkpt>
      <trkpt lat="49.79866" lon="4.7981">
        <ele>298</ele>
        <time>2020-11-13T07:15:12.000Z</time>
      </trkpt>
      <trkpt lat="49.7987" lon="4.7981">
        <ele>298</ele>
        <time>2020-11-13T07:15:13.000Z</time>
      </trkpt>
      <trkpt lat="49.79875" lon="4.79809">
        <ele>297</ele>
        <time>2020-11-13T07:15:14.000Z</time>
      </trkpt>
      <trkpt lat="49.79879" lon="4.79808">
        <ele>297</ele>
        <time>2020-11-13T07:15:15.000Z</time>
      </trkpt>
      <trkpt lat="49.79883" lon="4.79808">
        <ele>297</ele>
        <time>2020-11-13T07:15:16.000Z</time>
      </trkpt>
      <trkpt lat="49.79888" lon="4.79807">
        <ele>297</ele>
        <time>2020-11-13T07:15:17.000Z</time>
      </trkpt>
      <trkpt lat="49.79892" lon="4.79806">
        <ele>297</ele>
        <time>2020-11-13T07:15:18.000Z</time>
      </trkpt>
      <trkpt lat="49.79896" lon="4.79806">
        <ele>297</ele>
        <time>2020-11-13T07:15:19.000Z</time>
      </trkpt>
      <trkpt lat="49.79901" lon="4.79806">
        <ele>297</ele>
        <time>2020-11-13T07:15:20.000Z</time>
      </trkpt>
      <trkpt lat="49.79905" lon="4.79806">
        <ele>297</ele>
        <time>2020-11-13T07:15:21.000Z</time>
      </trkpt>
      <trkpt lat="49.79908" lon="4.79806">
        <ele>297</ele>
        <time>2020-11-13T07:15:22.000Z</time>
      </trkpt>
      <trkpt lat="49.79912" lon="4.79805">
        <ele>297</ele>
        <time>2020-11-13T07:15:23.000Z</time>
      </trkpt>
      <trkpt lat="49.79916" lon="4.79805">
        <ele>297</ele>
        <time>2020-11-13T07:15:24.000Z</time>
      </trkpt>
      <trkpt lat="49.79921" lon="4.79804">
        <ele>297</ele>
        <time>2020-11-13T07:15:25.000Z</time>
      </trkpt>
      <trkpt lat="49.79926" lon="4.79804">
        <ele>297</ele>
        <time>2020-11-13T07:15:26.000Z</time>
      </trkpt>
      <trkpt lat="49.7993" lon="4.79803">
        <ele>297</ele>
        <time>2020-11-13T07:15:27.000Z</time>
      </trkpt>
      <trkpt lat="49.79934" lon="4.79803">
        <ele>297</ele>
        <time>2020-11-13T07:15:28.000Z</time>
      </trkpt>
      <trkpt lat="49.79938" lon="4.79802">
        <ele>297</ele>
        <time>2020-11-13T07:15:29.000Z</time>
      </trkpt>
      <trkpt lat="49.79943" lon="4.79802">
        <ele>297</ele>
        <time>2020-11-13T07:15:30.000Z</time>
      </trkpt>
      <trkpt lat="49.79947" lon="4.79802">
        <ele>297</ele>
        <time>2020-11-13T07:15:31.000Z</time>
      </trkpt>
      <trkpt lat="49.79951" lon="4.79801">
        <ele>297</ele>
        <time>2020-11-13T07:15:32.000Z</time>
      </trkpt>
      <trkpt lat="49.79955" lon="4.79801">
        <ele>297</ele>
        <time>2020-11-13T07:15:33.000Z</time>
      </trkpt>
      <trkpt lat="49.79959" lon="4.798">
        <ele>297</ele>
        <time>2020-11-13T07:15:34.000Z</time>
      </trkpt>
      <trkpt lat="49.79963" lon="4.798">
        <ele>297</ele>
        <time>2020-11-13T07:15:35.000Z</time>
      </trkpt>
      <trkpt lat="49.79968" lon="4.798">
        <ele>297</ele>
        <time>2020-11-13T07:15:36.000Z</time>
      </trkpt>
      <trkpt lat="49.79972" lon="4.798">
        <ele>297</ele>
        <time>2020-11-13T07:15:37.000Z</time>
      </trkpt>
      <trkpt lat="49.79976" lon="4.798">
        <ele>297</ele>
        <time>2020-11-13T07:15:38.000Z</time>
      </trkpt>
      <trkpt lat="49.7998" lon="4.79799">
        <ele>297</ele>
        <time>2020-11-13T07:15:39.000Z</time>
      </trkpt>
      <trkpt lat="49.79984" lon="4.79798">
        <ele>297</ele>
        <time>2020-11-13T07:15:40.000Z</time>
      </trkpt>
      <trkpt lat="49.79988" lon="4.79798">
        <ele>297</ele>
        <time>2020-11-13T07:15:41.000Z</time>
      </trkpt>
      <trkpt lat="49.79993" lon="4.79799">
        <ele>297</ele>
        <time>2020-11-13T07:15:42.000Z</time>
      </trkpt>
      <trkpt lat="49.79997" lon="4.798">
        <ele>296</ele>
        <time>2020-11-13T07:15:43.000Z</time>
      </trkpt>
      <trkpt lat="49.80001" lon="4.798">
        <ele>296</ele>
        <time>2020-11-13T07:15:44.000Z</time>
      </trkpt>
      <trkpt lat="49.80006" lon="4.79799">
        <ele>296</ele>
        <time>2020-11-13T07:15:45.000Z</time>
      </trkpt>
      <trkpt lat="49.80011" lon="4.79799">
        <ele>296</ele>
        <time>2020-11-13T07:15:46.000Z</time>
      </trkpt>
      <trkpt lat="49.80015" lon="4.79799">
        <ele>296</ele>
        <time>2020-11-13T07:15:47.000Z</time>
      </trkpt>
      <trkpt lat="49.80019" lon="4.79799">
        <ele>295</ele>
        <time>2020-11-13T07:15:48.000Z</time>
      </trkpt>
      <trkpt lat="49.80024" lon="4.79799">
        <ele>295</ele>
        <time>2020-11-13T07:15:49.000Z</time>
      </trkpt>
      <trkpt lat="49.80028" lon="4.79798">
        <ele>295</ele>
        <time>2020-11-13T07:15:50.000Z</time>
      </trkpt>
      <trkpt lat="49.80033" lon="4.79798">
        <ele>295</ele>
        <time>2020-11-13T07:15:51.000Z</time>
      </trkpt>
      <trkpt lat="49.80038" lon="4.79798">
        <ele>295</ele>
        <time>2020-11-13T07:15:52.000Z</time>
      </trkpt>
      <trkpt lat="49.80044" lon="4.79798">
        <ele>294</ele>
        <time>2020-11-13T07:15:53.000Z</time>
      </trkpt>
      <trkpt lat="49.8005" lon="4.79798">
        <ele>294</ele>
        <time>2020-11-13T07:15:54.000Z</time>
      </trkpt>
      <trkpt lat="49.80056" lon="4.79796">
        <ele>294</ele>
        <time>2020-11-13T07:15:55.000Z</time>
      </trkpt>
      <trkpt lat="49.80062" lon="4.79795">
        <ele>294</ele>
        <time>2020-11-13T07:15:56.000Z</time>
      </trkpt>
      <trkpt lat="49.80068" lon="4.79794">
        <ele>294</ele>
        <time>2020-11-13T07:15:57.000Z</time>
      </trkpt>
      <trkpt lat="49.80073" lon="4.79794">
        <ele>294</ele>
        <time>2020-11-13T07:15:58.000Z</time>
      </trkpt>
      <trkpt lat="49.80078" lon="4.79793">
        <ele>294</ele>
        <time>2020-11-13T07:15:59.000Z</time>
      </trkpt>
      <trkpt lat="49.80084" lon="4.79793">
        <ele>293</ele>
        <time>2020-11-13T07:16:00.000Z</time>
      </trkpt>
      <trkpt lat="49.80089" lon="4.79792">
        <ele>293</ele>
        <time>2020-11-13T07:16:01.000Z</time>
      </trkpt>
      <trkpt lat="49.80095" lon="4.79792">
        <ele>293</ele>
        <time>2020-11-13T07:16:02.000Z</time>
      </trkpt>
      <trkpt lat="49.80101" lon="4.79792">
        <ele>293</ele>
        <time>2020-11-13T07:16:03.000Z</time>
      </trkpt>
      <trkpt lat="49.80107" lon="4.79791">
        <ele>293</ele>
        <time>2020-11-13T07:16:04.000Z</time>
      </trkpt>
      <trkpt lat="49.80112" lon="4.7979">
        <ele>293</ele>
        <time>2020-11-13T07:16:05.000Z</time>
      </trkpt>
      <trkpt lat="49.80118" lon="4.79789">
        <ele>292</ele>
        <time>2020-11-13T07:16:06.000Z</time>
      </trkpt>
      <trkpt lat="49.80123" lon="4.79788">
        <ele>292</ele>
        <time>2020-11-13T07:16:07.000Z</time>
      </trkpt>
      <trkpt lat="49.80127" lon="4.79787">
        <ele>292</ele>
        <time>2020-11-13T07:16:08.000Z</time>
      </trkpt>
      <trkpt lat="49.80132" lon="4.79786">
        <ele>291</ele>
        <time>2020-11-13T07:16:09.000Z</time>
      </trkpt>
      <trkpt lat="49.80137" lon="4.79785">
        <ele>291</ele>
        <time>2020-11-13T07:16:10.000Z</time>
      </trkpt>
      <trkpt lat="49.80142" lon="4.79784">
        <ele>291</ele>
        <time>2020-11-13T07:16:11.000Z</time>
      </trkpt>
      <trkpt lat="49.80146" lon="4.79784">
        <ele>290</ele>
        <time>2020-11-13T07:16:12.000Z</time>
      </trkpt>
      <trkpt lat="49.80151" lon="4.79783">
        <ele>290</ele>
        <time>2020-11-13T07:16:13.000Z</time>
      </trkpt>
      <trkpt lat="49.80154" lon="4.79781">
        <ele>289</ele>
        <time>2020-11-13T07:16:14.000Z</time>
      </trkpt>
      <trkpt lat="49.80157" lon="4.7978">
        <ele>289</ele>
        <time>2020-11-13T07:16:15.000Z</time>
      </trkpt>
      <trkpt lat="49.80159" lon="4.7978">
        <ele>288</ele>
        <time>2020-11-13T07:16:16.000Z</time>
      </trkpt>
      <trkpt lat="49.80162" lon="4.7978">
        <ele>288</ele>
        <time>2020-11-13T07:16:17.000Z</time>
      </trkpt>
      <trkpt lat="49.80165" lon="4.79781">
        <ele>287</ele>
        <time>2020-11-13T07:16:18.000Z</time>
      </trkpt>
      <trkpt lat="49.80168" lon="4.79781">
        <ele>287</ele>
        <time>2020-11-13T07:16:19.000Z</time>
      </trkpt>
      <trkpt lat="49.80171" lon="4.79781">
        <ele>287</ele>
        <time>2020-11-13T07:16:20.000Z</time>
      </trkpt>
      <trkpt lat="49.80174" lon="4.7978">
        <ele>286</ele>
        <time>2020-11-13T07:16:21.000Z</time>
      </trkpt>
      <trkpt lat="49.80176" lon="4.79779">
        <ele>286</ele>
        <time>2020-11-13T07:16:22.000Z</time>
      </trkpt>
      <trkpt lat="49.80178" lon="4.79778">
        <ele>285</ele>
        <time>2020-11-13T07:16:23.000Z</time>
      </trkpt>
      <trkpt lat="49.8018" lon="4.79778">
        <ele>285</ele>
        <time>2020-11-13T07:16:24.000Z</time>
      </trkpt>
      <trkpt lat="49.80182" lon="4.79776">
        <ele>285</ele>
        <time>2020-11-13T07:16:25.000Z</time>
      </trkpt>
      <trkpt lat="49.80183" lon="4.79775">
        <ele>284</ele>
        <time>2020-11-13T07:16:26.000Z</time>
      </trkpt>
      <trkpt lat="49.80184" lon="4.79775">
        <ele>284</ele>
        <time>2020-11-13T07:16:27.000Z</time>
      </trkpt>
      <trkpt lat="49.80186" lon="4.79776">
        <ele>284</ele>
        <time>2020-11-13T07:16:28.000Z</time>
      </trkpt>
      <trkpt lat="49.80187" lon="4.79778">
        <ele>283</ele>
        <time>2020-11-13T07:16:29.000Z</time>
      </trkpt>
      <trkpt lat="49.80188" lon="4.7978">
        <ele>283</ele>
        <time>2020-11-13T07:16:30.000Z</time>
      </trkpt>
      <trkpt lat="49.80188" lon="4.79783">
        <ele>283</ele>
        <time>2020-11-13T07:16:31.000Z</time>
      </trkpt>
      <trkpt lat="49.80189" lon="4.79785">
        <ele>283</ele>
        <time>2020-11-13T07:16:32.000Z</time>
      </trkpt>
      <trkpt lat="49.80189" lon="4.79787">
        <ele>282</ele>
        <time>2020-11-13T07:16:33.000Z</time>
      </trkpt>
      <trkpt lat="49.80189" lon="4.79788">
        <ele>282</ele>
        <time>2020-11-13T07:16:34.000Z</time>
      </trkpt>
      <trkpt lat="49.80188" lon="4.79791">
        <ele>282</ele>
        <time>2020-11-13T07:16:35.000Z</time>
      </trkpt>
      <trkpt lat="49.80188" lon="4.79792">
        <ele>282</ele>
        <time>2020-11-13T07:16:36.000Z</time>
      </trkpt>
      <trkpt lat="49.80188" lon="4.79795">
        <ele>282</ele>
        <time>2020-11-13T07:16:37.000Z</time>
      </trkpt>
      <trkpt lat="49.80189" lon="4.79797">
        <ele>282</ele>
        <time>2020-11-13T07:16:38.000Z</time>
      </trkpt>
      <trkpt lat="49.80188" lon="4.79799">
        <ele>282</ele>
        <time>2020-11-13T07:16:39.000Z</time>
      </trkpt>
      <trkpt lat="49.80188" lon="4.79802">
        <ele>282</ele>
        <time>2020-11-13T07:16:40.000Z</time>
      </trkpt>
      <trkpt lat="49.80188" lon="4.79804">
        <ele>282</ele>
        <time>2020-11-13T07:16:41.000Z</time>
      </trkpt>
      <trkpt lat="49.80188" lon="4.79806">
        <ele>282</ele>
        <time>2020-11-13T07:16:42.000Z</time>
      </trkpt>
      <trkpt lat="49.80188" lon="4.79808">
        <ele>282</ele>
        <time>2020-11-13T07:16:43.000Z</time>
      </trkpt>
      <trkpt lat="49.80188" lon="4.79811">
        <ele>282</ele>
        <time>2020-11-13T07:16:44.000Z</time>
      </trkpt>
      <trkpt lat="49.80188" lon="4.79813">
        <ele>282</ele>
        <time>2020-11-13T07:16:45.000Z</time>
      </trkpt>
      <trkpt lat="49.80188" lon="4.79815">
        <ele>282</ele>
        <time>2020-11-13T07:16:46.000Z</time>
      </trkpt>
      <trkpt lat="49.80189" lon="4.79818">
        <ele>282</ele>
        <time>2020-11-13T07:16:47.000Z</time>
      </trkpt>
      <trkpt lat="49.80189" lon="4.7982">
        <ele>282</ele>
        <time>2020-11-13T07:16:48.000Z</time>
      </trkpt>
      <trkpt lat="49.8019" lon="4.79822">
        <ele>281</ele>
        <time>2020-11-13T07:16:49.000Z</time>
      </trkpt>
      <trkpt lat="49.80192" lon="4.79823">
        <ele>281</ele>
        <time>2020-11-13T07:16:50.000Z</time>
      </trkpt>
      <trkpt lat="49.80195" lon="4.79824">
        <ele>281</ele>
        <time>2020-11-13T07:16:51.000Z</time>
      </trkpt>
      <trkpt lat="49.80198" lon="4.79824">
        <ele>281</ele>
        <time>2020-11-13T07:16:52.000Z</time>
      </trkpt>
      <trkpt lat="49.80201" lon="4.79823">
        <ele>281</ele>
        <time>2020-11-13T07:16:53.000Z</time>
      </trkpt>
      <trkpt lat="49.80203" lon="4.79823">
        <ele>281</ele>
        <time>2020-11-13T07:16:54.000Z</time>
      </trkpt>
      <trkpt lat="49.80206" lon="4.79823">
        <ele>282</ele>
        <time>2020-11-13T07:16:55.000Z</time>
      </trkpt>
      <trkpt lat="49.80209" lon="4.79824">
        <ele>282</ele>
        <time>2020-11-13T07:16:56.000Z</time>
      </trkpt>
      <trkpt lat="49.80211" lon="4.79824">
        <ele>282</ele>
        <time>2020-11-13T07:16:57.000Z</time>
      </trkpt>
      <trkpt lat="49.80213" lon="4.79824">
        <ele>282</ele>
        <time>2020-11-13T07:16:58.000Z</time>
      </trkpt>
      <trkpt lat="49.80215" lon="4.79825">
        <ele>282</ele>
        <time>2020-11-13T07:16:59.000Z</time>
      </trkpt>
      <trkpt lat="49.80217" lon="4.79824">
        <ele>283</ele>
        <time>2020-11-13T07:17:00.000Z</time>
      </trkpt>
      <trkpt lat="49.8022" lon="4.79825">
        <ele>283</ele>
        <time>2020-11-13T07:17:01.000Z</time>
      </trkpt>
      <trkpt lat="49.80222" lon="4.79824">
        <ele>283</ele>
        <time>2020-11-13T07:17:02.000Z</time>
      </trkpt>
      <trkpt lat="49.80224" lon="4.79824">
        <ele>283</ele>
        <time>2020-11-13T07:17:03.000Z</time>
      </trkpt>
      <trkpt lat="49.80226" lon="4.79823">
        <ele>283</ele>
        <time>2020-11-13T07:17:04.000Z</time>
      </trkpt>
      <trkpt lat="49.80227" lon="4.79823">
        <ele>283</ele>
        <time>2020-11-13T07:17:05.000Z</time>
      </trkpt>
      <trkpt lat="49.80229" lon="4.79824">
        <ele>284</ele>
        <time>2020-11-13T07:17:06.000Z</time>
      </trkpt>
      <trkpt lat="49.80231" lon="4.79824">
        <ele>284</ele>
        <time>2020-11-13T07:17:07.000Z</time>
      </trkpt>
      <trkpt lat="49.80233" lon="4.79824">
        <ele>284</ele>
        <time>2020-11-13T07:17:08.000Z</time>
      </trkpt>
      <trkpt lat="49.80235" lon="4.79824">
        <ele>284</ele>
        <time>2020-11-13T07:17:09.000Z</time>
      </trkpt>
      <trkpt lat="49.80237" lon="4.79825">
        <ele>284</ele>
        <time>2020-11-13T07:17:10.000Z</time>
      </trkpt>
      <trkpt lat="49.8024" lon="4.79826">
        <ele>284</ele>
        <time>2020-11-13T07:17:11.000Z</time>
      </trkpt>
      <trkpt lat="49.80242" lon="4.79827">
        <ele>284</ele>
        <time>2020-11-13T07:17:12.000Z</time>
      </trkpt>
      <trkpt lat="49.80244" lon="4.79827">
        <ele>285</ele>
        <time>2020-11-13T07:17:13.000Z</time>
      </trkpt>
      <trkpt lat="49.80246" lon="4.79827">
        <ele>285</ele>
        <time>2020-11-13T07:17:14.000Z</time>
      </trkpt>
      <trkpt lat="49.80249" lon="4.79827">
        <ele>285</ele>
        <time>2020-11-13T07:17:15.000Z</time>
      </trkpt>
      <trkpt lat="49.80252" lon="4.79827">
        <ele>285</ele>
        <time>2020-11-13T07:17:16.000Z</time>
      </trkpt>
      <trkpt lat="49.80255" lon="4.79826">
        <ele>285</ele>
        <time>2020-11-13T07:17:17.000Z</time>
      </trkpt>
      <trkpt lat="49.80257" lon="4.79827">
        <ele>285</ele>
        <time>2020-11-13T07:17:18.000Z</time>
      </trkpt>
      <trkpt lat="49.8026" lon="4.79827">
        <ele>285</ele>
        <time>2020-11-13T07:17:19.000Z</time>
      </trkpt>
      <trkpt lat="49.80262" lon="4.79828">
        <ele>285</ele>
        <time>2020-11-13T07:17:20.000Z</time>
      </trkpt>
      <trkpt lat="49.80265" lon="4.79828">
        <ele>286</ele>
        <time>2020-11-13T07:17:21.000Z</time>
      </trkpt>
      <trkpt lat="49.80267" lon="4.79828">
        <ele>286</ele>
        <time>2020-11-13T07:17:22.000Z</time>
      </trkpt>
      <trkpt lat="49.80269" lon="4.79829">
        <ele>286</ele>
        <time>2020-11-13T07:17:23.000Z</time>
      </trkpt>
      <trkpt lat="49.80271" lon="4.7983">
        <ele>286</ele>
        <time>2020-11-13T07:17:24.000Z</time>
      </trkpt>
      <trkpt lat="49.80273" lon="4.7983">
        <ele>286</ele>
        <time>2020-11-13T07:17:25.000Z</time>
      </trkpt>
      <trkpt lat="49.80274" lon="4.79831">
        <ele>286</ele>
        <time>2020-11-13T07:17:26.000Z</time>
      </trkpt>
      <trkpt lat="49.80276" lon="4.79831">
        <ele>286</ele>
        <time>2020-11-13T07:17:27.000Z</time>
      </trkpt>
      <trkpt lat="49.80278" lon="4.79832">
        <ele>286</ele>
        <time>2020-11-13T07:17:28.000Z</time>
      </trkpt>
      <trkpt lat="49.8028" lon="4.79832">
        <ele>286</ele>
        <time>2020-11-13T07:17:29.000Z</time>
      </trkpt>
      <trkpt lat="49.80283" lon="4.79833">
        <ele>286</ele>
        <time>2020-11-13T07:17:30.000Z</time>
      </trkpt>
      <trkpt lat="49.80284" lon="4.79834">
        <ele>286</ele>
        <time>2020-11-13T07:17:31.000Z</time>
      </trkpt>
      <trkpt lat="49.80287" lon="4.79836">
        <ele>286</ele>
        <time>2020-11-13T07:17:32.000Z</time>
      </trkpt>
      <trkpt lat="49.80288" lon="4.79837">
        <ele>286</ele>
        <time>2020-11-13T07:17:33.000Z</time>
      </trkpt>
      <trkpt lat="49.80289" lon="4.79839">
        <ele>286</ele>
        <time>2020-11-13T07:17:34.000Z</time>
      </trkpt>
      <trkpt lat="49.80291" lon="4.79841">
        <ele>287</ele>
        <time>2020-11-13T07:17:35.000Z</time>
      </trkpt>
      <trkpt lat="49.80292" lon="4.79843">
        <ele>287</ele>
        <time>2020-11-13T07:17:36.000Z</time>
      </trkpt>
      <trkpt lat="49.80293" lon="4.79846">
        <ele>287</ele>
        <time>2020-11-13T07:17:37.000Z</time>
      </trkpt>
      <trkpt lat="49.80294" lon="4.79848">
        <ele>287</ele>
        <time>2020-11-13T07:17:38.000Z</time>
      </trkpt>
      <trkpt lat="49.80294" lon="4.79849">
        <ele>287</ele>
        <time>2020-11-13T07:17:39.000Z</time>
      </trkpt>
      <trkpt lat="49.80295" lon="4.7985">
        <ele>287</ele>
        <time>2020-11-13T07:17:40.000Z</time>
      </trkpt>
      <trkpt lat="49.80296" lon="4.79852">
        <ele>287</ele>
        <time>2020-11-13T07:17:41.000Z</time>
      </trkpt>
      <trkpt lat="49.80298" lon="4.79853">
        <ele>287</ele>
        <time>2020-11-13T07:17:42.000Z</time>
      </trkpt>
      <trkpt lat="49.80301" lon="4.79855">
        <ele>287</ele>
        <time>2020-11-13T07:17:43.000Z</time>
      </trkpt>
      <trkpt lat="49.80303" lon="4.79858">
        <ele>287</ele>
        <time>2020-11-13T07:17:44.000Z</time>
      </trkpt>
      <trkpt lat="49.80305" lon="4.7986">
        <ele>288</ele>
        <time>2020-11-13T07:17:45.000Z</time>
      </trkpt>
      <trkpt lat="49.80307" lon="4.79863">
        <ele>288</ele>
        <time>2020-11-13T07:17:46.000Z</time>
      </trkpt>
      <trkpt lat="49.80309" lon="4.79866">
        <ele>288</ele>
        <time>2020-11-13T07:17:47.000Z</time>
      </trkpt>
      <trkpt lat="49.80312" lon="4.79869">
        <ele>288</ele>
        <time>2020-11-13T07:17:48.000Z</time>
      </trkpt>
      <trkpt lat="49.80314" lon="4.79874">
        <ele>288</ele>
        <time>2020-11-13T07:17:49.000Z</time>
      </trkpt>
      <trkpt lat="49.80315" lon="4.79878">
        <ele>289</ele>
        <time>2020-11-13T07:17:50.000Z</time>
      </trkpt>
      <trkpt lat="49.80314" lon="4.79882">
        <ele>289</ele>
        <time>2020-11-13T07:17:51.000Z</time>
      </trkpt>
      <trkpt lat="49.80313" lon="4.79887">
        <ele>289</ele>
        <time>2020-11-13T07:17:52.000Z</time>
      </trkpt>
      <trkpt lat="49.80313" lon="4.79892">
        <ele>289</ele>
        <time>2020-11-13T07:17:53.000Z</time>
      </trkpt>
      <trkpt lat="49.80312" lon="4.79896">
        <ele>289</ele>
        <time>2020-11-13T07:17:54.000Z</time>
      </trkpt>
      <trkpt lat="49.80312" lon="4.79901">
        <ele>289</ele>
        <time>2020-11-13T07:17:55.000Z</time>
      </trkpt>
      <trkpt lat="49.80312" lon="4.79906">
        <ele>289</ele>
        <time>2020-11-13T07:17:56.000Z</time>
      </trkpt>
      <trkpt lat="49.80312" lon="4.79912">
        <ele>289</ele>
        <time>2020-11-13T07:17:57.000Z</time>
      </trkpt>
      <trkpt lat="49.80311" lon="4.79917">
        <ele>289</ele>
        <time>2020-11-13T07:17:58.000Z</time>
      </trkpt>
      <trkpt lat="49.8031" lon="4.79922">
        <ele>289</ele>
        <time>2020-11-13T07:17:59.000Z</time>
      </trkpt>
      <trkpt lat="49.8031" lon="4.79927">
        <ele>290</ele>
        <time>2020-11-13T07:18:00.000Z</time>
      </trkpt>
      <trkpt lat="49.8031" lon="4.79932">
        <ele>290</ele>
        <time>2020-11-13T07:18:01.000Z</time>
      </trkpt>
      <trkpt lat="49.80309" lon="4.79937">
        <ele>290</ele>
        <time>2020-11-13T07:18:02.000Z</time>
      </trkpt>
      <trkpt lat="49.80308" lon="4.79943">
        <ele>290</ele>
        <time>2020-11-13T07:18:03.000Z</time>
      </trkpt>
      <trkpt lat="49.80307" lon="4.79948">
        <ele>290</ele>
        <time>2020-11-13T07:18:04.000Z</time>
      </trkpt>
      <trkpt lat="49.80307" lon="4.79954">
        <ele>290</ele>
        <time>2020-11-13T07:18:05.000Z</time>
      </trkpt>
      <trkpt lat="49.80306" lon="4.79961">
        <ele>290</ele>
        <time>2020-11-13T07:18:06.000Z</time>
      </trkpt>
      <trkpt lat="49.80305" lon="4.79967">
        <ele>290</ele>
        <time>2020-11-13T07:18:07.000Z</time>
      </trkpt>
      <trkpt lat="49.80304" lon="4.79974">
        <ele>290</ele>
        <time>2020-11-13T07:18:08.000Z</time>
      </trkpt>
      <trkpt lat="49.80304" lon="4.79981">
        <ele>290</ele>
        <time>2020-11-13T07:18:09.000Z</time>
      </trkpt>
      <trkpt lat="49.80303" lon="4.79987">
        <ele>290</ele>
        <time>2020-11-13T07:18:10.000Z</time>
      </trkpt>
      <trkpt lat="49.80303" lon="4.79994">
        <ele>290</ele>
        <time>2020-11-13T07:18:11.000Z</time>
      </trkpt>
      <trkpt lat="49.80302" lon="4.8">
        <ele>290</ele>
        <time>2020-11-13T07:18:12.000Z</time>
      </trkpt>
      <trkpt lat="49.803" lon="4.80007">
        <ele>290</ele>
        <time>2020-11-13T07:18:13.000Z</time>
      </trkpt>
      <trkpt lat="49.80299" lon="4.80013">
        <ele>290</ele>
        <time>2020-11-13T07:18:14.000Z</time>
      </trkpt>
      <trkpt lat="49.80299" lon="4.80019">
        <ele>290</ele>
        <time>2020-11-13T07:18:15.000Z</time>
      </trkpt>
      <trkpt lat="49.80299" lon="4.80024">
        <ele>290</ele>
        <time>2020-11-13T07:18:16.000Z</time>
      </trkpt>
      <trkpt lat="49.80299" lon="4.8003">
        <ele>290</ele>
        <time>2020-11-13T07:18:17.000Z</time>
      </trkpt>
      <trkpt lat="49.803" lon="4.80037">
        <ele>290</ele>
        <time>2020-11-13T07:18:18.000Z</time>
      </trkpt>
      <trkpt lat="49.80302" lon="4.80045">
        <ele>290</ele>
        <time>2020-11-13T07:18:19.000Z</time>
      </trkpt>
      <trkpt lat="49.80304" lon="4.80053">
        <ele>290</ele>
        <time>2020-11-13T07:18:20.000Z</time>
      </trkpt>
      <trkpt lat="49.80306" lon="4.80061">
        <ele>290</ele>
        <time>2020-11-13T07:18:21.000Z</time>
      </trkpt>
      <trkpt lat="49.80308" lon="4.80068">
        <ele>290</ele>
        <time>2020-11-13T07:18:22.000Z</time>
      </trkpt>
      <trkpt lat="49.8031" lon="4.80075">
        <ele>289</ele>
        <time>2020-11-13T07:18:23.000Z</time>
      </trkpt>
      <trkpt lat="49.80312" lon="4.80082">
        <ele>289</ele>
        <time>2020-11-13T07:18:24.000Z</time>
      </trkpt>
      <trkpt lat="49.80313" lon="4.8009">
        <ele>289</ele>
        <time>2020-11-13T07:18:25.000Z</time>
      </trkpt>
      <trkpt lat="49.80316" lon="4.80097">
        <ele>289</ele>
        <time>2020-11-13T07:18:26.000Z</time>
      </trkpt>
      <trkpt lat="49.80318" lon="4.80105">
        <ele>289</ele>
        <time>2020-11-13T07:18:27.000Z</time>
      </trkpt>
      <trkpt lat="49.8032" lon="4.80113">
        <ele>288</ele>
        <time>2020-11-13T07:18:28.000Z</time>
      </trkpt>
      <trkpt lat="49.80322" lon="4.80121">
        <ele>288</ele>
        <time>2020-11-13T07:18:29.000Z</time>
      </trkpt>
      <trkpt lat="49.80324" lon="4.80128">
        <ele>288</ele>
        <time>2020-11-13T07:18:30.000Z</time>
      </trkpt>
      <trkpt lat="49.80325" lon="4.80135">
        <ele>287</ele>
        <time>2020-11-13T07:18:31.000Z</time>
      </trkpt>
      <trkpt lat="49.80328" lon="4.80141">
        <ele>287</ele>
        <time>2020-11-13T07:18:32.000Z</time>
      </trkpt>
      <trkpt lat="49.8033" lon="4.80148">
        <ele>287</ele>
        <time>2020-11-13T07:18:33.000Z</time>
      </trkpt>
      <trkpt lat="49.80333" lon="4.80154">
        <ele>286</ele>
        <time>2020-11-13T07:18:34.000Z</time>
      </trkpt>
      <trkpt lat="49.80334" lon="4.80162">
        <ele>286</ele>
        <time>2020-11-13T07:18:35.000Z</time>
      </trkpt>
      <trkpt lat="49.80335" lon="4.8017">
        <ele>286</ele>
        <time>2020-11-13T07:18:36.000Z</time>
      </trkpt>
      <trkpt lat="49.80335" lon="4.80177">
        <ele>285</ele>
        <time>2020-11-13T07:18:37.000Z</time>
      </trkpt>
      <trkpt lat="49.80335" lon="4.80185">
        <ele>285</ele>
        <time>2020-11-13T07:18:38.000Z</time>
      </trkpt>
      <trkpt lat="49.80336" lon="4.80194">
        <ele>285</ele>
        <time>2020-11-13T07:18:39.000Z</time>
      </trkpt>
      <trkpt lat="49.80336" lon="4.80202">
        <ele>284</ele>
        <time>2020-11-13T07:18:40.000Z</time>
      </trkpt>
      <trkpt lat="49.80336" lon="4.80209">
        <ele>284</ele>
        <time>2020-11-13T07:18:41.000Z</time>
      </trkpt>
      <trkpt lat="49.80335" lon="4.80216">
        <ele>283</ele>
        <time>2020-11-13T07:18:42.000Z</time>
      </trkpt>
      <trkpt lat="49.80335" lon="4.80222">
        <ele>283</ele>
        <time>2020-11-13T07:18:43.000Z</time>
      </trkpt>
      <trkpt lat="49.80334" lon="4.80229">
        <ele>282</ele>
        <time>2020-11-13T07:18:44.000Z</time>
      </trkpt>
      <trkpt lat="49.80334" lon="4.80236">
        <ele>282</ele>
        <time>2020-11-13T07:18:45.000Z</time>
      </trkpt>
      <trkpt lat="49.80333" lon="4.80241">
        <ele>282</ele>
        <time>2020-11-13T07:18:46.000Z</time>
      </trkpt>
      <trkpt lat="49.80333" lon="4.80247">
        <ele>281</ele>
        <time>2020-11-13T07:18:47.000Z</time>
      </trkpt>
      <trkpt lat="49.80333" lon="4.80253">
        <ele>281</ele>
        <time>2020-11-13T07:18:48.000Z</time>
      </trkpt>
      <trkpt lat="49.80332" lon="4.8026">
        <ele>281</ele>
        <time>2020-11-13T07:18:49.000Z</time>
      </trkpt>
      <trkpt lat="49.8033" lon="4.80266">
        <ele>280</ele>
        <time>2020-11-13T07:18:50.000Z</time>
      </trkpt>
      <trkpt lat="49.80327" lon="4.8027">
        <ele>280</ele>
        <time>2020-11-13T07:18:51.000Z</time>
      </trkpt>
      <trkpt lat="49.80325" lon="4.80275">
        <ele>279</ele>
        <time>2020-11-13T07:18:52.000Z</time>
      </trkpt>
      <trkpt lat="49.80323" lon="4.80279">
        <ele>279</ele>
        <time>2020-11-13T07:18:53.000Z</time>
      </trkpt>
      <trkpt lat="49.8032" lon="4.80283">
        <ele>279</ele>
        <time>2020-11-13T07:18:54.000Z</time>
      </trkpt>
      <trkpt lat="49.80318" lon="4.80287">
        <ele>278</ele>
        <time>2020-11-13T07:18:55.000Z</time>
      </trkpt>
      <trkpt lat="49.80316" lon="4.80291">
        <ele>278</ele>
        <time>2020-11-13T07:18:56.000Z</time>
      </trkpt>
      <trkpt lat="49.80314" lon="4.80296">
        <ele>278</ele>
        <time>2020-11-13T07:18:57.000Z</time>
      </trkpt>
      <trkpt lat="49.80313" lon="4.80301">
        <ele>277</ele>
        <time>2020-11-13T07:18:58.000Z</time>
      </trkpt>
      <trkpt lat="49.80312" lon="4.80307">
        <ele>277</ele>
        <time>2020-11-13T07:18:59.000Z</time>
      </trkpt>
      <trkpt lat="49.8031" lon="4.80312">
        <ele>277</ele>
        <time>2020-11-13T07:19:00.000Z</time>
      </trkpt>
      <trkpt lat="49.80308" lon="4.80318">
        <ele>277</ele>
        <time>2020-11-13T07:19:01.000Z</time>
      </trkpt>
      <trkpt lat="49.80307" lon="4.80324">
        <ele>277</ele>
        <time>2020-11-13T07:19:02.000Z</time>
      </trkpt>
      <trkpt lat="49.80305" lon="4.80331">
        <ele>276</ele>
        <time>2020-11-13T07:19:03.000Z</time>
      </trkpt>
      <trkpt lat="49.80304" lon="4.80338">
        <ele>276</ele>
        <time>2020-11-13T07:19:04.000Z</time>
      </trkpt>
      <trkpt lat="49.80303" lon="4.80343">
        <ele>276</ele>
        <time>2020-11-13T07:19:05.000Z</time>
      </trkpt>
      <trkpt lat="49.80301" lon="4.80347">
        <ele>276</ele>
        <time>2020-11-13T07:19:06.000Z</time>
      </trkpt>
      <trkpt lat="49.80298" lon="4.80349">
        <ele>276</ele>
        <time>2020-11-13T07:19:07.000Z</time>
      </trkpt>
      <trkpt lat="49.80296" lon="4.80352">
        <ele>276</ele>
        <time>2020-11-13T07:19:08.000Z</time>
      </trkpt>
      <trkpt lat="49.80295" lon="4.80355">
        <ele>276</ele>
        <time>2020-11-13T07:19:09.000Z</time>
      </trkpt>
      <trkpt lat="49.80294" lon="4.80358">
        <ele>276</ele>
        <time>2020-11-13T07:19:10.000Z</time>
      </trkpt>
      <trkpt lat="49.80294" lon="4.80362">
        <ele>276</ele>
        <time>2020-11-13T07:19:11.000Z</time>
      </trkpt>
      <trkpt lat="49.80294" lon="4.80367">
        <ele>276</ele>
        <time>2020-11-13T07:19:12.000Z</time>
      </trkpt>
      <trkpt lat="49.80293" lon="4.80372">
        <ele>276</ele>
        <time>2020-11-13T07:19:13.000Z</time>
      </trkpt>
      <trkpt lat="49.80293" lon="4.80378">
        <ele>276</ele>
        <time>2020-11-13T07:19:14.000Z</time>
      </trkpt>
      <trkpt lat="49.80291" lon="4.80383">
        <ele>276</ele>
        <time>2020-11-13T07:19:15.000Z</time>
      </trkpt>
      <trkpt lat="49.80288" lon="4.80388">
        <ele>276</ele>
        <time>2020-11-13T07:19:16.000Z</time>
      </trkpt>
      <trkpt lat="49.80286" lon="4.80391">
        <ele>276</ele>
        <time>2020-11-13T07:19:17.000Z</time>
      </trkpt>
      <trkpt lat="49.80283" lon="4.80395">
        <ele>276</ele>
        <time>2020-11-13T07:19:18.000Z</time>
      </trkpt>
      <trkpt lat="49.80281" lon="4.80398">
        <ele>276</ele>
        <time>2020-11-13T07:19:19.000Z</time>
      </trkpt>
      <trkpt lat="49.8028" lon="4.80401">
        <ele>276</ele>
        <time>2020-11-13T07:19:20.000Z</time>
      </trkpt>
      <trkpt lat="49.80279" lon="4.80402">
        <ele>276</ele>
        <time>2020-11-13T07:19:21.000Z</time>
      </trkpt>
      <trkpt lat="49.80279" lon="4.80403">
        <ele>276</ele>
        <time>2020-11-13T07:19:22.000Z</time>
      </trkpt>
      <trkpt lat="49.80279" lon="4.80403">
        <ele>276</ele>
        <time>2020-11-13T07:19:23.000Z</time>
      </trkpt>
      <trkpt lat="49.80278" lon="4.80403">
        <ele>276</ele>
        <time>2020-11-13T07:19:24.000Z</time>
      </trkpt>
      <trkpt lat="49.80278" lon="4.80404">
        <ele>276</ele>
        <time>2020-11-13T07:19:25.000Z</time>
      </trkpt>
      <trkpt lat="49.80278" lon="4.80404">
        <ele>276</ele>
        <time>2020-11-13T07:19:26.000Z</time>
      </trkpt>
      <trkpt lat="49.80278" lon="4.80404">
        <ele>276</ele>
        <time>2020-11-13T07:19:27.000Z</time>
      </trkpt>
      <trkpt lat="49.80278" lon="4.80405">
        <ele>276</ele>
        <time>2020-11-13T07:19:28.000Z</time>
      </trkpt>
      <trkpt lat="49.80277" lon="4.80405">
        <ele>276</ele>
        <time>2020-11-13T07:19:29.000Z</time>
      </trkpt>
      <trkpt lat="49.80277" lon="4.80406">
        <ele>276</ele>
        <time>2020-11-13T07:19:30.000Z</time>
      </trkpt>
      <trkpt lat="49.80275" lon="4.80407">
        <ele>276</ele>
        <time>2020-11-13T07:19:31.000Z</time>
      </trkpt>
      <trkpt lat="49.80274" lon="4.80407">
        <ele>276</ele>
        <time>2020-11-13T07:19:32.000Z</time>
      </trkpt>
      <trkpt lat="49.80273" lon="4.80408">
        <ele>276</ele>
        <time>2020-11-13T07:19:33.000Z</time>
      </trkpt>
      <trkpt lat="49.80272" lon="4.80409">
        <ele>276</ele>
        <time>2020-11-13T07:19:34.000Z</time>
      </trkpt>
      <trkpt lat="49.80271" lon="4.8041">
        <ele>276</ele>
        <time>2020-11-13T07:19:35.000Z</time>
      </trkpt>
      <trkpt lat="49.8027" lon="4.80411">
        <ele>276</ele>
        <time>2020-11-13T07:19:36.000Z</time>
      </trkpt>
      <trkpt lat="49.8027" lon="4.80412">
        <ele>276</ele>
        <time>2020-11-13T07:19:37.000Z</time>
      </trkpt>
      <trkpt lat="49.8027" lon="4.80414">
        <ele>276</ele>
        <time>2020-11-13T07:19:38.000Z</time>
      </trkpt>
      <trkpt lat="49.80271" lon="4.80416">
        <ele>276</ele>
        <time>2020-11-13T07:19:39.000Z</time>
      </trkpt>
      <trkpt lat="49.80272" lon="4.80417">
        <ele>276</ele>
        <time>2020-11-13T07:19:40.000Z</time>
      </trkpt>
      <trkpt lat="49.80273" lon="4.80418">
        <ele>276</ele>
        <time>2020-11-13T07:19:41.000Z</time>
      </trkpt>
      <trkpt lat="49.80275" lon="4.80418">
        <ele>276</ele>
        <time>2020-11-13T07:19:42.000Z</time>
      </trkpt>
      <trkpt lat="49.80277" lon="4.8042">
        <ele>276</ele>
        <time>2020-11-13T07:19:43.000Z</time>
      </trkpt>
      <trkpt lat="49.8028" lon="4.8042">
        <ele>276</ele>
        <time>2020-11-13T07:19:44.000Z</time>
      </trkpt>
      <trkpt lat="49.80283" lon="4.80421">
        <ele>275</ele>
        <time>2020-11-13T07:19:45.000Z</time>
      </trkpt>
      <trkpt lat="49.80287" lon="4.80421">
        <ele>275</ele>
        <time>2020-11-13T07:19:46.000Z</time>
      </trkpt>
      <trkpt lat="49.8029" lon="4.80422">
        <ele>275</ele>
        <time>2020-11-13T07:19:47.000Z</time>
      </trkpt>
      <trkpt lat="49.80293" lon="4.80423">
        <ele>275</ele>
        <time>2020-11-13T07:19:48.000Z</time>
      </trkpt>
      <trkpt lat="49.80295" lon="4.80425">
        <ele>274</ele>
        <time>2020-11-13T07:19:49.000Z</time>
      </trkpt>
      <trkpt lat="49.80296" lon="4.80425">
        <ele>274</ele>
        <time>2020-11-13T07:19:50.000Z</time>
      </trkpt>
      <trkpt lat="49.80297" lon="4.80426">
        <ele>274</ele>
        <time>2020-11-13T07:19:51.000Z</time>
      </trkpt>
      <trkpt lat="49.80297" lon="4.80426">
        <ele>273</ele>
        <time>2020-11-13T07:19:52.000Z</time>
      </trkpt>
      <trkpt lat="49.80297" lon="4.80426">
        <ele>273</ele>
        <time>2020-11-13T07:19:53.000Z</time>
      </trkpt>
      <trkpt lat="49.80297" lon="4.80425">
        <ele>273</ele>
        <time>2020-11-13T07:19:54.000Z</time>
      </trkpt>
      <trkpt lat="49.80297" lon="4.80425">
        <ele>272</ele>
        <time>2020-11-13T07:19:55.000Z</time>
      </trkpt>
      <trkpt lat="49.80298" lon="4.80425">
        <ele>272</ele>
        <time>2020-11-13T07:19:56.000Z</time>
      </trkpt>
      <trkpt lat="49.80299" lon="4.80425">
        <ele>272</ele>
        <time>2020-11-13T07:19:57.000Z</time>
      </trkpt>
      <trkpt lat="49.803" lon="4.80425">
        <ele>271</ele>
        <time>2020-11-13T07:19:58.000Z</time>
      </trkpt>
      <trkpt lat="49.80301" lon="4.80425">
        <ele>271</ele>
        <time>2020-11-13T07:19:59.000Z</time>
      </trkpt>
      <trkpt lat="49.80302" lon="4.80425">
        <ele>271</ele>
        <time>2020-11-13T07:20:00.000Z</time>
      </trkpt>
      <trkpt lat="49.80302" lon="4.80425">
        <ele>271</ele>
        <time>2020-11-13T07:20:01.000Z</time>
      </trkpt>
      <trkpt lat="49.80302" lon="4.80425">
        <ele>271</ele>
        <time>2020-11-13T07:20:02.000Z</time>
      </trkpt>
      <trkpt lat="49.80302" lon="4.80425">
        <ele>270</ele>
        <time>2020-11-13T07:20:03.000Z</time>
      </trkpt>
      <trkpt lat="49.80304" lon="4.80426">
        <ele>270</ele>
        <time>2020-11-13T07:20:04.000Z</time>
      </trkpt>
      <trkpt lat="49.80305" lon="4.80426">
        <ele>270</ele>
        <time>2020-11-13T07:20:05.000Z</time>
      </trkpt>
      <trkpt lat="49.80306" lon="4.80426">
        <ele>270</ele>
        <time>2020-11-13T07:20:06.000Z</time>
      </trkpt>
      <trkpt lat="49.80307" lon="4.80427">
        <ele>270</ele>
        <time>2020-11-13T07:20:07.000Z</time>
      </trkpt>
      <trkpt lat="49.80309" lon="4.80428">
        <ele>270</ele>
        <time>2020-11-13T07:20:08.000Z</time>
      </trkpt>
      <trkpt lat="49.80311" lon="4.80428">
        <ele>270</ele>
        <time>2020-11-13T07:20:09.000Z</time>
      </trkpt>
      <trkpt lat="49.80313" lon="4.80428">
        <ele>270</ele>
        <time>2020-11-13T07:20:10.000Z</time>
      </trkpt>
      <trkpt lat="49.80315" lon="4.80428">
        <ele>269</ele>
        <time>2020-11-13T07:20:11.000Z</time>
      </trkpt>
      <trkpt lat="49.80317" lon="4.80428">
        <ele>269</ele>
        <time>2020-11-13T07:20:12.000Z</time>
      </trkpt>
      <trkpt lat="49.8032" lon="4.80428">
        <ele>269</ele>
        <time>2020-11-13T07:20:13.000Z</time>
      </trkpt>
      <trkpt lat="49.80323" lon="4.80428">
        <ele>269</ele>
        <time>2020-11-13T07:20:14.000Z</time>
      </trkpt>
      <trkpt lat="49.80325" lon="4.80429">
        <ele>269</ele>
        <time>2020-11-13T07:20:15.000Z</time>
      </trkpt>
      <trkpt lat="49.80328" lon="4.8043">
        <ele>269</ele>
        <time>2020-11-13T07:20:16.000Z</time>
      </trkpt>
      <trkpt lat="49.80329" lon="4.80431">
        <ele>269</ele>
        <time>2020-11-13T07:20:17.000Z</time>
      </trkpt>
      <trkpt lat="49.80331" lon="4.80432">
        <ele>269</ele>
        <time>2020-11-13T07:20:18.000Z</time>
      </trkpt>
      <trkpt lat="49.80332" lon="4.80433">
        <ele>268</ele>
        <time>2020-11-13T07:20:19.000Z</time>
      </trkpt>
      <trkpt lat="49.80334" lon="4.80434">
        <ele>268</ele>
        <time>2020-11-13T07:20:20.000Z</time>
      </trkpt>
      <trkpt lat="49.80335" lon="4.80435">
        <ele>268</ele>
        <time>2020-11-13T07:20:21.000Z</time>
      </trkpt>
      <trkpt lat="49.80337" lon="4.80435">
        <ele>268</ele>
        <time>2020-11-13T07:20:22.000Z</time>
      </trkpt>
      <trkpt lat="49.80339" lon="4.80435">
        <ele>268</ele>
        <time>2020-11-13T07:20:23.000Z</time>
      </trkpt>
      <trkpt lat="49.8034" lon="4.80436">
        <ele>267</ele>
        <time>2020-11-13T07:20:24.000Z</time>
      </trkpt>
      <trkpt lat="49.80342" lon="4.80436">
        <ele>267</ele>
        <time>2020-11-13T07:20:25.000Z</time>
      </trkpt>
      <trkpt lat="49.80343" lon="4.80436">
        <ele>267</ele>
        <time>2020-11-13T07:20:26.000Z</time>
      </trkpt>
      <trkpt lat="49.80345" lon="4.80437">
        <ele>267</ele>
        <time>2020-11-13T07:20:27.000Z</time>
      </trkpt>
      <trkpt lat="49.80347" lon="4.80437">
        <ele>266</ele>
        <time>2020-11-13T07:20:28.000Z</time>
      </trkpt>
      <trkpt lat="49.80349" lon="4.80438">
        <ele>266</ele>
        <time>2020-11-13T07:20:29.000Z</time>
      </trkpt>
      <trkpt lat="49.80351" lon="4.80439">
        <ele>266</ele>
        <time>2020-11-13T07:20:30.000Z</time>
      </trkpt>
      <trkpt lat="49.80353" lon="4.80439">
        <ele>265</ele>
        <time>2020-11-13T07:20:31.000Z</time>
      </trkpt>
      <trkpt lat="49.80355" lon="4.80439">
        <ele>265</ele>
        <time>2020-11-13T07:20:32.000Z</time>
      </trkpt>
      <trkpt lat="49.80357" lon="4.80439">
        <ele>265</ele>
        <time>2020-11-13T07:20:33.000Z</time>
      </trkpt>
      <trkpt lat="49.80359" lon="4.80439">
        <ele>264</ele>
        <time>2020-11-13T07:20:34.000Z</time>
      </trkpt>
      <trkpt lat="49.80362" lon="4.80439">
        <ele>264</ele>
        <time>2020-11-13T07:20:35.000Z</time>
      </trkpt>
      <trkpt lat="49.80364" lon="4.80439">
        <ele>263</ele>
        <time>2020-11-13T07:20:36.000Z</time>
      </trkpt>
      <trkpt lat="49.80366" lon="4.8044">
        <ele>263</ele>
        <time>2020-11-13T07:20:37.000Z</time>
      </trkpt>
      <trkpt lat="49.80369" lon="4.80441">
        <ele>262</ele>
        <time>2020-11-13T07:20:38.000Z</time>
      </trkpt>
      <trkpt lat="49.80371" lon="4.80443">
        <ele>262</ele>
        <time>2020-11-13T07:20:39.000Z</time>
      </trkpt>
      <trkpt lat="49.80374" lon="4.80445">
        <ele>262</ele>
        <time>2020-11-13T07:20:40.000Z</time>
      </trkpt>
      <trkpt lat="49.80377" lon="4.80446">
        <ele>261</ele>
        <time>2020-11-13T07:20:41.000Z</time>
      </trkpt>
      <trkpt lat="49.8038" lon="4.80447">
        <ele>261</ele>
        <time>2020-11-13T07:20:42.000Z</time>
      </trkpt>
      <trkpt lat="49.80382" lon="4.80447">
        <ele>261</ele>
        <time>2020-11-13T07:20:43.000Z</time>
      </trkpt>
      <trkpt lat="49.80385" lon="4.80446">
        <ele>260</ele>
        <time>2020-11-13T07:20:44.000Z</time>
      </trkpt>
      <trkpt lat="49.80388" lon="4.80445">
        <ele>260</ele>
        <time>2020-11-13T07:20:45.000Z</time>
      </trkpt>
      <trkpt lat="49.80391" lon="4.80442">
        <ele>260</ele>
        <time>2020-11-13T07:20:46.000Z</time>
      </trkpt>
      <trkpt lat="49.80394" lon="4.80441">
        <ele>259</ele>
        <time>2020-11-13T07:20:47.000Z</time>
      </trkpt>
      <trkpt lat="49.80398" lon="4.8044">
        <ele>259</ele>
        <time>2020-11-13T07:20:48.000Z</time>
      </trkpt>
      <trkpt lat="49.80402" lon="4.8044">
        <ele>258</ele>
        <time>2020-11-13T07:20:49.000Z</time>
      </trkpt>
      <trkpt lat="49.80406" lon="4.80439">
        <ele>258</ele>
        <time>2020-11-13T07:20:50.000Z</time>
      </trkpt>
      <trkpt lat="49.80409" lon="4.80439">
        <ele>257</ele>
        <time>2020-11-13T07:20:51.000Z</time>
      </trkpt>
      <trkpt lat="49.80412" lon="4.80438">
        <ele>257</ele>
        <time>2020-11-13T07:20:52.000Z</time>
      </trkpt>
      <trkpt lat="49.80414" lon="4.80438">
        <ele>256</ele>
        <time>2020-11-13T07:20:53.000Z</time>
      </trkpt>
      <trkpt lat="49.80416" lon="4.80438">
        <ele>256</ele>
        <time>2020-11-13T07:20:54.000Z</time>
      </trkpt>
      <trkpt lat="49.80419" lon="4.80437">
        <ele>255</ele>
        <time>2020-11-13T07:20:55.000Z</time>
      </trkpt>
      <trkpt lat="49.80423" lon="4.80436">
        <ele>255</ele>
        <time>2020-11-13T07:20:56.000Z</time>
      </trkpt>
      <trkpt lat="49.80427" lon="4.80435">
        <ele>254</ele>
        <time>2020-11-13T07:20:57.000Z</time>
      </trkpt>
      <trkpt lat="49.80429" lon="4.80435">
        <ele>254</ele>
        <time>2020-11-13T07:20:58.000Z</time>
      </trkpt>
      <trkpt lat="49.80433" lon="4.80434">
        <ele>254</ele>
        <time>2020-11-13T07:20:59.000Z</time>
      </trkpt>
      <trkpt lat="49.80436" lon="4.80433">
        <ele>253</ele>
        <time>2020-11-13T07:21:00.000Z</time>
      </trkpt>
      <trkpt lat="49.80439" lon="4.80433">
        <ele>253</ele>
        <time>2020-11-13T07:21:01.000Z</time>
      </trkpt>
      <trkpt lat="49.80443" lon="4.80432">
        <ele>252</ele>
        <time>2020-11-13T07:21:02.000Z</time>
      </trkpt>
      <trkpt lat="49.80447" lon="4.80432">
        <ele>252</ele>
        <time>2020-11-13T07:21:03.000Z</time>
      </trkpt>
      <trkpt lat="49.80452" lon="4.80431">
        <ele>251</ele>
        <time>2020-11-13T07:21:04.000Z</time>
      </trkpt>
      <trkpt lat="49.80457" lon="4.8043">
        <ele>251</ele>
        <time>2020-11-13T07:21:05.000Z</time>
      </trkpt>
      <trkpt lat="49.80461" lon="4.80429">
        <ele>251</ele>
        <time>2020-11-13T07:21:06.000Z</time>
      </trkpt>
      <trkpt lat="49.80465" lon="4.80427">
        <ele>250</ele>
        <time>2020-11-13T07:21:07.000Z</time>
      </trkpt>
      <trkpt lat="49.8047" lon="4.80425">
        <ele>250</ele>
        <time>2020-11-13T07:21:08.000Z</time>
      </trkpt>
      <trkpt lat="49.80477" lon="4.80423">
        <ele>249</ele>
        <time>2020-11-13T07:21:09.000Z</time>
      </trkpt>
      <trkpt lat="49.80484" lon="4.80421">
        <ele>249</ele>
        <time>2020-11-13T07:21:10.000Z</time>
      </trkpt>
      <trkpt lat="49.8049" lon="4.80419">
        <ele>248</ele>
        <time>2020-11-13T07:21:11.000Z</time>
      </trkpt>
      <trkpt lat="49.80496" lon="4.80417">
        <ele>248</ele>
        <time>2020-11-13T07:21:12.000Z</time>
      </trkpt>
      <trkpt lat="49.80502" lon="4.80415">
        <ele>247</ele>
        <time>2020-11-13T07:21:13.000Z</time>
      </trkpt>
      <trkpt lat="49.80508" lon="4.80413">
        <ele>247</ele>
        <time>2020-11-13T07:21:14.000Z</time>
      </trkpt>
      <trkpt lat="49.80513" lon="4.80412">
        <ele>246</ele>
        <time>2020-11-13T07:21:15.000Z</time>
      </trkpt>
      <trkpt lat="49.80517" lon="4.8041">
        <ele>246</ele>
        <time>2020-11-13T07:21:16.000Z</time>
      </trkpt>
      <trkpt lat="49.8052" lon="4.80407">
        <ele>245</ele>
        <time>2020-11-13T07:21:17.000Z</time>
      </trkpt>
      <trkpt lat="49.80523" lon="4.80404">
        <ele>245</ele>
        <time>2020-11-13T07:21:18.000Z</time>
      </trkpt>
      <trkpt lat="49.80525" lon="4.804">
        <ele>245</ele>
        <time>2020-11-13T07:21:19.000Z</time>
      </trkpt>
      <trkpt lat="49.80527" lon="4.80395">
        <ele>244</ele>
        <time>2020-11-13T07:21:20.000Z</time>
      </trkpt>
      <trkpt lat="49.8053" lon="4.80391">
        <ele>244</ele>
        <time>2020-11-13T07:21:21.000Z</time>
      </trkpt>
      <trkpt lat="49.80533" lon="4.80386">
        <ele>243</ele>
        <time>2020-11-13T07:21:22.000Z</time>
      </trkpt>
      <trkpt lat="49.80536" lon="4.8038">
        <ele>243</ele>
        <time>2020-11-13T07:21:23.000Z</time>
      </trkpt>
      <trkpt lat="49.80539" lon="4.80374">
        <ele>242</ele>
        <time>2020-11-13T07:21:24.000Z</time>
      </trkpt>
      <trkpt lat="49.80542" lon="4.80368">
        <ele>242</ele>
        <time>2020-11-13T07:21:25.000Z</time>
      </trkpt>
      <trkpt lat="49.80546" lon="4.80363">
        <ele>242</ele>
        <time>2020-11-13T07:21:26.000Z</time>
      </trkpt>
      <trkpt lat="49.8055" lon="4.80357">
        <ele>241</ele>
        <time>2020-11-13T07:21:27.000Z</time>
      </trkpt>
      <trkpt lat="49.80554" lon="4.80351">
        <ele>241</ele>
        <time>2020-11-13T07:21:28.000Z</time>
      </trkpt>
      <trkpt lat="49.80558" lon="4.80346">
        <ele>240</ele>
        <time>2020-11-13T07:21:29.000Z</time>
      </trkpt>
      <trkpt lat="49.80561" lon="4.8034">
        <ele>240</ele>
        <time>2020-11-13T07:21:30.000Z</time>
      </trkpt>
      <trkpt lat="49.80565" lon="4.80334">
        <ele>240</ele>
        <time>2020-11-13T07:21:31.000Z</time>
      </trkpt>
      <trkpt lat="49.80568" lon="4.80328">
        <ele>239</ele>
        <time>2020-11-13T07:21:32.000Z</time>
      </trkpt>
      <trkpt lat="49.80572" lon="4.80322">
        <ele>239</ele>
        <time>2020-11-13T07:21:33.000Z</time>
      </trkpt>
      <trkpt lat="49.80575" lon="4.80316">
        <ele>239</ele>
        <time>2020-11-13T07:21:34.000Z</time>
      </trkpt>
      <trkpt lat="49.80579" lon="4.8031">
        <ele>239</ele>
        <time>2020-11-13T07:21:35.000Z</time>
      </trkpt>
      <trkpt lat="49.80583" lon="4.80303">
        <ele>238</ele>
        <time>2020-11-13T07:21:36.000Z</time>
      </trkpt>
      <trkpt lat="49.80587" lon="4.80297">
        <ele>238</ele>
        <time>2020-11-13T07:21:37.000Z</time>
      </trkpt>
      <trkpt lat="49.80591" lon="4.80291">
        <ele>237</ele>
        <time>2020-11-13T07:21:38.000Z</time>
      </trkpt>
      <trkpt lat="49.80595" lon="4.80284">
        <ele>237</ele>
        <time>2020-11-13T07:21:39.000Z</time>
      </trkpt>
      <trkpt lat="49.806" lon="4.80277">
        <ele>236</ele>
        <time>2020-11-13T07:21:40.000Z</time>
      </trkpt>
      <trkpt lat="49.80603" lon="4.8027">
        <ele>235</ele>
        <time>2020-11-13T07:21:41.000Z</time>
      </trkpt>
      <trkpt lat="49.80607" lon="4.80263">
        <ele>235</ele>
        <time>2020-11-13T07:21:42.000Z</time>
      </trkpt>
      <trkpt lat="49.80611" lon="4.80258">
        <ele>234</ele>
        <time>2020-11-13T07:21:43.000Z</time>
      </trkpt>
      <trkpt lat="49.80614" lon="4.80252">
        <ele>234</ele>
        <time>2020-11-13T07:21:44.000Z</time>
      </trkpt>
      <trkpt lat="49.80618" lon="4.80245">
        <ele>233</ele>
        <time>2020-11-13T07:21:45.000Z</time>
      </trkpt>
      <trkpt lat="49.80623" lon="4.80239">
        <ele>232</ele>
        <time>2020-11-13T07:21:46.000Z</time>
      </trkpt>
      <trkpt lat="49.80627" lon="4.80232">
        <ele>232</ele>
        <time>2020-11-13T07:21:47.000Z</time>
      </trkpt>
      <trkpt lat="49.80632" lon="4.80225">
        <ele>231</ele>
        <time>2020-11-13T07:21:48.000Z</time>
      </trkpt>
      <trkpt lat="49.80637" lon="4.80218">
        <ele>230</ele>
        <time>2020-11-13T07:21:49.000Z</time>
      </trkpt>
      <trkpt lat="49.80643" lon="4.8021">
        <ele>229</ele>
        <time>2020-11-13T07:21:50.000Z</time>
      </trkpt>
      <trkpt lat="49.80648" lon="4.80202">
        <ele>229</ele>
        <time>2020-11-13T07:21:51.000Z</time>
      </trkpt>
      <trkpt lat="49.80654" lon="4.80194">
        <ele>228</ele>
        <time>2020-11-13T07:21:52.000Z</time>
      </trkpt>
      <trkpt lat="49.80659" lon="4.80187">
        <ele>227</ele>
        <time>2020-11-13T07:21:53.000Z</time>
      </trkpt>
      <trkpt lat="49.80665" lon="4.80179">
        <ele>226</ele>
        <time>2020-11-13T07:21:54.000Z</time>
      </trkpt>
      <trkpt lat="49.8067" lon="4.80173">
        <ele>225</ele>
        <time>2020-11-13T07:21:55.000Z</time>
      </trkpt>
      <trkpt lat="49.80675" lon="4.80166">
        <ele>224</ele>
        <time>2020-11-13T07:21:56.000Z</time>
      </trkpt>
      <trkpt lat="49.8068" lon="4.80159">
        <ele>223</ele>
        <time>2020-11-13T07:21:57.000Z</time>
      </trkpt>
      <trkpt lat="49.80684" lon="4.80154">
        <ele>223</ele>
        <time>2020-11-13T07:21:58.000Z</time>
      </trkpt>
      <trkpt lat="49.80688" lon="4.80148">
        <ele>222</ele>
        <time>2020-11-13T07:21:59.000Z</time>
      </trkpt>
      <trkpt lat="49.80692" lon="4.80142">
        <ele>221</ele>
        <time>2020-11-13T07:22:00.000Z</time>
      </trkpt>
      <trkpt lat="49.80697" lon="4.80136">
        <ele>220</ele>
        <time>2020-11-13T07:22:01.000Z</time>
      </trkpt>
      <trkpt lat="49.80701" lon="4.8013">
        <ele>219</ele>
        <time>2020-11-13T07:22:02.000Z</time>
      </trkpt>
      <trkpt lat="49.80707" lon="4.80124">
        <ele>218</ele>
        <time>2020-11-13T07:22:03.000Z</time>
      </trkpt>
      <trkpt lat="49.80713" lon="4.80119">
        <ele>217</ele>
        <time>2020-11-13T07:22:04.000Z</time>
      </trkpt>
      <trkpt lat="49.80719" lon="4.80114">
        <ele>216</ele>
        <time>2020-11-13T07:22:05.000Z</time>
      </trkpt>
      <trkpt lat="49.80725" lon="4.8011">
        <ele>215</ele>
        <time>2020-11-13T07:22:06.000Z</time>
      </trkpt>
      <trkpt lat="49.8073" lon="4.80107">
        <ele>214</ele>
        <time>2020-11-13T07:22:07.000Z</time>
      </trkpt>
      <trkpt lat="49.80736" lon="4.80106">
        <ele>213</ele>
        <time>2020-11-13T07:22:08.000Z</time>
      </trkpt>
      <trkpt lat="49.80742" lon="4.80104">
        <ele>212</ele>
        <time>2020-11-13T07:22:09.000Z</time>
      </trkpt>
      <trkpt lat="49.80748" lon="4.80102">
        <ele>211</ele>
        <time>2020-11-13T07:22:10.000Z</time>
      </trkpt>
      <trkpt lat="49.80753" lon="4.80097">
        <ele>210</ele>
        <time>2020-11-13T07:22:11.000Z</time>
      </trkpt>
      <trkpt lat="49.80757" lon="4.80091">
        <ele>210</ele>
        <time>2020-11-13T07:22:12.000Z</time>
      </trkpt>
      <trkpt lat="49.8076" lon="4.80084">
        <ele>209</ele>
        <time>2020-11-13T07:22:13.000Z</time>
      </trkpt>
      <trkpt lat="49.80764" lon="4.80076">
        <ele>209</ele>
        <time>2020-11-13T07:22:14.000Z</time>
      </trkpt>
      <trkpt lat="49.80767" lon="4.80067">
        <ele>208</ele>
        <time>2020-11-13T07:22:15.000Z</time>
      </trkpt>
      <trkpt lat="49.80771" lon="4.80058">
        <ele>207</ele>
        <time>2020-11-13T07:22:16.000Z</time>
      </trkpt>
      <trkpt lat="49.80774" lon="4.80048">
        <ele>207</ele>
        <time>2020-11-13T07:22:17.000Z</time>
      </trkpt>
      <trkpt lat="49.80777" lon="4.80038">
        <ele>206</ele>
        <time>2020-11-13T07:22:18.000Z</time>
      </trkpt>
      <trkpt lat="49.8078" lon="4.80028">
        <ele>206</ele>
        <time>2020-11-13T07:22:19.000Z</time>
      </trkpt>
      <trkpt lat="49.80784" lon="4.80018">
        <ele>205</ele>
        <time>2020-11-13T07:22:20.000Z</time>
      </trkpt>
      <trkpt lat="49.80787" lon="4.80008">
        <ele>205</ele>
        <time>2020-11-13T07:22:21.000Z</time>
      </trkpt>
      <trkpt lat="49.8079" lon="4.79997">
        <ele>204</ele>
        <time>2020-11-13T07:22:22.000Z</time>
      </trkpt>
      <trkpt lat="49.80793" lon="4.79986">
        <ele>204</ele>
        <time>2020-11-13T07:22:23.000Z</time>
      </trkpt>
      <trkpt lat="49.80796" lon="4.79976">
        <ele>204</ele>
        <time>2020-11-13T07:22:24.000Z</time>
      </trkpt>
      <trkpt lat="49.808" lon="4.79966">
        <ele>203</ele>
        <time>2020-11-13T07:22:25.000Z</time>
      </trkpt>
      <trkpt lat="49.80803" lon="4.79956">
        <ele>203</ele>
        <time>2020-11-13T07:22:26.000Z</time>
      </trkpt>
      <trkpt lat="49.80806" lon="4.79945">
        <ele>202</ele>
        <time>2020-11-13T07:22:27.000Z</time>
      </trkpt>
      <trkpt lat="49.8081" lon="4.79934">
        <ele>201</ele>
        <time>2020-11-13T07:22:28.000Z</time>
      </trkpt>
      <trkpt lat="49.80814" lon="4.79923">
        <ele>201</ele>
        <time>2020-11-13T07:22:29.000Z</time>
      </trkpt>
      <trkpt lat="49.80819" lon="4.79912">
        <ele>200</ele>
        <time>2020-11-13T07:22:30.000Z</time>
      </trkpt>
      <trkpt lat="49.80823" lon="4.79902">
        <ele>199</ele>
        <time>2020-11-13T07:22:31.000Z</time>
      </trkpt>
      <trkpt lat="49.80829" lon="4.79892">
        <ele>198</ele>
        <time>2020-11-13T07:22:32.000Z</time>
      </trkpt>
      <trkpt lat="49.80834" lon="4.79883">
        <ele>197</ele>
        <time>2020-11-13T07:22:33.000Z</time>
      </trkpt>
      <trkpt lat="49.8084" lon="4.79874">
        <ele>197</ele>
        <time>2020-11-13T07:22:34.000Z</time>
      </trkpt>
      <trkpt lat="49.80847" lon="4.79866">
        <ele>195</ele>
        <time>2020-11-13T07:22:35.000Z</time>
      </trkpt>
      <trkpt lat="49.80855" lon="4.79858">
        <ele>194</ele>
        <time>2020-11-13T07:22:36.000Z</time>
      </trkpt>
      <trkpt lat="49.80863" lon="4.7985">
        <ele>193</ele>
        <time>2020-11-13T07:22:37.000Z</time>
      </trkpt>
      <trkpt lat="49.80871" lon="4.79843">
        <ele>192</ele>
        <time>2020-11-13T07:22:38.000Z</time>
      </trkpt>
      <trkpt lat="49.80879" lon="4.79836">
        <ele>191</ele>
        <time>2020-11-13T07:22:39.000Z</time>
      </trkpt>
      <trkpt lat="49.80887" lon="4.79829">
        <ele>190</ele>
        <time>2020-11-13T07:22:40.000Z</time>
      </trkpt>
      <trkpt lat="49.80896" lon="4.79823">
        <ele>189</ele>
        <time>2020-11-13T07:22:41.000Z</time>
      </trkpt>
      <trkpt lat="49.80904" lon="4.79815">
        <ele>187</ele>
        <time>2020-11-13T07:22:42.000Z</time>
      </trkpt>
      <trkpt lat="49.80912" lon="4.79807">
        <ele>186</ele>
        <time>2020-11-13T07:22:43.000Z</time>
      </trkpt>
      <trkpt lat="49.80919" lon="4.79799">
        <ele>184</ele>
        <time>2020-11-13T07:22:44.000Z</time>
      </trkpt>
      <trkpt lat="49.80927" lon="4.79792">
        <ele>183</ele>
        <time>2020-11-13T07:22:45.000Z</time>
      </trkpt>
      <trkpt lat="49.80934" lon="4.79786">
        <ele>182</ele>
        <time>2020-11-13T07:22:46.000Z</time>
      </trkpt>
      <trkpt lat="49.80941" lon="4.7978">
        <ele>181</ele>
        <time>2020-11-13T07:22:47.000Z</time>
      </trkpt>
      <trkpt lat="49.80948" lon="4.79775">
        <ele>181</ele>
        <time>2020-11-13T07:22:48.000Z</time>
      </trkpt>
      <trkpt lat="49.80955" lon="4.79771">
        <ele>180</ele>
        <time>2020-11-13T07:22:49.000Z</time>
      </trkpt>
      <trkpt lat="49.80962" lon="4.79768">
        <ele>180</ele>
        <time>2020-11-13T07:22:50.000Z</time>
      </trkpt>
      <trkpt lat="49.80968" lon="4.79766">
        <ele>180</ele>
        <time>2020-11-13T07:22:51.000Z</time>
      </trkpt>
      <trkpt lat="49.80974" lon="4.79762">
        <ele>179</ele>
        <time>2020-11-13T07:22:52.000Z</time>
      </trkpt>
      <trkpt lat="49.8098" lon="4.79756">
        <ele>179</ele>
        <time>2020-11-13T07:22:53.000Z</time>
      </trkpt>
      <trkpt lat="49.80985" lon="4.7975">
        <ele>179</ele>
        <time>2020-11-13T07:22:54.000Z</time>
      </trkpt>
      <trkpt lat="49.8099" lon="4.79745">
        <ele>179</ele>
        <time>2020-11-13T07:22:55.000Z</time>
      </trkpt>
      <trkpt lat="49.80996" lon="4.79741">
        <ele>179</ele>
        <time>2020-11-13T07:22:56.000Z</time>
      </trkpt>
      <trkpt lat="49.81001" lon="4.79736">
        <ele>179</ele>
        <time>2020-11-13T07:22:57.000Z</time>
      </trkpt>
      <trkpt lat="49.81006" lon="4.79731">
        <ele>179</ele>
        <time>2020-11-13T07:22:58.000Z</time>
      </trkpt>
      <trkpt lat="49.81011" lon="4.79727">
        <ele>179</ele>
        <time>2020-11-13T07:22:59.000Z</time>
      </trkpt>
      <trkpt lat="49.81016" lon="4.79725">
        <ele>179</ele>
        <time>2020-11-13T07:23:00.000Z</time>
      </trkpt>
      <trkpt lat="49.81021" lon="4.79727">
        <ele>179</ele>
        <time>2020-11-13T07:23:01.000Z</time>
      </trkpt>
      <trkpt lat="49.81025" lon="4.79733">
        <ele>178</ele>
        <time>2020-11-13T07:23:02.000Z</time>
      </trkpt>
      <trkpt lat="49.81029" lon="4.79739">
        <ele>178</ele>
        <time>2020-11-13T07:23:03.000Z</time>
      </trkpt>
      <trkpt lat="49.81033" lon="4.79746">
        <ele>178</ele>
        <time>2020-11-13T07:23:04.000Z</time>
      </trkpt>
      <trkpt lat="49.81038" lon="4.79752">
        <ele>178</ele>
        <time>2020-11-13T07:23:05.000Z</time>
      </trkpt>
      <trkpt lat="49.81042" lon="4.79759">
        <ele>178</ele>
        <time>2020-11-13T07:23:06.000Z</time>
      </trkpt>
      <trkpt lat="49.81047" lon="4.79766">
        <ele>178</ele>
        <time>2020-11-13T07:23:07.000Z</time>
      </trkpt>
      <trkpt lat="49.81051" lon="4.79774">
        <ele>178</ele>
        <time>2020-11-13T07:23:08.000Z</time>
      </trkpt>
      <trkpt lat="49.81055" lon="4.79783">
        <ele>178</ele>
        <time>2020-11-13T07:23:09.000Z</time>
      </trkpt>
      <trkpt lat="49.81059" lon="4.79792">
        <ele>178</ele>
        <time>2020-11-13T07:23:10.000Z</time>
      </trkpt>
      <trkpt lat="49.81063" lon="4.798">
        <ele>178</ele>
        <time>2020-11-13T07:23:11.000Z</time>
      </trkpt>
      <trkpt lat="49.81066" lon="4.79809">
        <ele>178</ele>
        <time>2020-11-13T07:23:12.000Z</time>
      </trkpt>
      <trkpt lat="49.8107" lon="4.79818">
        <ele>178</ele>
        <time>2020-11-13T07:23:13.000Z</time>
      </trkpt>
      <trkpt lat="49.81073" lon="4.79826">
        <ele>178</ele>
        <time>2020-11-13T07:23:14.000Z</time>
      </trkpt>
      <trkpt lat="49.81076" lon="4.79835">
        <ele>177</ele>
        <time>2020-11-13T07:23:15.000Z</time>
      </trkpt>
      <trkpt lat="49.8108" lon="4.79844">
        <ele>177</ele>
        <time>2020-11-13T07:23:16.000Z</time>
      </trkpt>
      <trkpt lat="49.81083" lon="4.79852">
        <ele>177</ele>
        <time>2020-11-13T07:23:17.000Z</time>
      </trkpt>
      <trkpt lat="49.81087" lon="4.79861">
        <ele>177</ele>
        <time>2020-11-13T07:23:18.000Z</time>
      </trkpt>
      <trkpt lat="49.8109" lon="4.79869">
        <ele>177</ele>
        <time>2020-11-13T07:23:19.000Z</time>
      </trkpt>
      <trkpt lat="49.81094" lon="4.79877">
        <ele>177</ele>
        <time>2020-11-13T07:23:20.000Z</time>
      </trkpt>
      <trkpt lat="49.81097" lon="4.79884">
        <ele>177</ele>
        <time>2020-11-13T07:23:21.000Z</time>
      </trkpt>
      <trkpt lat="49.81101" lon="4.79893">
        <ele>177</ele>
        <time>2020-11-13T07:23:22.000Z</time>
      </trkpt>
      <trkpt lat="49.81104" lon="4.79901">
        <ele>177</ele>
        <time>2020-11-13T07:23:23.000Z</time>
      </trkpt>
      <trkpt lat="49.81108" lon="4.79908">
        <ele>176</ele>
        <time>2020-11-13T07:23:24.000Z</time>
      </trkpt>
      <trkpt lat="49.81111" lon="4.79916">
        <ele>176</ele>
        <time>2020-11-13T07:23:25.000Z</time>
      </trkpt>
      <trkpt lat="49.81115" lon="4.79924">
        <ele>176</ele>
        <time>2020-11-13T07:23:26.000Z</time>
      </trkpt>
      <trkpt lat="49.81119" lon="4.79931">
        <ele>176</ele>
        <time>2020-11-13T07:23:27.000Z</time>
      </trkpt>
      <trkpt lat="49.81123" lon="4.79938">
        <ele>176</ele>
        <time>2020-11-13T07:23:28.000Z</time>
      </trkpt>
      <trkpt lat="49.81128" lon="4.79944">
        <ele>176</ele>
        <time>2020-11-13T07:23:29.000Z</time>
      </trkpt>
      <trkpt lat="49.81133" lon="4.7995">
        <ele>175</ele>
        <time>2020-11-13T07:23:30.000Z</time>
      </trkpt>
      <trkpt lat="49.81137" lon="4.79957">
        <ele>175</ele>
        <time>2020-11-13T07:23:31.000Z</time>
      </trkpt>
      <trkpt lat="49.81141" lon="4.79963">
        <ele>175</ele>
        <time>2020-11-13T07:23:32.000Z</time>
      </trkpt>
      <trkpt lat="49.81144" lon="4.79971">
        <ele>175</ele>
        <time>2020-11-13T07:23:33.000Z</time>
      </trkpt>
      <trkpt lat="49.81146" lon="4.79978">
        <ele>175</ele>
        <time>2020-11-13T07:23:34.000Z</time>
      </trkpt>
      <trkpt lat="49.81147" lon="4.79985">
        <ele>175</ele>
        <time>2020-11-13T07:23:35.000Z</time>
      </trkpt>
      <trkpt lat="49.81148" lon="4.79992">
        <ele>175</ele>
        <time>2020-11-13T07:23:36.000Z</time>
      </trkpt>
      <trkpt lat="49.81148" lon="4.79998">
        <ele>175</ele>
        <time>2020-11-13T07:23:37.000Z</time>
      </trkpt>
      <trkpt lat="49.81149" lon="4.80004">
        <ele>175</ele>
        <time>2020-11-13T07:23:38.000Z</time>
      </trkpt>
      <trkpt lat="49.81149" lon="4.80009">
        <ele>175</ele>
        <time>2020-11-13T07:23:39.000Z</time>
      </trkpt>
      <trkpt lat="49.8115" lon="4.80013">
        <ele>176</ele>
        <time>2020-11-13T07:23:40.000Z</time>
      </trkpt>
      <trkpt lat="49.8115" lon="4.80016">
        <ele>176</ele>
        <time>2020-11-13T07:23:41.000Z</time>
      </trkpt>
      <trkpt lat="49.8115" lon="4.80019">
        <ele>176</ele>
        <time>2020-11-13T07:23:42.000Z</time>
      </trkpt>
      <trkpt lat="49.8115" lon="4.80021">
        <ele>176</ele>
        <time>2020-11-13T07:23:43.000Z</time>
      </trkpt>
      <trkpt lat="49.81149" lon="4.80023">
        <ele>176</ele>
        <time>2020-11-13T07:23:44.000Z</time>
      </trkpt>
      <trkpt lat="49.81149" lon="4.80026">
        <ele>176</ele>
        <time>2020-11-13T07:23:45.000Z</time>
      </trkpt>
      <trkpt lat="49.81149" lon="4.80029">
        <ele>176</ele>
        <time>2020-11-13T07:23:46.000Z</time>
      </trkpt>
      <trkpt lat="49.81148" lon="4.80032">
        <ele>176</ele>
        <time>2020-11-13T07:23:47.000Z</time>
      </trkpt>
      <trkpt lat="49.81148" lon="4.80036">
        <ele>176</ele>
        <time>2020-11-13T07:23:48.000Z</time>
      </trkpt>
      <trkpt lat="49.81148" lon="4.80039">
        <ele>176</ele>
        <time>2020-11-13T07:23:49.000Z</time>
      </trkpt>
      <trkpt lat="49.81147" lon="4.80042">
        <ele>176</ele>
        <time>2020-11-13T07:23:50.000Z</time>
      </trkpt>
      <trkpt lat="49.81147" lon="4.80046">
        <ele>176</ele>
        <time>2020-11-13T07:23:51.000Z</time>
      </trkpt>
      <trkpt lat="49.81146" lon="4.80049">
        <ele>177</ele>
        <time>2020-11-13T07:23:52.000Z</time>
      </trkpt>
      <trkpt lat="49.81146" lon="4.80053">
        <ele>177</ele>
        <time>2020-11-13T07:23:53.000Z</time>
      </trkpt>
      <trkpt lat="49.81146" lon="4.80057">
        <ele>177</ele>
        <time>2020-11-13T07:23:54.000Z</time>
      </trkpt>
      <trkpt lat="49.81145" lon="4.8006">
        <ele>177</ele>
        <time>2020-11-13T07:23:55.000Z</time>
      </trkpt>
      <trkpt lat="49.81145" lon="4.80064">
        <ele>177</ele>
        <time>2020-11-13T07:23:56.000Z</time>
      </trkpt>
      <trkpt lat="49.81145" lon="4.80068">
        <ele>177</ele>
        <time>2020-11-13T07:23:57.000Z</time>
      </trkpt>
      <trkpt lat="49.81144" lon="4.8007">
        <ele>177</ele>
        <time>2020-11-13T07:23:58.000Z</time>
      </trkpt>
      <trkpt lat="49.81144" lon="4.80072">
        <ele>177</ele>
        <time>2020-11-13T07:23:59.000Z</time>
      </trkpt>
      <trkpt lat="49.81144" lon="4.80076">
        <ele>177</ele>
        <time>2020-11-13T07:24:00.000Z</time>
      </trkpt>
      <trkpt lat="49.81143" lon="4.8008">
        <ele>177</ele>
        <time>2020-11-13T07:24:01.000Z</time>
      </trkpt>
      <trkpt lat="49.81142" lon="4.80083">
        <ele>177</ele>
        <time>2020-11-13T07:24:02.000Z</time>
      </trkpt>
      <trkpt lat="49.81141" lon="4.80086">
        <ele>178</ele>
        <time>2020-11-13T07:24:03.000Z</time>
      </trkpt>
      <trkpt lat="49.81141" lon="4.8009">
        <ele>178</ele>
        <time>2020-11-13T07:24:04.000Z</time>
      </trkpt>
      <trkpt lat="49.8114" lon="4.80094">
        <ele>178</ele>
        <time>2020-11-13T07:24:05.000Z</time>
      </trkpt>
      <trkpt lat="49.8114" lon="4.80097">
        <ele>178</ele>
        <time>2020-11-13T07:24:06.000Z</time>
      </trkpt>
      <trkpt lat="49.8114" lon="4.80101">
        <ele>178</ele>
        <time>2020-11-13T07:24:07.000Z</time>
      </trkpt>
      <trkpt lat="49.8114" lon="4.80105">
        <ele>179</ele>
        <time>2020-11-13T07:24:08.000Z</time>
      </trkpt>
      <trkpt lat="49.8114" lon="4.80108">
        <ele>179</ele>
        <time>2020-11-13T07:24:09.000Z</time>
      </trkpt>
      <trkpt lat="49.81139" lon="4.80112">
        <ele>179</ele>
        <time>2020-11-13T07:24:10.000Z</time>
      </trkpt>
      <trkpt lat="49.81139" lon="4.80115">
        <ele>179</ele>
        <time>2020-11-13T07:24:11.000Z</time>
      </trkpt>
      <trkpt lat="49.81139" lon="4.80119">
        <ele>179</ele>
        <time>2020-11-13T07:24:12.000Z</time>
      </trkpt>
      <trkpt lat="49.81139" lon="4.80122">
        <ele>179</ele>
        <time>2020-11-13T07:24:13.000Z</time>
      </trkpt>
      <trkpt lat="49.81139" lon="4.80125">
        <ele>179</ele>
        <time>2020-11-13T07:24:14.000Z</time>
      </trkpt>
      <trkpt lat="49.81139" lon="4.80129">
        <ele>180</ele>
        <time>2020-11-13T07:24:15.000Z</time>
      </trkpt>
      <trkpt lat="49.81139" lon="4.80132">
        <ele>180</ele>
        <time>2020-11-13T07:24:16.000Z</time>
      </trkpt>
      <trkpt lat="49.81139" lon="4.80136">
        <ele>180</ele>
        <time>2020-11-13T07:24:17.000Z</time>
      </trkpt>
      <trkpt lat="49.81139" lon="4.80139">
        <ele>180</ele>
        <time>2020-11-13T07:24:18.000Z</time>
      </trkpt>
      <trkpt lat="49.81139" lon="4.80142">
        <ele>180</ele>
        <time>2020-11-13T07:24:19.000Z</time>
      </trkpt>
      <trkpt lat="49.81138" lon="4.80146">
        <ele>181</ele>
        <time>2020-11-13T07:24:20.000Z</time>
      </trkpt>
      <trkpt lat="49.81138" lon="4.8015">
        <ele>181</ele>
        <time>2020-11-13T07:24:21.000Z</time>
      </trkpt>
      <trkpt lat="49.81138" lon="4.80154">
        <ele>181</ele>
        <time>2020-11-13T07:24:22.000Z</time>
      </trkpt>
      <trkpt lat="49.81137" lon="4.80158">
        <ele>181</ele>
        <time>2020-11-13T07:24:23.000Z</time>
      </trkpt>
      <trkpt lat="49.81137" lon="4.80161">
        <ele>182</ele>
        <time>2020-11-13T07:24:24.000Z</time>
      </trkpt>
      <trkpt lat="49.81137" lon="4.80165">
        <ele>182</ele>
        <time>2020-11-13T07:24:25.000Z</time>
      </trkpt>
      <trkpt lat="49.81137" lon="4.80167">
        <ele>182</ele>
        <time>2020-11-13T07:24:26.000Z</time>
      </trkpt>
      <trkpt lat="49.81137" lon="4.80171">
        <ele>182</ele>
        <time>2020-11-13T07:24:27.000Z</time>
      </trkpt>
      <trkpt lat="49.81137" lon="4.80175">
        <ele>182</ele>
        <time>2020-11-13T07:24:28.000Z</time>
      </trkpt>
      <trkpt lat="49.81137" lon="4.80179">
        <ele>182</ele>
        <time>2020-11-13T07:24:29.000Z</time>
      </trkpt>
      <trkpt lat="49.81138" lon="4.80182">
        <ele>183</ele>
        <time>2020-11-13T07:24:30.000Z</time>
      </trkpt>
      <trkpt lat="49.81137" lon="4.80186">
        <ele>183</ele>
        <time>2020-11-13T07:24:31.000Z</time>
      </trkpt>
      <trkpt lat="49.81137" lon="4.8019">
        <ele>183</ele>
        <time>2020-11-13T07:24:32.000Z</time>
      </trkpt>
      <trkpt lat="49.81136" lon="4.80194">
        <ele>183</ele>
        <time>2020-11-13T07:24:33.000Z</time>
      </trkpt>
      <trkpt lat="49.81136" lon="4.80198">
        <ele>183</ele>
        <time>2020-11-13T07:24:34.000Z</time>
      </trkpt>
      <trkpt lat="49.81136" lon="4.80202">
        <ele>184</ele>
        <time>2020-11-13T07:24:35.000Z</time>
      </trkpt>
      <trkpt lat="49.81136" lon="4.80207">
        <ele>184</ele>
        <time>2020-11-13T07:24:36.000Z</time>
      </trkpt>
      <trkpt lat="49.81136" lon="4.80211">
        <ele>184</ele>
        <time>2020-11-13T07:24:37.000Z</time>
      </trkpt>
      <trkpt lat="49.81136" lon="4.80215">
        <ele>184</ele>
        <time>2020-11-13T07:24:38.000Z</time>
      </trkpt>
      <trkpt lat="49.81136" lon="4.80219">
        <ele>184</ele>
        <time>2020-11-13T07:24:39.000Z</time>
      </trkpt>
      <trkpt lat="49.81136" lon="4.80222">
        <ele>185</ele>
        <time>2020-11-13T07:24:40.000Z</time>
      </trkpt>
      <trkpt lat="49.81136" lon="4.80226">
        <ele>185</ele>
        <time>2020-11-13T07:24:41.000Z</time>
      </trkpt>
      <trkpt lat="49.81137" lon="4.8023">
        <ele>185</ele>
        <time>2020-11-13T07:24:42.000Z</time>
      </trkpt>
      <trkpt lat="49.81138" lon="4.80234">
        <ele>185</ele>
        <time>2020-11-13T07:24:43.000Z</time>
      </trkpt>
      <trkpt lat="49.81139" lon="4.80238">
        <ele>185</ele>
        <time>2020-11-13T07:24:44.000Z</time>
      </trkpt>
      <trkpt lat="49.8114" lon="4.80241">
        <ele>185</ele>
        <time>2020-11-13T07:24:45.000Z</time>
      </trkpt>
      <trkpt lat="49.81141" lon="4.80245">
        <ele>185</ele>
        <time>2020-11-13T07:24:46.000Z</time>
      </trkpt>
      <trkpt lat="49.81141" lon="4.80249">
        <ele>186</ele>
        <time>2020-11-13T07:24:47.000Z</time>
      </trkpt>
      <trkpt lat="49.81141" lon="4.80252">
        <ele>186</ele>
        <time>2020-11-13T07:24:48.000Z</time>
      </trkpt>
      <trkpt lat="49.81141" lon="4.80256">
        <ele>186</ele>
        <time>2020-11-13T07:24:49.000Z</time>
      </trkpt>
      <trkpt lat="49.81141" lon="4.8026">
        <ele>186</ele>
        <time>2020-11-13T07:24:50.000Z</time>
      </trkpt>
      <trkpt lat="49.81141" lon="4.80264">
        <ele>186</ele>
        <time>2020-11-13T07:24:51.000Z</time>
      </trkpt>
      <trkpt lat="49.81142" lon="4.80268">
        <ele>186</ele>
        <time>2020-11-13T07:24:52.000Z</time>
      </trkpt>
      <trkpt lat="49.81142" lon="4.80271">
        <ele>186</ele>
        <time>2020-11-13T07:24:53.000Z</time>
      </trkpt>
      <trkpt lat="49.81142" lon="4.80275">
        <ele>186</ele>
        <time>2020-11-13T07:24:54.000Z</time>
      </trkpt>
      <trkpt lat="49.81143" lon="4.80278">
        <ele>186</ele>
        <time>2020-11-13T07:24:55.000Z</time>
      </trkpt>
      <trkpt lat="49.81143" lon="4.80283">
        <ele>187</ele>
        <time>2020-11-13T07:24:56.000Z</time>
      </trkpt>
      <trkpt lat="49.81143" lon="4.80287">
        <ele>187</ele>
        <time>2020-11-13T07:24:57.000Z</time>
      </trkpt>
      <trkpt lat="49.81143" lon="4.80291">
        <ele>187</ele>
        <time>2020-11-13T07:24:58.000Z</time>
      </trkpt>
      <trkpt lat="49.81143" lon="4.80295">
        <ele>187</ele>
        <time>2020-11-13T07:24:59.000Z</time>
      </trkpt>
      <trkpt lat="49.81143" lon="4.80298">
        <ele>187</ele>
        <time>2020-11-13T07:25:00.000Z</time>
      </trkpt>
      <trkpt lat="49.81143" lon="4.80302">
        <ele>188</ele>
        <time>2020-11-13T07:25:01.000Z</time>
      </trkpt>
      <trkpt lat="49.81143" lon="4.80306">
        <ele>188</ele>
        <time>2020-11-13T07:25:02.000Z</time>
      </trkpt>
      <trkpt lat="49.81143" lon="4.8031">
        <ele>188</ele>
        <time>2020-11-13T07:25:03.000Z</time>
      </trkpt>
      <trkpt lat="49.81143" lon="4.80314">
        <ele>188</ele>
        <time>2020-11-13T07:25:04.000Z</time>
      </trkpt>
      <trkpt lat="49.81143" lon="4.80318">
        <ele>188</ele>
        <time>2020-11-13T07:25:05.000Z</time>
      </trkpt>
      <trkpt lat="49.81143" lon="4.80322">
        <ele>189</ele>
        <time>2020-11-13T07:25:06.000Z</time>
      </trkpt>
      <trkpt lat="49.81142" lon="4.80325">
        <ele>189</ele>
        <time>2020-11-13T07:25:07.000Z</time>
      </trkpt>
      <trkpt lat="49.81142" lon="4.80329">
        <ele>189</ele>
        <time>2020-11-13T07:25:08.000Z</time>
      </trkpt>
      <trkpt lat="49.81142" lon="4.80332">
        <ele>189</ele>
        <time>2020-11-13T07:25:09.000Z</time>
      </trkpt>
      <trkpt lat="49.81142" lon="4.80335">
        <ele>189</ele>
        <time>2020-11-13T07:25:10.000Z</time>
      </trkpt>
      <trkpt lat="49.81143" lon="4.80338">
        <ele>190</ele>
        <time>2020-11-13T07:25:11.000Z</time>
      </trkpt>
      <trkpt lat="49.81143" lon="4.80341">
        <ele>190</ele>
        <time>2020-11-13T07:25:12.000Z</time>
      </trkpt>
      <trkpt lat="49.81143" lon="4.80345">
        <ele>190</ele>
        <time>2020-11-13T07:25:13.000Z</time>
      </trkpt>
      <trkpt lat="49.81143" lon="4.80349">
        <ele>190</ele>
        <time>2020-11-13T07:25:14.000Z</time>
      </trkpt>
      <trkpt lat="49.81144" lon="4.80353">
        <ele>191</ele>
        <time>2020-11-13T07:25:15.000Z</time>
      </trkpt>
      <trkpt lat="49.81144" lon="4.80357">
        <ele>191</ele>
        <time>2020-11-13T07:25:16.000Z</time>
      </trkpt>
      <trkpt lat="49.81144" lon="4.8036">
        <ele>192</ele>
        <time>2020-11-13T07:25:17.000Z</time>
      </trkpt>
      <trkpt lat="49.81145" lon="4.80363">
        <ele>192</ele>
        <time>2020-11-13T07:25:18.000Z</time>
      </trkpt>
      <trkpt lat="49.81145" lon="4.80367">
        <ele>193</ele>
        <time>2020-11-13T07:25:19.000Z</time>
      </trkpt>
      <trkpt lat="49.81146" lon="4.80371">
        <ele>193</ele>
        <time>2020-11-13T07:25:20.000Z</time>
      </trkpt>
      <trkpt lat="49.81147" lon="4.80374">
        <ele>193</ele>
        <time>2020-11-13T07:25:21.000Z</time>
      </trkpt>
      <trkpt lat="49.81147" lon="4.80378">
        <ele>194</ele>
        <time>2020-11-13T07:25:22.000Z</time>
      </trkpt>
      <trkpt lat="49.81148" lon="4.80381">
        <ele>194</ele>
        <time>2020-11-13T07:25:23.000Z</time>
      </trkpt>
      <trkpt lat="49.81149" lon="4.80384">
        <ele>195</ele>
        <time>2020-11-13T07:25:24.000Z</time>
      </trkpt>
      <trkpt lat="49.81149" lon="4.80387">
        <ele>195</ele>
        <time>2020-11-13T07:25:25.000Z</time>
      </trkpt>
      <trkpt lat="49.8115" lon="4.80391">
        <ele>195</ele>
        <time>2020-11-13T07:25:26.000Z</time>
      </trkpt>
      <trkpt lat="49.8115" lon="4.80394">
        <ele>195</ele>
        <time>2020-11-13T07:25:27.000Z</time>
      </trkpt>
      <trkpt lat="49.81151" lon="4.80398">
        <ele>196</ele>
        <time>2020-11-13T07:25:28.000Z</time>
      </trkpt>
      <trkpt lat="49.81152" lon="4.80402">
        <ele>196</ele>
        <time>2020-11-13T07:25:29.000Z</time>
      </trkpt>
      <trkpt lat="49.81153" lon="4.80406">
        <ele>196</ele>
        <time>2020-11-13T07:25:30.000Z</time>
      </trkpt>
      <trkpt lat="49.81153" lon="4.8041">
        <ele>197</ele>
        <time>2020-11-13T07:25:31.000Z</time>
      </trkpt>
      <trkpt lat="49.81154" lon="4.80413">
        <ele>197</ele>
        <time>2020-11-13T07:25:32.000Z</time>
      </trkpt>
      <trkpt lat="49.81154" lon="4.80417">
        <ele>197</ele>
        <time>2020-11-13T07:25:33.000Z</time>
      </trkpt>
      <trkpt lat="49.81155" lon="4.8042">
        <ele>198</ele>
        <time>2020-11-13T07:25:34.000Z</time>
      </trkpt>
      <trkpt lat="49.81156" lon="4.80423">
        <ele>198</ele>
        <time>2020-11-13T07:25:35.000Z</time>
      </trkpt>
      <trkpt lat="49.81157" lon="4.80427">
        <ele>199</ele>
        <time>2020-11-13T07:25:36.000Z</time>
      </trkpt>
      <trkpt lat="49.81157" lon="4.80431">
        <ele>199</ele>
        <time>2020-11-13T07:25:37.000Z</time>
      </trkpt>
      <trkpt lat="49.81157" lon="4.80435">
        <ele>200</ele>
        <time>2020-11-13T07:25:38.000Z</time>
      </trkpt>
      <trkpt lat="49.81157" lon="4.80438">
        <ele>200</ele>
        <time>2020-11-13T07:25:39.000Z</time>
      </trkpt>
      <trkpt lat="49.81158" lon="4.80442">
        <ele>200</ele>
        <time>2020-11-13T07:25:40.000Z</time>
      </trkpt>
      <trkpt lat="49.81158" lon="4.80446">
        <ele>201</ele>
        <time>2020-11-13T07:25:41.000Z</time>
      </trkpt>
      <trkpt lat="49.81158" lon="4.80449">
        <ele>201</ele>
        <time>2020-11-13T07:25:42.000Z</time>
      </trkpt>
      <trkpt lat="49.81158" lon="4.80452">
        <ele>202</ele>
        <time>2020-11-13T07:25:43.000Z</time>
      </trkpt>
      <trkpt lat="49.81158" lon="4.80455">
        <ele>202</ele>
        <time>2020-11-13T07:25:44.000Z</time>
      </trkpt>
      <trkpt lat="49.81157" lon="4.80459">
        <ele>203</ele>
        <time>2020-11-13T07:25:45.000Z</time>
      </trkpt>
      <trkpt lat="49.81157" lon="4.80462">
        <ele>203</ele>
        <time>2020-11-13T07:25:46.000Z</time>
      </trkpt>
      <trkpt lat="49.81157" lon="4.80466">
        <ele>203</ele>
        <time>2020-11-13T07:25:47.000Z</time>
      </trkpt>
      <trkpt lat="49.81157" lon="4.80469">
        <ele>204</ele>
        <time>2020-11-13T07:25:48.000Z</time>
      </trkpt>
      <trkpt lat="49.81156" lon="4.80473">
        <ele>204</ele>
        <time>2020-11-13T07:25:49.000Z</time>
      </trkpt>
      <trkpt lat="49.81156" lon="4.80477">
        <ele>204</ele>
        <time>2020-11-13T07:25:50.000Z</time>
      </trkpt>
      <trkpt lat="49.81155" lon="4.8048">
        <ele>205</ele>
        <time>2020-11-13T07:25:51.000Z</time>
      </trkpt>
      <trkpt lat="49.81155" lon="4.80483">
        <ele>205</ele>
        <time>2020-11-13T07:25:52.000Z</time>
      </trkpt>
      <trkpt lat="49.81154" lon="4.80487">
        <ele>205</ele>
        <time>2020-11-13T07:25:53.000Z</time>
      </trkpt>
      <trkpt lat="49.81153" lon="4.8049">
        <ele>206</ele>
        <time>2020-11-13T07:25:54.000Z</time>
      </trkpt>
      <trkpt lat="49.81153" lon="4.80494">
        <ele>206</ele>
        <time>2020-11-13T07:25:55.000Z</time>
      </trkpt>
      <trkpt lat="49.81153" lon="4.80497">
        <ele>206</ele>
        <time>2020-11-13T07:25:56.000Z</time>
      </trkpt>
      <trkpt lat="49.81153" lon="4.805">
        <ele>206</ele>
        <time>2020-11-13T07:25:57.000Z</time>
      </trkpt>
      <trkpt lat="49.81152" lon="4.80503">
        <ele>207</ele>
        <time>2020-11-13T07:25:58.000Z</time>
      </trkpt>
      <trkpt lat="49.81152" lon="4.80507">
        <ele>207</ele>
        <time>2020-11-13T07:25:59.000Z</time>
      </trkpt>
      <trkpt lat="49.81151" lon="4.8051">
        <ele>207</ele>
        <time>2020-11-13T07:26:00.000Z</time>
      </trkpt>
      <trkpt lat="49.81151" lon="4.80514">
        <ele>208</ele>
        <time>2020-11-13T07:26:01.000Z</time>
      </trkpt>
      <trkpt lat="49.8115" lon="4.80518">
        <ele>208</ele>
        <time>2020-11-13T07:26:02.000Z</time>
      </trkpt>
      <trkpt lat="49.8115" lon="4.80521">
        <ele>208</ele>
        <time>2020-11-13T07:26:03.000Z</time>
      </trkpt>
      <trkpt lat="49.81149" lon="4.80525">
        <ele>209</ele>
        <time>2020-11-13T07:26:04.000Z</time>
      </trkpt>
      <trkpt lat="49.81149" lon="4.80528">
        <ele>209</ele>
        <time>2020-11-13T07:26:05.000Z</time>
      </trkpt>
      <trkpt lat="49.81148" lon="4.80532">
        <ele>209</ele>
        <time>2020-11-13T07:26:06.000Z</time>
      </trkpt>
      <trkpt lat="49.81148" lon="4.80536">
        <ele>210</ele>
        <time>2020-11-13T07:26:07.000Z</time>
      </trkpt>
      <trkpt lat="49.81147" lon="4.8054">
        <ele>210</ele>
        <time>2020-11-13T07:26:08.000Z</time>
      </trkpt>
      <trkpt lat="49.81147" lon="4.80543">
        <ele>210</ele>
        <time>2020-11-13T07:26:09.000Z</time>
      </trkpt>
      <trkpt lat="49.81147" lon="4.80547">
        <ele>211</ele>
        <time>2020-11-13T07:26:10.000Z</time>
      </trkpt>
      <trkpt lat="49.81146" lon="4.80551">
        <ele>211</ele>
        <time>2020-11-13T07:26:11.000Z</time>
      </trkpt>
      <trkpt lat="49.81146" lon="4.80554">
        <ele>211</ele>
        <time>2020-11-13T07:26:12.000Z</time>
      </trkpt>
      <trkpt lat="49.81145" lon="4.80558">
        <ele>212</ele>
        <time>2020-11-13T07:26:13.000Z</time>
      </trkpt>
      <trkpt lat="49.81145" lon="4.80561">
        <ele>212</ele>
        <time>2020-11-13T07:26:14.000Z</time>
      </trkpt>
      <trkpt lat="49.81144" lon="4.80565">
        <ele>212</ele>
        <time>2020-11-13T07:26:15.000Z</time>
      </trkpt>
      <trkpt lat="49.81143" lon="4.80568">
        <ele>212</ele>
        <time>2020-11-13T07:26:16.000Z</time>
      </trkpt>
      <trkpt lat="49.81143" lon="4.80571">
        <ele>213</ele>
        <time>2020-11-13T07:26:17.000Z</time>
      </trkpt>
      <trkpt lat="49.81143" lon="4.80574">
        <ele>213</ele>
        <time>2020-11-13T07:26:18.000Z</time>
      </trkpt>
      <trkpt lat="49.81142" lon="4.80577">
        <ele>213</ele>
        <time>2020-11-13T07:26:19.000Z</time>
      </trkpt>
      <trkpt lat="49.81141" lon="4.8058">
        <ele>213</ele>
        <time>2020-11-13T07:26:20.000Z</time>
      </trkpt>
      <trkpt lat="49.81141" lon="4.80583">
        <ele>214</ele>
        <time>2020-11-13T07:26:21.000Z</time>
      </trkpt>
      <trkpt lat="49.8114" lon="4.80586">
        <ele>214</ele>
        <time>2020-11-13T07:26:22.000Z</time>
      </trkpt>
      <trkpt lat="49.81139" lon="4.80587">
        <ele>214</ele>
        <time>2020-11-13T07:26:23.000Z</time>
      </trkpt>
      <trkpt lat="49.81139" lon="4.80589">
        <ele>214</ele>
        <time>2020-11-13T07:26:24.000Z</time>
      </trkpt>
      <trkpt lat="49.81138" lon="4.80591">
        <ele>215</ele>
        <time>2020-11-13T07:26:25.000Z</time>
      </trkpt>
      <trkpt lat="49.81138" lon="4.80593">
        <ele>215</ele>
        <time>2020-11-13T07:26:26.000Z</time>
      </trkpt>
      <trkpt lat="49.81137" lon="4.80595">
        <ele>215</ele>
        <time>2020-11-13T07:26:27.000Z</time>
      </trkpt>
      <trkpt lat="49.81137" lon="4.80598">
        <ele>215</ele>
        <time>2020-11-13T07:26:28.000Z</time>
      </trkpt>
      <trkpt lat="49.81137" lon="4.80601">
        <ele>216</ele>
        <time>2020-11-13T07:26:29.000Z</time>
      </trkpt>
      <trkpt lat="49.81136" lon="4.80604">
        <ele>216</ele>
        <time>2020-11-13T07:26:30.000Z</time>
      </trkpt>
      <trkpt lat="49.81136" lon="4.80607">
        <ele>216</ele>
        <time>2020-11-13T07:26:31.000Z</time>
      </trkpt>
      <trkpt lat="49.81136" lon="4.8061">
        <ele>216</ele>
        <time>2020-11-13T07:26:32.000Z</time>
      </trkpt>
      <trkpt lat="49.81135" lon="4.80612">
        <ele>216</ele>
        <time>2020-11-13T07:26:33.000Z</time>
      </trkpt>
      <trkpt lat="49.81135" lon="4.80615">
        <ele>217</ele>
        <time>2020-11-13T07:26:34.000Z</time>
      </trkpt>
      <trkpt lat="49.81135" lon="4.80617">
        <ele>217</ele>
        <time>2020-11-13T07:26:35.000Z</time>
      </trkpt>
      <trkpt lat="49.81135" lon="4.8062">
        <ele>217</ele>
        <time>2020-11-13T07:26:36.000Z</time>
      </trkpt>
      <trkpt lat="49.81135" lon="4.80623">
        <ele>217</ele>
        <time>2020-11-13T07:26:37.000Z</time>
      </trkpt>
      <trkpt lat="49.81135" lon="4.80624">
        <ele>217</ele>
        <time>2020-11-13T07:26:38.000Z</time>
      </trkpt>
      <trkpt lat="49.81135" lon="4.80627">
        <ele>217</ele>
        <time>2020-11-13T07:26:39.000Z</time>
      </trkpt>
      <trkpt lat="49.81135" lon="4.80629">
        <ele>218</ele>
        <time>2020-11-13T07:26:40.000Z</time>
      </trkpt>
      <trkpt lat="49.81135" lon="4.80632">
        <ele>218</ele>
        <time>2020-11-13T07:26:41.000Z</time>
      </trkpt>
      <trkpt lat="49.81135" lon="4.80634">
        <ele>218</ele>
        <time>2020-11-13T07:26:42.000Z</time>
      </trkpt>
      <trkpt lat="49.81135" lon="4.80636">
        <ele>218</ele>
        <time>2020-11-13T07:26:43.000Z</time>
      </trkpt>
      <trkpt lat="49.81135" lon="4.80638">
        <ele>219</ele>
        <time>2020-11-13T07:26:44.000Z</time>
      </trkpt>
      <trkpt lat="49.81135" lon="4.80641">
        <ele>219</ele>
        <time>2020-11-13T07:26:45.000Z</time>
      </trkpt>
      <trkpt lat="49.81135" lon="4.80644">
        <ele>219</ele>
        <time>2020-11-13T07:26:46.000Z</time>
      </trkpt>
      <trkpt lat="49.81136" lon="4.80647">
        <ele>219</ele>
        <time>2020-11-13T07:26:47.000Z</time>
      </trkpt>
      <trkpt lat="49.81136" lon="4.80649">
        <ele>220</ele>
        <time>2020-11-13T07:26:48.000Z</time>
      </trkpt>
      <trkpt lat="49.81136" lon="4.80652">
        <ele>220</ele>
        <time>2020-11-13T07:26:49.000Z</time>
      </trkpt>
      <trkpt lat="49.81135" lon="4.80654">
        <ele>220</ele>
        <time>2020-11-13T07:26:50.000Z</time>
      </trkpt>
      <trkpt lat="49.81135" lon="4.80657">
        <ele>221</ele>
        <time>2020-11-13T07:26:51.000Z</time>
      </trkpt>
      <trkpt lat="49.81135" lon="4.80659">
        <ele>221</ele>
        <time>2020-11-13T07:26:52.000Z</time>
      </trkpt>
      <trkpt lat="49.81134" lon="4.80662">
        <ele>221</ele>
        <time>2020-11-13T07:26:53.000Z</time>
      </trkpt>
      <trkpt lat="49.81134" lon="4.80664">
        <ele>221</ele>
        <time>2020-11-13T07:26:54.000Z</time>
      </trkpt>
      <trkpt lat="49.81133" lon="4.80667">
        <ele>222</ele>
        <time>2020-11-13T07:26:55.000Z</time>
      </trkpt>
      <trkpt lat="49.81133" lon="4.8067">
        <ele>222</ele>
        <time>2020-11-13T07:26:56.000Z</time>
      </trkpt>
      <trkpt lat="49.81132" lon="4.80672">
        <ele>222</ele>
        <time>2020-11-13T07:26:57.000Z</time>
      </trkpt>
      <trkpt lat="49.81132" lon="4.80675">
        <ele>222</ele>
        <time>2020-11-13T07:26:58.000Z</time>
      </trkpt>
      <trkpt lat="49.81132" lon="4.80677">
        <ele>223</ele>
        <time>2020-11-13T07:26:59.000Z</time>
      </trkpt>
      <trkpt lat="49.81132" lon="4.8068">
        <ele>223</ele>
        <time>2020-11-13T07:27:00.000Z</time>
      </trkpt>
      <trkpt lat="49.81131" lon="4.80683">
        <ele>223</ele>
        <time>2020-11-13T07:27:01.000Z</time>
      </trkpt>
      <trkpt lat="49.81131" lon="4.80685">
        <ele>224</ele>
        <time>2020-11-13T07:27:02.000Z</time>
      </trkpt>
      <trkpt lat="49.8113" lon="4.80688">
        <ele>224</ele>
        <time>2020-11-13T07:27:03.000Z</time>
      </trkpt>
      <trkpt lat="49.8113" lon="4.8069">
        <ele>224</ele>
        <time>2020-11-13T07:27:04.000Z</time>
      </trkpt>
      <trkpt lat="49.8113" lon="4.80692">
        <ele>225</ele>
        <time>2020-11-13T07:27:05.000Z</time>
      </trkpt>
      <trkpt lat="49.81129" lon="4.80695">
        <ele>225</ele>
        <time>2020-11-13T07:27:06.000Z</time>
      </trkpt>
      <trkpt lat="49.81129" lon="4.80697">
        <ele>225</ele>
        <time>2020-11-13T07:27:07.000Z</time>
      </trkpt>
      <trkpt lat="49.81129" lon="4.807">
        <ele>225</ele>
        <time>2020-11-13T07:27:08.000Z</time>
      </trkpt>
      <trkpt lat="49.81128" lon="4.80702">
        <ele>226</ele>
        <time>2020-11-13T07:27:09.000Z</time>
      </trkpt>
      <trkpt lat="49.81128" lon="4.80705">
        <ele>226</ele>
        <time>2020-11-13T07:27:10.000Z</time>
      </trkpt>
      <trkpt lat="49.81128" lon="4.80707">
        <ele>226</ele>
        <time>2020-11-13T07:27:11.000Z</time>
      </trkpt>
      <trkpt lat="49.81128" lon="4.80709">
        <ele>227</ele>
        <time>2020-11-13T07:27:12.000Z</time>
      </trkpt>
      <trkpt lat="49.81128" lon="4.80712">
        <ele>227</ele>
        <time>2020-11-13T07:27:13.000Z</time>
      </trkpt>
      <trkpt lat="49.81128" lon="4.80714">
        <ele>227</ele>
        <time>2020-11-13T07:27:14.000Z</time>
      </trkpt>
      <trkpt lat="49.81128" lon="4.80716">
        <ele>228</ele>
        <time>2020-11-13T07:27:15.000Z</time>
      </trkpt>
      <trkpt lat="49.81127" lon="4.80718">
        <ele>228</ele>
        <time>2020-11-13T07:27:16.000Z</time>
      </trkpt>
      <trkpt lat="49.81127" lon="4.8072">
        <ele>228</ele>
        <time>2020-11-13T07:27:17.000Z</time>
      </trkpt>
      <trkpt lat="49.81127" lon="4.80723">
        <ele>229</ele>
        <time>2020-11-13T07:27:18.000Z</time>
      </trkpt>
      <trkpt lat="49.81127" lon="4.80725">
        <ele>229</ele>
        <time>2020-11-13T07:27:19.000Z</time>
      </trkpt>
      <trkpt lat="49.81127" lon="4.80727">
        <ele>229</ele>
        <time>2020-11-13T07:27:20.000Z</time>
      </trkpt>
      <trkpt lat="49.81127" lon="4.8073">
        <ele>230</ele>
        <time>2020-11-13T07:27:21.000Z</time>
      </trkpt>
      <trkpt lat="49.81127" lon="4.80732">
        <ele>230</ele>
        <time>2020-11-13T07:27:22.000Z</time>
      </trkpt>
      <trkpt lat="49.81127" lon="4.80734">
        <ele>230</ele>
        <time>2020-11-13T07:27:23.000Z</time>
      </trkpt>
      <trkpt lat="49.81127" lon="4.80736">
        <ele>231</ele>
        <time>2020-11-13T07:27:24.000Z</time>
      </trkpt>
      <trkpt lat="49.81126" lon="4.80738">
        <ele>231</ele>
        <time>2020-11-13T07:27:25.000Z</time>
      </trkpt>
      <trkpt lat="49.81126" lon="4.8074">
        <ele>231</ele>
        <time>2020-11-13T07:27:26.000Z</time>
      </trkpt>
      <trkpt lat="49.81126" lon="4.80742">
        <ele>231</ele>
        <time>2020-11-13T07:27:27.000Z</time>
      </trkpt>
      <trkpt lat="49.81127" lon="4.80744">
        <ele>232</ele>
        <time>2020-11-13T07:27:28.000Z</time>
      </trkpt>
      <trkpt lat="49.81127" lon="4.80747">
        <ele>232</ele>
        <time>2020-11-13T07:27:29.000Z</time>
      </trkpt>
      <trkpt lat="49.81127" lon="4.80749">
        <ele>232</ele>
        <time>2020-11-13T07:27:30.000Z</time>
      </trkpt>
      <trkpt lat="49.81127" lon="4.80751">
        <ele>233</ele>
        <time>2020-11-13T07:27:31.000Z</time>
      </trkpt>
      <trkpt lat="49.81128" lon="4.80753">
        <ele>233</ele>
        <time>2020-11-13T07:27:32.000Z</time>
      </trkpt>
      <trkpt lat="49.81128" lon="4.80755">
        <ele>233</ele>
        <time>2020-11-13T07:27:33.000Z</time>
      </trkpt>
      <trkpt lat="49.81128" lon="4.80757">
        <ele>233</ele>
        <time>2020-11-13T07:27:34.000Z</time>
      </trkpt>
      <trkpt lat="49.81129" lon="4.80759">
        <ele>233</ele>
        <time>2020-11-13T07:27:35.000Z</time>
      </trkpt>
      <trkpt lat="49.81129" lon="4.80761">
        <ele>233</ele>
        <time>2020-11-13T07:27:36.000Z</time>
      </trkpt>
      <trkpt lat="49.8113" lon="4.80763">
        <ele>234</ele>
        <time>2020-11-13T07:27:37.000Z</time>
      </trkpt>
      <trkpt lat="49.8113" lon="4.80765">
        <ele>234</ele>
        <time>2020-11-13T07:27:38.000Z</time>
      </trkpt>
      <trkpt lat="49.8113" lon="4.80768">
        <ele>234</ele>
        <time>2020-11-13T07:27:39.000Z</time>
      </trkpt>
      <trkpt lat="49.81131" lon="4.8077">
        <ele>235</ele>
        <time>2020-11-13T07:27:40.000Z</time>
      </trkpt>
      <trkpt lat="49.81131" lon="4.80772">
        <ele>235</ele>
        <time>2020-11-13T07:27:41.000Z</time>
      </trkpt>
      <trkpt lat="49.81132" lon="4.80775">
        <ele>235</ele>
        <time>2020-11-13T07:27:42.000Z</time>
      </trkpt>
      <trkpt lat="49.81132" lon="4.80777">
        <ele>235</ele>
        <time>2020-11-13T07:27:43.000Z</time>
      </trkpt>
      <trkpt lat="49.81132" lon="4.80779">
        <ele>235</ele>
        <time>2020-11-13T07:27:44.000Z</time>
      </trkpt>
      <trkpt lat="49.81132" lon="4.80781">
        <ele>236</ele>
        <time>2020-11-13T07:27:45.000Z</time>
      </trkpt>
      <trkpt lat="49.81132" lon="4.80783">
        <ele>236</ele>
        <time>2020-11-13T07:27:46.000Z</time>
      </trkpt>
      <trkpt lat="49.81132" lon="4.80785">
        <ele>236</ele>
        <time>2020-11-13T07:27:47.000Z</time>
      </trkpt>
      <trkpt lat="49.81133" lon="4.80787">
        <ele>236</ele>
        <time>2020-11-13T07:27:48.000Z</time>
      </trkpt>
      <trkpt lat="49.81132" lon="4.8079">
        <ele>236</ele>
        <time>2020-11-13T07:27:49.000Z</time>
      </trkpt>
      <trkpt lat="49.81132" lon="4.80792">
        <ele>237</ele>
        <time>2020-11-13T07:27:50.000Z</time>
      </trkpt>
      <trkpt lat="49.81132" lon="4.80794">
        <ele>237</ele>
        <time>2020-11-13T07:27:51.000Z</time>
      </trkpt>
      <trkpt lat="49.81132" lon="4.80796">
        <ele>237</ele>
        <time>2020-11-13T07:27:52.000Z</time>
      </trkpt>
      <trkpt lat="49.81132" lon="4.80798">
        <ele>237</ele>
        <time>2020-11-13T07:27:53.000Z</time>
      </trkpt>
      <trkpt lat="49.81132" lon="4.808">
        <ele>238</ele>
        <time>2020-11-13T07:27:54.000Z</time>
      </trkpt>
      <trkpt lat="49.81132" lon="4.80801">
        <ele>238</ele>
        <time>2020-11-13T07:27:55.000Z</time>
      </trkpt>
      <trkpt lat="49.81131" lon="4.80803">
        <ele>238</ele>
        <time>2020-11-13T07:27:56.000Z</time>
      </trkpt>
      <trkpt lat="49.8113" lon="4.80805">
        <ele>238</ele>
        <time>2020-11-13T07:27:57.000Z</time>
      </trkpt>
      <trkpt lat="49.8113" lon="4.80808">
        <ele>239</ele>
        <time>2020-11-13T07:27:58.000Z</time>
      </trkpt>
      <trkpt lat="49.81131" lon="4.8081">
        <ele>239</ele>
        <time>2020-11-13T07:27:59.000Z</time>
      </trkpt>
      <trkpt lat="49.81131" lon="4.80812">
        <ele>239</ele>
        <time>2020-11-13T07:28:00.000Z</time>
      </trkpt>
      <trkpt lat="49.81132" lon="4.80814">
        <ele>239</ele>
        <time>2020-11-13T07:28:01.000Z</time>
      </trkpt>
      <trkpt lat="49.81133" lon="4.80816">
        <ele>239</ele>
        <time>2020-11-13T07:28:02.000Z</time>
      </trkpt>
      <trkpt lat="49.81133" lon="4.80817">
        <ele>240</ele>
        <time>2020-11-13T07:28:03.000Z</time>
      </trkpt>
      <trkpt lat="49.81134" lon="4.80819">
        <ele>240</ele>
        <time>2020-11-13T07:28:04.000Z</time>
      </trkpt>
      <trkpt lat="49.81135" lon="4.8082">
        <ele>240</ele>
        <time>2020-11-13T07:28:05.000Z</time>
      </trkpt>
      <trkpt lat="49.81136" lon="4.80822">
        <ele>240</ele>
        <time>2020-11-13T07:28:06.000Z</time>
      </trkpt>
      <trkpt lat="49.81137" lon="4.80823">
        <ele>241</ele>
        <time>2020-11-13T07:28:07.000Z</time>
      </trkpt>
      <trkpt lat="49.81138" lon="4.80825">
        <ele>241</ele>
        <time>2020-11-13T07:28:08.000Z</time>
      </trkpt>
      <trkpt lat="49.81138" lon="4.80826">
        <ele>241</ele>
        <time>2020-11-13T07:28:09.000Z</time>
      </trkpt>
      <trkpt lat="49.81139" lon="4.80828">
        <ele>241</ele>
        <time>2020-11-13T07:28:10.000Z</time>
      </trkpt>
      <trkpt lat="49.8114" lon="4.80829">
        <ele>242</ele>
        <time>2020-11-13T07:28:11.000Z</time>
      </trkpt>
      <trkpt lat="49.81141" lon="4.8083">
        <ele>242</ele>
        <time>2020-11-13T07:28:12.000Z</time>
      </trkpt>
      <trkpt lat="49.81141" lon="4.80831">
        <ele>242</ele>
        <time>2020-11-13T07:28:13.000Z</time>
      </trkpt>
      <trkpt lat="49.81142" lon="4.80833">
        <ele>242</ele>
        <time>2020-11-13T07:28:14.000Z</time>
      </trkpt>
      <trkpt lat="49.81143" lon="4.80834">
        <ele>243</ele>
        <time>2020-11-13T07:28:15.000Z</time>
      </trkpt>
      <trkpt lat="49.81144" lon="4.80836">
        <ele>243</ele>
        <time>2020-11-13T07:28:16.000Z</time>
      </trkpt>
      <trkpt lat="49.81144" lon="4.80836">
        <ele>243</ele>
        <time>2020-11-13T07:28:17.000Z</time>
      </trkpt>
      <trkpt lat="49.81145" lon="4.80837">
        <ele>243</ele>
        <time>2020-11-13T07:28:18.000Z</time>
      </trkpt>
      <trkpt lat="49.81146" lon="4.80838">
        <ele>243</ele>
        <time>2020-11-13T07:28:19.000Z</time>
      </trkpt>
      <trkpt lat="49.81147" lon="4.80839">
        <ele>243</ele>
        <time>2020-11-13T07:28:20.000Z</time>
      </trkpt>
      <trkpt lat="49.81148" lon="4.8084">
        <ele>244</ele>
        <time>2020-11-13T07:28:21.000Z</time>
      </trkpt>
      <trkpt lat="49.81149" lon="4.8084">
        <ele>244</ele>
        <time>2020-11-13T07:28:22.000Z</time>
      </trkpt>
      <trkpt lat="49.8115" lon="4.8084">
        <ele>244</ele>
        <time>2020-11-13T07:28:23.000Z</time>
      </trkpt>
      <trkpt lat="49.81151" lon="4.8084">
        <ele>244</ele>
        <time>2020-11-13T07:28:24.000Z</time>
      </trkpt>
      <trkpt lat="49.81152" lon="4.8084">
        <ele>245</ele>
        <time>2020-11-13T07:28:25.000Z</time>
      </trkpt>
      <trkpt lat="49.81153" lon="4.8084">
        <ele>245</ele>
        <time>2020-11-13T07:28:26.000Z</time>
      </trkpt>
      <trkpt lat="49.81154" lon="4.80839">
        <ele>245</ele>
        <time>2020-11-13T07:28:27.000Z</time>
      </trkpt>
      <trkpt lat="49.81155" lon="4.80839">
        <ele>246</ele>
        <time>2020-11-13T07:28:28.000Z</time>
      </trkpt>
      <trkpt lat="49.81156" lon="4.80839">
        <ele>246</ele>
        <time>2020-11-13T07:28:29.000Z</time>
      </trkpt>
      <trkpt lat="49.81158" lon="4.80839">
        <ele>246</ele>
        <time>2020-11-13T07:28:30.000Z</time>
      </trkpt>
      <trkpt lat="49.81159" lon="4.80838">
        <ele>246</ele>
        <time>2020-11-13T07:28:31.000Z</time>
      </trkpt>
      <trkpt lat="49.81161" lon="4.80837">
        <ele>246</ele>
        <time>2020-11-13T07:28:32.000Z</time>
      </trkpt>
      <trkpt lat="49.81162" lon="4.80836">
        <ele>247</ele>
        <time>2020-11-13T07:28:33.000Z</time>
      </trkpt>
      <trkpt lat="49.81164" lon="4.80835">
        <ele>247</ele>
        <time>2020-11-13T07:28:34.000Z</time>
      </trkpt>
      <trkpt lat="49.81165" lon="4.80834">
        <ele>247</ele>
        <time>2020-11-13T07:28:35.000Z</time>
      </trkpt>
      <trkpt lat="49.81166" lon="4.80834">
        <ele>247</ele>
        <time>2020-11-13T07:28:36.000Z</time>
      </trkpt>
      <trkpt lat="49.81168" lon="4.80833">
        <ele>247</ele>
        <time>2020-11-13T07:28:37.000Z</time>
      </trkpt>
      <trkpt lat="49.81169" lon="4.80832">
        <ele>247</ele>
        <time>2020-11-13T07:28:38.000Z</time>
      </trkpt>
      <trkpt lat="49.81171" lon="4.80831">
        <ele>247</ele>
        <time>2020-11-13T07:28:39.000Z</time>
      </trkpt>
      <trkpt lat="49.81173" lon="4.80831">
        <ele>247</ele>
        <time>2020-11-13T07:28:40.000Z</time>
      </trkpt>
      <trkpt lat="49.81175" lon="4.80829">
        <ele>247</ele>
        <time>2020-11-13T07:28:41.000Z</time>
      </trkpt>
      <trkpt lat="49.81177" lon="4.80828">
        <ele>247</ele>
        <time>2020-11-13T07:28:42.000Z</time>
      </trkpt>
      <trkpt lat="49.81178" lon="4.80827">
        <ele>247</ele>
        <time>2020-11-13T07:28:43.000Z</time>
      </trkpt>
      <trkpt lat="49.8118" lon="4.80826">
        <ele>247</ele>
        <time>2020-11-13T07:28:44.000Z</time>
      </trkpt>
      <trkpt lat="49.81181" lon="4.80826">
        <ele>247</ele>
        <time>2020-11-13T07:28:45.000Z</time>
      </trkpt>
      <trkpt lat="49.81183" lon="4.80825">
        <ele>247</ele>
        <time>2020-11-13T07:28:46.000Z</time>
      </trkpt>
      <trkpt lat="49.81184" lon="4.80826">
        <ele>248</ele>
        <time>2020-11-13T07:28:47.000Z</time>
      </trkpt>
      <trkpt lat="49.81185" lon="4.80826">
        <ele>248</ele>
        <time>2020-11-13T07:28:48.000Z</time>
      </trkpt>
      <trkpt lat="49.81186" lon="4.80826">
        <ele>248</ele>
        <time>2020-11-13T07:28:49.000Z</time>
      </trkpt>
      <trkpt lat="49.81187" lon="4.80827">
        <ele>248</ele>
        <time>2020-11-13T07:28:50.000Z</time>
      </trkpt>
      <trkpt lat="49.81189" lon="4.80826">
        <ele>248</ele>
        <time>2020-11-13T07:28:51.000Z</time>
      </trkpt>
      <trkpt lat="49.8119" lon="4.80826">
        <ele>248</ele>
        <time>2020-11-13T07:28:52.000Z</time>
      </trkpt>
      <trkpt lat="49.81191" lon="4.80825">
        <ele>248</ele>
        <time>2020-11-13T07:28:53.000Z</time>
      </trkpt>
      <trkpt lat="49.81193" lon="4.80825">
        <ele>249</ele>
        <time>2020-11-13T07:28:54.000Z</time>
      </trkpt>
      <trkpt lat="49.81194" lon="4.80825">
        <ele>249</ele>
        <time>2020-11-13T07:28:55.000Z</time>
      </trkpt>
      <trkpt lat="49.81196" lon="4.80824">
        <ele>249</ele>
        <time>2020-11-13T07:28:56.000Z</time>
      </trkpt>
      <trkpt lat="49.81198" lon="4.80824">
        <ele>249</ele>
        <time>2020-11-13T07:28:57.000Z</time>
      </trkpt>
      <trkpt lat="49.81199" lon="4.80823">
        <ele>249</ele>
        <time>2020-11-13T07:28:58.000Z</time>
      </trkpt>
      <trkpt lat="49.812" lon="4.80823">
        <ele>249</ele>
        <time>2020-11-13T07:28:59.000Z</time>
      </trkpt>
      <trkpt lat="49.81202" lon="4.80823">
        <ele>249</ele>
        <time>2020-11-13T07:29:00.000Z</time>
      </trkpt>
      <trkpt lat="49.81203" lon="4.80822">
        <ele>250</ele>
        <time>2020-11-13T07:29:01.000Z</time>
      </trkpt>
      <trkpt lat="49.81205" lon="4.80821">
        <ele>250</ele>
        <time>2020-11-13T07:29:02.000Z</time>
      </trkpt>
      <trkpt lat="49.81206" lon="4.80821">
        <ele>250</ele>
        <time>2020-11-13T07:29:03.000Z</time>
      </trkpt>
      <trkpt lat="49.81207" lon="4.80821">
        <ele>250</ele>
        <time>2020-11-13T07:29:04.000Z</time>
      </trkpt>
      <trkpt lat="49.81208" lon="4.8082">
        <ele>250</ele>
        <time>2020-11-13T07:29:05.000Z</time>
      </trkpt>
      <trkpt lat="49.8121" lon="4.8082">
        <ele>250</ele>
        <time>2020-11-13T07:29:06.000Z</time>
      </trkpt>
      <trkpt lat="49.81211" lon="4.80819">
        <ele>250</ele>
        <time>2020-11-13T07:29:07.000Z</time>
      </trkpt>
      <trkpt lat="49.81213" lon="4.80819">
        <ele>250</ele>
        <time>2020-11-13T07:29:08.000Z</time>
      </trkpt>
      <trkpt lat="49.81214" lon="4.80818">
        <ele>251</ele>
        <time>2020-11-13T07:29:09.000Z</time>
      </trkpt>
      <trkpt lat="49.81216" lon="4.80817">
        <ele>251</ele>
        <time>2020-11-13T07:29:10.000Z</time>
      </trkpt>
      <trkpt lat="49.81217" lon="4.80816">
        <ele>251</ele>
        <time>2020-11-13T07:29:11.000Z</time>
      </trkpt>
      <trkpt lat="49.81219" lon="4.80815">
        <ele>251</ele>
        <time>2020-11-13T07:29:12.000Z</time>
      </trkpt>
      <trkpt lat="49.81221" lon="4.80814">
        <ele>251</ele>
        <time>2020-11-13T07:29:13.000Z</time>
      </trkpt>
      <trkpt lat="49.81222" lon="4.80812">
        <ele>251</ele>
        <time>2020-11-13T07:29:14.000Z</time>
      </trkpt>
      <trkpt lat="49.81224" lon="4.80811">
        <ele>252</ele>
        <time>2020-11-13T07:29:15.000Z</time>
      </trkpt>
      <trkpt lat="49.81225" lon="4.8081">
        <ele>252</ele>
        <time>2020-11-13T07:29:16.000Z</time>
      </trkpt>
      <trkpt lat="49.81226" lon="4.80809">
        <ele>252</ele>
        <time>2020-11-13T07:29:17.000Z</time>
      </trkpt>
      <trkpt lat="49.81227" lon="4.80808">
        <ele>252</ele>
        <time>2020-11-13T07:29:18.000Z</time>
      </trkpt>
      <trkpt lat="49.81229" lon="4.80808">
        <ele>253</ele>
        <time>2020-11-13T07:29:19.000Z</time>
      </trkpt>
      <trkpt lat="49.8123" lon="4.80807">
        <ele>253</ele>
        <time>2020-11-13T07:29:20.000Z</time>
      </trkpt>
      <trkpt lat="49.81231" lon="4.80806">
        <ele>253</ele>
        <time>2020-11-13T07:29:21.000Z</time>
      </trkpt>
      <trkpt lat="49.81233" lon="4.80805">
        <ele>254</ele>
        <time>2020-11-13T07:29:22.000Z</time>
      </trkpt>
      <trkpt lat="49.81234" lon="4.80804">
        <ele>254</ele>
        <time>2020-11-13T07:29:23.000Z</time>
      </trkpt>
      <trkpt lat="49.81235" lon="4.80803">
        <ele>255</ele>
        <time>2020-11-13T07:29:24.000Z</time>
      </trkpt>
      <trkpt lat="49.81236" lon="4.80802">
        <ele>255</ele>
        <time>2020-11-13T07:29:25.000Z</time>
      </trkpt>
      <trkpt lat="49.81237" lon="4.80801">
        <ele>255</ele>
        <time>2020-11-13T07:29:26.000Z</time>
      </trkpt>
      <trkpt lat="49.81238" lon="4.808">
        <ele>256</ele>
        <time>2020-11-13T07:29:27.000Z</time>
      </trkpt>
      <trkpt lat="49.81239" lon="4.80799">
        <ele>256</ele>
        <time>2020-11-13T07:29:28.000Z</time>
      </trkpt>
      <trkpt lat="49.81241" lon="4.80799">
        <ele>256</ele>
        <time>2020-11-13T07:29:29.000Z</time>
      </trkpt>
      <trkpt lat="49.81242" lon="4.80797">
        <ele>257</ele>
        <time>2020-11-13T07:29:30.000Z</time>
      </trkpt>
      <trkpt lat="49.81243" lon="4.80796">
        <ele>257</ele>
        <time>2020-11-13T07:29:31.000Z</time>
      </trkpt>
      <trkpt lat="49.81245" lon="4.80795">
        <ele>257</ele>
        <time>2020-11-13T07:29:32.000Z</time>
      </trkpt>
      <trkpt lat="49.81246" lon="4.80794">
        <ele>257</ele>
        <time>2020-11-13T07:29:33.000Z</time>
      </trkpt>
      <trkpt lat="49.81247" lon="4.80792">
        <ele>258</ele>
        <time>2020-11-13T07:29:34.000Z</time>
      </trkpt>
      <trkpt lat="49.81248" lon="4.80791">
        <ele>258</ele>
        <time>2020-11-13T07:29:35.000Z</time>
      </trkpt>
      <trkpt lat="49.8125" lon="4.8079">
        <ele>258</ele>
        <time>2020-11-13T07:29:36.000Z</time>
      </trkpt>
      <trkpt lat="49.81251" lon="4.80789">
        <ele>258</ele>
        <time>2020-11-13T07:29:37.000Z</time>
      </trkpt>
      <trkpt lat="49.81252" lon="4.80788">
        <ele>258</ele>
        <time>2020-11-13T07:29:38.000Z</time>
      </trkpt>
      <trkpt lat="49.81253" lon="4.80787">
        <ele>259</ele>
        <time>2020-11-13T07:29:39.000Z</time>
      </trkpt>
      <trkpt lat="49.81255" lon="4.80786">
        <ele>259</ele>
        <time>2020-11-13T07:29:40.000Z</time>
      </trkpt>
      <trkpt lat="49.81256" lon="4.80785">
        <ele>259</ele>
        <time>2020-11-13T07:29:41.000Z</time>
      </trkpt>
      <trkpt lat="49.81257" lon="4.80784">
        <ele>259</ele>
        <time>2020-11-13T07:29:42.000Z</time>
      </trkpt>
      <trkpt lat="49.81258" lon="4.80783">
        <ele>259</ele>
        <time>2020-11-13T07:29:43.000Z</time>
      </trkpt>
      <trkpt lat="49.81259" lon="4.80782">
        <ele>260</ele>
        <time>2020-11-13T07:29:44.000Z</time>
      </trkpt>
      <trkpt lat="49.81261" lon="4.80781">
        <ele>260</ele>
        <time>2020-11-13T07:29:45.000Z</time>
      </trkpt>
      <trkpt lat="49.81262" lon="4.8078">
        <ele>260</ele>
        <time>2020-11-13T07:29:46.000Z</time>
      </trkpt>
      <trkpt lat="49.81263" lon="4.80778">
        <ele>260</ele>
        <time>2020-11-13T07:29:47.000Z</time>
      </trkpt>
      <trkpt lat="49.81264" lon="4.80778">
        <ele>260</ele>
        <time>2020-11-13T07:29:48.000Z</time>
      </trkpt>
      <trkpt lat="49.81265" lon="4.80776">
        <ele>260</ele>
        <time>2020-11-13T07:29:49.000Z</time>
      </trkpt>
      <trkpt lat="49.81267" lon="4.80775">
        <ele>261</ele>
        <time>2020-11-13T07:29:50.000Z</time>
      </trkpt>
      <trkpt lat="49.81268" lon="4.80774">
        <ele>261</ele>
        <time>2020-11-13T07:29:51.000Z</time>
      </trkpt>
      <trkpt lat="49.81268" lon="4.80774">
        <ele>261</ele>
        <time>2020-11-13T07:29:52.000Z</time>
      </trkpt>
      <trkpt lat="49.81269" lon="4.80773">
        <ele>261</ele>
        <time>2020-11-13T07:29:53.000Z</time>
      </trkpt>
      <trkpt lat="49.8127" lon="4.80772">
        <ele>261</ele>
        <time>2020-11-13T07:29:54.000Z</time>
      </trkpt>
      <trkpt lat="49.81271" lon="4.80771">
        <ele>261</ele>
        <time>2020-11-13T07:29:55.000Z</time>
      </trkpt>
      <trkpt lat="49.81272" lon="4.80769">
        <ele>261</ele>
        <time>2020-11-13T07:29:56.000Z</time>
      </trkpt>
      <trkpt lat="49.81273" lon="4.80768">
        <ele>261</ele>
        <time>2020-11-13T07:29:57.000Z</time>
      </trkpt>
      <trkpt lat="49.81274" lon="4.80767">
        <ele>261</ele>
        <time>2020-11-13T07:29:58.000Z</time>
      </trkpt>
      <trkpt lat="49.81275" lon="4.80765">
        <ele>262</ele>
        <time>2020-11-13T07:29:59.000Z</time>
      </trkpt>
      <trkpt lat="49.81276" lon="4.80764">
        <ele>262</ele>
        <time>2020-11-13T07:30:00.000Z</time>
      </trkpt>
      <trkpt lat="49.81277" lon="4.80763">
        <ele>262</ele>
        <time>2020-11-13T07:30:01.000Z</time>
      </trkpt>
      <trkpt lat="49.81278" lon="4.80762">
        <ele>262</ele>
        <time>2020-11-13T07:30:02.000Z</time>
      </trkpt>
      <trkpt lat="49.81279" lon="4.80761">
        <ele>262</ele>
        <time>2020-11-13T07:30:03.000Z</time>
      </trkpt>
      <trkpt lat="49.8128" lon="4.8076">
        <ele>262</ele>
        <time>2020-11-13T07:30:04.000Z</time>
      </trkpt>
      <trkpt lat="49.81281" lon="4.80759">
        <ele>263</ele>
        <time>2020-11-13T07:30:05.000Z</time>
      </trkpt>
      <trkpt lat="49.81282" lon="4.80757">
        <ele>263</ele>
        <time>2020-11-13T07:30:06.000Z</time>
      </trkpt>
      <trkpt lat="49.81283" lon="4.80756">
        <ele>263</ele>
        <time>2020-11-13T07:30:07.000Z</time>
      </trkpt>
      <trkpt lat="49.81284" lon="4.80754">
        <ele>263</ele>
        <time>2020-11-13T07:30:08.000Z</time>
      </trkpt>
      <trkpt lat="49.81285" lon="4.80753">
        <ele>263</ele>
        <time>2020-11-13T07:30:09.000Z</time>
      </trkpt>
      <trkpt lat="49.81286" lon="4.80752">
        <ele>264</ele>
        <time>2020-11-13T07:30:10.000Z</time>
      </trkpt>
      <trkpt lat="49.81288" lon="4.8075">
        <ele>264</ele>
        <time>2020-11-13T07:30:11.000Z</time>
      </trkpt>
      <trkpt lat="49.81289" lon="4.80749">
        <ele>264</ele>
        <time>2020-11-13T07:30:12.000Z</time>
      </trkpt>
      <trkpt lat="49.8129" lon="4.80747">
        <ele>264</ele>
        <time>2020-11-13T07:30:13.000Z</time>
      </trkpt>
      <trkpt lat="49.81291" lon="4.80746">
        <ele>265</ele>
        <time>2020-11-13T07:30:14.000Z</time>
      </trkpt>
      <trkpt lat="49.81292" lon="4.80745">
        <ele>265</ele>
        <time>2020-11-13T07:30:15.000Z</time>
      </trkpt>
      <trkpt lat="49.81293" lon="4.80743">
        <ele>265</ele>
        <time>2020-11-13T07:30:16.000Z</time>
      </trkpt>
      <trkpt lat="49.81295" lon="4.80742">
        <ele>265</ele>
        <time>2020-11-13T07:30:17.000Z</time>
      </trkpt>
      <trkpt lat="49.81296" lon="4.80741">
        <ele>266</ele>
        <time>2020-11-13T07:30:18.000Z</time>
      </trkpt>
      <trkpt lat="49.81297" lon="4.80739">
        <ele>266</ele>
        <time>2020-11-13T07:30:19.000Z</time>
      </trkpt>
      <trkpt lat="49.81298" lon="4.80739">
        <ele>266</ele>
        <time>2020-11-13T07:30:20.000Z</time>
      </trkpt>
      <trkpt lat="49.81299" lon="4.80738">
        <ele>267</ele>
        <time>2020-11-13T07:30:21.000Z</time>
      </trkpt>
      <trkpt lat="49.81299" lon="4.80736">
        <ele>267</ele>
        <time>2020-11-13T07:30:22.000Z</time>
      </trkpt>
      <trkpt lat="49.813" lon="4.80735">
        <ele>267</ele>
        <time>2020-11-13T07:30:23.000Z</time>
      </trkpt>
      <trkpt lat="49.81302" lon="4.80734">
        <ele>267</ele>
        <time>2020-11-13T07:30:24.000Z</time>
      </trkpt>
      <trkpt lat="49.81303" lon="4.80733">
        <ele>267</ele>
        <time>2020-11-13T07:30:25.000Z</time>
      </trkpt>
      <trkpt lat="49.81305" lon="4.80731">
        <ele>268</ele>
        <time>2020-11-13T07:30:26.000Z</time>
      </trkpt>
      <trkpt lat="49.81306" lon="4.8073">
        <ele>268</ele>
        <time>2020-11-13T07:30:27.000Z</time>
      </trkpt>
      <trkpt lat="49.81307" lon="4.80729">
        <ele>268</ele>
        <time>2020-11-13T07:30:28.000Z</time>
      </trkpt>
      <trkpt lat="49.81308" lon="4.80728">
        <ele>269</ele>
        <time>2020-11-13T07:30:29.000Z</time>
      </trkpt>
      <trkpt lat="49.81309" lon="4.80727">
        <ele>269</ele>
        <time>2020-11-13T07:30:30.000Z</time>
      </trkpt>
      <trkpt lat="49.8131" lon="4.80725">
        <ele>269</ele>
        <time>2020-11-13T07:30:31.000Z</time>
      </trkpt>
      <trkpt lat="49.81311" lon="4.80724">
        <ele>269</ele>
        <time>2020-11-13T07:30:32.000Z</time>
      </trkpt>
      <trkpt lat="49.81313" lon="4.80722">
        <ele>270</ele>
        <time>2020-11-13T07:30:33.000Z</time>
      </trkpt>
      <trkpt lat="49.81314" lon="4.8072">
        <ele>270</ele>
        <time>2020-11-13T07:30:34.000Z</time>
      </trkpt>
      <trkpt lat="49.81315" lon="4.80719">
        <ele>270</ele>
        <time>2020-11-13T07:30:35.000Z</time>
      </trkpt>
      <trkpt lat="49.81316" lon="4.80718">
        <ele>270</ele>
        <time>2020-11-13T07:30:36.000Z</time>
      </trkpt>
      <trkpt lat="49.81317" lon="4.80716">
        <ele>271</ele>
        <time>2020-11-13T07:30:37.000Z</time>
      </trkpt>
      <trkpt lat="49.81319" lon="4.80715">
        <ele>271</ele>
        <time>2020-11-13T07:30:38.000Z</time>
      </trkpt>
      <trkpt lat="49.8132" lon="4.80713">
        <ele>271</ele>
        <time>2020-11-13T07:30:39.000Z</time>
      </trkpt>
      <trkpt lat="49.81321" lon="4.80712">
        <ele>271</ele>
        <time>2020-11-13T07:30:40.000Z</time>
      </trkpt>
      <trkpt lat="49.81322" lon="4.8071">
        <ele>272</ele>
        <time>2020-11-13T07:30:41.000Z</time>
      </trkpt>
      <trkpt lat="49.81323" lon="4.80708">
        <ele>272</ele>
        <time>2020-11-13T07:30:42.000Z</time>
      </trkpt>
      <trkpt lat="49.81324" lon="4.80706">
        <ele>272</ele>
        <time>2020-11-13T07:30:43.000Z</time>
      </trkpt>
      <trkpt lat="49.81325" lon="4.80704">
        <ele>273</ele>
        <time>2020-11-13T07:30:44.000Z</time>
      </trkpt>
      <trkpt lat="49.81326" lon="4.80703">
        <ele>273</ele>
        <time>2020-11-13T07:30:45.000Z</time>
      </trkpt>
      <trkpt lat="49.81328" lon="4.80701">
        <ele>274</ele>
        <time>2020-11-13T07:30:46.000Z</time>
      </trkpt>
      <trkpt lat="49.81329" lon="4.80699">
        <ele>274</ele>
        <time>2020-11-13T07:30:47.000Z</time>
      </trkpt>
      <trkpt lat="49.8133" lon="4.80698">
        <ele>275</ele>
        <time>2020-11-13T07:30:48.000Z</time>
      </trkpt>
      <trkpt lat="49.81331" lon="4.80696">
        <ele>275</ele>
        <time>2020-11-13T07:30:49.000Z</time>
      </trkpt>
      <trkpt lat="49.81331" lon="4.80695">
        <ele>276</ele>
        <time>2020-11-13T07:30:50.000Z</time>
      </trkpt>
      <trkpt lat="49.81333" lon="4.80693">
        <ele>276</ele>
        <time>2020-11-13T07:30:51.000Z</time>
      </trkpt>
      <trkpt lat="49.81334" lon="4.80691">
        <ele>277</ele>
        <time>2020-11-13T07:30:52.000Z</time>
      </trkpt>
      <trkpt lat="49.81335" lon="4.8069">
        <ele>277</ele>
        <time>2020-11-13T07:30:53.000Z</time>
      </trkpt>
      <trkpt lat="49.81336" lon="4.80689">
        <ele>278</ele>
        <time>2020-11-13T07:30:54.000Z</time>
      </trkpt>
      <trkpt lat="49.81337" lon="4.80688">
        <ele>278</ele>
        <time>2020-11-13T07:30:55.000Z</time>
      </trkpt>
      <trkpt lat="49.81338" lon="4.80687">
        <ele>278</ele>
        <time>2020-11-13T07:30:56.000Z</time>
      </trkpt>
      <trkpt lat="49.81339" lon="4.80686">
        <ele>279</ele>
        <time>2020-11-13T07:30:57.000Z</time>
      </trkpt>
      <trkpt lat="49.81339" lon="4.80684">
        <ele>279</ele>
        <time>2020-11-13T07:30:58.000Z</time>
      </trkpt>
      <trkpt lat="49.81341" lon="4.80683">
        <ele>280</ele>
        <time>2020-11-13T07:30:59.000Z</time>
      </trkpt>
      <trkpt lat="49.81342" lon="4.80681">
        <ele>280</ele>
        <time>2020-11-13T07:31:00.000Z</time>
      </trkpt>
      <trkpt lat="49.81343" lon="4.8068">
        <ele>280</ele>
        <time>2020-11-13T07:31:01.000Z</time>
      </trkpt>
      <trkpt lat="49.81344" lon="4.80679">
        <ele>281</ele>
        <time>2020-11-13T07:31:02.000Z</time>
      </trkpt>
      <trkpt lat="49.81345" lon="4.80678">
        <ele>281</ele>
        <time>2020-11-13T07:31:03.000Z</time>
      </trkpt>
      <trkpt lat="49.81346" lon="4.80677">
        <ele>281</ele>
        <time>2020-11-13T07:31:04.000Z</time>
      </trkpt>
      <trkpt lat="49.81347" lon="4.80675">
        <ele>282</ele>
        <time>2020-11-13T07:31:05.000Z</time>
      </trkpt>
      <trkpt lat="49.81348" lon="4.80674">
        <ele>282</ele>
        <time>2020-11-13T07:31:06.000Z</time>
      </trkpt>
      <trkpt lat="49.81349" lon="4.80672">
        <ele>282</ele>
        <time>2020-11-13T07:31:07.000Z</time>
      </trkpt>
      <trkpt lat="49.81351" lon="4.80671">
        <ele>282</ele>
        <time>2020-11-13T07:31:08.000Z</time>
      </trkpt>
      <trkpt lat="49.81352" lon="4.8067">
        <ele>283</ele>
        <time>2020-11-13T07:31:09.000Z</time>
      </trkpt>
      <trkpt lat="49.81353" lon="4.80668">
        <ele>283</ele>
        <time>2020-11-13T07:31:10.000Z</time>
      </trkpt>
      <trkpt lat="49.81354" lon="4.80667">
        <ele>283</ele>
        <time>2020-11-13T07:31:11.000Z</time>
      </trkpt>
      <trkpt lat="49.81355" lon="4.80665">
        <ele>283</ele>
        <time>2020-11-13T07:31:12.000Z</time>
      </trkpt>
      <trkpt lat="49.81356" lon="4.80664">
        <ele>284</ele>
        <time>2020-11-13T07:31:13.000Z</time>
      </trkpt>
      <trkpt lat="49.81357" lon="4.80663">
        <ele>284</ele>
        <time>2020-11-13T07:31:14.000Z</time>
      </trkpt>
      <trkpt lat="49.81357" lon="4.80662">
        <ele>284</ele>
        <time>2020-11-13T07:31:15.000Z</time>
      </trkpt>
      <trkpt lat="49.81358" lon="4.8066">
        <ele>284</ele>
        <time>2020-11-13T07:31:16.000Z</time>
      </trkpt>
      <trkpt lat="49.81359" lon="4.80658">
        <ele>285</ele>
        <time>2020-11-13T07:31:17.000Z</time>
      </trkpt>
      <trkpt lat="49.8136" lon="4.80656">
        <ele>285</ele>
        <time>2020-11-13T07:31:18.000Z</time>
      </trkpt>
      <trkpt lat="49.81361" lon="4.80654">
        <ele>285</ele>
        <time>2020-11-13T07:31:19.000Z</time>
      </trkpt>
      <trkpt lat="49.81362" lon="4.80652">
        <ele>285</ele>
        <time>2020-11-13T07:31:20.000Z</time>
      </trkpt>
      <trkpt lat="49.81364" lon="4.8065">
        <ele>286</ele>
        <time>2020-11-13T07:31:21.000Z</time>
      </trkpt>
      <trkpt lat="49.81365" lon="4.80648">
        <ele>286</ele>
        <time>2020-11-13T07:31:22.000Z</time>
      </trkpt>
      <trkpt lat="49.81366" lon="4.80646">
        <ele>286</ele>
        <time>2020-11-13T07:31:23.000Z</time>
      </trkpt>
      <trkpt lat="49.81367" lon="4.80644">
        <ele>286</ele>
        <time>2020-11-13T07:31:24.000Z</time>
      </trkpt>
      <trkpt lat="49.81368" lon="4.80642">
        <ele>287</ele>
        <time>2020-11-13T07:31:25.000Z</time>
      </trkpt>
      <trkpt lat="49.81369" lon="4.80641">
        <ele>287</ele>
        <time>2020-11-13T07:31:26.000Z</time>
      </trkpt>
      <trkpt lat="49.8137" lon="4.8064">
        <ele>287</ele>
        <time>2020-11-13T07:31:27.000Z</time>
      </trkpt>
      <trkpt lat="49.81372" lon="4.80638">
        <ele>287</ele>
        <time>2020-11-13T07:31:28.000Z</time>
      </trkpt>
      <trkpt lat="49.81373" lon="4.80637">
        <ele>288</ele>
        <time>2020-11-13T07:31:29.000Z</time>
      </trkpt>
      <trkpt lat="49.81374" lon="4.80636">
        <ele>288</ele>
        <time>2020-11-13T07:31:30.000Z</time>
      </trkpt>
      <trkpt lat="49.81375" lon="4.80635">
        <ele>288</ele>
        <time>2020-11-13T07:31:31.000Z</time>
      </trkpt>
      <trkpt lat="49.81376" lon="4.80634">
        <ele>288</ele>
        <time>2020-11-13T07:31:32.000Z</time>
      </trkpt>
      <trkpt lat="49.81377" lon="4.80633">
        <ele>289</ele>
        <time>2020-11-13T07:31:33.000Z</time>
      </trkpt>
      <trkpt lat="49.81378" lon="4.80633">
        <ele>289</ele>
        <time>2020-11-13T07:31:34.000Z</time>
      </trkpt>
      <trkpt lat="49.8138" lon="4.80632">
        <ele>289</ele>
        <time>2020-11-13T07:31:35.000Z</time>
      </trkpt>
      <trkpt lat="49.81381" lon="4.80631">
        <ele>290</ele>
        <time>2020-11-13T07:31:36.000Z</time>
      </trkpt>
      <trkpt lat="49.81383" lon="4.8063">
        <ele>290</ele>
        <time>2020-11-13T07:31:37.000Z</time>
      </trkpt>
      <trkpt lat="49.81384" lon="4.8063">
        <ele>290</ele>
        <time>2020-11-13T07:31:38.000Z</time>
      </trkpt>
      <trkpt lat="49.81385" lon="4.80629">
        <ele>290</ele>
        <time>2020-11-13T07:31:39.000Z</time>
      </trkpt>
      <trkpt lat="49.81387" lon="4.80628">
        <ele>291</ele>
        <time>2020-11-13T07:31:40.000Z</time>
      </trkpt>
      <trkpt lat="49.81388" lon="4.80628">
        <ele>291</ele>
        <time>2020-11-13T07:31:41.000Z</time>
      </trkpt>
      <trkpt lat="49.81389" lon="4.80627">
        <ele>291</ele>
        <time>2020-11-13T07:31:42.000Z</time>
      </trkpt>
      <trkpt lat="49.8139" lon="4.80626">
        <ele>292</ele>
        <time>2020-11-13T07:31:43.000Z</time>
      </trkpt>
      <trkpt lat="49.81392" lon="4.80626">
        <ele>292</ele>
        <time>2020-11-13T07:31:44.000Z</time>
      </trkpt>
      <trkpt lat="49.81393" lon="4.80625">
        <ele>292</ele>
        <time>2020-11-13T07:31:45.000Z</time>
      </trkpt>
      <trkpt lat="49.81394" lon="4.80624">
        <ele>292</ele>
        <time>2020-11-13T07:31:46.000Z</time>
      </trkpt>
      <trkpt lat="49.81395" lon="4.80623">
        <ele>292</ele>
        <time>2020-11-13T07:31:47.000Z</time>
      </trkpt>
      <trkpt lat="49.81397" lon="4.80623">
        <ele>293</ele>
        <time>2020-11-13T07:31:48.000Z</time>
      </trkpt>
      <trkpt lat="49.81398" lon="4.80622">
        <ele>293</ele>
        <time>2020-11-13T07:31:49.000Z</time>
      </trkpt>
      <trkpt lat="49.81398" lon="4.80621">
        <ele>293</ele>
        <time>2020-11-13T07:31:50.000Z</time>
      </trkpt>
      <trkpt lat="49.81399" lon="4.8062">
        <ele>293</ele>
        <time>2020-11-13T07:31:51.000Z</time>
      </trkpt>
      <trkpt lat="49.814" lon="4.80619">
        <ele>294</ele>
        <time>2020-11-13T07:31:52.000Z</time>
      </trkpt>
      <trkpt lat="49.81402" lon="4.80618">
        <ele>294</ele>
        <time>2020-11-13T07:31:53.000Z</time>
      </trkpt>
      <trkpt lat="49.81403" lon="4.80617">
        <ele>294</ele>
        <time>2020-11-13T07:31:54.000Z</time>
      </trkpt>
      <trkpt lat="49.81404" lon="4.80616">
        <ele>294</ele>
        <time>2020-11-13T07:31:55.000Z</time>
      </trkpt>
      <trkpt lat="49.81406" lon="4.80614">
        <ele>294</ele>
        <time>2020-11-13T07:31:56.000Z</time>
      </trkpt>
      <trkpt lat="49.81407" lon="4.80613">
        <ele>295</ele>
        <time>2020-11-13T07:31:57.000Z</time>
      </trkpt>
      <trkpt lat="49.81408" lon="4.80612">
        <ele>295</ele>
        <time>2020-11-13T07:31:58.000Z</time>
      </trkpt>
      <trkpt lat="49.81409" lon="4.80611">
        <ele>295</ele>
        <time>2020-11-13T07:31:59.000Z</time>
      </trkpt>
      <trkpt lat="49.8141" lon="4.8061">
        <ele>296</ele>
        <time>2020-11-13T07:32:00.000Z</time>
      </trkpt>
      <trkpt lat="49.81411" lon="4.80609">
        <ele>296</ele>
        <time>2020-11-13T07:32:01.000Z</time>
      </trkpt>
      <trkpt lat="49.81413" lon="4.80608">
        <ele>296</ele>
        <time>2020-11-13T07:32:02.000Z</time>
      </trkpt>
      <trkpt lat="49.81414" lon="4.80607">
        <ele>297</ele>
        <time>2020-11-13T07:32:03.000Z</time>
      </trkpt>
      <trkpt lat="49.81416" lon="4.80605">
        <ele>297</ele>
        <time>2020-11-13T07:32:04.000Z</time>
      </trkpt>
      <trkpt lat="49.81417" lon="4.80604">
        <ele>297</ele>
        <time>2020-11-13T07:32:05.000Z</time>
      </trkpt>
      <trkpt lat="49.81418" lon="4.80603">
        <ele>298</ele>
        <time>2020-11-13T07:32:06.000Z</time>
      </trkpt>
      <trkpt lat="49.81419" lon="4.80601">
        <ele>298</ele>
        <time>2020-11-13T07:32:07.000Z</time>
      </trkpt>
      <trkpt lat="49.8142" lon="4.806">
        <ele>298</ele>
        <time>2020-11-13T07:32:08.000Z</time>
      </trkpt>
      <trkpt lat="49.81421" lon="4.80599">
        <ele>299</ele>
        <time>2020-11-13T07:32:09.000Z</time>
      </trkpt>
      <trkpt lat="49.81422" lon="4.80598">
        <ele>299</ele>
        <time>2020-11-13T07:32:10.000Z</time>
      </trkpt>
      <trkpt lat="49.81424" lon="4.80597">
        <ele>299</ele>
        <time>2020-11-13T07:32:11.000Z</time>
      </trkpt>
      <trkpt lat="49.81424" lon="4.80596">
        <ele>300</ele>
        <time>2020-11-13T07:32:12.000Z</time>
      </trkpt>
      <trkpt lat="49.81425" lon="4.80595">
        <ele>300</ele>
        <time>2020-11-13T07:32:13.000Z</time>
      </trkpt>
      <trkpt lat="49.81426" lon="4.80594">
        <ele>300</ele>
        <time>2020-11-13T07:32:14.000Z</time>
      </trkpt>
      <trkpt lat="49.81427" lon="4.80593">
        <ele>301</ele>
        <time>2020-11-13T07:32:15.000Z</time>
      </trkpt>
      <trkpt lat="49.81428" lon="4.80592">
        <ele>301</ele>
        <time>2020-11-13T07:32:16.000Z</time>
      </trkpt>
      <trkpt lat="49.81429" lon="4.80591">
        <ele>301</ele>
        <time>2020-11-13T07:32:17.000Z</time>
      </trkpt>
      <trkpt lat="49.81431" lon="4.8059">
        <ele>301</ele>
        <time>2020-11-13T07:32:18.000Z</time>
      </trkpt>
      <trkpt lat="49.81432" lon="4.80589">
        <ele>302</ele>
        <time>2020-11-13T07:32:19.000Z</time>
      </trkpt>
      <trkpt lat="49.81433" lon="4.80588">
        <ele>302</ele>
        <time>2020-11-13T07:32:20.000Z</time>
      </trkpt>
      <trkpt lat="49.81434" lon="4.80587">
        <ele>302</ele>
        <time>2020-11-13T07:32:21.000Z</time>
      </trkpt>
      <trkpt lat="49.81435" lon="4.80586">
        <ele>302</ele>
        <time>2020-11-13T07:32:22.000Z</time>
      </trkpt>
      <trkpt lat="49.81436" lon="4.80585">
        <ele>302</ele>
        <time>2020-11-13T07:32:23.000Z</time>
      </trkpt>
      <trkpt lat="49.81438" lon="4.80584">
        <ele>303</ele>
        <time>2020-11-13T07:32:24.000Z</time>
      </trkpt>
      <trkpt lat="49.81439" lon="4.80583">
        <ele>303</ele>
        <time>2020-11-13T07:32:25.000Z</time>
      </trkpt>
      <trkpt lat="49.8144" lon="4.80581">
        <ele>303</ele>
        <time>2020-11-13T07:32:26.000Z</time>
      </trkpt>
      <trkpt lat="49.81442" lon="4.8058">
        <ele>303</ele>
        <time>2020-11-13T07:32:27.000Z</time>
      </trkpt>
      <trkpt lat="49.81443" lon="4.80579">
        <ele>304</ele>
        <time>2020-11-13T07:32:28.000Z</time>
      </trkpt>
      <trkpt lat="49.81444" lon="4.80579">
        <ele>304</ele>
        <time>2020-11-13T07:32:29.000Z</time>
      </trkpt>
      <trkpt lat="49.81446" lon="4.80578">
        <ele>304</ele>
        <time>2020-11-13T07:32:30.000Z</time>
      </trkpt>
      <trkpt lat="49.81448" lon="4.80577">
        <ele>304</ele>
        <time>2020-11-13T07:32:31.000Z</time>
      </trkpt>
      <trkpt lat="49.81449" lon="4.80577">
        <ele>305</ele>
        <time>2020-11-13T07:32:32.000Z</time>
      </trkpt>
      <trkpt lat="49.81451" lon="4.80576">
        <ele>305</ele>
        <time>2020-11-13T07:32:33.000Z</time>
      </trkpt>
      <trkpt lat="49.81452" lon="4.80575">
        <ele>306</ele>
        <time>2020-11-13T07:32:34.000Z</time>
      </trkpt>
      <trkpt lat="49.81454" lon="4.80574">
        <ele>306</ele>
        <time>2020-11-13T07:32:35.000Z</time>
      </trkpt>
      <trkpt lat="49.81455" lon="4.80574">
        <ele>306</ele>
        <time>2020-11-13T07:32:36.000Z</time>
      </trkpt>
      <trkpt lat="49.81457" lon="4.80573">
        <ele>306</ele>
        <time>2020-11-13T07:32:37.000Z</time>
      </trkpt>
      <trkpt lat="49.81459" lon="4.80573">
        <ele>307</ele>
        <time>2020-11-13T07:32:38.000Z</time>
      </trkpt>
      <trkpt lat="49.81461" lon="4.80572">
        <ele>307</ele>
        <time>2020-11-13T07:32:39.000Z</time>
      </trkpt>
      <trkpt lat="49.81463" lon="4.80571">
        <ele>307</ele>
        <time>2020-11-13T07:32:40.000Z</time>
      </trkpt>
      <trkpt lat="49.81464" lon="4.80571">
        <ele>308</ele>
        <time>2020-11-13T07:32:41.000Z</time>
      </trkpt>
      <trkpt lat="49.81465" lon="4.8057">
        <ele>308</ele>
        <time>2020-11-13T07:32:42.000Z</time>
      </trkpt>
      <trkpt lat="49.81467" lon="4.8057">
        <ele>308</ele>
        <time>2020-11-13T07:32:43.000Z</time>
      </trkpt>
      <trkpt lat="49.81469" lon="4.8057">
        <ele>309</ele>
        <time>2020-11-13T07:32:44.000Z</time>
      </trkpt>
      <trkpt lat="49.8147" lon="4.8057">
        <ele>309</ele>
        <time>2020-11-13T07:32:45.000Z</time>
      </trkpt>
      <trkpt lat="49.81472" lon="4.80571">
        <ele>309</ele>
        <time>2020-11-13T07:32:46.000Z</time>
      </trkpt>
      <trkpt lat="49.81474" lon="4.80571">
        <ele>309</ele>
        <time>2020-11-13T07:32:47.000Z</time>
      </trkpt>
      <trkpt lat="49.81475" lon="4.80571">
        <ele>310</ele>
        <time>2020-11-13T07:32:48.000Z</time>
      </trkpt>
      <trkpt lat="49.81476" lon="4.80571">
        <ele>310</ele>
        <time>2020-11-13T07:32:49.000Z</time>
      </trkpt>
      <trkpt lat="49.81478" lon="4.80571">
        <ele>310</ele>
        <time>2020-11-13T07:32:50.000Z</time>
      </trkpt>
      <trkpt lat="49.81479" lon="4.80571">
        <ele>310</ele>
        <time>2020-11-13T07:32:51.000Z</time>
      </trkpt>
      <trkpt lat="49.81481" lon="4.80571">
        <ele>311</ele>
        <time>2020-11-13T07:32:52.000Z</time>
      </trkpt>
      <trkpt lat="49.81482" lon="4.80571">
        <ele>311</ele>
        <time>2020-11-13T07:32:53.000Z</time>
      </trkpt>
      <trkpt lat="49.81483" lon="4.80572">
        <ele>312</ele>
        <time>2020-11-13T07:32:54.000Z</time>
      </trkpt>
      <trkpt lat="49.81485" lon="4.80572">
        <ele>312</ele>
        <time>2020-11-13T07:32:55.000Z</time>
      </trkpt>
      <trkpt lat="49.81486" lon="4.80572">
        <ele>312</ele>
        <time>2020-11-13T07:32:56.000Z</time>
      </trkpt>
      <trkpt lat="49.81487" lon="4.80572">
        <ele>313</ele>
        <time>2020-11-13T07:32:57.000Z</time>
      </trkpt>
      <trkpt lat="49.81487" lon="4.80572">
        <ele>313</ele>
        <time>2020-11-13T07:32:58.000Z</time>
      </trkpt>
      <trkpt lat="49.81489" lon="4.80572">
        <ele>313</ele>
        <time>2020-11-13T07:32:59.000Z</time>
      </trkpt>
      <trkpt lat="49.81491" lon="4.80572">
        <ele>314</ele>
        <time>2020-11-13T07:33:00.000Z</time>
      </trkpt>
      <trkpt lat="49.81493" lon="4.80572">
        <ele>314</ele>
        <time>2020-11-13T07:33:01.000Z</time>
      </trkpt>
      <trkpt lat="49.81494" lon="4.80573">
        <ele>314</ele>
        <time>2020-11-13T07:33:02.000Z</time>
      </trkpt>
      <trkpt lat="49.81496" lon="4.80573">
        <ele>314</ele>
        <time>2020-11-13T07:33:03.000Z</time>
      </trkpt>
      <trkpt lat="49.81498" lon="4.80572">
        <ele>315</ele>
        <time>2020-11-13T07:33:04.000Z</time>
      </trkpt>
      <trkpt lat="49.815" lon="4.80572">
        <ele>315</ele>
        <time>2020-11-13T07:33:05.000Z</time>
      </trkpt>
      <trkpt lat="49.81502" lon="4.80572">
        <ele>315</ele>
        <time>2020-11-13T07:33:06.000Z</time>
      </trkpt>
      <trkpt lat="49.81503" lon="4.80572">
        <ele>315</ele>
        <time>2020-11-13T07:33:07.000Z</time>
      </trkpt>
      <trkpt lat="49.81505" lon="4.80572">
        <ele>315</ele>
        <time>2020-11-13T07:33:08.000Z</time>
      </trkpt>
      <trkpt lat="49.81507" lon="4.80573">
        <ele>315</ele>
        <time>2020-11-13T07:33:09.000Z</time>
      </trkpt>
      <trkpt lat="49.81509" lon="4.80573">
        <ele>316</ele>
        <time>2020-11-13T07:33:10.000Z</time>
      </trkpt>
      <trkpt lat="49.8151" lon="4.80573">
        <ele>316</ele>
        <time>2020-11-13T07:33:11.000Z</time>
      </trkpt>
      <trkpt lat="49.81512" lon="4.80573">
        <ele>316</ele>
        <time>2020-11-13T07:33:12.000Z</time>
      </trkpt>
      <trkpt lat="49.81514" lon="4.80573">
        <ele>316</ele>
        <time>2020-11-13T07:33:13.000Z</time>
      </trkpt>
      <trkpt lat="49.81516" lon="4.80574">
        <ele>316</ele>
        <time>2020-11-13T07:33:14.000Z</time>
      </trkpt>
      <trkpt lat="49.81518" lon="4.80574">
        <ele>316</ele>
        <time>2020-11-13T07:33:15.000Z</time>
      </trkpt>
      <trkpt lat="49.8152" lon="4.80574">
        <ele>316</ele>
        <time>2020-11-13T07:33:16.000Z</time>
      </trkpt>
      <trkpt lat="49.81522" lon="4.80574">
        <ele>316</ele>
        <time>2020-11-13T07:33:17.000Z</time>
      </trkpt>
      <trkpt lat="49.81524" lon="4.80574">
        <ele>316</ele>
        <time>2020-11-13T07:33:18.000Z</time>
      </trkpt>
      <trkpt lat="49.81526" lon="4.80575">
        <ele>316</ele>
        <time>2020-11-13T07:33:19.000Z</time>
      </trkpt>
      <trkpt lat="49.81528" lon="4.80575">
        <ele>316</ele>
        <time>2020-11-13T07:33:20.000Z</time>
      </trkpt>
      <trkpt lat="49.8153" lon="4.80575">
        <ele>316</ele>
        <time>2020-11-13T07:33:21.000Z</time>
      </trkpt>
      <trkpt lat="49.81533" lon="4.80576">
        <ele>316</ele>
        <time>2020-11-13T07:33:22.000Z</time>
      </trkpt>
      <trkpt lat="49.81535" lon="4.80576">
        <ele>317</ele>
        <time>2020-11-13T07:33:23.000Z</time>
      </trkpt>
      <trkpt lat="49.81538" lon="4.80576">
        <ele>317</ele>
        <time>2020-11-13T07:33:24.000Z</time>
      </trkpt>
      <trkpt lat="49.8154" lon="4.80577">
        <ele>317</ele>
        <time>2020-11-13T07:33:25.000Z</time>
      </trkpt>
      <trkpt lat="49.81543" lon="4.80577">
        <ele>317</ele>
        <time>2020-11-13T07:33:26.000Z</time>
      </trkpt>
      <trkpt lat="49.81545" lon="4.80576">
        <ele>317</ele>
        <time>2020-11-13T07:33:27.000Z</time>
      </trkpt>
      <trkpt lat="49.81548" lon="4.80576">
        <ele>317</ele>
        <time>2020-11-13T07:33:28.000Z</time>
      </trkpt>
      <trkpt lat="49.81551" lon="4.80576">
        <ele>317</ele>
        <time>2020-11-13T07:33:29.000Z</time>
      </trkpt>
      <trkpt lat="49.81553" lon="4.80575">
        <ele>317</ele>
        <time>2020-11-13T07:33:30.000Z</time>
      </trkpt>
      <trkpt lat="49.81556" lon="4.80575">
        <ele>317</ele>
        <time>2020-11-13T07:33:31.000Z</time>
      </trkpt>
      <trkpt lat="49.81559" lon="4.80575">
        <ele>317</ele>
        <time>2020-11-13T07:33:32.000Z</time>
      </trkpt>
      <trkpt lat="49.81562" lon="4.80575">
        <ele>318</ele>
        <time>2020-11-13T07:33:33.000Z</time>
      </trkpt>
      <trkpt lat="49.81566" lon="4.80575">
        <ele>318</ele>
        <time>2020-11-13T07:33:34.000Z</time>
      </trkpt>
      <trkpt lat="49.81569" lon="4.80573">
        <ele>318</ele>
        <time>2020-11-13T07:33:35.000Z</time>
      </trkpt>
      <trkpt lat="49.81572" lon="4.80573">
        <ele>318</ele>
        <time>2020-11-13T07:33:36.000Z</time>
      </trkpt>
      <trkpt lat="49.81575" lon="4.80573">
        <ele>318</ele>
        <time>2020-11-13T07:33:37.000Z</time>
      </trkpt>
      <trkpt lat="49.81578" lon="4.80574">
        <ele>318</ele>
        <time>2020-11-13T07:33:38.000Z</time>
      </trkpt>
      <trkpt lat="49.81581" lon="4.80574">
        <ele>319</ele>
        <time>2020-11-13T07:33:39.000Z</time>
      </trkpt>
      <trkpt lat="49.81584" lon="4.80575">
        <ele>319</ele>
        <time>2020-11-13T07:33:40.000Z</time>
      </trkpt>
      <trkpt lat="49.81587" lon="4.80575">
        <ele>319</ele>
        <time>2020-11-13T07:33:41.000Z</time>
      </trkpt>
      <trkpt lat="49.81589" lon="4.80576">
        <ele>319</ele>
        <time>2020-11-13T07:33:42.000Z</time>
      </trkpt>
      <trkpt lat="49.81592" lon="4.80576">
        <ele>319</ele>
        <time>2020-11-13T07:33:43.000Z</time>
      </trkpt>
      <trkpt lat="49.81594" lon="4.80576">
        <ele>319</ele>
        <time>2020-11-13T07:33:44.000Z</time>
      </trkpt>
      <trkpt lat="49.81596" lon="4.80576">
        <ele>319</ele>
        <time>2020-11-13T07:33:45.000Z</time>
      </trkpt>
      <trkpt lat="49.81598" lon="4.80576">
        <ele>320</ele>
        <time>2020-11-13T07:33:46.000Z</time>
      </trkpt>
      <trkpt lat="49.81601" lon="4.80576">
        <ele>320</ele>
        <time>2020-11-13T07:33:47.000Z</time>
      </trkpt>
      <trkpt lat="49.81604" lon="4.80576">
        <ele>320</ele>
        <time>2020-11-13T07:33:48.000Z</time>
      </trkpt>
      <trkpt lat="49.81607" lon="4.80577">
        <ele>320</ele>
        <time>2020-11-13T07:33:49.000Z</time>
      </trkpt>
      <trkpt lat="49.8161" lon="4.80577">
        <ele>320</ele>
        <time>2020-11-13T07:33:50.000Z</time>
      </trkpt>
      <trkpt lat="49.81612" lon="4.80578">
        <ele>320</ele>
        <time>2020-11-13T07:33:51.000Z</time>
      </trkpt>
      <trkpt lat="49.81614" lon="4.80578">
        <ele>320</ele>
        <time>2020-11-13T07:33:52.000Z</time>
      </trkpt>
      <trkpt lat="49.81618" lon="4.80578">
        <ele>320</ele>
        <time>2020-11-13T07:33:53.000Z</time>
      </trkpt>
      <trkpt lat="49.81622" lon="4.80578">
        <ele>320</ele>
        <time>2020-11-13T07:33:54.000Z</time>
      </trkpt>
      <trkpt lat="49.81625" lon="4.80578">
        <ele>320</ele>
        <time>2020-11-13T07:33:55.000Z</time>
      </trkpt>
      <trkpt lat="49.81629" lon="4.80578">
        <ele>321</ele>
        <time>2020-11-13T07:33:56.000Z</time>
      </trkpt>
      <trkpt lat="49.81632" lon="4.80577">
        <ele>321</ele>
        <time>2020-11-13T07:33:57.000Z</time>
      </trkpt>
      <trkpt lat="49.81635" lon="4.80576">
        <ele>321</ele>
        <time>2020-11-13T07:33:58.000Z</time>
      </trkpt>
      <trkpt lat="49.81638" lon="4.80575">
        <ele>321</ele>
        <time>2020-11-13T07:33:59.000Z</time>
      </trkpt>
      <trkpt lat="49.81641" lon="4.80574">
        <ele>321</ele>
        <time>2020-11-13T07:34:00.000Z</time>
      </trkpt>
      <trkpt lat="49.81645" lon="4.80574">
        <ele>321</ele>
        <time>2020-11-13T07:34:01.000Z</time>
      </trkpt>
      <trkpt lat="49.81648" lon="4.80574">
        <ele>321</ele>
        <time>2020-11-13T07:34:02.000Z</time>
      </trkpt>
      <trkpt lat="49.81652" lon="4.80574">
        <ele>321</ele>
        <time>2020-11-13T07:34:03.000Z</time>
      </trkpt>
      <trkpt lat="49.81656" lon="4.80573">
        <ele>321</ele>
        <time>2020-11-13T07:34:04.000Z</time>
      </trkpt>
      <trkpt lat="49.81659" lon="4.80573">
        <ele>321</ele>
        <time>2020-11-13T07:34:05.000Z</time>
      </trkpt>
      <trkpt lat="49.81662" lon="4.80573">
        <ele>321</ele>
        <time>2020-11-13T07:34:06.000Z</time>
      </trkpt>
      <trkpt lat="49.81664" lon="4.80572">
        <ele>321</ele>
        <time>2020-11-13T07:34:07.000Z</time>
      </trkpt>
      <trkpt lat="49.81667" lon="4.80572">
        <ele>321</ele>
        <time>2020-11-13T07:34:08.000Z</time>
      </trkpt>
      <trkpt lat="49.8167" lon="4.80572">
        <ele>321</ele>
        <time>2020-11-13T07:34:09.000Z</time>
      </trkpt>
      <trkpt lat="49.81673" lon="4.80572">
        <ele>321</ele>
        <time>2020-11-13T07:34:10.000Z</time>
      </trkpt>
      <trkpt lat="49.81676" lon="4.80572">
        <ele>321</ele>
        <time>2020-11-13T07:34:11.000Z</time>
      </trkpt>
      <trkpt lat="49.81679" lon="4.80571">
        <ele>320</ele>
        <time>2020-11-13T07:34:12.000Z</time>
      </trkpt>
      <trkpt lat="49.81682" lon="4.8057">
        <ele>320</ele>
        <time>2020-11-13T07:34:13.000Z</time>
      </trkpt>
      <trkpt lat="49.81685" lon="4.80569">
        <ele>320</ele>
        <time>2020-11-13T07:34:14.000Z</time>
      </trkpt>
      <trkpt lat="49.81688" lon="4.80569">
        <ele>320</ele>
        <time>2020-11-13T07:34:15.000Z</time>
      </trkpt>
      <trkpt lat="49.81691" lon="4.80569">
        <ele>320</ele>
        <time>2020-11-13T07:34:16.000Z</time>
      </trkpt>
      <trkpt lat="49.81695" lon="4.80569">
        <ele>320</ele>
        <time>2020-11-13T07:34:17.000Z</time>
      </trkpt>
      <trkpt lat="49.81698" lon="4.8057">
        <ele>320</ele>
        <time>2020-11-13T07:34:18.000Z</time>
      </trkpt>
      <trkpt lat="49.81701" lon="4.8057">
        <ele>320</ele>
        <time>2020-11-13T07:34:19.000Z</time>
      </trkpt>
      <trkpt lat="49.81704" lon="4.8057">
        <ele>320</ele>
        <time>2020-11-13T07:34:20.000Z</time>
      </trkpt>
      <trkpt lat="49.81707" lon="4.80569">
        <ele>320</ele>
        <time>2020-11-13T07:34:21.000Z</time>
      </trkpt>
      <trkpt lat="49.8171" lon="4.80569">
        <ele>320</ele>
        <time>2020-11-13T07:34:22.000Z</time>
      </trkpt>
      <trkpt lat="49.81713" lon="4.8057">
        <ele>320</ele>
        <time>2020-11-13T07:34:23.000Z</time>
      </trkpt>
      <trkpt lat="49.81717" lon="4.8057">
        <ele>320</ele>
        <time>2020-11-13T07:34:24.000Z</time>
      </trkpt>
      <trkpt lat="49.8172" lon="4.80571">
        <ele>320</ele>
        <time>2020-11-13T07:34:25.000Z</time>
      </trkpt>
      <trkpt lat="49.81722" lon="4.80571">
        <ele>320</ele>
        <time>2020-11-13T07:34:26.000Z</time>
      </trkpt>
      <trkpt lat="49.81725" lon="4.80572">
        <ele>320</ele>
        <time>2020-11-13T07:34:27.000Z</time>
      </trkpt>
      <trkpt lat="49.81728" lon="4.80571">
        <ele>320</ele>
        <time>2020-11-13T07:34:28.000Z</time>
      </trkpt>
      <trkpt lat="49.81731" lon="4.80571">
        <ele>320</ele>
        <time>2020-11-13T07:34:29.000Z</time>
      </trkpt>
      <trkpt lat="49.81734" lon="4.80571">
        <ele>320</ele>
        <time>2020-11-13T07:34:30.000Z</time>
      </trkpt>
      <trkpt lat="49.81738" lon="4.80571">
        <ele>320</ele>
        <time>2020-11-13T07:34:31.000Z</time>
      </trkpt>
      <trkpt lat="49.81741" lon="4.80571">
        <ele>320</ele>
        <time>2020-11-13T07:34:32.000Z</time>
      </trkpt>
      <trkpt lat="49.81745" lon="4.80572">
        <ele>320</ele>
        <time>2020-11-13T07:34:33.000Z</time>
      </trkpt>
      <trkpt lat="49.81748" lon="4.80573">
        <ele>320</ele>
        <time>2020-11-13T07:34:34.000Z</time>
      </trkpt>
      <trkpt lat="49.8175" lon="4.80575">
        <ele>320</ele>
        <time>2020-11-13T07:34:35.000Z</time>
      </trkpt>
      <trkpt lat="49.81753" lon="4.80575">
        <ele>320</ele>
        <time>2020-11-13T07:34:36.000Z</time>
      </trkpt>
      <trkpt lat="49.81755" lon="4.80576">
        <ele>320</ele>
        <time>2020-11-13T07:34:37.000Z</time>
      </trkpt>
      <trkpt lat="49.81757" lon="4.80576">
        <ele>320</ele>
        <time>2020-11-13T07:34:38.000Z</time>
      </trkpt>
      <trkpt lat="49.81759" lon="4.80577">
        <ele>321</ele>
        <time>2020-11-13T07:34:39.000Z</time>
      </trkpt>
      <trkpt lat="49.81761" lon="4.80577">
        <ele>321</ele>
        <time>2020-11-13T07:34:40.000Z</time>
      </trkpt>
      <trkpt lat="49.81763" lon="4.80577">
        <ele>321</ele>
        <time>2020-11-13T07:34:41.000Z</time>
      </trkpt>
      <trkpt lat="49.81765" lon="4.80578">
        <ele>321</ele>
        <time>2020-11-13T07:34:42.000Z</time>
      </trkpt>
      <trkpt lat="49.81767" lon="4.8058">
        <ele>321</ele>
        <time>2020-11-13T07:34:43.000Z</time>
      </trkpt>
      <trkpt lat="49.8177" lon="4.80582">
        <ele>321</ele>
        <time>2020-11-13T07:34:44.000Z</time>
      </trkpt>
      <trkpt lat="49.81773" lon="4.80583">
        <ele>321</ele>
        <time>2020-11-13T07:34:45.000Z</time>
      </trkpt>
      <trkpt lat="49.81776" lon="4.80585">
        <ele>321</ele>
        <time>2020-11-13T07:34:46.000Z</time>
      </trkpt>
      <trkpt lat="49.81779" lon="4.80586">
        <ele>322</ele>
        <time>2020-11-13T07:34:47.000Z</time>
      </trkpt>
      <trkpt lat="49.81783" lon="4.80587">
        <ele>322</ele>
        <time>2020-11-13T07:34:48.000Z</time>
      </trkpt>
      <trkpt lat="49.81786" lon="4.80588">
        <ele>322</ele>
        <time>2020-11-13T07:34:49.000Z</time>
      </trkpt>
      <trkpt lat="49.81789" lon="4.80589">
        <ele>322</ele>
        <time>2020-11-13T07:34:50.000Z</time>
      </trkpt>
      <trkpt lat="49.81792" lon="4.80589">
        <ele>322</ele>
        <time>2020-11-13T07:34:51.000Z</time>
      </trkpt>
      <trkpt lat="49.81796" lon="4.8059">
        <ele>323</ele>
        <time>2020-11-13T07:34:52.000Z</time>
      </trkpt>
      <trkpt lat="49.81799" lon="4.80591">
        <ele>323</ele>
        <time>2020-11-13T07:34:53.000Z</time>
      </trkpt>
      <trkpt lat="49.81803" lon="4.80592">
        <ele>323</ele>
        <time>2020-11-13T07:34:54.000Z</time>
      </trkpt>
      <trkpt lat="49.81806" lon="4.80593">
        <ele>323</ele>
        <time>2020-11-13T07:34:55.000Z</time>
      </trkpt>
      <trkpt lat="49.81809" lon="4.80593">
        <ele>323</ele>
        <time>2020-11-13T07:34:56.000Z</time>
      </trkpt>
      <trkpt lat="49.81811" lon="4.80594">
        <ele>324</ele>
        <time>2020-11-13T07:34:57.000Z</time>
      </trkpt>
      <trkpt lat="49.81813" lon="4.80594">
        <ele>324</ele>
        <time>2020-11-13T07:34:58.000Z</time>
      </trkpt>
      <trkpt lat="49.81816" lon="4.80595">
        <ele>324</ele>
        <time>2020-11-13T07:34:59.000Z</time>
      </trkpt>
      <trkpt lat="49.81818" lon="4.80596">
        <ele>324</ele>
        <time>2020-11-13T07:35:00.000Z</time>
      </trkpt>
      <trkpt lat="49.81821" lon="4.80597">
        <ele>324</ele>
        <time>2020-11-13T07:35:01.000Z</time>
      </trkpt>
      <trkpt lat="49.81823" lon="4.80598">
        <ele>325</ele>
        <time>2020-11-13T07:35:02.000Z</time>
      </trkpt>
      <trkpt lat="49.81826" lon="4.806">
        <ele>325</ele>
        <time>2020-11-13T07:35:03.000Z</time>
      </trkpt>
      <trkpt lat="49.81829" lon="4.80601">
        <ele>325</ele>
        <time>2020-11-13T07:35:04.000Z</time>
      </trkpt>
      <trkpt lat="49.81832" lon="4.80603">
        <ele>325</ele>
        <time>2020-11-13T07:35:05.000Z</time>
      </trkpt>
      <trkpt lat="49.81834" lon="4.80605">
        <ele>325</ele>
        <time>2020-11-13T07:35:06.000Z</time>
      </trkpt>
      <trkpt lat="49.81838" lon="4.80606">
        <ele>326</ele>
        <time>2020-11-13T07:35:07.000Z</time>
      </trkpt>
      <trkpt lat="49.8184" lon="4.80607">
        <ele>326</ele>
        <time>2020-11-13T07:35:08.000Z</time>
      </trkpt>
      <trkpt lat="49.81843" lon="4.80609">
        <ele>326</ele>
        <time>2020-11-13T07:35:09.000Z</time>
      </trkpt>
      <trkpt lat="49.81846" lon="4.8061">
        <ele>326</ele>
        <time>2020-11-13T07:35:10.000Z</time>
      </trkpt>
      <trkpt lat="49.8185" lon="4.80611">
        <ele>326</ele>
        <time>2020-11-13T07:35:11.000Z</time>
      </trkpt>
      <trkpt lat="49.81852" lon="4.80612">
        <ele>326</ele>
        <time>2020-11-13T07:35:12.000Z</time>
      </trkpt>
      <trkpt lat="49.81855" lon="4.80613">
        <ele>326</ele>
        <time>2020-11-13T07:35:13.000Z</time>
      </trkpt>
      <trkpt lat="49.81857" lon="4.80615">
        <ele>326</ele>
        <time>2020-11-13T07:35:14.000Z</time>
      </trkpt>
      <trkpt lat="49.8186" lon="4.80616">
        <ele>327</ele>
        <time>2020-11-13T07:35:15.000Z</time>
      </trkpt>
      <trkpt lat="49.81863" lon="4.80618">
        <ele>327</ele>
        <time>2020-11-13T07:35:16.000Z</time>
      </trkpt>
      <trkpt lat="49.81866" lon="4.80619">
        <ele>327</ele>
        <time>2020-11-13T07:35:17.000Z</time>
      </trkpt>
      <trkpt lat="49.81868" lon="4.80621">
        <ele>327</ele>
        <time>2020-11-13T07:35:18.000Z</time>
      </trkpt>
      <trkpt lat="49.81871" lon="4.80621">
        <ele>327</ele>
        <time>2020-11-13T07:35:19.000Z</time>
      </trkpt>
      <trkpt lat="49.81873" lon="4.80622">
        <ele>327</ele>
        <time>2020-11-13T07:35:20.000Z</time>
      </trkpt>
      <trkpt lat="49.81876" lon="4.80624">
        <ele>328</ele>
        <time>2020-11-13T07:35:21.000Z</time>
      </trkpt>
      <trkpt lat="49.81879" lon="4.80625">
        <ele>328</ele>
        <time>2020-11-13T07:35:22.000Z</time>
      </trkpt>
      <trkpt lat="49.81883" lon="4.80627">
        <ele>328</ele>
        <time>2020-11-13T07:35:23.000Z</time>
      </trkpt>
      <trkpt lat="49.81885" lon="4.80628">
        <ele>328</ele>
        <time>2020-11-13T07:35:24.000Z</time>
      </trkpt>
      <trkpt lat="49.81888" lon="4.8063">
        <ele>328</ele>
        <time>2020-11-13T07:35:25.000Z</time>
      </trkpt>
      <trkpt lat="49.81891" lon="4.80632">
        <ele>329</ele>
        <time>2020-11-13T07:35:26.000Z</time>
      </trkpt>
      <trkpt lat="49.81894" lon="4.80634">
        <ele>329</ele>
        <time>2020-11-13T07:35:27.000Z</time>
      </trkpt>
      <trkpt lat="49.81897" lon="4.80636">
        <ele>329</ele>
        <time>2020-11-13T07:35:28.000Z</time>
      </trkpt>
      <trkpt lat="49.819" lon="4.80637">
        <ele>329</ele>
        <time>2020-11-13T07:35:29.000Z</time>
      </trkpt>
      <trkpt lat="49.81902" lon="4.80639">
        <ele>329</ele>
        <time>2020-11-13T07:35:30.000Z</time>
      </trkpt>
      <trkpt lat="49.81904" lon="4.8064">
        <ele>329</ele>
        <time>2020-11-13T07:35:31.000Z</time>
      </trkpt>
      <trkpt lat="49.81907" lon="4.80641">
        <ele>329</ele>
        <time>2020-11-13T07:35:32.000Z</time>
      </trkpt>
      <trkpt lat="49.81909" lon="4.80643">
        <ele>330</ele>
        <time>2020-11-13T07:35:33.000Z</time>
      </trkpt>
      <trkpt lat="49.81911" lon="4.80645">
        <ele>330</ele>
        <time>2020-11-13T07:35:34.000Z</time>
      </trkpt>
      <trkpt lat="49.81914" lon="4.80647">
        <ele>330</ele>
        <time>2020-11-13T07:35:35.000Z</time>
      </trkpt>
      <trkpt lat="49.81916" lon="4.80649">
        <ele>330</ele>
        <time>2020-11-13T07:35:36.000Z</time>
      </trkpt>
      <trkpt lat="49.81919" lon="4.80651">
        <ele>330</ele>
        <time>2020-11-13T07:35:37.000Z</time>
      </trkpt>
      <trkpt lat="49.81921" lon="4.80652">
        <ele>330</ele>
        <time>2020-11-13T07:35:38.000Z</time>
      </trkpt>
      <trkpt lat="49.81924" lon="4.80653">
        <ele>330</ele>
        <time>2020-11-13T07:35:39.000Z</time>
      </trkpt>
      <trkpt lat="49.81926" lon="4.80653">
        <ele>330</ele>
        <time>2020-11-13T07:35:40.000Z</time>
      </trkpt>
      <trkpt lat="49.81928" lon="4.80654">
        <ele>330</ele>
        <time>2020-11-13T07:35:41.000Z</time>
      </trkpt>
      <trkpt lat="49.81931" lon="4.80655">
        <ele>330</ele>
        <time>2020-11-13T07:35:42.000Z</time>
      </trkpt>
      <trkpt lat="49.81934" lon="4.80655">
        <ele>330</ele>
        <time>2020-11-13T07:35:43.000Z</time>
      </trkpt>
      <trkpt lat="49.81937" lon="4.80656">
        <ele>330</ele>
        <time>2020-11-13T07:35:44.000Z</time>
      </trkpt>
      <trkpt lat="49.8194" lon="4.80656">
        <ele>330</ele>
        <time>2020-11-13T07:35:45.000Z</time>
      </trkpt>
      <trkpt lat="49.81942" lon="4.80657">
        <ele>329</ele>
        <time>2020-11-13T07:35:46.000Z</time>
      </trkpt>
      <trkpt lat="49.81944" lon="4.80658">
        <ele>330</ele>
        <time>2020-11-13T07:35:47.000Z</time>
      </trkpt>
      <trkpt lat="49.81946" lon="4.80659">
        <ele>330</ele>
        <time>2020-11-13T07:35:48.000Z</time>
      </trkpt>
      <trkpt lat="49.81949" lon="4.80659">
        <ele>330</ele>
        <time>2020-11-13T07:35:49.000Z</time>
      </trkpt>
      <trkpt lat="49.81951" lon="4.8066">
        <ele>330</ele>
        <time>2020-11-13T07:35:50.000Z</time>
      </trkpt>
      <trkpt lat="49.81954" lon="4.80661">
        <ele>330</ele>
        <time>2020-11-13T07:35:51.000Z</time>
      </trkpt>
      <trkpt lat="49.81956" lon="4.80662">
        <ele>330</ele>
        <time>2020-11-13T07:35:52.000Z</time>
      </trkpt>
      <trkpt lat="49.81958" lon="4.80663">
        <ele>330</ele>
        <time>2020-11-13T07:35:53.000Z</time>
      </trkpt>
      <trkpt lat="49.81961" lon="4.80665">
        <ele>330</ele>
        <time>2020-11-13T07:35:54.000Z</time>
      </trkpt>
      <trkpt lat="49.81964" lon="4.80667">
        <ele>330</ele>
        <time>2020-11-13T07:35:55.000Z</time>
      </trkpt>
      <trkpt lat="49.81967" lon="4.80669">
        <ele>330</ele>
        <time>2020-11-13T07:35:56.000Z</time>
      </trkpt>
      <trkpt lat="49.8197" lon="4.8067">
        <ele>330</ele>
        <time>2020-11-13T07:35:57.000Z</time>
      </trkpt>
      <trkpt lat="49.81973" lon="4.80672">
        <ele>330</ele>
        <time>2020-11-13T07:35:58.000Z</time>
      </trkpt>
      <trkpt lat="49.81975" lon="4.80673">
        <ele>330</ele>
        <time>2020-11-13T07:35:59.000Z</time>
      </trkpt>
      <trkpt lat="49.81977" lon="4.80675">
        <ele>330</ele>
        <time>2020-11-13T07:36:00.000Z</time>
      </trkpt>
      <trkpt lat="49.81979" lon="4.80677">
        <ele>330</ele>
        <time>2020-11-13T07:36:01.000Z</time>
      </trkpt>
      <trkpt lat="49.81982" lon="4.80678">
        <ele>330</ele>
        <time>2020-11-13T07:36:02.000Z</time>
      </trkpt>
      <trkpt lat="49.81984" lon="4.80679">
        <ele>330</ele>
        <time>2020-11-13T07:36:03.000Z</time>
      </trkpt>
      <trkpt lat="49.81987" lon="4.8068">
        <ele>330</ele>
        <time>2020-11-13T07:36:04.000Z</time>
      </trkpt>
      <trkpt lat="49.81989" lon="4.80681">
        <ele>331</ele>
        <time>2020-11-13T07:36:05.000Z</time>
      </trkpt>
      <trkpt lat="49.81992" lon="4.80683">
        <ele>331</ele>
        <time>2020-11-13T07:36:06.000Z</time>
      </trkpt>
      <trkpt lat="49.81994" lon="4.80685">
        <ele>331</ele>
        <time>2020-11-13T07:36:07.000Z</time>
      </trkpt>
      <trkpt lat="49.81997" lon="4.80687">
        <ele>331</ele>
        <time>2020-11-13T07:36:08.000Z</time>
      </trkpt>
      <trkpt lat="49.82" lon="4.80689">
        <ele>331</ele>
        <time>2020-11-13T07:36:09.000Z</time>
      </trkpt>
      <trkpt lat="49.82003" lon="4.8069">
        <ele>331</ele>
        <time>2020-11-13T07:36:10.000Z</time>
      </trkpt>
      <trkpt lat="49.82006" lon="4.80691">
        <ele>331</ele>
        <time>2020-11-13T07:36:11.000Z</time>
      </trkpt>
      <trkpt lat="49.82009" lon="4.80692">
        <ele>331</ele>
        <time>2020-11-13T07:36:12.000Z</time>
      </trkpt>
      <trkpt lat="49.82012" lon="4.80693">
        <ele>331</ele>
        <time>2020-11-13T07:36:13.000Z</time>
      </trkpt>
      <trkpt lat="49.82015" lon="4.80693">
        <ele>330</ele>
        <time>2020-11-13T07:36:14.000Z</time>
      </trkpt>
      <trkpt lat="49.82018" lon="4.80693">
        <ele>330</ele>
        <time>2020-11-13T07:36:15.000Z</time>
      </trkpt>
      <trkpt lat="49.8202" lon="4.80693">
        <ele>330</ele>
        <time>2020-11-13T07:36:16.000Z</time>
      </trkpt>
      <trkpt lat="49.82023" lon="4.80693">
        <ele>330</ele>
        <time>2020-11-13T07:36:17.000Z</time>
      </trkpt>
      <trkpt lat="49.82026" lon="4.80693">
        <ele>330</ele>
        <time>2020-11-13T07:36:18.000Z</time>
      </trkpt>
      <trkpt lat="49.82028" lon="4.80695">
        <ele>330</ele>
        <time>2020-11-13T07:36:19.000Z</time>
      </trkpt>
      <trkpt lat="49.8203" lon="4.80696">
        <ele>330</ele>
        <time>2020-11-13T07:36:20.000Z</time>
      </trkpt>
      <trkpt lat="49.82033" lon="4.80696">
        <ele>330</ele>
        <time>2020-11-13T07:36:21.000Z</time>
      </trkpt>
      <trkpt lat="49.82035" lon="4.80697">
        <ele>330</ele>
        <time>2020-11-13T07:36:22.000Z</time>
      </trkpt>
      <trkpt lat="49.82037" lon="4.80698">
        <ele>330</ele>
        <time>2020-11-13T07:36:23.000Z</time>
      </trkpt>
      <trkpt lat="49.8204" lon="4.80698">
        <ele>330</ele>
        <time>2020-11-13T07:36:24.000Z</time>
      </trkpt>
      <trkpt lat="49.82042" lon="4.80697">
        <ele>330</ele>
        <time>2020-11-13T07:36:25.000Z</time>
      </trkpt>
      <trkpt lat="49.82045" lon="4.80696">
        <ele>330</ele>
        <time>2020-11-13T07:36:26.000Z</time>
      </trkpt>
      <trkpt lat="49.82047" lon="4.80696">
        <ele>330</ele>
        <time>2020-11-13T07:36:27.000Z</time>
      </trkpt>
      <trkpt lat="49.82049" lon="4.80695">
        <ele>330</ele>
        <time>2020-11-13T07:36:28.000Z</time>
      </trkpt>
      <trkpt lat="49.82052" lon="4.80694">
        <ele>329</ele>
        <time>2020-11-13T07:36:29.000Z</time>
      </trkpt>
      <trkpt lat="49.82054" lon="4.80694">
        <ele>329</ele>
        <time>2020-11-13T07:36:30.000Z</time>
      </trkpt>
      <trkpt lat="49.82056" lon="4.80693">
        <ele>329</ele>
        <time>2020-11-13T07:36:31.000Z</time>
      </trkpt>
      <trkpt lat="49.82058" lon="4.80693">
        <ele>329</ele>
        <time>2020-11-13T07:36:32.000Z</time>
      </trkpt>
      <trkpt lat="49.82061" lon="4.80692">
        <ele>329</ele>
        <time>2020-11-13T07:36:33.000Z</time>
      </trkpt>
      <trkpt lat="49.82063" lon="4.80691">
        <ele>329</ele>
        <time>2020-11-13T07:36:34.000Z</time>
      </trkpt>
      <trkpt lat="49.82066" lon="4.8069">
        <ele>329</ele>
        <time>2020-11-13T07:36:35.000Z</time>
      </trkpt>
      <trkpt lat="49.82068" lon="4.80689">
        <ele>329</ele>
        <time>2020-11-13T07:36:36.000Z</time>
      </trkpt>
      <trkpt lat="49.82071" lon="4.80689">
        <ele>329</ele>
        <time>2020-11-13T07:36:37.000Z</time>
      </trkpt>
      <trkpt lat="49.82073" lon="4.80688">
        <ele>329</ele>
        <time>2020-11-13T07:36:38.000Z</time>
      </trkpt>
      <trkpt lat="49.82075" lon="4.80688">
        <ele>329</ele>
        <time>2020-11-13T07:36:39.000Z</time>
      </trkpt>
      <trkpt lat="49.82078" lon="4.80686">
        <ele>328</ele>
        <time>2020-11-13T07:36:40.000Z</time>
      </trkpt>
      <trkpt lat="49.8208" lon="4.80685">
        <ele>328</ele>
        <time>2020-11-13T07:36:41.000Z</time>
      </trkpt>
      <trkpt lat="49.82083" lon="4.80684">
        <ele>328</ele>
        <time>2020-11-13T07:36:42.000Z</time>
      </trkpt>
      <trkpt lat="49.82086" lon="4.80683">
        <ele>328</ele>
        <time>2020-11-13T07:36:43.000Z</time>
      </trkpt>
      <trkpt lat="49.82088" lon="4.80683">
        <ele>328</ele>
        <time>2020-11-13T07:36:44.000Z</time>
      </trkpt>
      <trkpt lat="49.82091" lon="4.80682">
        <ele>328</ele>
        <time>2020-11-13T07:36:45.000Z</time>
      </trkpt>
      <trkpt lat="49.82094" lon="4.80682">
        <ele>328</ele>
        <time>2020-11-13T07:36:46.000Z</time>
      </trkpt>
      <trkpt lat="49.82097" lon="4.80681">
        <ele>328</ele>
        <time>2020-11-13T07:36:47.000Z</time>
      </trkpt>
      <trkpt lat="49.821" lon="4.80682">
        <ele>328</ele>
        <time>2020-11-13T07:36:48.000Z</time>
      </trkpt>
      <trkpt lat="49.82102" lon="4.80682">
        <ele>328</ele>
        <time>2020-11-13T07:36:49.000Z</time>
      </trkpt>
      <trkpt lat="49.82105" lon="4.80682">
        <ele>328</ele>
        <time>2020-11-13T07:36:50.000Z</time>
      </trkpt>
      <trkpt lat="49.82108" lon="4.80682">
        <ele>328</ele>
        <time>2020-11-13T07:36:51.000Z</time>
      </trkpt>
      <trkpt lat="49.8211" lon="4.80682">
        <ele>328</ele>
        <time>2020-11-13T07:36:52.000Z</time>
      </trkpt>
      <trkpt lat="49.82112" lon="4.80682">
        <ele>328</ele>
        <time>2020-11-13T07:36:53.000Z</time>
      </trkpt>
      <trkpt lat="49.82114" lon="4.80683">
        <ele>328</ele>
        <time>2020-11-13T07:36:54.000Z</time>
      </trkpt>
      <trkpt lat="49.82116" lon="4.80684">
        <ele>328</ele>
        <time>2020-11-13T07:36:55.000Z</time>
      </trkpt>
      <trkpt lat="49.82119" lon="4.80685">
        <ele>328</ele>
        <time>2020-11-13T07:36:56.000Z</time>
      </trkpt>
      <trkpt lat="49.82121" lon="4.80684">
        <ele>328</ele>
        <time>2020-11-13T07:36:57.000Z</time>
      </trkpt>
      <trkpt lat="49.82123" lon="4.80684">
        <ele>328</ele>
        <time>2020-11-13T07:36:58.000Z</time>
      </trkpt>
      <trkpt lat="49.82126" lon="4.80683">
        <ele>328</ele>
        <time>2020-11-13T07:36:59.000Z</time>
      </trkpt>
      <trkpt lat="49.82128" lon="4.80681">
        <ele>328</ele>
        <time>2020-11-13T07:37:00.000Z</time>
      </trkpt>
      <trkpt lat="49.82131" lon="4.8068">
        <ele>328</ele>
        <time>2020-11-13T07:37:01.000Z</time>
      </trkpt>
      <trkpt lat="49.82134" lon="4.8068">
        <ele>328</ele>
        <time>2020-11-13T07:37:02.000Z</time>
      </trkpt>
      <trkpt lat="49.82138" lon="4.80681">
        <ele>328</ele>
        <time>2020-11-13T07:37:03.000Z</time>
      </trkpt>
      <trkpt lat="49.82142" lon="4.80683">
        <ele>328</ele>
        <time>2020-11-13T07:37:04.000Z</time>
      </trkpt>
      <trkpt lat="49.82145" lon="4.80685">
        <ele>328</ele>
        <time>2020-11-13T07:37:05.000Z</time>
      </trkpt>
      <trkpt lat="49.82149" lon="4.80687">
        <ele>328</ele>
        <time>2020-11-13T07:37:06.000Z</time>
      </trkpt>
      <trkpt lat="49.82152" lon="4.80689">
        <ele>329</ele>
        <time>2020-11-13T07:37:07.000Z</time>
      </trkpt>
      <trkpt lat="49.82156" lon="4.8069">
        <ele>329</ele>
        <time>2020-11-13T07:37:08.000Z</time>
      </trkpt>
      <trkpt lat="49.82158" lon="4.80691">
        <ele>329</ele>
        <time>2020-11-13T07:37:09.000Z</time>
      </trkpt>
      <trkpt lat="49.82161" lon="4.80693">
        <ele>329</ele>
        <time>2020-11-13T07:37:10.000Z</time>
      </trkpt>
      <trkpt lat="49.82164" lon="4.80695">
        <ele>329</ele>
        <time>2020-11-13T07:37:11.000Z</time>
      </trkpt>
      <trkpt lat="49.82167" lon="4.80697">
        <ele>329</ele>
        <time>2020-11-13T07:37:12.000Z</time>
      </trkpt>
      <trkpt lat="49.8217" lon="4.80698">
        <ele>329</ele>
        <time>2020-11-13T07:37:13.000Z</time>
      </trkpt>
      <trkpt lat="49.82173" lon="4.80701">
        <ele>329</ele>
        <time>2020-11-13T07:37:14.000Z</time>
      </trkpt>
      <trkpt lat="49.82175" lon="4.80703">
        <ele>329</ele>
        <time>2020-11-13T07:37:15.000Z</time>
      </trkpt>
      <trkpt lat="49.82177" lon="4.80707">
        <ele>329</ele>
        <time>2020-11-13T07:37:16.000Z</time>
      </trkpt>
      <trkpt lat="49.82179" lon="4.8071">
        <ele>329</ele>
        <time>2020-11-13T07:37:17.000Z</time>
      </trkpt>
      <trkpt lat="49.8218" lon="4.80714">
        <ele>329</ele>
        <time>2020-11-13T07:37:18.000Z</time>
      </trkpt>
      <trkpt lat="49.82182" lon="4.80718">
        <ele>329</ele>
        <time>2020-11-13T07:37:19.000Z</time>
      </trkpt>
      <trkpt lat="49.82184" lon="4.80721">
        <ele>329</ele>
        <time>2020-11-13T07:37:20.000Z</time>
      </trkpt>
      <trkpt lat="49.82186" lon="4.80725">
        <ele>329</ele>
        <time>2020-11-13T07:37:21.000Z</time>
      </trkpt>
      <trkpt lat="49.82189" lon="4.80728">
        <ele>329</ele>
        <time>2020-11-13T07:37:22.000Z</time>
      </trkpt>
      <trkpt lat="49.82191" lon="4.80731">
        <ele>329</ele>
        <time>2020-11-13T07:37:23.000Z</time>
      </trkpt>
      <trkpt lat="49.82193" lon="4.80734">
        <ele>329</ele>
        <time>2020-11-13T07:37:24.000Z</time>
      </trkpt>
      <trkpt lat="49.82196" lon="4.80736">
        <ele>329</ele>
        <time>2020-11-13T07:37:25.000Z</time>
      </trkpt>
      <trkpt lat="49.82199" lon="4.80738">
        <ele>329</ele>
        <time>2020-11-13T07:37:26.000Z</time>
      </trkpt>
      <trkpt lat="49.82202" lon="4.8074">
        <ele>329</ele>
        <time>2020-11-13T07:37:27.000Z</time>
      </trkpt>
      <trkpt lat="49.82204" lon="4.80743">
        <ele>329</ele>
        <time>2020-11-13T07:37:28.000Z</time>
      </trkpt>
      <trkpt lat="49.82207" lon="4.80745">
        <ele>329</ele>
        <time>2020-11-13T07:37:29.000Z</time>
      </trkpt>
      <trkpt lat="49.8221" lon="4.80748">
        <ele>330</ele>
        <time>2020-11-13T07:37:30.000Z</time>
      </trkpt>
      <trkpt lat="49.82212" lon="4.8075">
        <ele>330</ele>
        <time>2020-11-13T07:37:31.000Z</time>
      </trkpt>
      <trkpt lat="49.82214" lon="4.80752">
        <ele>330</ele>
        <time>2020-11-13T07:37:32.000Z</time>
      </trkpt>
      <trkpt lat="49.82216" lon="4.80754">
        <ele>330</ele>
        <time>2020-11-13T07:37:33.000Z</time>
      </trkpt>
      <trkpt lat="49.82218" lon="4.80754">
        <ele>330</ele>
        <time>2020-11-13T07:37:34.000Z</time>
      </trkpt>
      <trkpt lat="49.8222" lon="4.80756">
        <ele>330</ele>
        <time>2020-11-13T07:37:35.000Z</time>
      </trkpt>
      <trkpt lat="49.82222" lon="4.80758">
        <ele>330</ele>
        <time>2020-11-13T07:37:36.000Z</time>
      </trkpt>
      <trkpt lat="49.82224" lon="4.8076">
        <ele>331</ele>
        <time>2020-11-13T07:37:37.000Z</time>
      </trkpt>
      <trkpt lat="49.82225" lon="4.80761">
        <ele>331</ele>
        <time>2020-11-13T07:37:38.000Z</time>
      </trkpt>
      <trkpt lat="49.82226" lon="4.80762">
        <ele>331</ele>
        <time>2020-11-13T07:37:39.000Z</time>
      </trkpt>
      <trkpt lat="49.82227" lon="4.80763">
        <ele>331</ele>
        <time>2020-11-13T07:37:40.000Z</time>
      </trkpt>
      <trkpt lat="49.82229" lon="4.80764">
        <ele>332</ele>
        <time>2020-11-13T07:37:41.000Z</time>
      </trkpt>
      <trkpt lat="49.82231" lon="4.80765">
        <ele>332</ele>
        <time>2020-11-13T07:37:42.000Z</time>
      </trkpt>
      <trkpt lat="49.82234" lon="4.80767">
        <ele>332</ele>
        <time>2020-11-13T07:37:43.000Z</time>
      </trkpt>
      <trkpt lat="49.82236" lon="4.80769">
        <ele>332</ele>
        <time>2020-11-13T07:37:44.000Z</time>
      </trkpt>
      <trkpt lat="49.82239" lon="4.80771">
        <ele>332</ele>
        <time>2020-11-13T07:37:45.000Z</time>
      </trkpt>
      <trkpt lat="49.82241" lon="4.80772">
        <ele>333</ele>
        <time>2020-11-13T07:37:46.000Z</time>
      </trkpt>
      <trkpt lat="49.82243" lon="4.80773">
        <ele>333</ele>
        <time>2020-11-13T07:37:47.000Z</time>
      </trkpt>
      <trkpt lat="49.82245" lon="4.80774">
        <ele>333</ele>
        <time>2020-11-13T07:37:48.000Z</time>
      </trkpt>
      <trkpt lat="49.82248" lon="4.80775">
        <ele>333</ele>
        <time>2020-11-13T07:37:49.000Z</time>
      </trkpt>
      <trkpt lat="49.8225" lon="4.80776">
        <ele>334</ele>
        <time>2020-11-13T07:37:50.000Z</time>
      </trkpt>
      <trkpt lat="49.82253" lon="4.80777">
        <ele>334</ele>
        <time>2020-11-13T07:37:51.000Z</time>
      </trkpt>
      <trkpt lat="49.82255" lon="4.80778">
        <ele>334</ele>
        <time>2020-11-13T07:37:52.000Z</time>
      </trkpt>
      <trkpt lat="49.82257" lon="4.80779">
        <ele>334</ele>
        <time>2020-11-13T07:37:53.000Z</time>
      </trkpt>
      <trkpt lat="49.8226" lon="4.80779">
        <ele>334</ele>
        <time>2020-11-13T07:37:54.000Z</time>
      </trkpt>
      <trkpt lat="49.82262" lon="4.8078">
        <ele>335</ele>
        <time>2020-11-13T07:37:55.000Z</time>
      </trkpt>
      <trkpt lat="49.82264" lon="4.80781">
        <ele>335</ele>
        <time>2020-11-13T07:37:56.000Z</time>
      </trkpt>
      <trkpt lat="49.82267" lon="4.80782">
        <ele>335</ele>
        <time>2020-11-13T07:37:57.000Z</time>
      </trkpt>
      <trkpt lat="49.8227" lon="4.80783">
        <ele>335</ele>
        <time>2020-11-13T07:37:58.000Z</time>
      </trkpt>
      <trkpt lat="49.82272" lon="4.80784">
        <ele>336</ele>
        <time>2020-11-13T07:37:59.000Z</time>
      </trkpt>
      <trkpt lat="49.82275" lon="4.80785">
        <ele>336</ele>
        <time>2020-11-13T07:38:00.000Z</time>
      </trkpt>
      <trkpt lat="49.82277" lon="4.80787">
        <ele>336</ele>
        <time>2020-11-13T07:38:01.000Z</time>
      </trkpt>
      <trkpt lat="49.8228" lon="4.80788">
        <ele>336</ele>
        <time>2020-11-13T07:38:02.000Z</time>
      </trkpt>
      <trkpt lat="49.82283" lon="4.80789">
        <ele>337</ele>
        <time>2020-11-13T07:38:03.000Z</time>
      </trkpt>
      <trkpt lat="49.82286" lon="4.80791">
        <ele>337</ele>
        <time>2020-11-13T07:38:04.000Z</time>
      </trkpt>
      <trkpt lat="49.82289" lon="4.80792">
        <ele>337</ele>
        <time>2020-11-13T07:38:05.000Z</time>
      </trkpt>
      <trkpt lat="49.82292" lon="4.80793">
        <ele>337</ele>
        <time>2020-11-13T07:38:06.000Z</time>
      </trkpt>
      <trkpt lat="49.82294" lon="4.80794">
        <ele>338</ele>
        <time>2020-11-13T07:38:07.000Z</time>
      </trkpt>
      <trkpt lat="49.82297" lon="4.80795">
        <ele>338</ele>
        <time>2020-11-13T07:38:08.000Z</time>
      </trkpt>
      <trkpt lat="49.82299" lon="4.80796">
        <ele>338</ele>
        <time>2020-11-13T07:38:09.000Z</time>
      </trkpt>
      <trkpt lat="49.82302" lon="4.80797">
        <ele>338</ele>
        <time>2020-11-13T07:38:10.000Z</time>
      </trkpt>
      <trkpt lat="49.82304" lon="4.80798">
        <ele>339</ele>
        <time>2020-11-13T07:38:11.000Z</time>
      </trkpt>
      <trkpt lat="49.82307" lon="4.808">
        <ele>339</ele>
        <time>2020-11-13T07:38:12.000Z</time>
      </trkpt>
      <trkpt lat="49.82309" lon="4.80802">
        <ele>339</ele>
        <time>2020-11-13T07:38:13.000Z</time>
      </trkpt>
      <trkpt lat="49.82312" lon="4.80804">
        <ele>339</ele>
        <time>2020-11-13T07:38:14.000Z</time>
      </trkpt>
      <trkpt lat="49.82315" lon="4.80805">
        <ele>340</ele>
        <time>2020-11-13T07:38:15.000Z</time>
      </trkpt>
      <trkpt lat="49.82319" lon="4.80807">
        <ele>340</ele>
        <time>2020-11-13T07:38:16.000Z</time>
      </trkpt>
      <trkpt lat="49.82321" lon="4.80809">
        <ele>340</ele>
        <time>2020-11-13T07:38:17.000Z</time>
      </trkpt>
      <trkpt lat="49.82324" lon="4.80811">
        <ele>340</ele>
        <time>2020-11-13T07:38:18.000Z</time>
      </trkpt>
      <trkpt lat="49.82326" lon="4.80814">
        <ele>340</ele>
        <time>2020-11-13T07:38:19.000Z</time>
      </trkpt>
      <trkpt lat="49.82329" lon="4.80816">
        <ele>340</ele>
        <time>2020-11-13T07:38:20.000Z</time>
      </trkpt>
      <trkpt lat="49.82332" lon="4.80817">
        <ele>340</ele>
        <time>2020-11-13T07:38:21.000Z</time>
      </trkpt>
      <trkpt lat="49.82334" lon="4.80818">
        <ele>341</ele>
        <time>2020-11-13T07:38:22.000Z</time>
      </trkpt>
      <trkpt lat="49.82337" lon="4.8082">
        <ele>341</ele>
        <time>2020-11-13T07:38:23.000Z</time>
      </trkpt>
      <trkpt lat="49.8234" lon="4.80821">
        <ele>341</ele>
        <time>2020-11-13T07:38:24.000Z</time>
      </trkpt>
      <trkpt lat="49.82342" lon="4.80821">
        <ele>341</ele>
        <time>2020-11-13T07:38:25.000Z</time>
      </trkpt>
      <trkpt lat="49.82345" lon="4.80822">
        <ele>341</ele>
        <time>2020-11-13T07:38:26.000Z</time>
      </trkpt>
      <trkpt lat="49.82348" lon="4.80824">
        <ele>341</ele>
        <time>2020-11-13T07:38:27.000Z</time>
      </trkpt>
      <trkpt lat="49.82351" lon="4.80827">
        <ele>341</ele>
        <time>2020-11-13T07:38:28.000Z</time>
      </trkpt>
      <trkpt lat="49.82354" lon="4.80828">
        <ele>341</ele>
        <time>2020-11-13T07:38:29.000Z</time>
      </trkpt>
      <trkpt lat="49.82358" lon="4.8083">
        <ele>342</ele>
        <time>2020-11-13T07:38:30.000Z</time>
      </trkpt>
      <trkpt lat="49.82362" lon="4.80833">
        <ele>342</ele>
        <time>2020-11-13T07:38:31.000Z</time>
      </trkpt>
      <trkpt lat="49.82368" lon="4.80837">
        <ele>342</ele>
        <time>2020-11-13T07:38:32.000Z</time>
      </trkpt>
      <trkpt lat="49.82373" lon="4.80842">
        <ele>342</ele>
        <time>2020-11-13T07:38:33.000Z</time>
      </trkpt>
      <trkpt lat="49.82378" lon="4.80846">
        <ele>342</ele>
        <time>2020-11-13T07:38:34.000Z</time>
      </trkpt>
      <trkpt lat="49.82384" lon="4.8085">
        <ele>342</ele>
        <time>2020-11-13T07:38:35.000Z</time>
      </trkpt>
      <trkpt lat="49.8239" lon="4.80855">
        <ele>342</ele>
        <time>2020-11-13T07:38:36.000Z</time>
      </trkpt>
      <trkpt lat="49.82394" lon="4.80858">
        <ele>342</ele>
        <time>2020-11-13T07:38:37.000Z</time>
      </trkpt>
      <trkpt lat="49.82399" lon="4.80862">
        <ele>342</ele>
        <time>2020-11-13T07:38:38.000Z</time>
      </trkpt>
      <trkpt lat="49.82404" lon="4.80866">
        <ele>342</ele>
        <time>2020-11-13T07:38:39.000Z</time>
      </trkpt>
      <trkpt lat="49.82409" lon="4.8087">
        <ele>342</ele>
        <time>2020-11-13T07:38:40.000Z</time>
      </trkpt>
      <trkpt lat="49.82415" lon="4.80874">
        <ele>342</ele>
        <time>2020-11-13T07:38:41.000Z</time>
      </trkpt>
      <trkpt lat="49.8242" lon="4.80879">
        <ele>342</ele>
        <time>2020-11-13T07:38:42.000Z</time>
      </trkpt>
      <trkpt lat="49.82426" lon="4.80885">
        <ele>342</ele>
        <time>2020-11-13T07:38:43.000Z</time>
      </trkpt>
      <trkpt lat="49.82431" lon="4.80892">
        <ele>342</ele>
        <time>2020-11-13T07:38:44.000Z</time>
      </trkpt>
      <trkpt lat="49.82436" lon="4.809">
        <ele>342</ele>
        <time>2020-11-13T07:38:45.000Z</time>
      </trkpt>
      <trkpt lat="49.82441" lon="4.80908">
        <ele>342</ele>
        <time>2020-11-13T07:38:46.000Z</time>
      </trkpt>
      <trkpt lat="49.82446" lon="4.80915">
        <ele>341</ele>
        <time>2020-11-13T07:38:47.000Z</time>
      </trkpt>
      <trkpt lat="49.8245" lon="4.80922">
        <ele>341</ele>
        <time>2020-11-13T07:38:48.000Z</time>
      </trkpt>
      <trkpt lat="49.82453" lon="4.80926">
        <ele>341</ele>
        <time>2020-11-13T07:38:49.000Z</time>
      </trkpt>
      <trkpt lat="49.82455" lon="4.80929">
        <ele>341</ele>
        <time>2020-11-13T07:38:50.000Z</time>
      </trkpt>
      <trkpt lat="49.82456" lon="4.80931">
        <ele>341</ele>
        <time>2020-11-13T07:38:51.000Z</time>
      </trkpt>
      <trkpt lat="49.82458" lon="4.80932">
        <ele>340</ele>
        <time>2020-11-13T07:38:52.000Z</time>
      </trkpt>
      <trkpt lat="49.82458" lon="4.80933">
        <ele>340</ele>
        <time>2020-11-13T07:38:53.000Z</time>
      </trkpt>
      <trkpt lat="49.82458" lon="4.80933">
        <ele>340</ele>
        <time>2020-11-13T07:38:54.000Z</time>
      </trkpt>
      <trkpt lat="49.82458" lon="4.80935">
        <ele>340</ele>
        <time>2020-11-13T07:38:55.000Z</time>
      </trkpt>
      <trkpt lat="49.82457" lon="4.80937">
        <ele>340</ele>
        <time>2020-11-13T07:38:56.000Z</time>
      </trkpt>
      <trkpt lat="49.82456" lon="4.8094">
        <ele>339</ele>
        <time>2020-11-13T07:38:57.000Z</time>
      </trkpt>
      <trkpt lat="49.82456" lon="4.80944">
        <ele>339</ele>
        <time>2020-11-13T07:38:58.000Z</time>
      </trkpt>
      <trkpt lat="49.82455" lon="4.80948">
        <ele>339</ele>
        <time>2020-11-13T07:38:59.000Z</time>
      </trkpt>
      <trkpt lat="49.82455" lon="4.80952">
        <ele>338</ele>
        <time>2020-11-13T07:39:00.000Z</time>
      </trkpt>
      <trkpt lat="49.82454" lon="4.80956">
        <ele>338</ele>
        <time>2020-11-13T07:39:01.000Z</time>
      </trkpt>
      <trkpt lat="49.82452" lon="4.80962">
        <ele>337</ele>
        <time>2020-11-13T07:39:02.000Z</time>
      </trkpt>
      <trkpt lat="49.82451" lon="4.80969">
        <ele>337</ele>
        <time>2020-11-13T07:39:03.000Z</time>
      </trkpt>
      <trkpt lat="49.82449" lon="4.80977">
        <ele>336</ele>
        <time>2020-11-13T07:39:04.000Z</time>
      </trkpt>
      <trkpt lat="49.82447" lon="4.80985">
        <ele>336</ele>
        <time>2020-11-13T07:39:05.000Z</time>
      </trkpt>
      <trkpt lat="49.82445" lon="4.80993">
        <ele>335</ele>
        <time>2020-11-13T07:39:06.000Z</time>
      </trkpt>
      <trkpt lat="49.82443" lon="4.81001">
        <ele>335</ele>
        <time>2020-11-13T07:39:07.000Z</time>
      </trkpt>
      <trkpt lat="49.82441" lon="4.8101">
        <ele>335</ele>
        <time>2020-11-13T07:39:08.000Z</time>
      </trkpt>
      <trkpt lat="49.82439" lon="4.81019">
        <ele>334</ele>
        <time>2020-11-13T07:39:09.000Z</time>
      </trkpt>
      <trkpt lat="49.82437" lon="4.81027">
        <ele>334</ele>
        <time>2020-11-13T07:39:10.000Z</time>
      </trkpt>
      <trkpt lat="49.82436" lon="4.81034">
        <ele>333</ele>
        <time>2020-11-13T07:39:11.000Z</time>
      </trkpt>
      <trkpt lat="49.82436" lon="4.8104">
        <ele>332</ele>
        <time>2020-11-13T07:39:12.000Z</time>
      </trkpt>
      <trkpt lat="49.82436" lon="4.81047">
        <ele>332</ele>
        <time>2020-11-13T07:39:13.000Z</time>
      </trkpt>
      <trkpt lat="49.82436" lon="4.81053">
        <ele>331</ele>
        <time>2020-11-13T07:39:14.000Z</time>
      </trkpt>
      <trkpt lat="49.82435" lon="4.81059">
        <ele>331</ele>
        <time>2020-11-13T07:39:15.000Z</time>
      </trkpt>
      <trkpt lat="49.82435" lon="4.81065">
        <ele>330</ele>
        <time>2020-11-13T07:39:16.000Z</time>
      </trkpt>
      <trkpt lat="49.82436" lon="4.81071">
        <ele>330</ele>
        <time>2020-11-13T07:39:17.000Z</time>
      </trkpt>
      <trkpt lat="49.82436" lon="4.81074">
        <ele>329</ele>
        <time>2020-11-13T07:39:18.000Z</time>
      </trkpt>
      <trkpt lat="49.82437" lon="4.81078">
        <ele>328</ele>
        <time>2020-11-13T07:39:19.000Z</time>
      </trkpt>
      <trkpt lat="49.82438" lon="4.81083">
        <ele>328</ele>
        <time>2020-11-13T07:39:20.000Z</time>
      </trkpt>
      <trkpt lat="49.8244" lon="4.81087">
        <ele>327</ele>
        <time>2020-11-13T07:39:21.000Z</time>
      </trkpt>
      <trkpt lat="49.82443" lon="4.81091">
        <ele>326</ele>
        <time>2020-11-13T07:39:22.000Z</time>
      </trkpt>
      <trkpt lat="49.82446" lon="4.81094">
        <ele>326</ele>
        <time>2020-11-13T07:39:23.000Z</time>
      </trkpt>
      <trkpt lat="49.8245" lon="4.81097">
        <ele>326</ele>
        <time>2020-11-13T07:39:24.000Z</time>
      </trkpt>
      <trkpt lat="49.82453" lon="4.81098">
        <ele>325</ele>
        <time>2020-11-13T07:39:25.000Z</time>
      </trkpt>
      <trkpt lat="49.82456" lon="4.81099">
        <ele>325</ele>
        <time>2020-11-13T07:39:26.000Z</time>
      </trkpt>
      <trkpt lat="49.8246" lon="4.81099">
        <ele>324</ele>
        <time>2020-11-13T07:39:27.000Z</time>
      </trkpt>
      <trkpt lat="49.82464" lon="4.81098">
        <ele>324</ele>
        <time>2020-11-13T07:39:28.000Z</time>
      </trkpt>
      <trkpt lat="49.82469" lon="4.81097">
        <ele>323</ele>
        <time>2020-11-13T07:39:29.000Z</time>
      </trkpt>
      <trkpt lat="49.82474" lon="4.81097">
        <ele>322</ele>
        <time>2020-11-13T07:39:30.000Z</time>
      </trkpt>
      <trkpt lat="49.82478" lon="4.81097">
        <ele>322</ele>
        <time>2020-11-13T07:39:31.000Z</time>
      </trkpt>
      <trkpt lat="49.82483" lon="4.81098">
        <ele>321</ele>
        <time>2020-11-13T07:39:32.000Z</time>
      </trkpt>
      <trkpt lat="49.82489" lon="4.811">
        <ele>320</ele>
        <time>2020-11-13T07:39:33.000Z</time>
      </trkpt>
      <trkpt lat="49.82494" lon="4.811">
        <ele>320</ele>
        <time>2020-11-13T07:39:34.000Z</time>
      </trkpt>
      <trkpt lat="49.825" lon="4.81102">
        <ele>319</ele>
        <time>2020-11-13T07:39:35.000Z</time>
      </trkpt>
      <trkpt lat="49.82505" lon="4.81104">
        <ele>318</ele>
        <time>2020-11-13T07:39:36.000Z</time>
      </trkpt>
      <trkpt lat="49.82511" lon="4.81105">
        <ele>318</ele>
        <time>2020-11-13T07:39:37.000Z</time>
      </trkpt>
      <trkpt lat="49.82516" lon="4.81107">
        <ele>317</ele>
        <time>2020-11-13T07:39:38.000Z</time>
      </trkpt>
      <trkpt lat="49.82521" lon="4.81108">
        <ele>316</ele>
        <time>2020-11-13T07:39:39.000Z</time>
      </trkpt>
      <trkpt lat="49.82527" lon="4.81109">
        <ele>316</ele>
        <time>2020-11-13T07:39:40.000Z</time>
      </trkpt>
      <trkpt lat="49.82533" lon="4.81108">
        <ele>315</ele>
        <time>2020-11-13T07:39:41.000Z</time>
      </trkpt>
      <trkpt lat="49.82539" lon="4.81106">
        <ele>314</ele>
        <time>2020-11-13T07:39:42.000Z</time>
      </trkpt>
      <trkpt lat="49.82545" lon="4.81102">
        <ele>314</ele>
        <time>2020-11-13T07:39:43.000Z</time>
      </trkpt>
      <trkpt lat="49.82551" lon="4.81097">
        <ele>313</ele>
        <time>2020-11-13T07:39:44.000Z</time>
      </trkpt>
      <trkpt lat="49.82556" lon="4.81091">
        <ele>312</ele>
        <time>2020-11-13T07:39:45.000Z</time>
      </trkpt>
      <trkpt lat="49.8256" lon="4.81084">
        <ele>312</ele>
        <time>2020-11-13T07:39:46.000Z</time>
      </trkpt>
      <trkpt lat="49.82565" lon="4.81077">
        <ele>311</ele>
        <time>2020-11-13T07:39:47.000Z</time>
      </trkpt>
      <trkpt lat="49.82571" lon="4.8107">
        <ele>310</ele>
        <time>2020-11-13T07:39:48.000Z</time>
      </trkpt>
      <trkpt lat="49.82576" lon="4.81065">
        <ele>310</ele>
        <time>2020-11-13T07:39:49.000Z</time>
      </trkpt>
      <trkpt lat="49.82582" lon="4.81059">
        <ele>309</ele>
        <time>2020-11-13T07:39:50.000Z</time>
      </trkpt>
      <trkpt lat="49.82589" lon="4.81054">
        <ele>309</ele>
        <time>2020-11-13T07:39:51.000Z</time>
      </trkpt>
      <trkpt lat="49.82596" lon="4.81047">
        <ele>308</ele>
        <time>2020-11-13T07:39:52.000Z</time>
      </trkpt>
      <trkpt lat="49.82603" lon="4.81041">
        <ele>307</ele>
        <time>2020-11-13T07:39:53.000Z</time>
      </trkpt>
      <trkpt lat="49.8261" lon="4.81035">
        <ele>307</ele>
        <time>2020-11-13T07:39:54.000Z</time>
      </trkpt>
      <trkpt lat="49.82617" lon="4.81029">
        <ele>306</ele>
        <time>2020-11-13T07:39:55.000Z</time>
      </trkpt>
      <trkpt lat="49.82624" lon="4.81024">
        <ele>306</ele>
        <time>2020-11-13T07:39:56.000Z</time>
      </trkpt>
      <trkpt lat="49.8263" lon="4.8102">
        <ele>305</ele>
        <time>2020-11-13T07:39:57.000Z</time>
      </trkpt>
      <trkpt lat="49.82636" lon="4.81017">
        <ele>305</ele>
        <time>2020-11-13T07:39:58.000Z</time>
      </trkpt>
      <trkpt lat="49.82642" lon="4.81014">
        <ele>304</ele>
        <time>2020-11-13T07:39:59.000Z</time>
      </trkpt>
      <trkpt lat="49.82648" lon="4.81011">
        <ele>304</ele>
        <time>2020-11-13T07:40:00.000Z</time>
      </trkpt>
      <trkpt lat="49.82655" lon="4.81007">
        <ele>304</ele>
        <time>2020-11-13T07:40:01.000Z</time>
      </trkpt>
      <trkpt lat="49.82661" lon="4.81003">
        <ele>303</ele>
        <time>2020-11-13T07:40:02.000Z</time>
      </trkpt>
      <trkpt lat="49.82669" lon="4.81001">
        <ele>303</ele>
        <time>2020-11-13T07:40:03.000Z</time>
      </trkpt>
      <trkpt lat="49.82676" lon="4.81">
        <ele>302</ele>
        <time>2020-11-13T07:40:04.000Z</time>
      </trkpt>
      <trkpt lat="49.82683" lon="4.81">
        <ele>302</ele>
        <time>2020-11-13T07:40:05.000Z</time>
      </trkpt>
      <trkpt lat="49.8269" lon="4.80998">
        <ele>302</ele>
        <time>2020-11-13T07:40:06.000Z</time>
      </trkpt>
      <trkpt lat="49.82698" lon="4.80996">
        <ele>301</ele>
        <time>2020-11-13T07:40:07.000Z</time>
      </trkpt>
      <trkpt lat="49.82705" lon="4.80994">
        <ele>301</ele>
        <time>2020-11-13T07:40:08.000Z</time>
      </trkpt>
      <trkpt lat="49.82713" lon="4.80991">
        <ele>300</ele>
        <time>2020-11-13T07:40:09.000Z</time>
      </trkpt>
      <trkpt lat="49.82719" lon="4.80987">
        <ele>300</ele>
        <time>2020-11-13T07:40:10.000Z</time>
      </trkpt>
      <trkpt lat="49.82725" lon="4.80982">
        <ele>299</ele>
        <time>2020-11-13T07:40:11.000Z</time>
      </trkpt>
      <trkpt lat="49.8273" lon="4.80977">
        <ele>299</ele>
        <time>2020-11-13T07:40:12.000Z</time>
      </trkpt>
      <trkpt lat="49.82734" lon="4.80971">
        <ele>298</ele>
        <time>2020-11-13T07:40:13.000Z</time>
      </trkpt>
      <trkpt lat="49.82736" lon="4.80964">
        <ele>297</ele>
        <time>2020-11-13T07:40:14.000Z</time>
      </trkpt>
      <trkpt lat="49.82737" lon="4.80958">
        <ele>297</ele>
        <time>2020-11-13T07:40:15.000Z</time>
      </trkpt>
      <trkpt lat="49.82737" lon="4.80951">
        <ele>296</ele>
        <time>2020-11-13T07:40:16.000Z</time>
      </trkpt>
      <trkpt lat="49.82737" lon="4.80945">
        <ele>295</ele>
        <time>2020-11-13T07:40:17.000Z</time>
      </trkpt>
      <trkpt lat="49.82736" lon="4.80939">
        <ele>294</ele>
        <time>2020-11-13T07:40:18.000Z</time>
      </trkpt>
      <trkpt lat="49.82736" lon="4.80932">
        <ele>294</ele>
        <time>2020-11-13T07:40:19.000Z</time>
      </trkpt>
      <trkpt lat="49.82734" lon="4.80925">
        <ele>293</ele>
        <time>2020-11-13T07:40:20.000Z</time>
      </trkpt>
      <trkpt lat="49.82733" lon="4.80918">
        <ele>293</ele>
        <time>2020-11-13T07:40:21.000Z</time>
      </trkpt>
      <trkpt lat="49.82731" lon="4.8091">
        <ele>292</ele>
        <time>2020-11-13T07:40:22.000Z</time>
      </trkpt>
      <trkpt lat="49.82729" lon="4.80901">
        <ele>292</ele>
        <time>2020-11-13T07:40:23.000Z</time>
      </trkpt>
      <trkpt lat="49.82726" lon="4.80892">
        <ele>291</ele>
        <time>2020-11-13T07:40:24.000Z</time>
      </trkpt>
      <trkpt lat="49.82724" lon="4.80883">
        <ele>290</ele>
        <time>2020-11-13T07:40:25.000Z</time>
      </trkpt>
      <trkpt lat="49.82722" lon="4.80873">
        <ele>290</ele>
        <time>2020-11-13T07:40:26.000Z</time>
      </trkpt>
      <trkpt lat="49.82719" lon="4.80865">
        <ele>289</ele>
        <time>2020-11-13T07:40:27.000Z</time>
      </trkpt>
      <trkpt lat="49.82717" lon="4.80856">
        <ele>289</ele>
        <time>2020-11-13T07:40:28.000Z</time>
      </trkpt>
      <trkpt lat="49.82714" lon="4.80848">
        <ele>288</ele>
        <time>2020-11-13T07:40:29.000Z</time>
      </trkpt>
      <trkpt lat="49.82712" lon="4.80841">
        <ele>287</ele>
        <time>2020-11-13T07:40:30.000Z</time>
      </trkpt>
      <trkpt lat="49.8271" lon="4.80834">
        <ele>287</ele>
        <time>2020-11-13T07:40:31.000Z</time>
      </trkpt>
      <trkpt lat="49.82708" lon="4.80828">
        <ele>287</ele>
        <time>2020-11-13T07:40:32.000Z</time>
      </trkpt>
      <trkpt lat="49.82705" lon="4.80822">
        <ele>286</ele>
        <time>2020-11-13T07:40:33.000Z</time>
      </trkpt>
      <trkpt lat="49.82704" lon="4.80815">
        <ele>286</ele>
        <time>2020-11-13T07:40:34.000Z</time>
      </trkpt>
      <trkpt lat="49.82702" lon="4.80809">
        <ele>286</ele>
        <time>2020-11-13T07:40:35.000Z</time>
      </trkpt>
      <trkpt lat="49.82701" lon="4.80802">
        <ele>285</ele>
        <time>2020-11-13T07:40:36.000Z</time>
      </trkpt>
      <trkpt lat="49.827" lon="4.80794">
        <ele>285</ele>
        <time>2020-11-13T07:40:37.000Z</time>
      </trkpt>
      <trkpt lat="49.827" lon="4.80786">
        <ele>285</ele>
        <time>2020-11-13T07:40:38.000Z</time>
      </trkpt>
      <trkpt lat="49.82699" lon="4.80777">
        <ele>284</ele>
        <time>2020-11-13T07:40:39.000Z</time>
      </trkpt>
      <trkpt lat="49.82698" lon="4.80767">
        <ele>284</ele>
        <time>2020-11-13T07:40:40.000Z</time>
      </trkpt>
      <trkpt lat="49.82698" lon="4.80758">
        <ele>284</ele>
        <time>2020-11-13T07:40:41.000Z</time>
      </trkpt>
      <trkpt lat="49.82698" lon="4.80748">
        <ele>284</ele>
        <time>2020-11-13T07:40:42.000Z</time>
      </trkpt>
      <trkpt lat="49.82699" lon="4.80737">
        <ele>283</ele>
        <time>2020-11-13T07:40:43.000Z</time>
      </trkpt>
      <trkpt lat="49.827" lon="4.80728">
        <ele>283</ele>
        <time>2020-11-13T07:40:44.000Z</time>
      </trkpt>
      <trkpt lat="49.82702" lon="4.80719">
        <ele>283</ele>
        <time>2020-11-13T07:40:45.000Z</time>
      </trkpt>
      <trkpt lat="49.82705" lon="4.80711">
        <ele>282</ele>
        <time>2020-11-13T07:40:46.000Z</time>
      </trkpt>
      <trkpt lat="49.82709" lon="4.80703">
        <ele>282</ele>
        <time>2020-11-13T07:40:47.000Z</time>
      </trkpt>
      <trkpt lat="49.82713" lon="4.80697">
        <ele>281</ele>
        <time>2020-11-13T07:40:48.000Z</time>
      </trkpt>
      <trkpt lat="49.82717" lon="4.80691">
        <ele>281</ele>
        <time>2020-11-13T07:40:49.000Z</time>
      </trkpt>
      <trkpt lat="49.82722" lon="4.80687">
        <ele>280</ele>
        <time>2020-11-13T07:40:50.000Z</time>
      </trkpt>
      <trkpt lat="49.82726" lon="4.80684">
        <ele>280</ele>
        <time>2020-11-13T07:40:51.000Z</time>
      </trkpt>
      <trkpt lat="49.8273" lon="4.80682">
        <ele>280</ele>
        <time>2020-11-13T07:40:52.000Z</time>
      </trkpt>
      <trkpt lat="49.82733" lon="4.80681">
        <ele>279</ele>
        <time>2020-11-13T07:40:53.000Z</time>
      </trkpt>
      <trkpt lat="49.82737" lon="4.80679">
        <ele>279</ele>
        <time>2020-11-13T07:40:54.000Z</time>
      </trkpt>
      <trkpt lat="49.82742" lon="4.80678">
        <ele>279</ele>
        <time>2020-11-13T07:40:55.000Z</time>
      </trkpt>
      <trkpt lat="49.82747" lon="4.80676">
        <ele>278</ele>
        <time>2020-11-13T07:40:56.000Z</time>
      </trkpt>
      <trkpt lat="49.82753" lon="4.80675">
        <ele>278</ele>
        <time>2020-11-13T07:40:57.000Z</time>
      </trkpt>
      <trkpt lat="49.8276" lon="4.80674">
        <ele>277</ele>
        <time>2020-11-13T07:40:58.000Z</time>
      </trkpt>
      <trkpt lat="49.82767" lon="4.80674">
        <ele>277</ele>
        <time>2020-11-13T07:40:59.000Z</time>
      </trkpt>
      <trkpt lat="49.82774" lon="4.80675">
        <ele>277</ele>
        <time>2020-11-13T07:41:00.000Z</time>
      </trkpt>
      <trkpt lat="49.82781" lon="4.80675">
        <ele>276</ele>
        <time>2020-11-13T07:41:01.000Z</time>
      </trkpt>
      <trkpt lat="49.82787" lon="4.80676">
        <ele>276</ele>
        <time>2020-11-13T07:41:02.000Z</time>
      </trkpt>
      <trkpt lat="49.82794" lon="4.80676">
        <ele>275</ele>
        <time>2020-11-13T07:41:03.000Z</time>
      </trkpt>
      <trkpt lat="49.828" lon="4.80675">
        <ele>275</ele>
        <time>2020-11-13T07:41:04.000Z</time>
      </trkpt>
      <trkpt lat="49.82806" lon="4.80674">
        <ele>274</ele>
        <time>2020-11-13T07:41:05.000Z</time>
      </trkpt>
      <trkpt lat="49.82812" lon="4.80671">
        <ele>273</ele>
        <time>2020-11-13T07:41:06.000Z</time>
      </trkpt>
      <trkpt lat="49.82816" lon="4.80666">
        <ele>273</ele>
        <time>2020-11-13T07:41:07.000Z</time>
      </trkpt>
      <trkpt lat="49.82819" lon="4.80659">
        <ele>272</ele>
        <time>2020-11-13T07:41:08.000Z</time>
      </trkpt>
      <trkpt lat="49.82821" lon="4.80651">
        <ele>271</ele>
        <time>2020-11-13T07:41:09.000Z</time>
      </trkpt>
      <trkpt lat="49.82823" lon="4.80643">
        <ele>271</ele>
        <time>2020-11-13T07:41:10.000Z</time>
      </trkpt>
      <trkpt lat="49.82824" lon="4.80634">
        <ele>270</ele>
        <time>2020-11-13T07:41:11.000Z</time>
      </trkpt>
      <trkpt lat="49.82823" lon="4.80624">
        <ele>269</ele>
        <time>2020-11-13T07:41:12.000Z</time>
      </trkpt>
      <trkpt lat="49.82823" lon="4.80615">
        <ele>268</ele>
        <time>2020-11-13T07:41:13.000Z</time>
      </trkpt>
      <trkpt lat="49.82822" lon="4.80605">
        <ele>268</ele>
        <time>2020-11-13T07:41:14.000Z</time>
      </trkpt>
      <trkpt lat="49.82821" lon="4.80595">
        <ele>267</ele>
        <time>2020-11-13T07:41:15.000Z</time>
      </trkpt>
      <trkpt lat="49.82821" lon="4.80585">
        <ele>266</ele>
        <time>2020-11-13T07:41:16.000Z</time>
      </trkpt>
      <trkpt lat="49.8282" lon="4.80574">
        <ele>266</ele>
        <time>2020-11-13T07:41:17.000Z</time>
      </trkpt>
      <trkpt lat="49.82819" lon="4.80563">
        <ele>265</ele>
        <time>2020-11-13T07:41:18.000Z</time>
      </trkpt>
      <trkpt lat="49.82818" lon="4.80552">
        <ele>264</ele>
        <time>2020-11-13T07:41:19.000Z</time>
      </trkpt>
      <trkpt lat="49.82817" lon="4.80541">
        <ele>263</ele>
        <time>2020-11-13T07:41:20.000Z</time>
      </trkpt>
      <trkpt lat="49.82815" lon="4.8053">
        <ele>262</ele>
        <time>2020-11-13T07:41:21.000Z</time>
      </trkpt>
      <trkpt lat="49.82813" lon="4.80518">
        <ele>261</ele>
        <time>2020-11-13T07:41:22.000Z</time>
      </trkpt>
      <trkpt lat="49.82811" lon="4.80507">
        <ele>261</ele>
        <time>2020-11-13T07:41:23.000Z</time>
      </trkpt>
      <trkpt lat="49.82809" lon="4.80497">
        <ele>260</ele>
        <time>2020-11-13T07:41:24.000Z</time>
      </trkpt>
      <trkpt lat="49.82807" lon="4.80485">
        <ele>259</ele>
        <time>2020-11-13T07:41:25.000Z</time>
      </trkpt>
      <trkpt lat="49.82806" lon="4.80475">
        <ele>259</ele>
        <time>2020-11-13T07:41:26.000Z</time>
      </trkpt>
      <trkpt lat="49.82805" lon="4.80465">
        <ele>258</ele>
        <time>2020-11-13T07:41:27.000Z</time>
      </trkpt>
      <trkpt lat="49.82805" lon="4.80455">
        <ele>257</ele>
        <time>2020-11-13T07:41:28.000Z</time>
      </trkpt>
      <trkpt lat="49.82805" lon="4.80446">
        <ele>257</ele>
        <time>2020-11-13T07:41:29.000Z</time>
      </trkpt>
      <trkpt lat="49.82805" lon="4.80437">
        <ele>256</ele>
        <time>2020-11-13T07:41:30.000Z</time>
      </trkpt>
      <trkpt lat="49.82806" lon="4.80428">
        <ele>255</ele>
        <time>2020-11-13T07:41:31.000Z</time>
      </trkpt>
      <trkpt lat="49.82807" lon="4.80421">
        <ele>255</ele>
        <time>2020-11-13T07:41:32.000Z</time>
      </trkpt>
      <trkpt lat="49.82808" lon="4.80414">
        <ele>254</ele>
        <time>2020-11-13T07:41:33.000Z</time>
      </trkpt>
      <trkpt lat="49.82809" lon="4.80406">
        <ele>254</ele>
        <time>2020-11-13T07:41:34.000Z</time>
      </trkpt>
      <trkpt lat="49.82808" lon="4.80399">
        <ele>253</ele>
        <time>2020-11-13T07:41:35.000Z</time>
      </trkpt>
      <trkpt lat="49.82809" lon="4.80391">
        <ele>253</ele>
        <time>2020-11-13T07:41:36.000Z</time>
      </trkpt>
      <trkpt lat="49.8281" lon="4.80383">
        <ele>252</ele>
        <time>2020-11-13T07:41:37.000Z</time>
      </trkpt>
      <trkpt lat="49.82811" lon="4.80375">
        <ele>252</ele>
        <time>2020-11-13T07:41:38.000Z</time>
      </trkpt>
      <trkpt lat="49.82812" lon="4.80366">
        <ele>252</ele>
        <time>2020-11-13T07:41:39.000Z</time>
      </trkpt>
      <trkpt lat="49.82813" lon="4.80358">
        <ele>251</ele>
        <time>2020-11-13T07:41:40.000Z</time>
      </trkpt>
      <trkpt lat="49.82813" lon="4.8035">
        <ele>251</ele>
        <time>2020-11-13T07:41:41.000Z</time>
      </trkpt>
      <trkpt lat="49.82814" lon="4.80342">
        <ele>251</ele>
        <time>2020-11-13T07:41:42.000Z</time>
      </trkpt>
      <trkpt lat="49.82816" lon="4.80336">
        <ele>250</ele>
        <time>2020-11-13T07:41:43.000Z</time>
      </trkpt>
      <trkpt lat="49.82818" lon="4.80329">
        <ele>250</ele>
        <time>2020-11-13T07:41:44.000Z</time>
      </trkpt>
      <trkpt lat="49.8282" lon="4.80323">
        <ele>250</ele>
        <time>2020-11-13T07:41:45.000Z</time>
      </trkpt>
      <trkpt lat="49.82822" lon="4.80315">
        <ele>249</ele>
        <time>2020-11-13T07:41:46.000Z</time>
      </trkpt>
      <trkpt lat="49.82824" lon="4.80308">
        <ele>249</ele>
        <time>2020-11-13T07:41:47.000Z</time>
      </trkpt>
      <trkpt lat="49.82827" lon="4.803">
        <ele>249</ele>
        <time>2020-11-13T07:41:48.000Z</time>
      </trkpt>
      <trkpt lat="49.82831" lon="4.80293">
        <ele>248</ele>
        <time>2020-11-13T07:41:49.000Z</time>
      </trkpt>
      <trkpt lat="49.82835" lon="4.80286">
        <ele>248</ele>
        <time>2020-11-13T07:41:50.000Z</time>
      </trkpt>
      <trkpt lat="49.8284" lon="4.80279">
        <ele>247</ele>
        <time>2020-11-13T07:41:51.000Z</time>
      </trkpt>
      <trkpt lat="49.82845" lon="4.80271">
        <ele>247</ele>
        <time>2020-11-13T07:41:52.000Z</time>
      </trkpt>
      <trkpt lat="49.8285" lon="4.80262">
        <ele>246</ele>
        <time>2020-11-13T07:41:53.000Z</time>
      </trkpt>
      <trkpt lat="49.82854" lon="4.80253">
        <ele>246</ele>
        <time>2020-11-13T07:41:54.000Z</time>
      </trkpt>
      <trkpt lat="49.82857" lon="4.80243">
        <ele>245</ele>
        <time>2020-11-13T07:41:55.000Z</time>
      </trkpt>
      <trkpt lat="49.82861" lon="4.80234">
        <ele>245</ele>
        <time>2020-11-13T07:41:56.000Z</time>
      </trkpt>
      <trkpt lat="49.82864" lon="4.80225">
        <ele>244</ele>
        <time>2020-11-13T07:41:57.000Z</time>
      </trkpt>
      <trkpt lat="49.82867" lon="4.80217">
        <ele>243</ele>
        <time>2020-11-13T07:41:58.000Z</time>
      </trkpt>
      <trkpt lat="49.8287" lon="4.8021">
        <ele>243</ele>
        <time>2020-11-13T07:41:59.000Z</time>
      </trkpt>
      <trkpt lat="49.82873" lon="4.80203">
        <ele>242</ele>
        <time>2020-11-13T07:42:00.000Z</time>
      </trkpt>
      <trkpt lat="49.82876" lon="4.80196">
        <ele>241</ele>
        <time>2020-11-13T07:42:01.000Z</time>
      </trkpt>
      <trkpt lat="49.82879" lon="4.80189">
        <ele>241</ele>
        <time>2020-11-13T07:42:02.000Z</time>
      </trkpt>
      <trkpt lat="49.82883" lon="4.80182">
        <ele>240</ele>
        <time>2020-11-13T07:42:03.000Z</time>
      </trkpt>
      <trkpt lat="49.82887" lon="4.80176">
        <ele>240</ele>
        <time>2020-11-13T07:42:04.000Z</time>
      </trkpt>
      <trkpt lat="49.8289" lon="4.80169">
        <ele>239</ele>
        <time>2020-11-13T07:42:05.000Z</time>
      </trkpt>
      <trkpt lat="49.82892" lon="4.80162">
        <ele>238</ele>
        <time>2020-11-13T07:42:06.000Z</time>
      </trkpt>
      <trkpt lat="49.82894" lon="4.80156">
        <ele>238</ele>
        <time>2020-11-13T07:42:07.000Z</time>
      </trkpt>
      <trkpt lat="49.82896" lon="4.80149">
        <ele>237</ele>
        <time>2020-11-13T07:42:08.000Z</time>
      </trkpt>
      <trkpt lat="49.82898" lon="4.80141">
        <ele>237</ele>
        <time>2020-11-13T07:42:09.000Z</time>
      </trkpt>
      <trkpt lat="49.82899" lon="4.80133">
        <ele>236</ele>
        <time>2020-11-13T07:42:10.000Z</time>
      </trkpt>
      <trkpt lat="49.829" lon="4.80125">
        <ele>235</ele>
        <time>2020-11-13T07:42:11.000Z</time>
      </trkpt>
      <trkpt lat="49.829" lon="4.80116">
        <ele>235</ele>
        <time>2020-11-13T07:42:12.000Z</time>
      </trkpt>
      <trkpt lat="49.82899" lon="4.80107">
        <ele>234</ele>
        <time>2020-11-13T07:42:13.000Z</time>
      </trkpt>
      <trkpt lat="49.82899" lon="4.80098">
        <ele>234</ele>
        <time>2020-11-13T07:42:14.000Z</time>
      </trkpt>
      <trkpt lat="49.82899" lon="4.80089">
        <ele>233</ele>
        <time>2020-11-13T07:42:15.000Z</time>
      </trkpt>
      <trkpt lat="49.82898" lon="4.80079">
        <ele>233</ele>
        <time>2020-11-13T07:42:16.000Z</time>
      </trkpt>
      <trkpt lat="49.82897" lon="4.8007">
        <ele>232</ele>
        <time>2020-11-13T07:42:17.000Z</time>
      </trkpt>
      <trkpt lat="49.82896" lon="4.80062">
        <ele>232</ele>
        <time>2020-11-13T07:42:18.000Z</time>
      </trkpt>
      <trkpt lat="49.82895" lon="4.80054">
        <ele>231</ele>
        <time>2020-11-13T07:42:19.000Z</time>
      </trkpt>
      <trkpt lat="49.82894" lon="4.80048">
        <ele>231</ele>
        <time>2020-11-13T07:42:20.000Z</time>
      </trkpt>
      <trkpt lat="49.82894" lon="4.80041">
        <ele>230</ele>
        <time>2020-11-13T07:42:21.000Z</time>
      </trkpt>
      <trkpt lat="49.82894" lon="4.80035">
        <ele>230</ele>
        <time>2020-11-13T07:42:22.000Z</time>
      </trkpt>
      <trkpt lat="49.82894" lon="4.8003">
        <ele>229</ele>
        <time>2020-11-13T07:42:23.000Z</time>
      </trkpt>
      <trkpt lat="49.82895" lon="4.80025">
        <ele>229</ele>
        <time>2020-11-13T07:42:24.000Z</time>
      </trkpt>
      <trkpt lat="49.82895" lon="4.80019">
        <ele>228</ele>
        <time>2020-11-13T07:42:25.000Z</time>
      </trkpt>
      <trkpt lat="49.82894" lon="4.80014">
        <ele>227</ele>
        <time>2020-11-13T07:42:26.000Z</time>
      </trkpt>
      <trkpt lat="49.82893" lon="4.80008">
        <ele>227</ele>
        <time>2020-11-13T07:42:27.000Z</time>
      </trkpt>
      <trkpt lat="49.82891" lon="4.80001">
        <ele>226</ele>
        <time>2020-11-13T07:42:28.000Z</time>
      </trkpt>
      <trkpt lat="49.8289" lon="4.79995">
        <ele>226</ele>
        <time>2020-11-13T07:42:29.000Z</time>
      </trkpt>
      <trkpt lat="49.82888" lon="4.79988">
        <ele>225</ele>
        <time>2020-11-13T07:42:30.000Z</time>
      </trkpt>
      <trkpt lat="49.82888" lon="4.79982">
        <ele>225</ele>
        <time>2020-11-13T07:42:31.000Z</time>
      </trkpt>
      <trkpt lat="49.82889" lon="4.79977">
        <ele>225</ele>
        <time>2020-11-13T07:42:32.000Z</time>
      </trkpt>
      <trkpt lat="49.82891" lon="4.79976">
        <ele>224</ele>
        <time>2020-11-13T07:42:33.000Z</time>
      </trkpt>
      <trkpt lat="49.82894" lon="4.79978">
        <ele>224</ele>
        <time>2020-11-13T07:42:34.000Z</time>
      </trkpt>
      <trkpt lat="49.82895" lon="4.79983">
        <ele>223</ele>
        <time>2020-11-13T07:42:35.000Z</time>
      </trkpt>
      <trkpt lat="49.82897" lon="4.79988">
        <ele>223</ele>
        <time>2020-11-13T07:42:36.000Z</time>
      </trkpt>
      <trkpt lat="49.82898" lon="4.79994">
        <ele>222</ele>
        <time>2020-11-13T07:42:37.000Z</time>
      </trkpt>
      <trkpt lat="49.82899" lon="4.8">
        <ele>222</ele>
        <time>2020-11-13T07:42:38.000Z</time>
      </trkpt>
      <trkpt lat="49.829" lon="4.80007">
        <ele>221</ele>
        <time>2020-11-13T07:42:39.000Z</time>
      </trkpt>
      <trkpt lat="49.82901" lon="4.80014">
        <ele>221</ele>
        <time>2020-11-13T07:42:40.000Z</time>
      </trkpt>
      <trkpt lat="49.82902" lon="4.80021">
        <ele>221</ele>
        <time>2020-11-13T07:42:41.000Z</time>
      </trkpt>
      <trkpt lat="49.82904" lon="4.80027">
        <ele>221</ele>
        <time>2020-11-13T07:42:42.000Z</time>
      </trkpt>
      <trkpt lat="49.82905" lon="4.80034">
        <ele>220</ele>
        <time>2020-11-13T07:42:43.000Z</time>
      </trkpt>
      <trkpt lat="49.82906" lon="4.80041">
        <ele>220</ele>
        <time>2020-11-13T07:42:44.000Z</time>
      </trkpt>
      <trkpt lat="49.82907" lon="4.80047">
        <ele>220</ele>
        <time>2020-11-13T07:42:45.000Z</time>
      </trkpt>
      <trkpt lat="49.82909" lon="4.80054">
        <ele>219</ele>
        <time>2020-11-13T07:42:46.000Z</time>
      </trkpt>
      <trkpt lat="49.8291" lon="4.80062">
        <ele>219</ele>
        <time>2020-11-13T07:42:47.000Z</time>
      </trkpt>
      <trkpt lat="49.82912" lon="4.8007">
        <ele>219</ele>
        <time>2020-11-13T07:42:48.000Z</time>
      </trkpt>
      <trkpt lat="49.82914" lon="4.80078">
        <ele>219</ele>
        <time>2020-11-13T07:42:49.000Z</time>
      </trkpt>
      <trkpt lat="49.82915" lon="4.80086">
        <ele>218</ele>
        <time>2020-11-13T07:42:50.000Z</time>
      </trkpt>
      <trkpt lat="49.82917" lon="4.80096">
        <ele>218</ele>
        <time>2020-11-13T07:42:51.000Z</time>
      </trkpt>
      <trkpt lat="49.8292" lon="4.80105">
        <ele>218</ele>
        <time>2020-11-13T07:42:52.000Z</time>
      </trkpt>
      <trkpt lat="49.82923" lon="4.80115">
        <ele>217</ele>
        <time>2020-11-13T07:42:53.000Z</time>
      </trkpt>
      <trkpt lat="49.82926" lon="4.80126">
        <ele>217</ele>
        <time>2020-11-13T07:42:54.000Z</time>
      </trkpt>
      <trkpt lat="49.8293" lon="4.80136">
        <ele>217</ele>
        <time>2020-11-13T07:42:55.000Z</time>
      </trkpt>
      <trkpt lat="49.82933" lon="4.80147">
        <ele>217</ele>
        <time>2020-11-13T07:42:56.000Z</time>
      </trkpt>
      <trkpt lat="49.82936" lon="4.80158">
        <ele>216</ele>
        <time>2020-11-13T07:42:57.000Z</time>
      </trkpt>
      <trkpt lat="49.82939" lon="4.80168">
        <ele>216</ele>
        <time>2020-11-13T07:42:58.000Z</time>
      </trkpt>
      <trkpt lat="49.82942" lon="4.80178">
        <ele>216</ele>
        <time>2020-11-13T07:42:59.000Z</time>
      </trkpt>
      <trkpt lat="49.82945" lon="4.80188">
        <ele>216</ele>
        <time>2020-11-13T07:43:00.000Z</time>
      </trkpt>
      <trkpt lat="49.82947" lon="4.80199">
        <ele>215</ele>
        <time>2020-11-13T07:43:01.000Z</time>
      </trkpt>
      <trkpt lat="49.82949" lon="4.80209">
        <ele>215</ele>
        <time>2020-11-13T07:43:02.000Z</time>
      </trkpt>
      <trkpt lat="49.8295" lon="4.80219">
        <ele>215</ele>
        <time>2020-11-13T07:43:03.000Z</time>
      </trkpt>
      <trkpt lat="49.82952" lon="4.80229">
        <ele>215</ele>
        <time>2020-11-13T07:43:04.000Z</time>
      </trkpt>
      <trkpt lat="49.82954" lon="4.80238">
        <ele>215</ele>
        <time>2020-11-13T07:43:05.000Z</time>
      </trkpt>
      <trkpt lat="49.82957" lon="4.80246">
        <ele>215</ele>
        <time>2020-11-13T07:43:06.000Z</time>
      </trkpt>
      <trkpt lat="49.8296" lon="4.80252">
        <ele>214</ele>
        <time>2020-11-13T07:43:07.000Z</time>
      </trkpt>
      <trkpt lat="49.82963" lon="4.80255">
        <ele>214</ele>
        <time>2020-11-13T07:43:08.000Z</time>
      </trkpt>
      <trkpt lat="49.82966" lon="4.80256">
        <ele>214</ele>
        <time>2020-11-13T07:43:09.000Z</time>
      </trkpt>
      <trkpt lat="49.82969" lon="4.80258">
        <ele>214</ele>
        <time>2020-11-13T07:43:10.000Z</time>
      </trkpt>
      <trkpt lat="49.82972" lon="4.80258">
        <ele>213</ele>
        <time>2020-11-13T07:43:11.000Z</time>
      </trkpt>
      <trkpt lat="49.82975" lon="4.80258">
        <ele>213</ele>
        <time>2020-11-13T07:43:12.000Z</time>
      </trkpt>
      <trkpt lat="49.82978" lon="4.80258">
        <ele>213</ele>
        <time>2020-11-13T07:43:13.000Z</time>
      </trkpt>
      <trkpt lat="49.82981" lon="4.80258">
        <ele>213</ele>
        <time>2020-11-13T07:43:14.000Z</time>
      </trkpt>
      <trkpt lat="49.82985" lon="4.80259">
        <ele>213</ele>
        <time>2020-11-13T07:43:15.000Z</time>
      </trkpt>
      <trkpt lat="49.82987" lon="4.80258">
        <ele>213</ele>
        <time>2020-11-13T07:43:16.000Z</time>
      </trkpt>
      <trkpt lat="49.82989" lon="4.80257">
        <ele>213</ele>
        <time>2020-11-13T07:43:17.000Z</time>
      </trkpt>
      <trkpt lat="49.82991" lon="4.80256">
        <ele>212</ele>
        <time>2020-11-13T07:43:18.000Z</time>
      </trkpt>
      <trkpt lat="49.82992" lon="4.80255">
        <ele>212</ele>
        <time>2020-11-13T07:43:19.000Z</time>
      </trkpt>
      <trkpt lat="49.82994" lon="4.80255">
        <ele>212</ele>
        <time>2020-11-13T07:43:20.000Z</time>
      </trkpt>
      <trkpt lat="49.82996" lon="4.80254">
        <ele>212</ele>
        <time>2020-11-13T07:43:21.000Z</time>
      </trkpt>
      <trkpt lat="49.82998" lon="4.80252">
        <ele>211</ele>
        <time>2020-11-13T07:43:22.000Z</time>
      </trkpt>
      <trkpt lat="49.83" lon="4.8025">
        <ele>211</ele>
        <time>2020-11-13T07:43:23.000Z</time>
      </trkpt>
      <trkpt lat="49.83002" lon="4.80248">
        <ele>211</ele>
        <time>2020-11-13T07:43:24.000Z</time>
      </trkpt>
      <trkpt lat="49.83004" lon="4.80246">
        <ele>211</ele>
        <time>2020-11-13T07:43:25.000Z</time>
      </trkpt>
      <trkpt lat="49.83005" lon="4.80242">
        <ele>211</ele>
        <time>2020-11-13T07:43:26.000Z</time>
      </trkpt>
      <trkpt lat="49.83005" lon="4.80238">
        <ele>211</ele>
        <time>2020-11-13T07:43:27.000Z</time>
      </trkpt>
      <trkpt lat="49.83004" lon="4.80233">
        <ele>211</ele>
        <time>2020-11-13T07:43:28.000Z</time>
      </trkpt>
      <trkpt lat="49.83004" lon="4.80228">
        <ele>211</ele>
        <time>2020-11-13T07:43:29.000Z</time>
      </trkpt>
      <trkpt lat="49.83003" lon="4.80223">
        <ele>211</ele>
        <time>2020-11-13T07:43:30.000Z</time>
      </trkpt>
      <trkpt lat="49.83002" lon="4.80217">
        <ele>211</ele>
        <time>2020-11-13T07:43:31.000Z</time>
      </trkpt>
      <trkpt lat="49.83" lon="4.80212">
        <ele>211</ele>
        <time>2020-11-13T07:43:32.000Z</time>
      </trkpt>
      <trkpt lat="49.82999" lon="4.80208">
        <ele>211</ele>
        <time>2020-11-13T07:43:33.000Z</time>
      </trkpt>
      <trkpt lat="49.82997" lon="4.80203">
        <ele>211</ele>
        <time>2020-11-13T07:43:34.000Z</time>
      </trkpt>
      <trkpt lat="49.82996" lon="4.80199">
        <ele>211</ele>
        <time>2020-11-13T07:43:35.000Z</time>
      </trkpt>
      <trkpt lat="49.82995" lon="4.80194">
        <ele>211</ele>
        <time>2020-11-13T07:43:36.000Z</time>
      </trkpt>
      <trkpt lat="49.82993" lon="4.8019">
        <ele>211</ele>
        <time>2020-11-13T07:43:37.000Z</time>
      </trkpt>
      <trkpt lat="49.82992" lon="4.80185">
        <ele>211</ele>
        <time>2020-11-13T07:43:38.000Z</time>
      </trkpt>
      <trkpt lat="49.8299" lon="4.80179">
        <ele>212</ele>
        <time>2020-11-13T07:43:39.000Z</time>
      </trkpt>
      <trkpt lat="49.8299" lon="4.80173">
        <ele>212</ele>
        <time>2020-11-13T07:43:40.000Z</time>
      </trkpt>
      <trkpt lat="49.82989" lon="4.80166">
        <ele>212</ele>
        <time>2020-11-13T07:43:41.000Z</time>
      </trkpt>
      <trkpt lat="49.82988" lon="4.80158">
        <ele>212</ele>
        <time>2020-11-13T07:43:42.000Z</time>
      </trkpt>
      <trkpt lat="49.82988" lon="4.80151">
        <ele>212</ele>
        <time>2020-11-13T07:43:43.000Z</time>
      </trkpt>
      <trkpt lat="49.82988" lon="4.80144">
        <ele>212</ele>
        <time>2020-11-13T07:43:44.000Z</time>
      </trkpt>
      <trkpt lat="49.82987" lon="4.80136">
        <ele>212</ele>
        <time>2020-11-13T07:43:45.000Z</time>
      </trkpt>
      <trkpt lat="49.82987" lon="4.80128">
        <ele>212</ele>
        <time>2020-11-13T07:43:46.000Z</time>
      </trkpt>
      <trkpt lat="49.82986" lon="4.80119">
        <ele>212</ele>
        <time>2020-11-13T07:43:47.000Z</time>
      </trkpt>
      <trkpt lat="49.82985" lon="4.80111">
        <ele>212</ele>
        <time>2020-11-13T07:43:48.000Z</time>
      </trkpt>
      <trkpt lat="49.82984" lon="4.80102">
        <ele>212</ele>
        <time>2020-11-13T07:43:49.000Z</time>
      </trkpt>
      <trkpt lat="49.82984" lon="4.80094">
        <ele>212</ele>
        <time>2020-11-13T07:43:50.000Z</time>
      </trkpt>
      <trkpt lat="49.82984" lon="4.80086">
        <ele>212</ele>
        <time>2020-11-13T07:43:51.000Z</time>
      </trkpt>
      <trkpt lat="49.82983" lon="4.80079">
        <ele>211</ele>
        <time>2020-11-13T07:43:52.000Z</time>
      </trkpt>
      <trkpt lat="49.82983" lon="4.80072">
        <ele>211</ele>
        <time>2020-11-13T07:43:53.000Z</time>
      </trkpt>
      <trkpt lat="49.82983" lon="4.80065">
        <ele>211</ele>
        <time>2020-11-13T07:43:54.000Z</time>
      </trkpt>
      <trkpt lat="49.82982" lon="4.80059">
        <ele>211</ele>
        <time>2020-11-13T07:43:55.000Z</time>
      </trkpt>
      <trkpt lat="49.82982" lon="4.80052">
        <ele>211</ele>
        <time>2020-11-13T07:43:56.000Z</time>
      </trkpt>
      <trkpt lat="49.82981" lon="4.80045">
        <ele>211</ele>
        <time>2020-11-13T07:43:57.000Z</time>
      </trkpt>
      <trkpt lat="49.8298" lon="4.80038">
        <ele>211</ele>
        <time>2020-11-13T07:43:58.000Z</time>
      </trkpt>
      <trkpt lat="49.82979" lon="4.8003">
        <ele>211</ele>
        <time>2020-11-13T07:43:59.000Z</time>
      </trkpt>
      <trkpt lat="49.82978" lon="4.80023">
        <ele>211</ele>
        <time>2020-11-13T07:44:00.000Z</time>
      </trkpt>
      <trkpt lat="49.82977" lon="4.80016">
        <ele>211</ele>
        <time>2020-11-13T07:44:01.000Z</time>
      </trkpt>
      <trkpt lat="49.82976" lon="4.80009">
        <ele>211</ele>
        <time>2020-11-13T07:44:02.000Z</time>
      </trkpt>
      <trkpt lat="49.82975" lon="4.80002">
        <ele>211</ele>
        <time>2020-11-13T07:44:03.000Z</time>
      </trkpt>
      <trkpt lat="49.82974" lon="4.79995">
        <ele>211</ele>
        <time>2020-11-13T07:44:04.000Z</time>
      </trkpt>
      <trkpt lat="49.82974" lon="4.79987">
        <ele>211</ele>
        <time>2020-11-13T07:44:05.000Z</time>
      </trkpt>
      <trkpt lat="49.82972" lon="4.7998">
        <ele>211</ele>
        <time>2020-11-13T07:44:06.000Z</time>
      </trkpt>
      <trkpt lat="49.82972" lon="4.79972">
        <ele>211</ele>
        <time>2020-11-13T07:44:07.000Z</time>
      </trkpt>
      <trkpt lat="49.8297" lon="4.79965">
        <ele>211</ele>
        <time>2020-11-13T07:44:08.000Z</time>
      </trkpt>
      <trkpt lat="49.82969" lon="4.79958">
        <ele>211</ele>
        <time>2020-11-13T07:44:09.000Z</time>
      </trkpt>
      <trkpt lat="49.82968" lon="4.79951">
        <ele>211</ele>
        <time>2020-11-13T07:44:10.000Z</time>
      </trkpt>
      <trkpt lat="49.82966" lon="4.79944">
        <ele>211</ele>
        <time>2020-11-13T07:44:11.000Z</time>
      </trkpt>
      <trkpt lat="49.82965" lon="4.79937">
        <ele>211</ele>
        <time>2020-11-13T07:44:12.000Z</time>
      </trkpt>
      <trkpt lat="49.82963" lon="4.79931">
        <ele>211</ele>
        <time>2020-11-13T07:44:13.000Z</time>
      </trkpt>
      <trkpt lat="49.82962" lon="4.79926">
        <ele>211</ele>
        <time>2020-11-13T07:44:14.000Z</time>
      </trkpt>
      <trkpt lat="49.82961" lon="4.7992">
        <ele>211</ele>
        <time>2020-11-13T07:44:15.000Z</time>
      </trkpt>
      <trkpt lat="49.8296" lon="4.79914">
        <ele>211</ele>
        <time>2020-11-13T07:44:16.000Z</time>
      </trkpt>
      <trkpt lat="49.82958" lon="4.79909">
        <ele>211</ele>
        <time>2020-11-13T07:44:17.000Z</time>
      </trkpt>
      <trkpt lat="49.82957" lon="4.79904">
        <ele>211</ele>
        <time>2020-11-13T07:44:18.000Z</time>
      </trkpt>
      <trkpt lat="49.82955" lon="4.79898">
        <ele>211</ele>
        <time>2020-11-13T07:44:19.000Z</time>
      </trkpt>
      <trkpt lat="49.82954" lon="4.79893">
        <ele>211</ele>
        <time>2020-11-13T07:44:20.000Z</time>
      </trkpt>
      <trkpt lat="49.82953" lon="4.79888">
        <ele>211</ele>
        <time>2020-11-13T07:44:21.000Z</time>
      </trkpt>
      <trkpt lat="49.82952" lon="4.79883">
        <ele>211</ele>
        <time>2020-11-13T07:44:22.000Z</time>
      </trkpt>
      <trkpt lat="49.82951" lon="4.79877">
        <ele>211</ele>
        <time>2020-11-13T07:44:23.000Z</time>
      </trkpt>
      <trkpt lat="49.8295" lon="4.79871">
        <ele>211</ele>
        <time>2020-11-13T07:44:24.000Z</time>
      </trkpt>
      <trkpt lat="49.82949" lon="4.79865">
        <ele>211</ele>
        <time>2020-11-13T07:44:25.000Z</time>
      </trkpt>
      <trkpt lat="49.82948" lon="4.79859">
        <ele>211</ele>
        <time>2020-11-13T07:44:26.000Z</time>
      </trkpt>
      <trkpt lat="49.82946" lon="4.79853">
        <ele>211</ele>
        <time>2020-11-13T07:44:27.000Z</time>
      </trkpt>
      <trkpt lat="49.82945" lon="4.79847">
        <ele>211</ele>
        <time>2020-11-13T07:44:28.000Z</time>
      </trkpt>
      <trkpt lat="49.82944" lon="4.79841">
        <ele>211</ele>
        <time>2020-11-13T07:44:29.000Z</time>
      </trkpt>
      <trkpt lat="49.82943" lon="4.79835">
        <ele>211</ele>
        <time>2020-11-13T07:44:30.000Z</time>
      </trkpt>
      <trkpt lat="49.82942" lon="4.7983">
        <ele>211</ele>
        <time>2020-11-13T07:44:31.000Z</time>
      </trkpt>
      <trkpt lat="49.8294" lon="4.79824">
        <ele>211</ele>
        <time>2020-11-13T07:44:32.000Z</time>
      </trkpt>
      <trkpt lat="49.82939" lon="4.79818">
        <ele>211</ele>
        <time>2020-11-13T07:44:33.000Z</time>
      </trkpt>
      <trkpt lat="49.82938" lon="4.79811">
        <ele>211</ele>
        <time>2020-11-13T07:44:34.000Z</time>
      </trkpt>
      <trkpt lat="49.82936" lon="4.79803">
        <ele>211</ele>
        <time>2020-11-13T07:44:35.000Z</time>
      </trkpt>
      <trkpt lat="49.82935" lon="4.79795">
        <ele>211</ele>
        <time>2020-11-13T07:44:36.000Z</time>
      </trkpt>
      <trkpt lat="49.82933" lon="4.79788">
        <ele>211</ele>
        <time>2020-11-13T07:44:37.000Z</time>
      </trkpt>
      <trkpt lat="49.82932" lon="4.7978">
        <ele>210</ele>
        <time>2020-11-13T07:44:38.000Z</time>
      </trkpt>
      <trkpt lat="49.82931" lon="4.79771">
        <ele>210</ele>
        <time>2020-11-13T07:44:39.000Z</time>
      </trkpt>
      <trkpt lat="49.8293" lon="4.79762">
        <ele>210</ele>
        <time>2020-11-13T07:44:40.000Z</time>
      </trkpt>
      <trkpt lat="49.82929" lon="4.79754">
        <ele>210</ele>
        <time>2020-11-13T07:44:41.000Z</time>
      </trkpt>
      <trkpt lat="49.82928" lon="4.79745">
        <ele>209</ele>
        <time>2020-11-13T07:44:42.000Z</time>
      </trkpt>
      <trkpt lat="49.82928" lon="4.79737">
        <ele>209</ele>
        <time>2020-11-13T07:44:43.000Z</time>
      </trkpt>
      <trkpt lat="49.82928" lon="4.79729">
        <ele>209</ele>
        <time>2020-11-13T07:44:44.000Z</time>
      </trkpt>
      <trkpt lat="49.82927" lon="4.7972">
        <ele>209</ele>
        <time>2020-11-13T07:44:45.000Z</time>
      </trkpt>
      <trkpt lat="49.82926" lon="4.79712">
        <ele>208</ele>
        <time>2020-11-13T07:44:46.000Z</time>
      </trkpt>
      <trkpt lat="49.82925" lon="4.79704">
        <ele>208</ele>
        <time>2020-11-13T07:44:47.000Z</time>
      </trkpt>
      <trkpt lat="49.82924" lon="4.79695">
        <ele>208</ele>
        <time>2020-11-13T07:44:48.000Z</time>
      </trkpt>
      <trkpt lat="49.82923" lon="4.79687">
        <ele>208</ele>
        <time>2020-11-13T07:44:49.000Z</time>
      </trkpt>
      <trkpt lat="49.82921" lon="4.79679">
        <ele>208</ele>
        <time>2020-11-13T07:44:50.000Z</time>
      </trkpt>
      <trkpt lat="49.8292" lon="4.79671">
        <ele>207</ele>
        <time>2020-11-13T07:44:51.000Z</time>
      </trkpt>
      <trkpt lat="49.82919" lon="4.79663">
        <ele>207</ele>
        <time>2020-11-13T07:44:52.000Z</time>
      </trkpt>
      <trkpt lat="49.82917" lon="4.79655">
        <ele>207</ele>
        <time>2020-11-13T07:44:53.000Z</time>
      </trkpt>
      <trkpt lat="49.82916" lon="4.79647">
        <ele>207</ele>
        <time>2020-11-13T07:44:54.000Z</time>
      </trkpt>
      <trkpt lat="49.82914" lon="4.79639">
        <ele>207</ele>
        <time>2020-11-13T07:44:55.000Z</time>
      </trkpt>
      <trkpt lat="49.82913" lon="4.79631">
        <ele>207</ele>
        <time>2020-11-13T07:44:56.000Z</time>
      </trkpt>
      <trkpt lat="49.82911" lon="4.79624">
        <ele>207</ele>
        <time>2020-11-13T07:44:57.000Z</time>
      </trkpt>
      <trkpt lat="49.8291" lon="4.79616">
        <ele>207</ele>
        <time>2020-11-13T07:44:58.000Z</time>
      </trkpt>
      <trkpt lat="49.82908" lon="4.79608">
        <ele>207</ele>
        <time>2020-11-13T07:44:59.000Z</time>
      </trkpt>
      <trkpt lat="49.82907" lon="4.79601">
        <ele>207</ele>
        <time>2020-11-13T07:45:00.000Z</time>
      </trkpt>
      <trkpt lat="49.82905" lon="4.79594">
        <ele>207</ele>
        <time>2020-11-13T07:45:01.000Z</time>
      </trkpt>
      <trkpt lat="49.82904" lon="4.79586">
        <ele>207</ele>
        <time>2020-11-13T07:45:02.000Z</time>
      </trkpt>
      <trkpt lat="49.82903" lon="4.79579">
        <ele>207</ele>
        <time>2020-11-13T07:45:03.000Z</time>
      </trkpt>
      <trkpt lat="49.82902" lon="4.79573">
        <ele>208</ele>
        <time>2020-11-13T07:45:04.000Z</time>
      </trkpt>
      <trkpt lat="49.82901" lon="4.79566">
        <ele>208</ele>
        <time>2020-11-13T07:45:05.000Z</time>
      </trkpt>
      <trkpt lat="49.82902" lon="4.79559">
        <ele>208</ele>
        <time>2020-11-13T07:45:06.000Z</time>
      </trkpt>
      <trkpt lat="49.82902" lon="4.79552">
        <ele>208</ele>
        <time>2020-11-13T07:45:07.000Z</time>
      </trkpt>
      <trkpt lat="49.82903" lon="4.79547">
        <ele>208</ele>
        <time>2020-11-13T07:45:08.000Z</time>
      </trkpt>
      <trkpt lat="49.82905" lon="4.79543">
        <ele>208</ele>
        <time>2020-11-13T07:45:09.000Z</time>
      </trkpt>
      <trkpt lat="49.82907" lon="4.7954">
        <ele>208</ele>
        <time>2020-11-13T07:45:10.000Z</time>
      </trkpt>
      <trkpt lat="49.82909" lon="4.79538">
        <ele>208</ele>
        <time>2020-11-13T07:45:11.000Z</time>
      </trkpt>
      <trkpt lat="49.82911" lon="4.79535">
        <ele>208</ele>
        <time>2020-11-13T07:45:12.000Z</time>
      </trkpt>
      <trkpt lat="49.82914" lon="4.79534">
        <ele>208</ele>
        <time>2020-11-13T07:45:13.000Z</time>
      </trkpt>
      <trkpt lat="49.82917" lon="4.79533">
        <ele>209</ele>
        <time>2020-11-13T07:45:14.000Z</time>
      </trkpt>
      <trkpt lat="49.82919" lon="4.79531">
        <ele>209</ele>
        <time>2020-11-13T07:45:15.000Z</time>
      </trkpt>
      <trkpt lat="49.82921" lon="4.79531">
        <ele>209</ele>
        <time>2020-11-13T07:45:16.000Z</time>
      </trkpt>
      <trkpt lat="49.82924" lon="4.7953">
        <ele>209</ele>
        <time>2020-11-13T07:45:17.000Z</time>
      </trkpt>
      <trkpt lat="49.82926" lon="4.79529">
        <ele>209</ele>
        <time>2020-11-13T07:45:18.000Z</time>
      </trkpt>
      <trkpt lat="49.82929" lon="4.79528">
        <ele>210</ele>
        <time>2020-11-13T07:45:19.000Z</time>
      </trkpt>
      <trkpt lat="49.82932" lon="4.79527">
        <ele>210</ele>
        <time>2020-11-13T07:45:20.000Z</time>
      </trkpt>
      <trkpt lat="49.82934" lon="4.79525">
        <ele>210</ele>
        <time>2020-11-13T07:45:21.000Z</time>
      </trkpt>
      <trkpt lat="49.82937" lon="4.79524">
        <ele>210</ele>
        <time>2020-11-13T07:45:22.000Z</time>
      </trkpt>
      <trkpt lat="49.8294" lon="4.79523">
        <ele>210</ele>
        <time>2020-11-13T07:45:23.000Z</time>
      </trkpt>
      <trkpt lat="49.82943" lon="4.79523">
        <ele>211</ele>
        <time>2020-11-13T07:45:24.000Z</time>
      </trkpt>
      <trkpt lat="49.82946" lon="4.79523">
        <ele>211</ele>
        <time>2020-11-13T07:45:25.000Z</time>
      </trkpt>
      <trkpt lat="49.82948" lon="4.79522">
        <ele>211</ele>
        <time>2020-11-13T07:45:26.000Z</time>
      </trkpt>
      <trkpt lat="49.82951" lon="4.79522">
        <ele>211</ele>
        <time>2020-11-13T07:45:27.000Z</time>
      </trkpt>
      <trkpt lat="49.82954" lon="4.79521">
        <ele>211</ele>
        <time>2020-11-13T07:45:28.000Z</time>
      </trkpt>
      <trkpt lat="49.82958" lon="4.79522">
        <ele>212</ele>
        <time>2020-11-13T07:45:29.000Z</time>
      </trkpt>
      <trkpt lat="49.82961" lon="4.79522">
        <ele>212</ele>
        <time>2020-11-13T07:45:30.000Z</time>
      </trkpt>
      <trkpt lat="49.82964" lon="4.79522">
        <ele>212</ele>
        <time>2020-11-13T07:45:31.000Z</time>
      </trkpt>
      <trkpt lat="49.82967" lon="4.79522">
        <ele>212</ele>
        <time>2020-11-13T07:45:32.000Z</time>
      </trkpt>
      <trkpt lat="49.8297" lon="4.79521">
        <ele>212</ele>
        <time>2020-11-13T07:45:33.000Z</time>
      </trkpt>
      <trkpt lat="49.82973" lon="4.79521">
        <ele>213</ele>
        <time>2020-11-13T07:45:34.000Z</time>
      </trkpt>
      <trkpt lat="49.82975" lon="4.79519">
        <ele>213</ele>
        <time>2020-11-13T07:45:35.000Z</time>
      </trkpt>
      <trkpt lat="49.82978" lon="4.79515">
        <ele>213</ele>
        <time>2020-11-13T07:45:36.000Z</time>
      </trkpt>
      <trkpt lat="49.82979" lon="4.79511">
        <ele>213</ele>
        <time>2020-11-13T07:45:37.000Z</time>
      </trkpt>
      <trkpt lat="49.82981" lon="4.79507">
        <ele>213</ele>
        <time>2020-11-13T07:45:38.000Z</time>
      </trkpt>
      <trkpt lat="49.82982" lon="4.79503">
        <ele>213</ele>
        <time>2020-11-13T07:45:39.000Z</time>
      </trkpt>
      <trkpt lat="49.82982" lon="4.79499">
        <ele>214</ele>
        <time>2020-11-13T07:45:40.000Z</time>
      </trkpt>
      <trkpt lat="49.82982" lon="4.79496">
        <ele>214</ele>
        <time>2020-11-13T07:45:41.000Z</time>
      </trkpt>
      <trkpt lat="49.82981" lon="4.79492">
        <ele>214</ele>
        <time>2020-11-13T07:45:42.000Z</time>
      </trkpt>
      <trkpt lat="49.82981" lon="4.79489">
        <ele>214</ele>
        <time>2020-11-13T07:45:43.000Z</time>
      </trkpt>
      <trkpt lat="49.82981" lon="4.79485">
        <ele>214</ele>
        <time>2020-11-13T07:45:44.000Z</time>
      </trkpt>
      <trkpt lat="49.82983" lon="4.79482">
        <ele>214</ele>
        <time>2020-11-13T07:45:45.000Z</time>
      </trkpt>
      <trkpt lat="49.82985" lon="4.79479">
        <ele>214</ele>
        <time>2020-11-13T07:45:46.000Z</time>
      </trkpt>
      <trkpt lat="49.82987" lon="4.79478">
        <ele>215</ele>
        <time>2020-11-13T07:45:47.000Z</time>
      </trkpt>
      <trkpt lat="49.82989" lon="4.79477">
        <ele>215</ele>
        <time>2020-11-13T07:45:48.000Z</time>
      </trkpt>
      <trkpt lat="49.82992" lon="4.79477">
        <ele>215</ele>
        <time>2020-11-13T07:45:49.000Z</time>
      </trkpt>
      <trkpt lat="49.82995" lon="4.79478">
        <ele>215</ele>
        <time>2020-11-13T07:45:50.000Z</time>
      </trkpt>
      <trkpt lat="49.82997" lon="4.79478">
        <ele>216</ele>
        <time>2020-11-13T07:45:51.000Z</time>
      </trkpt>
      <trkpt lat="49.83" lon="4.79478">
        <ele>216</ele>
        <time>2020-11-13T07:45:52.000Z</time>
      </trkpt>
      <trkpt lat="49.83002" lon="4.79479">
        <ele>216</ele>
        <time>2020-11-13T07:45:53.000Z</time>
      </trkpt>
      <trkpt lat="49.83004" lon="4.79479">
        <ele>216</ele>
        <time>2020-11-13T07:45:54.000Z</time>
      </trkpt>
      <trkpt lat="49.83006" lon="4.7948">
        <ele>217</ele>
        <time>2020-11-13T07:45:55.000Z</time>
      </trkpt>
      <trkpt lat="49.83009" lon="4.7948">
        <ele>217</ele>
        <time>2020-11-13T07:45:56.000Z</time>
      </trkpt>
      <trkpt lat="49.83011" lon="4.7948">
        <ele>217</ele>
        <time>2020-11-13T07:45:57.000Z</time>
      </trkpt>
      <trkpt lat="49.83014" lon="4.7948">
        <ele>217</ele>
        <time>2020-11-13T07:45:58.000Z</time>
      </trkpt>
      <trkpt lat="49.83016" lon="4.79481">
        <ele>217</ele>
        <time>2020-11-13T07:45:59.000Z</time>
      </trkpt>
      <trkpt lat="49.83019" lon="4.79481">
        <ele>218</ele>
        <time>2020-11-13T07:46:00.000Z</time>
      </trkpt>
      <trkpt lat="49.83021" lon="4.79481">
        <ele>218</ele>
        <time>2020-11-13T07:46:01.000Z</time>
      </trkpt>
      <trkpt lat="49.83024" lon="4.79481">
        <ele>218</ele>
        <time>2020-11-13T07:46:02.000Z</time>
      </trkpt>
      <trkpt lat="49.83026" lon="4.79481">
        <ele>218</ele>
        <time>2020-11-13T07:46:03.000Z</time>
      </trkpt>
      <trkpt lat="49.83028" lon="4.79481">
        <ele>219</ele>
        <time>2020-11-13T07:46:04.000Z</time>
      </trkpt>
      <trkpt lat="49.8303" lon="4.79482">
        <ele>219</ele>
        <time>2020-11-13T07:46:05.000Z</time>
      </trkpt>
      <trkpt lat="49.83033" lon="4.79482">
        <ele>220</ele>
        <time>2020-11-13T07:46:06.000Z</time>
      </trkpt>
      <trkpt lat="49.83035" lon="4.79482">
        <ele>220</ele>
        <time>2020-11-13T07:46:07.000Z</time>
      </trkpt>
      <trkpt lat="49.83037" lon="4.79482">
        <ele>221</ele>
        <time>2020-11-13T07:46:08.000Z</time>
      </trkpt>
      <trkpt lat="49.83039" lon="4.79482">
        <ele>221</ele>
        <time>2020-11-13T07:46:09.000Z</time>
      </trkpt>
      <trkpt lat="49.83041" lon="4.79482">
        <ele>222</ele>
        <time>2020-11-13T07:46:10.000Z</time>
      </trkpt>
      <trkpt lat="49.83043" lon="4.79482">
        <ele>222</ele>
        <time>2020-11-13T07:46:11.000Z</time>
      </trkpt>
      <trkpt lat="49.83045" lon="4.79482">
        <ele>223</ele>
        <time>2020-11-13T07:46:12.000Z</time>
      </trkpt>
      <trkpt lat="49.83047" lon="4.79482">
        <ele>223</ele>
        <time>2020-11-13T07:46:13.000Z</time>
      </trkpt>
      <trkpt lat="49.83049" lon="4.79482">
        <ele>224</ele>
        <time>2020-11-13T07:46:14.000Z</time>
      </trkpt>
      <trkpt lat="49.83051" lon="4.79481">
        <ele>224</ele>
        <time>2020-11-13T07:46:15.000Z</time>
      </trkpt>
      <trkpt lat="49.83053" lon="4.79481">
        <ele>224</ele>
        <time>2020-11-13T07:46:16.000Z</time>
      </trkpt>
      <trkpt lat="49.83055" lon="4.79481">
        <ele>225</ele>
        <time>2020-11-13T07:46:17.000Z</time>
      </trkpt>
      <trkpt lat="49.83057" lon="4.79481">
        <ele>225</ele>
        <time>2020-11-13T07:46:18.000Z</time>
      </trkpt>
      <trkpt lat="49.83059" lon="4.7948">
        <ele>225</ele>
        <time>2020-11-13T07:46:19.000Z</time>
      </trkpt>
      <trkpt lat="49.83061" lon="4.7948">
        <ele>226</ele>
        <time>2020-11-13T07:46:20.000Z</time>
      </trkpt>
      <trkpt lat="49.83063" lon="4.7948">
        <ele>226</ele>
        <time>2020-11-13T07:46:21.000Z</time>
      </trkpt>
      <trkpt lat="49.83065" lon="4.79479">
        <ele>226</ele>
        <time>2020-11-13T07:46:22.000Z</time>
      </trkpt>
      <trkpt lat="49.83067" lon="4.79479">
        <ele>226</ele>
        <time>2020-11-13T07:46:23.000Z</time>
      </trkpt>
      <trkpt lat="49.83069" lon="4.79478">
        <ele>226</ele>
        <time>2020-11-13T07:46:24.000Z</time>
      </trkpt>
      <trkpt lat="49.83071" lon="4.79476">
        <ele>226</ele>
        <time>2020-11-13T07:46:25.000Z</time>
      </trkpt>
      <trkpt lat="49.83072" lon="4.79474">
        <ele>226</ele>
        <time>2020-11-13T07:46:26.000Z</time>
      </trkpt>
      <trkpt lat="49.83073" lon="4.79471">
        <ele>226</ele>
        <time>2020-11-13T07:46:27.000Z</time>
      </trkpt>
      <trkpt lat="49.83073" lon="4.79468">
        <ele>226</ele>
        <time>2020-11-13T07:46:28.000Z</time>
      </trkpt>
      <trkpt lat="49.83072" lon="4.79466">
        <ele>226</ele>
        <time>2020-11-13T07:46:29.000Z</time>
      </trkpt>
      <trkpt lat="49.83071" lon="4.79464">
        <ele>226</ele>
        <time>2020-11-13T07:46:30.000Z</time>
      </trkpt>
      <trkpt lat="49.83069" lon="4.79462">
        <ele>225</ele>
        <time>2020-11-13T07:46:31.000Z</time>
      </trkpt>
      <trkpt lat="49.83067" lon="4.7946">
        <ele>225</ele>
        <time>2020-11-13T07:46:32.000Z</time>
      </trkpt>
      <trkpt lat="49.83066" lon="4.79459">
        <ele>225</ele>
        <time>2020-11-13T07:46:33.000Z</time>
      </trkpt>
      <trkpt lat="49.83064" lon="4.79458">
        <ele>225</ele>
        <time>2020-11-13T07:46:34.000Z</time>
      </trkpt>
      <trkpt lat="49.83061" lon="4.79457">
        <ele>225</ele>
        <time>2020-11-13T07:46:35.000Z</time>
      </trkpt>
      <trkpt lat="49.83059" lon="4.79457">
        <ele>224</ele>
        <time>2020-11-13T07:46:36.000Z</time>
      </trkpt>
      <trkpt lat="49.83056" lon="4.79457">
        <ele>224</ele>
        <time>2020-11-13T07:46:37.000Z</time>
      </trkpt>
      <trkpt lat="49.83054" lon="4.79456">
        <ele>224</ele>
        <time>2020-11-13T07:46:38.000Z</time>
      </trkpt>
      <trkpt lat="49.83051" lon="4.79456">
        <ele>224</ele>
        <time>2020-11-13T07:46:39.000Z</time>
      </trkpt>
      <trkpt lat="49.83049" lon="4.79455">
        <ele>224</ele>
        <time>2020-11-13T07:46:40.000Z</time>
      </trkpt>
      <trkpt lat="49.83047" lon="4.79455">
        <ele>224</ele>
        <time>2020-11-13T07:46:41.000Z</time>
      </trkpt>
      <trkpt lat="49.83044" lon="4.79453">
        <ele>224</ele>
        <time>2020-11-13T07:46:42.000Z</time>
      </trkpt>
      <trkpt lat="49.83042" lon="4.79452">
        <ele>224</ele>
        <time>2020-11-13T07:46:43.000Z</time>
      </trkpt>
      <trkpt lat="49.8304" lon="4.7945">
        <ele>224</ele>
        <time>2020-11-13T07:46:44.000Z</time>
      </trkpt>
      <trkpt lat="49.83037" lon="4.79448">
        <ele>224</ele>
        <time>2020-11-13T07:46:45.000Z</time>
      </trkpt>
      <trkpt lat="49.83035" lon="4.79446">
        <ele>224</ele>
        <time>2020-11-13T07:46:46.000Z</time>
      </trkpt>
      <trkpt lat="49.83033" lon="4.79444">
        <ele>224</ele>
        <time>2020-11-13T07:46:47.000Z</time>
      </trkpt>
      <trkpt lat="49.83031" lon="4.79442">
        <ele>224</ele>
        <time>2020-11-13T07:46:48.000Z</time>
      </trkpt>
      <trkpt lat="49.83029" lon="4.79441">
        <ele>224</ele>
        <time>2020-11-13T07:46:49.000Z</time>
      </trkpt>
      <trkpt lat="49.83027" lon="4.79439">
        <ele>224</ele>
        <time>2020-11-13T07:46:50.000Z</time>
      </trkpt>
      <trkpt lat="49.83025" lon="4.79437">
        <ele>224</ele>
        <time>2020-11-13T07:46:51.000Z</time>
      </trkpt>
      <trkpt lat="49.83023" lon="4.79435">
        <ele>224</ele>
        <time>2020-11-13T07:46:52.000Z</time>
      </trkpt>
      <trkpt lat="49.83022" lon="4.79433">
        <ele>224</ele>
        <time>2020-11-13T07:46:53.000Z</time>
      </trkpt>
      <trkpt lat="49.8302" lon="4.79432">
        <ele>224</ele>
        <time>2020-11-13T07:46:54.000Z</time>
      </trkpt>
      <trkpt lat="49.83018" lon="4.7943">
        <ele>224</ele>
        <time>2020-11-13T07:46:55.000Z</time>
      </trkpt>
      <trkpt lat="49.83016" lon="4.79429">
        <ele>224</ele>
        <time>2020-11-13T07:46:56.000Z</time>
      </trkpt>
      <trkpt lat="49.83015" lon="4.79427">
        <ele>224</ele>
        <time>2020-11-13T07:46:57.000Z</time>
      </trkpt>
      <trkpt lat="49.83013" lon="4.79425">
        <ele>224</ele>
        <time>2020-11-13T07:46:58.000Z</time>
      </trkpt>
      <trkpt lat="49.83011" lon="4.79424">
        <ele>224</ele>
        <time>2020-11-13T07:46:59.000Z</time>
      </trkpt>
      <trkpt lat="49.8301" lon="4.79422">
        <ele>224</ele>
        <time>2020-11-13T07:47:00.000Z</time>
      </trkpt>
      <trkpt lat="49.83008" lon="4.7942">
        <ele>224</ele>
        <time>2020-11-13T07:47:01.000Z</time>
      </trkpt>
      <trkpt lat="49.83006" lon="4.79418">
        <ele>224</ele>
        <time>2020-11-13T07:47:02.000Z</time>
      </trkpt>
      <trkpt lat="49.83005" lon="4.79416">
        <ele>224</ele>
        <time>2020-11-13T07:47:03.000Z</time>
      </trkpt>
      <trkpt lat="49.83003" lon="4.79414">
        <ele>224</ele>
        <time>2020-11-13T07:47:04.000Z</time>
      </trkpt>
      <trkpt lat="49.83001" lon="4.79412">
        <ele>224</ele>
        <time>2020-11-13T07:47:05.000Z</time>
      </trkpt>
      <trkpt lat="49.83" lon="4.7941">
        <ele>224</ele>
        <time>2020-11-13T07:47:06.000Z</time>
      </trkpt>
      <trkpt lat="49.82998" lon="4.79408">
        <ele>225</ele>
        <time>2020-11-13T07:47:07.000Z</time>
      </trkpt>
      <trkpt lat="49.82996" lon="4.79406">
        <ele>225</ele>
        <time>2020-11-13T07:47:08.000Z</time>
      </trkpt>
      <trkpt lat="49.82994" lon="4.79404">
        <ele>225</ele>
        <time>2020-11-13T07:47:09.000Z</time>
      </trkpt>
      <trkpt lat="49.82993" lon="4.79402">
        <ele>225</ele>
        <time>2020-11-13T07:47:10.000Z</time>
      </trkpt>
      <trkpt lat="49.82991" lon="4.794">
        <ele>225</ele>
        <time>2020-11-13T07:47:11.000Z</time>
      </trkpt>
      <trkpt lat="49.82989" lon="4.79398">
        <ele>225</ele>
        <time>2020-11-13T07:47:12.000Z</time>
      </trkpt>
      <trkpt lat="49.82988" lon="4.79396">
        <ele>225</ele>
        <time>2020-11-13T07:47:13.000Z</time>
      </trkpt>
      <trkpt lat="49.82986" lon="4.79394">
        <ele>225</ele>
        <time>2020-11-13T07:47:14.000Z</time>
      </trkpt>
      <trkpt lat="49.82984" lon="4.79392">
        <ele>225</ele>
        <time>2020-11-13T07:47:15.000Z</time>
      </trkpt>
      <trkpt lat="49.82983" lon="4.7939">
        <ele>225</ele>
        <time>2020-11-13T07:47:16.000Z</time>
      </trkpt>
      <trkpt lat="49.82981" lon="4.79388">
        <ele>225</ele>
        <time>2020-11-13T07:47:17.000Z</time>
      </trkpt>
      <trkpt lat="49.8298" lon="4.79386">
        <ele>225</ele>
        <time>2020-11-13T07:47:18.000Z</time>
      </trkpt>
      <trkpt lat="49.82978" lon="4.79384">
        <ele>226</ele>
        <time>2020-11-13T07:47:19.000Z</time>
      </trkpt>
      <trkpt lat="49.82976" lon="4.79382">
        <ele>226</ele>
        <time>2020-11-13T07:47:20.000Z</time>
      </trkpt>
      <trkpt lat="49.82975" lon="4.7938">
        <ele>226</ele>
        <time>2020-11-13T07:47:21.000Z</time>
      </trkpt>
      <trkpt lat="49.82973" lon="4.79378">
        <ele>226</ele>
        <time>2020-11-13T07:47:22.000Z</time>
      </trkpt>
      <trkpt lat="49.82972" lon="4.79376">
        <ele>226</ele>
        <time>2020-11-13T07:47:23.000Z</time>
      </trkpt>
      <trkpt lat="49.8297" lon="4.79374">
        <ele>226</ele>
        <time>2020-11-13T07:47:24.000Z</time>
      </trkpt>
      <trkpt lat="49.82969" lon="4.79372">
        <ele>226</ele>
        <time>2020-11-13T07:47:25.000Z</time>
      </trkpt>
      <trkpt lat="49.82967" lon="4.7937">
        <ele>227</ele>
        <time>2020-11-13T07:47:26.000Z</time>
      </trkpt>
      <trkpt lat="49.82966" lon="4.79368">
        <ele>227</ele>
        <time>2020-11-13T07:47:27.000Z</time>
      </trkpt>
      <trkpt lat="49.82964" lon="4.79366">
        <ele>227</ele>
        <time>2020-11-13T07:47:28.000Z</time>
      </trkpt>
      <trkpt lat="49.82962" lon="4.79364">
        <ele>227</ele>
        <time>2020-11-13T07:47:29.000Z</time>
      </trkpt>
      <trkpt lat="49.8296" lon="4.79361">
        <ele>227</ele>
        <time>2020-11-13T07:47:30.000Z</time>
      </trkpt>
      <trkpt lat="49.82959" lon="4.79359">
        <ele>227</ele>
        <time>2020-11-13T07:47:31.000Z</time>
      </trkpt>
      <trkpt lat="49.82958" lon="4.79356">
        <ele>227</ele>
        <time>2020-11-13T07:47:32.000Z</time>
      </trkpt>
      <trkpt lat="49.82956" lon="4.79353">
        <ele>227</ele>
        <time>2020-11-13T07:47:33.000Z</time>
      </trkpt>
      <trkpt lat="49.82954" lon="4.7935">
        <ele>228</ele>
        <time>2020-11-13T07:47:34.000Z</time>
      </trkpt>
      <trkpt lat="49.82953" lon="4.79347">
        <ele>228</ele>
        <time>2020-11-13T07:47:35.000Z</time>
      </trkpt>
      <trkpt lat="49.82952" lon="4.79345">
        <ele>228</ele>
        <time>2020-11-13T07:47:36.000Z</time>
      </trkpt>
      <trkpt lat="49.82951" lon="4.79342">
        <ele>228</ele>
        <time>2020-11-13T07:47:37.000Z</time>
      </trkpt>
      <trkpt lat="49.8295" lon="4.79339">
        <ele>228</ele>
        <time>2020-11-13T07:47:38.000Z</time>
      </trkpt>
      <trkpt lat="49.82949" lon="4.79337">
        <ele>228</ele>
        <time>2020-11-13T07:47:39.000Z</time>
      </trkpt>
      <trkpt lat="49.82948" lon="4.79334">
        <ele>229</ele>
        <time>2020-11-13T07:47:40.000Z</time>
      </trkpt>
      <trkpt lat="49.82948" lon="4.79332">
        <ele>229</ele>
        <time>2020-11-13T07:47:41.000Z</time>
      </trkpt>
      <trkpt lat="49.82947" lon="4.79329">
        <ele>229</ele>
        <time>2020-11-13T07:47:42.000Z</time>
      </trkpt>
      <trkpt lat="49.82947" lon="4.79327">
        <ele>229</ele>
        <time>2020-11-13T07:47:43.000Z</time>
      </trkpt>
      <trkpt lat="49.82946" lon="4.79324">
        <ele>229</ele>
        <time>2020-11-13T07:47:44.000Z</time>
      </trkpt>
      <trkpt lat="49.82946" lon="4.79321">
        <ele>230</ele>
        <time>2020-11-13T07:47:45.000Z</time>
      </trkpt>
      <trkpt lat="49.82945" lon="4.79319">
        <ele>230</ele>
        <time>2020-11-13T07:47:46.000Z</time>
      </trkpt>
      <trkpt lat="49.82945" lon="4.79316">
        <ele>230</ele>
        <time>2020-11-13T07:47:47.000Z</time>
      </trkpt>
      <trkpt lat="49.82944" lon="4.79313">
        <ele>230</ele>
        <time>2020-11-13T07:47:48.000Z</time>
      </trkpt>
      <trkpt lat="49.82944" lon="4.79311">
        <ele>231</ele>
        <time>2020-11-13T07:47:49.000Z</time>
      </trkpt>
      <trkpt lat="49.82943" lon="4.79308">
        <ele>231</ele>
        <time>2020-11-13T07:47:50.000Z</time>
      </trkpt>
      <trkpt lat="49.82943" lon="4.79306">
        <ele>231</ele>
        <time>2020-11-13T07:47:51.000Z</time>
      </trkpt>
      <trkpt lat="49.82942" lon="4.79303">
        <ele>231</ele>
        <time>2020-11-13T07:47:52.000Z</time>
      </trkpt>
      <trkpt lat="49.82942" lon="4.793">
        <ele>232</ele>
        <time>2020-11-13T07:47:53.000Z</time>
      </trkpt>
      <trkpt lat="49.82942" lon="4.79297">
        <ele>232</ele>
        <time>2020-11-13T07:47:54.000Z</time>
      </trkpt>
      <trkpt lat="49.82941" lon="4.79294">
        <ele>232</ele>
        <time>2020-11-13T07:47:55.000Z</time>
      </trkpt>
      <trkpt lat="49.82941" lon="4.79291">
        <ele>233</ele>
        <time>2020-11-13T07:47:56.000Z</time>
      </trkpt>
      <trkpt lat="49.82941" lon="4.79288">
        <ele>233</ele>
        <time>2020-11-13T07:47:57.000Z</time>
      </trkpt>
      <trkpt lat="49.82941" lon="4.79285">
        <ele>233</ele>
        <time>2020-11-13T07:47:58.000Z</time>
      </trkpt>
      <trkpt lat="49.82941" lon="4.79282">
        <ele>234</ele>
        <time>2020-11-13T07:47:59.000Z</time>
      </trkpt>
      <trkpt lat="49.82941" lon="4.79279">
        <ele>234</ele>
        <time>2020-11-13T07:48:00.000Z</time>
      </trkpt>
      <trkpt lat="49.82941" lon="4.79275">
        <ele>234</ele>
        <time>2020-11-13T07:48:01.000Z</time>
      </trkpt>
      <trkpt lat="49.82941" lon="4.79272">
        <ele>235</ele>
        <time>2020-11-13T07:48:02.000Z</time>
      </trkpt>
      <trkpt lat="49.82941" lon="4.79268">
        <ele>235</ele>
        <time>2020-11-13T07:48:03.000Z</time>
      </trkpt>
      <trkpt lat="49.82941" lon="4.79265">
        <ele>235</ele>
        <time>2020-11-13T07:48:04.000Z</time>
      </trkpt>
      <trkpt lat="49.82941" lon="4.79262">
        <ele>236</ele>
        <time>2020-11-13T07:48:05.000Z</time>
      </trkpt>
      <trkpt lat="49.82942" lon="4.79258">
        <ele>236</ele>
        <time>2020-11-13T07:48:06.000Z</time>
      </trkpt>
      <trkpt lat="49.82942" lon="4.79254">
        <ele>236</ele>
        <time>2020-11-13T07:48:07.000Z</time>
      </trkpt>
      <trkpt lat="49.82943" lon="4.7925">
        <ele>236</ele>
        <time>2020-11-13T07:48:08.000Z</time>
      </trkpt>
      <trkpt lat="49.82943" lon="4.79246">
        <ele>237</ele>
        <time>2020-11-13T07:48:09.000Z</time>
      </trkpt>
      <trkpt lat="49.82944" lon="4.79242">
        <ele>237</ele>
        <time>2020-11-13T07:48:10.000Z</time>
      </trkpt>
      <trkpt lat="49.82945" lon="4.79238">
        <ele>237</ele>
        <time>2020-11-13T07:48:11.000Z</time>
      </trkpt>
      <trkpt lat="49.82945" lon="4.79235">
        <ele>237</ele>
        <time>2020-11-13T07:48:12.000Z</time>
      </trkpt>
      <trkpt lat="49.82946" lon="4.79231">
        <ele>238</ele>
        <time>2020-11-13T07:48:13.000Z</time>
      </trkpt>
      <trkpt lat="49.82946" lon="4.79227">
        <ele>238</ele>
        <time>2020-11-13T07:48:14.000Z</time>
      </trkpt>
      <trkpt lat="49.82947" lon="4.79224">
        <ele>238</ele>
        <time>2020-11-13T07:48:15.000Z</time>
      </trkpt>
      <trkpt lat="49.82948" lon="4.79221">
        <ele>238</ele>
        <time>2020-11-13T07:48:16.000Z</time>
      </trkpt>
      <trkpt lat="49.82948" lon="4.79218">
        <ele>238</ele>
        <time>2020-11-13T07:48:17.000Z</time>
      </trkpt>
      <trkpt lat="49.82949" lon="4.79215">
        <ele>238</ele>
        <time>2020-11-13T07:48:18.000Z</time>
      </trkpt>
      <trkpt lat="49.82949" lon="4.79212">
        <ele>238</ele>
        <time>2020-11-13T07:48:19.000Z</time>
      </trkpt>
      <trkpt lat="49.8295" lon="4.79209">
        <ele>239</ele>
        <time>2020-11-13T07:48:20.000Z</time>
      </trkpt>
      <trkpt lat="49.8295" lon="4.79206">
        <ele>239</ele>
        <time>2020-11-13T07:48:21.000Z</time>
      </trkpt>
      <trkpt lat="49.82951" lon="4.79203">
        <ele>239</ele>
        <time>2020-11-13T07:48:22.000Z</time>
      </trkpt>
      <trkpt lat="49.82951" lon="4.79199">
        <ele>239</ele>
        <time>2020-11-13T07:48:23.000Z</time>
      </trkpt>
      <trkpt lat="49.82951" lon="4.79196">
        <ele>239</ele>
        <time>2020-11-13T07:48:24.000Z</time>
      </trkpt>
      <trkpt lat="49.82952" lon="4.79193">
        <ele>240</ele>
        <time>2020-11-13T07:48:25.000Z</time>
      </trkpt>
      <trkpt lat="49.82952" lon="4.7919">
        <ele>240</ele>
        <time>2020-11-13T07:48:26.000Z</time>
      </trkpt>
      <trkpt lat="49.82952" lon="4.79186">
        <ele>240</ele>
        <time>2020-11-13T07:48:27.000Z</time>
      </trkpt>
      <trkpt lat="49.82952" lon="4.79183">
        <ele>240</ele>
        <time>2020-11-13T07:48:28.000Z</time>
      </trkpt>
      <trkpt lat="49.82952" lon="4.7918">
        <ele>241</ele>
        <time>2020-11-13T07:48:29.000Z</time>
      </trkpt>
      <trkpt lat="49.82953" lon="4.79177">
        <ele>241</ele>
        <time>2020-11-13T07:48:30.000Z</time>
      </trkpt>
      <trkpt lat="49.82953" lon="4.79174">
        <ele>241</ele>
        <time>2020-11-13T07:48:31.000Z</time>
      </trkpt>
      <trkpt lat="49.82953" lon="4.79171">
        <ele>242</ele>
        <time>2020-11-13T07:48:32.000Z</time>
      </trkpt>
      <trkpt lat="49.82953" lon="4.79168">
        <ele>242</ele>
        <time>2020-11-13T07:48:33.000Z</time>
      </trkpt>
      <trkpt lat="49.82953" lon="4.79165">
        <ele>243</ele>
        <time>2020-11-13T07:48:34.000Z</time>
      </trkpt>
      <trkpt lat="49.82953" lon="4.79162">
        <ele>243</ele>
        <time>2020-11-13T07:48:35.000Z</time>
      </trkpt>
      <trkpt lat="49.82952" lon="4.79159">
        <ele>243</ele>
        <time>2020-11-13T07:48:36.000Z</time>
      </trkpt>
      <trkpt lat="49.82952" lon="4.79156">
        <ele>244</ele>
        <time>2020-11-13T07:48:37.000Z</time>
      </trkpt>
      <trkpt lat="49.82951" lon="4.79153">
        <ele>244</ele>
        <time>2020-11-13T07:48:38.000Z</time>
      </trkpt>
      <trkpt lat="49.82951" lon="4.7915">
        <ele>244</ele>
        <time>2020-11-13T07:48:39.000Z</time>
      </trkpt>
      <trkpt lat="49.8295" lon="4.79147">
        <ele>245</ele>
        <time>2020-11-13T07:48:40.000Z</time>
      </trkpt>
      <trkpt lat="49.82949" lon="4.79144">
        <ele>245</ele>
        <time>2020-11-13T07:48:41.000Z</time>
      </trkpt>
      <trkpt lat="49.82949" lon="4.79142">
        <ele>245</ele>
        <time>2020-11-13T07:48:42.000Z</time>
      </trkpt>
      <trkpt lat="49.82948" lon="4.79139">
        <ele>245</ele>
        <time>2020-11-13T07:48:43.000Z</time>
      </trkpt>
      <trkpt lat="49.82947" lon="4.79136">
        <ele>246</ele>
        <time>2020-11-13T07:48:44.000Z</time>
      </trkpt>
      <trkpt lat="49.82946" lon="4.79134">
        <ele>246</ele>
        <time>2020-11-13T07:48:45.000Z</time>
      </trkpt>
      <trkpt lat="49.82945" lon="4.79131">
        <ele>246</ele>
        <time>2020-11-13T07:48:46.000Z</time>
      </trkpt>
      <trkpt lat="49.82944" lon="4.79128">
        <ele>247</ele>
        <time>2020-11-13T07:48:47.000Z</time>
      </trkpt>
      <trkpt lat="49.82942" lon="4.79125">
        <ele>247</ele>
        <time>2020-11-13T07:48:48.000Z</time>
      </trkpt>
      <trkpt lat="49.82941" lon="4.79122">
        <ele>247</ele>
        <time>2020-11-13T07:48:49.000Z</time>
      </trkpt>
      <trkpt lat="49.8294" lon="4.79119">
        <ele>248</ele>
        <time>2020-11-13T07:48:50.000Z</time>
      </trkpt>
      <trkpt lat="49.82938" lon="4.79116">
        <ele>248</ele>
        <time>2020-11-13T07:48:51.000Z</time>
      </trkpt>
      <trkpt lat="49.82937" lon="4.79113">
        <ele>248</ele>
        <time>2020-11-13T07:48:52.000Z</time>
      </trkpt>
      <trkpt lat="49.82936" lon="4.7911">
        <ele>249</ele>
        <time>2020-11-13T07:48:53.000Z</time>
      </trkpt>
      <trkpt lat="49.82935" lon="4.79106">
        <ele>249</ele>
        <time>2020-11-13T07:48:54.000Z</time>
      </trkpt>
      <trkpt lat="49.82933" lon="4.79103">
        <ele>249</ele>
        <time>2020-11-13T07:48:55.000Z</time>
      </trkpt>
      <trkpt lat="49.82931" lon="4.791">
        <ele>250</ele>
        <time>2020-11-13T07:48:56.000Z</time>
      </trkpt>
      <trkpt lat="49.8293" lon="4.79098">
        <ele>250</ele>
        <time>2020-11-13T07:48:57.000Z</time>
      </trkpt>
      <trkpt lat="49.82928" lon="4.79095">
        <ele>250</ele>
        <time>2020-11-13T07:48:58.000Z</time>
      </trkpt>
      <trkpt lat="49.82926" lon="4.79093">
        <ele>251</ele>
        <time>2020-11-13T07:48:59.000Z</time>
      </trkpt>
      <trkpt lat="49.82924" lon="4.7909">
        <ele>251</ele>
        <time>2020-11-13T07:49:00.000Z</time>
      </trkpt>
      <trkpt lat="49.82923" lon="4.79088">
        <ele>251</ele>
        <time>2020-11-13T07:49:01.000Z</time>
      </trkpt>
      <trkpt lat="49.82921" lon="4.79085">
        <ele>252</ele>
        <time>2020-11-13T07:49:02.000Z</time>
      </trkpt>
      <trkpt lat="49.82919" lon="4.79082">
        <ele>252</ele>
        <time>2020-11-13T07:49:03.000Z</time>
      </trkpt>
      <trkpt lat="49.82916" lon="4.7908">
        <ele>252</ele>
        <time>2020-11-13T07:49:04.000Z</time>
      </trkpt>
      <trkpt lat="49.82914" lon="4.79077">
        <ele>253</ele>
        <time>2020-11-13T07:49:05.000Z</time>
      </trkpt>
      <trkpt lat="49.82911" lon="4.79075">
        <ele>253</ele>
        <time>2020-11-13T07:49:06.000Z</time>
      </trkpt>
      <trkpt lat="49.82908" lon="4.79072">
        <ele>253</ele>
        <time>2020-11-13T07:49:07.000Z</time>
      </trkpt>
      <trkpt lat="49.82905" lon="4.7907">
        <ele>253</ele>
        <time>2020-11-13T07:49:08.000Z</time>
      </trkpt>
      <trkpt lat="49.82903" lon="4.79067">
        <ele>253</ele>
        <time>2020-11-13T07:49:09.000Z</time>
      </trkpt>
      <trkpt lat="49.829" lon="4.79065">
        <ele>253</ele>
        <time>2020-11-13T07:49:10.000Z</time>
      </trkpt>
      <trkpt lat="49.82898" lon="4.79063">
        <ele>253</ele>
        <time>2020-11-13T07:49:11.000Z</time>
      </trkpt>
      <trkpt lat="49.82895" lon="4.79061">
        <ele>253</ele>
        <time>2020-11-13T07:49:12.000Z</time>
      </trkpt>
      <trkpt lat="49.82893" lon="4.79059">
        <ele>253</ele>
        <time>2020-11-13T07:49:13.000Z</time>
      </trkpt>
      <trkpt lat="49.82891" lon="4.79056">
        <ele>253</ele>
        <time>2020-11-13T07:49:14.000Z</time>
      </trkpt>
      <trkpt lat="49.82889" lon="4.79055">
        <ele>252</ele>
        <time>2020-11-13T07:49:15.000Z</time>
      </trkpt>
      <trkpt lat="49.82887" lon="4.79053">
        <ele>252</ele>
        <time>2020-11-13T07:49:16.000Z</time>
      </trkpt>
      <trkpt lat="49.82884" lon="4.79051">
        <ele>252</ele>
        <time>2020-11-13T07:49:17.000Z</time>
      </trkpt>
      <trkpt lat="49.82882" lon="4.79049">
        <ele>252</ele>
        <time>2020-11-13T07:49:18.000Z</time>
      </trkpt>
      <trkpt lat="49.8288" lon="4.79047">
        <ele>252</ele>
        <time>2020-11-13T07:49:19.000Z</time>
      </trkpt>
      <trkpt lat="49.82878" lon="4.79045">
        <ele>251</ele>
        <time>2020-11-13T07:49:20.000Z</time>
      </trkpt>
      <trkpt lat="49.82876" lon="4.79042">
        <ele>251</ele>
        <time>2020-11-13T07:49:21.000Z</time>
      </trkpt>
      <trkpt lat="49.82874" lon="4.7904">
        <ele>251</ele>
        <time>2020-11-13T07:49:22.000Z</time>
      </trkpt>
      <trkpt lat="49.82873" lon="4.79038">
        <ele>251</ele>
        <time>2020-11-13T07:49:23.000Z</time>
      </trkpt>
      <trkpt lat="49.82871" lon="4.79035">
        <ele>251</ele>
        <time>2020-11-13T07:49:24.000Z</time>
      </trkpt>
      <trkpt lat="49.82869" lon="4.79034">
        <ele>251</ele>
        <time>2020-11-13T07:49:25.000Z</time>
      </trkpt>
      <trkpt lat="49.82868" lon="4.79032">
        <ele>251</ele>
        <time>2020-11-13T07:49:26.000Z</time>
      </trkpt>
      <trkpt lat="49.82866" lon="4.7903">
        <ele>251</ele>
        <time>2020-11-13T07:49:27.000Z</time>
      </trkpt>
      <trkpt lat="49.82864" lon="4.79027">
        <ele>251</ele>
        <time>2020-11-13T07:49:28.000Z</time>
      </trkpt>
      <trkpt lat="49.82863" lon="4.79025">
        <ele>251</ele>
        <time>2020-11-13T07:49:29.000Z</time>
      </trkpt>
      <trkpt lat="49.82862" lon="4.79023">
        <ele>252</ele>
        <time>2020-11-13T07:49:30.000Z</time>
      </trkpt>
      <trkpt lat="49.82861" lon="4.7902">
        <ele>252</ele>
        <time>2020-11-13T07:49:31.000Z</time>
      </trkpt>
      <trkpt lat="49.82859" lon="4.79018">
        <ele>252</ele>
        <time>2020-11-13T07:49:32.000Z</time>
      </trkpt>
      <trkpt lat="49.82858" lon="4.79016">
        <ele>252</ele>
        <time>2020-11-13T07:49:33.000Z</time>
      </trkpt>
      <trkpt lat="49.82857" lon="4.79013">
        <ele>252</ele>
        <time>2020-11-13T07:49:34.000Z</time>
      </trkpt>
      <trkpt lat="49.82856" lon="4.7901">
        <ele>253</ele>
        <time>2020-11-13T07:49:35.000Z</time>
      </trkpt>
      <trkpt lat="49.82856" lon="4.79008">
        <ele>253</ele>
        <time>2020-11-13T07:49:36.000Z</time>
      </trkpt>
      <trkpt lat="49.82855" lon="4.79005">
        <ele>253</ele>
        <time>2020-11-13T07:49:37.000Z</time>
      </trkpt>
      <trkpt lat="49.82855" lon="4.79002">
        <ele>253</ele>
        <time>2020-11-13T07:49:38.000Z</time>
      </trkpt>
      <trkpt lat="49.82854" lon="4.78999">
        <ele>253</ele>
        <time>2020-11-13T07:49:39.000Z</time>
      </trkpt>
      <trkpt lat="49.82854" lon="4.78996">
        <ele>253</ele>
        <time>2020-11-13T07:49:40.000Z</time>
      </trkpt>
      <trkpt lat="49.82853" lon="4.78993">
        <ele>253</ele>
        <time>2020-11-13T07:49:41.000Z</time>
      </trkpt>
      <trkpt lat="49.82853" lon="4.7899">
        <ele>253</ele>
        <time>2020-11-13T07:49:42.000Z</time>
      </trkpt>
      <trkpt lat="49.82853" lon="4.78987">
        <ele>253</ele>
        <time>2020-11-13T07:49:43.000Z</time>
      </trkpt>
      <trkpt lat="49.82854" lon="4.78985">
        <ele>253</ele>
        <time>2020-11-13T07:49:44.000Z</time>
      </trkpt>
      <trkpt lat="49.82855" lon="4.78982">
        <ele>253</ele>
        <time>2020-11-13T07:49:45.000Z</time>
      </trkpt>
      <trkpt lat="49.82856" lon="4.7898">
        <ele>253</ele>
        <time>2020-11-13T07:49:46.000Z</time>
      </trkpt>
      <trkpt lat="49.82857" lon="4.78978">
        <ele>254</ele>
        <time>2020-11-13T07:49:47.000Z</time>
      </trkpt>
      <trkpt lat="49.82858" lon="4.78977">
        <ele>254</ele>
        <time>2020-11-13T07:49:48.000Z</time>
      </trkpt>
      <trkpt lat="49.82859" lon="4.78975">
        <ele>254</ele>
        <time>2020-11-13T07:49:49.000Z</time>
      </trkpt>
      <trkpt lat="49.8286" lon="4.78974">
        <ele>254</ele>
        <time>2020-11-13T07:49:50.000Z</time>
      </trkpt>
      <trkpt lat="49.82862" lon="4.78973">
        <ele>254</ele>
        <time>2020-11-13T07:49:51.000Z</time>
      </trkpt>
      <trkpt lat="49.82863" lon="4.78973">
        <ele>255</ele>
        <time>2020-11-13T07:49:52.000Z</time>
      </trkpt>
      <trkpt lat="49.82865" lon="4.78972">
        <ele>255</ele>
        <time>2020-11-13T07:49:53.000Z</time>
      </trkpt>
      <trkpt lat="49.82867" lon="4.78972">
        <ele>255</ele>
        <time>2020-11-13T07:49:54.000Z</time>
      </trkpt>
      <trkpt lat="49.82868" lon="4.78973">
        <ele>256</ele>
        <time>2020-11-13T07:49:55.000Z</time>
      </trkpt>
      <trkpt lat="49.8287" lon="4.78973">
        <ele>256</ele>
        <time>2020-11-13T07:49:56.000Z</time>
      </trkpt>
      <trkpt lat="49.82871" lon="4.78974">
        <ele>256</ele>
        <time>2020-11-13T07:49:57.000Z</time>
      </trkpt>
      <trkpt lat="49.82873" lon="4.78976">
        <ele>256</ele>
        <time>2020-11-13T07:49:58.000Z</time>
      </trkpt>
      <trkpt lat="49.82874" lon="4.78977">
        <ele>257</ele>
        <time>2020-11-13T07:49:59.000Z</time>
      </trkpt>
      <trkpt lat="49.82876" lon="4.78978">
        <ele>257</ele>
        <time>2020-11-13T07:50:00.000Z</time>
      </trkpt>
      <trkpt lat="49.82878" lon="4.78979">
        <ele>257</ele>
        <time>2020-11-13T07:50:01.000Z</time>
      </trkpt>
      <trkpt lat="49.8288" lon="4.78981">
        <ele>257</ele>
        <time>2020-11-13T07:50:02.000Z</time>
      </trkpt>
      <trkpt lat="49.82882" lon="4.78983">
        <ele>258</ele>
        <time>2020-11-13T07:50:03.000Z</time>
      </trkpt>
      <trkpt lat="49.82883" lon="4.78984">
        <ele>258</ele>
        <time>2020-11-13T07:50:04.000Z</time>
      </trkpt>
      <trkpt lat="49.82885" lon="4.78986">
        <ele>258</ele>
        <time>2020-11-13T07:50:05.000Z</time>
      </trkpt>
      <trkpt lat="49.82887" lon="4.78988">
        <ele>259</ele>
        <time>2020-11-13T07:50:06.000Z</time>
      </trkpt>
      <trkpt lat="49.82888" lon="4.78989">
        <ele>259</ele>
        <time>2020-11-13T07:50:07.000Z</time>
      </trkpt>
      <trkpt lat="49.8289" lon="4.78992">
        <ele>259</ele>
        <time>2020-11-13T07:50:08.000Z</time>
      </trkpt>
      <trkpt lat="49.82891" lon="4.78993">
        <ele>260</ele>
        <time>2020-11-13T07:50:09.000Z</time>
      </trkpt>
      <trkpt lat="49.82893" lon="4.78995">
        <ele>260</ele>
        <time>2020-11-13T07:50:10.000Z</time>
      </trkpt>
      <trkpt lat="49.82895" lon="4.78997">
        <ele>260</ele>
        <time>2020-11-13T07:50:11.000Z</time>
      </trkpt>
      <trkpt lat="49.82897" lon="4.78999">
        <ele>261</ele>
        <time>2020-11-13T07:50:12.000Z</time>
      </trkpt>
      <trkpt lat="49.82899" lon="4.79">
        <ele>261</ele>
        <time>2020-11-13T07:50:13.000Z</time>
      </trkpt>
      <trkpt lat="49.82901" lon="4.79002">
        <ele>261</ele>
        <time>2020-11-13T07:50:14.000Z</time>
      </trkpt>
      <trkpt lat="49.82903" lon="4.79005">
        <ele>262</ele>
        <time>2020-11-13T07:50:15.000Z</time>
      </trkpt>
      <trkpt lat="49.82905" lon="4.79007">
        <ele>262</ele>
        <time>2020-11-13T07:50:16.000Z</time>
      </trkpt>
      <trkpt lat="49.82907" lon="4.79009">
        <ele>262</ele>
        <time>2020-11-13T07:50:17.000Z</time>
      </trkpt>
      <trkpt lat="49.82909" lon="4.7901">
        <ele>262</ele>
        <time>2020-11-13T07:50:18.000Z</time>
      </trkpt>
      <trkpt lat="49.82911" lon="4.79011">
        <ele>262</ele>
        <time>2020-11-13T07:50:19.000Z</time>
      </trkpt>
      <trkpt lat="49.82913" lon="4.79013">
        <ele>262</ele>
        <time>2020-11-13T07:50:20.000Z</time>
      </trkpt>
      <trkpt lat="49.82915" lon="4.79015">
        <ele>263</ele>
        <time>2020-11-13T07:50:21.000Z</time>
      </trkpt>
      <trkpt lat="49.82917" lon="4.79017">
        <ele>263</ele>
        <time>2020-11-13T07:50:22.000Z</time>
      </trkpt>
      <trkpt lat="49.82919" lon="4.79019">
        <ele>263</ele>
        <time>2020-11-13T07:50:23.000Z</time>
      </trkpt>
      <trkpt lat="49.82921" lon="4.79021">
        <ele>263</ele>
        <time>2020-11-13T07:50:24.000Z</time>
      </trkpt>
      <trkpt lat="49.82923" lon="4.79023">
        <ele>263</ele>
        <time>2020-11-13T07:50:25.000Z</time>
      </trkpt>
      <trkpt lat="49.82924" lon="4.79025">
        <ele>263</ele>
        <time>2020-11-13T07:50:26.000Z</time>
      </trkpt>
      <trkpt lat="49.82926" lon="4.79027">
        <ele>263</ele>
        <time>2020-11-13T07:50:27.000Z</time>
      </trkpt>
      <trkpt lat="49.82928" lon="4.79029">
        <ele>263</ele>
        <time>2020-11-13T07:50:28.000Z</time>
      </trkpt>
      <trkpt lat="49.8293" lon="4.79031">
        <ele>263</ele>
        <time>2020-11-13T07:50:29.000Z</time>
      </trkpt>
      <trkpt lat="49.82933" lon="4.79033">
        <ele>263</ele>
        <time>2020-11-13T07:50:30.000Z</time>
      </trkpt>
      <trkpt lat="49.82934" lon="4.79035">
        <ele>264</ele>
        <time>2020-11-13T07:50:31.000Z</time>
      </trkpt>
      <trkpt lat="49.82937" lon="4.79036">
        <ele>264</ele>
        <time>2020-11-13T07:50:32.000Z</time>
      </trkpt>
      <trkpt lat="49.82939" lon="4.79038">
        <ele>264</ele>
        <time>2020-11-13T07:50:33.000Z</time>
      </trkpt>
      <trkpt lat="49.8294" lon="4.7904">
        <ele>264</ele>
        <time>2020-11-13T07:50:34.000Z</time>
      </trkpt>
      <trkpt lat="49.82942" lon="4.79042">
        <ele>264</ele>
        <time>2020-11-13T07:50:35.000Z</time>
      </trkpt>
      <trkpt lat="49.82944" lon="4.79045">
        <ele>265</ele>
        <time>2020-11-13T07:50:36.000Z</time>
      </trkpt>
      <trkpt lat="49.82946" lon="4.79047">
        <ele>265</ele>
        <time>2020-11-13T07:50:37.000Z</time>
      </trkpt>
      <trkpt lat="49.82948" lon="4.79049">
        <ele>265</ele>
        <time>2020-11-13T07:50:38.000Z</time>
      </trkpt>
      <trkpt lat="49.82949" lon="4.7905">
        <ele>265</ele>
        <time>2020-11-13T07:50:39.000Z</time>
      </trkpt>
      <trkpt lat="49.82951" lon="4.79052">
        <ele>265</ele>
        <time>2020-11-13T07:50:40.000Z</time>
      </trkpt>
      <trkpt lat="49.82953" lon="4.79054">
        <ele>265</ele>
        <time>2020-11-13T07:50:41.000Z</time>
      </trkpt>
      <trkpt lat="49.82954" lon="4.79055">
        <ele>265</ele>
        <time>2020-11-13T07:50:42.000Z</time>
      </trkpt>
      <trkpt lat="49.82956" lon="4.79057">
        <ele>265</ele>
        <time>2020-11-13T07:50:43.000Z</time>
      </trkpt>
      <trkpt lat="49.82958" lon="4.79058">
        <ele>265</ele>
        <time>2020-11-13T07:50:44.000Z</time>
      </trkpt>
      <trkpt lat="49.82959" lon="4.7906">
        <ele>266</ele>
        <time>2020-11-13T07:50:45.000Z</time>
      </trkpt>
      <trkpt lat="49.82961" lon="4.79062">
        <ele>266</ele>
        <time>2020-11-13T07:50:46.000Z</time>
      </trkpt>
      <trkpt lat="49.82962" lon="4.79064">
        <ele>266</ele>
        <time>2020-11-13T07:50:47.000Z</time>
      </trkpt>
      <trkpt lat="49.82964" lon="4.79065">
        <ele>266</ele>
        <time>2020-11-13T07:50:48.000Z</time>
      </trkpt>
      <trkpt lat="49.82966" lon="4.79067">
        <ele>266</ele>
        <time>2020-11-13T07:50:49.000Z</time>
      </trkpt>
      <trkpt lat="49.82968" lon="4.79069">
        <ele>266</ele>
        <time>2020-11-13T07:50:50.000Z</time>
      </trkpt>
      <trkpt lat="49.8297" lon="4.7907">
        <ele>267</ele>
        <time>2020-11-13T07:50:51.000Z</time>
      </trkpt>
      <trkpt lat="49.82972" lon="4.79073">
        <ele>267</ele>
        <time>2020-11-13T07:50:52.000Z</time>
      </trkpt>
      <trkpt lat="49.82973" lon="4.79075">
        <ele>267</ele>
        <time>2020-11-13T07:50:53.000Z</time>
      </trkpt>
      <trkpt lat="49.82975" lon="4.79077">
        <ele>267</ele>
        <time>2020-11-13T07:50:54.000Z</time>
      </trkpt>
      <trkpt lat="49.82977" lon="4.79079">
        <ele>267</ele>
        <time>2020-11-13T07:50:55.000Z</time>
      </trkpt>
      <trkpt lat="49.82979" lon="4.79081">
        <ele>267</ele>
        <time>2020-11-13T07:50:56.000Z</time>
      </trkpt>
      <trkpt lat="49.82981" lon="4.79083">
        <ele>267</ele>
        <time>2020-11-13T07:50:57.000Z</time>
      </trkpt>
      <trkpt lat="49.82983" lon="4.79085">
        <ele>267</ele>
        <time>2020-11-13T07:50:58.000Z</time>
      </trkpt>
      <trkpt lat="49.82985" lon="4.79087">
        <ele>267</ele>
        <time>2020-11-13T07:50:59.000Z</time>
      </trkpt>
      <trkpt lat="49.82987" lon="4.79089">
        <ele>267</ele>
        <time>2020-11-13T07:51:00.000Z</time>
      </trkpt>
      <trkpt lat="49.82988" lon="4.79091">
        <ele>268</ele>
        <time>2020-11-13T07:51:01.000Z</time>
      </trkpt>
      <trkpt lat="49.8299" lon="4.79093">
        <ele>268</ele>
        <time>2020-11-13T07:51:02.000Z</time>
      </trkpt>
      <trkpt lat="49.82992" lon="4.79095">
        <ele>268</ele>
        <time>2020-11-13T07:51:03.000Z</time>
      </trkpt>
      <trkpt lat="49.82994" lon="4.79096">
        <ele>268</ele>
        <time>2020-11-13T07:51:04.000Z</time>
      </trkpt>
      <trkpt lat="49.82995" lon="4.79098">
        <ele>268</ele>
        <time>2020-11-13T07:51:05.000Z</time>
      </trkpt>
      <trkpt lat="49.82997" lon="4.791">
        <ele>268</ele>
        <time>2020-11-13T07:51:06.000Z</time>
      </trkpt>
      <trkpt lat="49.82999" lon="4.79102">
        <ele>269</ele>
        <time>2020-11-13T07:51:07.000Z</time>
      </trkpt>
      <trkpt lat="49.83001" lon="4.79104">
        <ele>269</ele>
        <time>2020-11-13T07:51:08.000Z</time>
      </trkpt>
      <trkpt lat="49.83002" lon="4.79105">
        <ele>269</ele>
        <time>2020-11-13T07:51:09.000Z</time>
      </trkpt>
      <trkpt lat="49.83005" lon="4.79106">
        <ele>270</ele>
        <time>2020-11-13T07:51:10.000Z</time>
      </trkpt>
      <trkpt lat="49.83007" lon="4.79106">
        <ele>270</ele>
        <time>2020-11-13T07:51:11.000Z</time>
      </trkpt>
      <trkpt lat="49.83009" lon="4.79107">
        <ele>270</ele>
        <time>2020-11-13T07:51:12.000Z</time>
      </trkpt>
      <trkpt lat="49.83011" lon="4.79107">
        <ele>270</ele>
        <time>2020-11-13T07:51:13.000Z</time>
      </trkpt>
      <trkpt lat="49.83013" lon="4.79107">
        <ele>271</ele>
        <time>2020-11-13T07:51:14.000Z</time>
      </trkpt>
      <trkpt lat="49.83016" lon="4.79108">
        <ele>271</ele>
        <time>2020-11-13T07:51:15.000Z</time>
      </trkpt>
      <trkpt lat="49.83018" lon="4.79108">
        <ele>271</ele>
        <time>2020-11-13T07:51:16.000Z</time>
      </trkpt>
      <trkpt lat="49.8302" lon="4.79109">
        <ele>272</ele>
        <time>2020-11-13T07:51:17.000Z</time>
      </trkpt>
      <trkpt lat="49.83023" lon="4.7911">
        <ele>272</ele>
        <time>2020-11-13T07:51:18.000Z</time>
      </trkpt>
      <trkpt lat="49.83026" lon="4.79111">
        <ele>272</ele>
        <time>2020-11-13T07:51:19.000Z</time>
      </trkpt>
      <trkpt lat="49.83028" lon="4.79113">
        <ele>273</ele>
        <time>2020-11-13T07:51:20.000Z</time>
      </trkpt>
      <trkpt lat="49.83031" lon="4.79115">
        <ele>273</ele>
        <time>2020-11-13T07:51:21.000Z</time>
      </trkpt>
      <trkpt lat="49.83033" lon="4.79117">
        <ele>273</ele>
        <time>2020-11-13T07:51:22.000Z</time>
      </trkpt>
      <trkpt lat="49.83035" lon="4.79119">
        <ele>273</ele>
        <time>2020-11-13T07:51:23.000Z</time>
      </trkpt>
      <trkpt lat="49.83037" lon="4.79121">
        <ele>274</ele>
        <time>2020-11-13T07:51:24.000Z</time>
      </trkpt>
      <trkpt lat="49.8304" lon="4.79124">
        <ele>274</ele>
        <time>2020-11-13T07:51:25.000Z</time>
      </trkpt>
      <trkpt lat="49.83042" lon="4.79127">
        <ele>274</ele>
        <time>2020-11-13T07:51:26.000Z</time>
      </trkpt>
      <trkpt lat="49.83043" lon="4.79129">
        <ele>275</ele>
        <time>2020-11-13T07:51:27.000Z</time>
      </trkpt>
      <trkpt lat="49.83045" lon="4.79132">
        <ele>275</ele>
        <time>2020-11-13T07:51:28.000Z</time>
      </trkpt>
      <trkpt lat="49.83047" lon="4.79135">
        <ele>275</ele>
        <time>2020-11-13T07:51:29.000Z</time>
      </trkpt>
      <trkpt lat="49.83048" lon="4.79138">
        <ele>275</ele>
        <time>2020-11-13T07:51:30.000Z</time>
      </trkpt>
      <trkpt lat="49.8305" lon="4.79142">
        <ele>276</ele>
        <time>2020-11-13T07:51:31.000Z</time>
      </trkpt>
      <trkpt lat="49.83052" lon="4.79146">
        <ele>276</ele>
        <time>2020-11-13T07:51:32.000Z</time>
      </trkpt>
      <trkpt lat="49.83053" lon="4.79149">
        <ele>276</ele>
        <time>2020-11-13T07:51:33.000Z</time>
      </trkpt>
      <trkpt lat="49.83055" lon="4.79153">
        <ele>276</ele>
        <time>2020-11-13T07:51:34.000Z</time>
      </trkpt>
      <trkpt lat="49.83056" lon="4.79157">
        <ele>276</ele>
        <time>2020-11-13T07:51:35.000Z</time>
      </trkpt>
      <trkpt lat="49.83057" lon="4.79161">
        <ele>276</ele>
        <time>2020-11-13T07:51:36.000Z</time>
      </trkpt>
      <trkpt lat="49.83058" lon="4.79165">
        <ele>277</ele>
        <time>2020-11-13T07:51:37.000Z</time>
      </trkpt>
      <trkpt lat="49.8306" lon="4.79169">
        <ele>277</ele>
        <time>2020-11-13T07:51:38.000Z</time>
      </trkpt>
      <trkpt lat="49.83061" lon="4.79172">
        <ele>277</ele>
        <time>2020-11-13T07:51:39.000Z</time>
      </trkpt>
      <trkpt lat="49.83061" lon="4.79175">
        <ele>277</ele>
        <time>2020-11-13T07:51:40.000Z</time>
      </trkpt>
      <trkpt lat="49.83062" lon="4.79178">
        <ele>278</ele>
        <time>2020-11-13T07:51:41.000Z</time>
      </trkpt>
      <trkpt lat="49.83063" lon="4.7918">
        <ele>278</ele>
        <time>2020-11-13T07:51:42.000Z</time>
      </trkpt>
      <trkpt lat="49.83065" lon="4.79183">
        <ele>278</ele>
        <time>2020-11-13T07:51:43.000Z</time>
      </trkpt>
      <trkpt lat="49.83066" lon="4.79186">
        <ele>278</ele>
        <time>2020-11-13T07:51:44.000Z</time>
      </trkpt>
      <trkpt lat="49.83067" lon="4.79189">
        <ele>279</ele>
        <time>2020-11-13T07:51:45.000Z</time>
      </trkpt>
      <trkpt lat="49.83068" lon="4.79192">
        <ele>279</ele>
        <time>2020-11-13T07:51:46.000Z</time>
      </trkpt>
      <trkpt lat="49.8307" lon="4.79195">
        <ele>279</ele>
        <time>2020-11-13T07:51:47.000Z</time>
      </trkpt>
      <trkpt lat="49.83071" lon="4.79197">
        <ele>280</ele>
        <time>2020-11-13T07:51:48.000Z</time>
      </trkpt>
      <trkpt lat="49.83072" lon="4.792">
        <ele>280</ele>
        <time>2020-11-13T07:51:49.000Z</time>
      </trkpt>
      <trkpt lat="49.83073" lon="4.79203">
        <ele>281</ele>
        <time>2020-11-13T07:51:50.000Z</time>
      </trkpt>
      <trkpt lat="49.83074" lon="4.79205">
        <ele>281</ele>
        <time>2020-11-13T07:51:51.000Z</time>
      </trkpt>
      <trkpt lat="49.83076" lon="4.79207">
        <ele>281</ele>
        <time>2020-11-13T07:51:52.000Z</time>
      </trkpt>
      <trkpt lat="49.83077" lon="4.79209">
        <ele>282</ele>
        <time>2020-11-13T07:51:53.000Z</time>
      </trkpt>
      <trkpt lat="49.83078" lon="4.79211">
        <ele>282</ele>
        <time>2020-11-13T07:51:54.000Z</time>
      </trkpt>
      <trkpt lat="49.83079" lon="4.79212">
        <ele>283</ele>
        <time>2020-11-13T07:51:55.000Z</time>
      </trkpt>
      <trkpt lat="49.83081" lon="4.79213">
        <ele>283</ele>
        <time>2020-11-13T07:51:56.000Z</time>
      </trkpt>
      <trkpt lat="49.83082" lon="4.79215">
        <ele>283</ele>
        <time>2020-11-13T07:51:57.000Z</time>
      </trkpt>
      <trkpt lat="49.83085" lon="4.79215">
        <ele>284</ele>
        <time>2020-11-13T07:51:58.000Z</time>
      </trkpt>
      <trkpt lat="49.83087" lon="4.79216">
        <ele>284</ele>
        <time>2020-11-13T07:51:59.000Z</time>
      </trkpt>
      <trkpt lat="49.8309" lon="4.79215">
        <ele>284</ele>
        <time>2020-11-13T07:52:00.000Z</time>
      </trkpt>
      <trkpt lat="49.83093" lon="4.79215">
        <ele>284</ele>
        <time>2020-11-13T07:52:01.000Z</time>
      </trkpt>
      <trkpt lat="49.83095" lon="4.79214">
        <ele>284</ele>
        <time>2020-11-13T07:52:02.000Z</time>
      </trkpt>
      <trkpt lat="49.83098" lon="4.79214">
        <ele>284</ele>
        <time>2020-11-13T07:52:03.000Z</time>
      </trkpt>
      <trkpt lat="49.83101" lon="4.79214">
        <ele>284</ele>
        <time>2020-11-13T07:52:04.000Z</time>
      </trkpt>
      <trkpt lat="49.83103" lon="4.79213">
        <ele>285</ele>
        <time>2020-11-13T07:52:05.000Z</time>
      </trkpt>
      <trkpt lat="49.83106" lon="4.79213">
        <ele>285</ele>
        <time>2020-11-13T07:52:06.000Z</time>
      </trkpt>
      <trkpt lat="49.83109" lon="4.79213">
        <ele>285</ele>
        <time>2020-11-13T07:52:07.000Z</time>
      </trkpt>
      <trkpt lat="49.83111" lon="4.79213">
        <ele>285</ele>
        <time>2020-11-13T07:52:08.000Z</time>
      </trkpt>
      <trkpt lat="49.83114" lon="4.79214">
        <ele>285</ele>
        <time>2020-11-13T07:52:09.000Z</time>
      </trkpt>
      <trkpt lat="49.83116" lon="4.79214">
        <ele>285</ele>
        <time>2020-11-13T07:52:10.000Z</time>
      </trkpt>
      <trkpt lat="49.83119" lon="4.79214">
        <ele>285</ele>
        <time>2020-11-13T07:52:11.000Z</time>
      </trkpt>
      <trkpt lat="49.83121" lon="4.79215">
        <ele>285</ele>
        <time>2020-11-13T07:52:12.000Z</time>
      </trkpt>
      <trkpt lat="49.83123" lon="4.79215">
        <ele>285</ele>
        <time>2020-11-13T07:52:13.000Z</time>
      </trkpt>
      <trkpt lat="49.83125" lon="4.79216">
        <ele>285</ele>
        <time>2020-11-13T07:52:14.000Z</time>
      </trkpt>
      <trkpt lat="49.83127" lon="4.79217">
        <ele>285</ele>
        <time>2020-11-13T07:52:15.000Z</time>
      </trkpt>
      <trkpt lat="49.83129" lon="4.79218">
        <ele>285</ele>
        <time>2020-11-13T07:52:16.000Z</time>
      </trkpt>
      <trkpt lat="49.83131" lon="4.79218">
        <ele>285</ele>
        <time>2020-11-13T07:52:17.000Z</time>
      </trkpt>
      <trkpt lat="49.83133" lon="4.79219">
        <ele>285</ele>
        <time>2020-11-13T07:52:18.000Z</time>
      </trkpt>
      <trkpt lat="49.83135" lon="4.7922">
        <ele>285</ele>
        <time>2020-11-13T07:52:19.000Z</time>
      </trkpt>
      <trkpt lat="49.83137" lon="4.7922">
        <ele>285</ele>
        <time>2020-11-13T07:52:20.000Z</time>
      </trkpt>
      <trkpt lat="49.83139" lon="4.7922">
        <ele>285</ele>
        <time>2020-11-13T07:52:21.000Z</time>
      </trkpt>
      <trkpt lat="49.83141" lon="4.79221">
        <ele>285</ele>
        <time>2020-11-13T07:52:22.000Z</time>
      </trkpt>
      <trkpt lat="49.83143" lon="4.79221">
        <ele>285</ele>
        <time>2020-11-13T07:52:23.000Z</time>
      </trkpt>
      <trkpt lat="49.83146" lon="4.79222">
        <ele>285</ele>
        <time>2020-11-13T07:52:24.000Z</time>
      </trkpt>
      <trkpt lat="49.83148" lon="4.79222">
        <ele>285</ele>
        <time>2020-11-13T07:52:25.000Z</time>
      </trkpt>
      <trkpt lat="49.8315" lon="4.79222">
        <ele>285</ele>
        <time>2020-11-13T07:52:26.000Z</time>
      </trkpt>
      <trkpt lat="49.83152" lon="4.79222">
        <ele>286</ele>
        <time>2020-11-13T07:52:27.000Z</time>
      </trkpt>
      <trkpt lat="49.83155" lon="4.79221">
        <ele>286</ele>
        <time>2020-11-13T07:52:28.000Z</time>
      </trkpt>
      <trkpt lat="49.83157" lon="4.79221">
        <ele>286</ele>
        <time>2020-11-13T07:52:29.000Z</time>
      </trkpt>
      <trkpt lat="49.83159" lon="4.79221">
        <ele>286</ele>
        <time>2020-11-13T07:52:30.000Z</time>
      </trkpt>
      <trkpt lat="49.83162" lon="4.79221">
        <ele>286</ele>
        <time>2020-11-13T07:52:31.000Z</time>
      </trkpt>
      <trkpt lat="49.83164" lon="4.79221">
        <ele>286</ele>
        <time>2020-11-13T07:52:32.000Z</time>
      </trkpt>
      <trkpt lat="49.83166" lon="4.7922">
        <ele>286</ele>
        <time>2020-11-13T07:52:33.000Z</time>
      </trkpt>
      <trkpt lat="49.83168" lon="4.7922">
        <ele>286</ele>
        <time>2020-11-13T07:52:34.000Z</time>
      </trkpt>
      <trkpt lat="49.8317" lon="4.79219">
        <ele>286</ele>
        <time>2020-11-13T07:52:35.000Z</time>
      </trkpt>
      <trkpt lat="49.83172" lon="4.79219">
        <ele>287</ele>
        <time>2020-11-13T07:52:36.000Z</time>
      </trkpt>
      <trkpt lat="49.83174" lon="4.79218">
        <ele>287</ele>
        <time>2020-11-13T07:52:37.000Z</time>
      </trkpt>
      <trkpt lat="49.83176" lon="4.79217">
        <ele>287</ele>
        <time>2020-11-13T07:52:38.000Z</time>
      </trkpt>
      <trkpt lat="49.83178" lon="4.79215">
        <ele>287</ele>
        <time>2020-11-13T07:52:39.000Z</time>
      </trkpt>
      <trkpt lat="49.8318" lon="4.79214">
        <ele>287</ele>
        <time>2020-11-13T07:52:40.000Z</time>
      </trkpt>
      <trkpt lat="49.83182" lon="4.79212">
        <ele>287</ele>
        <time>2020-11-13T07:52:41.000Z</time>
      </trkpt>
      <trkpt lat="49.83184" lon="4.7921">
        <ele>287</ele>
        <time>2020-11-13T07:52:42.000Z</time>
      </trkpt>
      <trkpt lat="49.83186" lon="4.79207">
        <ele>287</ele>
        <time>2020-11-13T07:52:43.000Z</time>
      </trkpt>
      <trkpt lat="49.83188" lon="4.79205">
        <ele>287</ele>
        <time>2020-11-13T07:52:44.000Z</time>
      </trkpt>
      <trkpt lat="49.8319" lon="4.79202">
        <ele>287</ele>
        <time>2020-11-13T07:52:45.000Z</time>
      </trkpt>
      <trkpt lat="49.83191" lon="4.79199">
        <ele>287</ele>
        <time>2020-11-13T07:52:46.000Z</time>
      </trkpt>
      <trkpt lat="49.83192" lon="4.79196">
        <ele>287</ele>
        <time>2020-11-13T07:52:47.000Z</time>
      </trkpt>
      <trkpt lat="49.83194" lon="4.79192">
        <ele>287</ele>
        <time>2020-11-13T07:52:48.000Z</time>
      </trkpt>
      <trkpt lat="49.83195" lon="4.79189">
        <ele>287</ele>
        <time>2020-11-13T07:52:49.000Z</time>
      </trkpt>
      <trkpt lat="49.83196" lon="4.79186">
        <ele>287</ele>
        <time>2020-11-13T07:52:50.000Z</time>
      </trkpt>
      <trkpt lat="49.83197" lon="4.79183">
        <ele>287</ele>
        <time>2020-11-13T07:52:51.000Z</time>
      </trkpt>
      <trkpt lat="49.83199" lon="4.7918">
        <ele>288</ele>
        <time>2020-11-13T07:52:52.000Z</time>
      </trkpt>
      <trkpt lat="49.832" lon="4.79176">
        <ele>288</ele>
        <time>2020-11-13T07:52:53.000Z</time>
      </trkpt>
      <trkpt lat="49.83201" lon="4.79173">
        <ele>288</ele>
        <time>2020-11-13T07:52:54.000Z</time>
      </trkpt>
      <trkpt lat="49.83202" lon="4.7917">
        <ele>288</ele>
        <time>2020-11-13T07:52:55.000Z</time>
      </trkpt>
      <trkpt lat="49.83203" lon="4.79166">
        <ele>288</ele>
        <time>2020-11-13T07:52:56.000Z</time>
      </trkpt>
      <trkpt lat="49.83204" lon="4.79163">
        <ele>288</ele>
        <time>2020-11-13T07:52:57.000Z</time>
      </trkpt>
      <trkpt lat="49.83205" lon="4.79159">
        <ele>289</ele>
        <time>2020-11-13T07:52:58.000Z</time>
      </trkpt>
      <trkpt lat="49.83206" lon="4.79156">
        <ele>289</ele>
        <time>2020-11-13T07:52:59.000Z</time>
      </trkpt>
      <trkpt lat="49.83207" lon="4.79153">
        <ele>289</ele>
        <time>2020-11-13T07:53:00.000Z</time>
      </trkpt>
      <trkpt lat="49.83208" lon="4.7915">
        <ele>289</ele>
        <time>2020-11-13T07:53:01.000Z</time>
      </trkpt>
      <trkpt lat="49.83209" lon="4.79146">
        <ele>289</ele>
        <time>2020-11-13T07:53:02.000Z</time>
      </trkpt>
      <trkpt lat="49.8321" lon="4.79143">
        <ele>290</ele>
        <time>2020-11-13T07:53:03.000Z</time>
      </trkpt>
      <trkpt lat="49.83211" lon="4.79139">
        <ele>290</ele>
        <time>2020-11-13T07:53:04.000Z</time>
      </trkpt>
      <trkpt lat="49.83212" lon="4.79136">
        <ele>290</ele>
        <time>2020-11-13T07:53:05.000Z</time>
      </trkpt>
      <trkpt lat="49.83213" lon="4.79132">
        <ele>291</ele>
        <time>2020-11-13T07:53:06.000Z</time>
      </trkpt>
      <trkpt lat="49.83215" lon="4.79129">
        <ele>291</ele>
        <time>2020-11-13T07:53:07.000Z</time>
      </trkpt>
      <trkpt lat="49.83216" lon="4.79125">
        <ele>291</ele>
        <time>2020-11-13T07:53:08.000Z</time>
      </trkpt>
      <trkpt lat="49.83218" lon="4.79122">
        <ele>291</ele>
        <time>2020-11-13T07:53:09.000Z</time>
      </trkpt>
      <trkpt lat="49.83219" lon="4.79119">
        <ele>292</ele>
        <time>2020-11-13T07:53:10.000Z</time>
      </trkpt>
      <trkpt lat="49.8322" lon="4.79116">
        <ele>292</ele>
        <time>2020-11-13T07:53:11.000Z</time>
      </trkpt>
      <trkpt lat="49.83222" lon="4.79112">
        <ele>292</ele>
        <time>2020-11-13T07:53:12.000Z</time>
      </trkpt>
      <trkpt lat="49.83224" lon="4.79109">
        <ele>292</ele>
        <time>2020-11-13T07:53:13.000Z</time>
      </trkpt>
      <trkpt lat="49.83225" lon="4.79106">
        <ele>293</ele>
        <time>2020-11-13T07:53:14.000Z</time>
      </trkpt>
      <trkpt lat="49.83227" lon="4.79103">
        <ele>293</ele>
        <time>2020-11-13T07:53:15.000Z</time>
      </trkpt>
      <trkpt lat="49.83228" lon="4.791">
        <ele>293</ele>
        <time>2020-11-13T07:53:16.000Z</time>
      </trkpt>
      <trkpt lat="49.8323" lon="4.79098">
        <ele>293</ele>
        <time>2020-11-13T07:53:17.000Z</time>
      </trkpt>
      <trkpt lat="49.83232" lon="4.79096">
        <ele>294</ele>
        <time>2020-11-13T07:53:18.000Z</time>
      </trkpt>
      <trkpt lat="49.83233" lon="4.79093">
        <ele>294</ele>
        <time>2020-11-13T07:53:19.000Z</time>
      </trkpt>
      <trkpt lat="49.83236" lon="4.79091">
        <ele>294</ele>
        <time>2020-11-13T07:53:20.000Z</time>
      </trkpt>
      <trkpt lat="49.83238" lon="4.79088">
        <ele>295</ele>
        <time>2020-11-13T07:53:21.000Z</time>
      </trkpt>
      <trkpt lat="49.8324" lon="4.79086">
        <ele>295</ele>
        <time>2020-11-13T07:53:22.000Z</time>
      </trkpt>
      <trkpt lat="49.83243" lon="4.79085">
        <ele>295</ele>
        <time>2020-11-13T07:53:23.000Z</time>
      </trkpt>
      <trkpt lat="49.83246" lon="4.79083">
        <ele>295</ele>
        <time>2020-11-13T07:53:24.000Z</time>
      </trkpt>
      <trkpt lat="49.83249" lon="4.79082">
        <ele>296</ele>
        <time>2020-11-13T07:53:25.000Z</time>
      </trkpt>
      <trkpt lat="49.83252" lon="4.79082">
        <ele>296</ele>
        <time>2020-11-13T07:53:26.000Z</time>
      </trkpt>
      <trkpt lat="49.83255" lon="4.79083">
        <ele>296</ele>
        <time>2020-11-13T07:53:27.000Z</time>
      </trkpt>
      <trkpt lat="49.83258" lon="4.79083">
        <ele>296</ele>
        <time>2020-11-13T07:53:28.000Z</time>
      </trkpt>
      <trkpt lat="49.83261" lon="4.79084">
        <ele>296</ele>
        <time>2020-11-13T07:53:29.000Z</time>
      </trkpt>
      <trkpt lat="49.83265" lon="4.79085">
        <ele>296</ele>
        <time>2020-11-13T07:53:30.000Z</time>
      </trkpt>
      <trkpt lat="49.83269" lon="4.79086">
        <ele>296</ele>
        <time>2020-11-13T07:53:31.000Z</time>
      </trkpt>
      <trkpt lat="49.83274" lon="4.79087">
        <ele>296</ele>
        <time>2020-11-13T07:53:32.000Z</time>
      </trkpt>
      <trkpt lat="49.83279" lon="4.79087">
        <ele>296</ele>
        <time>2020-11-13T07:53:33.000Z</time>
      </trkpt>
      <trkpt lat="49.83284" lon="4.79086">
        <ele>296</ele>
        <time>2020-11-13T07:53:34.000Z</time>
      </trkpt>
      <trkpt lat="49.83289" lon="4.79084">
        <ele>296</ele>
        <time>2020-11-13T07:53:35.000Z</time>
      </trkpt>
      <trkpt lat="49.83294" lon="4.79082">
        <ele>295</ele>
        <time>2020-11-13T07:53:36.000Z</time>
      </trkpt>
      <trkpt lat="49.83299" lon="4.79079">
        <ele>295</ele>
        <time>2020-11-13T07:53:37.000Z</time>
      </trkpt>
      <trkpt lat="49.83305" lon="4.79075">
        <ele>295</ele>
        <time>2020-11-13T07:53:38.000Z</time>
      </trkpt>
      <trkpt lat="49.83311" lon="4.7907">
        <ele>295</ele>
        <time>2020-11-13T07:53:39.000Z</time>
      </trkpt>
      <trkpt lat="49.83316" lon="4.79064">
        <ele>294</ele>
        <time>2020-11-13T07:53:40.000Z</time>
      </trkpt>
      <trkpt lat="49.83322" lon="4.79057">
        <ele>294</ele>
        <time>2020-11-13T07:53:41.000Z</time>
      </trkpt>
      <trkpt lat="49.83327" lon="4.79049">
        <ele>293</ele>
        <time>2020-11-13T07:53:42.000Z</time>
      </trkpt>
      <trkpt lat="49.83331" lon="4.79041">
        <ele>293</ele>
        <time>2020-11-13T07:53:43.000Z</time>
      </trkpt>
      <trkpt lat="49.83336" lon="4.79033">
        <ele>293</ele>
        <time>2020-11-13T07:53:44.000Z</time>
      </trkpt>
      <trkpt lat="49.8334" lon="4.79025">
        <ele>293</ele>
        <time>2020-11-13T07:53:45.000Z</time>
      </trkpt>
      <trkpt lat="49.83343" lon="4.79016">
        <ele>293</ele>
        <time>2020-11-13T07:53:46.000Z</time>
      </trkpt>
      <trkpt lat="49.83347" lon="4.79007">
        <ele>292</ele>
        <time>2020-11-13T07:53:47.000Z</time>
      </trkpt>
      <trkpt lat="49.83351" lon="4.78999">
        <ele>292</ele>
        <time>2020-11-13T07:53:48.000Z</time>
      </trkpt>
      <trkpt lat="49.83355" lon="4.78991">
        <ele>292</ele>
        <time>2020-11-13T07:53:49.000Z</time>
      </trkpt>
      <trkpt lat="49.83358" lon="4.78982">
        <ele>292</ele>
        <time>2020-11-13T07:53:50.000Z</time>
      </trkpt>
      <trkpt lat="49.83361" lon="4.78974">
        <ele>292</ele>
        <time>2020-11-13T07:53:51.000Z</time>
      </trkpt>
      <trkpt lat="49.83365" lon="4.78965">
        <ele>292</ele>
        <time>2020-11-13T07:53:52.000Z</time>
      </trkpt>
      <trkpt lat="49.83368" lon="4.78957">
        <ele>292</ele>
        <time>2020-11-13T07:53:53.000Z</time>
      </trkpt>
      <trkpt lat="49.83371" lon="4.7895">
        <ele>292</ele>
        <time>2020-11-13T07:53:54.000Z</time>
      </trkpt>
      <trkpt lat="49.83375" lon="4.78943">
        <ele>292</ele>
        <time>2020-11-13T07:53:55.000Z</time>
      </trkpt>
      <trkpt lat="49.83379" lon="4.78937">
        <ele>292</ele>
        <time>2020-11-13T07:53:56.000Z</time>
      </trkpt>
      <trkpt lat="49.83383" lon="4.78931">
        <ele>292</ele>
        <time>2020-11-13T07:53:57.000Z</time>
      </trkpt>
      <trkpt lat="49.83386" lon="4.78925">
        <ele>292</ele>
        <time>2020-11-13T07:53:58.000Z</time>
      </trkpt>
      <trkpt lat="49.8339" lon="4.7892">
        <ele>292</ele>
        <time>2020-11-13T07:53:59.000Z</time>
      </trkpt>
      <trkpt lat="49.83394" lon="4.78916">
        <ele>292</ele>
        <time>2020-11-13T07:54:00.000Z</time>
      </trkpt>
      <trkpt lat="49.83398" lon="4.78912">
        <ele>292</ele>
        <time>2020-11-13T07:54:01.000Z</time>
      </trkpt>
      <trkpt lat="49.83401" lon="4.78909">
        <ele>292</ele>
        <time>2020-11-13T07:54:02.000Z</time>
      </trkpt>
      <trkpt lat="49.83404" lon="4.78906">
        <ele>292</ele>
        <time>2020-11-13T07:54:03.000Z</time>
      </trkpt>
      <trkpt lat="49.83406" lon="4.78904">
        <ele>292</ele>
        <time>2020-11-13T07:54:04.000Z</time>
      </trkpt>
      <trkpt lat="49.83409" lon="4.78903">
        <ele>292</ele>
        <time>2020-11-13T07:54:05.000Z</time>
      </trkpt>
      <trkpt lat="49.83411" lon="4.78902">
        <ele>293</ele>
        <time>2020-11-13T07:54:06.000Z</time>
      </trkpt>
      <trkpt lat="49.83413" lon="4.78902">
        <ele>293</ele>
        <time>2020-11-13T07:54:07.000Z</time>
      </trkpt>
      <trkpt lat="49.83415" lon="4.78901">
        <ele>293</ele>
        <time>2020-11-13T07:54:08.000Z</time>
      </trkpt>
      <trkpt lat="49.83417" lon="4.789">
        <ele>293</ele>
        <time>2020-11-13T07:54:09.000Z</time>
      </trkpt>
      <trkpt lat="49.8342" lon="4.78899">
        <ele>293</ele>
        <time>2020-11-13T07:54:10.000Z</time>
      </trkpt>
      <trkpt lat="49.83423" lon="4.78898">
        <ele>293</ele>
        <time>2020-11-13T07:54:11.000Z</time>
      </trkpt>
      <trkpt lat="49.83426" lon="4.78897">
        <ele>294</ele>
        <time>2020-11-13T07:54:12.000Z</time>
      </trkpt>
      <trkpt lat="49.83428" lon="4.78895">
        <ele>294</ele>
        <time>2020-11-13T07:54:13.000Z</time>
      </trkpt>
      <trkpt lat="49.83432" lon="4.78894">
        <ele>294</ele>
        <time>2020-11-13T07:54:14.000Z</time>
      </trkpt>
      <trkpt lat="49.83436" lon="4.78893">
        <ele>295</ele>
        <time>2020-11-13T07:54:15.000Z</time>
      </trkpt>
      <trkpt lat="49.8344" lon="4.78892">
        <ele>295</ele>
        <time>2020-11-13T07:54:16.000Z</time>
      </trkpt>
      <trkpt lat="49.83444" lon="4.78892">
        <ele>295</ele>
        <time>2020-11-13T07:54:17.000Z</time>
      </trkpt>
      <trkpt lat="49.83447" lon="4.7889">
        <ele>296</ele>
        <time>2020-11-13T07:54:18.000Z</time>
      </trkpt>
      <trkpt lat="49.83451" lon="4.78888">
        <ele>296</ele>
        <time>2020-11-13T07:54:19.000Z</time>
      </trkpt>
      <trkpt lat="49.83454" lon="4.78888">
        <ele>296</ele>
        <time>2020-11-13T07:54:20.000Z</time>
      </trkpt>
      <trkpt lat="49.83457" lon="4.78889">
        <ele>296</ele>
        <time>2020-11-13T07:54:21.000Z</time>
      </trkpt>
      <trkpt lat="49.83459" lon="4.78888">
        <ele>296</ele>
        <time>2020-11-13T07:54:22.000Z</time>
      </trkpt>
      <trkpt lat="49.83462" lon="4.78885">
        <ele>296</ele>
        <time>2020-11-13T07:54:23.000Z</time>
      </trkpt>
      <trkpt lat="49.83463" lon="4.78882">
        <ele>297</ele>
        <time>2020-11-13T07:54:24.000Z</time>
      </trkpt>
      <trkpt lat="49.83465" lon="4.78878">
        <ele>297</ele>
        <time>2020-11-13T07:54:25.000Z</time>
      </trkpt>
      <trkpt lat="49.83467" lon="4.78873">
        <ele>297</ele>
        <time>2020-11-13T07:54:26.000Z</time>
      </trkpt>
      <trkpt lat="49.8347" lon="4.78869">
        <ele>297</ele>
        <time>2020-11-13T07:54:27.000Z</time>
      </trkpt>
      <trkpt lat="49.83472" lon="4.78864">
        <ele>297</ele>
        <time>2020-11-13T07:54:28.000Z</time>
      </trkpt>
      <trkpt lat="49.83474" lon="4.7886">
        <ele>298</ele>
        <time>2020-11-13T07:54:29.000Z</time>
      </trkpt>
      <trkpt lat="49.83474" lon="4.78854">
        <ele>298</ele>
        <time>2020-11-13T07:54:30.000Z</time>
      </trkpt>
      <trkpt lat="49.83474" lon="4.78849">
        <ele>298</ele>
        <time>2020-11-13T07:54:31.000Z</time>
      </trkpt>
      <trkpt lat="49.83474" lon="4.78843">
        <ele>298</ele>
        <time>2020-11-13T07:54:32.000Z</time>
      </trkpt>
      <trkpt lat="49.83473" lon="4.78838">
        <ele>298</ele>
        <time>2020-11-13T07:54:33.000Z</time>
      </trkpt>
      <trkpt lat="49.83474" lon="4.78832">
        <ele>298</ele>
        <time>2020-11-13T07:54:34.000Z</time>
      </trkpt>
      <trkpt lat="49.83474" lon="4.78826">
        <ele>298</ele>
        <time>2020-11-13T07:54:35.000Z</time>
      </trkpt>
      <trkpt lat="49.83476" lon="4.78821">
        <ele>298</ele>
        <time>2020-11-13T07:54:36.000Z</time>
      </trkpt>
      <trkpt lat="49.83478" lon="4.78818">
        <ele>298</ele>
        <time>2020-11-13T07:54:37.000Z</time>
      </trkpt>
      <trkpt lat="49.83482" lon="4.78816">
        <ele>298</ele>
        <time>2020-11-13T07:54:38.000Z</time>
      </trkpt>
      <trkpt lat="49.83486" lon="4.78812">
        <ele>299</ele>
        <time>2020-11-13T07:54:39.000Z</time>
      </trkpt>
      <trkpt lat="49.8349" lon="4.78809">
        <ele>299</ele>
        <time>2020-11-13T07:54:40.000Z</time>
      </trkpt>
      <trkpt lat="49.83494" lon="4.78805">
        <ele>299</ele>
        <time>2020-11-13T07:54:41.000Z</time>
      </trkpt>
      <trkpt lat="49.83498" lon="4.78801">
        <ele>299</ele>
        <time>2020-11-13T07:54:42.000Z</time>
      </trkpt>
      <trkpt lat="49.83501" lon="4.78795">
        <ele>299</ele>
        <time>2020-11-13T07:54:43.000Z</time>
      </trkpt>
      <trkpt lat="49.83503" lon="4.78788">
        <ele>299</ele>
        <time>2020-11-13T07:54:44.000Z</time>
      </trkpt>
      <trkpt lat="49.83504" lon="4.78781">
        <ele>299</ele>
        <time>2020-11-13T07:54:45.000Z</time>
      </trkpt>
      <trkpt lat="49.83505" lon="4.78774">
        <ele>299</ele>
        <time>2020-11-13T07:54:46.000Z</time>
      </trkpt>
      <trkpt lat="49.83504" lon="4.78767">
        <ele>299</ele>
        <time>2020-11-13T07:54:47.000Z</time>
      </trkpt>
      <trkpt lat="49.83504" lon="4.78762">
        <ele>298</ele>
        <time>2020-11-13T07:54:48.000Z</time>
      </trkpt>
      <trkpt lat="49.83503" lon="4.78758">
        <ele>298</ele>
        <time>2020-11-13T07:54:49.000Z</time>
      </trkpt>
      <trkpt lat="49.83503" lon="4.78755">
        <ele>298</ele>
        <time>2020-11-13T07:54:50.000Z</time>
      </trkpt>
      <trkpt lat="49.83503" lon="4.78753">
        <ele>298</ele>
        <time>2020-11-13T07:54:51.000Z</time>
      </trkpt>
      <trkpt lat="49.83503" lon="4.78752">
        <ele>298</ele>
        <time>2020-11-13T07:54:52.000Z</time>
      </trkpt>
      <trkpt lat="49.83503" lon="4.78751">
        <ele>298</ele>
        <time>2020-11-13T07:54:53.000Z</time>
      </trkpt>
      <trkpt lat="49.83503" lon="4.7875">
        <ele>298</ele>
        <time>2020-11-13T07:54:54.000Z</time>
      </trkpt>
      <trkpt lat="49.83503" lon="4.78749">
        <ele>298</ele>
        <time>2020-11-13T07:54:55.000Z</time>
      </trkpt>
      <trkpt lat="49.83502" lon="4.78748">
        <ele>298</ele>
        <time>2020-11-13T07:54:56.000Z</time>
      </trkpt>
      <trkpt lat="49.83502" lon="4.78747">
        <ele>298</ele>
        <time>2020-11-13T07:54:57.000Z</time>
      </trkpt>
      <trkpt lat="49.83502" lon="4.78746">
        <ele>297</ele>
        <time>2020-11-13T07:54:58.000Z</time>
      </trkpt>
      <trkpt lat="49.83502" lon="4.78744">
        <ele>297</ele>
        <time>2020-11-13T07:54:59.000Z</time>
      </trkpt>
      <trkpt lat="49.83502" lon="4.78741">
        <ele>297</ele>
        <time>2020-11-13T07:55:00.000Z</time>
      </trkpt>
      <trkpt lat="49.83502" lon="4.78739">
        <ele>297</ele>
        <time>2020-11-13T07:55:01.000Z</time>
      </trkpt>
      <trkpt lat="49.83501" lon="4.78735">
        <ele>297</ele>
        <time>2020-11-13T07:55:02.000Z</time>
      </trkpt>
      <trkpt lat="49.835" lon="4.78732">
        <ele>297</ele>
        <time>2020-11-13T07:55:03.000Z</time>
      </trkpt>
      <trkpt lat="49.83499" lon="4.78728">
        <ele>296</ele>
        <time>2020-11-13T07:55:04.000Z</time>
      </trkpt>
      <trkpt lat="49.83499" lon="4.78724">
        <ele>296</ele>
        <time>2020-11-13T07:55:05.000Z</time>
      </trkpt>
      <trkpt lat="49.83498" lon="4.78721">
        <ele>296</ele>
        <time>2020-11-13T07:55:06.000Z</time>
      </trkpt>
      <trkpt lat="49.83497" lon="4.78718">
        <ele>296</ele>
        <time>2020-11-13T07:55:07.000Z</time>
      </trkpt>
      <trkpt lat="49.83497" lon="4.78714">
        <ele>296</ele>
        <time>2020-11-13T07:55:08.000Z</time>
      </trkpt>
      <trkpt lat="49.83497" lon="4.78712">
        <ele>296</ele>
        <time>2020-11-13T07:55:09.000Z</time>
      </trkpt>
      <trkpt lat="49.83497" lon="4.78708">
        <ele>296</ele>
        <time>2020-11-13T07:55:10.000Z</time>
      </trkpt>
      <trkpt lat="49.83497" lon="4.78704">
        <ele>295</ele>
        <time>2020-11-13T07:55:11.000Z</time>
      </trkpt>
      <trkpt lat="49.83498" lon="4.787">
        <ele>295</ele>
        <time>2020-11-13T07:55:12.000Z</time>
      </trkpt>
      <trkpt lat="49.83498" lon="4.78695">
        <ele>295</ele>
        <time>2020-11-13T07:55:13.000Z</time>
      </trkpt>
      <trkpt lat="49.83498" lon="4.7869">
        <ele>295</ele>
        <time>2020-11-13T07:55:14.000Z</time>
      </trkpt>
      <trkpt lat="49.83497" lon="4.78686">
        <ele>295</ele>
        <time>2020-11-13T07:55:15.000Z</time>
      </trkpt>
      <trkpt lat="49.83497" lon="4.78682">
        <ele>295</ele>
        <time>2020-11-13T07:55:16.000Z</time>
      </trkpt>
      <trkpt lat="49.83497" lon="4.78677">
        <ele>295</ele>
        <time>2020-11-13T07:55:17.000Z</time>
      </trkpt>
      <trkpt lat="49.83497" lon="4.78673">
        <ele>295</ele>
        <time>2020-11-13T07:55:18.000Z</time>
      </trkpt>
      <trkpt lat="49.83497" lon="4.78668">
        <ele>295</ele>
        <time>2020-11-13T07:55:19.000Z</time>
      </trkpt>
      <trkpt lat="49.83497" lon="4.78663">
        <ele>295</ele>
        <time>2020-11-13T07:55:20.000Z</time>
      </trkpt>
      <trkpt lat="49.83496" lon="4.78658">
        <ele>295</ele>
        <time>2020-11-13T07:55:21.000Z</time>
      </trkpt>
      <trkpt lat="49.83496" lon="4.78653">
        <ele>295</ele>
        <time>2020-11-13T07:55:22.000Z</time>
      </trkpt>
      <trkpt lat="49.83495" lon="4.78648">
        <ele>295</ele>
        <time>2020-11-13T07:55:23.000Z</time>
      </trkpt>
      <trkpt lat="49.83495" lon="4.78643">
        <ele>295</ele>
        <time>2020-11-13T07:55:24.000Z</time>
      </trkpt>
      <trkpt lat="49.83495" lon="4.78638">
        <ele>295</ele>
        <time>2020-11-13T07:55:25.000Z</time>
      </trkpt>
      <trkpt lat="49.83494" lon="4.78633">
        <ele>295</ele>
        <time>2020-11-13T07:55:26.000Z</time>
      </trkpt>
      <trkpt lat="49.83494" lon="4.78628">
        <ele>295</ele>
        <time>2020-11-13T07:55:27.000Z</time>
      </trkpt>
      <trkpt lat="49.83493" lon="4.78624">
        <ele>295</ele>
        <time>2020-11-13T07:55:28.000Z</time>
      </trkpt>
      <trkpt lat="49.83493" lon="4.78618">
        <ele>295</ele>
        <time>2020-11-13T07:55:29.000Z</time>
      </trkpt>
      <trkpt lat="49.83492" lon="4.78613">
        <ele>294</ele>
        <time>2020-11-13T07:55:30.000Z</time>
      </trkpt>
      <trkpt lat="49.83492" lon="4.78608">
        <ele>294</ele>
        <time>2020-11-13T07:55:31.000Z</time>
      </trkpt>
      <trkpt lat="49.83491" lon="4.78603">
        <ele>294</ele>
        <time>2020-11-13T07:55:32.000Z</time>
      </trkpt>
      <trkpt lat="49.8349" lon="4.78597">
        <ele>294</ele>
        <time>2020-11-13T07:55:33.000Z</time>
      </trkpt>
      <trkpt lat="49.83489" lon="4.78592">
        <ele>294</ele>
        <time>2020-11-13T07:55:34.000Z</time>
      </trkpt>
      <trkpt lat="49.83488" lon="4.78588">
        <ele>294</ele>
        <time>2020-11-13T07:55:35.000Z</time>
      </trkpt>
      <trkpt lat="49.83487" lon="4.78583">
        <ele>294</ele>
        <time>2020-11-13T07:55:36.000Z</time>
      </trkpt>
      <trkpt lat="49.83486" lon="4.78579">
        <ele>294</ele>
        <time>2020-11-13T07:55:37.000Z</time>
      </trkpt>
      <trkpt lat="49.83485" lon="4.78576">
        <ele>294</ele>
        <time>2020-11-13T07:55:38.000Z</time>
      </trkpt>
      <trkpt lat="49.83483" lon="4.78573">
        <ele>294</ele>
        <time>2020-11-13T07:55:39.000Z</time>
      </trkpt>
      <trkpt lat="49.83482" lon="4.7857">
        <ele>294</ele>
        <time>2020-11-13T07:55:40.000Z</time>
      </trkpt>
      <trkpt lat="49.83481" lon="4.7857">
        <ele>293</ele>
        <time>2020-11-13T07:55:41.000Z</time>
      </trkpt>
      <trkpt lat="49.83481" lon="4.7857">
        <ele>293</ele>
        <time>2020-11-13T07:55:42.000Z</time>
      </trkpt>
      <trkpt lat="49.83481" lon="4.7857">
        <ele>293</ele>
        <time>2020-11-13T07:55:43.000Z</time>
      </trkpt>
      <trkpt lat="49.83482" lon="4.7857">
        <ele>293</ele>
        <time>2020-11-13T07:55:44.000Z</time>
      </trkpt>
      <trkpt lat="49.83483" lon="4.7857">
        <ele>293</ele>
        <time>2020-11-13T07:55:45.000Z</time>
      </trkpt>
      <trkpt lat="49.83484" lon="4.78569">
        <ele>293</ele>
        <time>2020-11-13T07:55:46.000Z</time>
      </trkpt>
      <trkpt lat="49.83486" lon="4.78568">
        <ele>292</ele>
        <time>2020-11-13T07:55:47.000Z</time>
      </trkpt>
      <trkpt lat="49.83487" lon="4.78567">
        <ele>292</ele>
        <time>2020-11-13T07:55:48.000Z</time>
      </trkpt>
      <trkpt lat="49.83488" lon="4.78566">
        <ele>292</ele>
        <time>2020-11-13T07:55:49.000Z</time>
      </trkpt>
      <trkpt lat="49.83489" lon="4.78566">
        <ele>292</ele>
        <time>2020-11-13T07:55:50.000Z</time>
      </trkpt>
      <trkpt lat="49.8349" lon="4.78566">
        <ele>292</ele>
        <time>2020-11-13T07:55:51.000Z</time>
      </trkpt>
      <trkpt lat="49.83491" lon="4.78565">
        <ele>292</ele>
        <time>2020-11-13T07:55:52.000Z</time>
      </trkpt>
      <trkpt lat="49.83492" lon="4.78565">
        <ele>291</ele>
        <time>2020-11-13T07:55:53.000Z</time>
      </trkpt>
      <trkpt lat="49.83494" lon="4.78565">
        <ele>291</ele>
        <time>2020-11-13T07:55:54.000Z</time>
      </trkpt>
      <trkpt lat="49.83495" lon="4.78564">
        <ele>291</ele>
        <time>2020-11-13T07:55:55.000Z</time>
      </trkpt>
      <trkpt lat="49.83497" lon="4.78564">
        <ele>291</ele>
        <time>2020-11-13T07:55:56.000Z</time>
      </trkpt>
      <trkpt lat="49.83499" lon="4.78563">
        <ele>291</ele>
        <time>2020-11-13T07:55:57.000Z</time>
      </trkpt>
      <trkpt lat="49.83501" lon="4.78562">
        <ele>291</ele>
        <time>2020-11-13T07:55:58.000Z</time>
      </trkpt>
      <trkpt lat="49.83503" lon="4.78562">
        <ele>290</ele>
        <time>2020-11-13T07:55:59.000Z</time>
      </trkpt>
      <trkpt lat="49.83505" lon="4.78561">
        <ele>290</ele>
        <time>2020-11-13T07:56:00.000Z</time>
      </trkpt>
      <trkpt lat="49.83507" lon="4.7856">
        <ele>290</ele>
        <time>2020-11-13T07:56:01.000Z</time>
      </trkpt>
      <trkpt lat="49.83509" lon="4.78559">
        <ele>290</ele>
        <time>2020-11-13T07:56:02.000Z</time>
      </trkpt>
      <trkpt lat="49.83511" lon="4.78558">
        <ele>290</ele>
        <time>2020-11-13T07:56:03.000Z</time>
      </trkpt>
      <trkpt lat="49.83513" lon="4.78556">
        <ele>290</ele>
        <time>2020-11-13T07:56:04.000Z</time>
      </trkpt>
      <trkpt lat="49.83515" lon="4.78555">
        <ele>290</ele>
        <time>2020-11-13T07:56:05.000Z</time>
      </trkpt>
      <trkpt lat="49.83516" lon="4.78554">
        <ele>290</ele>
        <time>2020-11-13T07:56:06.000Z</time>
      </trkpt>
      <trkpt lat="49.83518" lon="4.78553">
        <ele>291</ele>
        <time>2020-11-13T07:56:07.000Z</time>
      </trkpt>
      <trkpt lat="49.8352" lon="4.78551">
        <ele>291</ele>
        <time>2020-11-13T07:56:08.000Z</time>
      </trkpt>
      <trkpt lat="49.83522" lon="4.78549">
        <ele>291</ele>
        <time>2020-11-13T07:56:09.000Z</time>
      </trkpt>
      <trkpt lat="49.83525" lon="4.78547">
        <ele>291</ele>
        <time>2020-11-13T07:56:10.000Z</time>
      </trkpt>
      <trkpt lat="49.83528" lon="4.78545">
        <ele>291</ele>
        <time>2020-11-13T07:56:11.000Z</time>
      </trkpt>
      <trkpt lat="49.83532" lon="4.78543">
        <ele>291</ele>
        <time>2020-11-13T07:56:12.000Z</time>
      </trkpt>
      <trkpt lat="49.83536" lon="4.78541">
        <ele>290</ele>
        <time>2020-11-13T07:56:13.000Z</time>
      </trkpt>
      <trkpt lat="49.83541" lon="4.78539">
        <ele>290</ele>
        <time>2020-11-13T07:56:14.000Z</time>
      </trkpt>
      <trkpt lat="49.83546" lon="4.78537">
        <ele>290</ele>
        <time>2020-11-13T07:56:15.000Z</time>
      </trkpt>
      <trkpt lat="49.8355" lon="4.78535">
        <ele>290</ele>
        <time>2020-11-13T07:56:16.000Z</time>
      </trkpt>
      <trkpt lat="49.83554" lon="4.78533">
        <ele>290</ele>
        <time>2020-11-13T07:56:17.000Z</time>
      </trkpt>
      <trkpt lat="49.83557" lon="4.78531">
        <ele>290</ele>
        <time>2020-11-13T07:56:18.000Z</time>
      </trkpt>
      <trkpt lat="49.83562" lon="4.7853">
        <ele>289</ele>
        <time>2020-11-13T07:56:19.000Z</time>
      </trkpt>
      <trkpt lat="49.83566" lon="4.78529">
        <ele>289</ele>
        <time>2020-11-13T07:56:20.000Z</time>
      </trkpt>
      <trkpt lat="49.83571" lon="4.78527">
        <ele>289</ele>
        <time>2020-11-13T07:56:21.000Z</time>
      </trkpt>
      <trkpt lat="49.83576" lon="4.78526">
        <ele>289</ele>
        <time>2020-11-13T07:56:22.000Z</time>
      </trkpt>
      <trkpt lat="49.8358" lon="4.78524">
        <ele>289</ele>
        <time>2020-11-13T07:56:23.000Z</time>
      </trkpt>
      <trkpt lat="49.83585" lon="4.78523">
        <ele>289</ele>
        <time>2020-11-13T07:56:24.000Z</time>
      </trkpt>
      <trkpt lat="49.8359" lon="4.78522">
        <ele>289</ele>
        <time>2020-11-13T07:56:25.000Z</time>
      </trkpt>
      <trkpt lat="49.83594" lon="4.78522">
        <ele>289</ele>
        <time>2020-11-13T07:56:26.000Z</time>
      </trkpt>
      <trkpt lat="49.836" lon="4.78523">
        <ele>288</ele>
        <time>2020-11-13T07:56:27.000Z</time>
      </trkpt>
      <trkpt lat="49.83605" lon="4.78523">
        <ele>288</ele>
        <time>2020-11-13T07:56:28.000Z</time>
      </trkpt>
      <trkpt lat="49.83611" lon="4.78523">
        <ele>288</ele>
        <time>2020-11-13T07:56:29.000Z</time>
      </trkpt>
      <trkpt lat="49.83617" lon="4.78523">
        <ele>288</ele>
        <time>2020-11-13T07:56:30.000Z</time>
      </trkpt>
      <trkpt lat="49.83622" lon="4.78522">
        <ele>288</ele>
        <time>2020-11-13T07:56:31.000Z</time>
      </trkpt>
      <trkpt lat="49.83627" lon="4.78521">
        <ele>288</ele>
        <time>2020-11-13T07:56:32.000Z</time>
      </trkpt>
      <trkpt lat="49.83633" lon="4.7852">
        <ele>288</ele>
        <time>2020-11-13T07:56:33.000Z</time>
      </trkpt>
      <trkpt lat="49.83639" lon="4.78518">
        <ele>287</ele>
        <time>2020-11-13T07:56:34.000Z</time>
      </trkpt>
      <trkpt lat="49.83645" lon="4.78517">
        <ele>287</ele>
        <time>2020-11-13T07:56:35.000Z</time>
      </trkpt>
      <trkpt lat="49.83651" lon="4.78515">
        <ele>287</ele>
        <time>2020-11-13T07:56:36.000Z</time>
      </trkpt>
      <trkpt lat="49.83657" lon="4.78515">
        <ele>287</ele>
        <time>2020-11-13T07:56:37.000Z</time>
      </trkpt>
      <trkpt lat="49.83663" lon="4.78515">
        <ele>287</ele>
        <time>2020-11-13T07:56:38.000Z</time>
      </trkpt>
      <trkpt lat="49.83669" lon="4.78514">
        <ele>287</ele>
        <time>2020-11-13T07:56:39.000Z</time>
      </trkpt>
      <trkpt lat="49.83675" lon="4.78513">
        <ele>286</ele>
        <time>2020-11-13T07:56:40.000Z</time>
      </trkpt>
      <trkpt lat="49.8368" lon="4.78513">
        <ele>286</ele>
        <time>2020-11-13T07:56:41.000Z</time>
      </trkpt>
      <trkpt lat="49.83686" lon="4.78513">
        <ele>286</ele>
        <time>2020-11-13T07:56:42.000Z</time>
      </trkpt>
      <trkpt lat="49.83692" lon="4.78513">
        <ele>286</ele>
        <time>2020-11-13T07:56:43.000Z</time>
      </trkpt>
      <trkpt lat="49.83698" lon="4.78512">
        <ele>286</ele>
        <time>2020-11-13T07:56:44.000Z</time>
      </trkpt>
      <trkpt lat="49.83704" lon="4.78511">
        <ele>286</ele>
        <time>2020-11-13T07:56:45.000Z</time>
      </trkpt>
      <trkpt lat="49.8371" lon="4.7851">
        <ele>286</ele>
        <time>2020-11-13T07:56:46.000Z</time>
      </trkpt>
      <trkpt lat="49.83715" lon="4.78509">
        <ele>286</ele>
        <time>2020-11-13T07:56:47.000Z</time>
      </trkpt>
      <trkpt lat="49.8372" lon="4.78508">
        <ele>285</ele>
        <time>2020-11-13T07:56:48.000Z</time>
      </trkpt>
      <trkpt lat="49.83726" lon="4.78508">
        <ele>285</ele>
        <time>2020-11-13T07:56:49.000Z</time>
      </trkpt>
      <trkpt lat="49.83731" lon="4.78506">
        <ele>285</ele>
        <time>2020-11-13T07:56:50.000Z</time>
      </trkpt>
      <trkpt lat="49.83736" lon="4.78504">
        <ele>285</ele>
        <time>2020-11-13T07:56:51.000Z</time>
      </trkpt>
      <trkpt lat="49.83742" lon="4.78501">
        <ele>285</ele>
        <time>2020-11-13T07:56:52.000Z</time>
      </trkpt>
      <trkpt lat="49.83748" lon="4.78497">
        <ele>285</ele>
        <time>2020-11-13T07:56:53.000Z</time>
      </trkpt>
      <trkpt lat="49.83754" lon="4.78492">
        <ele>285</ele>
        <time>2020-11-13T07:56:54.000Z</time>
      </trkpt>
      <trkpt lat="49.83761" lon="4.78488">
        <ele>284</ele>
        <time>2020-11-13T07:56:55.000Z</time>
      </trkpt>
      <trkpt lat="49.83768" lon="4.78484">
        <ele>284</ele>
        <time>2020-11-13T07:56:56.000Z</time>
      </trkpt>
      <trkpt lat="49.83773" lon="4.7848">
        <ele>283</ele>
        <time>2020-11-13T07:56:57.000Z</time>
      </trkpt>
      <trkpt lat="49.83779" lon="4.78477">
        <ele>283</ele>
        <time>2020-11-13T07:56:58.000Z</time>
      </trkpt>
      <trkpt lat="49.83782" lon="4.78474">
        <ele>282</ele>
        <time>2020-11-13T07:56:59.000Z</time>
      </trkpt>
      <trkpt lat="49.83785" lon="4.78472">
        <ele>282</ele>
        <time>2020-11-13T07:57:00.000Z</time>
      </trkpt>
      <trkpt lat="49.83787" lon="4.78472">
        <ele>281</ele>
        <time>2020-11-13T07:57:01.000Z</time>
      </trkpt>
      <trkpt lat="49.8379" lon="4.78472">
        <ele>281</ele>
        <time>2020-11-13T07:57:02.000Z</time>
      </trkpt>
      <trkpt lat="49.83794" lon="4.78471">
        <ele>281</ele>
        <time>2020-11-13T07:57:03.000Z</time>
      </trkpt>
      <trkpt lat="49.83798" lon="4.78471">
        <ele>280</ele>
        <time>2020-11-13T07:57:04.000Z</time>
      </trkpt>
      <trkpt lat="49.83803" lon="4.78471">
        <ele>280</ele>
        <time>2020-11-13T07:57:05.000Z</time>
      </trkpt>
      <trkpt lat="49.83808" lon="4.78471">
        <ele>279</ele>
        <time>2020-11-13T07:57:06.000Z</time>
      </trkpt>
      <trkpt lat="49.83814" lon="4.78472">
        <ele>279</ele>
        <time>2020-11-13T07:57:07.000Z</time>
      </trkpt>
      <trkpt lat="49.83821" lon="4.78472">
        <ele>278</ele>
        <time>2020-11-13T07:57:08.000Z</time>
      </trkpt>
      <trkpt lat="49.83828" lon="4.78473">
        <ele>278</ele>
        <time>2020-11-13T07:57:09.000Z</time>
      </trkpt>
      <trkpt lat="49.83835" lon="4.78475">
        <ele>277</ele>
        <time>2020-11-13T07:57:10.000Z</time>
      </trkpt>
      <trkpt lat="49.83842" lon="4.78477">
        <ele>277</ele>
        <time>2020-11-13T07:57:11.000Z</time>
      </trkpt>
      <trkpt lat="49.83849" lon="4.78479">
        <ele>276</ele>
        <time>2020-11-13T07:57:12.000Z</time>
      </trkpt>
      <trkpt lat="49.83856" lon="4.78481">
        <ele>276</ele>
        <time>2020-11-13T07:57:13.000Z</time>
      </trkpt>
      <trkpt lat="49.83862" lon="4.78483">
        <ele>275</ele>
        <time>2020-11-13T07:57:14.000Z</time>
      </trkpt>
      <trkpt lat="49.83867" lon="4.78484">
        <ele>275</ele>
        <time>2020-11-13T07:57:15.000Z</time>
      </trkpt>
      <trkpt lat="49.83872" lon="4.78485">
        <ele>275</ele>
        <time>2020-11-13T07:57:16.000Z</time>
      </trkpt>
      <trkpt lat="49.83877" lon="4.78485">
        <ele>274</ele>
        <time>2020-11-13T07:57:17.000Z</time>
      </trkpt>
      <trkpt lat="49.83882" lon="4.78485">
        <ele>274</ele>
        <time>2020-11-13T07:57:18.000Z</time>
      </trkpt>
      <trkpt lat="49.83887" lon="4.78485">
        <ele>274</ele>
        <time>2020-11-13T07:57:19.000Z</time>
      </trkpt>
      <trkpt lat="49.83893" lon="4.78485">
        <ele>273</ele>
        <time>2020-11-13T07:57:20.000Z</time>
      </trkpt>
      <trkpt lat="49.83898" lon="4.78485">
        <ele>273</ele>
        <time>2020-11-13T07:57:21.000Z</time>
      </trkpt>
      <trkpt lat="49.83903" lon="4.78485">
        <ele>273</ele>
        <time>2020-11-13T07:57:22.000Z</time>
      </trkpt>
      <trkpt lat="49.83907" lon="4.78485">
        <ele>272</ele>
        <time>2020-11-13T07:57:23.000Z</time>
      </trkpt>
      <trkpt lat="49.83912" lon="4.78485">
        <ele>272</ele>
        <time>2020-11-13T07:57:24.000Z</time>
      </trkpt>
      <trkpt lat="49.83917" lon="4.78484">
        <ele>272</ele>
        <time>2020-11-13T07:57:25.000Z</time>
      </trkpt>
      <trkpt lat="49.83922" lon="4.78484">
        <ele>272</ele>
        <time>2020-11-13T07:57:26.000Z</time>
      </trkpt>
      <trkpt lat="49.83926" lon="4.78484">
        <ele>272</ele>
        <time>2020-11-13T07:57:27.000Z</time>
      </trkpt>
      <trkpt lat="49.8393" lon="4.78483">
        <ele>272</ele>
        <time>2020-11-13T07:57:28.000Z</time>
      </trkpt>
      <trkpt lat="49.83935" lon="4.78482">
        <ele>272</ele>
        <time>2020-11-13T07:57:29.000Z</time>
      </trkpt>
      <trkpt lat="49.8394" lon="4.78482">
        <ele>271</ele>
        <time>2020-11-13T07:57:30.000Z</time>
      </trkpt>
      <trkpt lat="49.83944" lon="4.78481">
        <ele>271</ele>
        <time>2020-11-13T07:57:31.000Z</time>
      </trkpt>
      <trkpt lat="49.83949" lon="4.78481">
        <ele>271</ele>
        <time>2020-11-13T07:57:32.000Z</time>
      </trkpt>
      <trkpt lat="49.83954" lon="4.78481">
        <ele>271</ele>
        <time>2020-11-13T07:57:33.000Z</time>
      </trkpt>
      <trkpt lat="49.83958" lon="4.78481">
        <ele>271</ele>
        <time>2020-11-13T07:57:34.000Z</time>
      </trkpt>
      <trkpt lat="49.83963" lon="4.78481">
        <ele>270</ele>
        <time>2020-11-13T07:57:35.000Z</time>
      </trkpt>
      <trkpt lat="49.83967" lon="4.78481">
        <ele>270</ele>
        <time>2020-11-13T07:57:36.000Z</time>
      </trkpt>
      <trkpt lat="49.83972" lon="4.78481">
        <ele>270</ele>
        <time>2020-11-13T07:57:37.000Z</time>
      </trkpt>
      <trkpt lat="49.83977" lon="4.78482">
        <ele>270</ele>
        <time>2020-11-13T07:57:38.000Z</time>
      </trkpt>
      <trkpt lat="49.83982" lon="4.78483">
        <ele>270</ele>
        <time>2020-11-13T07:57:39.000Z</time>
      </trkpt>
      <trkpt lat="49.83987" lon="4.78484">
        <ele>269</ele>
        <time>2020-11-13T07:57:40.000Z</time>
      </trkpt>
      <trkpt lat="49.83992" lon="4.78485">
        <ele>269</ele>
        <time>2020-11-13T07:57:41.000Z</time>
      </trkpt>
      <trkpt lat="49.83997" lon="4.78485">
        <ele>269</ele>
        <time>2020-11-13T07:57:42.000Z</time>
      </trkpt>
      <trkpt lat="49.84003" lon="4.78486">
        <ele>269</ele>
        <time>2020-11-13T07:57:43.000Z</time>
      </trkpt>
      <trkpt lat="49.84008" lon="4.78486">
        <ele>269</ele>
        <time>2020-11-13T07:57:44.000Z</time>
      </trkpt>
      <trkpt lat="49.84013" lon="4.78486">
        <ele>269</ele>
        <time>2020-11-13T07:57:45.000Z</time>
      </trkpt>
      <trkpt lat="49.84018" lon="4.78487">
        <ele>268</ele>
        <time>2020-11-13T07:57:46.000Z</time>
      </trkpt>
      <trkpt lat="49.84022" lon="4.78489">
        <ele>268</ele>
        <time>2020-11-13T07:57:47.000Z</time>
      </trkpt>
      <trkpt lat="49.84027" lon="4.78491">
        <ele>268</ele>
        <time>2020-11-13T07:57:48.000Z</time>
      </trkpt>
      <trkpt lat="49.84032" lon="4.78493">
        <ele>268</ele>
        <time>2020-11-13T07:57:49.000Z</time>
      </trkpt>
      <trkpt lat="49.84036" lon="4.78495">
        <ele>268</ele>
        <time>2020-11-13T07:57:50.000Z</time>
      </trkpt>
      <trkpt lat="49.8404" lon="4.78497">
        <ele>268</ele>
        <time>2020-11-13T07:57:51.000Z</time>
      </trkpt>
      <trkpt lat="49.84043" lon="4.78499">
        <ele>268</ele>
        <time>2020-11-13T07:57:52.000Z</time>
      </trkpt>
      <trkpt lat="49.84047" lon="4.78501">
        <ele>268</ele>
        <time>2020-11-13T07:57:53.000Z</time>
      </trkpt>
      <trkpt lat="49.8405" lon="4.78503">
        <ele>268</ele>
        <time>2020-11-13T07:57:54.000Z</time>
      </trkpt>
      <trkpt lat="49.84053" lon="4.78505">
        <ele>268</ele>
        <time>2020-11-13T07:57:55.000Z</time>
      </trkpt>
      <trkpt lat="49.84055" lon="4.78507">
        <ele>268</ele>
        <time>2020-11-13T07:57:56.000Z</time>
      </trkpt>
      <trkpt lat="49.84058" lon="4.78509">
        <ele>268</ele>
        <time>2020-11-13T07:57:57.000Z</time>
      </trkpt>
      <trkpt lat="49.8406" lon="4.7851">
        <ele>268</ele>
        <time>2020-11-13T07:57:58.000Z</time>
      </trkpt>
      <trkpt lat="49.84062" lon="4.78512">
        <ele>268</ele>
        <time>2020-11-13T07:57:59.000Z</time>
      </trkpt>
      <trkpt lat="49.84065" lon="4.78513">
        <ele>268</ele>
        <time>2020-11-13T07:58:00.000Z</time>
      </trkpt>
      <trkpt lat="49.84067" lon="4.78514">
        <ele>268</ele>
        <time>2020-11-13T07:58:01.000Z</time>
      </trkpt>
      <trkpt lat="49.8407" lon="4.78515">
        <ele>269</ele>
        <time>2020-11-13T07:58:02.000Z</time>
      </trkpt>
      <trkpt lat="49.84072" lon="4.78516">
        <ele>269</ele>
        <time>2020-11-13T07:58:03.000Z</time>
      </trkpt>
      <trkpt lat="49.84074" lon="4.78516">
        <ele>269</ele>
        <time>2020-11-13T07:58:04.000Z</time>
      </trkpt>
      <trkpt lat="49.84077" lon="4.78516">
        <ele>269</ele>
        <time>2020-11-13T07:58:05.000Z</time>
      </trkpt>
      <trkpt lat="49.84078" lon="4.78516">
        <ele>269</ele>
        <time>2020-11-13T07:58:06.000Z</time>
      </trkpt>
      <trkpt lat="49.8408" lon="4.78516">
        <ele>269</ele>
        <time>2020-11-13T07:58:07.000Z</time>
      </trkpt>
      <trkpt lat="49.84082" lon="4.78516">
        <ele>269</ele>
        <time>2020-11-13T07:58:08.000Z</time>
      </trkpt>
      <trkpt lat="49.84084" lon="4.78515">
        <ele>270</ele>
        <time>2020-11-13T07:58:09.000Z</time>
      </trkpt>
      <trkpt lat="49.84086" lon="4.78515">
        <ele>270</ele>
        <time>2020-11-13T07:58:10.000Z</time>
      </trkpt>
      <trkpt lat="49.84088" lon="4.78515">
        <ele>270</ele>
        <time>2020-11-13T07:58:11.000Z</time>
      </trkpt>
      <trkpt lat="49.8409" lon="4.78515">
        <ele>270</ele>
        <time>2020-11-13T07:58:12.000Z</time>
      </trkpt>
      <trkpt lat="49.84093" lon="4.78514">
        <ele>271</ele>
        <time>2020-11-13T07:58:13.000Z</time>
      </trkpt>
      <trkpt lat="49.84095" lon="4.78514">
        <ele>271</ele>
        <time>2020-11-13T07:58:14.000Z</time>
      </trkpt>
      <trkpt lat="49.84097" lon="4.78514">
        <ele>271</ele>
        <time>2020-11-13T07:58:15.000Z</time>
      </trkpt>
      <trkpt lat="49.84099" lon="4.78513">
        <ele>271</ele>
        <time>2020-11-13T07:58:16.000Z</time>
      </trkpt>
      <trkpt lat="49.84101" lon="4.78513">
        <ele>272</ele>
        <time>2020-11-13T07:58:17.000Z</time>
      </trkpt>
      <trkpt lat="49.84103" lon="4.78513">
        <ele>272</ele>
        <time>2020-11-13T07:58:18.000Z</time>
      </trkpt>
      <trkpt lat="49.84105" lon="4.78512">
        <ele>272</ele>
        <time>2020-11-13T07:58:19.000Z</time>
      </trkpt>
      <trkpt lat="49.84108" lon="4.78512">
        <ele>272</ele>
        <time>2020-11-13T07:58:20.000Z</time>
      </trkpt>
      <trkpt lat="49.84111" lon="4.78512">
        <ele>273</ele>
        <time>2020-11-13T07:58:21.000Z</time>
      </trkpt>
      <trkpt lat="49.84114" lon="4.78513">
        <ele>273</ele>
        <time>2020-11-13T07:58:22.000Z</time>
      </trkpt>
      <trkpt lat="49.84116" lon="4.78512">
        <ele>273</ele>
        <time>2020-11-13T07:58:23.000Z</time>
      </trkpt>
      <trkpt lat="49.84119" lon="4.78512">
        <ele>273</ele>
        <time>2020-11-13T07:58:24.000Z</time>
      </trkpt>
      <trkpt lat="49.84121" lon="4.78512">
        <ele>273</ele>
        <time>2020-11-13T07:58:25.000Z</time>
      </trkpt>
      <trkpt lat="49.84123" lon="4.78512">
        <ele>273</ele>
        <time>2020-11-13T07:58:26.000Z</time>
      </trkpt>
      <trkpt lat="49.84125" lon="4.78512">
        <ele>273</ele>
        <time>2020-11-13T07:58:27.000Z</time>
      </trkpt>
      <trkpt lat="49.84127" lon="4.78512">
        <ele>274</ele>
        <time>2020-11-13T07:58:28.000Z</time>
      </trkpt>
      <trkpt lat="49.84128" lon="4.78511">
        <ele>274</ele>
        <time>2020-11-13T07:58:29.000Z</time>
      </trkpt>
      <trkpt lat="49.8413" lon="4.78512">
        <ele>274</ele>
        <time>2020-11-13T07:58:30.000Z</time>
      </trkpt>
      <trkpt lat="49.84132" lon="4.78512">
        <ele>274</ele>
        <time>2020-11-13T07:58:31.000Z</time>
      </trkpt>
      <trkpt lat="49.84134" lon="4.78512">
        <ele>274</ele>
        <time>2020-11-13T07:58:32.000Z</time>
      </trkpt>
      <trkpt lat="49.84135" lon="4.78513">
        <ele>275</ele>
        <time>2020-11-13T07:58:33.000Z</time>
      </trkpt>
      <trkpt lat="49.84137" lon="4.78513">
        <ele>275</ele>
        <time>2020-11-13T07:58:34.000Z</time>
      </trkpt>
      <trkpt lat="49.84138" lon="4.78514">
        <ele>275</ele>
        <time>2020-11-13T07:58:35.000Z</time>
      </trkpt>
      <trkpt lat="49.8414" lon="4.78515">
        <ele>275</ele>
        <time>2020-11-13T07:58:36.000Z</time>
      </trkpt>
      <trkpt lat="49.84142" lon="4.78516">
        <ele>276</ele>
        <time>2020-11-13T07:58:37.000Z</time>
      </trkpt>
      <trkpt lat="49.84145" lon="4.78517">
        <ele>276</ele>
        <time>2020-11-13T07:58:38.000Z</time>
      </trkpt>
      <trkpt lat="49.84147" lon="4.78518">
        <ele>276</ele>
        <time>2020-11-13T07:58:39.000Z</time>
      </trkpt>
      <trkpt lat="49.84149" lon="4.78518">
        <ele>276</ele>
        <time>2020-11-13T07:58:40.000Z</time>
      </trkpt>
      <trkpt lat="49.84151" lon="4.7852">
        <ele>276</ele>
        <time>2020-11-13T07:58:41.000Z</time>
      </trkpt>
      <trkpt lat="49.84154" lon="4.78521">
        <ele>276</ele>
        <time>2020-11-13T07:58:42.000Z</time>
      </trkpt>
      <trkpt lat="49.84156" lon="4.78523">
        <ele>277</ele>
        <time>2020-11-13T07:58:43.000Z</time>
      </trkpt>
      <trkpt lat="49.84159" lon="4.78524">
        <ele>277</ele>
        <time>2020-11-13T07:58:44.000Z</time>
      </trkpt>
      <trkpt lat="49.84161" lon="4.78526">
        <ele>277</ele>
        <time>2020-11-13T07:58:45.000Z</time>
      </trkpt>
      <trkpt lat="49.84164" lon="4.78528">
        <ele>277</ele>
        <time>2020-11-13T07:58:46.000Z</time>
      </trkpt>
      <trkpt lat="49.84167" lon="4.78529">
        <ele>277</ele>
        <time>2020-11-13T07:58:47.000Z</time>
      </trkpt>
      <trkpt lat="49.84169" lon="4.78531">
        <ele>278</ele>
        <time>2020-11-13T07:58:48.000Z</time>
      </trkpt>
      <trkpt lat="49.84172" lon="4.78532">
        <ele>278</ele>
        <time>2020-11-13T07:58:49.000Z</time>
      </trkpt>
      <trkpt lat="49.84174" lon="4.78534">
        <ele>278</ele>
        <time>2020-11-13T07:58:50.000Z</time>
      </trkpt>
      <trkpt lat="49.84177" lon="4.78535">
        <ele>278</ele>
        <time>2020-11-13T07:58:51.000Z</time>
      </trkpt>
      <trkpt lat="49.84179" lon="4.78537">
        <ele>278</ele>
        <time>2020-11-13T07:58:52.000Z</time>
      </trkpt>
      <trkpt lat="49.84181" lon="4.78538">
        <ele>278</ele>
        <time>2020-11-13T07:58:53.000Z</time>
      </trkpt>
      <trkpt lat="49.84184" lon="4.78539">
        <ele>278</ele>
        <time>2020-11-13T07:58:54.000Z</time>
      </trkpt>
      <trkpt lat="49.84186" lon="4.7854">
        <ele>279</ele>
        <time>2020-11-13T07:58:55.000Z</time>
      </trkpt>
      <trkpt lat="49.84188" lon="4.7854">
        <ele>279</ele>
        <time>2020-11-13T07:58:56.000Z</time>
      </trkpt>
      <trkpt lat="49.84189" lon="4.78541">
        <ele>279</ele>
        <time>2020-11-13T07:58:57.000Z</time>
      </trkpt>
      <trkpt lat="49.84191" lon="4.78541">
        <ele>279</ele>
        <time>2020-11-13T07:58:58.000Z</time>
      </trkpt>
      <trkpt lat="49.84193" lon="4.78541">
        <ele>279</ele>
        <time>2020-11-13T07:58:59.000Z</time>
      </trkpt>
      <trkpt lat="49.84194" lon="4.78541">
        <ele>279</ele>
        <time>2020-11-13T07:59:00.000Z</time>
      </trkpt>
      <trkpt lat="49.84195" lon="4.78541">
        <ele>280</ele>
        <time>2020-11-13T07:59:01.000Z</time>
      </trkpt>
      <trkpt lat="49.84197" lon="4.78541">
        <ele>280</ele>
        <time>2020-11-13T07:59:02.000Z</time>
      </trkpt>
      <trkpt lat="49.84199" lon="4.78542">
        <ele>280</ele>
        <time>2020-11-13T07:59:03.000Z</time>
      </trkpt>
      <trkpt lat="49.84201" lon="4.78542">
        <ele>280</ele>
        <time>2020-11-13T07:59:04.000Z</time>
      </trkpt>
      <trkpt lat="49.84203" lon="4.78542">
        <ele>280</ele>
        <time>2020-11-13T07:59:05.000Z</time>
      </trkpt>
      <trkpt lat="49.84205" lon="4.78542">
        <ele>280</ele>
        <time>2020-11-13T07:59:06.000Z</time>
      </trkpt>
      <trkpt lat="49.84207" lon="4.78543">
        <ele>281</ele>
        <time>2020-11-13T07:59:07.000Z</time>
      </trkpt>
      <trkpt lat="49.84209" lon="4.78544">
        <ele>281</ele>
        <time>2020-11-13T07:59:08.000Z</time>
      </trkpt>
      <trkpt lat="49.84211" lon="4.78544">
        <ele>281</ele>
        <time>2020-11-13T07:59:09.000Z</time>
      </trkpt>
      <trkpt lat="49.84213" lon="4.78544">
        <ele>281</ele>
        <time>2020-11-13T07:59:10.000Z</time>
      </trkpt>
      <trkpt lat="49.84215" lon="4.78545">
        <ele>281</ele>
        <time>2020-11-13T07:59:11.000Z</time>
      </trkpt>
      <trkpt lat="49.84217" lon="4.78546">
        <ele>282</ele>
        <time>2020-11-13T07:59:12.000Z</time>
      </trkpt>
      <trkpt lat="49.84219" lon="4.78547">
        <ele>282</ele>
        <time>2020-11-13T07:59:13.000Z</time>
      </trkpt>
      <trkpt lat="49.84222" lon="4.78548">
        <ele>282</ele>
        <time>2020-11-13T07:59:14.000Z</time>
      </trkpt>
      <trkpt lat="49.84224" lon="4.78549">
        <ele>282</ele>
        <time>2020-11-13T07:59:15.000Z</time>
      </trkpt>
      <trkpt lat="49.84227" lon="4.7855">
        <ele>282</ele>
        <time>2020-11-13T07:59:16.000Z</time>
      </trkpt>
      <trkpt lat="49.84229" lon="4.78551">
        <ele>283</ele>
        <time>2020-11-13T07:59:17.000Z</time>
      </trkpt>
      <trkpt lat="49.84232" lon="4.78552">
        <ele>283</ele>
        <time>2020-11-13T07:59:18.000Z</time>
      </trkpt>
      <trkpt lat="49.84235" lon="4.78554">
        <ele>283</ele>
        <time>2020-11-13T07:59:19.000Z</time>
      </trkpt>
      <trkpt lat="49.84237" lon="4.78555">
        <ele>283</ele>
        <time>2020-11-13T07:59:20.000Z</time>
      </trkpt>
      <trkpt lat="49.8424" lon="4.78556">
        <ele>284</ele>
        <time>2020-11-13T07:59:21.000Z</time>
      </trkpt>
      <trkpt lat="49.84242" lon="4.78557">
        <ele>284</ele>
        <time>2020-11-13T07:59:22.000Z</time>
      </trkpt>
      <trkpt lat="49.84245" lon="4.78558">
        <ele>284</ele>
        <time>2020-11-13T07:59:23.000Z</time>
      </trkpt>
      <trkpt lat="49.84248" lon="4.7856">
        <ele>284</ele>
        <time>2020-11-13T07:59:24.000Z</time>
      </trkpt>
      <trkpt lat="49.8425" lon="4.78561">
        <ele>284</ele>
        <time>2020-11-13T07:59:25.000Z</time>
      </trkpt>
      <trkpt lat="49.84252" lon="4.78562">
        <ele>285</ele>
        <time>2020-11-13T07:59:26.000Z</time>
      </trkpt>
      <trkpt lat="49.84255" lon="4.78564">
        <ele>285</ele>
        <time>2020-11-13T07:59:27.000Z</time>
      </trkpt>
      <trkpt lat="49.84258" lon="4.78566">
        <ele>285</ele>
        <time>2020-11-13T07:59:28.000Z</time>
      </trkpt>
      <trkpt lat="49.84261" lon="4.78568">
        <ele>285</ele>
        <time>2020-11-13T07:59:29.000Z</time>
      </trkpt>
      <trkpt lat="49.84264" lon="4.78571">
        <ele>285</ele>
        <time>2020-11-13T07:59:30.000Z</time>
      </trkpt>
      <trkpt lat="49.84265" lon="4.78573">
        <ele>285</ele>
        <time>2020-11-13T07:59:31.000Z</time>
      </trkpt>
      <trkpt lat="49.84267" lon="4.78574">
        <ele>286</ele>
        <time>2020-11-13T07:59:32.000Z</time>
      </trkpt>
      <trkpt lat="49.84269" lon="4.78576">
        <ele>286</ele>
        <time>2020-11-13T07:59:33.000Z</time>
      </trkpt>
      <trkpt lat="49.84271" lon="4.78578">
        <ele>286</ele>
        <time>2020-11-13T07:59:34.000Z</time>
      </trkpt>
      <trkpt lat="49.84274" lon="4.78579">
        <ele>286</ele>
        <time>2020-11-13T07:59:35.000Z</time>
      </trkpt>
      <trkpt lat="49.84276" lon="4.78581">
        <ele>286</ele>
        <time>2020-11-13T07:59:36.000Z</time>
      </trkpt>
      <trkpt lat="49.84279" lon="4.78583">
        <ele>287</ele>
        <time>2020-11-13T07:59:37.000Z</time>
      </trkpt>
      <trkpt lat="49.84282" lon="4.78585">
        <ele>287</ele>
        <time>2020-11-13T07:59:38.000Z</time>
      </trkpt>
      <trkpt lat="49.84284" lon="4.78587">
        <ele>287</ele>
        <time>2020-11-13T07:59:39.000Z</time>
      </trkpt>
      <trkpt lat="49.84287" lon="4.7859">
        <ele>287</ele>
        <time>2020-11-13T07:59:40.000Z</time>
      </trkpt>
      <trkpt lat="49.84289" lon="4.78592">
        <ele>288</ele>
        <time>2020-11-13T07:59:41.000Z</time>
      </trkpt>
      <trkpt lat="49.84292" lon="4.78594">
        <ele>288</ele>
        <time>2020-11-13T07:59:42.000Z</time>
      </trkpt>
      <trkpt lat="49.84294" lon="4.78595">
        <ele>288</ele>
        <time>2020-11-13T07:59:43.000Z</time>
      </trkpt>
      <trkpt lat="49.84296" lon="4.78597">
        <ele>289</ele>
        <time>2020-11-13T07:59:44.000Z</time>
      </trkpt>
      <trkpt lat="49.84298" lon="4.78598">
        <ele>289</ele>
        <time>2020-11-13T07:59:45.000Z</time>
      </trkpt>
      <trkpt lat="49.84301" lon="4.78599">
        <ele>289</ele>
        <time>2020-11-13T07:59:46.000Z</time>
      </trkpt>
      <trkpt lat="49.84304" lon="4.786">
        <ele>289</ele>
        <time>2020-11-13T07:59:47.000Z</time>
      </trkpt>
      <trkpt lat="49.84307" lon="4.78601">
        <ele>290</ele>
        <time>2020-11-13T07:59:48.000Z</time>
      </trkpt>
      <trkpt lat="49.84309" lon="4.78602">
        <ele>290</ele>
        <time>2020-11-13T07:59:49.000Z</time>
      </trkpt>
      <trkpt lat="49.84312" lon="4.78603">
        <ele>290</ele>
        <time>2020-11-13T07:59:50.000Z</time>
      </trkpt>
      <trkpt lat="49.84314" lon="4.78603">
        <ele>291</ele>
        <time>2020-11-13T07:59:51.000Z</time>
      </trkpt>
      <trkpt lat="49.84316" lon="4.78602">
        <ele>291</ele>
        <time>2020-11-13T07:59:52.000Z</time>
      </trkpt>
      <trkpt lat="49.84318" lon="4.78601">
        <ele>291</ele>
        <time>2020-11-13T07:59:53.000Z</time>
      </trkpt>
      <trkpt lat="49.84319" lon="4.786">
        <ele>291</ele>
        <time>2020-11-13T07:59:54.000Z</time>
      </trkpt>
      <trkpt lat="49.84319" lon="4.786">
        <ele>292</ele>
        <time>2020-11-13T07:59:55.000Z</time>
      </trkpt>
      <trkpt lat="49.84319" lon="4.78599">
        <ele>292</ele>
        <time>2020-11-13T07:59:56.000Z</time>
      </trkpt>
      <trkpt lat="49.84319" lon="4.78599">
        <ele>292</ele>
        <time>2020-11-13T07:59:57.000Z</time>
      </trkpt>
      <trkpt lat="49.84319" lon="4.78598">
        <ele>293</ele>
        <time>2020-11-13T07:59:58.000Z</time>
      </trkpt>
      <trkpt lat="49.84319" lon="4.78598">
        <ele>293</ele>
        <time>2020-11-13T07:59:59.000Z</time>
      </trkpt>
      <trkpt lat="49.84319" lon="4.78598">
        <ele>293</ele>
        <time>2020-11-13T08:00:00.000Z</time>
      </trkpt>
      <trkpt lat="49.84319" lon="4.78597">
        <ele>293</ele>
        <time>2020-11-13T08:00:01.000Z</time>
      </trkpt>
      <trkpt lat="49.84319" lon="4.78597">
        <ele>293</ele>
        <time>2020-11-13T08:00:02.000Z</time>
      </trkpt>
      <trkpt lat="49.84319" lon="4.78597">
        <ele>294</ele>
        <time>2020-11-13T08:00:03.000Z</time>
      </trkpt>
      <trkpt lat="49.84319" lon="4.78597">
        <ele>294</ele>
        <time>2020-11-13T08:00:04.000Z</time>
      </trkpt>
      <trkpt lat="49.84319" lon="4.78596">
        <ele>294</ele>
        <time>2020-11-13T08:00:05.000Z</time>
      </trkpt>
      <trkpt lat="49.84319" lon="4.78596">
        <ele>294</ele>
        <time>2020-11-13T08:00:06.000Z</time>
      </trkpt>
      <trkpt lat="49.84319" lon="4.78596">
        <ele>294</ele>
        <time>2020-11-13T08:00:07.000Z</time>
      </trkpt>
      <trkpt lat="49.84318" lon="4.78596">
        <ele>294</ele>
        <time>2020-11-13T08:00:08.000Z</time>
      </trkpt>
      <trkpt lat="49.84318" lon="4.78596">
        <ele>294</ele>
        <time>2020-11-13T08:00:09.000Z</time>
      </trkpt>
      <trkpt lat="49.84318" lon="4.78596">
        <ele>294</ele>
        <time>2020-11-13T08:00:10.000Z</time>
      </trkpt>
      <trkpt lat="49.84318" lon="4.78595">
        <ele>294</ele>
        <time>2020-11-13T08:00:11.000Z</time>
      </trkpt>
      <trkpt lat="49.84318" lon="4.78595">
        <ele>294</ele>
        <time>2020-11-13T08:00:12.000Z</time>
      </trkpt>
      <trkpt lat="49.84318" lon="4.78595">
        <ele>295</ele>
        <time>2020-11-13T08:00:13.000Z</time>
      </trkpt>
      <trkpt lat="49.84318" lon="4.78595">
        <ele>295</ele>
        <time>2020-11-13T08:00:14.000Z</time>
      </trkpt>
      <trkpt lat="49.84318" lon="4.78595">
        <ele>295</ele>
        <time>2020-11-13T08:00:15.000Z</time>
      </trkpt>
      <trkpt lat="49.84318" lon="4.78595">
        <ele>295</ele>
        <time>2020-11-13T08:00:16.000Z</time>
      </trkpt>
      <trkpt lat="49.84318" lon="4.78595">
        <ele>295</ele>
        <time>2020-11-13T08:00:17.000Z</time>
      </trkpt>
      <trkpt lat="49.84318" lon="4.78595">
        <ele>295</ele>
        <time>2020-11-13T08:00:18.000Z</time>
      </trkpt>
      <trkpt lat="49.84318" lon="4.78595">
        <ele>295</ele>
        <time>2020-11-13T08:00:19.000Z</time>
      </trkpt>
      <trkpt lat="49.84318" lon="4.78595">
        <ele>295</ele>
        <time>2020-11-13T08:00:20.000Z</time>
      </trkpt>
      <trkpt lat="49.84318" lon="4.78595">
        <ele>295</ele>
        <time>2020-11-13T08:00:21.000Z</time>
      </trkpt>
      <trkpt lat="49.84318" lon="4.78594">
        <ele>295</ele>
        <time>2020-11-13T08:00:22.000Z</time>
      </trkpt>
      <trkpt lat="49.84318" lon="4.78594">
        <ele>295</ele>
        <time>2020-11-13T08:00:23.000Z</time>
      </trkpt>
      <trkpt lat="49.84318" lon="4.78594">
        <ele>295</ele>
        <time>2020-11-13T08:00:24.000Z</time>
      </trkpt>
      <trkpt lat="49.84318" lon="4.78594">
        <ele>295</ele>
        <time>2020-11-13T08:00:25.000Z</time>
      </trkpt>
      <trkpt lat="49.84318" lon="4.78594">
        <ele>295</ele>
        <time>2020-11-13T08:00:26.000Z</time>
      </trkpt>
      <trkpt lat="49.84318" lon="4.78594">
        <ele>295</ele>
        <time>2020-11-13T08:00:27.000Z</time>
      </trkpt>
      <trkpt lat="49.84318" lon="4.78594">
        <ele>295</ele>
        <time>2020-11-13T08:00:28.000Z</time>
      </trkpt>
      <trkpt lat="49.84318" lon="4.78594">
        <ele>295</ele>
        <time>2020-11-13T08:00:29.000Z</time>
      </trkpt>
      <trkpt lat="49.84318" lon="4.78594">
        <ele>295</ele>
        <time>2020-11-13T08:00:30.000Z</time>
      </trkpt>
      <trkpt lat="49.84318" lon="4.78594">
        <ele>295</ele>
        <time>2020-11-13T08:00:31.000Z</time>
      </trkpt>
      <trkpt lat="49.84318" lon="4.78594">
        <ele>295</ele>
        <time>2020-11-13T08:00:32.000Z</time>
      </trkpt>
      <trkpt lat="49.84318" lon="4.78594">
        <ele>295</ele>
        <time>2020-11-13T08:00:33.000Z</time>
      </trkpt>
      <trkpt lat="49.84318" lon="4.78594">
        <ele>295</ele>
        <time>2020-11-13T08:00:34.000Z</time>
      </trkpt>
      <trkpt lat="49.84318" lon="4.78594">
        <ele>295</ele>
        <time>2020-11-13T08:00:35.000Z</time>
      </trkpt>
      <trkpt lat="49.84318" lon="4.78594">
        <ele>295</ele>
        <time>2020-11-13T08:00:36.000Z</time>
      </trkpt>
      <trkpt lat="49.84319" lon="4.78594">
        <ele>295</ele>
        <time>2020-11-13T08:00:37.000Z</time>
      </trkpt>
      <trkpt lat="49.84319" lon="4.78593">
        <ele>295</ele>
        <time>2020-11-13T08:00:38.000Z</time>
      </trkpt>
      <trkpt lat="49.8432" lon="4.78593">
        <ele>295</ele>
        <time>2020-11-13T08:00:39.000Z</time>
      </trkpt>
      <trkpt lat="49.84322" lon="4.78592">
        <ele>295</ele>
        <time>2020-11-13T08:00:40.000Z</time>
      </trkpt>
      <trkpt lat="49.84323" lon="4.78591">
        <ele>295</ele>
        <time>2020-11-13T08:00:41.000Z</time>
      </trkpt>
      <trkpt lat="49.84326" lon="4.78591">
        <ele>295</ele>
        <time>2020-11-13T08:00:42.000Z</time>
      </trkpt>
      <trkpt lat="49.84328" lon="4.7859">
        <ele>296</ele>
        <time>2020-11-13T08:00:43.000Z</time>
      </trkpt>
      <trkpt lat="49.8433" lon="4.7859">
        <ele>295</ele>
        <time>2020-11-13T08:00:44.000Z</time>
      </trkpt>
      <trkpt lat="49.84332" lon="4.78589">
        <ele>296</ele>
        <time>2020-11-13T08:00:45.000Z</time>
      </trkpt>
      <trkpt lat="49.84335" lon="4.78587">
        <ele>296</ele>
        <time>2020-11-13T08:00:46.000Z</time>
      </trkpt>
      <trkpt lat="49.84338" lon="4.78586">
        <ele>296</ele>
        <time>2020-11-13T08:00:47.000Z</time>
      </trkpt>
      <trkpt lat="49.8434" lon="4.78584">
        <ele>296</ele>
        <time>2020-11-13T08:00:48.000Z</time>
      </trkpt>
      <trkpt lat="49.84343" lon="4.78583">
        <ele>296</ele>
        <time>2020-11-13T08:00:49.000Z</time>
      </trkpt>
      <trkpt lat="49.84345" lon="4.78582">
        <ele>296</ele>
        <time>2020-11-13T08:00:50.000Z</time>
      </trkpt>
      <trkpt lat="49.84347" lon="4.78581">
        <ele>296</ele>
        <time>2020-11-13T08:00:51.000Z</time>
      </trkpt>
      <trkpt lat="49.84349" lon="4.7858">
        <ele>296</ele>
        <time>2020-11-13T08:00:52.000Z</time>
      </trkpt>
      <trkpt lat="49.84351" lon="4.78579">
        <ele>296</ele>
        <time>2020-11-13T08:00:53.000Z</time>
      </trkpt>
      <trkpt lat="49.84353" lon="4.78579">
        <ele>296</ele>
        <time>2020-11-13T08:00:54.000Z</time>
      </trkpt>
      <trkpt lat="49.84355" lon="4.78579">
        <ele>296</ele>
        <time>2020-11-13T08:00:55.000Z</time>
      </trkpt>
      <trkpt lat="49.84358" lon="4.7858">
        <ele>296</ele>
        <time>2020-11-13T08:00:56.000Z</time>
      </trkpt>
      <trkpt lat="49.8436" lon="4.7858">
        <ele>296</ele>
        <time>2020-11-13T08:00:57.000Z</time>
      </trkpt>
      <trkpt lat="49.84363" lon="4.78581">
        <ele>296</ele>
        <time>2020-11-13T08:00:58.000Z</time>
      </trkpt>
      <trkpt lat="49.84365" lon="4.78581">
        <ele>296</ele>
        <time>2020-11-13T08:00:59.000Z</time>
      </trkpt>
      <trkpt lat="49.84368" lon="4.78582">
        <ele>296</ele>
        <time>2020-11-13T08:01:00.000Z</time>
      </trkpt>
      <trkpt lat="49.84371" lon="4.78582">
        <ele>296</ele>
        <time>2020-11-13T08:01:01.000Z</time>
      </trkpt>
      <trkpt lat="49.84374" lon="4.78582">
        <ele>296</ele>
        <time>2020-11-13T08:01:02.000Z</time>
      </trkpt>
      <trkpt lat="49.84378" lon="4.78581">
        <ele>296</ele>
        <time>2020-11-13T08:01:03.000Z</time>
      </trkpt>
      <trkpt lat="49.84381" lon="4.78581">
        <ele>296</ele>
        <time>2020-11-13T08:01:04.000Z</time>
      </trkpt>
      <trkpt lat="49.84385" lon="4.7858">
        <ele>296</ele>
        <time>2020-11-13T08:01:05.000Z</time>
      </trkpt>
      <trkpt lat="49.84388" lon="4.78578">
        <ele>296</ele>
        <time>2020-11-13T08:01:06.000Z</time>
      </trkpt>
      <trkpt lat="49.84392" lon="4.78575">
        <ele>296</ele>
        <time>2020-11-13T08:01:07.000Z</time>
      </trkpt>
      <trkpt lat="49.84395" lon="4.78571">
        <ele>296</ele>
        <time>2020-11-13T08:01:08.000Z</time>
      </trkpt>
      <trkpt lat="49.84398" lon="4.78567">
        <ele>296</ele>
        <time>2020-11-13T08:01:09.000Z</time>
      </trkpt>
      <trkpt lat="49.844" lon="4.78563">
        <ele>296</ele>
        <time>2020-11-13T08:01:10.000Z</time>
      </trkpt>
      <trkpt lat="49.84403" lon="4.78559">
        <ele>296</ele>
        <time>2020-11-13T08:01:11.000Z</time>
      </trkpt>
      <trkpt lat="49.84405" lon="4.78556">
        <ele>296</ele>
        <time>2020-11-13T08:01:12.000Z</time>
      </trkpt>
      <trkpt lat="49.84407" lon="4.78554">
        <ele>296</ele>
        <time>2020-11-13T08:01:13.000Z</time>
      </trkpt>
      <trkpt lat="49.84409" lon="4.7855">
        <ele>296</ele>
        <time>2020-11-13T08:01:14.000Z</time>
      </trkpt>
      <trkpt lat="49.8441" lon="4.78546">
        <ele>296</ele>
        <time>2020-11-13T08:01:15.000Z</time>
      </trkpt>
      <trkpt lat="49.84411" lon="4.78542">
        <ele>296</ele>
        <time>2020-11-13T08:01:16.000Z</time>
      </trkpt>
      <trkpt lat="49.84413" lon="4.78538">
        <ele>295</ele>
        <time>2020-11-13T08:01:17.000Z</time>
      </trkpt>
      <trkpt lat="49.84414" lon="4.78534">
        <ele>295</ele>
        <time>2020-11-13T08:01:18.000Z</time>
      </trkpt>
      <trkpt lat="49.84416" lon="4.7853">
        <ele>295</ele>
        <time>2020-11-13T08:01:19.000Z</time>
      </trkpt>
      <trkpt lat="49.84419" lon="4.78527">
        <ele>295</ele>
        <time>2020-11-13T08:01:20.000Z</time>
      </trkpt>
      <trkpt lat="49.84422" lon="4.78526">
        <ele>295</ele>
        <time>2020-11-13T08:01:21.000Z</time>
      </trkpt>
      <trkpt lat="49.84426" lon="4.78525">
        <ele>295</ele>
        <time>2020-11-13T08:01:22.000Z</time>
      </trkpt>
      <trkpt lat="49.84429" lon="4.78524">
        <ele>295</ele>
        <time>2020-11-13T08:01:23.000Z</time>
      </trkpt>
      <trkpt lat="49.84433" lon="4.78523">
        <ele>295</ele>
        <time>2020-11-13T08:01:24.000Z</time>
      </trkpt>
      <trkpt lat="49.84436" lon="4.78522">
        <ele>295</ele>
        <time>2020-11-13T08:01:25.000Z</time>
      </trkpt>
      <trkpt lat="49.84439" lon="4.7852">
        <ele>295</ele>
        <time>2020-11-13T08:01:26.000Z</time>
      </trkpt>
      <trkpt lat="49.84442" lon="4.78518">
        <ele>295</ele>
        <time>2020-11-13T08:01:27.000Z</time>
      </trkpt>
      <trkpt lat="49.84444" lon="4.78516">
        <ele>295</ele>
        <time>2020-11-13T08:01:28.000Z</time>
      </trkpt>
      <trkpt lat="49.84446" lon="4.78514">
        <ele>295</ele>
        <time>2020-11-13T08:01:29.000Z</time>
      </trkpt>
      <trkpt lat="49.84449" lon="4.78511">
        <ele>295</ele>
        <time>2020-11-13T08:01:30.000Z</time>
      </trkpt>
      <trkpt lat="49.84452" lon="4.78509">
        <ele>295</ele>
        <time>2020-11-13T08:01:31.000Z</time>
      </trkpt>
      <trkpt lat="49.84455" lon="4.78506">
        <ele>295</ele>
        <time>2020-11-13T08:01:32.000Z</time>
      </trkpt>
      <trkpt lat="49.84457" lon="4.78503">
        <ele>295</ele>
        <time>2020-11-13T08:01:33.000Z</time>
      </trkpt>
      <trkpt lat="49.8446" lon="4.78499">
        <ele>295</ele>
        <time>2020-11-13T08:01:34.000Z</time>
      </trkpt>
      <trkpt lat="49.84463" lon="4.78496">
        <ele>295</ele>
        <time>2020-11-13T08:01:35.000Z</time>
      </trkpt>
      <trkpt lat="49.84465" lon="4.78492">
        <ele>295</ele>
        <time>2020-11-13T08:01:36.000Z</time>
      </trkpt>
      <trkpt lat="49.84468" lon="4.78489">
        <ele>295</ele>
        <time>2020-11-13T08:01:37.000Z</time>
      </trkpt>
      <trkpt lat="49.84471" lon="4.78486">
        <ele>295</ele>
        <time>2020-11-13T08:01:38.000Z</time>
      </trkpt>
      <trkpt lat="49.84473" lon="4.78483">
        <ele>294</ele>
        <time>2020-11-13T08:01:39.000Z</time>
      </trkpt>
      <trkpt lat="49.84477" lon="4.7848">
        <ele>294</ele>
        <time>2020-11-13T08:01:40.000Z</time>
      </trkpt>
      <trkpt lat="49.8448" lon="4.78477">
        <ele>294</ele>
        <time>2020-11-13T08:01:41.000Z</time>
      </trkpt>
      <trkpt lat="49.84483" lon="4.78474">
        <ele>294</ele>
        <time>2020-11-13T08:01:42.000Z</time>
      </trkpt>
      <trkpt lat="49.84486" lon="4.7847">
        <ele>294</ele>
        <time>2020-11-13T08:01:43.000Z</time>
      </trkpt>
      <trkpt lat="49.84488" lon="4.78467">
        <ele>294</ele>
        <time>2020-11-13T08:01:44.000Z</time>
      </trkpt>
      <trkpt lat="49.84491" lon="4.78465">
        <ele>294</ele>
        <time>2020-11-13T08:01:45.000Z</time>
      </trkpt>
      <trkpt lat="49.84494" lon="4.78462">
        <ele>294</ele>
        <time>2020-11-13T08:01:46.000Z</time>
      </trkpt>
      <trkpt lat="49.84497" lon="4.78459">
        <ele>294</ele>
        <time>2020-11-13T08:01:47.000Z</time>
      </trkpt>
      <trkpt lat="49.84499" lon="4.78457">
        <ele>294</ele>
        <time>2020-11-13T08:01:48.000Z</time>
      </trkpt>
      <trkpt lat="49.84501" lon="4.78454">
        <ele>294</ele>
        <time>2020-11-13T08:01:49.000Z</time>
      </trkpt>
      <trkpt lat="49.84504" lon="4.78451">
        <ele>294</ele>
        <time>2020-11-13T08:01:50.000Z</time>
      </trkpt>
      <trkpt lat="49.84506" lon="4.78448">
        <ele>294</ele>
        <time>2020-11-13T08:01:51.000Z</time>
      </trkpt>
      <trkpt lat="49.84508" lon="4.78445">
        <ele>294</ele>
        <time>2020-11-13T08:01:52.000Z</time>
      </trkpt>
      <trkpt lat="49.8451" lon="4.78442">
        <ele>294</ele>
        <time>2020-11-13T08:01:53.000Z</time>
      </trkpt>
      <trkpt lat="49.84513" lon="4.7844">
        <ele>294</ele>
        <time>2020-11-13T08:01:54.000Z</time>
      </trkpt>
      <trkpt lat="49.84515" lon="4.78436">
        <ele>294</ele>
        <time>2020-11-13T08:01:55.000Z</time>
      </trkpt>
      <trkpt lat="49.84517" lon="4.78433">
        <ele>294</ele>
        <time>2020-11-13T08:01:56.000Z</time>
      </trkpt>
      <trkpt lat="49.8452" lon="4.78431">
        <ele>294</ele>
        <time>2020-11-13T08:01:57.000Z</time>
      </trkpt>
      <trkpt lat="49.84522" lon="4.78429">
        <ele>294</ele>
        <time>2020-11-13T08:01:58.000Z</time>
      </trkpt>
      <trkpt lat="49.84525" lon="4.78428">
        <ele>294</ele>
        <time>2020-11-13T08:01:59.000Z</time>
      </trkpt>
      <trkpt lat="49.84528" lon="4.78426">
        <ele>294</ele>
        <time>2020-11-13T08:02:00.000Z</time>
      </trkpt>
      <trkpt lat="49.84531" lon="4.78424">
        <ele>294</ele>
        <time>2020-11-13T08:02:01.000Z</time>
      </trkpt>
      <trkpt lat="49.84534" lon="4.78422">
        <ele>294</ele>
        <time>2020-11-13T08:02:02.000Z</time>
      </trkpt>
      <trkpt lat="49.84536" lon="4.78421">
        <ele>293</ele>
        <time>2020-11-13T08:02:03.000Z</time>
      </trkpt>
      <trkpt lat="49.84539" lon="4.78421">
        <ele>293</ele>
        <time>2020-11-13T08:02:04.000Z</time>
      </trkpt>
      <trkpt lat="49.84542" lon="4.7842">
        <ele>293</ele>
        <time>2020-11-13T08:02:05.000Z</time>
      </trkpt>
      <trkpt lat="49.84545" lon="4.7842">
        <ele>294</ele>
        <time>2020-11-13T08:02:06.000Z</time>
      </trkpt>
      <trkpt lat="49.84548" lon="4.78421">
        <ele>294</ele>
        <time>2020-11-13T08:02:07.000Z</time>
      </trkpt>
      <trkpt lat="49.84551" lon="4.78421">
        <ele>294</ele>
        <time>2020-11-13T08:02:08.000Z</time>
      </trkpt>
      <trkpt lat="49.84554" lon="4.78422">
        <ele>294</ele>
        <time>2020-11-13T08:02:09.000Z</time>
      </trkpt>
      <trkpt lat="49.84556" lon="4.78422">
        <ele>294</ele>
        <time>2020-11-13T08:02:10.000Z</time>
      </trkpt>
      <trkpt lat="49.84559" lon="4.78422">
        <ele>294</ele>
        <time>2020-11-13T08:02:11.000Z</time>
      </trkpt>
      <trkpt lat="49.8456" lon="4.78422">
        <ele>294</ele>
        <time>2020-11-13T08:02:12.000Z</time>
      </trkpt>
      <trkpt lat="49.84562" lon="4.78421">
        <ele>295</ele>
        <time>2020-11-13T08:02:13.000Z</time>
      </trkpt>
      <trkpt lat="49.84565" lon="4.78421">
        <ele>295</ele>
        <time>2020-11-13T08:02:14.000Z</time>
      </trkpt>
      <trkpt lat="49.84567" lon="4.7842">
        <ele>295</ele>
        <time>2020-11-13T08:02:15.000Z</time>
      </trkpt>
      <trkpt lat="49.84569" lon="4.78419">
        <ele>295</ele>
        <time>2020-11-13T08:02:16.000Z</time>
      </trkpt>
      <trkpt lat="49.84571" lon="4.78419">
        <ele>295</ele>
        <time>2020-11-13T08:02:17.000Z</time>
      </trkpt>
      <trkpt lat="49.84572" lon="4.78418">
        <ele>295</ele>
        <time>2020-11-13T08:02:18.000Z</time>
      </trkpt>
      <trkpt lat="49.84574" lon="4.78417">
        <ele>295</ele>
        <time>2020-11-13T08:02:19.000Z</time>
      </trkpt>
      <trkpt lat="49.84576" lon="4.78416">
        <ele>296</ele>
        <time>2020-11-13T08:02:20.000Z</time>
      </trkpt>
      <trkpt lat="49.84578" lon="4.78415">
        <ele>296</ele>
        <time>2020-11-13T08:02:21.000Z</time>
      </trkpt>
      <trkpt lat="49.8458" lon="4.78413">
        <ele>296</ele>
        <time>2020-11-13T08:02:22.000Z</time>
      </trkpt>
      <trkpt lat="49.84581" lon="4.78411">
        <ele>296</ele>
        <time>2020-11-13T08:02:23.000Z</time>
      </trkpt>
      <trkpt lat="49.84583" lon="4.7841">
        <ele>296</ele>
        <time>2020-11-13T08:02:24.000Z</time>
      </trkpt>
      <trkpt lat="49.84584" lon="4.78408">
        <ele>297</ele>
        <time>2020-11-13T08:02:25.000Z</time>
      </trkpt>
      <trkpt lat="49.84585" lon="4.78406">
        <ele>297</ele>
        <time>2020-11-13T08:02:26.000Z</time>
      </trkpt>
      <trkpt lat="49.84586" lon="4.78404">
        <ele>297</ele>
        <time>2020-11-13T08:02:27.000Z</time>
      </trkpt>
      <trkpt lat="49.84587" lon="4.78402">
        <ele>297</ele>
        <time>2020-11-13T08:02:28.000Z</time>
      </trkpt>
      <trkpt lat="49.84589" lon="4.784">
        <ele>297</ele>
        <time>2020-11-13T08:02:29.000Z</time>
      </trkpt>
      <trkpt lat="49.84591" lon="4.78398">
        <ele>298</ele>
        <time>2020-11-13T08:02:30.000Z</time>
      </trkpt>
      <trkpt lat="49.84593" lon="4.78397">
        <ele>298</ele>
        <time>2020-11-13T08:02:31.000Z</time>
      </trkpt>
      <trkpt lat="49.84595" lon="4.78395">
        <ele>298</ele>
        <time>2020-11-13T08:02:32.000Z</time>
      </trkpt>
      <trkpt lat="49.84596" lon="4.78394">
        <ele>298</ele>
        <time>2020-11-13T08:02:33.000Z</time>
      </trkpt>
      <trkpt lat="49.84598" lon="4.78392">
        <ele>298</ele>
        <time>2020-11-13T08:02:34.000Z</time>
      </trkpt>
      <trkpt lat="49.84599" lon="4.78391">
        <ele>298</ele>
        <time>2020-11-13T08:02:35.000Z</time>
      </trkpt>
      <trkpt lat="49.84601" lon="4.7839">
        <ele>298</ele>
        <time>2020-11-13T08:02:36.000Z</time>
      </trkpt>
      <trkpt lat="49.84602" lon="4.78389">
        <ele>298</ele>
        <time>2020-11-13T08:02:37.000Z</time>
      </trkpt>
      <trkpt lat="49.84604" lon="4.78389">
        <ele>298</ele>
        <time>2020-11-13T08:02:38.000Z</time>
      </trkpt>
      <trkpt lat="49.84605" lon="4.78388">
        <ele>298</ele>
        <time>2020-11-13T08:02:39.000Z</time>
      </trkpt>
      <trkpt lat="49.84607" lon="4.78388">
        <ele>298</ele>
        <time>2020-11-13T08:02:40.000Z</time>
      </trkpt>
      <trkpt lat="49.8461" lon="4.78389">
        <ele>298</ele>
        <time>2020-11-13T08:02:41.000Z</time>
      </trkpt>
      <trkpt lat="49.84612" lon="4.7839">
        <ele>298</ele>
        <time>2020-11-13T08:02:42.000Z</time>
      </trkpt>
      <trkpt lat="49.84614" lon="4.78391">
        <ele>299</ele>
        <time>2020-11-13T08:02:43.000Z</time>
      </trkpt>
      <trkpt lat="49.84616" lon="4.78391">
        <ele>299</ele>
        <time>2020-11-13T08:02:44.000Z</time>
      </trkpt>
      <trkpt lat="49.84618" lon="4.78392">
        <ele>299</ele>
        <time>2020-11-13T08:02:45.000Z</time>
      </trkpt>
      <trkpt lat="49.84619" lon="4.78392">
        <ele>299</ele>
        <time>2020-11-13T08:02:46.000Z</time>
      </trkpt>
      <trkpt lat="49.8462" lon="4.78392">
        <ele>299</ele>
        <time>2020-11-13T08:02:47.000Z</time>
      </trkpt>
      <trkpt lat="49.84621" lon="4.78392">
        <ele>299</ele>
        <time>2020-11-13T08:02:48.000Z</time>
      </trkpt>
      <trkpt lat="49.84623" lon="4.78391">
        <ele>300</ele>
        <time>2020-11-13T08:02:49.000Z</time>
      </trkpt>
      <trkpt lat="49.84624" lon="4.78391">
        <ele>300</ele>
        <time>2020-11-13T08:02:50.000Z</time>
      </trkpt>
      <trkpt lat="49.84626" lon="4.78392">
        <ele>300</ele>
        <time>2020-11-13T08:02:51.000Z</time>
      </trkpt>
      <trkpt lat="49.84627" lon="4.78392">
        <ele>300</ele>
        <time>2020-11-13T08:02:52.000Z</time>
      </trkpt>
      <trkpt lat="49.84629" lon="4.78392">
        <ele>301</ele>
        <time>2020-11-13T08:02:53.000Z</time>
      </trkpt>
      <trkpt lat="49.8463" lon="4.78392">
        <ele>301</ele>
        <time>2020-11-13T08:02:54.000Z</time>
      </trkpt>
      <trkpt lat="49.84632" lon="4.78392">
        <ele>301</ele>
        <time>2020-11-13T08:02:55.000Z</time>
      </trkpt>
      <trkpt lat="49.84634" lon="4.78392">
        <ele>301</ele>
        <time>2020-11-13T08:02:56.000Z</time>
      </trkpt>
      <trkpt lat="49.84636" lon="4.78391">
        <ele>302</ele>
        <time>2020-11-13T08:02:57.000Z</time>
      </trkpt>
      <trkpt lat="49.84637" lon="4.7839">
        <ele>302</ele>
        <time>2020-11-13T08:02:58.000Z</time>
      </trkpt>
      <trkpt lat="49.84638" lon="4.7839">
        <ele>302</ele>
        <time>2020-11-13T08:02:59.000Z</time>
      </trkpt>
      <trkpt lat="49.8464" lon="4.78388">
        <ele>302</ele>
        <time>2020-11-13T08:03:00.000Z</time>
      </trkpt>
      <trkpt lat="49.84641" lon="4.78387">
        <ele>303</ele>
        <time>2020-11-13T08:03:01.000Z</time>
      </trkpt>
      <trkpt lat="49.84643" lon="4.78386">
        <ele>303</ele>
        <time>2020-11-13T08:03:02.000Z</time>
      </trkpt>
      <trkpt lat="49.84644" lon="4.78385">
        <ele>303</ele>
        <time>2020-11-13T08:03:03.000Z</time>
      </trkpt>
      <trkpt lat="49.84646" lon="4.78384">
        <ele>304</ele>
        <time>2020-11-13T08:03:04.000Z</time>
      </trkpt>
      <trkpt lat="49.84649" lon="4.78382">
        <ele>304</ele>
        <time>2020-11-13T08:03:05.000Z</time>
      </trkpt>
      <trkpt lat="49.84651" lon="4.78381">
        <ele>304</ele>
        <time>2020-11-13T08:03:06.000Z</time>
      </trkpt>
      <trkpt lat="49.84653" lon="4.7838">
        <ele>304</ele>
        <time>2020-11-13T08:03:07.000Z</time>
      </trkpt>
      <trkpt lat="49.84656" lon="4.78379">
        <ele>305</ele>
        <time>2020-11-13T08:03:08.000Z</time>
      </trkpt>
      <trkpt lat="49.84658" lon="4.78378">
        <ele>305</ele>
        <time>2020-11-13T08:03:09.000Z</time>
      </trkpt>
      <trkpt lat="49.8466" lon="4.78377">
        <ele>305</ele>
        <time>2020-11-13T08:03:10.000Z</time>
      </trkpt>
      <trkpt lat="49.84663" lon="4.78375">
        <ele>305</ele>
        <time>2020-11-13T08:03:11.000Z</time>
      </trkpt>
      <trkpt lat="49.84665" lon="4.78374">
        <ele>305</ele>
        <time>2020-11-13T08:03:12.000Z</time>
      </trkpt>
      <trkpt lat="49.84668" lon="4.78372">
        <ele>306</ele>
        <time>2020-11-13T08:03:13.000Z</time>
      </trkpt>
      <trkpt lat="49.8467" lon="4.78371">
        <ele>306</ele>
        <time>2020-11-13T08:03:14.000Z</time>
      </trkpt>
      <trkpt lat="49.84672" lon="4.7837">
        <ele>306</ele>
        <time>2020-11-13T08:03:15.000Z</time>
      </trkpt>
      <trkpt lat="49.84675" lon="4.78368">
        <ele>306</ele>
        <time>2020-11-13T08:03:16.000Z</time>
      </trkpt>
      <trkpt lat="49.84677" lon="4.78367">
        <ele>307</ele>
        <time>2020-11-13T08:03:17.000Z</time>
      </trkpt>
      <trkpt lat="49.84679" lon="4.78367">
        <ele>307</ele>
        <time>2020-11-13T08:03:18.000Z</time>
      </trkpt>
      <trkpt lat="49.84681" lon="4.78366">
        <ele>307</ele>
        <time>2020-11-13T08:03:19.000Z</time>
      </trkpt>
      <trkpt lat="49.84682" lon="4.78365">
        <ele>308</ele>
        <time>2020-11-13T08:03:20.000Z</time>
      </trkpt>
      <trkpt lat="49.84684" lon="4.78365">
        <ele>308</ele>
        <time>2020-11-13T08:03:21.000Z</time>
      </trkpt>
      <trkpt lat="49.84686" lon="4.78365">
        <ele>308</ele>
        <time>2020-11-13T08:03:22.000Z</time>
      </trkpt>
      <trkpt lat="49.84688" lon="4.78365">
        <ele>309</ele>
        <time>2020-11-13T08:03:23.000Z</time>
      </trkpt>
      <trkpt lat="49.84689" lon="4.78364">
        <ele>309</ele>
        <time>2020-11-13T08:03:24.000Z</time>
      </trkpt>
      <trkpt lat="49.84692" lon="4.78364">
        <ele>309</ele>
        <time>2020-11-13T08:03:25.000Z</time>
      </trkpt>
      <trkpt lat="49.84694" lon="4.78364">
        <ele>309</ele>
        <time>2020-11-13T08:03:26.000Z</time>
      </trkpt>
      <trkpt lat="49.84697" lon="4.78364">
        <ele>310</ele>
        <time>2020-11-13T08:03:27.000Z</time>
      </trkpt>
      <trkpt lat="49.847" lon="4.78364">
        <ele>310</ele>
        <time>2020-11-13T08:03:28.000Z</time>
      </trkpt>
      <trkpt lat="49.84703" lon="4.78364">
        <ele>310</ele>
        <time>2020-11-13T08:03:29.000Z</time>
      </trkpt>
      <trkpt lat="49.84707" lon="4.78364">
        <ele>310</ele>
        <time>2020-11-13T08:03:30.000Z</time>
      </trkpt>
      <trkpt lat="49.84711" lon="4.78364">
        <ele>310</ele>
        <time>2020-11-13T08:03:31.000Z</time>
      </trkpt>
      <trkpt lat="49.84715" lon="4.78364">
        <ele>309</ele>
        <time>2020-11-13T08:03:32.000Z</time>
      </trkpt>
      <trkpt lat="49.8472" lon="4.78365">
        <ele>309</ele>
        <time>2020-11-13T08:03:33.000Z</time>
      </trkpt>
      <trkpt lat="49.84723" lon="4.78367">
        <ele>309</ele>
        <time>2020-11-13T08:03:34.000Z</time>
      </trkpt>
      <trkpt lat="49.84726" lon="4.7837">
        <ele>309</ele>
        <time>2020-11-13T08:03:35.000Z</time>
      </trkpt>
      <trkpt lat="49.84728" lon="4.78373">
        <ele>309</ele>
        <time>2020-11-13T08:03:36.000Z</time>
      </trkpt>
      <trkpt lat="49.84729" lon="4.78376">
        <ele>310</ele>
        <time>2020-11-13T08:03:37.000Z</time>
      </trkpt>
      <trkpt lat="49.84731" lon="4.78379">
        <ele>310</ele>
        <time>2020-11-13T08:03:38.000Z</time>
      </trkpt>
      <trkpt lat="49.84732" lon="4.78381">
        <ele>310</ele>
        <time>2020-11-13T08:03:39.000Z</time>
      </trkpt>
      <trkpt lat="49.84732" lon="4.78384">
        <ele>310</ele>
        <time>2020-11-13T08:03:40.000Z</time>
      </trkpt>
      <trkpt lat="49.84733" lon="4.78386">
        <ele>311</ele>
        <time>2020-11-13T08:03:41.000Z</time>
      </trkpt>
      <trkpt lat="49.84733" lon="4.78389">
        <ele>311</ele>
        <time>2020-11-13T08:03:42.000Z</time>
      </trkpt>
      <trkpt lat="49.84734" lon="4.78391">
        <ele>311</ele>
        <time>2020-11-13T08:03:43.000Z</time>
      </trkpt>
      <trkpt lat="49.84734" lon="4.78394">
        <ele>311</ele>
        <time>2020-11-13T08:03:44.000Z</time>
      </trkpt>
      <trkpt lat="49.84735" lon="4.78397">
        <ele>311</ele>
        <time>2020-11-13T08:03:45.000Z</time>
      </trkpt>
      <trkpt lat="49.84735" lon="4.784">
        <ele>312</ele>
        <time>2020-11-13T08:03:46.000Z</time>
      </trkpt>
      <trkpt lat="49.84734" lon="4.78403">
        <ele>312</ele>
        <time>2020-11-13T08:03:47.000Z</time>
      </trkpt>
      <trkpt lat="49.84734" lon="4.78406">
        <ele>312</ele>
        <time>2020-11-13T08:03:48.000Z</time>
      </trkpt>
      <trkpt lat="49.84734" lon="4.78409">
        <ele>312</ele>
        <time>2020-11-13T08:03:49.000Z</time>
      </trkpt>
      <trkpt lat="49.84733" lon="4.78412">
        <ele>312</ele>
        <time>2020-11-13T08:03:50.000Z</time>
      </trkpt>
      <trkpt lat="49.84733" lon="4.78416">
        <ele>312</ele>
        <time>2020-11-13T08:03:51.000Z</time>
      </trkpt>
      <trkpt lat="49.84733" lon="4.7842">
        <ele>313</ele>
        <time>2020-11-13T08:03:52.000Z</time>
      </trkpt>
      <trkpt lat="49.84732" lon="4.78423">
        <ele>313</ele>
        <time>2020-11-13T08:03:53.000Z</time>
      </trkpt>
      <trkpt lat="49.84731" lon="4.78427">
        <ele>313</ele>
        <time>2020-11-13T08:03:54.000Z</time>
      </trkpt>
      <trkpt lat="49.8473" lon="4.7843">
        <ele>313</ele>
        <time>2020-11-13T08:03:55.000Z</time>
      </trkpt>
      <trkpt lat="49.8473" lon="4.78434">
        <ele>313</ele>
        <time>2020-11-13T08:03:56.000Z</time>
      </trkpt>
      <trkpt lat="49.84729" lon="4.78437">
        <ele>313</ele>
        <time>2020-11-13T08:03:57.000Z</time>
      </trkpt>
      <trkpt lat="49.84729" lon="4.78441">
        <ele>313</ele>
        <time>2020-11-13T08:03:58.000Z</time>
      </trkpt>
      <trkpt lat="49.84728" lon="4.78444">
        <ele>314</ele>
        <time>2020-11-13T08:03:59.000Z</time>
      </trkpt>
      <trkpt lat="49.84728" lon="4.78447">
        <ele>314</ele>
        <time>2020-11-13T08:04:00.000Z</time>
      </trkpt>
      <trkpt lat="49.84727" lon="4.7845">
        <ele>314</ele>
        <time>2020-11-13T08:04:01.000Z</time>
      </trkpt>
      <trkpt lat="49.84726" lon="4.78454">
        <ele>314</ele>
        <time>2020-11-13T08:04:02.000Z</time>
      </trkpt>
      <trkpt lat="49.84726" lon="4.78457">
        <ele>315</ele>
        <time>2020-11-13T08:04:03.000Z</time>
      </trkpt>
      <trkpt lat="49.84725" lon="4.7846">
        <ele>315</ele>
        <time>2020-11-13T08:04:04.000Z</time>
      </trkpt>
      <trkpt lat="49.84725" lon="4.78463">
        <ele>315</ele>
        <time>2020-11-13T08:04:05.000Z</time>
      </trkpt>
      <trkpt lat="49.84724" lon="4.78465">
        <ele>315</ele>
        <time>2020-11-13T08:04:06.000Z</time>
      </trkpt>
      <trkpt lat="49.84724" lon="4.78468">
        <ele>315</ele>
        <time>2020-11-13T08:04:07.000Z</time>
      </trkpt>
      <trkpt lat="49.84724" lon="4.78471">
        <ele>315</ele>
        <time>2020-11-13T08:04:08.000Z</time>
      </trkpt>
      <trkpt lat="49.84723" lon="4.78475">
        <ele>316</ele>
        <time>2020-11-13T08:04:09.000Z</time>
      </trkpt>
      <trkpt lat="49.84722" lon="4.78477">
        <ele>316</ele>
        <time>2020-11-13T08:04:10.000Z</time>
      </trkpt>
      <trkpt lat="49.84722" lon="4.7848">
        <ele>316</ele>
        <time>2020-11-13T08:04:11.000Z</time>
      </trkpt>
      <trkpt lat="49.84721" lon="4.78483">
        <ele>316</ele>
        <time>2020-11-13T08:04:12.000Z</time>
      </trkpt>
      <trkpt lat="49.84721" lon="4.78487">
        <ele>316</ele>
        <time>2020-11-13T08:04:13.000Z</time>
      </trkpt>
      <trkpt lat="49.8472" lon="4.7849">
        <ele>316</ele>
        <time>2020-11-13T08:04:14.000Z</time>
      </trkpt>
      <trkpt lat="49.84719" lon="4.78494">
        <ele>317</ele>
        <time>2020-11-13T08:04:15.000Z</time>
      </trkpt>
      <trkpt lat="49.84718" lon="4.78497">
        <ele>317</ele>
        <time>2020-11-13T08:04:16.000Z</time>
      </trkpt>
      <trkpt lat="49.84717" lon="4.785">
        <ele>317</ele>
        <time>2020-11-13T08:04:17.000Z</time>
      </trkpt>
      <trkpt lat="49.84716" lon="4.78504">
        <ele>317</ele>
        <time>2020-11-13T08:04:18.000Z</time>
      </trkpt>
      <trkpt lat="49.84716" lon="4.78507">
        <ele>317</ele>
        <time>2020-11-13T08:04:19.000Z</time>
      </trkpt>
      <trkpt lat="49.84715" lon="4.78511">
        <ele>317</ele>
        <time>2020-11-13T08:04:20.000Z</time>
      </trkpt>
      <trkpt lat="49.84715" lon="4.78515">
        <ele>317</ele>
        <time>2020-11-13T08:04:21.000Z</time>
      </trkpt>
      <trkpt lat="49.84714" lon="4.78519">
        <ele>317</ele>
        <time>2020-11-13T08:04:22.000Z</time>
      </trkpt>
      <trkpt lat="49.84714" lon="4.78522">
        <ele>317</ele>
        <time>2020-11-13T08:04:23.000Z</time>
      </trkpt>
      <trkpt lat="49.84713" lon="4.78526">
        <ele>318</ele>
        <time>2020-11-13T08:04:24.000Z</time>
      </trkpt>
      <trkpt lat="49.84713" lon="4.78529">
        <ele>318</ele>
        <time>2020-11-13T08:04:25.000Z</time>
      </trkpt>
      <trkpt lat="49.84712" lon="4.78532">
        <ele>318</ele>
        <time>2020-11-13T08:04:26.000Z</time>
      </trkpt>
      <trkpt lat="49.84712" lon="4.78536">
        <ele>318</ele>
        <time>2020-11-13T08:04:27.000Z</time>
      </trkpt>
      <trkpt lat="49.84711" lon="4.78539">
        <ele>319</ele>
        <time>2020-11-13T08:04:28.000Z</time>
      </trkpt>
      <trkpt lat="49.8471" lon="4.78543">
        <ele>319</ele>
        <time>2020-11-13T08:04:29.000Z</time>
      </trkpt>
      <trkpt lat="49.8471" lon="4.78546">
        <ele>319</ele>
        <time>2020-11-13T08:04:30.000Z</time>
      </trkpt>
      <trkpt lat="49.84709" lon="4.78549">
        <ele>319</ele>
        <time>2020-11-13T08:04:31.000Z</time>
      </trkpt>
      <trkpt lat="49.84709" lon="4.78552">
        <ele>320</ele>
        <time>2020-11-13T08:04:32.000Z</time>
      </trkpt>
      <trkpt lat="49.84709" lon="4.78556">
        <ele>320</ele>
        <time>2020-11-13T08:04:33.000Z</time>
      </trkpt>
      <trkpt lat="49.84709" lon="4.78559">
        <ele>320</ele>
        <time>2020-11-13T08:04:34.000Z</time>
      </trkpt>
      <trkpt lat="49.84708" lon="4.78563">
        <ele>320</ele>
        <time>2020-11-13T08:04:35.000Z</time>
      </trkpt>
      <trkpt lat="49.84708" lon="4.78566">
        <ele>321</ele>
        <time>2020-11-13T08:04:36.000Z</time>
      </trkpt>
      <trkpt lat="49.84708" lon="4.7857">
        <ele>321</ele>
        <time>2020-11-13T08:04:37.000Z</time>
      </trkpt>
      <trkpt lat="49.84708" lon="4.78574">
        <ele>321</ele>
        <time>2020-11-13T08:04:38.000Z</time>
      </trkpt>
      <trkpt lat="49.84708" lon="4.78578">
        <ele>321</ele>
        <time>2020-11-13T08:04:39.000Z</time>
      </trkpt>
      <trkpt lat="49.84709" lon="4.78581">
        <ele>322</ele>
        <time>2020-11-13T08:04:40.000Z</time>
      </trkpt>
      <trkpt lat="49.84709" lon="4.78585">
        <ele>322</ele>
        <time>2020-11-13T08:04:41.000Z</time>
      </trkpt>
      <trkpt lat="49.84709" lon="4.78589">
        <ele>322</ele>
        <time>2020-11-13T08:04:42.000Z</time>
      </trkpt>
      <trkpt lat="49.8471" lon="4.78593">
        <ele>322</ele>
        <time>2020-11-13T08:04:43.000Z</time>
      </trkpt>
      <trkpt lat="49.8471" lon="4.78597">
        <ele>323</ele>
        <time>2020-11-13T08:04:44.000Z</time>
      </trkpt>
      <trkpt lat="49.8471" lon="4.78601">
        <ele>323</ele>
        <time>2020-11-13T08:04:45.000Z</time>
      </trkpt>
      <trkpt lat="49.8471" lon="4.78604">
        <ele>323</ele>
        <time>2020-11-13T08:04:46.000Z</time>
      </trkpt>
      <trkpt lat="49.8471" lon="4.78608">
        <ele>323</ele>
        <time>2020-11-13T08:04:47.000Z</time>
      </trkpt>
      <trkpt lat="49.8471" lon="4.78611">
        <ele>323</ele>
        <time>2020-11-13T08:04:48.000Z</time>
      </trkpt>
      <trkpt lat="49.8471" lon="4.78614">
        <ele>324</ele>
        <time>2020-11-13T08:04:49.000Z</time>
      </trkpt>
      <trkpt lat="49.84709" lon="4.78617">
        <ele>324</ele>
        <time>2020-11-13T08:04:50.000Z</time>
      </trkpt>
      <trkpt lat="49.84709" lon="4.7862">
        <ele>324</ele>
        <time>2020-11-13T08:04:51.000Z</time>
      </trkpt>
      <trkpt lat="49.84709" lon="4.78622">
        <ele>324</ele>
        <time>2020-11-13T08:04:52.000Z</time>
      </trkpt>
      <trkpt lat="49.84709" lon="4.78625">
        <ele>324</ele>
        <time>2020-11-13T08:04:53.000Z</time>
      </trkpt>
      <trkpt lat="49.84708" lon="4.78627">
        <ele>325</ele>
        <time>2020-11-13T08:04:54.000Z</time>
      </trkpt>
      <trkpt lat="49.84708" lon="4.7863">
        <ele>325</ele>
        <time>2020-11-13T08:04:55.000Z</time>
      </trkpt>
      <trkpt lat="49.84707" lon="4.78633">
        <ele>325</ele>
        <time>2020-11-13T08:04:56.000Z</time>
      </trkpt>
      <trkpt lat="49.84707" lon="4.78636">
        <ele>325</ele>
        <time>2020-11-13T08:04:57.000Z</time>
      </trkpt>
      <trkpt lat="49.84706" lon="4.78638">
        <ele>325</ele>
        <time>2020-11-13T08:04:58.000Z</time>
      </trkpt>
      <trkpt lat="49.84706" lon="4.78641">
        <ele>326</ele>
        <time>2020-11-13T08:04:59.000Z</time>
      </trkpt>
      <trkpt lat="49.84705" lon="4.78643">
        <ele>326</ele>
        <time>2020-11-13T08:05:00.000Z</time>
      </trkpt>
      <trkpt lat="49.84705" lon="4.78646">
        <ele>326</ele>
        <time>2020-11-13T08:05:01.000Z</time>
      </trkpt>
      <trkpt lat="49.84704" lon="4.78648">
        <ele>326</ele>
        <time>2020-11-13T08:05:02.000Z</time>
      </trkpt>
      <trkpt lat="49.84704" lon="4.78651">
        <ele>327</ele>
        <time>2020-11-13T08:05:03.000Z</time>
      </trkpt>
      <trkpt lat="49.84704" lon="4.78653">
        <ele>327</ele>
        <time>2020-11-13T08:05:04.000Z</time>
      </trkpt>
      <trkpt lat="49.84704" lon="4.78656">
        <ele>327</ele>
        <time>2020-11-13T08:05:05.000Z</time>
      </trkpt>
      <trkpt lat="49.84704" lon="4.78658">
        <ele>327</ele>
        <time>2020-11-13T08:05:06.000Z</time>
      </trkpt>
      <trkpt lat="49.84704" lon="4.78661">
        <ele>327</ele>
        <time>2020-11-13T08:05:07.000Z</time>
      </trkpt>
      <trkpt lat="49.84704" lon="4.78663">
        <ele>327</ele>
        <time>2020-11-13T08:05:08.000Z</time>
      </trkpt>
      <trkpt lat="49.84704" lon="4.78666">
        <ele>328</ele>
        <time>2020-11-13T08:05:09.000Z</time>
      </trkpt>
      <trkpt lat="49.84704" lon="4.78668">
        <ele>328</ele>
        <time>2020-11-13T08:05:10.000Z</time>
      </trkpt>
      <trkpt lat="49.84704" lon="4.78671">
        <ele>328</ele>
        <time>2020-11-13T08:05:11.000Z</time>
      </trkpt>
      <trkpt lat="49.84704" lon="4.78673">
        <ele>328</ele>
        <time>2020-11-13T08:05:12.000Z</time>
      </trkpt>
      <trkpt lat="49.84704" lon="4.78676">
        <ele>329</ele>
        <time>2020-11-13T08:05:13.000Z</time>
      </trkpt>
      <trkpt lat="49.84705" lon="4.78679">
        <ele>329</ele>
        <time>2020-11-13T08:05:14.000Z</time>
      </trkpt>
      <trkpt lat="49.84705" lon="4.78682">
        <ele>330</ele>
        <time>2020-11-13T08:05:15.000Z</time>
      </trkpt>
      <trkpt lat="49.84705" lon="4.78685">
        <ele>330</ele>
        <time>2020-11-13T08:05:16.000Z</time>
      </trkpt>
      <trkpt lat="49.84705" lon="4.78688">
        <ele>331</ele>
        <time>2020-11-13T08:05:17.000Z</time>
      </trkpt>
      <trkpt lat="49.84706" lon="4.78691">
        <ele>331</ele>
        <time>2020-11-13T08:05:18.000Z</time>
      </trkpt>
      <trkpt lat="49.84706" lon="4.78694">
        <ele>331</ele>
        <time>2020-11-13T08:05:19.000Z</time>
      </trkpt>
      <trkpt lat="49.84706" lon="4.78698">
        <ele>331</ele>
        <time>2020-11-13T08:05:20.000Z</time>
      </trkpt>
      <trkpt lat="49.84706" lon="4.78701">
        <ele>332</ele>
        <time>2020-11-13T08:05:21.000Z</time>
      </trkpt>
      <trkpt lat="49.84707" lon="4.78704">
        <ele>332</ele>
        <time>2020-11-13T08:05:22.000Z</time>
      </trkpt>
      <trkpt lat="49.84707" lon="4.78708">
        <ele>332</ele>
        <time>2020-11-13T08:05:23.000Z</time>
      </trkpt>
      <trkpt lat="49.84707" lon="4.78711">
        <ele>332</ele>
        <time>2020-11-13T08:05:24.000Z</time>
      </trkpt>
      <trkpt lat="49.84707" lon="4.78714">
        <ele>332</ele>
        <time>2020-11-13T08:05:25.000Z</time>
      </trkpt>
      <trkpt lat="49.84708" lon="4.78717">
        <ele>333</ele>
        <time>2020-11-13T08:05:26.000Z</time>
      </trkpt>
      <trkpt lat="49.84708" lon="4.78721">
        <ele>333</ele>
        <time>2020-11-13T08:05:27.000Z</time>
      </trkpt>
      <trkpt lat="49.84708" lon="4.78725">
        <ele>333</ele>
        <time>2020-11-13T08:05:28.000Z</time>
      </trkpt>
      <trkpt lat="49.84709" lon="4.78728">
        <ele>333</ele>
        <time>2020-11-13T08:05:29.000Z</time>
      </trkpt>
      <trkpt lat="49.84709" lon="4.78732">
        <ele>333</ele>
        <time>2020-11-13T08:05:30.000Z</time>
      </trkpt>
      <trkpt lat="49.84709" lon="4.78735">
        <ele>334</ele>
        <time>2020-11-13T08:05:31.000Z</time>
      </trkpt>
      <trkpt lat="49.84709" lon="4.78739">
        <ele>334</ele>
        <time>2020-11-13T08:05:32.000Z</time>
      </trkpt>
      <trkpt lat="49.8471" lon="4.78743">
        <ele>334</ele>
        <time>2020-11-13T08:05:33.000Z</time>
      </trkpt>
      <trkpt lat="49.8471" lon="4.78747">
        <ele>334</ele>
        <time>2020-11-13T08:05:34.000Z</time>
      </trkpt>
      <trkpt lat="49.8471" lon="4.7875">
        <ele>334</ele>
        <time>2020-11-13T08:05:35.000Z</time>
      </trkpt>
      <trkpt lat="49.8471" lon="4.78754">
        <ele>335</ele>
        <time>2020-11-13T08:05:36.000Z</time>
      </trkpt>
      <trkpt lat="49.84711" lon="4.78757">
        <ele>335</ele>
        <time>2020-11-13T08:05:37.000Z</time>
      </trkpt>
      <trkpt lat="49.84711" lon="4.7876">
        <ele>335</ele>
        <time>2020-11-13T08:05:38.000Z</time>
      </trkpt>
      <trkpt lat="49.84711" lon="4.78764">
        <ele>335</ele>
        <time>2020-11-13T08:05:39.000Z</time>
      </trkpt>
      <trkpt lat="49.84711" lon="4.78767">
        <ele>335</ele>
        <time>2020-11-13T08:05:40.000Z</time>
      </trkpt>
      <trkpt lat="49.84712" lon="4.78771">
        <ele>335</ele>
        <time>2020-11-13T08:05:41.000Z</time>
      </trkpt>
      <trkpt lat="49.84712" lon="4.78775">
        <ele>335</ele>
        <time>2020-11-13T08:05:42.000Z</time>
      </trkpt>
      <trkpt lat="49.84713" lon="4.78778">
        <ele>335</ele>
        <time>2020-11-13T08:05:43.000Z</time>
      </trkpt>
      <trkpt lat="49.84713" lon="4.78782">
        <ele>335</ele>
        <time>2020-11-13T08:05:44.000Z</time>
      </trkpt>
      <trkpt lat="49.84713" lon="4.78786">
        <ele>335</ele>
        <time>2020-11-13T08:05:45.000Z</time>
      </trkpt>
      <trkpt lat="49.84714" lon="4.7879">
        <ele>335</ele>
        <time>2020-11-13T08:05:46.000Z</time>
      </trkpt>
      <trkpt lat="49.84714" lon="4.78794">
        <ele>336</ele>
        <time>2020-11-13T08:05:47.000Z</time>
      </trkpt>
      <trkpt lat="49.84714" lon="4.78798">
        <ele>336</ele>
        <time>2020-11-13T08:05:48.000Z</time>
      </trkpt>
      <trkpt lat="49.84715" lon="4.78802">
        <ele>336</ele>
        <time>2020-11-13T08:05:49.000Z</time>
      </trkpt>
      <trkpt lat="49.84715" lon="4.78806">
        <ele>336</ele>
        <time>2020-11-13T08:05:50.000Z</time>
      </trkpt>
      <trkpt lat="49.84715" lon="4.78811">
        <ele>336</ele>
        <time>2020-11-13T08:05:51.000Z</time>
      </trkpt>
      <trkpt lat="49.84716" lon="4.78815">
        <ele>336</ele>
        <time>2020-11-13T08:05:52.000Z</time>
      </trkpt>
      <trkpt lat="49.84716" lon="4.7882">
        <ele>336</ele>
        <time>2020-11-13T08:05:53.000Z</time>
      </trkpt>
      <trkpt lat="49.84716" lon="4.78825">
        <ele>336</ele>
        <time>2020-11-13T08:05:54.000Z</time>
      </trkpt>
      <trkpt lat="49.84717" lon="4.7883">
        <ele>336</ele>
        <time>2020-11-13T08:05:55.000Z</time>
      </trkpt>
      <trkpt lat="49.84717" lon="4.78835">
        <ele>335</ele>
        <time>2020-11-13T08:05:56.000Z</time>
      </trkpt>
      <trkpt lat="49.84718" lon="4.7884">
        <ele>335</ele>
        <time>2020-11-13T08:05:57.000Z</time>
      </trkpt>
      <trkpt lat="49.84718" lon="4.78845">
        <ele>335</ele>
        <time>2020-11-13T08:05:58.000Z</time>
      </trkpt>
      <trkpt lat="49.84718" lon="4.7885">
        <ele>335</ele>
        <time>2020-11-13T08:05:59.000Z</time>
      </trkpt>
      <trkpt lat="49.84719" lon="4.78855">
        <ele>335</ele>
        <time>2020-11-13T08:06:00.000Z</time>
      </trkpt>
      <trkpt lat="49.84719" lon="4.7886">
        <ele>335</ele>
        <time>2020-11-13T08:06:01.000Z</time>
      </trkpt>
      <trkpt lat="49.8472" lon="4.78864">
        <ele>335</ele>
        <time>2020-11-13T08:06:02.000Z</time>
      </trkpt>
      <trkpt lat="49.8472" lon="4.78869">
        <ele>335</ele>
        <time>2020-11-13T08:06:03.000Z</time>
      </trkpt>
      <trkpt lat="49.84721" lon="4.78874">
        <ele>335</ele>
        <time>2020-11-13T08:06:04.000Z</time>
      </trkpt>
      <trkpt lat="49.84721" lon="4.78878">
        <ele>335</ele>
        <time>2020-11-13T08:06:05.000Z</time>
      </trkpt>
      <trkpt lat="49.84721" lon="4.78882">
        <ele>335</ele>
        <time>2020-11-13T08:06:06.000Z</time>
      </trkpt>
      <trkpt lat="49.84721" lon="4.78885">
        <ele>336</ele>
        <time>2020-11-13T08:06:07.000Z</time>
      </trkpt>
      <trkpt lat="49.84722" lon="4.78889">
        <ele>336</ele>
        <time>2020-11-13T08:06:08.000Z</time>
      </trkpt>
      <trkpt lat="49.84722" lon="4.78893">
        <ele>336</ele>
        <time>2020-11-13T08:06:09.000Z</time>
      </trkpt>
      <trkpt lat="49.84723" lon="4.78897">
        <ele>336</ele>
        <time>2020-11-13T08:06:10.000Z</time>
      </trkpt>
      <trkpt lat="49.84723" lon="4.78901">
        <ele>336</ele>
        <time>2020-11-13T08:06:11.000Z</time>
      </trkpt>
      <trkpt lat="49.84723" lon="4.78904">
        <ele>336</ele>
        <time>2020-11-13T08:06:12.000Z</time>
      </trkpt>
      <trkpt lat="49.84724" lon="4.78907">
        <ele>336</ele>
        <time>2020-11-13T08:06:13.000Z</time>
      </trkpt>
      <trkpt lat="49.84724" lon="4.7891">
        <ele>336</ele>
        <time>2020-11-13T08:06:14.000Z</time>
      </trkpt>
      <trkpt lat="49.84724" lon="4.78914">
        <ele>336</ele>
        <time>2020-11-13T08:06:15.000Z</time>
      </trkpt>
      <trkpt lat="49.84725" lon="4.78918">
        <ele>336</ele>
        <time>2020-11-13T08:06:16.000Z</time>
      </trkpt>
      <trkpt lat="49.84725" lon="4.78921">
        <ele>336</ele>
        <time>2020-11-13T08:06:17.000Z</time>
      </trkpt>
      <trkpt lat="49.84725" lon="4.78926">
        <ele>336</ele>
        <time>2020-11-13T08:06:18.000Z</time>
      </trkpt>
      <trkpt lat="49.84726" lon="4.78931">
        <ele>336</ele>
        <time>2020-11-13T08:06:19.000Z</time>
      </trkpt>
      <trkpt lat="49.84726" lon="4.78936">
        <ele>336</ele>
        <time>2020-11-13T08:06:20.000Z</time>
      </trkpt>
      <trkpt lat="49.84727" lon="4.7894">
        <ele>336</ele>
        <time>2020-11-13T08:06:21.000Z</time>
      </trkpt>
      <trkpt lat="49.84727" lon="4.78944">
        <ele>336</ele>
        <time>2020-11-13T08:06:22.000Z</time>
      </trkpt>
      <trkpt lat="49.84728" lon="4.78947">
        <ele>336</ele>
        <time>2020-11-13T08:06:23.000Z</time>
      </trkpt>
      <trkpt lat="49.84728" lon="4.78951">
        <ele>336</ele>
        <time>2020-11-13T08:06:24.000Z</time>
      </trkpt>
      <trkpt lat="49.84728" lon="4.78954">
        <ele>336</ele>
        <time>2020-11-13T08:06:25.000Z</time>
      </trkpt>
      <trkpt lat="49.84729" lon="4.78958">
        <ele>336</ele>
        <time>2020-11-13T08:06:26.000Z</time>
      </trkpt>
      <trkpt lat="49.8473" lon="4.78963">
        <ele>336</ele>
        <time>2020-11-13T08:06:27.000Z</time>
      </trkpt>
      <trkpt lat="49.8473" lon="4.78968">
        <ele>336</ele>
        <time>2020-11-13T08:06:28.000Z</time>
      </trkpt>
      <trkpt lat="49.84731" lon="4.78972">
        <ele>336</ele>
        <time>2020-11-13T08:06:29.000Z</time>
      </trkpt>
      <trkpt lat="49.84731" lon="4.78974">
        <ele>336</ele>
        <time>2020-11-13T08:06:30.000Z</time>
      </trkpt>
      <trkpt lat="49.84732" lon="4.78974">
        <ele>336</ele>
        <time>2020-11-13T08:06:31.000Z</time>
      </trkpt>
      <trkpt lat="49.84732" lon="4.78975">
        <ele>337</ele>
        <time>2020-11-13T08:06:32.000Z</time>
      </trkpt>
      <trkpt lat="49.84732" lon="4.78975">
        <ele>337</ele>
        <time>2020-11-13T08:06:33.000Z</time>
      </trkpt>
      <trkpt lat="49.84733" lon="4.78976">
        <ele>337</ele>
        <time>2020-11-13T08:06:34.000Z</time>
      </trkpt>
      <trkpt lat="49.84734" lon="4.78978">
        <ele>337</ele>
        <time>2020-11-13T08:06:35.000Z</time>
      </trkpt>
      <trkpt lat="49.84734" lon="4.7898">
        <ele>337</ele>
        <time>2020-11-13T08:06:36.000Z</time>
      </trkpt>
      <trkpt lat="49.84734" lon="4.78982">
        <ele>338</ele>
        <time>2020-11-13T08:06:37.000Z</time>
      </trkpt>
      <trkpt lat="49.84734" lon="4.78984">
        <ele>338</ele>
        <time>2020-11-13T08:06:38.000Z</time>
      </trkpt>
      <trkpt lat="49.84734" lon="4.78986">
        <ele>338</ele>
        <time>2020-11-13T08:06:39.000Z</time>
      </trkpt>
      <trkpt lat="49.84734" lon="4.78986">
        <ele>338</ele>
        <time>2020-11-13T08:06:40.000Z</time>
      </trkpt>
      <trkpt lat="49.84734" lon="4.78987">
        <ele>338</ele>
        <time>2020-11-13T08:06:41.000Z</time>
      </trkpt>
      <trkpt lat="49.84734" lon="4.78989">
        <ele>339</ele>
        <time>2020-11-13T08:06:42.000Z</time>
      </trkpt>
      <trkpt lat="49.84734" lon="4.78991">
        <ele>339</ele>
        <time>2020-11-13T08:06:43.000Z</time>
      </trkpt>
      <trkpt lat="49.84733" lon="4.78994">
        <ele>339</ele>
        <time>2020-11-13T08:06:44.000Z</time>
      </trkpt>
      <trkpt lat="49.84732" lon="4.78997">
        <ele>339</ele>
        <time>2020-11-13T08:06:45.000Z</time>
      </trkpt>
      <trkpt lat="49.84732" lon="4.79">
        <ele>339</ele>
        <time>2020-11-13T08:06:46.000Z</time>
      </trkpt>
      <trkpt lat="49.84731" lon="4.79003">
        <ele>339</ele>
        <time>2020-11-13T08:06:47.000Z</time>
      </trkpt>
      <trkpt lat="49.84731" lon="4.79006">
        <ele>339</ele>
        <time>2020-11-13T08:06:48.000Z</time>
      </trkpt>
      <trkpt lat="49.8473" lon="4.79008">
        <ele>339</ele>
        <time>2020-11-13T08:06:49.000Z</time>
      </trkpt>
      <trkpt lat="49.84729" lon="4.79011">
        <ele>339</ele>
        <time>2020-11-13T08:06:50.000Z</time>
      </trkpt>
      <trkpt lat="49.84728" lon="4.79015">
        <ele>340</ele>
        <time>2020-11-13T08:06:51.000Z</time>
      </trkpt>
      <trkpt lat="49.84728" lon="4.79018">
        <ele>340</ele>
        <time>2020-11-13T08:06:52.000Z</time>
      </trkpt>
      <trkpt lat="49.84727" lon="4.79022">
        <ele>340</ele>
        <time>2020-11-13T08:06:53.000Z</time>
      </trkpt>
      <trkpt lat="49.84726" lon="4.79025">
        <ele>340</ele>
        <time>2020-11-13T08:06:54.000Z</time>
      </trkpt>
      <trkpt lat="49.84725" lon="4.79028">
        <ele>340</ele>
        <time>2020-11-13T08:06:55.000Z</time>
      </trkpt>
      <trkpt lat="49.84724" lon="4.79032">
        <ele>340</ele>
        <time>2020-11-13T08:06:56.000Z</time>
      </trkpt>
      <trkpt lat="49.84724" lon="4.79035">
        <ele>341</ele>
        <time>2020-11-13T08:06:57.000Z</time>
      </trkpt>
      <trkpt lat="49.84723" lon="4.79038">
        <ele>341</ele>
        <time>2020-11-13T08:06:58.000Z</time>
      </trkpt>
      <trkpt lat="49.84722" lon="4.79042">
        <ele>341</ele>
        <time>2020-11-13T08:06:59.000Z</time>
      </trkpt>
      <trkpt lat="49.84721" lon="4.79045">
        <ele>342</ele>
        <time>2020-11-13T08:07:00.000Z</time>
      </trkpt>
      <trkpt lat="49.8472" lon="4.79048">
        <ele>342</ele>
        <time>2020-11-13T08:07:01.000Z</time>
      </trkpt>
      <trkpt lat="49.84719" lon="4.79052">
        <ele>342</ele>
        <time>2020-11-13T08:07:02.000Z</time>
      </trkpt>
      <trkpt lat="49.84718" lon="4.79056">
        <ele>342</ele>
        <time>2020-11-13T08:07:03.000Z</time>
      </trkpt>
      <trkpt lat="49.84717" lon="4.79059">
        <ele>343</ele>
        <time>2020-11-13T08:07:04.000Z</time>
      </trkpt>
      <trkpt lat="49.84716" lon="4.79063">
        <ele>343</ele>
        <time>2020-11-13T08:07:05.000Z</time>
      </trkpt>
      <trkpt lat="49.84716" lon="4.79067">
        <ele>343</ele>
        <time>2020-11-13T08:07:06.000Z</time>
      </trkpt>
      <trkpt lat="49.84715" lon="4.79071">
        <ele>343</ele>
        <time>2020-11-13T08:07:07.000Z</time>
      </trkpt>
      <trkpt lat="49.84714" lon="4.79074">
        <ele>343</ele>
        <time>2020-11-13T08:07:08.000Z</time>
      </trkpt>
      <trkpt lat="49.84713" lon="4.79079">
        <ele>343</ele>
        <time>2020-11-13T08:07:09.000Z</time>
      </trkpt>
      <trkpt lat="49.84712" lon="4.79082">
        <ele>343</ele>
        <time>2020-11-13T08:07:10.000Z</time>
      </trkpt>
      <trkpt lat="49.84712" lon="4.79085">
        <ele>343</ele>
        <time>2020-11-13T08:07:11.000Z</time>
      </trkpt>
      <trkpt lat="49.84712" lon="4.79088">
        <ele>343</ele>
        <time>2020-11-13T08:07:12.000Z</time>
      </trkpt>
      <trkpt lat="49.84711" lon="4.79092">
        <ele>344</ele>
        <time>2020-11-13T08:07:13.000Z</time>
      </trkpt>
      <trkpt lat="49.84711" lon="4.79095">
        <ele>344</ele>
        <time>2020-11-13T08:07:14.000Z</time>
      </trkpt>
      <trkpt lat="49.84711" lon="4.79099">
        <ele>344</ele>
        <time>2020-11-13T08:07:15.000Z</time>
      </trkpt>
      <trkpt lat="49.84711" lon="4.79103">
        <ele>344</ele>
        <time>2020-11-13T08:07:16.000Z</time>
      </trkpt>
      <trkpt lat="49.84711" lon="4.79107">
        <ele>344</ele>
        <time>2020-11-13T08:07:17.000Z</time>
      </trkpt>
      <trkpt lat="49.84711" lon="4.79111">
        <ele>344</ele>
        <time>2020-11-13T08:07:18.000Z</time>
      </trkpt>
      <trkpt lat="49.84712" lon="4.79114">
        <ele>344</ele>
        <time>2020-11-13T08:07:19.000Z</time>
      </trkpt>
      <trkpt lat="49.84712" lon="4.79118">
        <ele>344</ele>
        <time>2020-11-13T08:07:20.000Z</time>
      </trkpt>
      <trkpt lat="49.84713" lon="4.79121">
        <ele>344</ele>
        <time>2020-11-13T08:07:21.000Z</time>
      </trkpt>
      <trkpt lat="49.84714" lon="4.79124">
        <ele>344</ele>
        <time>2020-11-13T08:07:22.000Z</time>
      </trkpt>
      <trkpt lat="49.84714" lon="4.79127">
        <ele>344</ele>
        <time>2020-11-13T08:07:23.000Z</time>
      </trkpt>
      <trkpt lat="49.84715" lon="4.79129">
        <ele>345</ele>
        <time>2020-11-13T08:07:24.000Z</time>
      </trkpt>
      <trkpt lat="49.84715" lon="4.79131">
        <ele>345</ele>
        <time>2020-11-13T08:07:25.000Z</time>
      </trkpt>
      <trkpt lat="49.84716" lon="4.79132">
        <ele>345</ele>
        <time>2020-11-13T08:07:26.000Z</time>
      </trkpt>
      <trkpt lat="49.84716" lon="4.79132">
        <ele>345</ele>
        <time>2020-11-13T08:07:27.000Z</time>
      </trkpt>
      <trkpt lat="49.84716" lon="4.79132">
        <ele>345</ele>
        <time>2020-11-13T08:07:28.000Z</time>
      </trkpt>
      <trkpt lat="49.84716" lon="4.79133">
        <ele>345</ele>
        <time>2020-11-13T08:07:29.000Z</time>
      </trkpt>
      <trkpt lat="49.84716" lon="4.79134">
        <ele>345</ele>
        <time>2020-11-13T08:07:30.000Z</time>
      </trkpt>
      <trkpt lat="49.84717" lon="4.79135">
        <ele>345</ele>
        <time>2020-11-13T08:07:31.000Z</time>
      </trkpt>
      <trkpt lat="49.84719" lon="4.79137">
        <ele>345</ele>
        <time>2020-11-13T08:07:32.000Z</time>
      </trkpt>
      <trkpt lat="49.84721" lon="4.79138">
        <ele>346</ele>
        <time>2020-11-13T08:07:33.000Z</time>
      </trkpt>
      <trkpt lat="49.84723" lon="4.79138">
        <ele>346</ele>
        <time>2020-11-13T08:07:34.000Z</time>
      </trkpt>
      <trkpt lat="49.84725" lon="4.79139">
        <ele>346</ele>
        <time>2020-11-13T08:07:35.000Z</time>
      </trkpt>
      <trkpt lat="49.84727" lon="4.79141">
        <ele>346</ele>
        <time>2020-11-13T08:07:36.000Z</time>
      </trkpt>
      <trkpt lat="49.84731" lon="4.79143">
        <ele>346</ele>
        <time>2020-11-13T08:07:37.000Z</time>
      </trkpt>
      <trkpt lat="49.84736" lon="4.79144">
        <ele>346</ele>
        <time>2020-11-13T08:07:38.000Z</time>
      </trkpt>
      <trkpt lat="49.84741" lon="4.79146">
        <ele>347</ele>
        <time>2020-11-13T08:07:39.000Z</time>
      </trkpt>
      <trkpt lat="49.84747" lon="4.79148">
        <ele>347</ele>
        <time>2020-11-13T08:07:40.000Z</time>
      </trkpt>
      <trkpt lat="49.84753" lon="4.7915">
        <ele>347</ele>
        <time>2020-11-13T08:07:41.000Z</time>
      </trkpt>
      <trkpt lat="49.84758" lon="4.79151">
        <ele>347</ele>
        <time>2020-11-13T08:07:42.000Z</time>
      </trkpt>
      <trkpt lat="49.84764" lon="4.79152">
        <ele>347</ele>
        <time>2020-11-13T08:07:43.000Z</time>
      </trkpt>
      <trkpt lat="49.84769" lon="4.79153">
        <ele>347</ele>
        <time>2020-11-13T08:07:44.000Z</time>
      </trkpt>
      <trkpt lat="49.84775" lon="4.79154">
        <ele>347</ele>
        <time>2020-11-13T08:07:45.000Z</time>
      </trkpt>
      <trkpt lat="49.84781" lon="4.79155">
        <ele>347</ele>
        <time>2020-11-13T08:07:46.000Z</time>
      </trkpt>
      <trkpt lat="49.84788" lon="4.79155">
        <ele>347</ele>
        <time>2020-11-13T08:07:47.000Z</time>
      </trkpt>
      <trkpt lat="49.84793" lon="4.79154">
        <ele>347</ele>
        <time>2020-11-13T08:07:48.000Z</time>
      </trkpt>
      <trkpt lat="49.84799" lon="4.79153">
        <ele>347</ele>
        <time>2020-11-13T08:07:49.000Z</time>
      </trkpt>
      <trkpt lat="49.84804" lon="4.7915">
        <ele>347</ele>
        <time>2020-11-13T08:07:50.000Z</time>
      </trkpt>
      <trkpt lat="49.84809" lon="4.79147">
        <ele>346</ele>
        <time>2020-11-13T08:07:51.000Z</time>
      </trkpt>
      <trkpt lat="49.84814" lon="4.79144">
        <ele>346</ele>
        <time>2020-11-13T08:07:52.000Z</time>
      </trkpt>
      <trkpt lat="49.84818" lon="4.7914">
        <ele>346</ele>
        <time>2020-11-13T08:07:53.000Z</time>
      </trkpt>
      <trkpt lat="49.84822" lon="4.79135">
        <ele>346</ele>
        <time>2020-11-13T08:07:54.000Z</time>
      </trkpt>
      <trkpt lat="49.84825" lon="4.7913">
        <ele>346</ele>
        <time>2020-11-13T08:07:55.000Z</time>
      </trkpt>
      <trkpt lat="49.84828" lon="4.79124">
        <ele>345</ele>
        <time>2020-11-13T08:07:56.000Z</time>
      </trkpt>
      <trkpt lat="49.84831" lon="4.79119">
        <ele>345</ele>
        <time>2020-11-13T08:07:57.000Z</time>
      </trkpt>
      <trkpt lat="49.84834" lon="4.79115">
        <ele>345</ele>
        <time>2020-11-13T08:07:58.000Z</time>
      </trkpt>
      <trkpt lat="49.84837" lon="4.7911">
        <ele>345</ele>
        <time>2020-11-13T08:07:59.000Z</time>
      </trkpt>
      <trkpt lat="49.84839" lon="4.79106">
        <ele>345</ele>
        <time>2020-11-13T08:08:00.000Z</time>
      </trkpt>
      <trkpt lat="49.84841" lon="4.79101">
        <ele>345</ele>
        <time>2020-11-13T08:08:01.000Z</time>
      </trkpt>
      <trkpt lat="49.84843" lon="4.79097">
        <ele>345</ele>
        <time>2020-11-13T08:08:02.000Z</time>
      </trkpt>
      <trkpt lat="49.84845" lon="4.79093">
        <ele>344</ele>
        <time>2020-11-13T08:08:03.000Z</time>
      </trkpt>
      <trkpt lat="49.84847" lon="4.7909">
        <ele>344</ele>
        <time>2020-11-13T08:08:04.000Z</time>
      </trkpt>
      <trkpt lat="49.84849" lon="4.79087">
        <ele>344</ele>
        <time>2020-11-13T08:08:05.000Z</time>
      </trkpt>
      <trkpt lat="49.84851" lon="4.79084">
        <ele>344</ele>
        <time>2020-11-13T08:08:06.000Z</time>
      </trkpt>
      <trkpt lat="49.84853" lon="4.79082">
        <ele>344</ele>
        <time>2020-11-13T08:08:07.000Z</time>
      </trkpt>
      <trkpt lat="49.84855" lon="4.79079">
        <ele>344</ele>
        <time>2020-11-13T08:08:08.000Z</time>
      </trkpt>
      <trkpt lat="49.84857" lon="4.79076">
        <ele>344</ele>
        <time>2020-11-13T08:08:09.000Z</time>
      </trkpt>
      <trkpt lat="49.84859" lon="4.79074">
        <ele>344</ele>
        <time>2020-11-13T08:08:10.000Z</time>
      </trkpt>
      <trkpt lat="49.84862" lon="4.79071">
        <ele>344</ele>
        <time>2020-11-13T08:08:11.000Z</time>
      </trkpt>
      <trkpt lat="49.84864" lon="4.79069">
        <ele>344</ele>
        <time>2020-11-13T08:08:12.000Z</time>
      </trkpt>
      <trkpt lat="49.84866" lon="4.79067">
        <ele>344</ele>
        <time>2020-11-13T08:08:13.000Z</time>
      </trkpt>
      <trkpt lat="49.84869" lon="4.79065">
        <ele>344</ele>
        <time>2020-11-13T08:08:14.000Z</time>
      </trkpt>
      <trkpt lat="49.84871" lon="4.79063">
        <ele>344</ele>
        <time>2020-11-13T08:08:15.000Z</time>
      </trkpt>
      <trkpt lat="49.84873" lon="4.79061">
        <ele>344</ele>
        <time>2020-11-13T08:08:16.000Z</time>
      </trkpt>
      <trkpt lat="49.84875" lon="4.79059">
        <ele>344</ele>
        <time>2020-11-13T08:08:17.000Z</time>
      </trkpt>
      <trkpt lat="49.84877" lon="4.79056">
        <ele>344</ele>
        <time>2020-11-13T08:08:18.000Z</time>
      </trkpt>
      <trkpt lat="49.8488" lon="4.79055">
        <ele>344</ele>
        <time>2020-11-13T08:08:19.000Z</time>
      </trkpt>
      <trkpt lat="49.84882" lon="4.79052">
        <ele>344</ele>
        <time>2020-11-13T08:08:20.000Z</time>
      </trkpt>
      <trkpt lat="49.84884" lon="4.79048">
        <ele>344</ele>
        <time>2020-11-13T08:08:21.000Z</time>
      </trkpt>
      <trkpt lat="49.84886" lon="4.79044">
        <ele>344</ele>
        <time>2020-11-13T08:08:22.000Z</time>
      </trkpt>
      <trkpt lat="49.84888" lon="4.7904">
        <ele>344</ele>
        <time>2020-11-13T08:08:23.000Z</time>
      </trkpt>
      <trkpt lat="49.84891" lon="4.79037">
        <ele>344</ele>
        <time>2020-11-13T08:08:24.000Z</time>
      </trkpt>
      <trkpt lat="49.84894" lon="4.79034">
        <ele>344</ele>
        <time>2020-11-13T08:08:25.000Z</time>
      </trkpt>
      <trkpt lat="49.84897" lon="4.79032">
        <ele>344</ele>
        <time>2020-11-13T08:08:26.000Z</time>
      </trkpt>
      <trkpt lat="49.849" lon="4.7903">
        <ele>345</ele>
        <time>2020-11-13T08:08:27.000Z</time>
      </trkpt>
      <trkpt lat="49.84903" lon="4.79027">
        <ele>345</ele>
        <time>2020-11-13T08:08:28.000Z</time>
      </trkpt>
      <trkpt lat="49.84906" lon="4.79024">
        <ele>345</ele>
        <time>2020-11-13T08:08:29.000Z</time>
      </trkpt>
      <trkpt lat="49.84909" lon="4.7902">
        <ele>345</ele>
        <time>2020-11-13T08:08:30.000Z</time>
      </trkpt>
      <trkpt lat="49.84911" lon="4.79016">
        <ele>345</ele>
        <time>2020-11-13T08:08:31.000Z</time>
      </trkpt>
      <trkpt lat="49.84913" lon="4.79011">
        <ele>345</ele>
        <time>2020-11-13T08:08:32.000Z</time>
      </trkpt>
      <trkpt lat="49.84915" lon="4.79007">
        <ele>345</ele>
        <time>2020-11-13T08:08:33.000Z</time>
      </trkpt>
      <trkpt lat="49.84918" lon="4.79003">
        <ele>345</ele>
        <time>2020-11-13T08:08:34.000Z</time>
      </trkpt>
      <trkpt lat="49.8492" lon="4.78999">
        <ele>345</ele>
        <time>2020-11-13T08:08:35.000Z</time>
      </trkpt>
      <trkpt lat="49.84923" lon="4.78996">
        <ele>345</ele>
        <time>2020-11-13T08:08:36.000Z</time>
      </trkpt>
      <trkpt lat="49.84926" lon="4.78993">
        <ele>345</ele>
        <time>2020-11-13T08:08:37.000Z</time>
      </trkpt>
      <trkpt lat="49.84928" lon="4.78991">
        <ele>345</ele>
        <time>2020-11-13T08:08:38.000Z</time>
      </trkpt>
      <trkpt lat="49.84931" lon="4.78989">
        <ele>345</ele>
        <time>2020-11-13T08:08:39.000Z</time>
      </trkpt>
      <trkpt lat="49.84934" lon="4.78986">
        <ele>345</ele>
        <time>2020-11-13T08:08:40.000Z</time>
      </trkpt>
      <trkpt lat="49.84937" lon="4.78982">
        <ele>345</ele>
        <time>2020-11-13T08:08:41.000Z</time>
      </trkpt>
      <trkpt lat="49.84939" lon="4.78978">
        <ele>345</ele>
        <time>2020-11-13T08:08:42.000Z</time>
      </trkpt>
      <trkpt lat="49.84941" lon="4.78973">
        <ele>345</ele>
        <time>2020-11-13T08:08:43.000Z</time>
      </trkpt>
      <trkpt lat="49.84944" lon="4.78968">
        <ele>345</ele>
        <time>2020-11-13T08:08:44.000Z</time>
      </trkpt>
      <trkpt lat="49.84947" lon="4.78964">
        <ele>345</ele>
        <time>2020-11-13T08:08:45.000Z</time>
      </trkpt>
      <trkpt lat="49.84949" lon="4.7896">
        <ele>345</ele>
        <time>2020-11-13T08:08:46.000Z</time>
      </trkpt>
      <trkpt lat="49.84952" lon="4.78954">
        <ele>345</ele>
        <time>2020-11-13T08:08:47.000Z</time>
      </trkpt>
      <trkpt lat="49.84954" lon="4.78949">
        <ele>344</ele>
        <time>2020-11-13T08:08:48.000Z</time>
      </trkpt>
      <trkpt lat="49.84957" lon="4.78944">
        <ele>345</ele>
        <time>2020-11-13T08:08:49.000Z</time>
      </trkpt>
      <trkpt lat="49.84959" lon="4.78938">
        <ele>345</ele>
        <time>2020-11-13T08:08:50.000Z</time>
      </trkpt>
      <trkpt lat="49.84961" lon="4.78932">
        <ele>345</ele>
        <time>2020-11-13T08:08:51.000Z</time>
      </trkpt>
      <trkpt lat="49.84963" lon="4.78926">
        <ele>345</ele>
        <time>2020-11-13T08:08:52.000Z</time>
      </trkpt>
      <trkpt lat="49.84967" lon="4.7892">
        <ele>345</ele>
        <time>2020-11-13T08:08:53.000Z</time>
      </trkpt>
      <trkpt lat="49.8497" lon="4.78913">
        <ele>344</ele>
        <time>2020-11-13T08:08:54.000Z</time>
      </trkpt>
      <trkpt lat="49.84974" lon="4.78907">
        <ele>344</ele>
        <time>2020-11-13T08:08:55.000Z</time>
      </trkpt>
      <trkpt lat="49.84978" lon="4.78902">
        <ele>344</ele>
        <time>2020-11-13T08:08:56.000Z</time>
      </trkpt>
      <trkpt lat="49.84982" lon="4.78896">
        <ele>344</ele>
        <time>2020-11-13T08:08:57.000Z</time>
      </trkpt>
      <trkpt lat="49.84986" lon="4.78891">
        <ele>344</ele>
        <time>2020-11-13T08:08:58.000Z</time>
      </trkpt>
      <trkpt lat="49.84989" lon="4.78886">
        <ele>344</ele>
        <time>2020-11-13T08:08:59.000Z</time>
      </trkpt>
      <trkpt lat="49.84991" lon="4.78883">
        <ele>343</ele>
        <time>2020-11-13T08:09:00.000Z</time>
      </trkpt>
      <trkpt lat="49.84993" lon="4.78881">
        <ele>343</ele>
        <time>2020-11-13T08:09:01.000Z</time>
      </trkpt>
      <trkpt lat="49.84994" lon="4.7888">
        <ele>343</ele>
        <time>2020-11-13T08:09:02.000Z</time>
      </trkpt>
      <trkpt lat="49.84994" lon="4.78879">
        <ele>343</ele>
        <time>2020-11-13T08:09:03.000Z</time>
      </trkpt>
      <trkpt lat="49.84994" lon="4.78879">
        <ele>343</ele>
        <time>2020-11-13T08:09:04.000Z</time>
      </trkpt>
      <trkpt lat="49.84994" lon="4.78879">
        <ele>343</ele>
        <time>2020-11-13T08:09:05.000Z</time>
      </trkpt>
      <trkpt lat="49.84994" lon="4.78879">
        <ele>343</ele>
        <time>2020-11-13T08:09:06.000Z</time>
      </trkpt>
      <trkpt lat="49.84995" lon="4.78878">
        <ele>343</ele>
        <time>2020-11-13T08:09:07.000Z</time>
      </trkpt>
      <trkpt lat="49.84995" lon="4.78878">
        <ele>343</ele>
        <time>2020-11-13T08:09:08.000Z</time>
      </trkpt>
      <trkpt lat="49.84996" lon="4.78877">
        <ele>343</ele>
        <time>2020-11-13T08:09:09.000Z</time>
      </trkpt>
      <trkpt lat="49.84997" lon="4.78876">
        <ele>343</ele>
        <time>2020-11-13T08:09:10.000Z</time>
      </trkpt>
      <trkpt lat="49.84999" lon="4.78874">
        <ele>344</ele>
        <time>2020-11-13T08:09:11.000Z</time>
      </trkpt>
      <trkpt lat="49.85001" lon="4.7887">
        <ele>343</ele>
        <time>2020-11-13T08:09:12.000Z</time>
      </trkpt>
      <trkpt lat="49.85003" lon="4.78865">
        <ele>343</ele>
        <time>2020-11-13T08:09:13.000Z</time>
      </trkpt>
      <trkpt lat="49.85006" lon="4.78861">
        <ele>343</ele>
        <time>2020-11-13T08:09:14.000Z</time>
      </trkpt>
      <trkpt lat="49.85009" lon="4.78857">
        <ele>343</ele>
        <time>2020-11-13T08:09:15.000Z</time>
      </trkpt>
      <trkpt lat="49.85013" lon="4.78853">
        <ele>343</ele>
        <time>2020-11-13T08:09:16.000Z</time>
      </trkpt>
      <trkpt lat="49.85016" lon="4.78849">
        <ele>343</ele>
        <time>2020-11-13T08:09:17.000Z</time>
      </trkpt>
      <trkpt lat="49.8502" lon="4.78844">
        <ele>343</ele>
        <time>2020-11-13T08:09:18.000Z</time>
      </trkpt>
      <trkpt lat="49.85023" lon="4.7884">
        <ele>343</ele>
        <time>2020-11-13T08:09:19.000Z</time>
      </trkpt>
      <trkpt lat="49.85026" lon="4.78836">
        <ele>343</ele>
        <time>2020-11-13T08:09:20.000Z</time>
      </trkpt>
      <trkpt lat="49.8503" lon="4.78832">
        <ele>342</ele>
        <time>2020-11-13T08:09:21.000Z</time>
      </trkpt>
      <trkpt lat="49.85034" lon="4.78828">
        <ele>342</ele>
        <time>2020-11-13T08:09:22.000Z</time>
      </trkpt>
      <trkpt lat="49.85038" lon="4.78825">
        <ele>342</ele>
        <time>2020-11-13T08:09:23.000Z</time>
      </trkpt>
      <trkpt lat="49.85041" lon="4.78819">
        <ele>342</ele>
        <time>2020-11-13T08:09:24.000Z</time>
      </trkpt>
      <trkpt lat="49.85044" lon="4.78814">
        <ele>342</ele>
        <time>2020-11-13T08:09:25.000Z</time>
      </trkpt>
      <trkpt lat="49.85046" lon="4.78809">
        <ele>342</ele>
        <time>2020-11-13T08:09:26.000Z</time>
      </trkpt>
      <trkpt lat="49.85049" lon="4.78804">
        <ele>342</ele>
        <time>2020-11-13T08:09:27.000Z</time>
      </trkpt>
      <trkpt lat="49.85051" lon="4.78798">
        <ele>342</ele>
        <time>2020-11-13T08:09:28.000Z</time>
      </trkpt>
      <trkpt lat="49.85053" lon="4.78792">
        <ele>341</ele>
        <time>2020-11-13T08:09:29.000Z</time>
      </trkpt>
      <trkpt lat="49.85055" lon="4.78786">
        <ele>341</ele>
        <time>2020-11-13T08:09:30.000Z</time>
      </trkpt>
      <trkpt lat="49.85058" lon="4.7878">
        <ele>341</ele>
        <time>2020-11-13T08:09:31.000Z</time>
      </trkpt>
      <trkpt lat="49.8506" lon="4.78774">
        <ele>341</ele>
        <time>2020-11-13T08:09:32.000Z</time>
      </trkpt>
      <trkpt lat="49.85063" lon="4.78768">
        <ele>341</ele>
        <time>2020-11-13T08:09:33.000Z</time>
      </trkpt>
      <trkpt lat="49.85066" lon="4.78762">
        <ele>340</ele>
        <time>2020-11-13T08:09:34.000Z</time>
      </trkpt>
      <trkpt lat="49.85069" lon="4.78756">
        <ele>340</ele>
        <time>2020-11-13T08:09:35.000Z</time>
      </trkpt>
      <trkpt lat="49.85073" lon="4.7875">
        <ele>340</ele>
        <time>2020-11-13T08:09:36.000Z</time>
      </trkpt>
      <trkpt lat="49.85076" lon="4.78744">
        <ele>340</ele>
        <time>2020-11-13T08:09:37.000Z</time>
      </trkpt>
      <trkpt lat="49.85078" lon="4.78739">
        <ele>340</ele>
        <time>2020-11-13T08:09:38.000Z</time>
      </trkpt>
      <trkpt lat="49.85081" lon="4.78734">
        <ele>340</ele>
        <time>2020-11-13T08:09:39.000Z</time>
      </trkpt>
      <trkpt lat="49.85085" lon="4.78729">
        <ele>339</ele>
        <time>2020-11-13T08:09:40.000Z</time>
      </trkpt>
      <trkpt lat="49.85087" lon="4.78724">
        <ele>339</ele>
        <time>2020-11-13T08:09:41.000Z</time>
      </trkpt>
      <trkpt lat="49.8509" lon="4.78719">
        <ele>339</ele>
        <time>2020-11-13T08:09:42.000Z</time>
      </trkpt>
      <trkpt lat="49.85094" lon="4.78716">
        <ele>339</ele>
        <time>2020-11-13T08:09:43.000Z</time>
      </trkpt>
      <trkpt lat="49.85098" lon="4.78712">
        <ele>339</ele>
        <time>2020-11-13T08:09:44.000Z</time>
      </trkpt>
      <trkpt lat="49.85101" lon="4.78708">
        <ele>339</ele>
        <time>2020-11-13T08:09:45.000Z</time>
      </trkpt>
      <trkpt lat="49.85105" lon="4.78704">
        <ele>339</ele>
        <time>2020-11-13T08:09:46.000Z</time>
      </trkpt>
      <trkpt lat="49.85109" lon="4.78699">
        <ele>338</ele>
        <time>2020-11-13T08:09:47.000Z</time>
      </trkpt>
      <trkpt lat="49.85112" lon="4.78694">
        <ele>338</ele>
        <time>2020-11-13T08:09:48.000Z</time>
      </trkpt>
      <trkpt lat="49.85116" lon="4.78688">
        <ele>338</ele>
        <time>2020-11-13T08:09:49.000Z</time>
      </trkpt>
      <trkpt lat="49.85119" lon="4.78683">
        <ele>338</ele>
        <time>2020-11-13T08:09:50.000Z</time>
      </trkpt>
      <trkpt lat="49.85123" lon="4.78678">
        <ele>338</ele>
        <time>2020-11-13T08:09:51.000Z</time>
      </trkpt>
      <trkpt lat="49.85126" lon="4.78674">
        <ele>338</ele>
        <time>2020-11-13T08:09:52.000Z</time>
      </trkpt>
      <trkpt lat="49.8513" lon="4.7867">
        <ele>338</ele>
        <time>2020-11-13T08:09:53.000Z</time>
      </trkpt>
      <trkpt lat="49.85134" lon="4.78664">
        <ele>338</ele>
        <time>2020-11-13T08:09:54.000Z</time>
      </trkpt>
      <trkpt lat="49.85137" lon="4.7866">
        <ele>338</ele>
        <time>2020-11-13T08:09:55.000Z</time>
      </trkpt>
      <trkpt lat="49.85141" lon="4.78656">
        <ele>338</ele>
        <time>2020-11-13T08:09:56.000Z</time>
      </trkpt>
      <trkpt lat="49.85145" lon="4.78651">
        <ele>338</ele>
        <time>2020-11-13T08:09:57.000Z</time>
      </trkpt>
      <trkpt lat="49.85149" lon="4.78647">
        <ele>338</ele>
        <time>2020-11-13T08:09:58.000Z</time>
      </trkpt>
      <trkpt lat="49.85153" lon="4.78642">
        <ele>338</ele>
        <time>2020-11-13T08:09:59.000Z</time>
      </trkpt>
      <trkpt lat="49.85157" lon="4.78638">
        <ele>338</ele>
        <time>2020-11-13T08:10:00.000Z</time>
      </trkpt>
      <trkpt lat="49.8516" lon="4.78633">
        <ele>338</ele>
        <time>2020-11-13T08:10:01.000Z</time>
      </trkpt>
      <trkpt lat="49.85164" lon="4.78629">
        <ele>338</ele>
        <time>2020-11-13T08:10:02.000Z</time>
      </trkpt>
      <trkpt lat="49.85168" lon="4.78625">
        <ele>338</ele>
        <time>2020-11-13T08:10:03.000Z</time>
      </trkpt>
      <trkpt lat="49.85172" lon="4.78621">
        <ele>337</ele>
        <time>2020-11-13T08:10:04.000Z</time>
      </trkpt>
      <trkpt lat="49.85177" lon="4.78617">
        <ele>337</ele>
        <time>2020-11-13T08:10:05.000Z</time>
      </trkpt>
      <trkpt lat="49.85181" lon="4.78612">
        <ele>337</ele>
        <time>2020-11-13T08:10:06.000Z</time>
      </trkpt>
      <trkpt lat="49.85185" lon="4.78606">
        <ele>337</ele>
        <time>2020-11-13T08:10:07.000Z</time>
      </trkpt>
      <trkpt lat="49.85189" lon="4.786">
        <ele>337</ele>
        <time>2020-11-13T08:10:08.000Z</time>
      </trkpt>
      <trkpt lat="49.85193" lon="4.78595">
        <ele>337</ele>
        <time>2020-11-13T08:10:09.000Z</time>
      </trkpt>
      <trkpt lat="49.85197" lon="4.7859">
        <ele>337</ele>
        <time>2020-11-13T08:10:10.000Z</time>
      </trkpt>
      <trkpt lat="49.85201" lon="4.78585">
        <ele>336</ele>
        <time>2020-11-13T08:10:11.000Z</time>
      </trkpt>
      <trkpt lat="49.85205" lon="4.7858">
        <ele>336</ele>
        <time>2020-11-13T08:10:12.000Z</time>
      </trkpt>
      <trkpt lat="49.85209" lon="4.78575">
        <ele>336</ele>
        <time>2020-11-13T08:10:13.000Z</time>
      </trkpt>
      <trkpt lat="49.85213" lon="4.7857">
        <ele>336</ele>
        <time>2020-11-13T08:10:14.000Z</time>
      </trkpt>
      <trkpt lat="49.85217" lon="4.78564">
        <ele>336</ele>
        <time>2020-11-13T08:10:15.000Z</time>
      </trkpt>
      <trkpt lat="49.85221" lon="4.78559">
        <ele>336</ele>
        <time>2020-11-13T08:10:16.000Z</time>
      </trkpt>
      <trkpt lat="49.85225" lon="4.78553">
        <ele>336</ele>
        <time>2020-11-13T08:10:17.000Z</time>
      </trkpt>
      <trkpt lat="49.85229" lon="4.78548">
        <ele>336</ele>
        <time>2020-11-13T08:10:18.000Z</time>
      </trkpt>
      <trkpt lat="49.85233" lon="4.78542">
        <ele>336</ele>
        <time>2020-11-13T08:10:19.000Z</time>
      </trkpt>
      <trkpt lat="49.85237" lon="4.78537">
        <ele>336</ele>
        <time>2020-11-13T08:10:20.000Z</time>
      </trkpt>
      <trkpt lat="49.85242" lon="4.78533">
        <ele>336</ele>
        <time>2020-11-13T08:10:21.000Z</time>
      </trkpt>
      <trkpt lat="49.85246" lon="4.78528">
        <ele>336</ele>
        <time>2020-11-13T08:10:22.000Z</time>
      </trkpt>
      <trkpt lat="49.85249" lon="4.78522">
        <ele>335</ele>
        <time>2020-11-13T08:10:23.000Z</time>
      </trkpt>
      <trkpt lat="49.85252" lon="4.78516">
        <ele>335</ele>
        <time>2020-11-13T08:10:24.000Z</time>
      </trkpt>
      <trkpt lat="49.85255" lon="4.7851">
        <ele>335</ele>
        <time>2020-11-13T08:10:25.000Z</time>
      </trkpt>
      <trkpt lat="49.85258" lon="4.78505">
        <ele>335</ele>
        <time>2020-11-13T08:10:26.000Z</time>
      </trkpt>
      <trkpt lat="49.85261" lon="4.78501">
        <ele>335</ele>
        <time>2020-11-13T08:10:27.000Z</time>
      </trkpt>
      <trkpt lat="49.85265" lon="4.78496">
        <ele>335</ele>
        <time>2020-11-13T08:10:28.000Z</time>
      </trkpt>
      <trkpt lat="49.85269" lon="4.78491">
        <ele>335</ele>
        <time>2020-11-13T08:10:29.000Z</time>
      </trkpt>
      <trkpt lat="49.85272" lon="4.78487">
        <ele>335</ele>
        <time>2020-11-13T08:10:30.000Z</time>
      </trkpt>
      <trkpt lat="49.85276" lon="4.78483">
        <ele>334</ele>
        <time>2020-11-13T08:10:31.000Z</time>
      </trkpt>
      <trkpt lat="49.85279" lon="4.78477">
        <ele>334</ele>
        <time>2020-11-13T08:10:32.000Z</time>
      </trkpt>
      <trkpt lat="49.85282" lon="4.78472">
        <ele>334</ele>
        <time>2020-11-13T08:10:33.000Z</time>
      </trkpt>
      <trkpt lat="49.85285" lon="4.78467">
        <ele>334</ele>
        <time>2020-11-13T08:10:34.000Z</time>
      </trkpt>
      <trkpt lat="49.85287" lon="4.78464">
        <ele>334</ele>
        <time>2020-11-13T08:10:35.000Z</time>
      </trkpt>
      <trkpt lat="49.8529" lon="4.78459">
        <ele>334</ele>
        <time>2020-11-13T08:10:36.000Z</time>
      </trkpt>
      <trkpt lat="49.85293" lon="4.78453">
        <ele>334</ele>
        <time>2020-11-13T08:10:37.000Z</time>
      </trkpt>
      <trkpt lat="49.85296" lon="4.78446">
        <ele>334</ele>
        <time>2020-11-13T08:10:38.000Z</time>
      </trkpt>
      <trkpt lat="49.85299" lon="4.78437">
        <ele>334</ele>
        <time>2020-11-13T08:10:39.000Z</time>
      </trkpt>
      <trkpt lat="49.85302" lon="4.78429">
        <ele>334</ele>
        <time>2020-11-13T08:10:40.000Z</time>
      </trkpt>
      <trkpt lat="49.85305" lon="4.78421">
        <ele>334</ele>
        <time>2020-11-13T08:10:41.000Z</time>
      </trkpt>
      <trkpt lat="49.85308" lon="4.78412">
        <ele>334</ele>
        <time>2020-11-13T08:10:42.000Z</time>
      </trkpt>
      <trkpt lat="49.85312" lon="4.78404">
        <ele>333</ele>
        <time>2020-11-13T08:10:43.000Z</time>
      </trkpt>
      <trkpt lat="49.85316" lon="4.78396">
        <ele>333</ele>
        <time>2020-11-13T08:10:44.000Z</time>
      </trkpt>
      <trkpt lat="49.8532" lon="4.78389">
        <ele>333</ele>
        <time>2020-11-13T08:10:45.000Z</time>
      </trkpt>
      <trkpt lat="49.85325" lon="4.78383">
        <ele>332</ele>
        <time>2020-11-13T08:10:46.000Z</time>
      </trkpt>
      <trkpt lat="49.85329" lon="4.78376">
        <ele>332</ele>
        <time>2020-11-13T08:10:47.000Z</time>
      </trkpt>
      <trkpt lat="49.85334" lon="4.78369">
        <ele>332</ele>
        <time>2020-11-13T08:10:48.000Z</time>
      </trkpt>
      <trkpt lat="49.85338" lon="4.78364">
        <ele>331</ele>
        <time>2020-11-13T08:10:49.000Z</time>
      </trkpt>
      <trkpt lat="49.85342" lon="4.78358">
        <ele>331</ele>
        <time>2020-11-13T08:10:50.000Z</time>
      </trkpt>
      <trkpt lat="49.85345" lon="4.78351">
        <ele>331</ele>
        <time>2020-11-13T08:10:51.000Z</time>
      </trkpt>
      <trkpt lat="49.8535" lon="4.78343">
        <ele>330</ele>
        <time>2020-11-13T08:10:52.000Z</time>
      </trkpt>
      <trkpt lat="49.85354" lon="4.78335">
        <ele>330</ele>
        <time>2020-11-13T08:10:53.000Z</time>
      </trkpt>
      <trkpt lat="49.85359" lon="4.78326">
        <ele>329</ele>
        <time>2020-11-13T08:10:54.000Z</time>
      </trkpt>
      <trkpt lat="49.85364" lon="4.78318">
        <ele>329</ele>
        <time>2020-11-13T08:10:55.000Z</time>
      </trkpt>
      <trkpt lat="49.8537" lon="4.7831">
        <ele>328</ele>
        <time>2020-11-13T08:10:56.000Z</time>
      </trkpt>
      <trkpt lat="49.85375" lon="4.78303">
        <ele>328</ele>
        <time>2020-11-13T08:10:57.000Z</time>
      </trkpt>
      <trkpt lat="49.85381" lon="4.78295">
        <ele>327</ele>
        <time>2020-11-13T08:10:58.000Z</time>
      </trkpt>
      <trkpt lat="49.85387" lon="4.78288">
        <ele>327</ele>
        <time>2020-11-13T08:10:59.000Z</time>
      </trkpt>
      <trkpt lat="49.85393" lon="4.7828">
        <ele>326</ele>
        <time>2020-11-13T08:11:00.000Z</time>
      </trkpt>
      <trkpt lat="49.85399" lon="4.78273">
        <ele>326</ele>
        <time>2020-11-13T08:11:01.000Z</time>
      </trkpt>
      <trkpt lat="49.85405" lon="4.78266">
        <ele>325</ele>
        <time>2020-11-13T08:11:02.000Z</time>
      </trkpt>
      <trkpt lat="49.8541" lon="4.78259">
        <ele>325</ele>
        <time>2020-11-13T08:11:03.000Z</time>
      </trkpt>
      <trkpt lat="49.85416" lon="4.78252">
        <ele>324</ele>
        <time>2020-11-13T08:11:04.000Z</time>
      </trkpt>
      <trkpt lat="49.85421" lon="4.78247">
        <ele>323</ele>
        <time>2020-11-13T08:11:05.000Z</time>
      </trkpt>
      <trkpt lat="49.85426" lon="4.78242">
        <ele>322</ele>
        <time>2020-11-13T08:11:06.000Z</time>
      </trkpt>
      <trkpt lat="49.8543" lon="4.78237">
        <ele>322</ele>
        <time>2020-11-13T08:11:07.000Z</time>
      </trkpt>
      <trkpt lat="49.85434" lon="4.78232">
        <ele>321</ele>
        <time>2020-11-13T08:11:08.000Z</time>
      </trkpt>
      <trkpt lat="49.85438" lon="4.78227">
        <ele>321</ele>
        <time>2020-11-13T08:11:09.000Z</time>
      </trkpt>
      <trkpt lat="49.85441" lon="4.78221">
        <ele>320</ele>
        <time>2020-11-13T08:11:10.000Z</time>
      </trkpt>
      <trkpt lat="49.85445" lon="4.78214">
        <ele>319</ele>
        <time>2020-11-13T08:11:11.000Z</time>
      </trkpt>
      <trkpt lat="49.85449" lon="4.78208">
        <ele>319</ele>
        <time>2020-11-13T08:11:12.000Z</time>
      </trkpt>
      <trkpt lat="49.85453" lon="4.78203">
        <ele>319</ele>
        <time>2020-11-13T08:11:13.000Z</time>
      </trkpt>
      <trkpt lat="49.85457" lon="4.78197">
        <ele>318</ele>
        <time>2020-11-13T08:11:14.000Z</time>
      </trkpt>
      <trkpt lat="49.85461" lon="4.7819">
        <ele>318</ele>
        <time>2020-11-13T08:11:15.000Z</time>
      </trkpt>
      <trkpt lat="49.85464" lon="4.78183">
        <ele>317</ele>
        <time>2020-11-13T08:11:16.000Z</time>
      </trkpt>
      <trkpt lat="49.85467" lon="4.78176">
        <ele>317</ele>
        <time>2020-11-13T08:11:17.000Z</time>
      </trkpt>
      <trkpt lat="49.8547" lon="4.78169">
        <ele>316</ele>
        <time>2020-11-13T08:11:18.000Z</time>
      </trkpt>
      <trkpt lat="49.85473" lon="4.78161">
        <ele>316</ele>
        <time>2020-11-13T08:11:19.000Z</time>
      </trkpt>
      <trkpt lat="49.85477" lon="4.78154">
        <ele>315</ele>
        <time>2020-11-13T08:11:20.000Z</time>
      </trkpt>
      <trkpt lat="49.85481" lon="4.78146">
        <ele>315</ele>
        <time>2020-11-13T08:11:21.000Z</time>
      </trkpt>
      <trkpt lat="49.85486" lon="4.78138">
        <ele>315</ele>
        <time>2020-11-13T08:11:22.000Z</time>
      </trkpt>
      <trkpt lat="49.8549" lon="4.7813">
        <ele>314</ele>
        <time>2020-11-13T08:11:23.000Z</time>
      </trkpt>
      <trkpt lat="49.85493" lon="4.78121">
        <ele>314</ele>
        <time>2020-11-13T08:11:24.000Z</time>
      </trkpt>
      <trkpt lat="49.85495" lon="4.78112">
        <ele>314</ele>
        <time>2020-11-13T08:11:25.000Z</time>
      </trkpt>
      <trkpt lat="49.85499" lon="4.78104">
        <ele>313</ele>
        <time>2020-11-13T08:11:26.000Z</time>
      </trkpt>
      <trkpt lat="49.85502" lon="4.78096">
        <ele>313</ele>
        <time>2020-11-13T08:11:27.000Z</time>
      </trkpt>
      <trkpt lat="49.85505" lon="4.7809">
        <ele>313</ele>
        <time>2020-11-13T08:11:28.000Z</time>
      </trkpt>
      <trkpt lat="49.85509" lon="4.78083">
        <ele>312</ele>
        <time>2020-11-13T08:11:29.000Z</time>
      </trkpt>
      <trkpt lat="49.85512" lon="4.78076">
        <ele>312</ele>
        <time>2020-11-13T08:11:30.000Z</time>
      </trkpt>
      <trkpt lat="49.85515" lon="4.78069">
        <ele>312</ele>
        <time>2020-11-13T08:11:31.000Z</time>
      </trkpt>
      <trkpt lat="49.85517" lon="4.78062">
        <ele>312</ele>
        <time>2020-11-13T08:11:32.000Z</time>
      </trkpt>
      <trkpt lat="49.8552" lon="4.78055">
        <ele>311</ele>
        <time>2020-11-13T08:11:33.000Z</time>
      </trkpt>
      <trkpt lat="49.85522" lon="4.78047">
        <ele>311</ele>
        <time>2020-11-13T08:11:34.000Z</time>
      </trkpt>
      <trkpt lat="49.85524" lon="4.78041">
        <ele>311</ele>
        <time>2020-11-13T08:11:35.000Z</time>
      </trkpt>
      <trkpt lat="49.85525" lon="4.78034">
        <ele>311</ele>
        <time>2020-11-13T08:11:36.000Z</time>
      </trkpt>
      <trkpt lat="49.85527" lon="4.78027">
        <ele>310</ele>
        <time>2020-11-13T08:11:37.000Z</time>
      </trkpt>
      <trkpt lat="49.85529" lon="4.78021">
        <ele>310</ele>
        <time>2020-11-13T08:11:38.000Z</time>
      </trkpt>
      <trkpt lat="49.85531" lon="4.78014">
        <ele>310</ele>
        <time>2020-11-13T08:11:39.000Z</time>
      </trkpt>
      <trkpt lat="49.85532" lon="4.78008">
        <ele>310</ele>
        <time>2020-11-13T08:11:40.000Z</time>
      </trkpt>
      <trkpt lat="49.85533" lon="4.78001">
        <ele>310</ele>
        <time>2020-11-13T08:11:41.000Z</time>
      </trkpt>
      <trkpt lat="49.85535" lon="4.77995">
        <ele>310</ele>
        <time>2020-11-13T08:11:42.000Z</time>
      </trkpt>
      <trkpt lat="49.85536" lon="4.77989">
        <ele>310</ele>
        <time>2020-11-13T08:11:43.000Z</time>
      </trkpt>
      <trkpt lat="49.85537" lon="4.77983">
        <ele>310</ele>
        <time>2020-11-13T08:11:44.000Z</time>
      </trkpt>
      <trkpt lat="49.85539" lon="4.77977">
        <ele>310</ele>
        <time>2020-11-13T08:11:45.000Z</time>
      </trkpt>
      <trkpt lat="49.85542" lon="4.77972">
        <ele>310</ele>
        <time>2020-11-13T08:11:46.000Z</time>
      </trkpt>
      <trkpt lat="49.85544" lon="4.77967">
        <ele>310</ele>
        <time>2020-11-13T08:11:47.000Z</time>
      </trkpt>
      <trkpt lat="49.85546" lon="4.77961">
        <ele>309</ele>
        <time>2020-11-13T08:11:48.000Z</time>
      </trkpt>
      <trkpt lat="49.85548" lon="4.77956">
        <ele>309</ele>
        <time>2020-11-13T08:11:49.000Z</time>
      </trkpt>
      <trkpt lat="49.8555" lon="4.77949">
        <ele>309</ele>
        <time>2020-11-13T08:11:50.000Z</time>
      </trkpt>
      <trkpt lat="49.85553" lon="4.77942">
        <ele>309</ele>
        <time>2020-11-13T08:11:51.000Z</time>
      </trkpt>
      <trkpt lat="49.85554" lon="4.77935">
        <ele>309</ele>
        <time>2020-11-13T08:11:52.000Z</time>
      </trkpt>
      <trkpt lat="49.85556" lon="4.77928">
        <ele>309</ele>
        <time>2020-11-13T08:11:53.000Z</time>
      </trkpt>
      <trkpt lat="49.85559" lon="4.77921">
        <ele>309</ele>
        <time>2020-11-13T08:11:54.000Z</time>
      </trkpt>
      <trkpt lat="49.85562" lon="4.77915">
        <ele>309</ele>
        <time>2020-11-13T08:11:55.000Z</time>
      </trkpt>
      <trkpt lat="49.85564" lon="4.77909">
        <ele>309</ele>
        <time>2020-11-13T08:11:56.000Z</time>
      </trkpt>
      <trkpt lat="49.85567" lon="4.77903">
        <ele>309</ele>
        <time>2020-11-13T08:11:57.000Z</time>
      </trkpt>
      <trkpt lat="49.8557" lon="4.77898">
        <ele>309</ele>
        <time>2020-11-13T08:11:58.000Z</time>
      </trkpt>
      <trkpt lat="49.85573" lon="4.77893">
        <ele>309</ele>
        <time>2020-11-13T08:11:59.000Z</time>
      </trkpt>
      <trkpt lat="49.85575" lon="4.77889">
        <ele>308</ele>
        <time>2020-11-13T08:12:00.000Z</time>
      </trkpt>
      <trkpt lat="49.85578" lon="4.77885">
        <ele>308</ele>
        <time>2020-11-13T08:12:01.000Z</time>
      </trkpt>
      <trkpt lat="49.85579" lon="4.77883">
        <ele>308</ele>
        <time>2020-11-13T08:12:02.000Z</time>
      </trkpt>
      <trkpt lat="49.85579" lon="4.77881">
        <ele>308</ele>
        <time>2020-11-13T08:12:03.000Z</time>
      </trkpt>
      <trkpt lat="49.85579" lon="4.77877">
        <ele>308</ele>
        <time>2020-11-13T08:12:04.000Z</time>
      </trkpt>
      <trkpt lat="49.85579" lon="4.77874">
        <ele>308</ele>
        <time>2020-11-13T08:12:05.000Z</time>
      </trkpt>
      <trkpt lat="49.85579" lon="4.77871">
        <ele>308</ele>
        <time>2020-11-13T08:12:06.000Z</time>
      </trkpt>
      <trkpt lat="49.85579" lon="4.77866">
        <ele>308</ele>
        <time>2020-11-13T08:12:07.000Z</time>
      </trkpt>
      <trkpt lat="49.85579" lon="4.77862">
        <ele>308</ele>
        <time>2020-11-13T08:12:08.000Z</time>
      </trkpt>
      <trkpt lat="49.85579" lon="4.77858">
        <ele>309</ele>
        <time>2020-11-13T08:12:09.000Z</time>
      </trkpt>
      <trkpt lat="49.85578" lon="4.77855">
        <ele>309</ele>
        <time>2020-11-13T08:12:10.000Z</time>
      </trkpt>
      <trkpt lat="49.85579" lon="4.77851">
        <ele>309</ele>
        <time>2020-11-13T08:12:11.000Z</time>
      </trkpt>
      <trkpt lat="49.85579" lon="4.77849">
        <ele>309</ele>
        <time>2020-11-13T08:12:12.000Z</time>
      </trkpt>
      <trkpt lat="49.8558" lon="4.77847">
        <ele>309</ele>
        <time>2020-11-13T08:12:13.000Z</time>
      </trkpt>
      <trkpt lat="49.85581" lon="4.77846">
        <ele>309</ele>
        <time>2020-11-13T08:12:14.000Z</time>
      </trkpt>
      <trkpt lat="49.85582" lon="4.77844">
        <ele>309</ele>
        <time>2020-11-13T08:12:15.000Z</time>
      </trkpt>
      <trkpt lat="49.85583" lon="4.77842">
        <ele>309</ele>
        <time>2020-11-13T08:12:16.000Z</time>
      </trkpt>
      <trkpt lat="49.85584" lon="4.7784">
        <ele>309</ele>
        <time>2020-11-13T08:12:17.000Z</time>
      </trkpt>
      <trkpt lat="49.85586" lon="4.7784">
        <ele>309</ele>
        <time>2020-11-13T08:12:18.000Z</time>
      </trkpt>
      <trkpt lat="49.85588" lon="4.7784">
        <ele>309</ele>
        <time>2020-11-13T08:12:19.000Z</time>
      </trkpt>
      <trkpt lat="49.85589" lon="4.7784">
        <ele>309</ele>
        <time>2020-11-13T08:12:20.000Z</time>
      </trkpt>
      <trkpt lat="49.85591" lon="4.77839">
        <ele>309</ele>
        <time>2020-11-13T08:12:21.000Z</time>
      </trkpt>
      <trkpt lat="49.85593" lon="4.77838">
        <ele>309</ele>
        <time>2020-11-13T08:12:22.000Z</time>
      </trkpt>
      <trkpt lat="49.85595" lon="4.77836">
        <ele>309</ele>
        <time>2020-11-13T08:12:23.000Z</time>
      </trkpt>
      <trkpt lat="49.85597" lon="4.77833">
        <ele>309</ele>
        <time>2020-11-13T08:12:24.000Z</time>
      </trkpt>
      <trkpt lat="49.85599" lon="4.7783">
        <ele>309</ele>
        <time>2020-11-13T08:12:25.000Z</time>
      </trkpt>
      <trkpt lat="49.85601" lon="4.77827">
        <ele>309</ele>
        <time>2020-11-13T08:12:26.000Z</time>
      </trkpt>
      <trkpt lat="49.85603" lon="4.77824">
        <ele>309</ele>
        <time>2020-11-13T08:12:27.000Z</time>
      </trkpt>
      <trkpt lat="49.85606" lon="4.77821">
        <ele>309</ele>
        <time>2020-11-13T08:12:28.000Z</time>
      </trkpt>
      <trkpt lat="49.85609" lon="4.7782">
        <ele>309</ele>
        <time>2020-11-13T08:12:29.000Z</time>
      </trkpt>
      <trkpt lat="49.85611" lon="4.77818">
        <ele>309</ele>
        <time>2020-11-13T08:12:30.000Z</time>
      </trkpt>
      <trkpt lat="49.85613" lon="4.77816">
        <ele>309</ele>
        <time>2020-11-13T08:12:31.000Z</time>
      </trkpt>
      <trkpt lat="49.85615" lon="4.77815">
        <ele>309</ele>
        <time>2020-11-13T08:12:32.000Z</time>
      </trkpt>
      <trkpt lat="49.85618" lon="4.77814">
        <ele>309</ele>
        <time>2020-11-13T08:12:33.000Z</time>
      </trkpt>
      <trkpt lat="49.8562" lon="4.77813">
        <ele>309</ele>
        <time>2020-11-13T08:12:34.000Z</time>
      </trkpt>
      <trkpt lat="49.85623" lon="4.77811">
        <ele>309</ele>
        <time>2020-11-13T08:12:35.000Z</time>
      </trkpt>
      <trkpt lat="49.85627" lon="4.77809">
        <ele>309</ele>
        <time>2020-11-13T08:12:36.000Z</time>
      </trkpt>
      <trkpt lat="49.85631" lon="4.77806">
        <ele>309</ele>
        <time>2020-11-13T08:12:37.000Z</time>
      </trkpt>
      <trkpt lat="49.85634" lon="4.77804">
        <ele>309</ele>
        <time>2020-11-13T08:12:38.000Z</time>
      </trkpt>
      <trkpt lat="49.85637" lon="4.77801">
        <ele>309</ele>
        <time>2020-11-13T08:12:39.000Z</time>
      </trkpt>
      <trkpt lat="49.85641" lon="4.77799">
        <ele>309</ele>
        <time>2020-11-13T08:12:40.000Z</time>
      </trkpt>
      <trkpt lat="49.85644" lon="4.77797">
        <ele>309</ele>
        <time>2020-11-13T08:12:41.000Z</time>
      </trkpt>
      <trkpt lat="49.85648" lon="4.77796">
        <ele>308</ele>
        <time>2020-11-13T08:12:42.000Z</time>
      </trkpt>
      <trkpt lat="49.85652" lon="4.77797">
        <ele>308</ele>
        <time>2020-11-13T08:12:43.000Z</time>
      </trkpt>
      <trkpt lat="49.85657" lon="4.77798">
        <ele>308</ele>
        <time>2020-11-13T08:12:44.000Z</time>
      </trkpt>
      <trkpt lat="49.85661" lon="4.77797">
        <ele>308</ele>
        <time>2020-11-13T08:12:45.000Z</time>
      </trkpt>
      <trkpt lat="49.85665" lon="4.77794">
        <ele>308</ele>
        <time>2020-11-13T08:12:46.000Z</time>
      </trkpt>
      <trkpt lat="49.85669" lon="4.77791">
        <ele>308</ele>
        <time>2020-11-13T08:12:47.000Z</time>
      </trkpt>
      <trkpt lat="49.85673" lon="4.77788">
        <ele>308</ele>
        <time>2020-11-13T08:12:48.000Z</time>
      </trkpt>
      <trkpt lat="49.85677" lon="4.77785">
        <ele>308</ele>
        <time>2020-11-13T08:12:49.000Z</time>
      </trkpt>
      <trkpt lat="49.85681" lon="4.77782">
        <ele>308</ele>
        <time>2020-11-13T08:12:50.000Z</time>
      </trkpt>
      <trkpt lat="49.85686" lon="4.77779">
        <ele>308</ele>
        <time>2020-11-13T08:12:51.000Z</time>
      </trkpt>
      <trkpt lat="49.8569" lon="4.77776">
        <ele>308</ele>
        <time>2020-11-13T08:12:52.000Z</time>
      </trkpt>
      <trkpt lat="49.85695" lon="4.77773">
        <ele>308</ele>
        <time>2020-11-13T08:12:53.000Z</time>
      </trkpt>
      <trkpt lat="49.857" lon="4.7777">
        <ele>308</ele>
        <time>2020-11-13T08:12:54.000Z</time>
      </trkpt>
      <trkpt lat="49.85705" lon="4.77767">
        <ele>308</ele>
        <time>2020-11-13T08:12:55.000Z</time>
      </trkpt>
      <trkpt lat="49.8571" lon="4.77764">
        <ele>309</ele>
        <time>2020-11-13T08:12:56.000Z</time>
      </trkpt>
      <trkpt lat="49.85716" lon="4.7776">
        <ele>308</ele>
        <time>2020-11-13T08:12:57.000Z</time>
      </trkpt>
      <trkpt lat="49.85722" lon="4.77757">
        <ele>308</ele>
        <time>2020-11-13T08:12:58.000Z</time>
      </trkpt>
      <trkpt lat="49.85728" lon="4.77753">
        <ele>308</ele>
        <time>2020-11-13T08:12:59.000Z</time>
      </trkpt>
      <trkpt lat="49.85734" lon="4.7775">
        <ele>308</ele>
        <time>2020-11-13T08:13:00.000Z</time>
      </trkpt>
      <trkpt lat="49.8574" lon="4.77747">
        <ele>308</ele>
        <time>2020-11-13T08:13:01.000Z</time>
      </trkpt>
      <trkpt lat="49.85746" lon="4.77745">
        <ele>307</ele>
        <time>2020-11-13T08:13:02.000Z</time>
      </trkpt>
      <trkpt lat="49.85751" lon="4.77743">
        <ele>307</ele>
        <time>2020-11-13T08:13:03.000Z</time>
      </trkpt>
      <trkpt lat="49.85755" lon="4.77741">
        <ele>307</ele>
        <time>2020-11-13T08:13:04.000Z</time>
      </trkpt>
      <trkpt lat="49.85758" lon="4.7774">
        <ele>306</ele>
        <time>2020-11-13T08:13:05.000Z</time>
      </trkpt>
      <trkpt lat="49.85759" lon="4.77737">
        <ele>306</ele>
        <time>2020-11-13T08:13:06.000Z</time>
      </trkpt>
      <trkpt lat="49.85761" lon="4.77735">
        <ele>305</ele>
        <time>2020-11-13T08:13:07.000Z</time>
      </trkpt>
      <trkpt lat="49.85762" lon="4.77734">
        <ele>305</ele>
        <time>2020-11-13T08:13:08.000Z</time>
      </trkpt>
      <trkpt lat="49.85765" lon="4.77734">
        <ele>305</ele>
        <time>2020-11-13T08:13:09.000Z</time>
      </trkpt>
      <trkpt lat="49.85768" lon="4.77734">
        <ele>304</ele>
        <time>2020-11-13T08:13:10.000Z</time>
      </trkpt>
      <trkpt lat="49.8577" lon="4.77733">
        <ele>304</ele>
        <time>2020-11-13T08:13:11.000Z</time>
      </trkpt>
      <trkpt lat="49.85773" lon="4.77731">
        <ele>303</ele>
        <time>2020-11-13T08:13:12.000Z</time>
      </trkpt>
      <trkpt lat="49.85775" lon="4.77728">
        <ele>303</ele>
        <time>2020-11-13T08:13:13.000Z</time>
      </trkpt>
      <trkpt lat="49.85776" lon="4.77725">
        <ele>303</ele>
        <time>2020-11-13T08:13:14.000Z</time>
      </trkpt>
      <trkpt lat="49.85777" lon="4.77722">
        <ele>302</ele>
        <time>2020-11-13T08:13:15.000Z</time>
      </trkpt>
      <trkpt lat="49.85778" lon="4.7772">
        <ele>302</ele>
        <time>2020-11-13T08:13:16.000Z</time>
      </trkpt>
      <trkpt lat="49.85779" lon="4.77719">
        <ele>302</ele>
        <time>2020-11-13T08:13:17.000Z</time>
      </trkpt>
      <trkpt lat="49.85778" lon="4.77717">
        <ele>301</ele>
        <time>2020-11-13T08:13:18.000Z</time>
      </trkpt>
      <trkpt lat="49.85777" lon="4.77716">
        <ele>301</ele>
        <time>2020-11-13T08:13:19.000Z</time>
      </trkpt>
      <trkpt lat="49.85776" lon="4.77715">
        <ele>301</ele>
        <time>2020-11-13T08:13:20.000Z</time>
      </trkpt>
      <trkpt lat="49.85774" lon="4.77712">
        <ele>301</ele>
        <time>2020-11-13T08:13:21.000Z</time>
      </trkpt>
      <trkpt lat="49.85773" lon="4.7771">
        <ele>301</ele>
        <time>2020-11-13T08:13:22.000Z</time>
      </trkpt>
      <trkpt lat="49.85772" lon="4.77708">
        <ele>300</ele>
        <time>2020-11-13T08:13:23.000Z</time>
      </trkpt>
      <trkpt lat="49.85772" lon="4.77707">
        <ele>300</ele>
        <time>2020-11-13T08:13:24.000Z</time>
      </trkpt>
      <trkpt lat="49.85772" lon="4.77706">
        <ele>300</ele>
        <time>2020-11-13T08:13:25.000Z</time>
      </trkpt>
      <trkpt lat="49.85772" lon="4.77705">
        <ele>300</ele>
        <time>2020-11-13T08:13:26.000Z</time>
      </trkpt>
      <trkpt lat="49.85772" lon="4.77704">
        <ele>300</ele>
        <time>2020-11-13T08:13:27.000Z</time>
      </trkpt>
      <trkpt lat="49.85772" lon="4.77703">
        <ele>300</ele>
        <time>2020-11-13T08:13:28.000Z</time>
      </trkpt>
      <trkpt lat="49.85772" lon="4.77703">
        <ele>300</ele>
        <time>2020-11-13T08:13:29.000Z</time>
      </trkpt>
      <trkpt lat="49.85773" lon="4.77701">
        <ele>300</ele>
        <time>2020-11-13T08:13:30.000Z</time>
      </trkpt>
      <trkpt lat="49.85774" lon="4.77699">
        <ele>299</ele>
        <time>2020-11-13T08:13:31.000Z</time>
      </trkpt>
      <trkpt lat="49.85775" lon="4.77697">
        <ele>299</ele>
        <time>2020-11-13T08:13:32.000Z</time>
      </trkpt>
      <trkpt lat="49.85776" lon="4.77695">
        <ele>299</ele>
        <time>2020-11-13T08:13:33.000Z</time>
      </trkpt>
      <trkpt lat="49.85776" lon="4.77691">
        <ele>299</ele>
        <time>2020-11-13T08:13:34.000Z</time>
      </trkpt>
      <trkpt lat="49.85776" lon="4.77687">
        <ele>299</ele>
        <time>2020-11-13T08:13:35.000Z</time>
      </trkpt>
      <trkpt lat="49.85776" lon="4.77682">
        <ele>299</ele>
        <time>2020-11-13T08:13:36.000Z</time>
      </trkpt>
      <trkpt lat="49.85777" lon="4.77676">
        <ele>299</ele>
        <time>2020-11-13T08:13:37.000Z</time>
      </trkpt>
      <trkpt lat="49.85778" lon="4.7767">
        <ele>299</ele>
        <time>2020-11-13T08:13:38.000Z</time>
      </trkpt>
      <trkpt lat="49.85779" lon="4.77663">
        <ele>299</ele>
        <time>2020-11-13T08:13:39.000Z</time>
      </trkpt>
      <trkpt lat="49.85781" lon="4.77655">
        <ele>299</ele>
        <time>2020-11-13T08:13:40.000Z</time>
      </trkpt>
      <trkpt lat="49.85782" lon="4.77646">
        <ele>299</ele>
        <time>2020-11-13T08:13:41.000Z</time>
      </trkpt>
      <trkpt lat="49.85784" lon="4.77639">
        <ele>299</ele>
        <time>2020-11-13T08:13:42.000Z</time>
      </trkpt>
      <trkpt lat="49.85786" lon="4.77631">
        <ele>298</ele>
        <time>2020-11-13T08:13:43.000Z</time>
      </trkpt>
      <trkpt lat="49.85787" lon="4.77624">
        <ele>298</ele>
        <time>2020-11-13T08:13:44.000Z</time>
      </trkpt>
      <trkpt lat="49.85788" lon="4.77618">
        <ele>298</ele>
        <time>2020-11-13T08:13:45.000Z</time>
      </trkpt>
      <trkpt lat="49.85788" lon="4.77611">
        <ele>298</ele>
        <time>2020-11-13T08:13:46.000Z</time>
      </trkpt>
      <trkpt lat="49.85786" lon="4.77604">
        <ele>297</ele>
        <time>2020-11-13T08:13:47.000Z</time>
      </trkpt>
      <trkpt lat="49.85785" lon="4.77597">
        <ele>297</ele>
        <time>2020-11-13T08:13:48.000Z</time>
      </trkpt>
      <trkpt lat="49.85783" lon="4.77591">
        <ele>297</ele>
        <time>2020-11-13T08:13:49.000Z</time>
      </trkpt>
      <trkpt lat="49.8578" lon="4.77586">
        <ele>297</ele>
        <time>2020-11-13T08:13:50.000Z</time>
      </trkpt>
      <trkpt lat="49.85778" lon="4.77579">
        <ele>296</ele>
        <time>2020-11-13T08:13:51.000Z</time>
      </trkpt>
      <trkpt lat="49.85776" lon="4.77573">
        <ele>296</ele>
        <time>2020-11-13T08:13:52.000Z</time>
      </trkpt>
      <trkpt lat="49.85774" lon="4.77567">
        <ele>296</ele>
        <time>2020-11-13T08:13:53.000Z</time>
      </trkpt>
      <trkpt lat="49.85772" lon="4.77561">
        <ele>295</ele>
        <time>2020-11-13T08:13:54.000Z</time>
      </trkpt>
      <trkpt lat="49.85771" lon="4.77557">
        <ele>295</ele>
        <time>2020-11-13T08:13:55.000Z</time>
      </trkpt>
      <trkpt lat="49.8577" lon="4.77552">
        <ele>294</ele>
        <time>2020-11-13T08:13:56.000Z</time>
      </trkpt>
      <trkpt lat="49.85768" lon="4.77548">
        <ele>294</ele>
        <time>2020-11-13T08:13:57.000Z</time>
      </trkpt>
      <trkpt lat="49.85766" lon="4.77544">
        <ele>294</ele>
        <time>2020-11-13T08:13:58.000Z</time>
      </trkpt>
      <trkpt lat="49.85764" lon="4.7754">
        <ele>293</ele>
        <time>2020-11-13T08:13:59.000Z</time>
      </trkpt>
      <trkpt lat="49.85762" lon="4.77536">
        <ele>293</ele>
        <time>2020-11-13T08:14:00.000Z</time>
      </trkpt>
      <trkpt lat="49.8576" lon="4.77533">
        <ele>293</ele>
        <time>2020-11-13T08:14:01.000Z</time>
      </trkpt>
      <trkpt lat="49.85758" lon="4.7753">
        <ele>292</ele>
        <time>2020-11-13T08:14:02.000Z</time>
      </trkpt>
      <trkpt lat="49.85757" lon="4.77527">
        <ele>292</ele>
        <time>2020-11-13T08:14:03.000Z</time>
      </trkpt>
      <trkpt lat="49.85755" lon="4.77524">
        <ele>291</ele>
        <time>2020-11-13T08:14:04.000Z</time>
      </trkpt>
      <trkpt lat="49.85754" lon="4.77521">
        <ele>291</ele>
        <time>2020-11-13T08:14:05.000Z</time>
      </trkpt>
      <trkpt lat="49.85754" lon="4.77518">
        <ele>290</ele>
        <time>2020-11-13T08:14:06.000Z</time>
      </trkpt>
      <trkpt lat="49.85753" lon="4.77515">
        <ele>290</ele>
        <time>2020-11-13T08:14:07.000Z</time>
      </trkpt>
      <trkpt lat="49.85752" lon="4.77512">
        <ele>289</ele>
        <time>2020-11-13T08:14:08.000Z</time>
      </trkpt>
      <trkpt lat="49.85752" lon="4.77508">
        <ele>289</ele>
        <time>2020-11-13T08:14:09.000Z</time>
      </trkpt>
      <trkpt lat="49.85752" lon="4.77505">
        <ele>289</ele>
        <time>2020-11-13T08:14:10.000Z</time>
      </trkpt>
      <trkpt lat="49.85752" lon="4.77502">
        <ele>288</ele>
        <time>2020-11-13T08:14:11.000Z</time>
      </trkpt>
      <trkpt lat="49.85752" lon="4.77499">
        <ele>288</ele>
        <time>2020-11-13T08:14:12.000Z</time>
      </trkpt>
      <trkpt lat="49.85751" lon="4.77496">
        <ele>287</ele>
        <time>2020-11-13T08:14:13.000Z</time>
      </trkpt>
      <trkpt lat="49.8575" lon="4.77494">
        <ele>287</ele>
        <time>2020-11-13T08:14:14.000Z</time>
      </trkpt>
      <trkpt lat="49.85749" lon="4.77491">
        <ele>287</ele>
        <time>2020-11-13T08:14:15.000Z</time>
      </trkpt>
      <trkpt lat="49.85749" lon="4.77489">
        <ele>286</ele>
        <time>2020-11-13T08:14:16.000Z</time>
      </trkpt>
      <trkpt lat="49.85748" lon="4.77486">
        <ele>286</ele>
        <time>2020-11-13T08:14:17.000Z</time>
      </trkpt>
      <trkpt lat="49.85747" lon="4.77483">
        <ele>286</ele>
        <time>2020-11-13T08:14:18.000Z</time>
      </trkpt>
      <trkpt lat="49.85746" lon="4.7748">
        <ele>285</ele>
        <time>2020-11-13T08:14:19.000Z</time>
      </trkpt>
      <trkpt lat="49.85744" lon="4.77476">
        <ele>285</ele>
        <time>2020-11-13T08:14:20.000Z</time>
      </trkpt>
      <trkpt lat="49.85742" lon="4.77471">
        <ele>284</ele>
        <time>2020-11-13T08:14:21.000Z</time>
      </trkpt>
      <trkpt lat="49.8574" lon="4.77464">
        <ele>284</ele>
        <time>2020-11-13T08:14:22.000Z</time>
      </trkpt>
      <trkpt lat="49.85739" lon="4.77457">
        <ele>284</ele>
        <time>2020-11-13T08:14:23.000Z</time>
      </trkpt>
      <trkpt lat="49.85739" lon="4.77452">
        <ele>283</ele>
        <time>2020-11-13T08:14:24.000Z</time>
      </trkpt>
      <trkpt lat="49.85738" lon="4.77447">
        <ele>283</ele>
        <time>2020-11-13T08:14:25.000Z</time>
      </trkpt>
      <trkpt lat="49.85738" lon="4.77442">
        <ele>282</ele>
        <time>2020-11-13T08:14:26.000Z</time>
      </trkpt>
      <trkpt lat="49.85738" lon="4.77437">
        <ele>282</ele>
        <time>2020-11-13T08:14:27.000Z</time>
      </trkpt>
      <trkpt lat="49.85738" lon="4.77432">
        <ele>282</ele>
        <time>2020-11-13T08:14:28.000Z</time>
      </trkpt>
      <trkpt lat="49.85738" lon="4.77426">
        <ele>281</ele>
        <time>2020-11-13T08:14:29.000Z</time>
      </trkpt>
      <trkpt lat="49.85738" lon="4.77419">
        <ele>281</ele>
        <time>2020-11-13T08:14:30.000Z</time>
      </trkpt>
      <trkpt lat="49.85738" lon="4.77412">
        <ele>281</ele>
        <time>2020-11-13T08:14:31.000Z</time>
      </trkpt>
      <trkpt lat="49.85737" lon="4.77406">
        <ele>280</ele>
        <time>2020-11-13T08:14:32.000Z</time>
      </trkpt>
      <trkpt lat="49.85737" lon="4.77403">
        <ele>280</ele>
        <time>2020-11-13T08:14:33.000Z</time>
      </trkpt>
      <trkpt lat="49.85737" lon="4.77401">
        <ele>279</ele>
        <time>2020-11-13T08:14:34.000Z</time>
      </trkpt>
      <trkpt lat="49.85737" lon="4.77401">
        <ele>279</ele>
        <time>2020-11-13T08:14:35.000Z</time>
      </trkpt>
      <trkpt lat="49.85736" lon="4.774">
        <ele>278</ele>
        <time>2020-11-13T08:14:36.000Z</time>
      </trkpt>
      <trkpt lat="49.85736" lon="4.774">
        <ele>278</ele>
        <time>2020-11-13T08:14:37.000Z</time>
      </trkpt>
      <trkpt lat="49.85735" lon="4.77399">
        <ele>278</ele>
        <time>2020-11-13T08:14:38.000Z</time>
      </trkpt>
      <trkpt lat="49.85734" lon="4.77399">
        <ele>277</ele>
        <time>2020-11-13T08:14:39.000Z</time>
      </trkpt>
      <trkpt lat="49.85733" lon="4.77399">
        <ele>277</ele>
        <time>2020-11-13T08:14:40.000Z</time>
      </trkpt>
      <trkpt lat="49.8573" lon="4.77398">
        <ele>276</ele>
        <time>2020-11-13T08:14:41.000Z</time>
      </trkpt>
      <trkpt lat="49.85727" lon="4.77398">
        <ele>276</ele>
        <time>2020-11-13T08:14:42.000Z</time>
      </trkpt>
      <trkpt lat="49.85724" lon="4.77396">
        <ele>275</ele>
        <time>2020-11-13T08:14:43.000Z</time>
      </trkpt>
      <trkpt lat="49.85721" lon="4.77394">
        <ele>275</ele>
        <time>2020-11-13T08:14:44.000Z</time>
      </trkpt>
      <trkpt lat="49.8572" lon="4.77393">
        <ele>275</ele>
        <time>2020-11-13T08:14:45.000Z</time>
      </trkpt>
      <trkpt lat="49.8572" lon="4.77393">
        <ele>274</ele>
        <time>2020-11-13T08:14:46.000Z</time>
      </trkpt>
      <trkpt lat="49.8572" lon="4.77393">
        <ele>274</ele>
        <time>2020-11-13T08:14:47.000Z</time>
      </trkpt>
      <trkpt lat="49.8572" lon="4.77393">
        <ele>274</ele>
        <time>2020-11-13T08:14:48.000Z</time>
      </trkpt>
      <trkpt lat="49.8572" lon="4.77393">
        <ele>274</ele>
        <time>2020-11-13T08:14:49.000Z</time>
      </trkpt>
      <trkpt lat="49.85721" lon="4.77392">
        <ele>274</ele>
        <time>2020-11-13T08:14:50.000Z</time>
      </trkpt>
      <trkpt lat="49.85721" lon="4.77392">
        <ele>273</ele>
        <time>2020-11-13T08:14:51.000Z</time>
      </trkpt>
      <trkpt lat="49.85721" lon="4.77392">
        <ele>273</ele>
        <time>2020-11-13T08:14:52.000Z</time>
      </trkpt>
      <trkpt lat="49.85721" lon="4.77392">
        <ele>273</ele>
        <time>2020-11-13T08:14:53.000Z</time>
      </trkpt>
      <trkpt lat="49.85721" lon="4.77391">
        <ele>273</ele>
        <time>2020-11-13T08:14:54.000Z</time>
      </trkpt>
      <trkpt lat="49.85722" lon="4.77391">
        <ele>273</ele>
        <time>2020-11-13T08:14:55.000Z</time>
      </trkpt>
      <trkpt lat="49.85722" lon="4.77391">
        <ele>272</ele>
        <time>2020-11-13T08:14:56.000Z</time>
      </trkpt>
      <trkpt lat="49.85724" lon="4.77391">
        <ele>272</ele>
        <time>2020-11-13T08:14:57.000Z</time>
      </trkpt>
      <trkpt lat="49.85726" lon="4.77392">
        <ele>272</ele>
        <time>2020-11-13T08:14:58.000Z</time>
      </trkpt>
      <trkpt lat="49.85728" lon="4.77392">
        <ele>272</ele>
        <time>2020-11-13T08:14:59.000Z</time>
      </trkpt>
      <trkpt lat="49.85729" lon="4.77393">
        <ele>272</ele>
        <time>2020-11-13T08:15:00.000Z</time>
      </trkpt>
      <trkpt lat="49.8573" lon="4.77392">
        <ele>272</ele>
        <time>2020-11-13T08:15:01.000Z</time>
      </trkpt>
      <trkpt lat="49.8573" lon="4.77391">
        <ele>272</ele>
        <time>2020-11-13T08:15:02.000Z</time>
      </trkpt>
      <trkpt lat="49.85731" lon="4.77391">
        <ele>272</ele>
        <time>2020-11-13T08:15:03.000Z</time>
      </trkpt>
      <trkpt lat="49.85731" lon="4.77391">
        <ele>271</ele>
        <time>2020-11-13T08:15:04.000Z</time>
      </trkpt>
      <trkpt lat="49.85731" lon="4.7739">
        <ele>271</ele>
        <time>2020-11-13T08:15:05.000Z</time>
      </trkpt>
      <trkpt lat="49.85731" lon="4.7739">
        <ele>271</ele>
        <time>2020-11-13T08:15:06.000Z</time>
      </trkpt>
      <trkpt lat="49.85732" lon="4.7739">
        <ele>271</ele>
        <time>2020-11-13T08:15:07.000Z</time>
      </trkpt>
      <trkpt lat="49.85732" lon="4.77388">
        <ele>271</ele>
        <time>2020-11-13T08:15:08.000Z</time>
      </trkpt>
      <trkpt lat="49.85733" lon="4.77385">
        <ele>270</ele>
        <time>2020-11-13T08:15:09.000Z</time>
      </trkpt>
      <trkpt lat="49.85734" lon="4.77382">
        <ele>270</ele>
        <time>2020-11-13T08:15:10.000Z</time>
      </trkpt>
      <trkpt lat="49.85734" lon="4.77377">
        <ele>270</ele>
        <time>2020-11-13T08:15:11.000Z</time>
      </trkpt>
      <trkpt lat="49.85735" lon="4.77372">
        <ele>269</ele>
        <time>2020-11-13T08:15:12.000Z</time>
      </trkpt>
      <trkpt lat="49.85735" lon="4.77367">
        <ele>269</ele>
        <time>2020-11-13T08:15:13.000Z</time>
      </trkpt>
      <trkpt lat="49.85735" lon="4.77363">
        <ele>268</ele>
        <time>2020-11-13T08:15:14.000Z</time>
      </trkpt>
      <trkpt lat="49.85735" lon="4.77358">
        <ele>268</ele>
        <time>2020-11-13T08:15:15.000Z</time>
      </trkpt>
      <trkpt lat="49.85735" lon="4.77353">
        <ele>268</ele>
        <time>2020-11-13T08:15:16.000Z</time>
      </trkpt>
      <trkpt lat="49.85734" lon="4.77348">
        <ele>267</ele>
        <time>2020-11-13T08:15:17.000Z</time>
      </trkpt>
      <trkpt lat="49.85734" lon="4.77342">
        <ele>267</ele>
        <time>2020-11-13T08:15:18.000Z</time>
      </trkpt>
      <trkpt lat="49.85735" lon="4.77337">
        <ele>267</ele>
        <time>2020-11-13T08:15:19.000Z</time>
      </trkpt>
      <trkpt lat="49.85734" lon="4.77331">
        <ele>266</ele>
        <time>2020-11-13T08:15:20.000Z</time>
      </trkpt>
      <trkpt lat="49.85733" lon="4.77325">
        <ele>266</ele>
        <time>2020-11-13T08:15:21.000Z</time>
      </trkpt>
      <trkpt lat="49.85731" lon="4.77319">
        <ele>265</ele>
        <time>2020-11-13T08:15:22.000Z</time>
      </trkpt>
      <trkpt lat="49.85729" lon="4.77313">
        <ele>265</ele>
        <time>2020-11-13T08:15:23.000Z</time>
      </trkpt>
      <trkpt lat="49.85727" lon="4.77306">
        <ele>264</ele>
        <time>2020-11-13T08:15:24.000Z</time>
      </trkpt>
      <trkpt lat="49.85726" lon="4.77299">
        <ele>264</ele>
        <time>2020-11-13T08:15:25.000Z</time>
      </trkpt>
      <trkpt lat="49.85724" lon="4.77292">
        <ele>264</ele>
        <time>2020-11-13T08:15:26.000Z</time>
      </trkpt>
      <trkpt lat="49.85723" lon="4.77286">
        <ele>263</ele>
        <time>2020-11-13T08:15:27.000Z</time>
      </trkpt>
      <trkpt lat="49.85721" lon="4.77281">
        <ele>262</ele>
        <time>2020-11-13T08:15:28.000Z</time>
      </trkpt>
      <trkpt lat="49.85719" lon="4.77275">
        <ele>262</ele>
        <time>2020-11-13T08:15:29.000Z</time>
      </trkpt>
      <trkpt lat="49.85717" lon="4.77268">
        <ele>261</ele>
        <time>2020-11-13T08:15:30.000Z</time>
      </trkpt>
      <trkpt lat="49.85715" lon="4.77262">
        <ele>260</ele>
        <time>2020-11-13T08:15:31.000Z</time>
      </trkpt>
      <trkpt lat="49.85712" lon="4.77256">
        <ele>260</ele>
        <time>2020-11-13T08:15:32.000Z</time>
      </trkpt>
      <trkpt lat="49.8571" lon="4.77251">
        <ele>259</ele>
        <time>2020-11-13T08:15:33.000Z</time>
      </trkpt>
      <trkpt lat="49.85708" lon="4.77245">
        <ele>258</ele>
        <time>2020-11-13T08:15:34.000Z</time>
      </trkpt>
      <trkpt lat="49.85707" lon="4.7724">
        <ele>258</ele>
        <time>2020-11-13T08:15:35.000Z</time>
      </trkpt>
      <trkpt lat="49.85707" lon="4.77234">
        <ele>257</ele>
        <time>2020-11-13T08:15:36.000Z</time>
      </trkpt>
      <trkpt lat="49.85707" lon="4.77231">
        <ele>256</ele>
        <time>2020-11-13T08:15:37.000Z</time>
      </trkpt>
      <trkpt lat="49.85707" lon="4.77231">
        <ele>256</ele>
        <time>2020-11-13T08:15:38.000Z</time>
      </trkpt>
      <trkpt lat="49.85708" lon="4.77231">
        <ele>255</ele>
        <time>2020-11-13T08:15:39.000Z</time>
      </trkpt>
      <trkpt lat="49.85708" lon="4.7723">
        <ele>255</ele>
        <time>2020-11-13T08:15:40.000Z</time>
      </trkpt>
      <trkpt lat="49.85708" lon="4.77229">
        <ele>255</ele>
        <time>2020-11-13T08:15:41.000Z</time>
      </trkpt>
      <trkpt lat="49.85709" lon="4.77227">
        <ele>254</ele>
        <time>2020-11-13T08:15:42.000Z</time>
      </trkpt>
      <trkpt lat="49.85709" lon="4.77224">
        <ele>254</ele>
        <time>2020-11-13T08:15:43.000Z</time>
      </trkpt>
      <trkpt lat="49.8571" lon="4.77222">
        <ele>253</ele>
        <time>2020-11-13T08:15:44.000Z</time>
      </trkpt>
      <trkpt lat="49.85711" lon="4.7722">
        <ele>253</ele>
        <time>2020-11-13T08:15:45.000Z</time>
      </trkpt>
      <trkpt lat="49.85712" lon="4.77217">
        <ele>253</ele>
        <time>2020-11-13T08:15:46.000Z</time>
      </trkpt>
      <trkpt lat="49.85713" lon="4.77216">
        <ele>252</ele>
        <time>2020-11-13T08:15:47.000Z</time>
      </trkpt>
      <trkpt lat="49.85714" lon="4.77213">
        <ele>252</ele>
        <time>2020-11-13T08:15:48.000Z</time>
      </trkpt>
      <trkpt lat="49.85715" lon="4.7721">
        <ele>251</ele>
        <time>2020-11-13T08:15:49.000Z</time>
      </trkpt>
      <trkpt lat="49.85717" lon="4.77206">
        <ele>251</ele>
        <time>2020-11-13T08:15:50.000Z</time>
      </trkpt>
      <trkpt lat="49.85718" lon="4.77203">
        <ele>250</ele>
        <time>2020-11-13T08:15:51.000Z</time>
      </trkpt>
      <trkpt lat="49.85719" lon="4.77199">
        <ele>250</ele>
        <time>2020-11-13T08:15:52.000Z</time>
      </trkpt>
      <trkpt lat="49.8572" lon="4.77195">
        <ele>249</ele>
        <time>2020-11-13T08:15:53.000Z</time>
      </trkpt>
      <trkpt lat="49.8572" lon="4.77192">
        <ele>248</ele>
        <time>2020-11-13T08:15:54.000Z</time>
      </trkpt>
      <trkpt lat="49.8572" lon="4.77188">
        <ele>248</ele>
        <time>2020-11-13T08:15:55.000Z</time>
      </trkpt>
      <trkpt lat="49.8572" lon="4.77185">
        <ele>248</ele>
        <time>2020-11-13T08:15:56.000Z</time>
      </trkpt>
      <trkpt lat="49.85719" lon="4.77181">
        <ele>247</ele>
        <time>2020-11-13T08:15:57.000Z</time>
      </trkpt>
      <trkpt lat="49.85718" lon="4.77177">
        <ele>247</ele>
        <time>2020-11-13T08:15:58.000Z</time>
      </trkpt>
      <trkpt lat="49.85716" lon="4.77171">
        <ele>247</ele>
        <time>2020-11-13T08:15:59.000Z</time>
      </trkpt>
      <trkpt lat="49.85715" lon="4.77166">
        <ele>246</ele>
        <time>2020-11-13T08:16:00.000Z</time>
      </trkpt>
      <trkpt lat="49.85713" lon="4.7716">
        <ele>246</ele>
        <time>2020-11-13T08:16:01.000Z</time>
      </trkpt>
      <trkpt lat="49.85711" lon="4.77153">
        <ele>245</ele>
        <time>2020-11-13T08:16:02.000Z</time>
      </trkpt>
      <trkpt lat="49.85709" lon="4.77145">
        <ele>245</ele>
        <time>2020-11-13T08:16:03.000Z</time>
      </trkpt>
      <trkpt lat="49.85707" lon="4.77138">
        <ele>244</ele>
        <time>2020-11-13T08:16:04.000Z</time>
      </trkpt>
      <trkpt lat="49.85704" lon="4.7713">
        <ele>244</ele>
        <time>2020-11-13T08:16:05.000Z</time>
      </trkpt>
      <trkpt lat="49.85702" lon="4.77123">
        <ele>243</ele>
        <time>2020-11-13T08:16:06.000Z</time>
      </trkpt>
      <trkpt lat="49.85699" lon="4.77117">
        <ele>243</ele>
        <time>2020-11-13T08:16:07.000Z</time>
      </trkpt>
      <trkpt lat="49.85697" lon="4.7711">
        <ele>242</ele>
        <time>2020-11-13T08:16:08.000Z</time>
      </trkpt>
      <trkpt lat="49.85694" lon="4.77105">
        <ele>242</ele>
        <time>2020-11-13T08:16:09.000Z</time>
      </trkpt>
      <trkpt lat="49.85692" lon="4.77098">
        <ele>242</ele>
        <time>2020-11-13T08:16:10.000Z</time>
      </trkpt>
      <trkpt lat="49.8569" lon="4.77091">
        <ele>241</ele>
        <time>2020-11-13T08:16:11.000Z</time>
      </trkpt>
      <trkpt lat="49.85687" lon="4.77084">
        <ele>241</ele>
        <time>2020-11-13T08:16:12.000Z</time>
      </trkpt>
      <trkpt lat="49.85684" lon="4.77078">
        <ele>240</ele>
        <time>2020-11-13T08:16:13.000Z</time>
      </trkpt>
      <trkpt lat="49.85681" lon="4.7707">
        <ele>240</ele>
        <time>2020-11-13T08:16:14.000Z</time>
      </trkpt>
      <trkpt lat="49.85678" lon="4.77062">
        <ele>239</ele>
        <time>2020-11-13T08:16:15.000Z</time>
      </trkpt>
      <trkpt lat="49.85675" lon="4.77055">
        <ele>239</ele>
        <time>2020-11-13T08:16:16.000Z</time>
      </trkpt>
      <trkpt lat="49.85672" lon="4.77049">
        <ele>238</ele>
        <time>2020-11-13T08:16:17.000Z</time>
      </trkpt>
      <trkpt lat="49.85669" lon="4.77041">
        <ele>238</ele>
        <time>2020-11-13T08:16:18.000Z</time>
      </trkpt>
      <trkpt lat="49.85666" lon="4.77034">
        <ele>237</ele>
        <time>2020-11-13T08:16:19.000Z</time>
      </trkpt>
      <trkpt lat="49.85663" lon="4.77027">
        <ele>237</ele>
        <time>2020-11-13T08:16:20.000Z</time>
      </trkpt>
      <trkpt lat="49.85659" lon="4.77019">
        <ele>236</ele>
        <time>2020-11-13T08:16:21.000Z</time>
      </trkpt>
      <trkpt lat="49.85655" lon="4.77012">
        <ele>235</ele>
        <time>2020-11-13T08:16:22.000Z</time>
      </trkpt>
      <trkpt lat="49.85651" lon="4.77005">
        <ele>235</ele>
        <time>2020-11-13T08:16:23.000Z</time>
      </trkpt>
      <trkpt lat="49.85647" lon="4.76997">
        <ele>234</ele>
        <time>2020-11-13T08:16:24.000Z</time>
      </trkpt>
      <trkpt lat="49.85643" lon="4.76989">
        <ele>233</ele>
        <time>2020-11-13T08:16:25.000Z</time>
      </trkpt>
      <trkpt lat="49.85638" lon="4.7698">
        <ele>232</ele>
        <time>2020-11-13T08:16:26.000Z</time>
      </trkpt>
      <trkpt lat="49.85634" lon="4.76972">
        <ele>231</ele>
        <time>2020-11-13T08:16:27.000Z</time>
      </trkpt>
      <trkpt lat="49.8563" lon="4.76961">
        <ele>230</ele>
        <time>2020-11-13T08:16:28.000Z</time>
      </trkpt>
      <trkpt lat="49.85627" lon="4.76951">
        <ele>229</ele>
        <time>2020-11-13T08:16:29.000Z</time>
      </trkpt>
      <trkpt lat="49.85623" lon="4.76941">
        <ele>228</ele>
        <time>2020-11-13T08:16:30.000Z</time>
      </trkpt>
      <trkpt lat="49.85619" lon="4.76931">
        <ele>226</ele>
        <time>2020-11-13T08:16:31.000Z</time>
      </trkpt>
      <trkpt lat="49.85617" lon="4.76922">
        <ele>225</ele>
        <time>2020-11-13T08:16:32.000Z</time>
      </trkpt>
      <trkpt lat="49.85615" lon="4.76914">
        <ele>223</ele>
        <time>2020-11-13T08:16:33.000Z</time>
      </trkpt>
      <trkpt lat="49.85613" lon="4.76906">
        <ele>221</ele>
        <time>2020-11-13T08:16:34.000Z</time>
      </trkpt>
      <trkpt lat="49.85612" lon="4.76897">
        <ele>220</ele>
        <time>2020-11-13T08:16:35.000Z</time>
      </trkpt>
      <trkpt lat="49.85612" lon="4.7689">
        <ele>219</ele>
        <time>2020-11-13T08:16:36.000Z</time>
      </trkpt>
      <trkpt lat="49.85611" lon="4.76882">
        <ele>217</ele>
        <time>2020-11-13T08:16:37.000Z</time>
      </trkpt>
      <trkpt lat="49.85611" lon="4.76875">
        <ele>216</ele>
        <time>2020-11-13T08:16:38.000Z</time>
      </trkpt>
      <trkpt lat="49.85611" lon="4.76868">
        <ele>215</ele>
        <time>2020-11-13T08:16:39.000Z</time>
      </trkpt>
      <trkpt lat="49.8561" lon="4.76862">
        <ele>214</ele>
        <time>2020-11-13T08:16:40.000Z</time>
      </trkpt>
      <trkpt lat="49.85611" lon="4.76856">
        <ele>213</ele>
        <time>2020-11-13T08:16:41.000Z</time>
      </trkpt>
      <trkpt lat="49.85611" lon="4.76851">
        <ele>212</ele>
        <time>2020-11-13T08:16:42.000Z</time>
      </trkpt>
      <trkpt lat="49.85611" lon="4.76847">
        <ele>211</ele>
        <time>2020-11-13T08:16:43.000Z</time>
      </trkpt>
      <trkpt lat="49.85611" lon="4.76845">
        <ele>211</ele>
        <time>2020-11-13T08:16:44.000Z</time>
      </trkpt>
      <trkpt lat="49.85612" lon="4.76844">
        <ele>210</ele>
        <time>2020-11-13T08:16:45.000Z</time>
      </trkpt>
      <trkpt lat="49.85612" lon="4.76843">
        <ele>209</ele>
        <time>2020-11-13T08:16:46.000Z</time>
      </trkpt>
      <trkpt lat="49.85612" lon="4.76841">
        <ele>208</ele>
        <time>2020-11-13T08:16:47.000Z</time>
      </trkpt>
      <trkpt lat="49.85613" lon="4.7684">
        <ele>208</ele>
        <time>2020-11-13T08:16:48.000Z</time>
      </trkpt>
      <trkpt lat="49.85613" lon="4.7684">
        <ele>207</ele>
        <time>2020-11-13T08:16:49.000Z</time>
      </trkpt>
      <trkpt lat="49.85614" lon="4.7684">
        <ele>206</ele>
        <time>2020-11-13T08:16:50.000Z</time>
      </trkpt>
      <trkpt lat="49.85614" lon="4.7684">
        <ele>206</ele>
        <time>2020-11-13T08:16:51.000Z</time>
      </trkpt>
      <trkpt lat="49.85614" lon="4.76839">
        <ele>205</ele>
        <time>2020-11-13T08:16:52.000Z</time>
      </trkpt>
      <trkpt lat="49.85615" lon="4.76838">
        <ele>205</ele>
        <time>2020-11-13T08:16:53.000Z</time>
      </trkpt>
      <trkpt lat="49.85615" lon="4.76835">
        <ele>205</ele>
        <time>2020-11-13T08:16:54.000Z</time>
      </trkpt>
      <trkpt lat="49.85615" lon="4.76833">
        <ele>204</ele>
        <time>2020-11-13T08:16:55.000Z</time>
      </trkpt>
      <trkpt lat="49.85616" lon="4.76831">
        <ele>204</ele>
        <time>2020-11-13T08:16:56.000Z</time>
      </trkpt>
      <trkpt lat="49.85616" lon="4.76831">
        <ele>203</ele>
        <time>2020-11-13T08:16:57.000Z</time>
      </trkpt>
      <trkpt lat="49.85616" lon="4.7683">
        <ele>203</ele>
        <time>2020-11-13T08:16:58.000Z</time>
      </trkpt>
      <trkpt lat="49.85616" lon="4.76829">
        <ele>203</ele>
        <time>2020-11-13T08:16:59.000Z</time>
      </trkpt>
      <trkpt lat="49.85617" lon="4.76827">
        <ele>202</ele>
        <time>2020-11-13T08:17:00.000Z</time>
      </trkpt>
      <trkpt lat="49.85617" lon="4.76824">
        <ele>202</ele>
        <time>2020-11-13T08:17:01.000Z</time>
      </trkpt>
      <trkpt lat="49.85617" lon="4.76822">
        <ele>202</ele>
        <time>2020-11-13T08:17:02.000Z</time>
      </trkpt>
      <trkpt lat="49.85617" lon="4.76821">
        <ele>202</ele>
        <time>2020-11-13T08:17:03.000Z</time>
      </trkpt>
      <trkpt lat="49.85617" lon="4.76821">
        <ele>201</ele>
        <time>2020-11-13T08:17:04.000Z</time>
      </trkpt>
      <trkpt lat="49.85617" lon="4.7682">
        <ele>201</ele>
        <time>2020-11-13T08:17:05.000Z</time>
      </trkpt>
      <trkpt lat="49.85617" lon="4.76818">
        <ele>201</ele>
        <time>2020-11-13T08:17:06.000Z</time>
      </trkpt>
      <trkpt lat="49.85617" lon="4.76815">
        <ele>200</ele>
        <time>2020-11-13T08:17:07.000Z</time>
      </trkpt>
      <trkpt lat="49.85617" lon="4.76811">
        <ele>200</ele>
        <time>2020-11-13T08:17:08.000Z</time>
      </trkpt>
      <trkpt lat="49.85617" lon="4.76806">
        <ele>200</ele>
        <time>2020-11-13T08:17:09.000Z</time>
      </trkpt>
      <trkpt lat="49.85617" lon="4.76802">
        <ele>199</ele>
        <time>2020-11-13T08:17:10.000Z</time>
      </trkpt>
      <trkpt lat="49.85617" lon="4.76797">
        <ele>199</ele>
        <time>2020-11-13T08:17:11.000Z</time>
      </trkpt>
      <trkpt lat="49.85617" lon="4.76793">
        <ele>199</ele>
        <time>2020-11-13T08:17:12.000Z</time>
      </trkpt>
      <trkpt lat="49.85617" lon="4.7679">
        <ele>198</ele>
        <time>2020-11-13T08:17:13.000Z</time>
      </trkpt>
      <trkpt lat="49.85618" lon="4.76786">
        <ele>198</ele>
        <time>2020-11-13T08:17:14.000Z</time>
      </trkpt>
      <trkpt lat="49.85618" lon="4.76783">
        <ele>198</ele>
        <time>2020-11-13T08:17:15.000Z</time>
      </trkpt>
      <trkpt lat="49.85619" lon="4.7678">
        <ele>198</ele>
        <time>2020-11-13T08:17:16.000Z</time>
      </trkpt>
      <trkpt lat="49.85621" lon="4.76778">
        <ele>197</ele>
        <time>2020-11-13T08:17:17.000Z</time>
      </trkpt>
      <trkpt lat="49.85623" lon="4.76775">
        <ele>197</ele>
        <time>2020-11-13T08:17:18.000Z</time>
      </trkpt>
      <trkpt lat="49.85625" lon="4.76773">
        <ele>196</ele>
        <time>2020-11-13T08:17:19.000Z</time>
      </trkpt>
      <trkpt lat="49.85628" lon="4.7677">
        <ele>196</ele>
        <time>2020-11-13T08:17:20.000Z</time>
      </trkpt>
      <trkpt lat="49.85631" lon="4.76768">
        <ele>196</ele>
        <time>2020-11-13T08:17:21.000Z</time>
      </trkpt>
      <trkpt lat="49.85634" lon="4.76766">
        <ele>195</ele>
        <time>2020-11-13T08:17:22.000Z</time>
      </trkpt>
      <trkpt lat="49.85636" lon="4.76763">
        <ele>195</ele>
        <time>2020-11-13T08:17:23.000Z</time>
      </trkpt>
      <trkpt lat="49.85638" lon="4.7676">
        <ele>195</ele>
        <time>2020-11-13T08:17:24.000Z</time>
      </trkpt>
      <trkpt lat="49.8564" lon="4.76757">
        <ele>194</ele>
        <time>2020-11-13T08:17:25.000Z</time>
      </trkpt>
      <trkpt lat="49.85642" lon="4.76754">
        <ele>194</ele>
        <time>2020-11-13T08:17:26.000Z</time>
      </trkpt>
      <trkpt lat="49.85645" lon="4.76751">
        <ele>194</ele>
        <time>2020-11-13T08:17:27.000Z</time>
      </trkpt>
      <trkpt lat="49.85647" lon="4.76748">
        <ele>194</ele>
        <time>2020-11-13T08:17:28.000Z</time>
      </trkpt>
      <trkpt lat="49.85649" lon="4.76746">
        <ele>194</ele>
        <time>2020-11-13T08:17:29.000Z</time>
      </trkpt>
      <trkpt lat="49.85651" lon="4.76744">
        <ele>193</ele>
        <time>2020-11-13T08:17:30.000Z</time>
      </trkpt>
      <trkpt lat="49.85654" lon="4.76743">
        <ele>193</ele>
        <time>2020-11-13T08:17:31.000Z</time>
      </trkpt>
      <trkpt lat="49.85657" lon="4.76741">
        <ele>193</ele>
        <time>2020-11-13T08:17:32.000Z</time>
      </trkpt>
      <trkpt lat="49.85659" lon="4.76739">
        <ele>193</ele>
        <time>2020-11-13T08:17:33.000Z</time>
      </trkpt>
      <trkpt lat="49.85662" lon="4.76735">
        <ele>193</ele>
        <time>2020-11-13T08:17:34.000Z</time>
      </trkpt>
      <trkpt lat="49.85665" lon="4.76731">
        <ele>192</ele>
        <time>2020-11-13T08:17:35.000Z</time>
      </trkpt>
      <trkpt lat="49.85668" lon="4.76728">
        <ele>192</ele>
        <time>2020-11-13T08:17:36.000Z</time>
      </trkpt>
      <trkpt lat="49.85671" lon="4.76724">
        <ele>192</ele>
        <time>2020-11-13T08:17:37.000Z</time>
      </trkpt>
      <trkpt lat="49.85673" lon="4.7672">
        <ele>192</ele>
        <time>2020-11-13T08:17:38.000Z</time>
      </trkpt>
      <trkpt lat="49.85675" lon="4.76716">
        <ele>192</ele>
        <time>2020-11-13T08:17:39.000Z</time>
      </trkpt>
      <trkpt lat="49.85678" lon="4.76714">
        <ele>192</ele>
        <time>2020-11-13T08:17:40.000Z</time>
      </trkpt>
      <trkpt lat="49.85681" lon="4.76711">
        <ele>192</ele>
        <time>2020-11-13T08:17:41.000Z</time>
      </trkpt>
      <trkpt lat="49.85683" lon="4.76709">
        <ele>192</ele>
        <time>2020-11-13T08:17:42.000Z</time>
      </trkpt>
      <trkpt lat="49.85686" lon="4.76708">
        <ele>191</ele>
        <time>2020-11-13T08:17:43.000Z</time>
      </trkpt>
      <trkpt lat="49.85689" lon="4.76706">
        <ele>191</ele>
        <time>2020-11-13T08:17:44.000Z</time>
      </trkpt>
      <trkpt lat="49.85693" lon="4.76704">
        <ele>191</ele>
        <time>2020-11-13T08:17:45.000Z</time>
      </trkpt>
      <trkpt lat="49.85696" lon="4.76701">
        <ele>191</ele>
        <time>2020-11-13T08:17:46.000Z</time>
      </trkpt>
      <trkpt lat="49.857" lon="4.76699">
        <ele>191</ele>
        <time>2020-11-13T08:17:47.000Z</time>
      </trkpt>
      <trkpt lat="49.85704" lon="4.76698">
        <ele>191</ele>
        <time>2020-11-13T08:17:48.000Z</time>
      </trkpt>
      <trkpt lat="49.85708" lon="4.76696">
        <ele>191</ele>
        <time>2020-11-13T08:17:49.000Z</time>
      </trkpt>
      <trkpt lat="49.85712" lon="4.76695">
        <ele>191</ele>
        <time>2020-11-13T08:17:50.000Z</time>
      </trkpt>
      <trkpt lat="49.85715" lon="4.76695">
        <ele>191</ele>
        <time>2020-11-13T08:17:51.000Z</time>
      </trkpt>
      <trkpt lat="49.85718" lon="4.76693">
        <ele>191</ele>
        <time>2020-11-13T08:17:52.000Z</time>
      </trkpt>
      <trkpt lat="49.85722" lon="4.76691">
        <ele>191</ele>
        <time>2020-11-13T08:17:53.000Z</time>
      </trkpt>
      <trkpt lat="49.85726" lon="4.7669">
        <ele>191</ele>
        <time>2020-11-13T08:17:54.000Z</time>
      </trkpt>
      <trkpt lat="49.85729" lon="4.76689">
        <ele>191</ele>
        <time>2020-11-13T08:17:55.000Z</time>
      </trkpt>
      <trkpt lat="49.85733" lon="4.76689">
        <ele>191</ele>
        <time>2020-11-13T08:17:56.000Z</time>
      </trkpt>
      <trkpt lat="49.85736" lon="4.76688">
        <ele>191</ele>
        <time>2020-11-13T08:17:57.000Z</time>
      </trkpt>
      <trkpt lat="49.85739" lon="4.76687">
        <ele>192</ele>
        <time>2020-11-13T08:17:58.000Z</time>
      </trkpt>
      <trkpt lat="49.85742" lon="4.76687">
        <ele>192</ele>
        <time>2020-11-13T08:17:59.000Z</time>
      </trkpt>
      <trkpt lat="49.85745" lon="4.76685">
        <ele>192</ele>
        <time>2020-11-13T08:18:00.000Z</time>
      </trkpt>
      <trkpt lat="49.85749" lon="4.76683">
        <ele>192</ele>
        <time>2020-11-13T08:18:01.000Z</time>
      </trkpt>
      <trkpt lat="49.85752" lon="4.76681">
        <ele>192</ele>
        <time>2020-11-13T08:18:02.000Z</time>
      </trkpt>
      <trkpt lat="49.85756" lon="4.7668">
        <ele>193</ele>
        <time>2020-11-13T08:18:03.000Z</time>
      </trkpt>
      <trkpt lat="49.8576" lon="4.76678">
        <ele>193</ele>
        <time>2020-11-13T08:18:04.000Z</time>
      </trkpt>
      <trkpt lat="49.85763" lon="4.76678">
        <ele>193</ele>
        <time>2020-11-13T08:18:05.000Z</time>
      </trkpt>
      <trkpt lat="49.85767" lon="4.76678">
        <ele>193</ele>
        <time>2020-11-13T08:18:06.000Z</time>
      </trkpt>
      <trkpt lat="49.8577" lon="4.76677">
        <ele>194</ele>
        <time>2020-11-13T08:18:07.000Z</time>
      </trkpt>
      <trkpt lat="49.85773" lon="4.76676">
        <ele>194</ele>
        <time>2020-11-13T08:18:08.000Z</time>
      </trkpt>
      <trkpt lat="49.85775" lon="4.76675">
        <ele>194</ele>
        <time>2020-11-13T08:18:09.000Z</time>
      </trkpt>
      <trkpt lat="49.85777" lon="4.76674">
        <ele>194</ele>
        <time>2020-11-13T08:18:10.000Z</time>
      </trkpt>
      <trkpt lat="49.85778" lon="4.76672">
        <ele>195</ele>
        <time>2020-11-13T08:18:11.000Z</time>
      </trkpt>
      <trkpt lat="49.85781" lon="4.76671">
        <ele>195</ele>
        <time>2020-11-13T08:18:12.000Z</time>
      </trkpt>
      <trkpt lat="49.85784" lon="4.7667">
        <ele>195</ele>
        <time>2020-11-13T08:18:13.000Z</time>
      </trkpt>
      <trkpt lat="49.85788" lon="4.76669">
        <ele>195</ele>
        <time>2020-11-13T08:18:14.000Z</time>
      </trkpt>
      <trkpt lat="49.85791" lon="4.76667">
        <ele>195</ele>
        <time>2020-11-13T08:18:15.000Z</time>
      </trkpt>
      <trkpt lat="49.85794" lon="4.76664">
        <ele>195</ele>
        <time>2020-11-13T08:18:16.000Z</time>
      </trkpt>
      <trkpt lat="49.85798" lon="4.7666">
        <ele>195</ele>
        <time>2020-11-13T08:18:17.000Z</time>
      </trkpt>
      <trkpt lat="49.85803" lon="4.76659">
        <ele>195</ele>
        <time>2020-11-13T08:18:18.000Z</time>
      </trkpt>
      <trkpt lat="49.85806" lon="4.76658">
        <ele>195</ele>
        <time>2020-11-13T08:18:19.000Z</time>
      </trkpt>
      <trkpt lat="49.8581" lon="4.76657">
        <ele>195</ele>
        <time>2020-11-13T08:18:20.000Z</time>
      </trkpt>
      <trkpt lat="49.85813" lon="4.76657">
        <ele>195</ele>
        <time>2020-11-13T08:18:21.000Z</time>
      </trkpt>
      <trkpt lat="49.85817" lon="4.76657">
        <ele>195</ele>
        <time>2020-11-13T08:18:22.000Z</time>
      </trkpt>
      <trkpt lat="49.8582" lon="4.76656">
        <ele>195</ele>
        <time>2020-11-13T08:18:23.000Z</time>
      </trkpt>
      <trkpt lat="49.85822" lon="4.76656">
        <ele>195</ele>
        <time>2020-11-13T08:18:24.000Z</time>
      </trkpt>
      <trkpt lat="49.85824" lon="4.76655">
        <ele>196</ele>
        <time>2020-11-13T08:18:25.000Z</time>
      </trkpt>
      <trkpt lat="49.85826" lon="4.76655">
        <ele>196</ele>
        <time>2020-11-13T08:18:26.000Z</time>
      </trkpt>
      <trkpt lat="49.85829" lon="4.76655">
        <ele>196</ele>
        <time>2020-11-13T08:18:27.000Z</time>
      </trkpt>
      <trkpt lat="49.8583" lon="4.76654">
        <ele>196</ele>
        <time>2020-11-13T08:18:28.000Z</time>
      </trkpt>
      <trkpt lat="49.85832" lon="4.76655">
        <ele>196</ele>
        <time>2020-11-13T08:18:29.000Z</time>
      </trkpt>
      <trkpt lat="49.85834" lon="4.76655">
        <ele>196</ele>
        <time>2020-11-13T08:18:30.000Z</time>
      </trkpt>
      <trkpt lat="49.85836" lon="4.76654">
        <ele>196</ele>
        <time>2020-11-13T08:18:31.000Z</time>
      </trkpt>
      <trkpt lat="49.85838" lon="4.76654">
        <ele>196</ele>
        <time>2020-11-13T08:18:32.000Z</time>
      </trkpt>
      <trkpt lat="49.8584" lon="4.76654">
        <ele>197</ele>
        <time>2020-11-13T08:18:33.000Z</time>
      </trkpt>
      <trkpt lat="49.85841" lon="4.76654">
        <ele>197</ele>
        <time>2020-11-13T08:18:34.000Z</time>
      </trkpt>
      <trkpt lat="49.85843" lon="4.76653">
        <ele>197</ele>
        <time>2020-11-13T08:18:35.000Z</time>
      </trkpt>
      <trkpt lat="49.85845" lon="4.76653">
        <ele>197</ele>
        <time>2020-11-13T08:18:36.000Z</time>
      </trkpt>
      <trkpt lat="49.85847" lon="4.76653">
        <ele>197</ele>
        <time>2020-11-13T08:18:37.000Z</time>
      </trkpt>
      <trkpt lat="49.8585" lon="4.76654">
        <ele>197</ele>
        <time>2020-11-13T08:18:38.000Z</time>
      </trkpt>
      <trkpt lat="49.85852" lon="4.76654">
        <ele>198</ele>
        <time>2020-11-13T08:18:39.000Z</time>
      </trkpt>
      <trkpt lat="49.85855" lon="4.76655">
        <ele>198</ele>
        <time>2020-11-13T08:18:40.000Z</time>
      </trkpt>
      <trkpt lat="49.85857" lon="4.76655">
        <ele>198</ele>
        <time>2020-11-13T08:18:41.000Z</time>
      </trkpt>
      <trkpt lat="49.8586" lon="4.76656">
        <ele>198</ele>
        <time>2020-11-13T08:18:42.000Z</time>
      </trkpt>
      <trkpt lat="49.85862" lon="4.76656">
        <ele>198</ele>
        <time>2020-11-13T08:18:43.000Z</time>
      </trkpt>
      <trkpt lat="49.85864" lon="4.76656">
        <ele>199</ele>
        <time>2020-11-13T08:18:44.000Z</time>
      </trkpt>
      <trkpt lat="49.85867" lon="4.76656">
        <ele>199</ele>
        <time>2020-11-13T08:18:45.000Z</time>
      </trkpt>
      <trkpt lat="49.85869" lon="4.76656">
        <ele>199</ele>
        <time>2020-11-13T08:18:46.000Z</time>
      </trkpt>
      <trkpt lat="49.85872" lon="4.76656">
        <ele>200</ele>
        <time>2020-11-13T08:18:47.000Z</time>
      </trkpt>
      <trkpt lat="49.85873" lon="4.76656">
        <ele>200</ele>
        <time>2020-11-13T08:18:48.000Z</time>
      </trkpt>
      <trkpt lat="49.85875" lon="4.76656">
        <ele>200</ele>
        <time>2020-11-13T08:18:49.000Z</time>
      </trkpt>
      <trkpt lat="49.85877" lon="4.76656">
        <ele>200</ele>
        <time>2020-11-13T08:18:50.000Z</time>
      </trkpt>
      <trkpt lat="49.85879" lon="4.76657">
        <ele>200</ele>
        <time>2020-11-13T08:18:51.000Z</time>
      </trkpt>
      <trkpt lat="49.85881" lon="4.76657">
        <ele>201</ele>
        <time>2020-11-13T08:18:52.000Z</time>
      </trkpt>
      <trkpt lat="49.85883" lon="4.76657">
        <ele>201</ele>
        <time>2020-11-13T08:18:53.000Z</time>
      </trkpt>
      <trkpt lat="49.85885" lon="4.76658">
        <ele>201</ele>
        <time>2020-11-13T08:18:54.000Z</time>
      </trkpt>
      <trkpt lat="49.85887" lon="4.76658">
        <ele>201</ele>
        <time>2020-11-13T08:18:55.000Z</time>
      </trkpt>
      <trkpt lat="49.85889" lon="4.76658">
        <ele>202</ele>
        <time>2020-11-13T08:18:56.000Z</time>
      </trkpt>
      <trkpt lat="49.85891" lon="4.76659">
        <ele>202</ele>
        <time>2020-11-13T08:18:57.000Z</time>
      </trkpt>
      <trkpt lat="49.85893" lon="4.76659">
        <ele>202</ele>
        <time>2020-11-13T08:18:58.000Z</time>
      </trkpt>
      <trkpt lat="49.85896" lon="4.7666">
        <ele>202</ele>
        <time>2020-11-13T08:18:59.000Z</time>
      </trkpt>
      <trkpt lat="49.85899" lon="4.76661">
        <ele>203</ele>
        <time>2020-11-13T08:19:00.000Z</time>
      </trkpt>
      <trkpt lat="49.85901" lon="4.76662">
        <ele>203</ele>
        <time>2020-11-13T08:19:01.000Z</time>
      </trkpt>
      <trkpt lat="49.85904" lon="4.76662">
        <ele>203</ele>
        <time>2020-11-13T08:19:02.000Z</time>
      </trkpt>
      <trkpt lat="49.85906" lon="4.76663">
        <ele>204</ele>
        <time>2020-11-13T08:19:03.000Z</time>
      </trkpt>
      <trkpt lat="49.85909" lon="4.76664">
        <ele>204</ele>
        <time>2020-11-13T08:19:04.000Z</time>
      </trkpt>
      <trkpt lat="49.85911" lon="4.76664">
        <ele>204</ele>
        <time>2020-11-13T08:19:05.000Z</time>
      </trkpt>
      <trkpt lat="49.85912" lon="4.76665">
        <ele>204</ele>
        <time>2020-11-13T08:19:06.000Z</time>
      </trkpt>
      <trkpt lat="49.85914" lon="4.76665">
        <ele>204</ele>
        <time>2020-11-13T08:19:07.000Z</time>
      </trkpt>
      <trkpt lat="49.85916" lon="4.76666">
        <ele>205</ele>
        <time>2020-11-13T08:19:08.000Z</time>
      </trkpt>
      <trkpt lat="49.85919" lon="4.76666">
        <ele>205</ele>
        <time>2020-11-13T08:19:09.000Z</time>
      </trkpt>
      <trkpt lat="49.85921" lon="4.76666">
        <ele>205</ele>
        <time>2020-11-13T08:19:10.000Z</time>
      </trkpt>
      <trkpt lat="49.85923" lon="4.76668">
        <ele>205</ele>
        <time>2020-11-13T08:19:11.000Z</time>
      </trkpt>
      <trkpt lat="49.85925" lon="4.76668">
        <ele>205</ele>
        <time>2020-11-13T08:19:12.000Z</time>
      </trkpt>
      <trkpt lat="49.85928" lon="4.76669">
        <ele>205</ele>
        <time>2020-11-13T08:19:13.000Z</time>
      </trkpt>
      <trkpt lat="49.8593" lon="4.7667">
        <ele>206</ele>
        <time>2020-11-13T08:19:14.000Z</time>
      </trkpt>
      <trkpt lat="49.85932" lon="4.76671">
        <ele>206</ele>
        <time>2020-11-13T08:19:15.000Z</time>
      </trkpt>
      <trkpt lat="49.85934" lon="4.76672">
        <ele>206</ele>
        <time>2020-11-13T08:19:16.000Z</time>
      </trkpt>
      <trkpt lat="49.85937" lon="4.76673">
        <ele>206</ele>
        <time>2020-11-13T08:19:17.000Z</time>
      </trkpt>
      <trkpt lat="49.85939" lon="4.76674">
        <ele>206</ele>
        <time>2020-11-13T08:19:18.000Z</time>
      </trkpt>
      <trkpt lat="49.85941" lon="4.76675">
        <ele>206</ele>
        <time>2020-11-13T08:19:19.000Z</time>
      </trkpt>
      <trkpt lat="49.85943" lon="4.76677">
        <ele>206</ele>
        <time>2020-11-13T08:19:20.000Z</time>
      </trkpt>
      <trkpt lat="49.85945" lon="4.76677">
        <ele>206</ele>
        <time>2020-11-13T08:19:21.000Z</time>
      </trkpt>
      <trkpt lat="49.85947" lon="4.76678">
        <ele>206</ele>
        <time>2020-11-13T08:19:22.000Z</time>
      </trkpt>
      <trkpt lat="49.85949" lon="4.76679">
        <ele>207</ele>
        <time>2020-11-13T08:19:23.000Z</time>
      </trkpt>
      <trkpt lat="49.85951" lon="4.76679">
        <ele>207</ele>
        <time>2020-11-13T08:19:24.000Z</time>
      </trkpt>
      <trkpt lat="49.85954" lon="4.76679">
        <ele>207</ele>
        <time>2020-11-13T08:19:25.000Z</time>
      </trkpt>
      <trkpt lat="49.85956" lon="4.76678">
        <ele>207</ele>
        <time>2020-11-13T08:19:26.000Z</time>
      </trkpt>
      <trkpt lat="49.85959" lon="4.76677">
        <ele>207</ele>
        <time>2020-11-13T08:19:27.000Z</time>
      </trkpt>
      <trkpt lat="49.85961" lon="4.76676">
        <ele>207</ele>
        <time>2020-11-13T08:19:28.000Z</time>
      </trkpt>
      <trkpt lat="49.85963" lon="4.76675">
        <ele>207</ele>
        <time>2020-11-13T08:19:29.000Z</time>
      </trkpt>
      <trkpt lat="49.85966" lon="4.76673">
        <ele>208</ele>
        <time>2020-11-13T08:19:30.000Z</time>
      </trkpt>
      <trkpt lat="49.85968" lon="4.7667">
        <ele>208</ele>
        <time>2020-11-13T08:19:31.000Z</time>
      </trkpt>
      <trkpt lat="49.85971" lon="4.76667">
        <ele>208</ele>
        <time>2020-11-13T08:19:32.000Z</time>
      </trkpt>
      <trkpt lat="49.85975" lon="4.76664">
        <ele>208</ele>
        <time>2020-11-13T08:19:33.000Z</time>
      </trkpt>
      <trkpt lat="49.8598" lon="4.76662">
        <ele>208</ele>
        <time>2020-11-13T08:19:34.000Z</time>
      </trkpt>
      <trkpt lat="49.85986" lon="4.7666">
        <ele>208</ele>
        <time>2020-11-13T08:19:35.000Z</time>
      </trkpt>
      <trkpt lat="49.85992" lon="4.76657">
        <ele>208</ele>
        <time>2020-11-13T08:19:36.000Z</time>
      </trkpt>
      <trkpt lat="49.85998" lon="4.76655">
        <ele>208</ele>
        <time>2020-11-13T08:19:37.000Z</time>
      </trkpt>
      <trkpt lat="49.86005" lon="4.76652">
        <ele>208</ele>
        <time>2020-11-13T08:19:38.000Z</time>
      </trkpt>
      <trkpt lat="49.86012" lon="4.76649">
        <ele>208</ele>
        <time>2020-11-13T08:19:39.000Z</time>
      </trkpt>
      <trkpt lat="49.86019" lon="4.76648">
        <ele>208</ele>
        <time>2020-11-13T08:19:40.000Z</time>
      </trkpt>
      <trkpt lat="49.86026" lon="4.76647">
        <ele>208</ele>
        <time>2020-11-13T08:19:41.000Z</time>
      </trkpt>
      <trkpt lat="49.86034" lon="4.76647">
        <ele>207</ele>
        <time>2020-11-13T08:19:42.000Z</time>
      </trkpt>
      <trkpt lat="49.86042" lon="4.76648">
        <ele>207</ele>
        <time>2020-11-13T08:19:43.000Z</time>
      </trkpt>
      <trkpt lat="49.8605" lon="4.7665">
        <ele>206</ele>
        <time>2020-11-13T08:19:44.000Z</time>
      </trkpt>
      <trkpt lat="49.86059" lon="4.76652">
        <ele>206</ele>
        <time>2020-11-13T08:19:45.000Z</time>
      </trkpt>
      <trkpt lat="49.86067" lon="4.76655">
        <ele>205</ele>
        <time>2020-11-13T08:19:46.000Z</time>
      </trkpt>
      <trkpt lat="49.86075" lon="4.76658">
        <ele>204</ele>
        <time>2020-11-13T08:19:47.000Z</time>
      </trkpt>
      <trkpt lat="49.86083" lon="4.7666">
        <ele>204</ele>
        <time>2020-11-13T08:19:48.000Z</time>
      </trkpt>
      <trkpt lat="49.86091" lon="4.76662">
        <ele>203</ele>
        <time>2020-11-13T08:19:49.000Z</time>
      </trkpt>
      <trkpt lat="49.86099" lon="4.76664">
        <ele>201</ele>
        <time>2020-11-13T08:19:50.000Z</time>
      </trkpt>
      <trkpt lat="49.86108" lon="4.76665">
        <ele>200</ele>
        <time>2020-11-13T08:19:51.000Z</time>
      </trkpt>
      <trkpt lat="49.86117" lon="4.76665">
        <ele>199</ele>
        <time>2020-11-13T08:19:52.000Z</time>
      </trkpt>
      <trkpt lat="49.86125" lon="4.76663">
        <ele>198</ele>
        <time>2020-11-13T08:19:53.000Z</time>
      </trkpt>
      <trkpt lat="49.86132" lon="4.7666">
        <ele>197</ele>
        <time>2020-11-13T08:19:54.000Z</time>
      </trkpt>
      <trkpt lat="49.86139" lon="4.76656">
        <ele>196</ele>
        <time>2020-11-13T08:19:55.000Z</time>
      </trkpt>
      <trkpt lat="49.86145" lon="4.76651">
        <ele>195</ele>
        <time>2020-11-13T08:19:56.000Z</time>
      </trkpt>
      <trkpt lat="49.8615" lon="4.76645">
        <ele>194</ele>
        <time>2020-11-13T08:19:57.000Z</time>
      </trkpt>
      <trkpt lat="49.86153" lon="4.76637">
        <ele>194</ele>
        <time>2020-11-13T08:19:58.000Z</time>
      </trkpt>
      <trkpt lat="49.86154" lon="4.76629">
        <ele>193</ele>
        <time>2020-11-13T08:19:59.000Z</time>
      </trkpt>
      <trkpt lat="49.86153" lon="4.76621">
        <ele>192</ele>
        <time>2020-11-13T08:20:00.000Z</time>
      </trkpt>
      <trkpt lat="49.86151" lon="4.76613">
        <ele>191</ele>
        <time>2020-11-13T08:20:01.000Z</time>
      </trkpt>
      <trkpt lat="49.86149" lon="4.76604">
        <ele>190</ele>
        <time>2020-11-13T08:20:02.000Z</time>
      </trkpt>
      <trkpt lat="49.86147" lon="4.76596">
        <ele>189</ele>
        <time>2020-11-13T08:20:03.000Z</time>
      </trkpt>
      <trkpt lat="49.86144" lon="4.76587">
        <ele>188</ele>
        <time>2020-11-13T08:20:04.000Z</time>
      </trkpt>
      <trkpt lat="49.86141" lon="4.76579">
        <ele>187</ele>
        <time>2020-11-13T08:20:05.000Z</time>
      </trkpt>
      <trkpt lat="49.86139" lon="4.7657">
        <ele>186</ele>
        <time>2020-11-13T08:20:06.000Z</time>
      </trkpt>
      <trkpt lat="49.86137" lon="4.7656">
        <ele>185</ele>
        <time>2020-11-13T08:20:07.000Z</time>
      </trkpt>
      <trkpt lat="49.86135" lon="4.76549">
        <ele>183</ele>
        <time>2020-11-13T08:20:08.000Z</time>
      </trkpt>
      <trkpt lat="49.86134" lon="4.76537">
        <ele>182</ele>
        <time>2020-11-13T08:20:09.000Z</time>
      </trkpt>
      <trkpt lat="49.86133" lon="4.76527">
        <ele>181</ele>
        <time>2020-11-13T08:20:10.000Z</time>
      </trkpt>
      <trkpt lat="49.86132" lon="4.76518">
        <ele>180</ele>
        <time>2020-11-13T08:20:11.000Z</time>
      </trkpt>
      <trkpt lat="49.86131" lon="4.76511">
        <ele>179</ele>
        <time>2020-11-13T08:20:12.000Z</time>
      </trkpt>
      <trkpt lat="49.8613" lon="4.76505">
        <ele>178</ele>
        <time>2020-11-13T08:20:13.000Z</time>
      </trkpt>
      <trkpt lat="49.8613" lon="4.765">
        <ele>177</ele>
        <time>2020-11-13T08:20:14.000Z</time>
      </trkpt>
      <trkpt lat="49.86129" lon="4.76495">
        <ele>177</ele>
        <time>2020-11-13T08:20:15.000Z</time>
      </trkpt>
      <trkpt lat="49.86129" lon="4.7649">
        <ele>176</ele>
        <time>2020-11-13T08:20:16.000Z</time>
      </trkpt>
      <trkpt lat="49.86128" lon="4.76483">
        <ele>175</ele>
        <time>2020-11-13T08:20:17.000Z</time>
      </trkpt>
      <trkpt lat="49.86127" lon="4.76476">
        <ele>174</ele>
        <time>2020-11-13T08:20:18.000Z</time>
      </trkpt>
      <trkpt lat="49.86125" lon="4.76469">
        <ele>174</ele>
        <time>2020-11-13T08:20:19.000Z</time>
      </trkpt>
      <trkpt lat="49.86124" lon="4.7646">
        <ele>173</ele>
        <time>2020-11-13T08:20:20.000Z</time>
      </trkpt>
      <trkpt lat="49.86123" lon="4.76452">
        <ele>172</ele>
        <time>2020-11-13T08:20:21.000Z</time>
      </trkpt>
      <trkpt lat="49.86121" lon="4.76443">
        <ele>171</ele>
        <time>2020-11-13T08:20:22.000Z</time>
      </trkpt>
      <trkpt lat="49.86119" lon="4.76435">
        <ele>170</ele>
        <time>2020-11-13T08:20:23.000Z</time>
      </trkpt>
      <trkpt lat="49.86118" lon="4.76427">
        <ele>169</ele>
        <time>2020-11-13T08:20:24.000Z</time>
      </trkpt>
      <trkpt lat="49.86116" lon="4.7642">
        <ele>168</ele>
        <time>2020-11-13T08:20:25.000Z</time>
      </trkpt>
      <trkpt lat="49.86115" lon="4.76413">
        <ele>168</ele>
        <time>2020-11-13T08:20:26.000Z</time>
      </trkpt>
      <trkpt lat="49.86113" lon="4.76406">
        <ele>167</ele>
        <time>2020-11-13T08:20:27.000Z</time>
      </trkpt>
      <trkpt lat="49.86112" lon="4.764">
        <ele>166</ele>
        <time>2020-11-13T08:20:28.000Z</time>
      </trkpt>
      <trkpt lat="49.86111" lon="4.76395">
        <ele>166</ele>
        <time>2020-11-13T08:20:29.000Z</time>
      </trkpt>
      <trkpt lat="49.8611" lon="4.76392">
        <ele>165</ele>
        <time>2020-11-13T08:20:30.000Z</time>
      </trkpt>
      <trkpt lat="49.86109" lon="4.76389">
        <ele>165</ele>
        <time>2020-11-13T08:20:31.000Z</time>
      </trkpt>
      <trkpt lat="49.86109" lon="4.76386">
        <ele>164</ele>
        <time>2020-11-13T08:20:32.000Z</time>
      </trkpt>
      <trkpt lat="49.86109" lon="4.76383">
        <ele>164</ele>
        <time>2020-11-13T08:20:33.000Z</time>
      </trkpt>
      <trkpt lat="49.86108" lon="4.76379">
        <ele>164</ele>
        <time>2020-11-13T08:20:34.000Z</time>
      </trkpt>
      <trkpt lat="49.86107" lon="4.76375">
        <ele>163</ele>
        <time>2020-11-13T08:20:35.000Z</time>
      </trkpt>
      <trkpt lat="49.86106" lon="4.76372">
        <ele>163</ele>
        <time>2020-11-13T08:20:36.000Z</time>
      </trkpt>
      <trkpt lat="49.86104" lon="4.76367">
        <ele>162</ele>
        <time>2020-11-13T08:20:37.000Z</time>
      </trkpt>
      <trkpt lat="49.86103" lon="4.76363">
        <ele>162</ele>
        <time>2020-11-13T08:20:38.000Z</time>
      </trkpt>
      <trkpt lat="49.86101" lon="4.76359">
        <ele>162</ele>
        <time>2020-11-13T08:20:39.000Z</time>
      </trkpt>
      <trkpt lat="49.861" lon="4.76354">
        <ele>161</ele>
        <time>2020-11-13T08:20:40.000Z</time>
      </trkpt>
      <trkpt lat="49.86098" lon="4.76349">
        <ele>161</ele>
        <time>2020-11-13T08:20:41.000Z</time>
      </trkpt>
      <trkpt lat="49.86096" lon="4.76344">
        <ele>160</ele>
        <time>2020-11-13T08:20:42.000Z</time>
      </trkpt>
      <trkpt lat="49.86094" lon="4.7634">
        <ele>160</ele>
        <time>2020-11-13T08:20:43.000Z</time>
      </trkpt>
      <trkpt lat="49.86091" lon="4.76336">
        <ele>160</ele>
        <time>2020-11-13T08:20:44.000Z</time>
      </trkpt>
      <trkpt lat="49.86089" lon="4.76334">
        <ele>159</ele>
        <time>2020-11-13T08:20:45.000Z</time>
      </trkpt>
      <trkpt lat="49.86087" lon="4.76331">
        <ele>159</ele>
        <time>2020-11-13T08:20:46.000Z</time>
      </trkpt>
      <trkpt lat="49.86086" lon="4.76328">
        <ele>159</ele>
        <time>2020-11-13T08:20:47.000Z</time>
      </trkpt>
      <trkpt lat="49.86086" lon="4.76325">
        <ele>158</ele>
        <time>2020-11-13T08:20:48.000Z</time>
      </trkpt>
      <trkpt lat="49.86087" lon="4.76324">
        <ele>158</ele>
        <time>2020-11-13T08:20:49.000Z</time>
      </trkpt>
      <trkpt lat="49.86088" lon="4.76325">
        <ele>158</ele>
        <time>2020-11-13T08:20:50.000Z</time>
      </trkpt>
      <trkpt lat="49.8609" lon="4.76325">
        <ele>158</ele>
        <time>2020-11-13T08:20:51.000Z</time>
      </trkpt>
      <trkpt lat="49.86091" lon="4.76325">
        <ele>158</ele>
        <time>2020-11-13T08:20:52.000Z</time>
      </trkpt>
      <trkpt lat="49.86091" lon="4.76325">
        <ele>158</ele>
        <time>2020-11-13T08:20:53.000Z</time>
      </trkpt>
      <trkpt lat="49.86093" lon="4.76325">
        <ele>158</ele>
        <time>2020-11-13T08:20:54.000Z</time>
      </trkpt>
      <trkpt lat="49.86095" lon="4.76325">
        <ele>158</ele>
        <time>2020-11-13T08:20:55.000Z</time>
      </trkpt>
      <trkpt lat="49.86099" lon="4.76325">
        <ele>158</ele>
        <time>2020-11-13T08:20:56.000Z</time>
      </trkpt>
      <trkpt lat="49.86102" lon="4.76325">
        <ele>158</ele>
        <time>2020-11-13T08:20:57.000Z</time>
      </trkpt>
      <trkpt lat="49.86106" lon="4.76326">
        <ele>158</ele>
        <time>2020-11-13T08:20:58.000Z</time>
      </trkpt>
      <trkpt lat="49.86109" lon="4.76326">
        <ele>158</ele>
        <time>2020-11-13T08:20:59.000Z</time>
      </trkpt>
      <trkpt lat="49.86112" lon="4.76326">
        <ele>158</ele>
        <time>2020-11-13T08:21:00.000Z</time>
      </trkpt>
      <trkpt lat="49.86115" lon="4.76327">
        <ele>158</ele>
        <time>2020-11-13T08:21:01.000Z</time>
      </trkpt>
      <trkpt lat="49.86119" lon="4.76327">
        <ele>157</ele>
        <time>2020-11-13T08:21:02.000Z</time>
      </trkpt>
      <trkpt lat="49.86122" lon="4.76328">
        <ele>157</ele>
        <time>2020-11-13T08:21:03.000Z</time>
      </trkpt>
      <trkpt lat="49.86125" lon="4.76328">
        <ele>157</ele>
        <time>2020-11-13T08:21:04.000Z</time>
      </trkpt>
      <trkpt lat="49.86129" lon="4.76328">
        <ele>157</ele>
        <time>2020-11-13T08:21:05.000Z</time>
      </trkpt>
      <trkpt lat="49.86132" lon="4.76329">
        <ele>157</ele>
        <time>2020-11-13T08:21:06.000Z</time>
      </trkpt>
      <trkpt lat="49.86135" lon="4.76329">
        <ele>157</ele>
        <time>2020-11-13T08:21:07.000Z</time>
      </trkpt>
      <trkpt lat="49.86138" lon="4.76329">
        <ele>157</ele>
        <time>2020-11-13T08:21:08.000Z</time>
      </trkpt>
      <trkpt lat="49.86142" lon="4.76329">
        <ele>157</ele>
        <time>2020-11-13T08:21:09.000Z</time>
      </trkpt>
      <trkpt lat="49.86145" lon="4.7633">
        <ele>157</ele>
        <time>2020-11-13T08:21:10.000Z</time>
      </trkpt>
      <trkpt lat="49.86149" lon="4.7633">
        <ele>156</ele>
        <time>2020-11-13T08:21:11.000Z</time>
      </trkpt>
      <trkpt lat="49.86152" lon="4.7633">
        <ele>156</ele>
        <time>2020-11-13T08:21:12.000Z</time>
      </trkpt>
      <trkpt lat="49.86155" lon="4.7633">
        <ele>156</ele>
        <time>2020-11-13T08:21:13.000Z</time>
      </trkpt>
      <trkpt lat="49.86158" lon="4.76331">
        <ele>156</ele>
        <time>2020-11-13T08:21:14.000Z</time>
      </trkpt>
      <trkpt lat="49.86161" lon="4.76331">
        <ele>156</ele>
        <time>2020-11-13T08:21:15.000Z</time>
      </trkpt>
      <trkpt lat="49.86164" lon="4.76331">
        <ele>156</ele>
        <time>2020-11-13T08:21:16.000Z</time>
      </trkpt>
      <trkpt lat="49.86167" lon="4.7633">
        <ele>156</ele>
        <time>2020-11-13T08:21:17.000Z</time>
      </trkpt>
      <trkpt lat="49.86171" lon="4.76329">
        <ele>156</ele>
        <time>2020-11-13T08:21:18.000Z</time>
      </trkpt>
      <trkpt lat="49.86174" lon="4.76328">
        <ele>155</ele>
        <time>2020-11-13T08:21:19.000Z</time>
      </trkpt>
      <trkpt lat="49.86178" lon="4.76327">
        <ele>155</ele>
        <time>2020-11-13T08:21:20.000Z</time>
      </trkpt>
      <trkpt lat="49.86181" lon="4.76326">
        <ele>155</ele>
        <time>2020-11-13T08:21:21.000Z</time>
      </trkpt>
      <trkpt lat="49.86185" lon="4.76326">
        <ele>155</ele>
        <time>2020-11-13T08:21:22.000Z</time>
      </trkpt>
      <trkpt lat="49.86188" lon="4.76326">
        <ele>155</ele>
        <time>2020-11-13T08:21:23.000Z</time>
      </trkpt>
      <trkpt lat="49.86192" lon="4.76326">
        <ele>155</ele>
        <time>2020-11-13T08:21:24.000Z</time>
      </trkpt>
      <trkpt lat="49.86195" lon="4.76326">
        <ele>155</ele>
        <time>2020-11-13T08:21:25.000Z</time>
      </trkpt>
      <trkpt lat="49.86199" lon="4.76327">
        <ele>155</ele>
        <time>2020-11-13T08:21:26.000Z</time>
      </trkpt>
      <trkpt lat="49.86203" lon="4.76327">
        <ele>155</ele>
        <time>2020-11-13T08:21:27.000Z</time>
      </trkpt>
      <trkpt lat="49.86206" lon="4.76327">
        <ele>155</ele>
        <time>2020-11-13T08:21:28.000Z</time>
      </trkpt>
      <trkpt lat="49.8621" lon="4.76327">
        <ele>155</ele>
        <time>2020-11-13T08:21:29.000Z</time>
      </trkpt>
      <trkpt lat="49.86215" lon="4.76328">
        <ele>155</ele>
        <time>2020-11-13T08:21:30.000Z</time>
      </trkpt>
      <trkpt lat="49.86219" lon="4.76329">
        <ele>155</ele>
        <time>2020-11-13T08:21:31.000Z</time>
      </trkpt>
      <trkpt lat="49.86224" lon="4.76329">
        <ele>155</ele>
        <time>2020-11-13T08:21:32.000Z</time>
      </trkpt>
      <trkpt lat="49.86228" lon="4.76328">
        <ele>155</ele>
        <time>2020-11-13T08:21:33.000Z</time>
      </trkpt>
      <trkpt lat="49.86233" lon="4.76327">
        <ele>155</ele>
        <time>2020-11-13T08:21:34.000Z</time>
      </trkpt>
      <trkpt lat="49.86237" lon="4.76326">
        <ele>155</ele>
        <time>2020-11-13T08:21:35.000Z</time>
      </trkpt>
      <trkpt lat="49.86241" lon="4.76325">
        <ele>155</ele>
        <time>2020-11-13T08:21:36.000Z</time>
      </trkpt>
      <trkpt lat="49.86245" lon="4.76324">
        <ele>155</ele>
        <time>2020-11-13T08:21:37.000Z</time>
      </trkpt>
      <trkpt lat="49.86249" lon="4.76323">
        <ele>155</ele>
        <time>2020-11-13T08:21:38.000Z</time>
      </trkpt>
      <trkpt lat="49.86253" lon="4.76321">
        <ele>155</ele>
        <time>2020-11-13T08:21:39.000Z</time>
      </trkpt>
      <trkpt lat="49.86256" lon="4.76319">
        <ele>155</ele>
        <time>2020-11-13T08:21:40.000Z</time>
      </trkpt>
      <trkpt lat="49.8626" lon="4.76317">
        <ele>155</ele>
        <time>2020-11-13T08:21:41.000Z</time>
      </trkpt>
      <trkpt lat="49.86263" lon="4.76315">
        <ele>155</ele>
        <time>2020-11-13T08:21:42.000Z</time>
      </trkpt>
      <trkpt lat="49.86266" lon="4.76313">
        <ele>156</ele>
        <time>2020-11-13T08:21:43.000Z</time>
      </trkpt>
      <trkpt lat="49.86269" lon="4.76311">
        <ele>156</ele>
        <time>2020-11-13T08:21:44.000Z</time>
      </trkpt>
      <trkpt lat="49.86272" lon="4.76308">
        <ele>156</ele>
        <time>2020-11-13T08:21:45.000Z</time>
      </trkpt>
      <trkpt lat="49.86274" lon="4.76305">
        <ele>156</ele>
        <time>2020-11-13T08:21:46.000Z</time>
      </trkpt>
      <trkpt lat="49.86276" lon="4.76302">
        <ele>156</ele>
        <time>2020-11-13T08:21:47.000Z</time>
      </trkpt>
      <trkpt lat="49.86275" lon="4.76297">
        <ele>156</ele>
        <time>2020-11-13T08:21:48.000Z</time>
      </trkpt>
      <trkpt lat="49.86274" lon="4.76293">
        <ele>156</ele>
        <time>2020-11-13T08:21:49.000Z</time>
      </trkpt>
      <trkpt lat="49.86272" lon="4.76288">
        <ele>156</ele>
        <time>2020-11-13T08:21:50.000Z</time>
      </trkpt>
      <trkpt lat="49.8627" lon="4.76284">
        <ele>156</ele>
        <time>2020-11-13T08:21:51.000Z</time>
      </trkpt>
      <trkpt lat="49.86267" lon="4.76279">
        <ele>156</ele>
        <time>2020-11-13T08:21:52.000Z</time>
      </trkpt>
      <trkpt lat="49.86263" lon="4.76274">
        <ele>155</ele>
        <time>2020-11-13T08:21:53.000Z</time>
      </trkpt>
      <trkpt lat="49.86259" lon="4.76269">
        <ele>155</ele>
        <time>2020-11-13T08:21:54.000Z</time>
      </trkpt>
      <trkpt lat="49.86255" lon="4.76264">
        <ele>155</ele>
        <time>2020-11-13T08:21:55.000Z</time>
      </trkpt>
      <trkpt lat="49.8625" lon="4.76259">
        <ele>154</ele>
        <time>2020-11-13T08:21:56.000Z</time>
      </trkpt>
      <trkpt lat="49.86245" lon="4.76253">
        <ele>154</ele>
        <time>2020-11-13T08:21:57.000Z</time>
      </trkpt>
      <trkpt lat="49.8624" lon="4.76247">
        <ele>154</ele>
        <time>2020-11-13T08:21:58.000Z</time>
      </trkpt>
      <trkpt lat="49.86235" lon="4.7624">
        <ele>153</ele>
        <time>2020-11-13T08:21:59.000Z</time>
      </trkpt>
      <trkpt lat="49.8623" lon="4.76234">
        <ele>153</ele>
        <time>2020-11-13T08:22:00.000Z</time>
      </trkpt>
      <trkpt lat="49.86225" lon="4.76228">
        <ele>153</ele>
        <time>2020-11-13T08:22:01.000Z</time>
      </trkpt>
      <trkpt lat="49.8622" lon="4.76223">
        <ele>152</ele>
        <time>2020-11-13T08:22:02.000Z</time>
      </trkpt>
      <trkpt lat="49.86216" lon="4.76217">
        <ele>152</ele>
        <time>2020-11-13T08:22:03.000Z</time>
      </trkpt>
      <trkpt lat="49.86215" lon="4.7621">
        <ele>152</ele>
        <time>2020-11-13T08:22:04.000Z</time>
      </trkpt>
      <trkpt lat="49.86216" lon="4.76204">
        <ele>152</ele>
        <time>2020-11-13T08:22:05.000Z</time>
      </trkpt>
      <trkpt lat="49.86219" lon="4.762">
        <ele>152</ele>
        <time>2020-11-13T08:22:06.000Z</time>
      </trkpt>
      <trkpt lat="49.86223" lon="4.76197">
        <ele>152</ele>
        <time>2020-11-13T08:22:07.000Z</time>
      </trkpt>
      <trkpt lat="49.86226" lon="4.76195">
        <ele>152</ele>
        <time>2020-11-13T08:22:08.000Z</time>
      </trkpt>
      <trkpt lat="49.8623" lon="4.76193">
        <ele>152</ele>
        <time>2020-11-13T08:22:09.000Z</time>
      </trkpt>
      <trkpt lat="49.86233" lon="4.76191">
        <ele>152</ele>
        <time>2020-11-13T08:22:10.000Z</time>
      </trkpt>
      <trkpt lat="49.86236" lon="4.76188">
        <ele>152</ele>
        <time>2020-11-13T08:22:11.000Z</time>
      </trkpt>
      <trkpt lat="49.86239" lon="4.76186">
        <ele>152</ele>
        <time>2020-11-13T08:22:12.000Z</time>
      </trkpt>
      <trkpt lat="49.86242" lon="4.76183">
        <ele>152</ele>
        <time>2020-11-13T08:22:13.000Z</time>
      </trkpt>
      <trkpt lat="49.86245" lon="4.7618">
        <ele>153</ele>
        <time>2020-11-13T08:22:14.000Z</time>
      </trkpt>
      <trkpt lat="49.86248" lon="4.76177">
        <ele>153</ele>
        <time>2020-11-13T08:22:15.000Z</time>
      </trkpt>
      <trkpt lat="49.86251" lon="4.76174">
        <ele>153</ele>
        <time>2020-11-13T08:22:16.000Z</time>
      </trkpt>
      <trkpt lat="49.86254" lon="4.76171">
        <ele>153</ele>
        <time>2020-11-13T08:22:17.000Z</time>
      </trkpt>
      <trkpt lat="49.86257" lon="4.76168">
        <ele>153</ele>
        <time>2020-11-13T08:22:18.000Z</time>
      </trkpt>
      <trkpt lat="49.86259" lon="4.76165">
        <ele>153</ele>
        <time>2020-11-13T08:22:19.000Z</time>
      </trkpt>
      <trkpt lat="49.86262" lon="4.76162">
        <ele>154</ele>
        <time>2020-11-13T08:22:20.000Z</time>
      </trkpt>
      <trkpt lat="49.86265" lon="4.76158">
        <ele>154</ele>
        <time>2020-11-13T08:22:21.000Z</time>
      </trkpt>
      <trkpt lat="49.86267" lon="4.76155">
        <ele>154</ele>
        <time>2020-11-13T08:22:22.000Z</time>
      </trkpt>
      <trkpt lat="49.8627" lon="4.76152">
        <ele>154</ele>
        <time>2020-11-13T08:22:23.000Z</time>
      </trkpt>
      <trkpt lat="49.86272" lon="4.76149">
        <ele>155</ele>
        <time>2020-11-13T08:22:24.000Z</time>
      </trkpt>
      <trkpt lat="49.86275" lon="4.76146">
        <ele>155</ele>
        <time>2020-11-13T08:22:25.000Z</time>
      </trkpt>
      <trkpt lat="49.86277" lon="4.76143">
        <ele>155</ele>
        <time>2020-11-13T08:22:26.000Z</time>
      </trkpt>
      <trkpt lat="49.8628" lon="4.7614">
        <ele>155</ele>
        <time>2020-11-13T08:22:27.000Z</time>
      </trkpt>
      <trkpt lat="49.86282" lon="4.76137">
        <ele>155</ele>
        <time>2020-11-13T08:22:28.000Z</time>
      </trkpt>
      <trkpt lat="49.86285" lon="4.76134">
        <ele>156</ele>
        <time>2020-11-13T08:22:29.000Z</time>
      </trkpt>
      <trkpt lat="49.86287" lon="4.76131">
        <ele>156</ele>
        <time>2020-11-13T08:22:30.000Z</time>
      </trkpt>
      <trkpt lat="49.8629" lon="4.76129">
        <ele>156</ele>
        <time>2020-11-13T08:22:31.000Z</time>
      </trkpt>
      <trkpt lat="49.86292" lon="4.76126">
        <ele>156</ele>
        <time>2020-11-13T08:22:32.000Z</time>
      </trkpt>
      <trkpt lat="49.86295" lon="4.76124">
        <ele>157</ele>
        <time>2020-11-13T08:22:33.000Z</time>
      </trkpt>
      <trkpt lat="49.86297" lon="4.76121">
        <ele>157</ele>
        <time>2020-11-13T08:22:34.000Z</time>
      </trkpt>
      <trkpt lat="49.863" lon="4.76118">
        <ele>157</ele>
        <time>2020-11-13T08:22:35.000Z</time>
      </trkpt>
      <trkpt lat="49.86302" lon="4.76115">
        <ele>157</ele>
        <time>2020-11-13T08:22:36.000Z</time>
      </trkpt>
      <trkpt lat="49.86304" lon="4.76113">
        <ele>158</ele>
        <time>2020-11-13T08:22:37.000Z</time>
      </trkpt>
      <trkpt lat="49.86307" lon="4.76111">
        <ele>158</ele>
        <time>2020-11-13T08:22:38.000Z</time>
      </trkpt>
      <trkpt lat="49.86309" lon="4.76108">
        <ele>158</ele>
        <time>2020-11-13T08:22:39.000Z</time>
      </trkpt>
      <trkpt lat="49.86312" lon="4.76105">
        <ele>158</ele>
        <time>2020-11-13T08:22:40.000Z</time>
      </trkpt>
      <trkpt lat="49.86314" lon="4.76103">
        <ele>159</ele>
        <time>2020-11-13T08:22:41.000Z</time>
      </trkpt>
      <trkpt lat="49.86316" lon="4.76101">
        <ele>159</ele>
        <time>2020-11-13T08:22:42.000Z</time>
      </trkpt>
      <trkpt lat="49.86319" lon="4.76098">
        <ele>159</ele>
        <time>2020-11-13T08:22:43.000Z</time>
      </trkpt>
      <trkpt lat="49.86321" lon="4.76096">
        <ele>159</ele>
        <time>2020-11-13T08:22:44.000Z</time>
      </trkpt>
      <trkpt lat="49.86323" lon="4.76094">
        <ele>159</ele>
        <time>2020-11-13T08:22:45.000Z</time>
      </trkpt>
      <trkpt lat="49.86326" lon="4.76092">
        <ele>160</ele>
        <time>2020-11-13T08:22:46.000Z</time>
      </trkpt>
      <trkpt lat="49.86328" lon="4.76089">
        <ele>160</ele>
        <time>2020-11-13T08:22:47.000Z</time>
      </trkpt>
      <trkpt lat="49.8633" lon="4.76087">
        <ele>160</ele>
        <time>2020-11-13T08:22:48.000Z</time>
      </trkpt>
      <trkpt lat="49.86332" lon="4.76084">
        <ele>160</ele>
        <time>2020-11-13T08:22:49.000Z</time>
      </trkpt>
      <trkpt lat="49.86334" lon="4.76082">
        <ele>161</ele>
        <time>2020-11-13T08:22:50.000Z</time>
      </trkpt>
      <trkpt lat="49.86337" lon="4.7608">
        <ele>161</ele>
        <time>2020-11-13T08:22:51.000Z</time>
      </trkpt>
      <trkpt lat="49.86339" lon="4.76077">
        <ele>161</ele>
        <time>2020-11-13T08:22:52.000Z</time>
      </trkpt>
      <trkpt lat="49.86341" lon="4.76075">
        <ele>161</ele>
        <time>2020-11-13T08:22:53.000Z</time>
      </trkpt>
      <trkpt lat="49.86343" lon="4.76073">
        <ele>161</ele>
        <time>2020-11-13T08:22:54.000Z</time>
      </trkpt>
      <trkpt lat="49.86345" lon="4.76071">
        <ele>161</ele>
        <time>2020-11-13T08:22:55.000Z</time>
      </trkpt>
      <trkpt lat="49.86347" lon="4.76068">
        <ele>161</ele>
        <time>2020-11-13T08:22:56.000Z</time>
      </trkpt>
      <trkpt lat="49.86349" lon="4.76065">
        <ele>162</ele>
        <time>2020-11-13T08:22:57.000Z</time>
      </trkpt>
      <trkpt lat="49.86351" lon="4.76063">
        <ele>162</ele>
        <time>2020-11-13T08:22:58.000Z</time>
      </trkpt>
      <trkpt lat="49.86353" lon="4.7606">
        <ele>162</ele>
        <time>2020-11-13T08:22:59.000Z</time>
      </trkpt>
      <trkpt lat="49.86355" lon="4.76058">
        <ele>162</ele>
        <time>2020-11-13T08:23:00.000Z</time>
      </trkpt>
      <trkpt lat="49.86357" lon="4.76055">
        <ele>163</ele>
        <time>2020-11-13T08:23:01.000Z</time>
      </trkpt>
      <trkpt lat="49.86358" lon="4.76053">
        <ele>163</ele>
        <time>2020-11-13T08:23:02.000Z</time>
      </trkpt>
      <trkpt lat="49.8636" lon="4.7605">
        <ele>163</ele>
        <time>2020-11-13T08:23:03.000Z</time>
      </trkpt>
      <trkpt lat="49.86362" lon="4.76047">
        <ele>164</ele>
        <time>2020-11-13T08:23:04.000Z</time>
      </trkpt>
      <trkpt lat="49.86363" lon="4.76044">
        <ele>164</ele>
        <time>2020-11-13T08:23:05.000Z</time>
      </trkpt>
      <trkpt lat="49.86365" lon="4.76041">
        <ele>164</ele>
        <time>2020-11-13T08:23:06.000Z</time>
      </trkpt>
      <trkpt lat="49.86366" lon="4.76038">
        <ele>165</ele>
        <time>2020-11-13T08:23:07.000Z</time>
      </trkpt>
      <trkpt lat="49.86368" lon="4.76035">
        <ele>165</ele>
        <time>2020-11-13T08:23:08.000Z</time>
      </trkpt>
      <trkpt lat="49.86369" lon="4.76032">
        <ele>165</ele>
        <time>2020-11-13T08:23:09.000Z</time>
      </trkpt>
      <trkpt lat="49.86371" lon="4.76029">
        <ele>165</ele>
        <time>2020-11-13T08:23:10.000Z</time>
      </trkpt>
      <trkpt lat="49.86372" lon="4.76026">
        <ele>166</ele>
        <time>2020-11-13T08:23:11.000Z</time>
      </trkpt>
      <trkpt lat="49.86374" lon="4.76023">
        <ele>166</ele>
        <time>2020-11-13T08:23:12.000Z</time>
      </trkpt>
      <trkpt lat="49.86375" lon="4.7602">
        <ele>166</ele>
        <time>2020-11-13T08:23:13.000Z</time>
      </trkpt>
      <trkpt lat="49.86377" lon="4.76017">
        <ele>167</ele>
        <time>2020-11-13T08:23:14.000Z</time>
      </trkpt>
      <trkpt lat="49.86378" lon="4.76015">
        <ele>167</ele>
        <time>2020-11-13T08:23:15.000Z</time>
      </trkpt>
      <trkpt lat="49.8638" lon="4.76012">
        <ele>167</ele>
        <time>2020-11-13T08:23:16.000Z</time>
      </trkpt>
      <trkpt lat="49.86382" lon="4.76009">
        <ele>167</ele>
        <time>2020-11-13T08:23:17.000Z</time>
      </trkpt>
      <trkpt lat="49.86383" lon="4.76007">
        <ele>168</ele>
        <time>2020-11-13T08:23:18.000Z</time>
      </trkpt>
      <trkpt lat="49.86385" lon="4.76004">
        <ele>168</ele>
        <time>2020-11-13T08:23:19.000Z</time>
      </trkpt>
      <trkpt lat="49.86386" lon="4.76001">
        <ele>168</ele>
        <time>2020-11-13T08:23:20.000Z</time>
      </trkpt>
      <trkpt lat="49.86387" lon="4.75997">
        <ele>169</ele>
        <time>2020-11-13T08:23:21.000Z</time>
      </trkpt>
      <trkpt lat="49.86389" lon="4.75994">
        <ele>169</ele>
        <time>2020-11-13T08:23:22.000Z</time>
      </trkpt>
      <trkpt lat="49.8639" lon="4.75991">
        <ele>169</ele>
        <time>2020-11-13T08:23:23.000Z</time>
      </trkpt>
      <trkpt lat="49.86392" lon="4.75988">
        <ele>170</ele>
        <time>2020-11-13T08:23:24.000Z</time>
      </trkpt>
      <trkpt lat="49.86393" lon="4.75984">
        <ele>170</ele>
        <time>2020-11-13T08:23:25.000Z</time>
      </trkpt>
      <trkpt lat="49.86395" lon="4.75981">
        <ele>170</ele>
        <time>2020-11-13T08:23:26.000Z</time>
      </trkpt>
      <trkpt lat="49.86396" lon="4.75978">
        <ele>171</ele>
        <time>2020-11-13T08:23:27.000Z</time>
      </trkpt>
      <trkpt lat="49.86398" lon="4.75975">
        <ele>171</ele>
        <time>2020-11-13T08:23:28.000Z</time>
      </trkpt>
      <trkpt lat="49.864" lon="4.75972">
        <ele>172</ele>
        <time>2020-11-13T08:23:29.000Z</time>
      </trkpt>
      <trkpt lat="49.86402" lon="4.75969">
        <ele>172</ele>
        <time>2020-11-13T08:23:30.000Z</time>
      </trkpt>
      <trkpt lat="49.86404" lon="4.75967">
        <ele>172</ele>
        <time>2020-11-13T08:23:31.000Z</time>
      </trkpt>
      <trkpt lat="49.86406" lon="4.75965">
        <ele>173</ele>
        <time>2020-11-13T08:23:32.000Z</time>
      </trkpt>
      <trkpt lat="49.86408" lon="4.75963">
        <ele>173</ele>
        <time>2020-11-13T08:23:33.000Z</time>
      </trkpt>
      <trkpt lat="49.8641" lon="4.75961">
        <ele>173</ele>
        <time>2020-11-13T08:23:34.000Z</time>
      </trkpt>
      <trkpt lat="49.86412" lon="4.75958">
        <ele>174</ele>
        <time>2020-11-13T08:23:35.000Z</time>
      </trkpt>
      <trkpt lat="49.86414" lon="4.75956">
        <ele>174</ele>
        <time>2020-11-13T08:23:36.000Z</time>
      </trkpt>
      <trkpt lat="49.86416" lon="4.75954">
        <ele>174</ele>
        <time>2020-11-13T08:23:37.000Z</time>
      </trkpt>
      <trkpt lat="49.86418" lon="4.75952">
        <ele>174</ele>
        <time>2020-11-13T08:23:38.000Z</time>
      </trkpt>
      <trkpt lat="49.86419" lon="4.7595">
        <ele>175</ele>
        <time>2020-11-13T08:23:39.000Z</time>
      </trkpt>
      <trkpt lat="49.86421" lon="4.75948">
        <ele>175</ele>
        <time>2020-11-13T08:23:40.000Z</time>
      </trkpt>
      <trkpt lat="49.86423" lon="4.75946">
        <ele>176</ele>
        <time>2020-11-13T08:23:41.000Z</time>
      </trkpt>
      <trkpt lat="49.86425" lon="4.75944">
        <ele>176</ele>
        <time>2020-11-13T08:23:42.000Z</time>
      </trkpt>
      <trkpt lat="49.86426" lon="4.75942">
        <ele>176</ele>
        <time>2020-11-13T08:23:43.000Z</time>
      </trkpt>
      <trkpt lat="49.86428" lon="4.75941">
        <ele>177</ele>
        <time>2020-11-13T08:23:44.000Z</time>
      </trkpt>
      <trkpt lat="49.86429" lon="4.7594">
        <ele>177</ele>
        <time>2020-11-13T08:23:45.000Z</time>
      </trkpt>
      <trkpt lat="49.86431" lon="4.75939">
        <ele>178</ele>
        <time>2020-11-13T08:23:46.000Z</time>
      </trkpt>
      <trkpt lat="49.86433" lon="4.75939">
        <ele>178</ele>
        <time>2020-11-13T08:23:47.000Z</time>
      </trkpt>
      <trkpt lat="49.86435" lon="4.7594">
        <ele>178</ele>
        <time>2020-11-13T08:23:48.000Z</time>
      </trkpt>
      <trkpt lat="49.86437" lon="4.7594">
        <ele>179</ele>
        <time>2020-11-13T08:23:49.000Z</time>
      </trkpt>
      <trkpt lat="49.86439" lon="4.75941">
        <ele>179</ele>
        <time>2020-11-13T08:23:50.000Z</time>
      </trkpt>
      <trkpt lat="49.86441" lon="4.75943">
        <ele>179</ele>
        <time>2020-11-13T08:23:51.000Z</time>
      </trkpt>
      <trkpt lat="49.86443" lon="4.75944">
        <ele>179</ele>
        <time>2020-11-13T08:23:52.000Z</time>
      </trkpt>
      <trkpt lat="49.86444" lon="4.75946">
        <ele>180</ele>
        <time>2020-11-13T08:23:53.000Z</time>
      </trkpt>
      <trkpt lat="49.86446" lon="4.75947">
        <ele>180</ele>
        <time>2020-11-13T08:23:54.000Z</time>
      </trkpt>
      <trkpt lat="49.86448" lon="4.75949">
        <ele>180</ele>
        <time>2020-11-13T08:23:55.000Z</time>
      </trkpt>
      <trkpt lat="49.8645" lon="4.75951">
        <ele>180</ele>
        <time>2020-11-13T08:23:56.000Z</time>
      </trkpt>
      <trkpt lat="49.86452" lon="4.75953">
        <ele>181</ele>
        <time>2020-11-13T08:23:57.000Z</time>
      </trkpt>
      <trkpt lat="49.86453" lon="4.75955">
        <ele>181</ele>
        <time>2020-11-13T08:23:58.000Z</time>
      </trkpt>
      <trkpt lat="49.86455" lon="4.75957">
        <ele>181</ele>
        <time>2020-11-13T08:23:59.000Z</time>
      </trkpt>
      <trkpt lat="49.86456" lon="4.75959">
        <ele>182</ele>
        <time>2020-11-13T08:24:00.000Z</time>
      </trkpt>
      <trkpt lat="49.86458" lon="4.75961">
        <ele>182</ele>
        <time>2020-11-13T08:24:01.000Z</time>
      </trkpt>
      <trkpt lat="49.8646" lon="4.75963">
        <ele>182</ele>
        <time>2020-11-13T08:24:02.000Z</time>
      </trkpt>
      <trkpt lat="49.86461" lon="4.75965">
        <ele>182</ele>
        <time>2020-11-13T08:24:03.000Z</time>
      </trkpt>
      <trkpt lat="49.86462" lon="4.75968">
        <ele>183</ele>
        <time>2020-11-13T08:24:04.000Z</time>
      </trkpt>
      <trkpt lat="49.86464" lon="4.7597">
        <ele>183</ele>
        <time>2020-11-13T08:24:05.000Z</time>
      </trkpt>
      <trkpt lat="49.86466" lon="4.75973">
        <ele>183</ele>
        <time>2020-11-13T08:24:06.000Z</time>
      </trkpt>
      <trkpt lat="49.86467" lon="4.75975">
        <ele>183</ele>
        <time>2020-11-13T08:24:07.000Z</time>
      </trkpt>
      <trkpt lat="49.86469" lon="4.75977">
        <ele>184</ele>
        <time>2020-11-13T08:24:08.000Z</time>
      </trkpt>
      <trkpt lat="49.8647" lon="4.75979">
        <ele>184</ele>
        <time>2020-11-13T08:24:09.000Z</time>
      </trkpt>
      <trkpt lat="49.86472" lon="4.75981">
        <ele>184</ele>
        <time>2020-11-13T08:24:10.000Z</time>
      </trkpt>
      <trkpt lat="49.86474" lon="4.75984">
        <ele>184</ele>
        <time>2020-11-13T08:24:11.000Z</time>
      </trkpt>
      <trkpt lat="49.86475" lon="4.75986">
        <ele>184</ele>
        <time>2020-11-13T08:24:12.000Z</time>
      </trkpt>
      <trkpt lat="49.86477" lon="4.75988">
        <ele>185</ele>
        <time>2020-11-13T08:24:13.000Z</time>
      </trkpt>
      <trkpt lat="49.86478" lon="4.75991">
        <ele>185</ele>
        <time>2020-11-13T08:24:14.000Z</time>
      </trkpt>
      <trkpt lat="49.8648" lon="4.75993">
        <ele>185</ele>
        <time>2020-11-13T08:24:15.000Z</time>
      </trkpt>
      <trkpt lat="49.86481" lon="4.75995">
        <ele>185</ele>
        <time>2020-11-13T08:24:16.000Z</time>
      </trkpt>
      <trkpt lat="49.86483" lon="4.75998">
        <ele>186</ele>
        <time>2020-11-13T08:24:17.000Z</time>
      </trkpt>
      <trkpt lat="49.86484" lon="4.76">
        <ele>186</ele>
        <time>2020-11-13T08:24:18.000Z</time>
      </trkpt>
      <trkpt lat="49.86486" lon="4.76003">
        <ele>186</ele>
        <time>2020-11-13T08:24:19.000Z</time>
      </trkpt>
      <trkpt lat="49.86487" lon="4.76005">
        <ele>186</ele>
        <time>2020-11-13T08:24:20.000Z</time>
      </trkpt>
      <trkpt lat="49.86489" lon="4.76007">
        <ele>187</ele>
        <time>2020-11-13T08:24:21.000Z</time>
      </trkpt>
      <trkpt lat="49.86491" lon="4.76009">
        <ele>187</ele>
        <time>2020-11-13T08:24:22.000Z</time>
      </trkpt>
      <trkpt lat="49.86493" lon="4.76011">
        <ele>187</ele>
        <time>2020-11-13T08:24:23.000Z</time>
      </trkpt>
      <trkpt lat="49.86494" lon="4.76013">
        <ele>187</ele>
        <time>2020-11-13T08:24:24.000Z</time>
      </trkpt>
      <trkpt lat="49.86496" lon="4.76015">
        <ele>187</ele>
        <time>2020-11-13T08:24:25.000Z</time>
      </trkpt>
      <trkpt lat="49.86497" lon="4.76018">
        <ele>188</ele>
        <time>2020-11-13T08:24:26.000Z</time>
      </trkpt>
      <trkpt lat="49.86499" lon="4.7602">
        <ele>188</ele>
        <time>2020-11-13T08:24:27.000Z</time>
      </trkpt>
      <trkpt lat="49.865" lon="4.76023">
        <ele>188</ele>
        <time>2020-11-13T08:24:28.000Z</time>
      </trkpt>
      <trkpt lat="49.86502" lon="4.76025">
        <ele>189</ele>
        <time>2020-11-13T08:24:29.000Z</time>
      </trkpt>
      <trkpt lat="49.86504" lon="4.76028">
        <ele>189</ele>
        <time>2020-11-13T08:24:30.000Z</time>
      </trkpt>
      <trkpt lat="49.86505" lon="4.7603">
        <ele>189</ele>
        <time>2020-11-13T08:24:31.000Z</time>
      </trkpt>
      <trkpt lat="49.86507" lon="4.76033">
        <ele>190</ele>
        <time>2020-11-13T08:24:32.000Z</time>
      </trkpt>
      <trkpt lat="49.86508" lon="4.76035">
        <ele>190</ele>
        <time>2020-11-13T08:24:33.000Z</time>
      </trkpt>
      <trkpt lat="49.8651" lon="4.76038">
        <ele>190</ele>
        <time>2020-11-13T08:24:34.000Z</time>
      </trkpt>
      <trkpt lat="49.86511" lon="4.7604">
        <ele>190</ele>
        <time>2020-11-13T08:24:35.000Z</time>
      </trkpt>
      <trkpt lat="49.86513" lon="4.76042">
        <ele>190</ele>
        <time>2020-11-13T08:24:36.000Z</time>
      </trkpt>
      <trkpt lat="49.86514" lon="4.76044">
        <ele>191</ele>
        <time>2020-11-13T08:24:37.000Z</time>
      </trkpt>
      <trkpt lat="49.86516" lon="4.76046">
        <ele>191</ele>
        <time>2020-11-13T08:24:38.000Z</time>
      </trkpt>
      <trkpt lat="49.86518" lon="4.76048">
        <ele>191</ele>
        <time>2020-11-13T08:24:39.000Z</time>
      </trkpt>
      <trkpt lat="49.8652" lon="4.7605">
        <ele>192</ele>
        <time>2020-11-13T08:24:40.000Z</time>
      </trkpt>
      <trkpt lat="49.86521" lon="4.76052">
        <ele>192</ele>
        <time>2020-11-13T08:24:41.000Z</time>
      </trkpt>
      <trkpt lat="49.86523" lon="4.76055">
        <ele>193</ele>
        <time>2020-11-13T08:24:42.000Z</time>
      </trkpt>
      <trkpt lat="49.86525" lon="4.76057">
        <ele>193</ele>
        <time>2020-11-13T08:24:43.000Z</time>
      </trkpt>
      <trkpt lat="49.86527" lon="4.7606">
        <ele>193</ele>
        <time>2020-11-13T08:24:44.000Z</time>
      </trkpt>
      <trkpt lat="49.86529" lon="4.76062">
        <ele>194</ele>
        <time>2020-11-13T08:24:45.000Z</time>
      </trkpt>
      <trkpt lat="49.8653" lon="4.76065">
        <ele>194</ele>
        <time>2020-11-13T08:24:46.000Z</time>
      </trkpt>
      <trkpt lat="49.86532" lon="4.76067">
        <ele>195</ele>
        <time>2020-11-13T08:24:47.000Z</time>
      </trkpt>
      <trkpt lat="49.86534" lon="4.7607">
        <ele>195</ele>
        <time>2020-11-13T08:24:48.000Z</time>
      </trkpt>
      <trkpt lat="49.86535" lon="4.76072">
        <ele>195</ele>
        <time>2020-11-13T08:24:49.000Z</time>
      </trkpt>
      <trkpt lat="49.86537" lon="4.76074">
        <ele>196</ele>
        <time>2020-11-13T08:24:50.000Z</time>
      </trkpt>
      <trkpt lat="49.86539" lon="4.76076">
        <ele>196</ele>
        <time>2020-11-13T08:24:51.000Z</time>
      </trkpt>
      <trkpt lat="49.8654" lon="4.76079">
        <ele>197</ele>
        <time>2020-11-13T08:24:52.000Z</time>
      </trkpt>
      <trkpt lat="49.86542" lon="4.76081">
        <ele>197</ele>
        <time>2020-11-13T08:24:53.000Z</time>
      </trkpt>
      <trkpt lat="49.86543" lon="4.76083">
        <ele>197</ele>
        <time>2020-11-13T08:24:54.000Z</time>
      </trkpt>
      <trkpt lat="49.86545" lon="4.76085">
        <ele>197</ele>
        <time>2020-11-13T08:24:55.000Z</time>
      </trkpt>
      <trkpt lat="49.86547" lon="4.76087">
        <ele>198</ele>
        <time>2020-11-13T08:24:56.000Z</time>
      </trkpt>
      <trkpt lat="49.86548" lon="4.7609">
        <ele>198</ele>
        <time>2020-11-13T08:24:57.000Z</time>
      </trkpt>
      <trkpt lat="49.8655" lon="4.76092">
        <ele>198</ele>
        <time>2020-11-13T08:24:58.000Z</time>
      </trkpt>
      <trkpt lat="49.86551" lon="4.76094">
        <ele>198</ele>
        <time>2020-11-13T08:24:59.000Z</time>
      </trkpt>
      <trkpt lat="49.86553" lon="4.76097">
        <ele>199</ele>
        <time>2020-11-13T08:25:00.000Z</time>
      </trkpt>
      <trkpt lat="49.86555" lon="4.76099">
        <ele>199</ele>
        <time>2020-11-13T08:25:01.000Z</time>
      </trkpt>
      <trkpt lat="49.86556" lon="4.76101">
        <ele>199</ele>
        <time>2020-11-13T08:25:02.000Z</time>
      </trkpt>
      <trkpt lat="49.86558" lon="4.76103">
        <ele>200</ele>
        <time>2020-11-13T08:25:03.000Z</time>
      </trkpt>
      <trkpt lat="49.86559" lon="4.76106">
        <ele>200</ele>
        <time>2020-11-13T08:25:04.000Z</time>
      </trkpt>
      <trkpt lat="49.8656" lon="4.76108">
        <ele>200</ele>
        <time>2020-11-13T08:25:05.000Z</time>
      </trkpt>
      <trkpt lat="49.86562" lon="4.7611">
        <ele>201</ele>
        <time>2020-11-13T08:25:06.000Z</time>
      </trkpt>
      <trkpt lat="49.86563" lon="4.76112">
        <ele>201</ele>
        <time>2020-11-13T08:25:07.000Z</time>
      </trkpt>
      <trkpt lat="49.86564" lon="4.76114">
        <ele>202</ele>
        <time>2020-11-13T08:25:08.000Z</time>
      </trkpt>
      <trkpt lat="49.86566" lon="4.76117">
        <ele>202</ele>
        <time>2020-11-13T08:25:09.000Z</time>
      </trkpt>
      <trkpt lat="49.86567" lon="4.76119">
        <ele>202</ele>
        <time>2020-11-13T08:25:10.000Z</time>
      </trkpt>
      <trkpt lat="49.86569" lon="4.76121">
        <ele>203</ele>
        <time>2020-11-13T08:25:11.000Z</time>
      </trkpt>
      <trkpt lat="49.8657" lon="4.76123">
        <ele>203</ele>
        <time>2020-11-13T08:25:12.000Z</time>
      </trkpt>
      <trkpt lat="49.86571" lon="4.76125">
        <ele>204</ele>
        <time>2020-11-13T08:25:13.000Z</time>
      </trkpt>
      <trkpt lat="49.86572" lon="4.76127">
        <ele>204</ele>
        <time>2020-11-13T08:25:14.000Z</time>
      </trkpt>
      <trkpt lat="49.86572" lon="4.76128">
        <ele>205</ele>
        <time>2020-11-13T08:25:15.000Z</time>
      </trkpt>
      <trkpt lat="49.86573" lon="4.76129">
        <ele>205</ele>
        <time>2020-11-13T08:25:16.000Z</time>
      </trkpt>
      <trkpt lat="49.86574" lon="4.76131">
        <ele>206</ele>
        <time>2020-11-13T08:25:17.000Z</time>
      </trkpt>
      <trkpt lat="49.86576" lon="4.76132">
        <ele>206</ele>
        <time>2020-11-13T08:25:18.000Z</time>
      </trkpt>
      <trkpt lat="49.86577" lon="4.76134">
        <ele>207</ele>
        <time>2020-11-13T08:25:19.000Z</time>
      </trkpt>
      <trkpt lat="49.86578" lon="4.76136">
        <ele>207</ele>
        <time>2020-11-13T08:25:20.000Z</time>
      </trkpt>
      <trkpt lat="49.8658" lon="4.76137">
        <ele>208</ele>
        <time>2020-11-13T08:25:21.000Z</time>
      </trkpt>
      <trkpt lat="49.86581" lon="4.76139">
        <ele>208</ele>
        <time>2020-11-13T08:25:22.000Z</time>
      </trkpt>
      <trkpt lat="49.86582" lon="4.76141">
        <ele>208</ele>
        <time>2020-11-13T08:25:23.000Z</time>
      </trkpt>
      <trkpt lat="49.86584" lon="4.76142">
        <ele>209</ele>
        <time>2020-11-13T08:25:24.000Z</time>
      </trkpt>
      <trkpt lat="49.86586" lon="4.76144">
        <ele>209</ele>
        <time>2020-11-13T08:25:25.000Z</time>
      </trkpt>
      <trkpt lat="49.86588" lon="4.76146">
        <ele>210</ele>
        <time>2020-11-13T08:25:26.000Z</time>
      </trkpt>
      <trkpt lat="49.8659" lon="4.76148">
        <ele>211</ele>
        <time>2020-11-13T08:25:27.000Z</time>
      </trkpt>
      <trkpt lat="49.86592" lon="4.7615">
        <ele>211</ele>
        <time>2020-11-13T08:25:28.000Z</time>
      </trkpt>
      <trkpt lat="49.86595" lon="4.76152">
        <ele>212</ele>
        <time>2020-11-13T08:25:29.000Z</time>
      </trkpt>
      <trkpt lat="49.86597" lon="4.76153">
        <ele>212</ele>
        <time>2020-11-13T08:25:30.000Z</time>
      </trkpt>
      <trkpt lat="49.86599" lon="4.76154">
        <ele>213</ele>
        <time>2020-11-13T08:25:31.000Z</time>
      </trkpt>
      <trkpt lat="49.86601" lon="4.76155">
        <ele>213</ele>
        <time>2020-11-13T08:25:32.000Z</time>
      </trkpt>
      <trkpt lat="49.86603" lon="4.76156">
        <ele>214</ele>
        <time>2020-11-13T08:25:33.000Z</time>
      </trkpt>
      <trkpt lat="49.86605" lon="4.76156">
        <ele>214</ele>
        <time>2020-11-13T08:25:34.000Z</time>
      </trkpt>
      <trkpt lat="49.86607" lon="4.76156">
        <ele>215</ele>
        <time>2020-11-13T08:25:35.000Z</time>
      </trkpt>
      <trkpt lat="49.86608" lon="4.76156">
        <ele>215</ele>
        <time>2020-11-13T08:25:36.000Z</time>
      </trkpt>
      <trkpt lat="49.86609" lon="4.76155">
        <ele>216</ele>
        <time>2020-11-13T08:25:37.000Z</time>
      </trkpt>
      <trkpt lat="49.86608" lon="4.76153">
        <ele>216</ele>
        <time>2020-11-13T08:25:38.000Z</time>
      </trkpt>
      <trkpt lat="49.86608" lon="4.76149">
        <ele>216</ele>
        <time>2020-11-13T08:25:39.000Z</time>
      </trkpt>
      <trkpt lat="49.86607" lon="4.76146">
        <ele>217</ele>
        <time>2020-11-13T08:25:40.000Z</time>
      </trkpt>
      <trkpt lat="49.86607" lon="4.76143">
        <ele>217</ele>
        <time>2020-11-13T08:25:41.000Z</time>
      </trkpt>
      <trkpt lat="49.86608" lon="4.76139">
        <ele>217</ele>
        <time>2020-11-13T08:25:42.000Z</time>
      </trkpt>
      <trkpt lat="49.86608" lon="4.76135">
        <ele>218</ele>
        <time>2020-11-13T08:25:43.000Z</time>
      </trkpt>
      <trkpt lat="49.86607" lon="4.76131">
        <ele>218</ele>
        <time>2020-11-13T08:25:44.000Z</time>
      </trkpt>
      <trkpt lat="49.86607" lon="4.76127">
        <ele>218</ele>
        <time>2020-11-13T08:25:45.000Z</time>
      </trkpt>
      <trkpt lat="49.86607" lon="4.76122">
        <ele>219</ele>
        <time>2020-11-13T08:25:46.000Z</time>
      </trkpt>
      <trkpt lat="49.86606" lon="4.76118">
        <ele>219</ele>
        <time>2020-11-13T08:25:47.000Z</time>
      </trkpt>
      <trkpt lat="49.86606" lon="4.76113">
        <ele>220</ele>
        <time>2020-11-13T08:25:48.000Z</time>
      </trkpt>
      <trkpt lat="49.86605" lon="4.76109">
        <ele>220</ele>
        <time>2020-11-13T08:25:49.000Z</time>
      </trkpt>
      <trkpt lat="49.86605" lon="4.76104">
        <ele>221</ele>
        <time>2020-11-13T08:25:50.000Z</time>
      </trkpt>
      <trkpt lat="49.86604" lon="4.761">
        <ele>221</ele>
        <time>2020-11-13T08:25:51.000Z</time>
      </trkpt>
      <trkpt lat="49.86604" lon="4.76095">
        <ele>222</ele>
        <time>2020-11-13T08:25:52.000Z</time>
      </trkpt>
      <trkpt lat="49.86604" lon="4.76091">
        <ele>222</ele>
        <time>2020-11-13T08:25:53.000Z</time>
      </trkpt>
      <trkpt lat="49.86604" lon="4.76086">
        <ele>223</ele>
        <time>2020-11-13T08:25:54.000Z</time>
      </trkpt>
      <trkpt lat="49.86603" lon="4.76081">
        <ele>223</ele>
        <time>2020-11-13T08:25:55.000Z</time>
      </trkpt>
      <trkpt lat="49.86603" lon="4.76076">
        <ele>223</ele>
        <time>2020-11-13T08:25:56.000Z</time>
      </trkpt>
      <trkpt lat="49.86603" lon="4.76071">
        <ele>224</ele>
        <time>2020-11-13T08:25:57.000Z</time>
      </trkpt>
      <trkpt lat="49.86604" lon="4.76066">
        <ele>224</ele>
        <time>2020-11-13T08:25:58.000Z</time>
      </trkpt>
      <trkpt lat="49.86604" lon="4.7606">
        <ele>224</ele>
        <time>2020-11-13T08:25:59.000Z</time>
      </trkpt>
      <trkpt lat="49.86604" lon="4.76054">
        <ele>224</ele>
        <time>2020-11-13T08:26:00.000Z</time>
      </trkpt>
      <trkpt lat="49.86604" lon="4.76048">
        <ele>224</ele>
        <time>2020-11-13T08:26:01.000Z</time>
      </trkpt>
      <trkpt lat="49.86604" lon="4.76042">
        <ele>225</ele>
        <time>2020-11-13T08:26:02.000Z</time>
      </trkpt>
      <trkpt lat="49.86604" lon="4.76036">
        <ele>225</ele>
        <time>2020-11-13T08:26:03.000Z</time>
      </trkpt>
      <trkpt lat="49.86604" lon="4.76031">
        <ele>225</ele>
        <time>2020-11-13T08:26:04.000Z</time>
      </trkpt>
      <trkpt lat="49.86604" lon="4.76025">
        <ele>225</ele>
        <time>2020-11-13T08:26:05.000Z</time>
      </trkpt>
      <trkpt lat="49.86603" lon="4.76019">
        <ele>225</ele>
        <time>2020-11-13T08:26:06.000Z</time>
      </trkpt>
      <trkpt lat="49.86603" lon="4.76013">
        <ele>225</ele>
        <time>2020-11-13T08:26:07.000Z</time>
      </trkpt>
      <trkpt lat="49.86603" lon="4.76008">
        <ele>225</ele>
        <time>2020-11-13T08:26:08.000Z</time>
      </trkpt>
      <trkpt lat="49.86603" lon="4.76002">
        <ele>226</ele>
        <time>2020-11-13T08:26:09.000Z</time>
      </trkpt>
      <trkpt lat="49.86602" lon="4.75997">
        <ele>226</ele>
        <time>2020-11-13T08:26:10.000Z</time>
      </trkpt>
      <trkpt lat="49.86602" lon="4.75991">
        <ele>226</ele>
        <time>2020-11-13T08:26:11.000Z</time>
      </trkpt>
      <trkpt lat="49.86602" lon="4.75986">
        <ele>226</ele>
        <time>2020-11-13T08:26:12.000Z</time>
      </trkpt>
      <trkpt lat="49.86601" lon="4.75981">
        <ele>226</ele>
        <time>2020-11-13T08:26:13.000Z</time>
      </trkpt>
      <trkpt lat="49.86601" lon="4.75975">
        <ele>226</ele>
        <time>2020-11-13T08:26:14.000Z</time>
      </trkpt>
      <trkpt lat="49.86601" lon="4.7597">
        <ele>226</ele>
        <time>2020-11-13T08:26:15.000Z</time>
      </trkpt>
      <trkpt lat="49.86601" lon="4.75965">
        <ele>227</ele>
        <time>2020-11-13T08:26:16.000Z</time>
      </trkpt>
      <trkpt lat="49.86602" lon="4.75961">
        <ele>227</ele>
        <time>2020-11-13T08:26:17.000Z</time>
      </trkpt>
      <trkpt lat="49.86602" lon="4.75955">
        <ele>227</ele>
        <time>2020-11-13T08:26:18.000Z</time>
      </trkpt>
      <trkpt lat="49.86602" lon="4.75951">
        <ele>227</ele>
        <time>2020-11-13T08:26:19.000Z</time>
      </trkpt>
      <trkpt lat="49.86602" lon="4.75945">
        <ele>227</ele>
        <time>2020-11-13T08:26:20.000Z</time>
      </trkpt>
      <trkpt lat="49.86602" lon="4.7594">
        <ele>227</ele>
        <time>2020-11-13T08:26:21.000Z</time>
      </trkpt>
      <trkpt lat="49.86602" lon="4.75934">
        <ele>227</ele>
        <time>2020-11-13T08:26:22.000Z</time>
      </trkpt>
      <trkpt lat="49.86601" lon="4.75928">
        <ele>227</ele>
        <time>2020-11-13T08:26:23.000Z</time>
      </trkpt>
      <trkpt lat="49.86601" lon="4.75922">
        <ele>228</ele>
        <time>2020-11-13T08:26:24.000Z</time>
      </trkpt>
      <trkpt lat="49.866" lon="4.75916">
        <ele>228</ele>
        <time>2020-11-13T08:26:25.000Z</time>
      </trkpt>
      <trkpt lat="49.866" lon="4.75911">
        <ele>228</ele>
        <time>2020-11-13T08:26:26.000Z</time>
      </trkpt>
      <trkpt lat="49.86599" lon="4.75905">
        <ele>228</ele>
        <time>2020-11-13T08:26:27.000Z</time>
      </trkpt>
      <trkpt lat="49.86599" lon="4.75898">
        <ele>228</ele>
        <time>2020-11-13T08:26:28.000Z</time>
      </trkpt>
      <trkpt lat="49.86598" lon="4.75892">
        <ele>229</ele>
        <time>2020-11-13T08:26:29.000Z</time>
      </trkpt>
      <trkpt lat="49.86598" lon="4.75885">
        <ele>229</ele>
        <time>2020-11-13T08:26:30.000Z</time>
      </trkpt>
      <trkpt lat="49.86597" lon="4.75878">
        <ele>229</ele>
        <time>2020-11-13T08:26:31.000Z</time>
      </trkpt>
      <trkpt lat="49.86597" lon="4.75872">
        <ele>229</ele>
        <time>2020-11-13T08:26:32.000Z</time>
      </trkpt>
      <trkpt lat="49.86597" lon="4.75866">
        <ele>229</ele>
        <time>2020-11-13T08:26:33.000Z</time>
      </trkpt>
      <trkpt lat="49.86596" lon="4.75859">
        <ele>229</ele>
        <time>2020-11-13T08:26:34.000Z</time>
      </trkpt>
      <trkpt lat="49.86596" lon="4.75853">
        <ele>229</ele>
        <time>2020-11-13T08:26:35.000Z</time>
      </trkpt>
      <trkpt lat="49.86596" lon="4.75846">
        <ele>229</ele>
        <time>2020-11-13T08:26:36.000Z</time>
      </trkpt>
      <trkpt lat="49.86596" lon="4.75841">
        <ele>229</ele>
        <time>2020-11-13T08:26:37.000Z</time>
      </trkpt>
      <trkpt lat="49.86596" lon="4.75835">
        <ele>229</ele>
        <time>2020-11-13T08:26:38.000Z</time>
      </trkpt>
      <trkpt lat="49.86597" lon="4.75828">
        <ele>229</ele>
        <time>2020-11-13T08:26:39.000Z</time>
      </trkpt>
      <trkpt lat="49.86597" lon="4.75822">
        <ele>229</ele>
        <time>2020-11-13T08:26:40.000Z</time>
      </trkpt>
      <trkpt lat="49.86596" lon="4.75815">
        <ele>229</ele>
        <time>2020-11-13T08:26:41.000Z</time>
      </trkpt>
      <trkpt lat="49.86595" lon="4.75809">
        <ele>229</ele>
        <time>2020-11-13T08:26:42.000Z</time>
      </trkpt>
      <trkpt lat="49.86595" lon="4.75803">
        <ele>229</ele>
        <time>2020-11-13T08:26:43.000Z</time>
      </trkpt>
      <trkpt lat="49.86595" lon="4.75798">
        <ele>229</ele>
        <time>2020-11-13T08:26:44.000Z</time>
      </trkpt>
      <trkpt lat="49.86596" lon="4.75793">
        <ele>229</ele>
        <time>2020-11-13T08:26:45.000Z</time>
      </trkpt>
      <trkpt lat="49.86597" lon="4.75789">
        <ele>229</ele>
        <time>2020-11-13T08:26:46.000Z</time>
      </trkpt>
      <trkpt lat="49.86599" lon="4.75785">
        <ele>229</ele>
        <time>2020-11-13T08:26:47.000Z</time>
      </trkpt>
      <trkpt lat="49.866" lon="4.75781">
        <ele>229</ele>
        <time>2020-11-13T08:26:48.000Z</time>
      </trkpt>
      <trkpt lat="49.86601" lon="4.75778">
        <ele>229</ele>
        <time>2020-11-13T08:26:49.000Z</time>
      </trkpt>
      <trkpt lat="49.86603" lon="4.75775">
        <ele>229</ele>
        <time>2020-11-13T08:26:50.000Z</time>
      </trkpt>
      <trkpt lat="49.86604" lon="4.75773">
        <ele>228</ele>
        <time>2020-11-13T08:26:51.000Z</time>
      </trkpt>
      <trkpt lat="49.86605" lon="4.75771">
        <ele>228</ele>
        <time>2020-11-13T08:26:52.000Z</time>
      </trkpt>
      <trkpt lat="49.86606" lon="4.75769">
        <ele>228</ele>
        <time>2020-11-13T08:26:53.000Z</time>
      </trkpt>
      <trkpt lat="49.86607" lon="4.75767">
        <ele>228</ele>
        <time>2020-11-13T08:26:54.000Z</time>
      </trkpt>
      <trkpt lat="49.86608" lon="4.75766">
        <ele>228</ele>
        <time>2020-11-13T08:26:55.000Z</time>
      </trkpt>
      <trkpt lat="49.86609" lon="4.75764">
        <ele>228</ele>
        <time>2020-11-13T08:26:56.000Z</time>
      </trkpt>
      <trkpt lat="49.86609" lon="4.75762">
        <ele>228</ele>
        <time>2020-11-13T08:26:57.000Z</time>
      </trkpt>
      <trkpt lat="49.8661" lon="4.7576">
        <ele>228</ele>
        <time>2020-11-13T08:26:58.000Z</time>
      </trkpt>
      <trkpt lat="49.86611" lon="4.75758">
        <ele>228</ele>
        <time>2020-11-13T08:26:59.000Z</time>
      </trkpt>
      <trkpt lat="49.86613" lon="4.75757">
        <ele>228</ele>
        <time>2020-11-13T08:27:00.000Z</time>
      </trkpt>
      <trkpt lat="49.86614" lon="4.75755">
        <ele>228</ele>
        <time>2020-11-13T08:27:01.000Z</time>
      </trkpt>
      <trkpt lat="49.86615" lon="4.75753">
        <ele>228</ele>
        <time>2020-11-13T08:27:02.000Z</time>
      </trkpt>
      <trkpt lat="49.86616" lon="4.75751">
        <ele>228</ele>
        <time>2020-11-13T08:27:03.000Z</time>
      </trkpt>
      <trkpt lat="49.86617" lon="4.75749">
        <ele>228</ele>
        <time>2020-11-13T08:27:04.000Z</time>
      </trkpt>
      <trkpt lat="49.86617" lon="4.75748">
        <ele>228</ele>
        <time>2020-11-13T08:27:05.000Z</time>
      </trkpt>
      <trkpt lat="49.86618" lon="4.75746">
        <ele>228</ele>
        <time>2020-11-13T08:27:06.000Z</time>
      </trkpt>
      <trkpt lat="49.86618" lon="4.75744">
        <ele>228</ele>
        <time>2020-11-13T08:27:07.000Z</time>
      </trkpt>
      <trkpt lat="49.86619" lon="4.75743">
        <ele>228</ele>
        <time>2020-11-13T08:27:08.000Z</time>
      </trkpt>
      <trkpt lat="49.8662" lon="4.75741">
        <ele>228</ele>
        <time>2020-11-13T08:27:09.000Z</time>
      </trkpt>
      <trkpt lat="49.86621" lon="4.75739">
        <ele>229</ele>
        <time>2020-11-13T08:27:10.000Z</time>
      </trkpt>
      <trkpt lat="49.86623" lon="4.75737">
        <ele>229</ele>
        <time>2020-11-13T08:27:11.000Z</time>
      </trkpt>
      <trkpt lat="49.86624" lon="4.75734">
        <ele>229</ele>
        <time>2020-11-13T08:27:12.000Z</time>
      </trkpt>
      <trkpt lat="49.86625" lon="4.75732">
        <ele>229</ele>
        <time>2020-11-13T08:27:13.000Z</time>
      </trkpt>
      <trkpt lat="49.86626" lon="4.7573">
        <ele>229</ele>
        <time>2020-11-13T08:27:14.000Z</time>
      </trkpt>
      <trkpt lat="49.86627" lon="4.75728">
        <ele>229</ele>
        <time>2020-11-13T08:27:15.000Z</time>
      </trkpt>
      <trkpt lat="49.86628" lon="4.75726">
        <ele>229</ele>
        <time>2020-11-13T08:27:16.000Z</time>
      </trkpt>
      <trkpt lat="49.86628" lon="4.75723">
        <ele>229</ele>
        <time>2020-11-13T08:27:17.000Z</time>
      </trkpt>
      <trkpt lat="49.86629" lon="4.75721">
        <ele>229</ele>
        <time>2020-11-13T08:27:18.000Z</time>
      </trkpt>
      <trkpt lat="49.86629" lon="4.75718">
        <ele>229</ele>
        <time>2020-11-13T08:27:19.000Z</time>
      </trkpt>
      <trkpt lat="49.8663" lon="4.75716">
        <ele>229</ele>
        <time>2020-11-13T08:27:20.000Z</time>
      </trkpt>
      <trkpt lat="49.86631" lon="4.75714">
        <ele>230</ele>
        <time>2020-11-13T08:27:21.000Z</time>
      </trkpt>
      <trkpt lat="49.86631" lon="4.75712">
        <ele>230</ele>
        <time>2020-11-13T08:27:22.000Z</time>
      </trkpt>
      <trkpt lat="49.86632" lon="4.7571">
        <ele>230</ele>
        <time>2020-11-13T08:27:23.000Z</time>
      </trkpt>
      <trkpt lat="49.86633" lon="4.75708">
        <ele>231</ele>
        <time>2020-11-13T08:27:24.000Z</time>
      </trkpt>
      <trkpt lat="49.86633" lon="4.75706">
        <ele>231</ele>
        <time>2020-11-13T08:27:25.000Z</time>
      </trkpt>
      <trkpt lat="49.86634" lon="4.75705">
        <ele>231</ele>
        <time>2020-11-13T08:27:26.000Z</time>
      </trkpt>
      <trkpt lat="49.86635" lon="4.75702">
        <ele>232</ele>
        <time>2020-11-13T08:27:27.000Z</time>
      </trkpt>
      <trkpt lat="49.86636" lon="4.757">
        <ele>232</ele>
        <time>2020-11-13T08:27:28.000Z</time>
      </trkpt>
      <trkpt lat="49.86637" lon="4.75698">
        <ele>232</ele>
        <time>2020-11-13T08:27:29.000Z</time>
      </trkpt>
      <trkpt lat="49.86638" lon="4.75696">
        <ele>233</ele>
        <time>2020-11-13T08:27:30.000Z</time>
      </trkpt>
      <trkpt lat="49.86639" lon="4.75695">
        <ele>233</ele>
        <time>2020-11-13T08:27:31.000Z</time>
      </trkpt>
      <trkpt lat="49.86639" lon="4.75692">
        <ele>233</ele>
        <time>2020-11-13T08:27:32.000Z</time>
      </trkpt>
      <trkpt lat="49.8664" lon="4.7569">
        <ele>234</ele>
        <time>2020-11-13T08:27:33.000Z</time>
      </trkpt>
      <trkpt lat="49.86641" lon="4.75689">
        <ele>234</ele>
        <time>2020-11-13T08:27:34.000Z</time>
      </trkpt>
      <trkpt lat="49.86642" lon="4.75688">
        <ele>234</ele>
        <time>2020-11-13T08:27:35.000Z</time>
      </trkpt>
      <trkpt lat="49.86642" lon="4.75686">
        <ele>235</ele>
        <time>2020-11-13T08:27:36.000Z</time>
      </trkpt>
      <trkpt lat="49.86643" lon="4.75684">
        <ele>235</ele>
        <time>2020-11-13T08:27:37.000Z</time>
      </trkpt>
      <trkpt lat="49.86644" lon="4.75682">
        <ele>235</ele>
        <time>2020-11-13T08:27:38.000Z</time>
      </trkpt>
      <trkpt lat="49.86644" lon="4.7568">
        <ele>236</ele>
        <time>2020-11-13T08:27:39.000Z</time>
      </trkpt>
      <trkpt lat="49.86645" lon="4.75677">
        <ele>236</ele>
        <time>2020-11-13T08:27:40.000Z</time>
      </trkpt>
      <trkpt lat="49.86646" lon="4.75675">
        <ele>237</ele>
        <time>2020-11-13T08:27:41.000Z</time>
      </trkpt>
      <trkpt lat="49.86646" lon="4.75672">
        <ele>237</ele>
        <time>2020-11-13T08:27:42.000Z</time>
      </trkpt>
      <trkpt lat="49.86647" lon="4.75669">
        <ele>237</ele>
        <time>2020-11-13T08:27:43.000Z</time>
      </trkpt>
      <trkpt lat="49.86648" lon="4.75667">
        <ele>238</ele>
        <time>2020-11-13T08:27:44.000Z</time>
      </trkpt>
      <trkpt lat="49.86648" lon="4.75664">
        <ele>238</ele>
        <time>2020-11-13T08:27:45.000Z</time>
      </trkpt>
      <trkpt lat="49.86649" lon="4.75662">
        <ele>238</ele>
        <time>2020-11-13T08:27:46.000Z</time>
      </trkpt>
      <trkpt lat="49.86649" lon="4.75659">
        <ele>238</ele>
        <time>2020-11-13T08:27:47.000Z</time>
      </trkpt>
      <trkpt lat="49.8665" lon="4.75656">
        <ele>239</ele>
        <time>2020-11-13T08:27:48.000Z</time>
      </trkpt>
      <trkpt lat="49.8665" lon="4.75653">
        <ele>239</ele>
        <time>2020-11-13T08:27:49.000Z</time>
      </trkpt>
      <trkpt lat="49.86651" lon="4.7565">
        <ele>239</ele>
        <time>2020-11-13T08:27:50.000Z</time>
      </trkpt>
      <trkpt lat="49.86652" lon="4.75647">
        <ele>240</ele>
        <time>2020-11-13T08:27:51.000Z</time>
      </trkpt>
      <trkpt lat="49.86653" lon="4.75644">
        <ele>240</ele>
        <time>2020-11-13T08:27:52.000Z</time>
      </trkpt>
      <trkpt lat="49.86653" lon="4.75641">
        <ele>240</ele>
        <time>2020-11-13T08:27:53.000Z</time>
      </trkpt>
      <trkpt lat="49.86653" lon="4.75638">
        <ele>240</ele>
        <time>2020-11-13T08:27:54.000Z</time>
      </trkpt>
      <trkpt lat="49.86654" lon="4.75634">
        <ele>241</ele>
        <time>2020-11-13T08:27:55.000Z</time>
      </trkpt>
      <trkpt lat="49.86654" lon="4.75631">
        <ele>241</ele>
        <time>2020-11-13T08:27:56.000Z</time>
      </trkpt>
      <trkpt lat="49.86655" lon="4.75628">
        <ele>241</ele>
        <time>2020-11-13T08:27:57.000Z</time>
      </trkpt>
      <trkpt lat="49.86655" lon="4.75625">
        <ele>241</ele>
        <time>2020-11-13T08:27:58.000Z</time>
      </trkpt>
      <trkpt lat="49.86656" lon="4.75622">
        <ele>242</ele>
        <time>2020-11-13T08:27:59.000Z</time>
      </trkpt>
      <trkpt lat="49.86656" lon="4.75618">
        <ele>242</ele>
        <time>2020-11-13T08:28:00.000Z</time>
      </trkpt>
      <trkpt lat="49.86656" lon="4.75615">
        <ele>242</ele>
        <time>2020-11-13T08:28:01.000Z</time>
      </trkpt>
      <trkpt lat="49.86657" lon="4.75612">
        <ele>242</ele>
        <time>2020-11-13T08:28:02.000Z</time>
      </trkpt>
      <trkpt lat="49.86657" lon="4.75609">
        <ele>242</ele>
        <time>2020-11-13T08:28:03.000Z</time>
      </trkpt>
      <trkpt lat="49.86657" lon="4.75606">
        <ele>243</ele>
        <time>2020-11-13T08:28:04.000Z</time>
      </trkpt>
      <trkpt lat="49.86658" lon="4.75603">
        <ele>243</ele>
        <time>2020-11-13T08:28:05.000Z</time>
      </trkpt>
      <trkpt lat="49.86658" lon="4.75601">
        <ele>243</ele>
        <time>2020-11-13T08:28:06.000Z</time>
      </trkpt>
      <trkpt lat="49.86659" lon="4.75598">
        <ele>243</ele>
        <time>2020-11-13T08:28:07.000Z</time>
      </trkpt>
      <trkpt lat="49.86659" lon="4.75595">
        <ele>243</ele>
        <time>2020-11-13T08:28:08.000Z</time>
      </trkpt>
      <trkpt lat="49.86659" lon="4.75593">
        <ele>244</ele>
        <time>2020-11-13T08:28:09.000Z</time>
      </trkpt>
      <trkpt lat="49.8666" lon="4.7559">
        <ele>244</ele>
        <time>2020-11-13T08:28:10.000Z</time>
      </trkpt>
      <trkpt lat="49.86661" lon="4.75588">
        <ele>244</ele>
        <time>2020-11-13T08:28:11.000Z</time>
      </trkpt>
      <trkpt lat="49.86661" lon="4.75587">
        <ele>244</ele>
        <time>2020-11-13T08:28:12.000Z</time>
      </trkpt>
      <trkpt lat="49.86662" lon="4.75585">
        <ele>245</ele>
        <time>2020-11-13T08:28:13.000Z</time>
      </trkpt>
      <trkpt lat="49.86662" lon="4.75583">
        <ele>245</ele>
        <time>2020-11-13T08:28:14.000Z</time>
      </trkpt>
      <trkpt lat="49.86662" lon="4.75581">
        <ele>245</ele>
        <time>2020-11-13T08:28:15.000Z</time>
      </trkpt>
      <trkpt lat="49.86662" lon="4.75579">
        <ele>245</ele>
        <time>2020-11-13T08:28:16.000Z</time>
      </trkpt>
      <trkpt lat="49.86662" lon="4.75577">
        <ele>246</ele>
        <time>2020-11-13T08:28:17.000Z</time>
      </trkpt>
      <trkpt lat="49.86662" lon="4.75574">
        <ele>246</ele>
        <time>2020-11-13T08:28:18.000Z</time>
      </trkpt>
      <trkpt lat="49.86662" lon="4.75571">
        <ele>247</ele>
        <time>2020-11-13T08:28:19.000Z</time>
      </trkpt>
      <trkpt lat="49.86662" lon="4.75568">
        <ele>247</ele>
        <time>2020-11-13T08:28:20.000Z</time>
      </trkpt>
      <trkpt lat="49.86662" lon="4.75565">
        <ele>247</ele>
        <time>2020-11-13T08:28:21.000Z</time>
      </trkpt>
      <trkpt lat="49.86662" lon="4.75562">
        <ele>247</ele>
        <time>2020-11-13T08:28:22.000Z</time>
      </trkpt>
      <trkpt lat="49.86662" lon="4.7556">
        <ele>248</ele>
        <time>2020-11-13T08:28:23.000Z</time>
      </trkpt>
      <trkpt lat="49.86662" lon="4.75556">
        <ele>248</ele>
        <time>2020-11-13T08:28:24.000Z</time>
      </trkpt>
      <trkpt lat="49.86662" lon="4.75553">
        <ele>248</ele>
        <time>2020-11-13T08:28:25.000Z</time>
      </trkpt>
      <trkpt lat="49.86662" lon="4.75549">
        <ele>249</ele>
        <time>2020-11-13T08:28:26.000Z</time>
      </trkpt>
      <trkpt lat="49.86662" lon="4.75545">
        <ele>249</ele>
        <time>2020-11-13T08:28:27.000Z</time>
      </trkpt>
      <trkpt lat="49.86661" lon="4.75542">
        <ele>249</ele>
        <time>2020-11-13T08:28:28.000Z</time>
      </trkpt>
      <trkpt lat="49.86661" lon="4.75539">
        <ele>250</ele>
        <time>2020-11-13T08:28:29.000Z</time>
      </trkpt>
      <trkpt lat="49.86661" lon="4.75534">
        <ele>250</ele>
        <time>2020-11-13T08:28:30.000Z</time>
      </trkpt>
      <trkpt lat="49.86661" lon="4.7553">
        <ele>250</ele>
        <time>2020-11-13T08:28:31.000Z</time>
      </trkpt>
      <trkpt lat="49.8666" lon="4.75526">
        <ele>250</ele>
        <time>2020-11-13T08:28:32.000Z</time>
      </trkpt>
      <trkpt lat="49.8666" lon="4.75521">
        <ele>250</ele>
        <time>2020-11-13T08:28:33.000Z</time>
      </trkpt>
      <trkpt lat="49.86659" lon="4.75517">
        <ele>250</ele>
        <time>2020-11-13T08:28:34.000Z</time>
      </trkpt>
      <trkpt lat="49.86659" lon="4.75512">
        <ele>251</ele>
        <time>2020-11-13T08:28:35.000Z</time>
      </trkpt>
      <trkpt lat="49.86658" lon="4.75507">
        <ele>251</ele>
        <time>2020-11-13T08:28:36.000Z</time>
      </trkpt>
      <trkpt lat="49.86658" lon="4.75503">
        <ele>251</ele>
        <time>2020-11-13T08:28:37.000Z</time>
      </trkpt>
      <trkpt lat="49.86657" lon="4.75498">
        <ele>251</ele>
        <time>2020-11-13T08:28:38.000Z</time>
      </trkpt>
      <trkpt lat="49.86657" lon="4.75493">
        <ele>251</ele>
        <time>2020-11-13T08:28:39.000Z</time>
      </trkpt>
      <trkpt lat="49.86657" lon="4.75488">
        <ele>251</ele>
        <time>2020-11-13T08:28:40.000Z</time>
      </trkpt>
      <trkpt lat="49.86657" lon="4.75483">
        <ele>251</ele>
        <time>2020-11-13T08:28:41.000Z</time>
      </trkpt>
      <trkpt lat="49.86657" lon="4.75478">
        <ele>251</ele>
        <time>2020-11-13T08:28:42.000Z</time>
      </trkpt>
      <trkpt lat="49.86658" lon="4.75474">
        <ele>251</ele>
        <time>2020-11-13T08:28:43.000Z</time>
      </trkpt>
      <trkpt lat="49.86659" lon="4.75469">
        <ele>250</ele>
        <time>2020-11-13T08:28:44.000Z</time>
      </trkpt>
      <trkpt lat="49.86659" lon="4.75465">
        <ele>250</ele>
        <time>2020-11-13T08:28:45.000Z</time>
      </trkpt>
      <trkpt lat="49.8666" lon="4.7546">
        <ele>250</ele>
        <time>2020-11-13T08:28:46.000Z</time>
      </trkpt>
      <trkpt lat="49.8666" lon="4.75456">
        <ele>250</ele>
        <time>2020-11-13T08:28:47.000Z</time>
      </trkpt>
      <trkpt lat="49.86661" lon="4.7545">
        <ele>250</ele>
        <time>2020-11-13T08:28:48.000Z</time>
      </trkpt>
      <trkpt lat="49.86661" lon="4.75445">
        <ele>250</ele>
        <time>2020-11-13T08:28:49.000Z</time>
      </trkpt>
      <trkpt lat="49.86661" lon="4.7544">
        <ele>250</ele>
        <time>2020-11-13T08:28:50.000Z</time>
      </trkpt>
      <trkpt lat="49.86661" lon="4.75435">
        <ele>250</ele>
        <time>2020-11-13T08:28:51.000Z</time>
      </trkpt>
      <trkpt lat="49.86661" lon="4.7543">
        <ele>250</ele>
        <time>2020-11-13T08:28:52.000Z</time>
      </trkpt>
      <trkpt lat="49.86661" lon="4.75425">
        <ele>250</ele>
        <time>2020-11-13T08:28:53.000Z</time>
      </trkpt>
      <trkpt lat="49.8666" lon="4.7542">
        <ele>250</ele>
        <time>2020-11-13T08:28:54.000Z</time>
      </trkpt>
      <trkpt lat="49.8666" lon="4.75416">
        <ele>250</ele>
        <time>2020-11-13T08:28:55.000Z</time>
      </trkpt>
      <trkpt lat="49.8666" lon="4.75411">
        <ele>250</ele>
        <time>2020-11-13T08:28:56.000Z</time>
      </trkpt>
      <trkpt lat="49.8666" lon="4.75407">
        <ele>250</ele>
        <time>2020-11-13T08:28:57.000Z</time>
      </trkpt>
      <trkpt lat="49.8666" lon="4.75402">
        <ele>249</ele>
        <time>2020-11-13T08:28:58.000Z</time>
      </trkpt>
      <trkpt lat="49.86659" lon="4.75396">
        <ele>249</ele>
        <time>2020-11-13T08:28:59.000Z</time>
      </trkpt>
      <trkpt lat="49.86659" lon="4.75391">
        <ele>249</ele>
        <time>2020-11-13T08:29:00.000Z</time>
      </trkpt>
      <trkpt lat="49.86659" lon="4.75386">
        <ele>249</ele>
        <time>2020-11-13T08:29:01.000Z</time>
      </trkpt>
      <trkpt lat="49.86658" lon="4.7538">
        <ele>249</ele>
        <time>2020-11-13T08:29:02.000Z</time>
      </trkpt>
      <trkpt lat="49.86657" lon="4.75375">
        <ele>249</ele>
        <time>2020-11-13T08:29:03.000Z</time>
      </trkpt>
      <trkpt lat="49.86656" lon="4.75371">
        <ele>249</ele>
        <time>2020-11-13T08:29:04.000Z</time>
      </trkpt>
      <trkpt lat="49.86656" lon="4.75366">
        <ele>249</ele>
        <time>2020-11-13T08:29:05.000Z</time>
      </trkpt>
      <trkpt lat="49.86656" lon="4.75362">
        <ele>248</ele>
        <time>2020-11-13T08:29:06.000Z</time>
      </trkpt>
      <trkpt lat="49.86655" lon="4.75357">
        <ele>248</ele>
        <time>2020-11-13T08:29:07.000Z</time>
      </trkpt>
      <trkpt lat="49.86655" lon="4.75352">
        <ele>248</ele>
        <time>2020-11-13T08:29:08.000Z</time>
      </trkpt>
      <trkpt lat="49.86655" lon="4.75347">
        <ele>248</ele>
        <time>2020-11-13T08:29:09.000Z</time>
      </trkpt>
      <trkpt lat="49.86654" lon="4.75343">
        <ele>248</ele>
        <time>2020-11-13T08:29:10.000Z</time>
      </trkpt>
      <trkpt lat="49.86654" lon="4.75338">
        <ele>248</ele>
        <time>2020-11-13T08:29:11.000Z</time>
      </trkpt>
      <trkpt lat="49.86654" lon="4.75333">
        <ele>247</ele>
        <time>2020-11-13T08:29:12.000Z</time>
      </trkpt>
      <trkpt lat="49.86654" lon="4.75328">
        <ele>247</ele>
        <time>2020-11-13T08:29:13.000Z</time>
      </trkpt>
      <trkpt lat="49.86654" lon="4.75322">
        <ele>247</ele>
        <time>2020-11-13T08:29:14.000Z</time>
      </trkpt>
      <trkpt lat="49.86654" lon="4.75315">
        <ele>247</ele>
        <time>2020-11-13T08:29:15.000Z</time>
      </trkpt>
      <trkpt lat="49.86655" lon="4.75309">
        <ele>247</ele>
        <time>2020-11-13T08:29:16.000Z</time>
      </trkpt>
      <trkpt lat="49.86656" lon="4.75302">
        <ele>246</ele>
        <time>2020-11-13T08:29:17.000Z</time>
      </trkpt>
      <trkpt lat="49.86657" lon="4.75297">
        <ele>246</ele>
        <time>2020-11-13T08:29:18.000Z</time>
      </trkpt>
      <trkpt lat="49.86658" lon="4.75292">
        <ele>246</ele>
        <time>2020-11-13T08:29:19.000Z</time>
      </trkpt>
      <trkpt lat="49.86658" lon="4.75288">
        <ele>246</ele>
        <time>2020-11-13T08:29:20.000Z</time>
      </trkpt>
      <trkpt lat="49.86659" lon="4.75285">
        <ele>246</ele>
        <time>2020-11-13T08:29:21.000Z</time>
      </trkpt>
      <trkpt lat="49.8666" lon="4.75282">
        <ele>246</ele>
        <time>2020-11-13T08:29:22.000Z</time>
      </trkpt>
      <trkpt lat="49.8666" lon="4.75279">
        <ele>246</ele>
        <time>2020-11-13T08:29:23.000Z</time>
      </trkpt>
      <trkpt lat="49.8666" lon="4.75277">
        <ele>246</ele>
        <time>2020-11-13T08:29:24.000Z</time>
      </trkpt>
      <trkpt lat="49.8666" lon="4.75274">
        <ele>247</ele>
        <time>2020-11-13T08:29:25.000Z</time>
      </trkpt>
      <trkpt lat="49.8666" lon="4.75271">
        <ele>247</ele>
        <time>2020-11-13T08:29:26.000Z</time>
      </trkpt>
      <trkpt lat="49.8666" lon="4.75268">
        <ele>247</ele>
        <time>2020-11-13T08:29:27.000Z</time>
      </trkpt>
      <trkpt lat="49.86661" lon="4.75265">
        <ele>247</ele>
        <time>2020-11-13T08:29:28.000Z</time>
      </trkpt>
      <trkpt lat="49.86661" lon="4.75262">
        <ele>247</ele>
        <time>2020-11-13T08:29:29.000Z</time>
      </trkpt>
      <trkpt lat="49.86662" lon="4.75258">
        <ele>247</ele>
        <time>2020-11-13T08:29:30.000Z</time>
      </trkpt>
      <trkpt lat="49.86662" lon="4.75255">
        <ele>247</ele>
        <time>2020-11-13T08:29:31.000Z</time>
      </trkpt>
      <trkpt lat="49.86663" lon="4.75253">
        <ele>247</ele>
        <time>2020-11-13T08:29:32.000Z</time>
      </trkpt>
      <trkpt lat="49.86663" lon="4.7525">
        <ele>247</ele>
        <time>2020-11-13T08:29:33.000Z</time>
      </trkpt>
      <trkpt lat="49.86663" lon="4.75248">
        <ele>247</ele>
        <time>2020-11-13T08:29:34.000Z</time>
      </trkpt>
      <trkpt lat="49.86663" lon="4.75244">
        <ele>248</ele>
        <time>2020-11-13T08:29:35.000Z</time>
      </trkpt>
      <trkpt lat="49.86663" lon="4.75241">
        <ele>248</ele>
        <time>2020-11-13T08:29:36.000Z</time>
      </trkpt>
      <trkpt lat="49.86663" lon="4.75239">
        <ele>248</ele>
        <time>2020-11-13T08:29:37.000Z</time>
      </trkpt>
      <trkpt lat="49.86663" lon="4.75236">
        <ele>249</ele>
        <time>2020-11-13T08:29:38.000Z</time>
      </trkpt>
      <trkpt lat="49.86664" lon="4.75234">
        <ele>249</ele>
        <time>2020-11-13T08:29:39.000Z</time>
      </trkpt>
      <trkpt lat="49.86664" lon="4.75232">
        <ele>249</ele>
        <time>2020-11-13T08:29:40.000Z</time>
      </trkpt>
      <trkpt lat="49.86664" lon="4.75229">
        <ele>250</ele>
        <time>2020-11-13T08:29:41.000Z</time>
      </trkpt>
      <trkpt lat="49.86664" lon="4.75226">
        <ele>250</ele>
        <time>2020-11-13T08:29:42.000Z</time>
      </trkpt>
      <trkpt lat="49.86665" lon="4.75224">
        <ele>250</ele>
        <time>2020-11-13T08:29:43.000Z</time>
      </trkpt>
      <trkpt lat="49.86665" lon="4.75222">
        <ele>251</ele>
        <time>2020-11-13T08:29:44.000Z</time>
      </trkpt>
      <trkpt lat="49.86665" lon="4.75219">
        <ele>251</ele>
        <time>2020-11-13T08:29:45.000Z</time>
      </trkpt>
      <trkpt lat="49.86665" lon="4.75216">
        <ele>251</ele>
        <time>2020-11-13T08:29:46.000Z</time>
      </trkpt>
      <trkpt lat="49.86665" lon="4.75213">
        <ele>252</ele>
        <time>2020-11-13T08:29:47.000Z</time>
      </trkpt>
      <trkpt lat="49.86665" lon="4.75209">
        <ele>252</ele>
        <time>2020-11-13T08:29:48.000Z</time>
      </trkpt>
      <trkpt lat="49.86665" lon="4.75205">
        <ele>252</ele>
        <time>2020-11-13T08:29:49.000Z</time>
      </trkpt>
      <trkpt lat="49.86665" lon="4.75202">
        <ele>252</ele>
        <time>2020-11-13T08:29:50.000Z</time>
      </trkpt>
      <trkpt lat="49.86666" lon="4.75198">
        <ele>253</ele>
        <time>2020-11-13T08:29:51.000Z</time>
      </trkpt>
      <trkpt lat="49.86666" lon="4.75194">
        <ele>253</ele>
        <time>2020-11-13T08:29:52.000Z</time>
      </trkpt>
      <trkpt lat="49.86666" lon="4.75191">
        <ele>253</ele>
        <time>2020-11-13T08:29:53.000Z</time>
      </trkpt>
      <trkpt lat="49.86665" lon="4.75188">
        <ele>254</ele>
        <time>2020-11-13T08:29:54.000Z</time>
      </trkpt>
      <trkpt lat="49.86666" lon="4.75185">
        <ele>254</ele>
        <time>2020-11-13T08:29:55.000Z</time>
      </trkpt>
      <trkpt lat="49.86666" lon="4.75182">
        <ele>255</ele>
        <time>2020-11-13T08:29:56.000Z</time>
      </trkpt>
      <trkpt lat="49.86665" lon="4.75179">
        <ele>255</ele>
        <time>2020-11-13T08:29:57.000Z</time>
      </trkpt>
      <trkpt lat="49.86665" lon="4.75175">
        <ele>255</ele>
        <time>2020-11-13T08:29:58.000Z</time>
      </trkpt>
      <trkpt lat="49.86665" lon="4.75172">
        <ele>256</ele>
        <time>2020-11-13T08:29:59.000Z</time>
      </trkpt>
      <trkpt lat="49.86665" lon="4.75168">
        <ele>256</ele>
        <time>2020-11-13T08:30:00.000Z</time>
      </trkpt>
      <trkpt lat="49.86665" lon="4.75165">
        <ele>257</ele>
        <time>2020-11-13T08:30:01.000Z</time>
      </trkpt>
      <trkpt lat="49.86664" lon="4.75161">
        <ele>257</ele>
        <time>2020-11-13T08:30:02.000Z</time>
      </trkpt>
      <trkpt lat="49.86663" lon="4.75159">
        <ele>258</ele>
        <time>2020-11-13T08:30:03.000Z</time>
      </trkpt>
      <trkpt lat="49.86662" lon="4.75156">
        <ele>258</ele>
        <time>2020-11-13T08:30:04.000Z</time>
      </trkpt>
      <trkpt lat="49.86662" lon="4.75154">
        <ele>259</ele>
        <time>2020-11-13T08:30:05.000Z</time>
      </trkpt>
      <trkpt lat="49.86661" lon="4.75151">
        <ele>259</ele>
        <time>2020-11-13T08:30:06.000Z</time>
      </trkpt>
      <trkpt lat="49.8666" lon="4.75148">
        <ele>260</ele>
        <time>2020-11-13T08:30:07.000Z</time>
      </trkpt>
      <trkpt lat="49.8666" lon="4.75145">
        <ele>260</ele>
        <time>2020-11-13T08:30:08.000Z</time>
      </trkpt>
      <trkpt lat="49.86659" lon="4.75143">
        <ele>260</ele>
        <time>2020-11-13T08:30:09.000Z</time>
      </trkpt>
      <trkpt lat="49.86658" lon="4.7514">
        <ele>261</ele>
        <time>2020-11-13T08:30:10.000Z</time>
      </trkpt>
      <trkpt lat="49.86658" lon="4.75138">
        <ele>261</ele>
        <time>2020-11-13T08:30:11.000Z</time>
      </trkpt>
      <trkpt lat="49.86658" lon="4.75135">
        <ele>261</ele>
        <time>2020-11-13T08:30:12.000Z</time>
      </trkpt>
      <trkpt lat="49.86657" lon="4.75132">
        <ele>262</ele>
        <time>2020-11-13T08:30:13.000Z</time>
      </trkpt>
      <trkpt lat="49.86657" lon="4.75129">
        <ele>262</ele>
        <time>2020-11-13T08:30:14.000Z</time>
      </trkpt>
      <trkpt lat="49.86657" lon="4.75126">
        <ele>262</ele>
        <time>2020-11-13T08:30:15.000Z</time>
      </trkpt>
      <trkpt lat="49.86657" lon="4.75123">
        <ele>262</ele>
        <time>2020-11-13T08:30:16.000Z</time>
      </trkpt>
      <trkpt lat="49.86657" lon="4.75119">
        <ele>263</ele>
        <time>2020-11-13T08:30:17.000Z</time>
      </trkpt>
      <trkpt lat="49.86657" lon="4.75116">
        <ele>263</ele>
        <time>2020-11-13T08:30:18.000Z</time>
      </trkpt>
      <trkpt lat="49.86657" lon="4.75113">
        <ele>263</ele>
        <time>2020-11-13T08:30:19.000Z</time>
      </trkpt>
      <trkpt lat="49.86657" lon="4.7511">
        <ele>263</ele>
        <time>2020-11-13T08:30:20.000Z</time>
      </trkpt>
      <trkpt lat="49.86657" lon="4.75106">
        <ele>263</ele>
        <time>2020-11-13T08:30:21.000Z</time>
      </trkpt>
      <trkpt lat="49.86656" lon="4.75103">
        <ele>264</ele>
        <time>2020-11-13T08:30:22.000Z</time>
      </trkpt>
      <trkpt lat="49.86656" lon="4.751">
        <ele>264</ele>
        <time>2020-11-13T08:30:23.000Z</time>
      </trkpt>
      <trkpt lat="49.86656" lon="4.75097">
        <ele>264</ele>
        <time>2020-11-13T08:30:24.000Z</time>
      </trkpt>
      <trkpt lat="49.86656" lon="4.75094">
        <ele>264</ele>
        <time>2020-11-13T08:30:25.000Z</time>
      </trkpt>
      <trkpt lat="49.86656" lon="4.75092">
        <ele>264</ele>
        <time>2020-11-13T08:30:26.000Z</time>
      </trkpt>
      <trkpt lat="49.86655" lon="4.7509">
        <ele>264</ele>
        <time>2020-11-13T08:30:27.000Z</time>
      </trkpt>
      <trkpt lat="49.86655" lon="4.75087">
        <ele>264</ele>
        <time>2020-11-13T08:30:28.000Z</time>
      </trkpt>
      <trkpt lat="49.86655" lon="4.75085">
        <ele>264</ele>
        <time>2020-11-13T08:30:29.000Z</time>
      </trkpt>
      <trkpt lat="49.86655" lon="4.75082">
        <ele>264</ele>
        <time>2020-11-13T08:30:30.000Z</time>
      </trkpt>
      <trkpt lat="49.86655" lon="4.75079">
        <ele>264</ele>
        <time>2020-11-13T08:30:31.000Z</time>
      </trkpt>
      <trkpt lat="49.86655" lon="4.75077">
        <ele>264</ele>
        <time>2020-11-13T08:30:32.000Z</time>
      </trkpt>
      <trkpt lat="49.86655" lon="4.75074">
        <ele>264</ele>
        <time>2020-11-13T08:30:33.000Z</time>
      </trkpt>
      <trkpt lat="49.86655" lon="4.75071">
        <ele>264</ele>
        <time>2020-11-13T08:30:34.000Z</time>
      </trkpt>
      <trkpt lat="49.86654" lon="4.75068">
        <ele>265</ele>
        <time>2020-11-13T08:30:35.000Z</time>
      </trkpt>
      <trkpt lat="49.86654" lon="4.75065">
        <ele>265</ele>
        <time>2020-11-13T08:30:36.000Z</time>
      </trkpt>
      <trkpt lat="49.86655" lon="4.75062">
        <ele>265</ele>
        <time>2020-11-13T08:30:37.000Z</time>
      </trkpt>
      <trkpt lat="49.86655" lon="4.75058">
        <ele>265</ele>
        <time>2020-11-13T08:30:38.000Z</time>
      </trkpt>
      <trkpt lat="49.86655" lon="4.75055">
        <ele>265</ele>
        <time>2020-11-13T08:30:39.000Z</time>
      </trkpt>
      <trkpt lat="49.86656" lon="4.7505">
        <ele>265</ele>
        <time>2020-11-13T08:30:40.000Z</time>
      </trkpt>
      <trkpt lat="49.86656" lon="4.75046">
        <ele>265</ele>
        <time>2020-11-13T08:30:41.000Z</time>
      </trkpt>
      <trkpt lat="49.86657" lon="4.75043">
        <ele>265</ele>
        <time>2020-11-13T08:30:42.000Z</time>
      </trkpt>
      <trkpt lat="49.86658" lon="4.75039">
        <ele>265</ele>
        <time>2020-11-13T08:30:43.000Z</time>
      </trkpt>
      <trkpt lat="49.86659" lon="4.75036">
        <ele>265</ele>
        <time>2020-11-13T08:30:44.000Z</time>
      </trkpt>
      <trkpt lat="49.8666" lon="4.75032">
        <ele>266</ele>
        <time>2020-11-13T08:30:45.000Z</time>
      </trkpt>
      <trkpt lat="49.8666" lon="4.75029">
        <ele>266</ele>
        <time>2020-11-13T08:30:46.000Z</time>
      </trkpt>
      <trkpt lat="49.86661" lon="4.75025">
        <ele>266</ele>
        <time>2020-11-13T08:30:47.000Z</time>
      </trkpt>
      <trkpt lat="49.86662" lon="4.75022">
        <ele>266</ele>
        <time>2020-11-13T08:30:48.000Z</time>
      </trkpt>
      <trkpt lat="49.86662" lon="4.75018">
        <ele>266</ele>
        <time>2020-11-13T08:30:49.000Z</time>
      </trkpt>
      <trkpt lat="49.86662" lon="4.75015">
        <ele>267</ele>
        <time>2020-11-13T08:30:50.000Z</time>
      </trkpt>
      <trkpt lat="49.86663" lon="4.75013">
        <ele>267</ele>
        <time>2020-11-13T08:30:51.000Z</time>
      </trkpt>
      <trkpt lat="49.86663" lon="4.7501">
        <ele>267</ele>
        <time>2020-11-13T08:30:52.000Z</time>
      </trkpt>
      <trkpt lat="49.86664" lon="4.75007">
        <ele>267</ele>
        <time>2020-11-13T08:30:53.000Z</time>
      </trkpt>
      <trkpt lat="49.86664" lon="4.75004">
        <ele>268</ele>
        <time>2020-11-13T08:30:54.000Z</time>
      </trkpt>
      <trkpt lat="49.86665" lon="4.75001">
        <ele>268</ele>
        <time>2020-11-13T08:30:55.000Z</time>
      </trkpt>
      <trkpt lat="49.86665" lon="4.74998">
        <ele>268</ele>
        <time>2020-11-13T08:30:56.000Z</time>
      </trkpt>
      <trkpt lat="49.86666" lon="4.74995">
        <ele>268</ele>
        <time>2020-11-13T08:30:57.000Z</time>
      </trkpt>
      <trkpt lat="49.86666" lon="4.74992">
        <ele>269</ele>
        <time>2020-11-13T08:30:58.000Z</time>
      </trkpt>
      <trkpt lat="49.86667" lon="4.7499">
        <ele>269</ele>
        <time>2020-11-13T08:30:59.000Z</time>
      </trkpt>
      <trkpt lat="49.86667" lon="4.74987">
        <ele>269</ele>
        <time>2020-11-13T08:31:00.000Z</time>
      </trkpt>
      <trkpt lat="49.86668" lon="4.74984">
        <ele>269</ele>
        <time>2020-11-13T08:31:01.000Z</time>
      </trkpt>
      <trkpt lat="49.86668" lon="4.74981">
        <ele>270</ele>
        <time>2020-11-13T08:31:02.000Z</time>
      </trkpt>
      <trkpt lat="49.86669" lon="4.74979">
        <ele>270</ele>
        <time>2020-11-13T08:31:03.000Z</time>
      </trkpt>
      <trkpt lat="49.86669" lon="4.74976">
        <ele>270</ele>
        <time>2020-11-13T08:31:04.000Z</time>
      </trkpt>
      <trkpt lat="49.86669" lon="4.74972">
        <ele>270</ele>
        <time>2020-11-13T08:31:05.000Z</time>
      </trkpt>
      <trkpt lat="49.8667" lon="4.74969">
        <ele>270</ele>
        <time>2020-11-13T08:31:06.000Z</time>
      </trkpt>
      <trkpt lat="49.86671" lon="4.74965">
        <ele>271</ele>
        <time>2020-11-13T08:31:07.000Z</time>
      </trkpt>
      <trkpt lat="49.86672" lon="4.74962">
        <ele>271</ele>
        <time>2020-11-13T08:31:08.000Z</time>
      </trkpt>
      <trkpt lat="49.86672" lon="4.74959">
        <ele>271</ele>
        <time>2020-11-13T08:31:09.000Z</time>
      </trkpt>
      <trkpt lat="49.86673" lon="4.74955">
        <ele>271</ele>
        <time>2020-11-13T08:31:10.000Z</time>
      </trkpt>
      <trkpt lat="49.86673" lon="4.74953">
        <ele>272</ele>
        <time>2020-11-13T08:31:11.000Z</time>
      </trkpt>
      <trkpt lat="49.86673" lon="4.7495">
        <ele>272</ele>
        <time>2020-11-13T08:31:12.000Z</time>
      </trkpt>
      <trkpt lat="49.86673" lon="4.74947">
        <ele>272</ele>
        <time>2020-11-13T08:31:13.000Z</time>
      </trkpt>
      <trkpt lat="49.86673" lon="4.74945">
        <ele>273</ele>
        <time>2020-11-13T08:31:14.000Z</time>
      </trkpt>
      <trkpt lat="49.86674" lon="4.74942">
        <ele>273</ele>
        <time>2020-11-13T08:31:15.000Z</time>
      </trkpt>
      <trkpt lat="49.86674" lon="4.74939">
        <ele>273</ele>
        <time>2020-11-13T08:31:16.000Z</time>
      </trkpt>
      <trkpt lat="49.86674" lon="4.74936">
        <ele>274</ele>
        <time>2020-11-13T08:31:17.000Z</time>
      </trkpt>
      <trkpt lat="49.86674" lon="4.74933">
        <ele>274</ele>
        <time>2020-11-13T08:31:18.000Z</time>
      </trkpt>
      <trkpt lat="49.86674" lon="4.74931">
        <ele>274</ele>
        <time>2020-11-13T08:31:19.000Z</time>
      </trkpt>
      <trkpt lat="49.86674" lon="4.74928">
        <ele>275</ele>
        <time>2020-11-13T08:31:20.000Z</time>
      </trkpt>
      <trkpt lat="49.86674" lon="4.74926">
        <ele>275</ele>
        <time>2020-11-13T08:31:21.000Z</time>
      </trkpt>
      <trkpt lat="49.86673" lon="4.74923">
        <ele>276</ele>
        <time>2020-11-13T08:31:22.000Z</time>
      </trkpt>
      <trkpt lat="49.86673" lon="4.7492">
        <ele>276</ele>
        <time>2020-11-13T08:31:23.000Z</time>
      </trkpt>
      <trkpt lat="49.86673" lon="4.74918">
        <ele>276</ele>
        <time>2020-11-13T08:31:24.000Z</time>
      </trkpt>
      <trkpt lat="49.86672" lon="4.74916">
        <ele>277</ele>
        <time>2020-11-13T08:31:25.000Z</time>
      </trkpt>
      <trkpt lat="49.86671" lon="4.74913">
        <ele>277</ele>
        <time>2020-11-13T08:31:26.000Z</time>
      </trkpt>
      <trkpt lat="49.86671" lon="4.74911">
        <ele>278</ele>
        <time>2020-11-13T08:31:27.000Z</time>
      </trkpt>
      <trkpt lat="49.8667" lon="4.74908">
        <ele>278</ele>
        <time>2020-11-13T08:31:28.000Z</time>
      </trkpt>
      <trkpt lat="49.8667" lon="4.74905">
        <ele>278</ele>
        <time>2020-11-13T08:31:29.000Z</time>
      </trkpt>
      <trkpt lat="49.86669" lon="4.74903">
        <ele>278</ele>
        <time>2020-11-13T08:31:30.000Z</time>
      </trkpt>
      <trkpt lat="49.86668" lon="4.749">
        <ele>278</ele>
        <time>2020-11-13T08:31:31.000Z</time>
      </trkpt>
      <trkpt lat="49.86667" lon="4.74897">
        <ele>278</ele>
        <time>2020-11-13T08:31:32.000Z</time>
      </trkpt>
      <trkpt lat="49.86666" lon="4.74894">
        <ele>279</ele>
        <time>2020-11-13T08:31:33.000Z</time>
      </trkpt>
      <trkpt lat="49.86665" lon="4.74891">
        <ele>279</ele>
        <time>2020-11-13T08:31:34.000Z</time>
      </trkpt>
      <trkpt lat="49.86665" lon="4.74888">
        <ele>279</ele>
        <time>2020-11-13T08:31:35.000Z</time>
      </trkpt>
      <trkpt lat="49.86664" lon="4.74886">
        <ele>279</ele>
        <time>2020-11-13T08:31:36.000Z</time>
      </trkpt>
      <trkpt lat="49.86664" lon="4.74883">
        <ele>279</ele>
        <time>2020-11-13T08:31:37.000Z</time>
      </trkpt>
      <trkpt lat="49.86664" lon="4.74881">
        <ele>279</ele>
        <time>2020-11-13T08:31:38.000Z</time>
      </trkpt>
      <trkpt lat="49.86663" lon="4.74878">
        <ele>279</ele>
        <time>2020-11-13T08:31:39.000Z</time>
      </trkpt>
      <trkpt lat="49.86663" lon="4.74875">
        <ele>279</ele>
        <time>2020-11-13T08:31:40.000Z</time>
      </trkpt>
      <trkpt lat="49.86662" lon="4.74872">
        <ele>279</ele>
        <time>2020-11-13T08:31:41.000Z</time>
      </trkpt>
      <trkpt lat="49.86662" lon="4.7487">
        <ele>279</ele>
        <time>2020-11-13T08:31:42.000Z</time>
      </trkpt>
      <trkpt lat="49.86662" lon="4.74867">
        <ele>279</ele>
        <time>2020-11-13T08:31:43.000Z</time>
      </trkpt>
      <trkpt lat="49.86661" lon="4.74865">
        <ele>279</ele>
        <time>2020-11-13T08:31:44.000Z</time>
      </trkpt>
      <trkpt lat="49.8666" lon="4.74862">
        <ele>279</ele>
        <time>2020-11-13T08:31:45.000Z</time>
      </trkpt>
      <trkpt lat="49.86659" lon="4.74859">
        <ele>279</ele>
        <time>2020-11-13T08:31:46.000Z</time>
      </trkpt>
      <trkpt lat="49.86658" lon="4.74857">
        <ele>279</ele>
        <time>2020-11-13T08:31:47.000Z</time>
      </trkpt>
      <trkpt lat="49.86656" lon="4.74854">
        <ele>279</ele>
        <time>2020-11-13T08:31:48.000Z</time>
      </trkpt>
      <trkpt lat="49.86655" lon="4.74852">
        <ele>279</ele>
        <time>2020-11-13T08:31:49.000Z</time>
      </trkpt>
      <trkpt lat="49.86654" lon="4.7485">
        <ele>279</ele>
        <time>2020-11-13T08:31:50.000Z</time>
      </trkpt>
      <trkpt lat="49.86652" lon="4.74848">
        <ele>279</ele>
        <time>2020-11-13T08:31:51.000Z</time>
      </trkpt>
      <trkpt lat="49.86651" lon="4.74846">
        <ele>279</ele>
        <time>2020-11-13T08:31:52.000Z</time>
      </trkpt>
      <trkpt lat="49.86649" lon="4.74844">
        <ele>279</ele>
        <time>2020-11-13T08:31:53.000Z</time>
      </trkpt>
      <trkpt lat="49.86647" lon="4.74842">
        <ele>279</ele>
        <time>2020-11-13T08:31:54.000Z</time>
      </trkpt>
      <trkpt lat="49.86646" lon="4.7484">
        <ele>279</ele>
        <time>2020-11-13T08:31:55.000Z</time>
      </trkpt>
      <trkpt lat="49.86644" lon="4.74838">
        <ele>279</ele>
        <time>2020-11-13T08:31:56.000Z</time>
      </trkpt>
      <trkpt lat="49.86642" lon="4.74835">
        <ele>279</ele>
        <time>2020-11-13T08:31:57.000Z</time>
      </trkpt>
      <trkpt lat="49.8664" lon="4.74833">
        <ele>279</ele>
        <time>2020-11-13T08:31:58.000Z</time>
      </trkpt>
      <trkpt lat="49.86639" lon="4.7483">
        <ele>279</ele>
        <time>2020-11-13T08:31:59.000Z</time>
      </trkpt>
      <trkpt lat="49.86637" lon="4.74828">
        <ele>279</ele>
        <time>2020-11-13T08:32:00.000Z</time>
      </trkpt>
      <trkpt lat="49.86635" lon="4.74826">
        <ele>279</ele>
        <time>2020-11-13T08:32:01.000Z</time>
      </trkpt>
      <trkpt lat="49.86633" lon="4.74823">
        <ele>279</ele>
        <time>2020-11-13T08:32:02.000Z</time>
      </trkpt>
      <trkpt lat="49.86631" lon="4.7482">
        <ele>279</ele>
        <time>2020-11-13T08:32:03.000Z</time>
      </trkpt>
      <trkpt lat="49.86629" lon="4.74818">
        <ele>279</ele>
        <time>2020-11-13T08:32:04.000Z</time>
      </trkpt>
      <trkpt lat="49.86628" lon="4.74817">
        <ele>279</ele>
        <time>2020-11-13T08:32:05.000Z</time>
      </trkpt>
      <trkpt lat="49.86627" lon="4.74816">
        <ele>279</ele>
        <time>2020-11-13T08:32:06.000Z</time>
      </trkpt>
      <trkpt lat="49.86626" lon="4.74815">
        <ele>279</ele>
        <time>2020-11-13T08:32:07.000Z</time>
      </trkpt>
      <trkpt lat="49.86626" lon="4.74815">
        <ele>279</ele>
        <time>2020-11-13T08:32:08.000Z</time>
      </trkpt>
      <trkpt lat="49.86626" lon="4.74814">
        <ele>279</ele>
        <time>2020-11-13T08:32:09.000Z</time>
      </trkpt>
      <trkpt lat="49.86626" lon="4.74814">
        <ele>279</ele>
        <time>2020-11-13T08:32:10.000Z</time>
      </trkpt>
      <trkpt lat="49.86625" lon="4.74813">
        <ele>279</ele>
        <time>2020-11-13T08:32:11.000Z</time>
      </trkpt>
      <trkpt lat="49.86625" lon="4.74812">
        <ele>279</ele>
        <time>2020-11-13T08:32:12.000Z</time>
      </trkpt>
      <trkpt lat="49.86625" lon="4.74812">
        <ele>279</ele>
        <time>2020-11-13T08:32:13.000Z</time>
      </trkpt>
      <trkpt lat="49.86624" lon="4.74812">
        <ele>280</ele>
        <time>2020-11-13T08:32:14.000Z</time>
      </trkpt>
      <trkpt lat="49.86624" lon="4.74812">
        <ele>280</ele>
        <time>2020-11-13T08:32:15.000Z</time>
      </trkpt>
      <trkpt lat="49.86622" lon="4.74811">
        <ele>280</ele>
        <time>2020-11-13T08:32:16.000Z</time>
      </trkpt>
      <trkpt lat="49.86621" lon="4.7481">
        <ele>280</ele>
        <time>2020-11-13T08:32:17.000Z</time>
      </trkpt>
      <trkpt lat="49.8662" lon="4.74808">
        <ele>280</ele>
        <time>2020-11-13T08:32:18.000Z</time>
      </trkpt>
      <trkpt lat="49.86619" lon="4.74806">
        <ele>280</ele>
        <time>2020-11-13T08:32:19.000Z</time>
      </trkpt>
      <trkpt lat="49.86618" lon="4.74804">
        <ele>280</ele>
        <time>2020-11-13T08:32:20.000Z</time>
      </trkpt>
      <trkpt lat="49.86617" lon="4.74801">
        <ele>281</ele>
        <time>2020-11-13T08:32:21.000Z</time>
      </trkpt>
      <trkpt lat="49.86616" lon="4.74799">
        <ele>281</ele>
        <time>2020-11-13T08:32:22.000Z</time>
      </trkpt>
      <trkpt lat="49.86615" lon="4.74796">
        <ele>281</ele>
        <time>2020-11-13T08:32:23.000Z</time>
      </trkpt>
      <trkpt lat="49.86614" lon="4.74793">
        <ele>281</ele>
        <time>2020-11-13T08:32:24.000Z</time>
      </trkpt>
      <trkpt lat="49.86614" lon="4.7479">
        <ele>281</ele>
        <time>2020-11-13T08:32:25.000Z</time>
      </trkpt>
      <trkpt lat="49.86613" lon="4.74786">
        <ele>281</ele>
        <time>2020-11-13T08:32:26.000Z</time>
      </trkpt>
      <trkpt lat="49.86611" lon="4.74783">
        <ele>281</ele>
        <time>2020-11-13T08:32:27.000Z</time>
      </trkpt>
      <trkpt lat="49.8661" lon="4.74779">
        <ele>281</ele>
        <time>2020-11-13T08:32:28.000Z</time>
      </trkpt>
      <trkpt lat="49.86609" lon="4.74776">
        <ele>281</ele>
        <time>2020-11-13T08:32:29.000Z</time>
      </trkpt>
      <trkpt lat="49.86608" lon="4.74772">
        <ele>281</ele>
        <time>2020-11-13T08:32:30.000Z</time>
      </trkpt>
      <trkpt lat="49.86607" lon="4.74769">
        <ele>281</ele>
        <time>2020-11-13T08:32:31.000Z</time>
      </trkpt>
      <trkpt lat="49.86606" lon="4.74766">
        <ele>281</ele>
        <time>2020-11-13T08:32:32.000Z</time>
      </trkpt>
      <trkpt lat="49.86605" lon="4.74762">
        <ele>281</ele>
        <time>2020-11-13T08:32:33.000Z</time>
      </trkpt>
      <trkpt lat="49.86604" lon="4.74758">
        <ele>281</ele>
        <time>2020-11-13T08:32:34.000Z</time>
      </trkpt>
      <trkpt lat="49.86603" lon="4.74754">
        <ele>281</ele>
        <time>2020-11-13T08:32:35.000Z</time>
      </trkpt>
      <trkpt lat="49.86603" lon="4.7475">
        <ele>281</ele>
        <time>2020-11-13T08:32:36.000Z</time>
      </trkpt>
      <trkpt lat="49.86602" lon="4.74746">
        <ele>281</ele>
        <time>2020-11-13T08:32:37.000Z</time>
      </trkpt>
      <trkpt lat="49.86601" lon="4.74741">
        <ele>281</ele>
        <time>2020-11-13T08:32:38.000Z</time>
      </trkpt>
      <trkpt lat="49.86601" lon="4.74737">
        <ele>281</ele>
        <time>2020-11-13T08:32:39.000Z</time>
      </trkpt>
      <trkpt lat="49.866" lon="4.74732">
        <ele>281</ele>
        <time>2020-11-13T08:32:40.000Z</time>
      </trkpt>
      <trkpt lat="49.86599" lon="4.74727">
        <ele>281</ele>
        <time>2020-11-13T08:32:41.000Z</time>
      </trkpt>
      <trkpt lat="49.86598" lon="4.74721">
        <ele>281</ele>
        <time>2020-11-13T08:32:42.000Z</time>
      </trkpt>
      <trkpt lat="49.86596" lon="4.74714">
        <ele>281</ele>
        <time>2020-11-13T08:32:43.000Z</time>
      </trkpt>
      <trkpt lat="49.86595" lon="4.74708">
        <ele>281</ele>
        <time>2020-11-13T08:32:44.000Z</time>
      </trkpt>
      <trkpt lat="49.86593" lon="4.747">
        <ele>281</ele>
        <time>2020-11-13T08:32:45.000Z</time>
      </trkpt>
      <trkpt lat="49.86591" lon="4.74693">
        <ele>281</ele>
        <time>2020-11-13T08:32:46.000Z</time>
      </trkpt>
      <trkpt lat="49.86589" lon="4.74685">
        <ele>281</ele>
        <time>2020-11-13T08:32:47.000Z</time>
      </trkpt>
      <trkpt lat="49.86586" lon="4.74678">
        <ele>281</ele>
        <time>2020-11-13T08:32:48.000Z</time>
      </trkpt>
      <trkpt lat="49.86584" lon="4.7467">
        <ele>281</ele>
        <time>2020-11-13T08:32:49.000Z</time>
      </trkpt>
      <trkpt lat="49.86582" lon="4.74662">
        <ele>281</ele>
        <time>2020-11-13T08:32:50.000Z</time>
      </trkpt>
      <trkpt lat="49.86581" lon="4.74654">
        <ele>281</ele>
        <time>2020-11-13T08:32:51.000Z</time>
      </trkpt>
      <trkpt lat="49.86579" lon="4.74646">
        <ele>281</ele>
        <time>2020-11-13T08:32:52.000Z</time>
      </trkpt>
      <trkpt lat="49.86577" lon="4.74637">
        <ele>280</ele>
        <time>2020-11-13T08:32:53.000Z</time>
      </trkpt>
      <trkpt lat="49.86576" lon="4.74629">
        <ele>280</ele>
        <time>2020-11-13T08:32:54.000Z</time>
      </trkpt>
      <trkpt lat="49.86574" lon="4.74622">
        <ele>280</ele>
        <time>2020-11-13T08:32:55.000Z</time>
      </trkpt>
      <trkpt lat="49.86571" lon="4.74614">
        <ele>280</ele>
        <time>2020-11-13T08:32:56.000Z</time>
      </trkpt>
      <trkpt lat="49.86568" lon="4.74607">
        <ele>280</ele>
        <time>2020-11-13T08:32:57.000Z</time>
      </trkpt>
      <trkpt lat="49.86565" lon="4.74601">
        <ele>279</ele>
        <time>2020-11-13T08:32:58.000Z</time>
      </trkpt>
      <trkpt lat="49.86561" lon="4.74595">
        <ele>279</ele>
        <time>2020-11-13T08:32:59.000Z</time>
      </trkpt>
      <trkpt lat="49.86558" lon="4.74589">
        <ele>279</ele>
        <time>2020-11-13T08:33:00.000Z</time>
      </trkpt>
      <trkpt lat="49.86555" lon="4.74583">
        <ele>279</ele>
        <time>2020-11-13T08:33:01.000Z</time>
      </trkpt>
      <trkpt lat="49.86553" lon="4.74578">
        <ele>278</ele>
        <time>2020-11-13T08:33:02.000Z</time>
      </trkpt>
      <trkpt lat="49.86551" lon="4.74574">
        <ele>278</ele>
        <time>2020-11-13T08:33:03.000Z</time>
      </trkpt>
      <trkpt lat="49.8655" lon="4.74571">
        <ele>278</ele>
        <time>2020-11-13T08:33:04.000Z</time>
      </trkpt>
      <trkpt lat="49.86549" lon="4.74567">
        <ele>278</ele>
        <time>2020-11-13T08:33:05.000Z</time>
      </trkpt>
      <trkpt lat="49.86547" lon="4.74565">
        <ele>278</ele>
        <time>2020-11-13T08:33:06.000Z</time>
      </trkpt>
      <trkpt lat="49.86547" lon="4.74563">
        <ele>277</ele>
        <time>2020-11-13T08:33:07.000Z</time>
      </trkpt>
      <trkpt lat="49.86548" lon="4.74561">
        <ele>277</ele>
        <time>2020-11-13T08:33:08.000Z</time>
      </trkpt>
      <trkpt lat="49.86548" lon="4.7456">
        <ele>277</ele>
        <time>2020-11-13T08:33:09.000Z</time>
      </trkpt>
      <trkpt lat="49.8655" lon="4.74559">
        <ele>277</ele>
        <time>2020-11-13T08:33:10.000Z</time>
      </trkpt>
      <trkpt lat="49.8655" lon="4.7456">
        <ele>277</ele>
        <time>2020-11-13T08:33:11.000Z</time>
      </trkpt>
      <trkpt lat="49.8655" lon="4.74561">
        <ele>276</ele>
        <time>2020-11-13T08:33:12.000Z</time>
      </trkpt>
      <trkpt lat="49.8655" lon="4.74563">
        <ele>276</ele>
        <time>2020-11-13T08:33:13.000Z</time>
      </trkpt>
      <trkpt lat="49.8655" lon="4.74565">
        <ele>276</ele>
        <time>2020-11-13T08:33:14.000Z</time>
      </trkpt>
      <trkpt lat="49.8655" lon="4.74565">
        <ele>276</ele>
        <time>2020-11-13T08:33:15.000Z</time>
      </trkpt>
      <trkpt lat="49.8655" lon="4.74565">
        <ele>276</ele>
        <time>2020-11-13T08:33:16.000Z</time>
      </trkpt>
      <trkpt lat="49.8655" lon="4.74564">
        <ele>275</ele>
        <time>2020-11-13T08:33:17.000Z</time>
      </trkpt>
      <trkpt lat="49.86551" lon="4.74563">
        <ele>275</ele>
        <time>2020-11-13T08:33:18.000Z</time>
      </trkpt>
      <trkpt lat="49.86551" lon="4.74562">
        <ele>275</ele>
        <time>2020-11-13T08:33:19.000Z</time>
      </trkpt>
      <trkpt lat="49.86552" lon="4.74562">
        <ele>275</ele>
        <time>2020-11-13T08:33:20.000Z</time>
      </trkpt>
      <trkpt lat="49.86552" lon="4.74561">
        <ele>275</ele>
        <time>2020-11-13T08:33:21.000Z</time>
      </trkpt>
      <trkpt lat="49.86553" lon="4.7456">
        <ele>275</ele>
        <time>2020-11-13T08:33:22.000Z</time>
      </trkpt>
      <trkpt lat="49.86554" lon="4.7456">
        <ele>275</ele>
        <time>2020-11-13T08:33:23.000Z</time>
      </trkpt>
      <trkpt lat="49.86555" lon="4.7456">
        <ele>275</ele>
        <time>2020-11-13T08:33:24.000Z</time>
      </trkpt>
      <trkpt lat="49.86556" lon="4.7456">
        <ele>275</ele>
        <time>2020-11-13T08:33:25.000Z</time>
      </trkpt>
      <trkpt lat="49.86556" lon="4.7456">
        <ele>275</ele>
        <time>2020-11-13T08:33:26.000Z</time>
      </trkpt>
      <trkpt lat="49.86556" lon="4.7456">
        <ele>276</ele>
        <time>2020-11-13T08:33:27.000Z</time>
      </trkpt>
      <trkpt lat="49.86557" lon="4.7456">
        <ele>276</ele>
        <time>2020-11-13T08:33:28.000Z</time>
      </trkpt>
      <trkpt lat="49.86558" lon="4.7456">
        <ele>276</ele>
        <time>2020-11-13T08:33:29.000Z</time>
      </trkpt>
      <trkpt lat="49.86558" lon="4.7456">
        <ele>276</ele>
        <time>2020-11-13T08:33:30.000Z</time>
      </trkpt>
      <trkpt lat="49.86558" lon="4.7456">
        <ele>276</ele>
        <time>2020-11-13T08:33:31.000Z</time>
      </trkpt>
      <trkpt lat="49.86558" lon="4.74559">
        <ele>276</ele>
        <time>2020-11-13T08:33:32.000Z</time>
      </trkpt>
      <trkpt lat="49.86559" lon="4.74559">
        <ele>276</ele>
        <time>2020-11-13T08:33:33.000Z</time>
      </trkpt>
      <trkpt lat="49.86559" lon="4.74559">
        <ele>276</ele>
        <time>2020-11-13T08:33:34.000Z</time>
      </trkpt>
      <trkpt lat="49.86559" lon="4.74559">
        <ele>276</ele>
        <time>2020-11-13T08:33:35.000Z</time>
      </trkpt>
      <trkpt lat="49.86559" lon="4.74559">
        <ele>276</ele>
        <time>2020-11-13T08:33:36.000Z</time>
      </trkpt>
      <trkpt lat="49.86559" lon="4.74559">
        <ele>276</ele>
        <time>2020-11-13T08:33:37.000Z</time>
      </trkpt>
      <trkpt lat="49.86559" lon="4.74559">
        <ele>276</ele>
        <time>2020-11-13T08:33:38.000Z</time>
      </trkpt>
      <trkpt lat="49.86559" lon="4.74558">
        <ele>276</ele>
        <time>2020-11-13T08:33:39.000Z</time>
      </trkpt>
      <trkpt lat="49.86559" lon="4.74558">
        <ele>276</ele>
        <time>2020-11-13T08:33:40.000Z</time>
      </trkpt>
      <trkpt lat="49.86559" lon="4.74558">
        <ele>276</ele>
        <time>2020-11-13T08:33:41.000Z</time>
      </trkpt>
      <trkpt lat="49.86559" lon="4.74558">
        <ele>276</ele>
        <time>2020-11-13T08:33:42.000Z</time>
      </trkpt>
      <trkpt lat="49.86559" lon="4.74558">
        <ele>276</ele>
        <time>2020-11-13T08:33:43.000Z</time>
      </trkpt>
      <trkpt lat="49.8656" lon="4.74559">
        <ele>276</ele>
        <time>2020-11-13T08:33:44.000Z</time>
      </trkpt>
      <trkpt lat="49.8656" lon="4.74559">
        <ele>276</ele>
        <time>2020-11-13T08:33:45.000Z</time>
      </trkpt>
      <trkpt lat="49.8656" lon="4.74559">
        <ele>276</ele>
        <time>2020-11-13T08:33:46.000Z</time>
      </trkpt>
      <trkpt lat="49.86561" lon="4.7456">
        <ele>276</ele>
        <time>2020-11-13T08:33:47.000Z</time>
      </trkpt>
      <trkpt lat="49.86562" lon="4.7456">
        <ele>276</ele>
        <time>2020-11-13T08:33:48.000Z</time>
      </trkpt>
      <trkpt lat="49.86563" lon="4.7456">
        <ele>276</ele>
        <time>2020-11-13T08:33:49.000Z</time>
      </trkpt>
      <trkpt lat="49.86563" lon="4.7456">
        <ele>276</ele>
        <time>2020-11-13T08:33:50.000Z</time>
      </trkpt>
      <trkpt lat="49.86563" lon="4.7456">
        <ele>276</ele>
        <time>2020-11-13T08:33:51.000Z</time>
      </trkpt>
      <trkpt lat="49.86563" lon="4.7456">
        <ele>276</ele>
        <time>2020-11-13T08:33:52.000Z</time>
      </trkpt>
      <trkpt lat="49.86563" lon="4.7456">
        <ele>276</ele>
        <time>2020-11-13T08:33:53.000Z</time>
      </trkpt>
      <trkpt lat="49.86563" lon="4.7456">
        <ele>276</ele>
        <time>2020-11-13T08:33:54.000Z</time>
      </trkpt>
      <trkpt lat="49.86563" lon="4.7456">
        <ele>276</ele>
        <time>2020-11-13T08:33:55.000Z</time>
      </trkpt>
      <trkpt lat="49.86564" lon="4.74561">
        <ele>276</ele>
        <time>2020-11-13T08:33:56.000Z</time>
      </trkpt>
      <trkpt lat="49.86565" lon="4.74561">
        <ele>276</ele>
        <time>2020-11-13T08:33:57.000Z</time>
      </trkpt>
      <trkpt lat="49.86565" lon="4.74562">
        <ele>276</ele>
        <time>2020-11-13T08:33:58.000Z</time>
      </trkpt>
      <trkpt lat="49.86566" lon="4.74562">
        <ele>276</ele>
        <time>2020-11-13T08:33:59.000Z</time>
      </trkpt>
      <trkpt lat="49.86567" lon="4.74563">
        <ele>276</ele>
        <time>2020-11-13T08:34:00.000Z</time>
      </trkpt>
      <trkpt lat="49.86568" lon="4.74564">
        <ele>276</ele>
        <time>2020-11-13T08:34:01.000Z</time>
      </trkpt>
      <trkpt lat="49.86568" lon="4.74565">
        <ele>276</ele>
        <time>2020-11-13T08:34:02.000Z</time>
      </trkpt>
      <trkpt lat="49.86568" lon="4.74565">
        <ele>276</ele>
        <time>2020-11-13T08:34:03.000Z</time>
      </trkpt>
      <trkpt lat="49.86569" lon="4.74565">
        <ele>276</ele>
        <time>2020-11-13T08:34:04.000Z</time>
      </trkpt>
      <trkpt lat="49.86569" lon="4.74566">
        <ele>276</ele>
        <time>2020-11-13T08:34:05.000Z</time>
      </trkpt>
      <trkpt lat="49.86569" lon="4.74566">
        <ele>276</ele>
        <time>2020-11-13T08:34:06.000Z</time>
      </trkpt>
      <trkpt lat="49.86569" lon="4.74568">
        <ele>276</ele>
        <time>2020-11-13T08:34:07.000Z</time>
      </trkpt>
      <trkpt lat="49.8657" lon="4.74569">
        <ele>276</ele>
        <time>2020-11-13T08:34:08.000Z</time>
      </trkpt>
      <trkpt lat="49.86571" lon="4.74571">
        <ele>276</ele>
        <time>2020-11-13T08:34:09.000Z</time>
      </trkpt>
      <trkpt lat="49.86572" lon="4.74573">
        <ele>276</ele>
        <time>2020-11-13T08:34:10.000Z</time>
      </trkpt>
      <trkpt lat="49.86573" lon="4.74574">
        <ele>276</ele>
        <time>2020-11-13T08:34:11.000Z</time>
      </trkpt>
      <trkpt lat="49.86574" lon="4.74576">
        <ele>276</ele>
        <time>2020-11-13T08:34:12.000Z</time>
      </trkpt>
      <trkpt lat="49.86575" lon="4.74578">
        <ele>276</ele>
        <time>2020-11-13T08:34:13.000Z</time>
      </trkpt>
      <trkpt lat="49.86577" lon="4.74579">
        <ele>276</ele>
        <time>2020-11-13T08:34:14.000Z</time>
      </trkpt>
      <trkpt lat="49.86578" lon="4.7458">
        <ele>276</ele>
        <time>2020-11-13T08:34:15.000Z</time>
      </trkpt>
      <trkpt lat="49.8658" lon="4.74582">
        <ele>276</ele>
        <time>2020-11-13T08:34:16.000Z</time>
      </trkpt>
      <trkpt lat="49.86581" lon="4.74584">
        <ele>276</ele>
        <time>2020-11-13T08:34:17.000Z</time>
      </trkpt>
      <trkpt lat="49.86582" lon="4.74586">
        <ele>276</ele>
        <time>2020-11-13T08:34:18.000Z</time>
      </trkpt>
      <trkpt lat="49.86582" lon="4.74588">
        <ele>276</ele>
        <time>2020-11-13T08:34:19.000Z</time>
      </trkpt>
      <trkpt lat="49.86583" lon="4.74591">
        <ele>276</ele>
        <time>2020-11-13T08:34:20.000Z</time>
      </trkpt>
      <trkpt lat="49.86583" lon="4.74593">
        <ele>276</ele>
        <time>2020-11-13T08:34:21.000Z</time>
      </trkpt>
      <trkpt lat="49.86584" lon="4.74594">
        <ele>276</ele>
        <time>2020-11-13T08:34:22.000Z</time>
      </trkpt>
      <trkpt lat="49.86585" lon="4.74596">
        <ele>276</ele>
        <time>2020-11-13T08:34:23.000Z</time>
      </trkpt>
      <trkpt lat="49.86587" lon="4.74598">
        <ele>276</ele>
        <time>2020-11-13T08:34:24.000Z</time>
      </trkpt>
      <trkpt lat="49.86588" lon="4.74599">
        <ele>276</ele>
        <time>2020-11-13T08:34:25.000Z</time>
      </trkpt>
      <trkpt lat="49.86589" lon="4.746">
        <ele>276</ele>
        <time>2020-11-13T08:34:26.000Z</time>
      </trkpt>
      <trkpt lat="49.86591" lon="4.74602">
        <ele>276</ele>
        <time>2020-11-13T08:34:27.000Z</time>
      </trkpt>
      <trkpt lat="49.86592" lon="4.74603">
        <ele>277</ele>
        <time>2020-11-13T08:34:28.000Z</time>
      </trkpt>
      <trkpt lat="49.86593" lon="4.74604">
        <ele>277</ele>
        <time>2020-11-13T08:34:29.000Z</time>
      </trkpt>
      <trkpt lat="49.86594" lon="4.74606">
        <ele>277</ele>
        <time>2020-11-13T08:34:30.000Z</time>
      </trkpt>
      <trkpt lat="49.86595" lon="4.74606">
        <ele>277</ele>
        <time>2020-11-13T08:34:31.000Z</time>
      </trkpt>
      <trkpt lat="49.86596" lon="4.74607">
        <ele>277</ele>
        <time>2020-11-13T08:34:32.000Z</time>
      </trkpt>
      <trkpt lat="49.86598" lon="4.74609">
        <ele>277</ele>
        <time>2020-11-13T08:34:33.000Z</time>
      </trkpt>
      <trkpt lat="49.86599" lon="4.74611">
        <ele>278</ele>
        <time>2020-11-13T08:34:34.000Z</time>
      </trkpt>
      <trkpt lat="49.866" lon="4.74613">
        <ele>278</ele>
        <time>2020-11-13T08:34:35.000Z</time>
      </trkpt>
      <trkpt lat="49.86602" lon="4.74615">
        <ele>278</ele>
        <time>2020-11-13T08:34:36.000Z</time>
      </trkpt>
      <trkpt lat="49.86603" lon="4.74617">
        <ele>278</ele>
        <time>2020-11-13T08:34:37.000Z</time>
      </trkpt>
      <trkpt lat="49.86604" lon="4.7462">
        <ele>279</ele>
        <time>2020-11-13T08:34:38.000Z</time>
      </trkpt>
      <trkpt lat="49.86604" lon="4.74622">
        <ele>279</ele>
        <time>2020-11-13T08:34:39.000Z</time>
      </trkpt>
      <trkpt lat="49.86605" lon="4.74624">
        <ele>279</ele>
        <time>2020-11-13T08:34:40.000Z</time>
      </trkpt>
      <trkpt lat="49.86606" lon="4.74627">
        <ele>279</ele>
        <time>2020-11-13T08:34:41.000Z</time>
      </trkpt>
      <trkpt lat="49.86606" lon="4.74629">
        <ele>279</ele>
        <time>2020-11-13T08:34:42.000Z</time>
      </trkpt>
      <trkpt lat="49.86607" lon="4.74631">
        <ele>279</ele>
        <time>2020-11-13T08:34:43.000Z</time>
      </trkpt>
      <trkpt lat="49.86608" lon="4.74633">
        <ele>279</ele>
        <time>2020-11-13T08:34:44.000Z</time>
      </trkpt>
      <trkpt lat="49.86609" lon="4.74635">
        <ele>280</ele>
        <time>2020-11-13T08:34:45.000Z</time>
      </trkpt>
      <trkpt lat="49.86609" lon="4.74637">
        <ele>280</ele>
        <time>2020-11-13T08:34:46.000Z</time>
      </trkpt>
      <trkpt lat="49.8661" lon="4.74638">
        <ele>280</ele>
        <time>2020-11-13T08:34:47.000Z</time>
      </trkpt>
      <trkpt lat="49.8661" lon="4.74639">
        <ele>280</ele>
        <time>2020-11-13T08:34:48.000Z</time>
      </trkpt>
      <trkpt lat="49.86611" lon="4.7464">
        <ele>280</ele>
        <time>2020-11-13T08:34:49.000Z</time>
      </trkpt>
      <trkpt lat="49.86612" lon="4.74642">
        <ele>280</ele>
        <time>2020-11-13T08:34:50.000Z</time>
      </trkpt>
      <trkpt lat="49.86612" lon="4.74642">
        <ele>281</ele>
        <time>2020-11-13T08:34:51.000Z</time>
      </trkpt>
      <trkpt lat="49.86613" lon="4.74644">
        <ele>281</ele>
        <time>2020-11-13T08:34:52.000Z</time>
      </trkpt>
      <trkpt lat="49.86614" lon="4.74645">
        <ele>281</ele>
        <time>2020-11-13T08:34:53.000Z</time>
      </trkpt>
      <trkpt lat="49.86615" lon="4.74647">
        <ele>281</ele>
        <time>2020-11-13T08:34:54.000Z</time>
      </trkpt>
      <trkpt lat="49.86616" lon="4.74649">
        <ele>281</ele>
        <time>2020-11-13T08:34:55.000Z</time>
      </trkpt>
      <trkpt lat="49.86617" lon="4.74651">
        <ele>281</ele>
        <time>2020-11-13T08:34:56.000Z</time>
      </trkpt>
      <trkpt lat="49.86618" lon="4.74653">
        <ele>282</ele>
        <time>2020-11-13T08:34:57.000Z</time>
      </trkpt>
      <trkpt lat="49.86619" lon="4.74655">
        <ele>282</ele>
        <time>2020-11-13T08:34:58.000Z</time>
      </trkpt>
      <trkpt lat="49.8662" lon="4.74656">
        <ele>282</ele>
        <time>2020-11-13T08:34:59.000Z</time>
      </trkpt>
      <trkpt lat="49.86621" lon="4.74658">
        <ele>282</ele>
        <time>2020-11-13T08:35:00.000Z</time>
      </trkpt>
      <trkpt lat="49.86622" lon="4.74661">
        <ele>282</ele>
        <time>2020-11-13T08:35:01.000Z</time>
      </trkpt>
      <trkpt lat="49.86623" lon="4.74663">
        <ele>282</ele>
        <time>2020-11-13T08:35:02.000Z</time>
      </trkpt>
      <trkpt lat="49.86625" lon="4.74665">
        <ele>283</ele>
        <time>2020-11-13T08:35:03.000Z</time>
      </trkpt>
      <trkpt lat="49.86626" lon="4.74666">
        <ele>283</ele>
        <time>2020-11-13T08:35:04.000Z</time>
      </trkpt>
      <trkpt lat="49.86627" lon="4.74668">
        <ele>283</ele>
        <time>2020-11-13T08:35:05.000Z</time>
      </trkpt>
      <trkpt lat="49.86628" lon="4.74669">
        <ele>283</ele>
        <time>2020-11-13T08:35:06.000Z</time>
      </trkpt>
      <trkpt lat="49.86629" lon="4.74671">
        <ele>283</ele>
        <time>2020-11-13T08:35:07.000Z</time>
      </trkpt>
      <trkpt lat="49.8663" lon="4.74674">
        <ele>283</ele>
        <time>2020-11-13T08:35:08.000Z</time>
      </trkpt>
      <trkpt lat="49.86632" lon="4.74676">
        <ele>284</ele>
        <time>2020-11-13T08:35:09.000Z</time>
      </trkpt>
      <trkpt lat="49.86633" lon="4.74678">
        <ele>284</ele>
        <time>2020-11-13T08:35:10.000Z</time>
      </trkpt>
      <trkpt lat="49.86634" lon="4.7468">
        <ele>284</ele>
        <time>2020-11-13T08:35:11.000Z</time>
      </trkpt>
      <trkpt lat="49.86634" lon="4.74682">
        <ele>284</ele>
        <time>2020-11-13T08:35:12.000Z</time>
      </trkpt>
      <trkpt lat="49.86634" lon="4.74685">
        <ele>284</ele>
        <time>2020-11-13T08:35:13.000Z</time>
      </trkpt>
      <trkpt lat="49.86635" lon="4.74687">
        <ele>284</ele>
        <time>2020-11-13T08:35:14.000Z</time>
      </trkpt>
      <trkpt lat="49.86636" lon="4.74689">
        <ele>285</ele>
        <time>2020-11-13T08:35:15.000Z</time>
      </trkpt>
      <trkpt lat="49.86638" lon="4.74691">
        <ele>285</ele>
        <time>2020-11-13T08:35:16.000Z</time>
      </trkpt>
      <trkpt lat="49.86638" lon="4.74692">
        <ele>285</ele>
        <time>2020-11-13T08:35:17.000Z</time>
      </trkpt>
      <trkpt lat="49.86639" lon="4.74694">
        <ele>285</ele>
        <time>2020-11-13T08:35:18.000Z</time>
      </trkpt>
      <trkpt lat="49.8664" lon="4.74696">
        <ele>285</ele>
        <time>2020-11-13T08:35:19.000Z</time>
      </trkpt>
      <trkpt lat="49.86641" lon="4.74698">
        <ele>285</ele>
        <time>2020-11-13T08:35:20.000Z</time>
      </trkpt>
      <trkpt lat="49.86642" lon="4.747">
        <ele>286</ele>
        <time>2020-11-13T08:35:21.000Z</time>
      </trkpt>
      <trkpt lat="49.86644" lon="4.74701">
        <ele>286</ele>
        <time>2020-11-13T08:35:22.000Z</time>
      </trkpt>
      <trkpt lat="49.86645" lon="4.74703">
        <ele>286</ele>
        <time>2020-11-13T08:35:23.000Z</time>
      </trkpt>
      <trkpt lat="49.86645" lon="4.74705">
        <ele>286</ele>
        <time>2020-11-13T08:35:24.000Z</time>
      </trkpt>
      <trkpt lat="49.86646" lon="4.74707">
        <ele>287</ele>
        <time>2020-11-13T08:35:25.000Z</time>
      </trkpt>
      <trkpt lat="49.86647" lon="4.74709">
        <ele>287</ele>
        <time>2020-11-13T08:35:26.000Z</time>
      </trkpt>
      <trkpt lat="49.86648" lon="4.7471">
        <ele>287</ele>
        <time>2020-11-13T08:35:27.000Z</time>
      </trkpt>
      <trkpt lat="49.86649" lon="4.74712">
        <ele>287</ele>
        <time>2020-11-13T08:35:28.000Z</time>
      </trkpt>
      <trkpt lat="49.8665" lon="4.74713">
        <ele>287</ele>
        <time>2020-11-13T08:35:29.000Z</time>
      </trkpt>
      <trkpt lat="49.86651" lon="4.74713">
        <ele>287</ele>
        <time>2020-11-13T08:35:30.000Z</time>
      </trkpt>
      <trkpt lat="49.86653" lon="4.74714">
        <ele>288</ele>
        <time>2020-11-13T08:35:31.000Z</time>
      </trkpt>
      <trkpt lat="49.86654" lon="4.74714">
        <ele>288</ele>
        <time>2020-11-13T08:35:32.000Z</time>
      </trkpt>
      <trkpt lat="49.86656" lon="4.74715">
        <ele>288</ele>
        <time>2020-11-13T08:35:33.000Z</time>
      </trkpt>
      <trkpt lat="49.86656" lon="4.74716">
        <ele>288</ele>
        <time>2020-11-13T08:35:34.000Z</time>
      </trkpt>
      <trkpt lat="49.86657" lon="4.74717">
        <ele>289</ele>
        <time>2020-11-13T08:35:35.000Z</time>
      </trkpt>
      <trkpt lat="49.86658" lon="4.74718">
        <ele>289</ele>
        <time>2020-11-13T08:35:36.000Z</time>
      </trkpt>
      <trkpt lat="49.8666" lon="4.74719">
        <ele>289</ele>
        <time>2020-11-13T08:35:37.000Z</time>
      </trkpt>
      <trkpt lat="49.86661" lon="4.7472">
        <ele>289</ele>
        <time>2020-11-13T08:35:38.000Z</time>
      </trkpt>
      <trkpt lat="49.86662" lon="4.74721">
        <ele>289</ele>
        <time>2020-11-13T08:35:39.000Z</time>
      </trkpt>
      <trkpt lat="49.86663" lon="4.74722">
        <ele>289</ele>
        <time>2020-11-13T08:35:40.000Z</time>
      </trkpt>
      <trkpt lat="49.86665" lon="4.74723">
        <ele>290</ele>
        <time>2020-11-13T08:35:41.000Z</time>
      </trkpt>
      <trkpt lat="49.86665" lon="4.74723">
        <ele>290</ele>
        <time>2020-11-13T08:35:42.000Z</time>
      </trkpt>
      <trkpt lat="49.86666" lon="4.74723">
        <ele>290</ele>
        <time>2020-11-13T08:35:43.000Z</time>
      </trkpt>
      <trkpt lat="49.86667" lon="4.74723">
        <ele>290</ele>
        <time>2020-11-13T08:35:44.000Z</time>
      </trkpt>
      <trkpt lat="49.86669" lon="4.74723">
        <ele>290</ele>
        <time>2020-11-13T08:35:45.000Z</time>
      </trkpt>
      <trkpt lat="49.86671" lon="4.74723">
        <ele>290</ele>
        <time>2020-11-13T08:35:46.000Z</time>
      </trkpt>
      <trkpt lat="49.86673" lon="4.74724">
        <ele>290</ele>
        <time>2020-11-13T08:35:47.000Z</time>
      </trkpt>
      <trkpt lat="49.86674" lon="4.74725">
        <ele>290</ele>
        <time>2020-11-13T08:35:48.000Z</time>
      </trkpt>
      <trkpt lat="49.86676" lon="4.74726">
        <ele>291</ele>
        <time>2020-11-13T08:35:49.000Z</time>
      </trkpt>
      <trkpt lat="49.86677" lon="4.74726">
        <ele>291</ele>
        <time>2020-11-13T08:35:50.000Z</time>
      </trkpt>
      <trkpt lat="49.86679" lon="4.74727">
        <ele>291</ele>
        <time>2020-11-13T08:35:51.000Z</time>
      </trkpt>
      <trkpt lat="49.8668" lon="4.74728">
        <ele>291</ele>
        <time>2020-11-13T08:35:52.000Z</time>
      </trkpt>
      <trkpt lat="49.86681" lon="4.74728">
        <ele>291</ele>
        <time>2020-11-13T08:35:53.000Z</time>
      </trkpt>
      <trkpt lat="49.86682" lon="4.74729">
        <ele>292</ele>
        <time>2020-11-13T08:35:54.000Z</time>
      </trkpt>
      <trkpt lat="49.86683" lon="4.7473">
        <ele>292</ele>
        <time>2020-11-13T08:35:55.000Z</time>
      </trkpt>
      <trkpt lat="49.86684" lon="4.74731">
        <ele>292</ele>
        <time>2020-11-13T08:35:56.000Z</time>
      </trkpt>
      <trkpt lat="49.86685" lon="4.74732">
        <ele>292</ele>
        <time>2020-11-13T08:35:57.000Z</time>
      </trkpt>
      <trkpt lat="49.86686" lon="4.74734">
        <ele>293</ele>
        <time>2020-11-13T08:35:58.000Z</time>
      </trkpt>
      <trkpt lat="49.86687" lon="4.74735">
        <ele>293</ele>
        <time>2020-11-13T08:35:59.000Z</time>
      </trkpt>
      <trkpt lat="49.86688" lon="4.74736">
        <ele>293</ele>
        <time>2020-11-13T08:36:00.000Z</time>
      </trkpt>
      <trkpt lat="49.86689" lon="4.74737">
        <ele>293</ele>
        <time>2020-11-13T08:36:01.000Z</time>
      </trkpt>
      <trkpt lat="49.8669" lon="4.74738">
        <ele>294</ele>
        <time>2020-11-13T08:36:02.000Z</time>
      </trkpt>
      <trkpt lat="49.86691" lon="4.74739">
        <ele>294</ele>
        <time>2020-11-13T08:36:03.000Z</time>
      </trkpt>
      <trkpt lat="49.86692" lon="4.7474">
        <ele>294</ele>
        <time>2020-11-13T08:36:04.000Z</time>
      </trkpt>
      <trkpt lat="49.86693" lon="4.74742">
        <ele>295</ele>
        <time>2020-11-13T08:36:05.000Z</time>
      </trkpt>
      <trkpt lat="49.86695" lon="4.74743">
        <ele>295</ele>
        <time>2020-11-13T08:36:06.000Z</time>
      </trkpt>
      <trkpt lat="49.86696" lon="4.74744">
        <ele>295</ele>
        <time>2020-11-13T08:36:07.000Z</time>
      </trkpt>
      <trkpt lat="49.86697" lon="4.74746">
        <ele>295</ele>
        <time>2020-11-13T08:36:08.000Z</time>
      </trkpt>
      <trkpt lat="49.86698" lon="4.74747">
        <ele>296</ele>
        <time>2020-11-13T08:36:09.000Z</time>
      </trkpt>
      <trkpt lat="49.86699" lon="4.74748">
        <ele>296</ele>
        <time>2020-11-13T08:36:10.000Z</time>
      </trkpt>
      <trkpt lat="49.867" lon="4.74749">
        <ele>296</ele>
        <time>2020-11-13T08:36:11.000Z</time>
      </trkpt>
      <trkpt lat="49.86701" lon="4.7475">
        <ele>296</ele>
        <time>2020-11-13T08:36:12.000Z</time>
      </trkpt>
      <trkpt lat="49.86702" lon="4.74752">
        <ele>297</ele>
        <time>2020-11-13T08:36:13.000Z</time>
      </trkpt>
      <trkpt lat="49.86703" lon="4.74753">
        <ele>297</ele>
        <time>2020-11-13T08:36:14.000Z</time>
      </trkpt>
      <trkpt lat="49.86704" lon="4.74755">
        <ele>297</ele>
        <time>2020-11-13T08:36:15.000Z</time>
      </trkpt>
      <trkpt lat="49.86705" lon="4.74757">
        <ele>297</ele>
        <time>2020-11-13T08:36:16.000Z</time>
      </trkpt>
      <trkpt lat="49.86706" lon="4.74758">
        <ele>297</ele>
        <time>2020-11-13T08:36:17.000Z</time>
      </trkpt>
      <trkpt lat="49.86707" lon="4.7476">
        <ele>298</ele>
        <time>2020-11-13T08:36:18.000Z</time>
      </trkpt>
      <trkpt lat="49.86709" lon="4.74762">
        <ele>298</ele>
        <time>2020-11-13T08:36:19.000Z</time>
      </trkpt>
      <trkpt lat="49.8671" lon="4.74764">
        <ele>298</ele>
        <time>2020-11-13T08:36:20.000Z</time>
      </trkpt>
      <trkpt lat="49.86712" lon="4.74765">
        <ele>298</ele>
        <time>2020-11-13T08:36:21.000Z</time>
      </trkpt>
      <trkpt lat="49.86713" lon="4.74768">
        <ele>298</ele>
        <time>2020-11-13T08:36:22.000Z</time>
      </trkpt>
      <trkpt lat="49.86715" lon="4.7477">
        <ele>299</ele>
        <time>2020-11-13T08:36:23.000Z</time>
      </trkpt>
      <trkpt lat="49.86717" lon="4.74772">
        <ele>299</ele>
        <time>2020-11-13T08:36:24.000Z</time>
      </trkpt>
      <trkpt lat="49.86719" lon="4.74774">
        <ele>299</ele>
        <time>2020-11-13T08:36:25.000Z</time>
      </trkpt>
      <trkpt lat="49.86721" lon="4.74775">
        <ele>299</ele>
        <time>2020-11-13T08:36:26.000Z</time>
      </trkpt>
      <trkpt lat="49.86722" lon="4.74777">
        <ele>299</ele>
        <time>2020-11-13T08:36:27.000Z</time>
      </trkpt>
      <trkpt lat="49.86724" lon="4.74778">
        <ele>300</ele>
        <time>2020-11-13T08:36:28.000Z</time>
      </trkpt>
      <trkpt lat="49.86726" lon="4.74779">
        <ele>300</ele>
        <time>2020-11-13T08:36:29.000Z</time>
      </trkpt>
      <trkpt lat="49.86728" lon="4.74781">
        <ele>300</ele>
        <time>2020-11-13T08:36:30.000Z</time>
      </trkpt>
      <trkpt lat="49.86731" lon="4.74782">
        <ele>300</ele>
        <time>2020-11-13T08:36:31.000Z</time>
      </trkpt>
      <trkpt lat="49.86734" lon="4.74784">
        <ele>300</ele>
        <time>2020-11-13T08:36:32.000Z</time>
      </trkpt>
      <trkpt lat="49.86736" lon="4.74787">
        <ele>300</ele>
        <time>2020-11-13T08:36:33.000Z</time>
      </trkpt>
      <trkpt lat="49.86739" lon="4.7479">
        <ele>300</ele>
        <time>2020-11-13T08:36:34.000Z</time>
      </trkpt>
      <trkpt lat="49.86741" lon="4.74792">
        <ele>300</ele>
        <time>2020-11-13T08:36:35.000Z</time>
      </trkpt>
      <trkpt lat="49.86741" lon="4.74793">
        <ele>300</ele>
        <time>2020-11-13T08:36:36.000Z</time>
      </trkpt>
      <trkpt lat="49.86741" lon="4.74794">
        <ele>300</ele>
        <time>2020-11-13T08:36:37.000Z</time>
      </trkpt>
      <trkpt lat="49.86742" lon="4.74794">
        <ele>300</ele>
        <time>2020-11-13T08:36:38.000Z</time>
      </trkpt>
      <trkpt lat="49.86742" lon="4.74794">
        <ele>300</ele>
        <time>2020-11-13T08:36:39.000Z</time>
      </trkpt>
      <trkpt lat="49.86742" lon="4.74794">
        <ele>300</ele>
        <time>2020-11-13T08:36:40.000Z</time>
      </trkpt>
      <trkpt lat="49.86742" lon="4.74793">
        <ele>300</ele>
        <time>2020-11-13T08:36:41.000Z</time>
      </trkpt>
      <trkpt lat="49.86741" lon="4.74792">
        <ele>300</ele>
        <time>2020-11-13T08:36:42.000Z</time>
      </trkpt>
      <trkpt lat="49.86741" lon="4.74791">
        <ele>300</ele>
        <time>2020-11-13T08:36:43.000Z</time>
      </trkpt>
      <trkpt lat="49.8674" lon="4.74791">
        <ele>300</ele>
        <time>2020-11-13T08:36:44.000Z</time>
      </trkpt>
      <trkpt lat="49.86739" lon="4.7479">
        <ele>300</ele>
        <time>2020-11-13T08:36:45.000Z</time>
      </trkpt>
      <trkpt lat="49.86739" lon="4.7479">
        <ele>300</ele>
        <time>2020-11-13T08:36:46.000Z</time>
      </trkpt>
      <trkpt lat="49.86739" lon="4.7479">
        <ele>300</ele>
        <time>2020-11-13T08:36:47.000Z</time>
      </trkpt>
      <trkpt lat="49.8674" lon="4.7479">
        <ele>300</ele>
        <time>2020-11-13T08:36:48.000Z</time>
      </trkpt>
      <trkpt lat="49.8674" lon="4.7479">
        <ele>300</ele>
        <time>2020-11-13T08:36:49.000Z</time>
      </trkpt>
      <trkpt lat="49.86739" lon="4.7479">
        <ele>300</ele>
        <time>2020-11-13T08:36:50.000Z</time>
      </trkpt>
      <trkpt lat="49.8674" lon="4.74791">
        <ele>300</ele>
        <time>2020-11-13T08:36:51.000Z</time>
      </trkpt>
      <trkpt lat="49.8674" lon="4.74791">
        <ele>300</ele>
        <time>2020-11-13T08:36:52.000Z</time>
      </trkpt>
      <trkpt lat="49.8674" lon="4.74791">
        <ele>300</ele>
        <time>2020-11-13T08:36:53.000Z</time>
      </trkpt>
      <trkpt lat="49.8674" lon="4.74791">
        <ele>300</ele>
        <time>2020-11-13T08:36:54.000Z</time>
      </trkpt>
      <trkpt lat="49.8674" lon="4.74791">
        <ele>301</ele>
        <time>2020-11-13T08:36:55.000Z</time>
      </trkpt>
      <trkpt lat="49.8674" lon="4.74792">
        <ele>301</ele>
        <time>2020-11-13T08:36:56.000Z</time>
      </trkpt>
      <trkpt lat="49.86741" lon="4.74792">
        <ele>301</ele>
        <time>2020-11-13T08:36:57.000Z</time>
      </trkpt>
      <trkpt lat="49.86742" lon="4.74793">
        <ele>301</ele>
        <time>2020-11-13T08:36:58.000Z</time>
      </trkpt>
      <trkpt lat="49.86743" lon="4.74795">
        <ele>301</ele>
        <time>2020-11-13T08:36:59.000Z</time>
      </trkpt>
      <trkpt lat="49.86745" lon="4.74798">
        <ele>301</ele>
        <time>2020-11-13T08:37:00.000Z</time>
      </trkpt>
      <trkpt lat="49.86746" lon="4.748">
        <ele>301</ele>
        <time>2020-11-13T08:37:01.000Z</time>
      </trkpt>
      <trkpt lat="49.86747" lon="4.74801">
        <ele>301</ele>
        <time>2020-11-13T08:37:02.000Z</time>
      </trkpt>
      <trkpt lat="49.86747" lon="4.74801">
        <ele>301</ele>
        <time>2020-11-13T08:37:03.000Z</time>
      </trkpt>
      <trkpt lat="49.86747" lon="4.74802">
        <ele>301</ele>
        <time>2020-11-13T08:37:04.000Z</time>
      </trkpt>
      <trkpt lat="49.86748" lon="4.74803">
        <ele>301</ele>
        <time>2020-11-13T08:37:05.000Z</time>
      </trkpt>
      <trkpt lat="49.86748" lon="4.74804">
        <ele>302</ele>
        <time>2020-11-13T08:37:06.000Z</time>
      </trkpt>
      <trkpt lat="49.86749" lon="4.74804">
        <ele>302</ele>
        <time>2020-11-13T08:37:07.000Z</time>
      </trkpt>
      <trkpt lat="49.8675" lon="4.74805">
        <ele>302</ele>
        <time>2020-11-13T08:37:08.000Z</time>
      </trkpt>
      <trkpt lat="49.8675" lon="4.74806">
        <ele>302</ele>
        <time>2020-11-13T08:37:09.000Z</time>
      </trkpt>
      <trkpt lat="49.86751" lon="4.74806">
        <ele>302</ele>
        <time>2020-11-13T08:37:10.000Z</time>
      </trkpt>
      <trkpt lat="49.86751" lon="4.74806">
        <ele>302</ele>
        <time>2020-11-13T08:37:11.000Z</time>
      </trkpt>
      <trkpt lat="49.86751" lon="4.74807">
        <ele>302</ele>
        <time>2020-11-13T08:37:12.000Z</time>
      </trkpt>
      <trkpt lat="49.86753" lon="4.74808">
        <ele>302</ele>
        <time>2020-11-13T08:37:13.000Z</time>
      </trkpt>
      <trkpt lat="49.86754" lon="4.74809">
        <ele>302</ele>
        <time>2020-11-13T08:37:14.000Z</time>
      </trkpt>
      <trkpt lat="49.86755" lon="4.7481">
        <ele>302</ele>
        <time>2020-11-13T08:37:15.000Z</time>
      </trkpt>
      <trkpt lat="49.86756" lon="4.74811">
        <ele>303</ele>
        <time>2020-11-13T08:37:16.000Z</time>
      </trkpt>
      <trkpt lat="49.86758" lon="4.74812">
        <ele>303</ele>
        <time>2020-11-13T08:37:17.000Z</time>
      </trkpt>
      <trkpt lat="49.86759" lon="4.74813">
        <ele>303</ele>
        <time>2020-11-13T08:37:18.000Z</time>
      </trkpt>
      <trkpt lat="49.86759" lon="4.74814">
        <ele>303</ele>
        <time>2020-11-13T08:37:19.000Z</time>
      </trkpt>
      <trkpt lat="49.8676" lon="4.74815">
        <ele>303</ele>
        <time>2020-11-13T08:37:20.000Z</time>
      </trkpt>
      <trkpt lat="49.86761" lon="4.74816">
        <ele>303</ele>
        <time>2020-11-13T08:37:21.000Z</time>
      </trkpt>
      <trkpt lat="49.86762" lon="4.74817">
        <ele>303</ele>
        <time>2020-11-13T08:37:22.000Z</time>
      </trkpt>
      <trkpt lat="49.86762" lon="4.74818">
        <ele>303</ele>
        <time>2020-11-13T08:37:23.000Z</time>
      </trkpt>
      <trkpt lat="49.86763" lon="4.74818">
        <ele>304</ele>
        <time>2020-11-13T08:37:24.000Z</time>
      </trkpt>
      <trkpt lat="49.86763" lon="4.74818">
        <ele>304</ele>
        <time>2020-11-13T08:37:25.000Z</time>
      </trkpt>
      <trkpt lat="49.86763" lon="4.74818">
        <ele>304</ele>
        <time>2020-11-13T08:37:26.000Z</time>
      </trkpt>
      <trkpt lat="49.86764" lon="4.74818">
        <ele>304</ele>
        <time>2020-11-13T08:37:27.000Z</time>
      </trkpt>
      <trkpt lat="49.86764" lon="4.74818">
        <ele>305</ele>
        <time>2020-11-13T08:37:28.000Z</time>
      </trkpt>
      <trkpt lat="49.86764" lon="4.74819">
        <ele>305</ele>
        <time>2020-11-13T08:37:29.000Z</time>
      </trkpt>
      <trkpt lat="49.86765" lon="4.7482">
        <ele>305</ele>
        <time>2020-11-13T08:37:30.000Z</time>
      </trkpt>
      <trkpt lat="49.86765" lon="4.74821">
        <ele>305</ele>
        <time>2020-11-13T08:37:31.000Z</time>
      </trkpt>
      <trkpt lat="49.86766" lon="4.74821">
        <ele>306</ele>
        <time>2020-11-13T08:37:32.000Z</time>
      </trkpt>
      <trkpt lat="49.86767" lon="4.74822">
        <ele>306</ele>
        <time>2020-11-13T08:37:33.000Z</time>
      </trkpt>
      <trkpt lat="49.86768" lon="4.74823">
        <ele>306</ele>
        <time>2020-11-13T08:37:34.000Z</time>
      </trkpt>
      <trkpt lat="49.86768" lon="4.74824">
        <ele>306</ele>
        <time>2020-11-13T08:37:35.000Z</time>
      </trkpt>
      <trkpt lat="49.86769" lon="4.74825">
        <ele>307</ele>
        <time>2020-11-13T08:37:36.000Z</time>
      </trkpt>
      <trkpt lat="49.8677" lon="4.74826">
        <ele>307</ele>
        <time>2020-11-13T08:37:37.000Z</time>
      </trkpt>
      <trkpt lat="49.86771" lon="4.74827">
        <ele>307</ele>
        <time>2020-11-13T08:37:38.000Z</time>
      </trkpt>
      <trkpt lat="49.86772" lon="4.74827">
        <ele>307</ele>
        <time>2020-11-13T08:37:39.000Z</time>
      </trkpt>
      <trkpt lat="49.86773" lon="4.74829">
        <ele>307</ele>
        <time>2020-11-13T08:37:40.000Z</time>
      </trkpt>
      <trkpt lat="49.86774" lon="4.7483">
        <ele>307</ele>
        <time>2020-11-13T08:37:41.000Z</time>
      </trkpt>
      <trkpt lat="49.86775" lon="4.74831">
        <ele>308</ele>
        <time>2020-11-13T08:37:42.000Z</time>
      </trkpt>
      <trkpt lat="49.86776" lon="4.74833">
        <ele>308</ele>
        <time>2020-11-13T08:37:43.000Z</time>
      </trkpt>
      <trkpt lat="49.86777" lon="4.74834">
        <ele>308</ele>
        <time>2020-11-13T08:37:44.000Z</time>
      </trkpt>
      <trkpt lat="49.86778" lon="4.74835">
        <ele>308</ele>
        <time>2020-11-13T08:37:45.000Z</time>
      </trkpt>
      <trkpt lat="49.86779" lon="4.74837">
        <ele>308</ele>
        <time>2020-11-13T08:37:46.000Z</time>
      </trkpt>
      <trkpt lat="49.8678" lon="4.74838">
        <ele>308</ele>
        <time>2020-11-13T08:37:47.000Z</time>
      </trkpt>
      <trkpt lat="49.8678" lon="4.74839">
        <ele>309</ele>
        <time>2020-11-13T08:37:48.000Z</time>
      </trkpt>
      <trkpt lat="49.86781" lon="4.74841">
        <ele>309</ele>
        <time>2020-11-13T08:37:49.000Z</time>
      </trkpt>
      <trkpt lat="49.86782" lon="4.74842">
        <ele>309</ele>
        <time>2020-11-13T08:37:50.000Z</time>
      </trkpt>
      <trkpt lat="49.86783" lon="4.74842">
        <ele>309</ele>
        <time>2020-11-13T08:37:51.000Z</time>
      </trkpt>
      <trkpt lat="49.86784" lon="4.74842">
        <ele>310</ele>
        <time>2020-11-13T08:37:52.000Z</time>
      </trkpt>
      <trkpt lat="49.86785" lon="4.74843">
        <ele>310</ele>
        <time>2020-11-13T08:37:53.000Z</time>
      </trkpt>
      <trkpt lat="49.86786" lon="4.74843">
        <ele>310</ele>
        <time>2020-11-13T08:37:54.000Z</time>
      </trkpt>
      <trkpt lat="49.86788" lon="4.74844">
        <ele>310</ele>
        <time>2020-11-13T08:37:55.000Z</time>
      </trkpt>
      <trkpt lat="49.86789" lon="4.74846">
        <ele>311</ele>
        <time>2020-11-13T08:37:56.000Z</time>
      </trkpt>
      <trkpt lat="49.8679" lon="4.74847">
        <ele>311</ele>
        <time>2020-11-13T08:37:57.000Z</time>
      </trkpt>
      <trkpt lat="49.86791" lon="4.74849">
        <ele>311</ele>
        <time>2020-11-13T08:37:58.000Z</time>
      </trkpt>
      <trkpt lat="49.86793" lon="4.74851">
        <ele>311</ele>
        <time>2020-11-13T08:37:59.000Z</time>
      </trkpt>
      <trkpt lat="49.86794" lon="4.74853">
        <ele>311</ele>
        <time>2020-11-13T08:38:00.000Z</time>
      </trkpt>
      <trkpt lat="49.86794" lon="4.74854">
        <ele>311</ele>
        <time>2020-11-13T08:38:01.000Z</time>
      </trkpt>
      <trkpt lat="49.86795" lon="4.74855">
        <ele>312</ele>
        <time>2020-11-13T08:38:02.000Z</time>
      </trkpt>
      <trkpt lat="49.86796" lon="4.74857">
        <ele>312</ele>
        <time>2020-11-13T08:38:03.000Z</time>
      </trkpt>
      <trkpt lat="49.86797" lon="4.74858">
        <ele>312</ele>
        <time>2020-11-13T08:38:04.000Z</time>
      </trkpt>
      <trkpt lat="49.86798" lon="4.7486">
        <ele>312</ele>
        <time>2020-11-13T08:38:05.000Z</time>
      </trkpt>
      <trkpt lat="49.86799" lon="4.74861">
        <ele>312</ele>
        <time>2020-11-13T08:38:06.000Z</time>
      </trkpt>
      <trkpt lat="49.868" lon="4.74863">
        <ele>313</ele>
        <time>2020-11-13T08:38:07.000Z</time>
      </trkpt>
      <trkpt lat="49.868" lon="4.74864">
        <ele>313</ele>
        <time>2020-11-13T08:38:08.000Z</time>
      </trkpt>
      <trkpt lat="49.86801" lon="4.74866">
        <ele>314</ele>
        <time>2020-11-13T08:38:09.000Z</time>
      </trkpt>
      <trkpt lat="49.86802" lon="4.74868">
        <ele>314</ele>
        <time>2020-11-13T08:38:10.000Z</time>
      </trkpt>
      <trkpt lat="49.86802" lon="4.7487">
        <ele>314</ele>
        <time>2020-11-13T08:38:11.000Z</time>
      </trkpt>
      <trkpt lat="49.86803" lon="4.74872">
        <ele>315</ele>
        <time>2020-11-13T08:38:12.000Z</time>
      </trkpt>
      <trkpt lat="49.86803" lon="4.74874">
        <ele>315</ele>
        <time>2020-11-13T08:38:13.000Z</time>
      </trkpt>
      <trkpt lat="49.86804" lon="4.74875">
        <ele>315</ele>
        <time>2020-11-13T08:38:14.000Z</time>
      </trkpt>
      <trkpt lat="49.86805" lon="4.74877">
        <ele>315</ele>
        <time>2020-11-13T08:38:15.000Z</time>
      </trkpt>
      <trkpt lat="49.86806" lon="4.74878">
        <ele>316</ele>
        <time>2020-11-13T08:38:16.000Z</time>
      </trkpt>
      <trkpt lat="49.86807" lon="4.74879">
        <ele>316</ele>
        <time>2020-11-13T08:38:17.000Z</time>
      </trkpt>
      <trkpt lat="49.86808" lon="4.7488">
        <ele>317</ele>
        <time>2020-11-13T08:38:18.000Z</time>
      </trkpt>
      <trkpt lat="49.86809" lon="4.74882">
        <ele>317</ele>
        <time>2020-11-13T08:38:19.000Z</time>
      </trkpt>
      <trkpt lat="49.8681" lon="4.74883">
        <ele>317</ele>
        <time>2020-11-13T08:38:20.000Z</time>
      </trkpt>
      <trkpt lat="49.86811" lon="4.74883">
        <ele>318</ele>
        <time>2020-11-13T08:38:21.000Z</time>
      </trkpt>
      <trkpt lat="49.86813" lon="4.74884">
        <ele>318</ele>
        <time>2020-11-13T08:38:22.000Z</time>
      </trkpt>
      <trkpt lat="49.86814" lon="4.74885">
        <ele>318</ele>
        <time>2020-11-13T08:38:23.000Z</time>
      </trkpt>
      <trkpt lat="49.86816" lon="4.74886">
        <ele>318</ele>
        <time>2020-11-13T08:38:24.000Z</time>
      </trkpt>
      <trkpt lat="49.86818" lon="4.74886">
        <ele>319</ele>
        <time>2020-11-13T08:38:25.000Z</time>
      </trkpt>
      <trkpt lat="49.86819" lon="4.74888">
        <ele>319</ele>
        <time>2020-11-13T08:38:26.000Z</time>
      </trkpt>
      <trkpt lat="49.86821" lon="4.74889">
        <ele>319</ele>
        <time>2020-11-13T08:38:27.000Z</time>
      </trkpt>
      <trkpt lat="49.86823" lon="4.74891">
        <ele>319</ele>
        <time>2020-11-13T08:38:28.000Z</time>
      </trkpt>
      <trkpt lat="49.86824" lon="4.74892">
        <ele>320</ele>
        <time>2020-11-13T08:38:29.000Z</time>
      </trkpt>
      <trkpt lat="49.86825" lon="4.74892">
        <ele>320</ele>
        <time>2020-11-13T08:38:30.000Z</time>
      </trkpt>
      <trkpt lat="49.86827" lon="4.74894">
        <ele>320</ele>
        <time>2020-11-13T08:38:31.000Z</time>
      </trkpt>
      <trkpt lat="49.86827" lon="4.74894">
        <ele>320</ele>
        <time>2020-11-13T08:38:32.000Z</time>
      </trkpt>
      <trkpt lat="49.86828" lon="4.74895">
        <ele>321</ele>
        <time>2020-11-13T08:38:33.000Z</time>
      </trkpt>
      <trkpt lat="49.86829" lon="4.74896">
        <ele>321</ele>
        <time>2020-11-13T08:38:34.000Z</time>
      </trkpt>
      <trkpt lat="49.8683" lon="4.74897">
        <ele>321</ele>
        <time>2020-11-13T08:38:35.000Z</time>
      </trkpt>
      <trkpt lat="49.86831" lon="4.74898">
        <ele>321</ele>
        <time>2020-11-13T08:38:36.000Z</time>
      </trkpt>
      <trkpt lat="49.86833" lon="4.74899">
        <ele>321</ele>
        <time>2020-11-13T08:38:37.000Z</time>
      </trkpt>
      <trkpt lat="49.86834" lon="4.74901">
        <ele>322</ele>
        <time>2020-11-13T08:38:38.000Z</time>
      </trkpt>
      <trkpt lat="49.86836" lon="4.74902">
        <ele>322</ele>
        <time>2020-11-13T08:38:39.000Z</time>
      </trkpt>
      <trkpt lat="49.86837" lon="4.74904">
        <ele>322</ele>
        <time>2020-11-13T08:38:40.000Z</time>
      </trkpt>
      <trkpt lat="49.86839" lon="4.74905">
        <ele>322</ele>
        <time>2020-11-13T08:38:41.000Z</time>
      </trkpt>
      <trkpt lat="49.8684" lon="4.74907">
        <ele>322</ele>
        <time>2020-11-13T08:38:42.000Z</time>
      </trkpt>
      <trkpt lat="49.86842" lon="4.74909">
        <ele>323</ele>
        <time>2020-11-13T08:38:43.000Z</time>
      </trkpt>
      <trkpt lat="49.86843" lon="4.74911">
        <ele>323</ele>
        <time>2020-11-13T08:38:44.000Z</time>
      </trkpt>
      <trkpt lat="49.86844" lon="4.74913">
        <ele>323</ele>
        <time>2020-11-13T08:38:45.000Z</time>
      </trkpt>
      <trkpt lat="49.86845" lon="4.74915">
        <ele>323</ele>
        <time>2020-11-13T08:38:46.000Z</time>
      </trkpt>
      <trkpt lat="49.86846" lon="4.74918">
        <ele>323</ele>
        <time>2020-11-13T08:38:47.000Z</time>
      </trkpt>
      <trkpt lat="49.86847" lon="4.7492">
        <ele>323</ele>
        <time>2020-11-13T08:38:48.000Z</time>
      </trkpt>
      <trkpt lat="49.86848" lon="4.74922">
        <ele>323</ele>
        <time>2020-11-13T08:38:49.000Z</time>
      </trkpt>
      <trkpt lat="49.86849" lon="4.74924">
        <ele>323</ele>
        <time>2020-11-13T08:38:50.000Z</time>
      </trkpt>
      <trkpt lat="49.86849" lon="4.74926">
        <ele>323</ele>
        <time>2020-11-13T08:38:51.000Z</time>
      </trkpt>
      <trkpt lat="49.8685" lon="4.74927">
        <ele>323</ele>
        <time>2020-11-13T08:38:52.000Z</time>
      </trkpt>
      <trkpt lat="49.86851" lon="4.74929">
        <ele>323</ele>
        <time>2020-11-13T08:38:53.000Z</time>
      </trkpt>
      <trkpt lat="49.86852" lon="4.74931">
        <ele>323</ele>
        <time>2020-11-13T08:38:54.000Z</time>
      </trkpt>
      <trkpt lat="49.86853" lon="4.74932">
        <ele>323</ele>
        <time>2020-11-13T08:38:55.000Z</time>
      </trkpt>
      <trkpt lat="49.86854" lon="4.74933">
        <ele>324</ele>
        <time>2020-11-13T08:38:56.000Z</time>
      </trkpt>
      <trkpt lat="49.86856" lon="4.74934">
        <ele>324</ele>
        <time>2020-11-13T08:38:57.000Z</time>
      </trkpt>
      <trkpt lat="49.86857" lon="4.74936">
        <ele>324</ele>
        <time>2020-11-13T08:38:58.000Z</time>
      </trkpt>
      <trkpt lat="49.86858" lon="4.74938">
        <ele>324</ele>
        <time>2020-11-13T08:38:59.000Z</time>
      </trkpt>
      <trkpt lat="49.86859" lon="4.7494">
        <ele>325</ele>
        <time>2020-11-13T08:39:00.000Z</time>
      </trkpt>
      <trkpt lat="49.86859" lon="4.74943">
        <ele>325</ele>
        <time>2020-11-13T08:39:01.000Z</time>
      </trkpt>
      <trkpt lat="49.8686" lon="4.74944">
        <ele>325</ele>
        <time>2020-11-13T08:39:02.000Z</time>
      </trkpt>
      <trkpt lat="49.8686" lon="4.74946">
        <ele>325</ele>
        <time>2020-11-13T08:39:03.000Z</time>
      </trkpt>
      <trkpt lat="49.86861" lon="4.74948">
        <ele>326</ele>
        <time>2020-11-13T08:39:04.000Z</time>
      </trkpt>
      <trkpt lat="49.86862" lon="4.7495">
        <ele>326</ele>
        <time>2020-11-13T08:39:05.000Z</time>
      </trkpt>
      <trkpt lat="49.86863" lon="4.74951">
        <ele>326</ele>
        <time>2020-11-13T08:39:06.000Z</time>
      </trkpt>
      <trkpt lat="49.86863" lon="4.74953">
        <ele>326</ele>
        <time>2020-11-13T08:39:07.000Z</time>
      </trkpt>
      <trkpt lat="49.86864" lon="4.74954">
        <ele>327</ele>
        <time>2020-11-13T08:39:08.000Z</time>
      </trkpt>
      <trkpt lat="49.86864" lon="4.74956">
        <ele>327</ele>
        <time>2020-11-13T08:39:09.000Z</time>
      </trkpt>
      <trkpt lat="49.86864" lon="4.74957">
        <ele>327</ele>
        <time>2020-11-13T08:39:10.000Z</time>
      </trkpt>
      <trkpt lat="49.86864" lon="4.74959">
        <ele>328</ele>
        <time>2020-11-13T08:39:11.000Z</time>
      </trkpt>
      <trkpt lat="49.86864" lon="4.74961">
        <ele>328</ele>
        <time>2020-11-13T08:39:12.000Z</time>
      </trkpt>
      <trkpt lat="49.86864" lon="4.74963">
        <ele>328</ele>
        <time>2020-11-13T08:39:13.000Z</time>
      </trkpt>
      <trkpt lat="49.86864" lon="4.74965">
        <ele>328</ele>
        <time>2020-11-13T08:39:14.000Z</time>
      </trkpt>
      <trkpt lat="49.86864" lon="4.74967">
        <ele>329</ele>
        <time>2020-11-13T08:39:15.000Z</time>
      </trkpt>
      <trkpt lat="49.86864" lon="4.74969">
        <ele>329</ele>
        <time>2020-11-13T08:39:16.000Z</time>
      </trkpt>
      <trkpt lat="49.86864" lon="4.7497">
        <ele>329</ele>
        <time>2020-11-13T08:39:17.000Z</time>
      </trkpt>
      <trkpt lat="49.86864" lon="4.74972">
        <ele>330</ele>
        <time>2020-11-13T08:39:18.000Z</time>
      </trkpt>
      <trkpt lat="49.86863" lon="4.74975">
        <ele>330</ele>
        <time>2020-11-13T08:39:19.000Z</time>
      </trkpt>
      <trkpt lat="49.86863" lon="4.74977">
        <ele>330</ele>
        <time>2020-11-13T08:39:20.000Z</time>
      </trkpt>
      <trkpt lat="49.86863" lon="4.74979">
        <ele>330</ele>
        <time>2020-11-13T08:39:21.000Z</time>
      </trkpt>
      <trkpt lat="49.86864" lon="4.74981">
        <ele>330</ele>
        <time>2020-11-13T08:39:22.000Z</time>
      </trkpt>
      <trkpt lat="49.86864" lon="4.74983">
        <ele>331</ele>
        <time>2020-11-13T08:39:23.000Z</time>
      </trkpt>
      <trkpt lat="49.86865" lon="4.74985">
        <ele>331</ele>
        <time>2020-11-13T08:39:24.000Z</time>
      </trkpt>
      <trkpt lat="49.86866" lon="4.74986">
        <ele>331</ele>
        <time>2020-11-13T08:39:25.000Z</time>
      </trkpt>
      <trkpt lat="49.86866" lon="4.74988">
        <ele>331</ele>
        <time>2020-11-13T08:39:26.000Z</time>
      </trkpt>
      <trkpt lat="49.86867" lon="4.74989">
        <ele>331</ele>
        <time>2020-11-13T08:39:27.000Z</time>
      </trkpt>
      <trkpt lat="49.86868" lon="4.74991">
        <ele>332</ele>
        <time>2020-11-13T08:39:28.000Z</time>
      </trkpt>
      <trkpt lat="49.86869" lon="4.74993">
        <ele>332</ele>
        <time>2020-11-13T08:39:29.000Z</time>
      </trkpt>
      <trkpt lat="49.8687" lon="4.74994">
        <ele>332</ele>
        <time>2020-11-13T08:39:30.000Z</time>
      </trkpt>
      <trkpt lat="49.86871" lon="4.74996">
        <ele>332</ele>
        <time>2020-11-13T08:39:31.000Z</time>
      </trkpt>
      <trkpt lat="49.86872" lon="4.74997">
        <ele>332</ele>
        <time>2020-11-13T08:39:32.000Z</time>
      </trkpt>
      <trkpt lat="49.86873" lon="4.74999">
        <ele>332</ele>
        <time>2020-11-13T08:39:33.000Z</time>
      </trkpt>
      <trkpt lat="49.86873" lon="4.75001">
        <ele>333</ele>
        <time>2020-11-13T08:39:34.000Z</time>
      </trkpt>
      <trkpt lat="49.86874" lon="4.75003">
        <ele>333</ele>
        <time>2020-11-13T08:39:35.000Z</time>
      </trkpt>
      <trkpt lat="49.86875" lon="4.75005">
        <ele>333</ele>
        <time>2020-11-13T08:39:36.000Z</time>
      </trkpt>
      <trkpt lat="49.86876" lon="4.75007">
        <ele>333</ele>
        <time>2020-11-13T08:39:37.000Z</time>
      </trkpt>
      <trkpt lat="49.86876" lon="4.75009">
        <ele>333</ele>
        <time>2020-11-13T08:39:38.000Z</time>
      </trkpt>
      <trkpt lat="49.86877" lon="4.75011">
        <ele>333</ele>
        <time>2020-11-13T08:39:39.000Z</time>
      </trkpt>
      <trkpt lat="49.86878" lon="4.75012">
        <ele>334</ele>
        <time>2020-11-13T08:39:40.000Z</time>
      </trkpt>
      <trkpt lat="49.86879" lon="4.75015">
        <ele>334</ele>
        <time>2020-11-13T08:39:41.000Z</time>
      </trkpt>
      <trkpt lat="49.86879" lon="4.75017">
        <ele>334</ele>
        <time>2020-11-13T08:39:42.000Z</time>
      </trkpt>
      <trkpt lat="49.8688" lon="4.75019">
        <ele>334</ele>
        <time>2020-11-13T08:39:43.000Z</time>
      </trkpt>
      <trkpt lat="49.86881" lon="4.75021">
        <ele>334</ele>
        <time>2020-11-13T08:39:44.000Z</time>
      </trkpt>
      <trkpt lat="49.86882" lon="4.75022">
        <ele>334</ele>
        <time>2020-11-13T08:39:45.000Z</time>
      </trkpt>
      <trkpt lat="49.86883" lon="4.75023">
        <ele>334</ele>
        <time>2020-11-13T08:39:46.000Z</time>
      </trkpt>
      <trkpt lat="49.86884" lon="4.75024">
        <ele>334</ele>
        <time>2020-11-13T08:39:47.000Z</time>
      </trkpt>
      <trkpt lat="49.86885" lon="4.75026">
        <ele>335</ele>
        <time>2020-11-13T08:39:48.000Z</time>
      </trkpt>
      <trkpt lat="49.86887" lon="4.75027">
        <ele>335</ele>
        <time>2020-11-13T08:39:49.000Z</time>
      </trkpt>
      <trkpt lat="49.86888" lon="4.75028">
        <ele>335</ele>
        <time>2020-11-13T08:39:50.000Z</time>
      </trkpt>
      <trkpt lat="49.86889" lon="4.75029">
        <ele>335</ele>
        <time>2020-11-13T08:39:51.000Z</time>
      </trkpt>
      <trkpt lat="49.8689" lon="4.7503">
        <ele>335</ele>
        <time>2020-11-13T08:39:52.000Z</time>
      </trkpt>
      <trkpt lat="49.86891" lon="4.75031">
        <ele>335</ele>
        <time>2020-11-13T08:39:53.000Z</time>
      </trkpt>
      <trkpt lat="49.86891" lon="4.75031">
        <ele>335</ele>
        <time>2020-11-13T08:39:54.000Z</time>
      </trkpt>
      <trkpt lat="49.86893" lon="4.75032">
        <ele>335</ele>
        <time>2020-11-13T08:39:55.000Z</time>
      </trkpt>
      <trkpt lat="49.86894" lon="4.75033">
        <ele>336</ele>
        <time>2020-11-13T08:39:56.000Z</time>
      </trkpt>
      <trkpt lat="49.86895" lon="4.75034">
        <ele>336</ele>
        <time>2020-11-13T08:39:57.000Z</time>
      </trkpt>
      <trkpt lat="49.86895" lon="4.75035">
        <ele>336</ele>
        <time>2020-11-13T08:39:58.000Z</time>
      </trkpt>
      <trkpt lat="49.86896" lon="4.75036">
        <ele>336</ele>
        <time>2020-11-13T08:39:59.000Z</time>
      </trkpt>
      <trkpt lat="49.86897" lon="4.75037">
        <ele>336</ele>
        <time>2020-11-13T08:40:00.000Z</time>
      </trkpt>
      <trkpt lat="49.86898" lon="4.75039">
        <ele>336</ele>
        <time>2020-11-13T08:40:01.000Z</time>
      </trkpt>
      <trkpt lat="49.86899" lon="4.7504">
        <ele>337</ele>
        <time>2020-11-13T08:40:02.000Z</time>
      </trkpt>
      <trkpt lat="49.869" lon="4.7504">
        <ele>337</ele>
        <time>2020-11-13T08:40:03.000Z</time>
      </trkpt>
      <trkpt lat="49.86901" lon="4.75041">
        <ele>337</ele>
        <time>2020-11-13T08:40:04.000Z</time>
      </trkpt>
      <trkpt lat="49.86902" lon="4.75042">
        <ele>338</ele>
        <time>2020-11-13T08:40:05.000Z</time>
      </trkpt>
      <trkpt lat="49.86903" lon="4.75043">
        <ele>338</ele>
        <time>2020-11-13T08:40:06.000Z</time>
      </trkpt>
      <trkpt lat="49.86904" lon="4.75045">
        <ele>338</ele>
        <time>2020-11-13T08:40:07.000Z</time>
      </trkpt>
      <trkpt lat="49.86905" lon="4.75046">
        <ele>338</ele>
        <time>2020-11-13T08:40:08.000Z</time>
      </trkpt>
      <trkpt lat="49.86906" lon="4.75048">
        <ele>339</ele>
        <time>2020-11-13T08:40:09.000Z</time>
      </trkpt>
      <trkpt lat="49.86907" lon="4.75049">
        <ele>339</ele>
        <time>2020-11-13T08:40:10.000Z</time>
      </trkpt>
      <trkpt lat="49.86908" lon="4.7505">
        <ele>339</ele>
        <time>2020-11-13T08:40:11.000Z</time>
      </trkpt>
      <trkpt lat="49.86909" lon="4.7505">
        <ele>340</ele>
        <time>2020-11-13T08:40:12.000Z</time>
      </trkpt>
      <trkpt lat="49.86911" lon="4.75051">
        <ele>340</ele>
        <time>2020-11-13T08:40:13.000Z</time>
      </trkpt>
      <trkpt lat="49.86912" lon="4.75051">
        <ele>340</ele>
        <time>2020-11-13T08:40:14.000Z</time>
      </trkpt>
      <trkpt lat="49.86913" lon="4.75052">
        <ele>340</ele>
        <time>2020-11-13T08:40:15.000Z</time>
      </trkpt>
      <trkpt lat="49.86914" lon="4.75053">
        <ele>340</ele>
        <time>2020-11-13T08:40:16.000Z</time>
      </trkpt>
      <trkpt lat="49.86915" lon="4.75054">
        <ele>341</ele>
        <time>2020-11-13T08:40:17.000Z</time>
      </trkpt>
      <trkpt lat="49.86917" lon="4.75055">
        <ele>341</ele>
        <time>2020-11-13T08:40:18.000Z</time>
      </trkpt>
      <trkpt lat="49.86918" lon="4.75057">
        <ele>341</ele>
        <time>2020-11-13T08:40:19.000Z</time>
      </trkpt>
      <trkpt lat="49.86919" lon="4.75058">
        <ele>341</ele>
        <time>2020-11-13T08:40:20.000Z</time>
      </trkpt>
      <trkpt lat="49.86921" lon="4.75059">
        <ele>342</ele>
        <time>2020-11-13T08:40:21.000Z</time>
      </trkpt>
      <trkpt lat="49.86922" lon="4.75061">
        <ele>342</ele>
        <time>2020-11-13T08:40:22.000Z</time>
      </trkpt>
      <trkpt lat="49.86923" lon="4.75062">
        <ele>342</ele>
        <time>2020-11-13T08:40:23.000Z</time>
      </trkpt>
      <trkpt lat="49.86924" lon="4.75063">
        <ele>343</ele>
        <time>2020-11-13T08:40:24.000Z</time>
      </trkpt>
      <trkpt lat="49.86925" lon="4.75064">
        <ele>343</ele>
        <time>2020-11-13T08:40:25.000Z</time>
      </trkpt>
      <trkpt lat="49.86927" lon="4.75066">
        <ele>343</ele>
        <time>2020-11-13T08:40:26.000Z</time>
      </trkpt>
      <trkpt lat="49.86928" lon="4.75067">
        <ele>343</ele>
        <time>2020-11-13T08:40:27.000Z</time>
      </trkpt>
      <trkpt lat="49.86929" lon="4.75069">
        <ele>344</ele>
        <time>2020-11-13T08:40:28.000Z</time>
      </trkpt>
      <trkpt lat="49.8693" lon="4.7507">
        <ele>344</ele>
        <time>2020-11-13T08:40:29.000Z</time>
      </trkpt>
      <trkpt lat="49.86931" lon="4.75072">
        <ele>344</ele>
        <time>2020-11-13T08:40:30.000Z</time>
      </trkpt>
      <trkpt lat="49.86933" lon="4.75073">
        <ele>344</ele>
        <time>2020-11-13T08:40:31.000Z</time>
      </trkpt>
      <trkpt lat="49.86934" lon="4.75075">
        <ele>345</ele>
        <time>2020-11-13T08:40:32.000Z</time>
      </trkpt>
      <trkpt lat="49.86935" lon="4.75076">
        <ele>345</ele>
        <time>2020-11-13T08:40:33.000Z</time>
      </trkpt>
      <trkpt lat="49.86936" lon="4.75077">
        <ele>345</ele>
        <time>2020-11-13T08:40:34.000Z</time>
      </trkpt>
      <trkpt lat="49.86938" lon="4.75078">
        <ele>345</ele>
        <time>2020-11-13T08:40:35.000Z</time>
      </trkpt>
      <trkpt lat="49.86939" lon="4.75079">
        <ele>346</ele>
        <time>2020-11-13T08:40:36.000Z</time>
      </trkpt>
      <trkpt lat="49.86941" lon="4.7508">
        <ele>346</ele>
        <time>2020-11-13T08:40:37.000Z</time>
      </trkpt>
      <trkpt lat="49.86943" lon="4.7508">
        <ele>346</ele>
        <time>2020-11-13T08:40:38.000Z</time>
      </trkpt>
      <trkpt lat="49.86944" lon="4.7508">
        <ele>347</ele>
        <time>2020-11-13T08:40:39.000Z</time>
      </trkpt>
      <trkpt lat="49.86946" lon="4.75081">
        <ele>347</ele>
        <time>2020-11-13T08:40:40.000Z</time>
      </trkpt>
      <trkpt lat="49.86947" lon="4.75082">
        <ele>347</ele>
        <time>2020-11-13T08:40:41.000Z</time>
      </trkpt>
      <trkpt lat="49.86948" lon="4.75083">
        <ele>347</ele>
        <time>2020-11-13T08:40:42.000Z</time>
      </trkpt>
      <trkpt lat="49.8695" lon="4.75084">
        <ele>348</ele>
        <time>2020-11-13T08:40:43.000Z</time>
      </trkpt>
      <trkpt lat="49.86951" lon="4.75085">
        <ele>348</ele>
        <time>2020-11-13T08:40:44.000Z</time>
      </trkpt>
      <trkpt lat="49.86952" lon="4.75086">
        <ele>348</ele>
        <time>2020-11-13T08:40:45.000Z</time>
      </trkpt>
      <trkpt lat="49.86954" lon="4.75087">
        <ele>348</ele>
        <time>2020-11-13T08:40:46.000Z</time>
      </trkpt>
      <trkpt lat="49.86955" lon="4.75087">
        <ele>348</ele>
        <time>2020-11-13T08:40:47.000Z</time>
      </trkpt>
      <trkpt lat="49.86956" lon="4.75087">
        <ele>348</ele>
        <time>2020-11-13T08:40:48.000Z</time>
      </trkpt>
      <trkpt lat="49.86958" lon="4.75088">
        <ele>349</ele>
        <time>2020-11-13T08:40:49.000Z</time>
      </trkpt>
      <trkpt lat="49.86959" lon="4.7509">
        <ele>349</ele>
        <time>2020-11-13T08:40:50.000Z</time>
      </trkpt>
      <trkpt lat="49.8696" lon="4.75091">
        <ele>349</ele>
        <time>2020-11-13T08:40:51.000Z</time>
      </trkpt>
      <trkpt lat="49.86961" lon="4.75094">
        <ele>349</ele>
        <time>2020-11-13T08:40:52.000Z</time>
      </trkpt>
      <trkpt lat="49.86962" lon="4.75096">
        <ele>349</ele>
        <time>2020-11-13T08:40:53.000Z</time>
      </trkpt>
      <trkpt lat="49.86963" lon="4.75098">
        <ele>349</ele>
        <time>2020-11-13T08:40:54.000Z</time>
      </trkpt>
      <trkpt lat="49.86964" lon="4.75099">
        <ele>349</ele>
        <time>2020-11-13T08:40:55.000Z</time>
      </trkpt>
      <trkpt lat="49.86965" lon="4.75101">
        <ele>349</ele>
        <time>2020-11-13T08:40:56.000Z</time>
      </trkpt>
      <trkpt lat="49.86966" lon="4.75102">
        <ele>349</ele>
        <time>2020-11-13T08:40:57.000Z</time>
      </trkpt>
      <trkpt lat="49.86966" lon="4.75102">
        <ele>350</ele>
        <time>2020-11-13T08:40:58.000Z</time>
      </trkpt>
      <trkpt lat="49.86967" lon="4.75103">
        <ele>350</ele>
        <time>2020-11-13T08:40:59.000Z</time>
      </trkpt>
      <trkpt lat="49.86968" lon="4.75104">
        <ele>350</ele>
        <time>2020-11-13T08:41:00.000Z</time>
      </trkpt>
      <trkpt lat="49.86968" lon="4.75104">
        <ele>350</ele>
        <time>2020-11-13T08:41:01.000Z</time>
      </trkpt>
      <trkpt lat="49.86969" lon="4.75105">
        <ele>350</ele>
        <time>2020-11-13T08:41:02.000Z</time>
      </trkpt>
      <trkpt lat="49.8697" lon="4.75107">
        <ele>350</ele>
        <time>2020-11-13T08:41:03.000Z</time>
      </trkpt>
      <trkpt lat="49.86971" lon="4.75109">
        <ele>350</ele>
        <time>2020-11-13T08:41:04.000Z</time>
      </trkpt>
      <trkpt lat="49.86972" lon="4.7511">
        <ele>350</ele>
        <time>2020-11-13T08:41:05.000Z</time>
      </trkpt>
      <trkpt lat="49.86974" lon="4.75112">
        <ele>350</ele>
        <time>2020-11-13T08:41:06.000Z</time>
      </trkpt>
      <trkpt lat="49.86975" lon="4.75113">
        <ele>350</ele>
        <time>2020-11-13T08:41:07.000Z</time>
      </trkpt>
      <trkpt lat="49.86976" lon="4.75116">
        <ele>350</ele>
        <time>2020-11-13T08:41:08.000Z</time>
      </trkpt>
      <trkpt lat="49.86978" lon="4.75118">
        <ele>350</ele>
        <time>2020-11-13T08:41:09.000Z</time>
      </trkpt>
      <trkpt lat="49.86979" lon="4.75119">
        <ele>350</ele>
        <time>2020-11-13T08:41:10.000Z</time>
      </trkpt>
      <trkpt lat="49.8698" lon="4.75121">
        <ele>350</ele>
        <time>2020-11-13T08:41:11.000Z</time>
      </trkpt>
      <trkpt lat="49.86982" lon="4.75123">
        <ele>350</ele>
        <time>2020-11-13T08:41:12.000Z</time>
      </trkpt>
      <trkpt lat="49.86983" lon="4.75125">
        <ele>350</ele>
        <time>2020-11-13T08:41:13.000Z</time>
      </trkpt>
      <trkpt lat="49.86985" lon="4.75127">
        <ele>350</ele>
        <time>2020-11-13T08:41:14.000Z</time>
      </trkpt>
      <trkpt lat="49.86986" lon="4.75129">
        <ele>350</ele>
        <time>2020-11-13T08:41:15.000Z</time>
      </trkpt>
      <trkpt lat="49.86987" lon="4.7513">
        <ele>350</ele>
        <time>2020-11-13T08:41:16.000Z</time>
      </trkpt>
      <trkpt lat="49.86988" lon="4.75132">
        <ele>350</ele>
        <time>2020-11-13T08:41:17.000Z</time>
      </trkpt>
      <trkpt lat="49.8699" lon="4.75134">
        <ele>349</ele>
        <time>2020-11-13T08:41:18.000Z</time>
      </trkpt>
      <trkpt lat="49.86991" lon="4.75136">
        <ele>349</ele>
        <time>2020-11-13T08:41:19.000Z</time>
      </trkpt>
      <trkpt lat="49.86992" lon="4.75138">
        <ele>349</ele>
        <time>2020-11-13T08:41:20.000Z</time>
      </trkpt>
      <trkpt lat="49.86993" lon="4.7514">
        <ele>349</ele>
        <time>2020-11-13T08:41:21.000Z</time>
      </trkpt>
      <trkpt lat="49.86994" lon="4.75141">
        <ele>349</ele>
        <time>2020-11-13T08:41:22.000Z</time>
      </trkpt>
      <trkpt lat="49.86995" lon="4.75143">
        <ele>349</ele>
        <time>2020-11-13T08:41:23.000Z</time>
      </trkpt>
      <trkpt lat="49.86997" lon="4.75145">
        <ele>349</ele>
        <time>2020-11-13T08:41:24.000Z</time>
      </trkpt>
      <trkpt lat="49.86998" lon="4.75148">
        <ele>349</ele>
        <time>2020-11-13T08:41:25.000Z</time>
      </trkpt>
      <trkpt lat="49.86999" lon="4.7515">
        <ele>349</ele>
        <time>2020-11-13T08:41:26.000Z</time>
      </trkpt>
      <trkpt lat="49.87001" lon="4.75153">
        <ele>349</ele>
        <time>2020-11-13T08:41:27.000Z</time>
      </trkpt>
      <trkpt lat="49.87002" lon="4.75156">
        <ele>349</ele>
        <time>2020-11-13T08:41:28.000Z</time>
      </trkpt>
      <trkpt lat="49.87003" lon="4.75159">
        <ele>349</ele>
        <time>2020-11-13T08:41:29.000Z</time>
      </trkpt>
      <trkpt lat="49.87004" lon="4.75162">
        <ele>349</ele>
        <time>2020-11-13T08:41:30.000Z</time>
      </trkpt>
      <trkpt lat="49.87005" lon="4.75165">
        <ele>350</ele>
        <time>2020-11-13T08:41:31.000Z</time>
      </trkpt>
      <trkpt lat="49.87007" lon="4.75168">
        <ele>350</ele>
        <time>2020-11-13T08:41:32.000Z</time>
      </trkpt>
      <trkpt lat="49.87008" lon="4.7517">
        <ele>350</ele>
        <time>2020-11-13T08:41:33.000Z</time>
      </trkpt>
      <trkpt lat="49.87009" lon="4.75173">
        <ele>349</ele>
        <time>2020-11-13T08:41:34.000Z</time>
      </trkpt>
      <trkpt lat="49.8701" lon="4.75176">
        <ele>349</ele>
        <time>2020-11-13T08:41:35.000Z</time>
      </trkpt>
      <trkpt lat="49.87011" lon="4.75179">
        <ele>350</ele>
        <time>2020-11-13T08:41:36.000Z</time>
      </trkpt>
      <trkpt lat="49.87012" lon="4.75182">
        <ele>350</ele>
        <time>2020-11-13T08:41:37.000Z</time>
      </trkpt>
      <trkpt lat="49.87014" lon="4.75184">
        <ele>350</ele>
        <time>2020-11-13T08:41:38.000Z</time>
      </trkpt>
      <trkpt lat="49.87015" lon="4.75187">
        <ele>350</ele>
        <time>2020-11-13T08:41:39.000Z</time>
      </trkpt>
      <trkpt lat="49.87016" lon="4.7519">
        <ele>350</ele>
        <time>2020-11-13T08:41:40.000Z</time>
      </trkpt>
      <trkpt lat="49.87016" lon="4.75193">
        <ele>350</ele>
        <time>2020-11-13T08:41:41.000Z</time>
      </trkpt>
      <trkpt lat="49.87017" lon="4.75196">
        <ele>350</ele>
        <time>2020-11-13T08:41:42.000Z</time>
      </trkpt>
      <trkpt lat="49.87018" lon="4.75198">
        <ele>350</ele>
        <time>2020-11-13T08:41:43.000Z</time>
      </trkpt>
      <trkpt lat="49.87019" lon="4.75201">
        <ele>350</ele>
        <time>2020-11-13T08:41:44.000Z</time>
      </trkpt>
      <trkpt lat="49.87019" lon="4.75204">
        <ele>350</ele>
        <time>2020-11-13T08:41:45.000Z</time>
      </trkpt>
      <trkpt lat="49.8702" lon="4.75207">
        <ele>350</ele>
        <time>2020-11-13T08:41:46.000Z</time>
      </trkpt>
      <trkpt lat="49.8702" lon="4.7521">
        <ele>350</ele>
        <time>2020-11-13T08:41:47.000Z</time>
      </trkpt>
      <trkpt lat="49.87021" lon="4.75212">
        <ele>350</ele>
        <time>2020-11-13T08:41:48.000Z</time>
      </trkpt>
      <trkpt lat="49.87022" lon="4.75216">
        <ele>350</ele>
        <time>2020-11-13T08:41:49.000Z</time>
      </trkpt>
      <trkpt lat="49.87022" lon="4.75219">
        <ele>351</ele>
        <time>2020-11-13T08:41:50.000Z</time>
      </trkpt>
      <trkpt lat="49.87023" lon="4.75222">
        <ele>351</ele>
        <time>2020-11-13T08:41:51.000Z</time>
      </trkpt>
      <trkpt lat="49.87023" lon="4.75225">
        <ele>351</ele>
        <time>2020-11-13T08:41:52.000Z</time>
      </trkpt>
      <trkpt lat="49.87023" lon="4.75229">
        <ele>351</ele>
        <time>2020-11-13T08:41:53.000Z</time>
      </trkpt>
      <trkpt lat="49.87024" lon="4.75232">
        <ele>351</ele>
        <time>2020-11-13T08:41:54.000Z</time>
      </trkpt>
      <trkpt lat="49.87024" lon="4.75235">
        <ele>351</ele>
        <time>2020-11-13T08:41:55.000Z</time>
      </trkpt>
      <trkpt lat="49.87024" lon="4.75238">
        <ele>351</ele>
        <time>2020-11-13T08:41:56.000Z</time>
      </trkpt>
      <trkpt lat="49.87024" lon="4.7524">
        <ele>351</ele>
        <time>2020-11-13T08:41:57.000Z</time>
      </trkpt>
      <trkpt lat="49.87024" lon="4.75243">
        <ele>351</ele>
        <time>2020-11-13T08:41:58.000Z</time>
      </trkpt>
      <trkpt lat="49.87025" lon="4.75246">
        <ele>352</ele>
        <time>2020-11-13T08:41:59.000Z</time>
      </trkpt>
      <trkpt lat="49.87026" lon="4.75249">
        <ele>352</ele>
        <time>2020-11-13T08:42:00.000Z</time>
      </trkpt>
      <trkpt lat="49.87027" lon="4.75252">
        <ele>352</ele>
        <time>2020-11-13T08:42:01.000Z</time>
      </trkpt>
      <trkpt lat="49.87028" lon="4.75255">
        <ele>352</ele>
        <time>2020-11-13T08:42:02.000Z</time>
      </trkpt>
      <trkpt lat="49.87028" lon="4.75258">
        <ele>352</ele>
        <time>2020-11-13T08:42:03.000Z</time>
      </trkpt>
      <trkpt lat="49.87029" lon="4.75261">
        <ele>352</ele>
        <time>2020-11-13T08:42:04.000Z</time>
      </trkpt>
      <trkpt lat="49.8703" lon="4.75264">
        <ele>353</ele>
        <time>2020-11-13T08:42:05.000Z</time>
      </trkpt>
      <trkpt lat="49.87031" lon="4.75267">
        <ele>353</ele>
        <time>2020-11-13T08:42:06.000Z</time>
      </trkpt>
      <trkpt lat="49.87032" lon="4.7527">
        <ele>353</ele>
        <time>2020-11-13T08:42:07.000Z</time>
      </trkpt>
      <trkpt lat="49.87032" lon="4.75273">
        <ele>353</ele>
        <time>2020-11-13T08:42:08.000Z</time>
      </trkpt>
      <trkpt lat="49.87032" lon="4.75275">
        <ele>354</ele>
        <time>2020-11-13T08:42:09.000Z</time>
      </trkpt>
      <trkpt lat="49.87031" lon="4.75278">
        <ele>354</ele>
        <time>2020-11-13T08:42:10.000Z</time>
      </trkpt>
      <trkpt lat="49.87031" lon="4.75281">
        <ele>354</ele>
        <time>2020-11-13T08:42:11.000Z</time>
      </trkpt>
      <trkpt lat="49.8703" lon="4.75284">
        <ele>354</ele>
        <time>2020-11-13T08:42:12.000Z</time>
      </trkpt>
      <trkpt lat="49.87029" lon="4.75287">
        <ele>355</ele>
        <time>2020-11-13T08:42:13.000Z</time>
      </trkpt>
      <trkpt lat="49.87028" lon="4.75289">
        <ele>355</ele>
        <time>2020-11-13T08:42:14.000Z</time>
      </trkpt>
      <trkpt lat="49.87027" lon="4.7529">
        <ele>355</ele>
        <time>2020-11-13T08:42:15.000Z</time>
      </trkpt>
      <trkpt lat="49.87026" lon="4.75293">
        <ele>355</ele>
        <time>2020-11-13T08:42:16.000Z</time>
      </trkpt>
      <trkpt lat="49.87025" lon="4.75294">
        <ele>355</ele>
        <time>2020-11-13T08:42:17.000Z</time>
      </trkpt>
      <trkpt lat="49.87025" lon="4.75295">
        <ele>355</ele>
        <time>2020-11-13T08:42:18.000Z</time>
      </trkpt>
      <trkpt lat="49.87024" lon="4.75296">
        <ele>356</ele>
        <time>2020-11-13T08:42:19.000Z</time>
      </trkpt>
      <trkpt lat="49.87023" lon="4.75298">
        <ele>356</ele>
        <time>2020-11-13T08:42:20.000Z</time>
      </trkpt>
      <trkpt lat="49.87022" lon="4.753">
        <ele>356</ele>
        <time>2020-11-13T08:42:21.000Z</time>
      </trkpt>
      <trkpt lat="49.87021" lon="4.75301">
        <ele>356</ele>
        <time>2020-11-13T08:42:22.000Z</time>
      </trkpt>
      <trkpt lat="49.8702" lon="4.75301">
        <ele>356</ele>
        <time>2020-11-13T08:42:23.000Z</time>
      </trkpt>
      <trkpt lat="49.87019" lon="4.75301">
        <ele>356</ele>
        <time>2020-11-13T08:42:24.000Z</time>
      </trkpt>
      <trkpt lat="49.87017" lon="4.75302">
        <ele>356</ele>
        <time>2020-11-13T08:42:25.000Z</time>
      </trkpt>
      <trkpt lat="49.87016" lon="4.75302">
        <ele>356</ele>
        <time>2020-11-13T08:42:26.000Z</time>
      </trkpt>
      <trkpt lat="49.87015" lon="4.75301">
        <ele>356</ele>
        <time>2020-11-13T08:42:27.000Z</time>
      </trkpt>
      <trkpt lat="49.87013" lon="4.75301">
        <ele>357</ele>
        <time>2020-11-13T08:42:28.000Z</time>
      </trkpt>
      <trkpt lat="49.87012" lon="4.75301">
        <ele>357</ele>
        <time>2020-11-13T08:42:29.000Z</time>
      </trkpt>
      <trkpt lat="49.8701" lon="4.75301">
        <ele>357</ele>
        <time>2020-11-13T08:42:30.000Z</time>
      </trkpt>
      <trkpt lat="49.87009" lon="4.75301">
        <ele>357</ele>
        <time>2020-11-13T08:42:31.000Z</time>
      </trkpt>
      <trkpt lat="49.87007" lon="4.75301">
        <ele>357</ele>
        <time>2020-11-13T08:42:32.000Z</time>
      </trkpt>
      <trkpt lat="49.87005" lon="4.753">
        <ele>357</ele>
        <time>2020-11-13T08:42:33.000Z</time>
      </trkpt>
      <trkpt lat="49.87003" lon="4.753">
        <ele>357</ele>
        <time>2020-11-13T08:42:34.000Z</time>
      </trkpt>
      <trkpt lat="49.87001" lon="4.753">
        <ele>358</ele>
        <time>2020-11-13T08:42:35.000Z</time>
      </trkpt>
      <trkpt lat="49.86999" lon="4.753">
        <ele>358</ele>
        <time>2020-11-13T08:42:36.000Z</time>
      </trkpt>
      <trkpt lat="49.86997" lon="4.75299">
        <ele>358</ele>
        <time>2020-11-13T08:42:37.000Z</time>
      </trkpt>
      <trkpt lat="49.86995" lon="4.75299">
        <ele>358</ele>
        <time>2020-11-13T08:42:38.000Z</time>
      </trkpt>
      <trkpt lat="49.86993" lon="4.75299">
        <ele>358</ele>
        <time>2020-11-13T08:42:39.000Z</time>
      </trkpt>
      <trkpt lat="49.86992" lon="4.75299">
        <ele>358</ele>
        <time>2020-11-13T08:42:40.000Z</time>
      </trkpt>
      <trkpt lat="49.8699" lon="4.75299">
        <ele>358</ele>
        <time>2020-11-13T08:42:41.000Z</time>
      </trkpt>
      <trkpt lat="49.86988" lon="4.75299">
        <ele>358</ele>
        <time>2020-11-13T08:42:42.000Z</time>
      </trkpt>
      <trkpt lat="49.86987" lon="4.75298">
        <ele>359</ele>
        <time>2020-11-13T08:42:43.000Z</time>
      </trkpt>
      <trkpt lat="49.86985" lon="4.75298">
        <ele>359</ele>
        <time>2020-11-13T08:42:44.000Z</time>
      </trkpt>
      <trkpt lat="49.86983" lon="4.75299">
        <ele>359</ele>
        <time>2020-11-13T08:42:45.000Z</time>
      </trkpt>
      <trkpt lat="49.86982" lon="4.75301">
        <ele>359</ele>
        <time>2020-11-13T08:42:46.000Z</time>
      </trkpt>
      <trkpt lat="49.8698" lon="4.75303">
        <ele>359</ele>
        <time>2020-11-13T08:42:47.000Z</time>
      </trkpt>
      <trkpt lat="49.86978" lon="4.75305">
        <ele>359</ele>
        <time>2020-11-13T08:42:48.000Z</time>
      </trkpt>
      <trkpt lat="49.86975" lon="4.75307">
        <ele>359</ele>
        <time>2020-11-13T08:42:49.000Z</time>
      </trkpt>
      <trkpt lat="49.86972" lon="4.75309">
        <ele>359</ele>
        <time>2020-11-13T08:42:50.000Z</time>
      </trkpt>
      <trkpt lat="49.86969" lon="4.75311">
        <ele>359</ele>
        <time>2020-11-13T08:42:51.000Z</time>
      </trkpt>
      <trkpt lat="49.86966" lon="4.75313">
        <ele>359</ele>
        <time>2020-11-13T08:42:52.000Z</time>
      </trkpt>
      <trkpt lat="49.86962" lon="4.75314">
        <ele>359</ele>
        <time>2020-11-13T08:42:53.000Z</time>
      </trkpt>
      <trkpt lat="49.86959" lon="4.75317">
        <ele>359</ele>
        <time>2020-11-13T08:42:54.000Z</time>
      </trkpt>
      <trkpt lat="49.86956" lon="4.7532">
        <ele>359</ele>
        <time>2020-11-13T08:42:55.000Z</time>
      </trkpt>
      <trkpt lat="49.86953" lon="4.75322">
        <ele>359</ele>
        <time>2020-11-13T08:42:56.000Z</time>
      </trkpt>
      <trkpt lat="49.86951" lon="4.75325">
        <ele>360</ele>
        <time>2020-11-13T08:42:57.000Z</time>
      </trkpt>
      <trkpt lat="49.86949" lon="4.75328">
        <ele>360</ele>
        <time>2020-11-13T08:42:58.000Z</time>
      </trkpt>
      <trkpt lat="49.86948" lon="4.7533">
        <ele>360</ele>
        <time>2020-11-13T08:42:59.000Z</time>
      </trkpt>
      <trkpt lat="49.86947" lon="4.75333">
        <ele>360</ele>
        <time>2020-11-13T08:43:00.000Z</time>
      </trkpt>
      <trkpt lat="49.86948" lon="4.75335">
        <ele>360</ele>
        <time>2020-11-13T08:43:01.000Z</time>
      </trkpt>
      <trkpt lat="49.86949" lon="4.75337">
        <ele>360</ele>
        <time>2020-11-13T08:43:02.000Z</time>
      </trkpt>
      <trkpt lat="49.86951" lon="4.75339">
        <ele>360</ele>
        <time>2020-11-13T08:43:03.000Z</time>
      </trkpt>
      <trkpt lat="49.86954" lon="4.75341">
        <ele>360</ele>
        <time>2020-11-13T08:43:04.000Z</time>
      </trkpt>
      <trkpt lat="49.86956" lon="4.75343">
        <ele>360</ele>
        <time>2020-11-13T08:43:05.000Z</time>
      </trkpt>
      <trkpt lat="49.86957" lon="4.75344">
        <ele>359</ele>
        <time>2020-11-13T08:43:06.000Z</time>
      </trkpt>
      <trkpt lat="49.86959" lon="4.75346">
        <ele>359</ele>
        <time>2020-11-13T08:43:07.000Z</time>
      </trkpt>
      <trkpt lat="49.86961" lon="4.75348">
        <ele>359</ele>
        <time>2020-11-13T08:43:08.000Z</time>
      </trkpt>
      <trkpt lat="49.86962" lon="4.7535">
        <ele>359</ele>
        <time>2020-11-13T08:43:09.000Z</time>
      </trkpt>
      <trkpt lat="49.86965" lon="4.75352">
        <ele>359</ele>
        <time>2020-11-13T08:43:10.000Z</time>
      </trkpt>
      <trkpt lat="49.86967" lon="4.75355">
        <ele>359</ele>
        <time>2020-11-13T08:43:11.000Z</time>
      </trkpt>
      <trkpt lat="49.8697" lon="4.75357">
        <ele>359</ele>
        <time>2020-11-13T08:43:12.000Z</time>
      </trkpt>
      <trkpt lat="49.86972" lon="4.7536">
        <ele>359</ele>
        <time>2020-11-13T08:43:13.000Z</time>
      </trkpt>
      <trkpt lat="49.86975" lon="4.75363">
        <ele>359</ele>
        <time>2020-11-13T08:43:14.000Z</time>
      </trkpt>
      <trkpt lat="49.86977" lon="4.75367">
        <ele>359</ele>
        <time>2020-11-13T08:43:15.000Z</time>
      </trkpt>
      <trkpt lat="49.86979" lon="4.7537">
        <ele>358</ele>
        <time>2020-11-13T08:43:16.000Z</time>
      </trkpt>
      <trkpt lat="49.86979" lon="4.75373">
        <ele>358</ele>
        <time>2020-11-13T08:43:17.000Z</time>
      </trkpt>
      <trkpt lat="49.8698" lon="4.75376">
        <ele>358</ele>
        <time>2020-11-13T08:43:18.000Z</time>
      </trkpt>
      <trkpt lat="49.86982" lon="4.75378">
        <ele>358</ele>
        <time>2020-11-13T08:43:19.000Z</time>
      </trkpt>
      <trkpt lat="49.86984" lon="4.7538">
        <ele>358</ele>
        <time>2020-11-13T08:43:20.000Z</time>
      </trkpt>
      <trkpt lat="49.86986" lon="4.75382">
        <ele>358</ele>
        <time>2020-11-13T08:43:21.000Z</time>
      </trkpt>
      <trkpt lat="49.86988" lon="4.75384">
        <ele>358</ele>
        <time>2020-11-13T08:43:22.000Z</time>
      </trkpt>
      <trkpt lat="49.8699" lon="4.75387">
        <ele>358</ele>
        <time>2020-11-13T08:43:23.000Z</time>
      </trkpt>
      <trkpt lat="49.86992" lon="4.7539">
        <ele>358</ele>
        <time>2020-11-13T08:43:24.000Z</time>
      </trkpt>
      <trkpt lat="49.86994" lon="4.75393">
        <ele>358</ele>
        <time>2020-11-13T08:43:25.000Z</time>
      </trkpt>
      <trkpt lat="49.86996" lon="4.75395">
        <ele>358</ele>
        <time>2020-11-13T08:43:26.000Z</time>
      </trkpt>
      <trkpt lat="49.86997" lon="4.75398">
        <ele>358</ele>
        <time>2020-11-13T08:43:27.000Z</time>
      </trkpt>
      <trkpt lat="49.86999" lon="4.75401">
        <ele>358</ele>
        <time>2020-11-13T08:43:28.000Z</time>
      </trkpt>
      <trkpt lat="49.87001" lon="4.75403">
        <ele>358</ele>
        <time>2020-11-13T08:43:29.000Z</time>
      </trkpt>
      <trkpt lat="49.87003" lon="4.75405">
        <ele>358</ele>
        <time>2020-11-13T08:43:30.000Z</time>
      </trkpt>
      <trkpt lat="49.87004" lon="4.75407">
        <ele>358</ele>
        <time>2020-11-13T08:43:31.000Z</time>
      </trkpt>
      <trkpt lat="49.87006" lon="4.75409">
        <ele>358</ele>
        <time>2020-11-13T08:43:32.000Z</time>
      </trkpt>
      <trkpt lat="49.87008" lon="4.75411">
        <ele>358</ele>
        <time>2020-11-13T08:43:33.000Z</time>
      </trkpt>
      <trkpt lat="49.8701" lon="4.75413">
        <ele>358</ele>
        <time>2020-11-13T08:43:34.000Z</time>
      </trkpt>
      <trkpt lat="49.87012" lon="4.75416">
        <ele>358</ele>
        <time>2020-11-13T08:43:35.000Z</time>
      </trkpt>
      <trkpt lat="49.87013" lon="4.75419">
        <ele>358</ele>
        <time>2020-11-13T08:43:36.000Z</time>
      </trkpt>
      <trkpt lat="49.87015" lon="4.75421">
        <ele>358</ele>
        <time>2020-11-13T08:43:37.000Z</time>
      </trkpt>
      <trkpt lat="49.87017" lon="4.75423">
        <ele>358</ele>
        <time>2020-11-13T08:43:38.000Z</time>
      </trkpt>
      <trkpt lat="49.8702" lon="4.75426">
        <ele>358</ele>
        <time>2020-11-13T08:43:39.000Z</time>
      </trkpt>
      <trkpt lat="49.87022" lon="4.75429">
        <ele>358</ele>
        <time>2020-11-13T08:43:40.000Z</time>
      </trkpt>
      <trkpt lat="49.87024" lon="4.75433">
        <ele>358</ele>
        <time>2020-11-13T08:43:41.000Z</time>
      </trkpt>
      <trkpt lat="49.87026" lon="4.75436">
        <ele>358</ele>
        <time>2020-11-13T08:43:42.000Z</time>
      </trkpt>
      <trkpt lat="49.87028" lon="4.75439">
        <ele>358</ele>
        <time>2020-11-13T08:43:43.000Z</time>
      </trkpt>
      <trkpt lat="49.87029" lon="4.75443">
        <ele>358</ele>
        <time>2020-11-13T08:43:44.000Z</time>
      </trkpt>
      <trkpt lat="49.87031" lon="4.75446">
        <ele>358</ele>
        <time>2020-11-13T08:43:45.000Z</time>
      </trkpt>
      <trkpt lat="49.87033" lon="4.75448">
        <ele>358</ele>
        <time>2020-11-13T08:43:46.000Z</time>
      </trkpt>
      <trkpt lat="49.87035" lon="4.75451">
        <ele>358</ele>
        <time>2020-11-13T08:43:47.000Z</time>
      </trkpt>
      <trkpt lat="49.87037" lon="4.75454">
        <ele>358</ele>
        <time>2020-11-13T08:43:48.000Z</time>
      </trkpt>
      <trkpt lat="49.87039" lon="4.75457">
        <ele>358</ele>
        <time>2020-11-13T08:43:49.000Z</time>
      </trkpt>
      <trkpt lat="49.87041" lon="4.7546">
        <ele>358</ele>
        <time>2020-11-13T08:43:50.000Z</time>
      </trkpt>
      <trkpt lat="49.87043" lon="4.75463">
        <ele>358</ele>
        <time>2020-11-13T08:43:51.000Z</time>
      </trkpt>
      <trkpt lat="49.87045" lon="4.75466">
        <ele>358</ele>
        <time>2020-11-13T08:43:52.000Z</time>
      </trkpt>
      <trkpt lat="49.87046" lon="4.75469">
        <ele>358</ele>
        <time>2020-11-13T08:43:53.000Z</time>
      </trkpt>
      <trkpt lat="49.87048" lon="4.75472">
        <ele>358</ele>
        <time>2020-11-13T08:43:54.000Z</time>
      </trkpt>
      <trkpt lat="49.8705" lon="4.75475">
        <ele>359</ele>
        <time>2020-11-13T08:43:55.000Z</time>
      </trkpt>
      <trkpt lat="49.87052" lon="4.75478">
        <ele>359</ele>
        <time>2020-11-13T08:43:56.000Z</time>
      </trkpt>
      <trkpt lat="49.87054" lon="4.75481">
        <ele>359</ele>
        <time>2020-11-13T08:43:57.000Z</time>
      </trkpt>
      <trkpt lat="49.87055" lon="4.75484">
        <ele>359</ele>
        <time>2020-11-13T08:43:58.000Z</time>
      </trkpt>
      <trkpt lat="49.87057" lon="4.75486">
        <ele>359</ele>
        <time>2020-11-13T08:43:59.000Z</time>
      </trkpt>
      <trkpt lat="49.87058" lon="4.75489">
        <ele>360</ele>
        <time>2020-11-13T08:44:00.000Z</time>
      </trkpt>
      <trkpt lat="49.8706" lon="4.75492">
        <ele>360</ele>
        <time>2020-11-13T08:44:01.000Z</time>
      </trkpt>
      <trkpt lat="49.87062" lon="4.75494">
        <ele>360</ele>
        <time>2020-11-13T08:44:02.000Z</time>
      </trkpt>
      <trkpt lat="49.87064" lon="4.75497">
        <ele>360</ele>
        <time>2020-11-13T08:44:03.000Z</time>
      </trkpt>
      <trkpt lat="49.87065" lon="4.75499">
        <ele>360</ele>
        <time>2020-11-13T08:44:04.000Z</time>
      </trkpt>
      <trkpt lat="49.87067" lon="4.75501">
        <ele>361</ele>
        <time>2020-11-13T08:44:05.000Z</time>
      </trkpt>
      <trkpt lat="49.87069" lon="4.75503">
        <ele>361</ele>
        <time>2020-11-13T08:44:06.000Z</time>
      </trkpt>
      <trkpt lat="49.87071" lon="4.75503">
        <ele>361</ele>
        <time>2020-11-13T08:44:07.000Z</time>
      </trkpt>
      <trkpt lat="49.87073" lon="4.75504">
        <ele>361</ele>
        <time>2020-11-13T08:44:08.000Z</time>
      </trkpt>
      <trkpt lat="49.87074" lon="4.75506">
        <ele>361</ele>
        <time>2020-11-13T08:44:09.000Z</time>
      </trkpt>
      <trkpt lat="49.87076" lon="4.75508">
        <ele>361</ele>
        <time>2020-11-13T08:44:10.000Z</time>
      </trkpt>
      <trkpt lat="49.87077" lon="4.7551">
        <ele>362</ele>
        <time>2020-11-13T08:44:11.000Z</time>
      </trkpt>
      <trkpt lat="49.8708" lon="4.75511">
        <ele>362</ele>
        <time>2020-11-13T08:44:12.000Z</time>
      </trkpt>
      <trkpt lat="49.87082" lon="4.75513">
        <ele>362</ele>
        <time>2020-11-13T08:44:13.000Z</time>
      </trkpt>
      <trkpt lat="49.87084" lon="4.75514">
        <ele>362</ele>
        <time>2020-11-13T08:44:14.000Z</time>
      </trkpt>
      <trkpt lat="49.87087" lon="4.75515">
        <ele>362</ele>
        <time>2020-11-13T08:44:15.000Z</time>
      </trkpt>
      <trkpt lat="49.87089" lon="4.75517">
        <ele>362</ele>
        <time>2020-11-13T08:44:16.000Z</time>
      </trkpt>
      <trkpt lat="49.87091" lon="4.75518">
        <ele>363</ele>
        <time>2020-11-13T08:44:17.000Z</time>
      </trkpt>
      <trkpt lat="49.87094" lon="4.75519">
        <ele>363</ele>
        <time>2020-11-13T08:44:18.000Z</time>
      </trkpt>
      <trkpt lat="49.87096" lon="4.7552">
        <ele>363</ele>
        <time>2020-11-13T08:44:19.000Z</time>
      </trkpt>
      <trkpt lat="49.87099" lon="4.75522">
        <ele>363</ele>
        <time>2020-11-13T08:44:20.000Z</time>
      </trkpt>
      <trkpt lat="49.87101" lon="4.75524">
        <ele>363</ele>
        <time>2020-11-13T08:44:21.000Z</time>
      </trkpt>
      <trkpt lat="49.87104" lon="4.75526">
        <ele>363</ele>
        <time>2020-11-13T08:44:22.000Z</time>
      </trkpt>
      <trkpt lat="49.87106" lon="4.75528">
        <ele>364</ele>
        <time>2020-11-13T08:44:23.000Z</time>
      </trkpt>
      <trkpt lat="49.87108" lon="4.7553">
        <ele>364</ele>
        <time>2020-11-13T08:44:24.000Z</time>
      </trkpt>
      <trkpt lat="49.87109" lon="4.75532">
        <ele>364</ele>
        <time>2020-11-13T08:44:25.000Z</time>
      </trkpt>
      <trkpt lat="49.87112" lon="4.75533">
        <ele>364</ele>
        <time>2020-11-13T08:44:26.000Z</time>
      </trkpt>
      <trkpt lat="49.87113" lon="4.75536">
        <ele>364</ele>
        <time>2020-11-13T08:44:27.000Z</time>
      </trkpt>
      <trkpt lat="49.87115" lon="4.75539">
        <ele>364</ele>
        <time>2020-11-13T08:44:28.000Z</time>
      </trkpt>
      <trkpt lat="49.87117" lon="4.75542">
        <ele>364</ele>
        <time>2020-11-13T08:44:29.000Z</time>
      </trkpt>
      <trkpt lat="49.87118" lon="4.75544">
        <ele>364</ele>
        <time>2020-11-13T08:44:30.000Z</time>
      </trkpt>
      <trkpt lat="49.87119" lon="4.75546">
        <ele>364</ele>
        <time>2020-11-13T08:44:31.000Z</time>
      </trkpt>
      <trkpt lat="49.87119" lon="4.75549">
        <ele>364</ele>
        <time>2020-11-13T08:44:32.000Z</time>
      </trkpt>
      <trkpt lat="49.87119" lon="4.75551">
        <ele>364</ele>
        <time>2020-11-13T08:44:33.000Z</time>
      </trkpt>
      <trkpt lat="49.87119" lon="4.75553">
        <ele>364</ele>
        <time>2020-11-13T08:44:34.000Z</time>
      </trkpt>
      <trkpt lat="49.87119" lon="4.75555">
        <ele>364</ele>
        <time>2020-11-13T08:44:35.000Z</time>
      </trkpt>
      <trkpt lat="49.8712" lon="4.75558">
        <ele>364</ele>
        <time>2020-11-13T08:44:36.000Z</time>
      </trkpt>
      <trkpt lat="49.8712" lon="4.75561">
        <ele>364</ele>
        <time>2020-11-13T08:44:37.000Z</time>
      </trkpt>
      <trkpt lat="49.8712" lon="4.75563">
        <ele>364</ele>
        <time>2020-11-13T08:44:38.000Z</time>
      </trkpt>
      <trkpt lat="49.87119" lon="4.75565">
        <ele>364</ele>
        <time>2020-11-13T08:44:39.000Z</time>
      </trkpt>
      <trkpt lat="49.87119" lon="4.75567">
        <ele>364</ele>
        <time>2020-11-13T08:44:40.000Z</time>
      </trkpt>
      <trkpt lat="49.87118" lon="4.75569">
        <ele>364</ele>
        <time>2020-11-13T08:44:41.000Z</time>
      </trkpt>
      <trkpt lat="49.87117" lon="4.75572">
        <ele>364</ele>
        <time>2020-11-13T08:44:42.000Z</time>
      </trkpt>
      <trkpt lat="49.87117" lon="4.75575">
        <ele>364</ele>
        <time>2020-11-13T08:44:43.000Z</time>
      </trkpt>
      <trkpt lat="49.87117" lon="4.75578">
        <ele>364</ele>
        <time>2020-11-13T08:44:44.000Z</time>
      </trkpt>
      <trkpt lat="49.87117" lon="4.7558">
        <ele>364</ele>
        <time>2020-11-13T08:44:45.000Z</time>
      </trkpt>
      <trkpt lat="49.87118" lon="4.75582">
        <ele>364</ele>
        <time>2020-11-13T08:44:46.000Z</time>
      </trkpt>
      <trkpt lat="49.87118" lon="4.75583">
        <ele>364</ele>
        <time>2020-11-13T08:44:47.000Z</time>
      </trkpt>
      <trkpt lat="49.8712" lon="4.75586">
        <ele>364</ele>
        <time>2020-11-13T08:44:48.000Z</time>
      </trkpt>
      <trkpt lat="49.87121" lon="4.75588">
        <ele>365</ele>
        <time>2020-11-13T08:44:49.000Z</time>
      </trkpt>
      <trkpt lat="49.87122" lon="4.75591">
        <ele>365</ele>
        <time>2020-11-13T08:44:50.000Z</time>
      </trkpt>
      <trkpt lat="49.87123" lon="4.75593">
        <ele>365</ele>
        <time>2020-11-13T08:44:51.000Z</time>
      </trkpt>
      <trkpt lat="49.87125" lon="4.75596">
        <ele>365</ele>
        <time>2020-11-13T08:44:52.000Z</time>
      </trkpt>
      <trkpt lat="49.87126" lon="4.75598">
        <ele>365</ele>
        <time>2020-11-13T08:44:53.000Z</time>
      </trkpt>
      <trkpt lat="49.87127" lon="4.756">
        <ele>365</ele>
        <time>2020-11-13T08:44:54.000Z</time>
      </trkpt>
      <trkpt lat="49.87129" lon="4.75603">
        <ele>365</ele>
        <time>2020-11-13T08:44:55.000Z</time>
      </trkpt>
      <trkpt lat="49.8713" lon="4.75605">
        <ele>366</ele>
        <time>2020-11-13T08:44:56.000Z</time>
      </trkpt>
      <trkpt lat="49.87131" lon="4.75607">
        <ele>366</ele>
        <time>2020-11-13T08:44:57.000Z</time>
      </trkpt>
      <trkpt lat="49.87132" lon="4.75609">
        <ele>366</ele>
        <time>2020-11-13T08:44:58.000Z</time>
      </trkpt>
      <trkpt lat="49.87133" lon="4.75612">
        <ele>366</ele>
        <time>2020-11-13T08:44:59.000Z</time>
      </trkpt>
      <trkpt lat="49.87135" lon="4.75614">
        <ele>366</ele>
        <time>2020-11-13T08:45:00.000Z</time>
      </trkpt>
      <trkpt lat="49.87136" lon="4.75617">
        <ele>367</ele>
        <time>2020-11-13T08:45:01.000Z</time>
      </trkpt>
      <trkpt lat="49.87138" lon="4.75619">
        <ele>367</ele>
        <time>2020-11-13T08:45:02.000Z</time>
      </trkpt>
      <trkpt lat="49.87139" lon="4.75622">
        <ele>367</ele>
        <time>2020-11-13T08:45:03.000Z</time>
      </trkpt>
      <trkpt lat="49.8714" lon="4.75625">
        <ele>367</ele>
        <time>2020-11-13T08:45:04.000Z</time>
      </trkpt>
      <trkpt lat="49.87142" lon="4.75628">
        <ele>367</ele>
        <time>2020-11-13T08:45:05.000Z</time>
      </trkpt>
      <trkpt lat="49.87143" lon="4.7563">
        <ele>368</ele>
        <time>2020-11-13T08:45:06.000Z</time>
      </trkpt>
      <trkpt lat="49.87145" lon="4.75633">
        <ele>368</ele>
        <time>2020-11-13T08:45:07.000Z</time>
      </trkpt>
      <trkpt lat="49.87146" lon="4.75636">
        <ele>368</ele>
        <time>2020-11-13T08:45:08.000Z</time>
      </trkpt>
      <trkpt lat="49.87148" lon="4.75638">
        <ele>368</ele>
        <time>2020-11-13T08:45:09.000Z</time>
      </trkpt>
      <trkpt lat="49.8715" lon="4.75641">
        <ele>369</ele>
        <time>2020-11-13T08:45:10.000Z</time>
      </trkpt>
      <trkpt lat="49.87152" lon="4.75644">
        <ele>369</ele>
        <time>2020-11-13T08:45:11.000Z</time>
      </trkpt>
      <trkpt lat="49.87153" lon="4.75647">
        <ele>369</ele>
        <time>2020-11-13T08:45:12.000Z</time>
      </trkpt>
      <trkpt lat="49.87154" lon="4.75649">
        <ele>370</ele>
        <time>2020-11-13T08:45:13.000Z</time>
      </trkpt>
      <trkpt lat="49.87156" lon="4.75652">
        <ele>370</ele>
        <time>2020-11-13T08:45:14.000Z</time>
      </trkpt>
      <trkpt lat="49.87157" lon="4.75656">
        <ele>370</ele>
        <time>2020-11-13T08:45:15.000Z</time>
      </trkpt>
      <trkpt lat="49.87159" lon="4.75659">
        <ele>370</ele>
        <time>2020-11-13T08:45:16.000Z</time>
      </trkpt>
      <trkpt lat="49.8716" lon="4.75663">
        <ele>371</ele>
        <time>2020-11-13T08:45:17.000Z</time>
      </trkpt>
      <trkpt lat="49.87162" lon="4.75666">
        <ele>371</ele>
        <time>2020-11-13T08:45:18.000Z</time>
      </trkpt>
      <trkpt lat="49.87163" lon="4.7567">
        <ele>371</ele>
        <time>2020-11-13T08:45:19.000Z</time>
      </trkpt>
      <trkpt lat="49.87164" lon="4.75674">
        <ele>371</ele>
        <time>2020-11-13T08:45:20.000Z</time>
      </trkpt>
      <trkpt lat="49.87165" lon="4.75677">
        <ele>372</ele>
        <time>2020-11-13T08:45:21.000Z</time>
      </trkpt>
      <trkpt lat="49.87166" lon="4.7568">
        <ele>372</ele>
        <time>2020-11-13T08:45:22.000Z</time>
      </trkpt>
      <trkpt lat="49.87167" lon="4.75683">
        <ele>372</ele>
        <time>2020-11-13T08:45:23.000Z</time>
      </trkpt>
      <trkpt lat="49.87168" lon="4.75685">
        <ele>372</ele>
        <time>2020-11-13T08:45:24.000Z</time>
      </trkpt>
      <trkpt lat="49.87169" lon="4.75687">
        <ele>373</ele>
        <time>2020-11-13T08:45:25.000Z</time>
      </trkpt>
      <trkpt lat="49.8717" lon="4.7569">
        <ele>373</ele>
        <time>2020-11-13T08:45:26.000Z</time>
      </trkpt>
      <trkpt lat="49.8717" lon="4.75692">
        <ele>373</ele>
        <time>2020-11-13T08:45:27.000Z</time>
      </trkpt>
      <trkpt lat="49.87171" lon="4.75694">
        <ele>373</ele>
        <time>2020-11-13T08:45:28.000Z</time>
      </trkpt>
      <trkpt lat="49.87172" lon="4.75697">
        <ele>373</ele>
        <time>2020-11-13T08:45:29.000Z</time>
      </trkpt>
      <trkpt lat="49.87173" lon="4.75699">
        <ele>374</ele>
        <time>2020-11-13T08:45:30.000Z</time>
      </trkpt>
      <trkpt lat="49.87173" lon="4.75702">
        <ele>374</ele>
        <time>2020-11-13T08:45:31.000Z</time>
      </trkpt>
      <trkpt lat="49.87174" lon="4.75704">
        <ele>374</ele>
        <time>2020-11-13T08:45:32.000Z</time>
      </trkpt>
      <trkpt lat="49.87176" lon="4.75707">
        <ele>374</ele>
        <time>2020-11-13T08:45:33.000Z</time>
      </trkpt>
      <trkpt lat="49.87176" lon="4.75709">
        <ele>374</ele>
        <time>2020-11-13T08:45:34.000Z</time>
      </trkpt>
      <trkpt lat="49.87177" lon="4.75711">
        <ele>374</ele>
        <time>2020-11-13T08:45:35.000Z</time>
      </trkpt>
      <trkpt lat="49.87178" lon="4.75713">
        <ele>374</ele>
        <time>2020-11-13T08:45:36.000Z</time>
      </trkpt>
      <trkpt lat="49.87179" lon="4.75716">
        <ele>375</ele>
        <time>2020-11-13T08:45:37.000Z</time>
      </trkpt>
      <trkpt lat="49.87181" lon="4.75718">
        <ele>375</ele>
        <time>2020-11-13T08:45:38.000Z</time>
      </trkpt>
      <trkpt lat="49.87182" lon="4.75721">
        <ele>375</ele>
        <time>2020-11-13T08:45:39.000Z</time>
      </trkpt>
      <trkpt lat="49.87184" lon="4.75723">
        <ele>375</ele>
        <time>2020-11-13T08:45:40.000Z</time>
      </trkpt>
      <trkpt lat="49.87185" lon="4.75725">
        <ele>376</ele>
        <time>2020-11-13T08:45:41.000Z</time>
      </trkpt>
      <trkpt lat="49.87187" lon="4.75727">
        <ele>376</ele>
        <time>2020-11-13T08:45:42.000Z</time>
      </trkpt>
      <trkpt lat="49.87188" lon="4.75729">
        <ele>376</ele>
        <time>2020-11-13T08:45:43.000Z</time>
      </trkpt>
      <trkpt lat="49.87189" lon="4.75731">
        <ele>376</ele>
        <time>2020-11-13T08:45:44.000Z</time>
      </trkpt>
      <trkpt lat="49.87191" lon="4.75733">
        <ele>377</ele>
        <time>2020-11-13T08:45:45.000Z</time>
      </trkpt>
      <trkpt lat="49.87192" lon="4.75734">
        <ele>377</ele>
        <time>2020-11-13T08:45:46.000Z</time>
      </trkpt>
      <trkpt lat="49.87194" lon="4.75736">
        <ele>377</ele>
        <time>2020-11-13T08:45:47.000Z</time>
      </trkpt>
      <trkpt lat="49.87195" lon="4.75738">
        <ele>378</ele>
        <time>2020-11-13T08:45:48.000Z</time>
      </trkpt>
      <trkpt lat="49.87197" lon="4.7574">
        <ele>378</ele>
        <time>2020-11-13T08:45:49.000Z</time>
      </trkpt>
      <trkpt lat="49.87198" lon="4.75742">
        <ele>378</ele>
        <time>2020-11-13T08:45:50.000Z</time>
      </trkpt>
      <trkpt lat="49.87199" lon="4.75744">
        <ele>378</ele>
        <time>2020-11-13T08:45:51.000Z</time>
      </trkpt>
      <trkpt lat="49.87201" lon="4.75746">
        <ele>379</ele>
        <time>2020-11-13T08:45:52.000Z</time>
      </trkpt>
      <trkpt lat="49.87202" lon="4.75748">
        <ele>379</ele>
        <time>2020-11-13T08:45:53.000Z</time>
      </trkpt>
      <trkpt lat="49.87203" lon="4.7575">
        <ele>379</ele>
        <time>2020-11-13T08:45:54.000Z</time>
      </trkpt>
      <trkpt lat="49.87204" lon="4.75752">
        <ele>379</ele>
        <time>2020-11-13T08:45:55.000Z</time>
      </trkpt>
      <trkpt lat="49.87206" lon="4.75754">
        <ele>379</ele>
        <time>2020-11-13T08:45:56.000Z</time>
      </trkpt>
      <trkpt lat="49.87207" lon="4.75756">
        <ele>380</ele>
        <time>2020-11-13T08:45:57.000Z</time>
      </trkpt>
      <trkpt lat="49.87209" lon="4.75759">
        <ele>380</ele>
        <time>2020-11-13T08:45:58.000Z</time>
      </trkpt>
      <trkpt lat="49.8721" lon="4.7576">
        <ele>380</ele>
        <time>2020-11-13T08:45:59.000Z</time>
      </trkpt>
      <trkpt lat="49.87211" lon="4.75762">
        <ele>381</ele>
        <time>2020-11-13T08:46:00.000Z</time>
      </trkpt>
      <trkpt lat="49.87212" lon="4.75763">
        <ele>381</ele>
        <time>2020-11-13T08:46:01.000Z</time>
      </trkpt>
      <trkpt lat="49.87213" lon="4.75765">
        <ele>381</ele>
        <time>2020-11-13T08:46:02.000Z</time>
      </trkpt>
      <trkpt lat="49.87214" lon="4.75767">
        <ele>382</ele>
        <time>2020-11-13T08:46:03.000Z</time>
      </trkpt>
      <trkpt lat="49.87215" lon="4.75768">
        <ele>382</ele>
        <time>2020-11-13T08:46:04.000Z</time>
      </trkpt>
      <trkpt lat="49.87217" lon="4.7577">
        <ele>382</ele>
        <time>2020-11-13T08:46:05.000Z</time>
      </trkpt>
      <trkpt lat="49.87217" lon="4.75771">
        <ele>383</ele>
        <time>2020-11-13T08:46:06.000Z</time>
      </trkpt>
      <trkpt lat="49.87219" lon="4.75773">
        <ele>383</ele>
        <time>2020-11-13T08:46:07.000Z</time>
      </trkpt>
      <trkpt lat="49.8722" lon="4.75775">
        <ele>383</ele>
        <time>2020-11-13T08:46:08.000Z</time>
      </trkpt>
      <trkpt lat="49.87221" lon="4.75776">
        <ele>384</ele>
        <time>2020-11-13T08:46:09.000Z</time>
      </trkpt>
      <trkpt lat="49.87223" lon="4.75778">
        <ele>384</ele>
        <time>2020-11-13T08:46:10.000Z</time>
      </trkpt>
      <trkpt lat="49.87224" lon="4.7578">
        <ele>384</ele>
        <time>2020-11-13T08:46:11.000Z</time>
      </trkpt>
      <trkpt lat="49.87225" lon="4.75781">
        <ele>385</ele>
        <time>2020-11-13T08:46:12.000Z</time>
      </trkpt>
      <trkpt lat="49.87226" lon="4.75782">
        <ele>385</ele>
        <time>2020-11-13T08:46:13.000Z</time>
      </trkpt>
      <trkpt lat="49.87227" lon="4.75784">
        <ele>385</ele>
        <time>2020-11-13T08:46:14.000Z</time>
      </trkpt>
      <trkpt lat="49.87227" lon="4.75786">
        <ele>386</ele>
        <time>2020-11-13T08:46:15.000Z</time>
      </trkpt>
      <trkpt lat="49.87228" lon="4.75789">
        <ele>386</ele>
        <time>2020-11-13T08:46:16.000Z</time>
      </trkpt>
      <trkpt lat="49.87228" lon="4.75791">
        <ele>386</ele>
        <time>2020-11-13T08:46:17.000Z</time>
      </trkpt>
      <trkpt lat="49.87229" lon="4.75792">
        <ele>386</ele>
        <time>2020-11-13T08:46:18.000Z</time>
      </trkpt>
      <trkpt lat="49.87229" lon="4.75794">
        <ele>387</ele>
        <time>2020-11-13T08:46:19.000Z</time>
      </trkpt>
      <trkpt lat="49.8723" lon="4.75795">
        <ele>387</ele>
        <time>2020-11-13T08:46:20.000Z</time>
      </trkpt>
      <trkpt lat="49.8723" lon="4.75796">
        <ele>387</ele>
        <time>2020-11-13T08:46:21.000Z</time>
      </trkpt>
      <trkpt lat="49.87232" lon="4.75798">
        <ele>387</ele>
        <time>2020-11-13T08:46:22.000Z</time>
      </trkpt>
      <trkpt lat="49.87232" lon="4.758">
        <ele>388</ele>
        <time>2020-11-13T08:46:23.000Z</time>
      </trkpt>
      <trkpt lat="49.87233" lon="4.75802">
        <ele>388</ele>
        <time>2020-11-13T08:46:24.000Z</time>
      </trkpt>
      <trkpt lat="49.87234" lon="4.75804">
        <ele>388</ele>
        <time>2020-11-13T08:46:25.000Z</time>
      </trkpt>
      <trkpt lat="49.87235" lon="4.75806">
        <ele>388</ele>
        <time>2020-11-13T08:46:26.000Z</time>
      </trkpt>
      <trkpt lat="49.87236" lon="4.75807">
        <ele>388</ele>
        <time>2020-11-13T08:46:27.000Z</time>
      </trkpt>
      <trkpt lat="49.87237" lon="4.75809">
        <ele>389</ele>
        <time>2020-11-13T08:46:28.000Z</time>
      </trkpt>
      <trkpt lat="49.87238" lon="4.7581">
        <ele>389</ele>
        <time>2020-11-13T08:46:29.000Z</time>
      </trkpt>
      <trkpt lat="49.87239" lon="4.75812">
        <ele>389</ele>
        <time>2020-11-13T08:46:30.000Z</time>
      </trkpt>
      <trkpt lat="49.8724" lon="4.75813">
        <ele>389</ele>
        <time>2020-11-13T08:46:31.000Z</time>
      </trkpt>
      <trkpt lat="49.87241" lon="4.75815">
        <ele>390</ele>
        <time>2020-11-13T08:46:32.000Z</time>
      </trkpt>
      <trkpt lat="49.87241" lon="4.75817">
        <ele>390</ele>
        <time>2020-11-13T08:46:33.000Z</time>
      </trkpt>
      <trkpt lat="49.87242" lon="4.75818">
        <ele>390</ele>
        <time>2020-11-13T08:46:34.000Z</time>
      </trkpt>
      <trkpt lat="49.87243" lon="4.75821">
        <ele>390</ele>
        <time>2020-11-13T08:46:35.000Z</time>
      </trkpt>
      <trkpt lat="49.87243" lon="4.75822">
        <ele>390</ele>
        <time>2020-11-13T08:46:36.000Z</time>
      </trkpt>
      <trkpt lat="49.87244" lon="4.75824">
        <ele>390</ele>
        <time>2020-11-13T08:46:37.000Z</time>
      </trkpt>
      <trkpt lat="49.87245" lon="4.75826">
        <ele>391</ele>
        <time>2020-11-13T08:46:38.000Z</time>
      </trkpt>
      <trkpt lat="49.87246" lon="4.75828">
        <ele>391</ele>
        <time>2020-11-13T08:46:39.000Z</time>
      </trkpt>
      <trkpt lat="49.87247" lon="4.7583">
        <ele>391</ele>
        <time>2020-11-13T08:46:40.000Z</time>
      </trkpt>
      <trkpt lat="49.87247" lon="4.75832">
        <ele>391</ele>
        <time>2020-11-13T08:46:41.000Z</time>
      </trkpt>
      <trkpt lat="49.87248" lon="4.75834">
        <ele>391</ele>
        <time>2020-11-13T08:46:42.000Z</time>
      </trkpt>
      <trkpt lat="49.87248" lon="4.75837">
        <ele>391</ele>
        <time>2020-11-13T08:46:43.000Z</time>
      </trkpt>
      <trkpt lat="49.87249" lon="4.75838">
        <ele>392</ele>
        <time>2020-11-13T08:46:44.000Z</time>
      </trkpt>
      <trkpt lat="49.8725" lon="4.7584">
        <ele>392</ele>
        <time>2020-11-13T08:46:45.000Z</time>
      </trkpt>
      <trkpt lat="49.87251" lon="4.75841">
        <ele>392</ele>
        <time>2020-11-13T08:46:46.000Z</time>
      </trkpt>
      <trkpt lat="49.87252" lon="4.75843">
        <ele>392</ele>
        <time>2020-11-13T08:46:47.000Z</time>
      </trkpt>
      <trkpt lat="49.87253" lon="4.75846">
        <ele>392</ele>
        <time>2020-11-13T08:46:48.000Z</time>
      </trkpt>
      <trkpt lat="49.87253" lon="4.75847">
        <ele>392</ele>
        <time>2020-11-13T08:46:49.000Z</time>
      </trkpt>
      <trkpt lat="49.87254" lon="4.75849">
        <ele>392</ele>
        <time>2020-11-13T08:46:50.000Z</time>
      </trkpt>
      <trkpt lat="49.87255" lon="4.7585">
        <ele>392</ele>
        <time>2020-11-13T08:46:51.000Z</time>
      </trkpt>
      <trkpt lat="49.87256" lon="4.75853">
        <ele>392</ele>
        <time>2020-11-13T08:46:52.000Z</time>
      </trkpt>
      <trkpt lat="49.87257" lon="4.75855">
        <ele>392</ele>
        <time>2020-11-13T08:46:53.000Z</time>
      </trkpt>
      <trkpt lat="49.87258" lon="4.75857">
        <ele>392</ele>
        <time>2020-11-13T08:46:54.000Z</time>
      </trkpt>
      <trkpt lat="49.87259" lon="4.7586">
        <ele>392</ele>
        <time>2020-11-13T08:46:55.000Z</time>
      </trkpt>
      <trkpt lat="49.8726" lon="4.75862">
        <ele>392</ele>
        <time>2020-11-13T08:46:56.000Z</time>
      </trkpt>
      <trkpt lat="49.87261" lon="4.75865">
        <ele>392</ele>
        <time>2020-11-13T08:46:57.000Z</time>
      </trkpt>
      <trkpt lat="49.87262" lon="4.75867">
        <ele>393</ele>
        <time>2020-11-13T08:46:58.000Z</time>
      </trkpt>
      <trkpt lat="49.87263" lon="4.75869">
        <ele>393</ele>
        <time>2020-11-13T08:46:59.000Z</time>
      </trkpt>
      <trkpt lat="49.87264" lon="4.75871">
        <ele>393</ele>
        <time>2020-11-13T08:47:00.000Z</time>
      </trkpt>
      <trkpt lat="49.87265" lon="4.75873">
        <ele>393</ele>
        <time>2020-11-13T08:47:01.000Z</time>
      </trkpt>
      <trkpt lat="49.87267" lon="4.75875">
        <ele>393</ele>
        <time>2020-11-13T08:47:02.000Z</time>
      </trkpt>
      <trkpt lat="49.87268" lon="4.75877">
        <ele>393</ele>
        <time>2020-11-13T08:47:03.000Z</time>
      </trkpt>
      <trkpt lat="49.8727" lon="4.7588">
        <ele>393</ele>
        <time>2020-11-13T08:47:04.000Z</time>
      </trkpt>
      <trkpt lat="49.87271" lon="4.75882">
        <ele>393</ele>
        <time>2020-11-13T08:47:05.000Z</time>
      </trkpt>
      <trkpt lat="49.87272" lon="4.75885">
        <ele>393</ele>
        <time>2020-11-13T08:47:06.000Z</time>
      </trkpt>
      <trkpt lat="49.87273" lon="4.75888">
        <ele>393</ele>
        <time>2020-11-13T08:47:07.000Z</time>
      </trkpt>
      <trkpt lat="49.87274" lon="4.7589">
        <ele>393</ele>
        <time>2020-11-13T08:47:08.000Z</time>
      </trkpt>
      <trkpt lat="49.87275" lon="4.75893">
        <ele>394</ele>
        <time>2020-11-13T08:47:09.000Z</time>
      </trkpt>
      <trkpt lat="49.87276" lon="4.75895">
        <ele>394</ele>
        <time>2020-11-13T08:47:10.000Z</time>
      </trkpt>
      <trkpt lat="49.87278" lon="4.75898">
        <ele>394</ele>
        <time>2020-11-13T08:47:11.000Z</time>
      </trkpt>
      <trkpt lat="49.87278" lon="4.759">
        <ele>394</ele>
        <time>2020-11-13T08:47:12.000Z</time>
      </trkpt>
      <trkpt lat="49.87279" lon="4.75903">
        <ele>394</ele>
        <time>2020-11-13T08:47:13.000Z</time>
      </trkpt>
      <trkpt lat="49.87281" lon="4.75905">
        <ele>394</ele>
        <time>2020-11-13T08:47:14.000Z</time>
      </trkpt>
      <trkpt lat="49.87282" lon="4.75907">
        <ele>394</ele>
        <time>2020-11-13T08:47:15.000Z</time>
      </trkpt>
      <trkpt lat="49.87284" lon="4.75909">
        <ele>394</ele>
        <time>2020-11-13T08:47:16.000Z</time>
      </trkpt>
      <trkpt lat="49.87284" lon="4.75911">
        <ele>394</ele>
        <time>2020-11-13T08:47:17.000Z</time>
      </trkpt>
      <trkpt lat="49.87286" lon="4.75914">
        <ele>394</ele>
        <time>2020-11-13T08:47:18.000Z</time>
      </trkpt>
      <trkpt lat="49.87287" lon="4.75916">
        <ele>394</ele>
        <time>2020-11-13T08:47:19.000Z</time>
      </trkpt>
      <trkpt lat="49.87288" lon="4.75919">
        <ele>395</ele>
        <time>2020-11-13T08:47:20.000Z</time>
      </trkpt>
      <trkpt lat="49.87289" lon="4.75921">
        <ele>395</ele>
        <time>2020-11-13T08:47:21.000Z</time>
      </trkpt>
      <trkpt lat="49.8729" lon="4.75924">
        <ele>395</ele>
        <time>2020-11-13T08:47:22.000Z</time>
      </trkpt>
      <trkpt lat="49.87292" lon="4.75927">
        <ele>395</ele>
        <time>2020-11-13T08:47:23.000Z</time>
      </trkpt>
      <trkpt lat="49.87293" lon="4.75929">
        <ele>395</ele>
        <time>2020-11-13T08:47:24.000Z</time>
      </trkpt>
      <trkpt lat="49.87294" lon="4.75932">
        <ele>395</ele>
        <time>2020-11-13T08:47:25.000Z</time>
      </trkpt>
      <trkpt lat="49.87296" lon="4.75935">
        <ele>395</ele>
        <time>2020-11-13T08:47:26.000Z</time>
      </trkpt>
      <trkpt lat="49.87297" lon="4.75938">
        <ele>396</ele>
        <time>2020-11-13T08:47:27.000Z</time>
      </trkpt>
      <trkpt lat="49.87298" lon="4.75941">
        <ele>396</ele>
        <time>2020-11-13T08:47:28.000Z</time>
      </trkpt>
      <trkpt lat="49.87299" lon="4.75943">
        <ele>396</ele>
        <time>2020-11-13T08:47:29.000Z</time>
      </trkpt>
      <trkpt lat="49.873" lon="4.75946">
        <ele>396</ele>
        <time>2020-11-13T08:47:30.000Z</time>
      </trkpt>
      <trkpt lat="49.873" lon="4.75949">
        <ele>396</ele>
        <time>2020-11-13T08:47:31.000Z</time>
      </trkpt>
      <trkpt lat="49.87301" lon="4.75952">
        <ele>397</ele>
        <time>2020-11-13T08:47:32.000Z</time>
      </trkpt>
      <trkpt lat="49.87303" lon="4.75954">
        <ele>397</ele>
        <time>2020-11-13T08:47:33.000Z</time>
      </trkpt>
      <trkpt lat="49.87304" lon="4.75956">
        <ele>397</ele>
        <time>2020-11-13T08:47:34.000Z</time>
      </trkpt>
      <trkpt lat="49.87306" lon="4.75958">
        <ele>397</ele>
        <time>2020-11-13T08:47:35.000Z</time>
      </trkpt>
      <trkpt lat="49.87307" lon="4.75959">
        <ele>397</ele>
        <time>2020-11-13T08:47:36.000Z</time>
      </trkpt>
      <trkpt lat="49.87308" lon="4.75961">
        <ele>397</ele>
        <time>2020-11-13T08:47:37.000Z</time>
      </trkpt>
      <trkpt lat="49.8731" lon="4.75963">
        <ele>397</ele>
        <time>2020-11-13T08:47:38.000Z</time>
      </trkpt>
      <trkpt lat="49.87311" lon="4.75965">
        <ele>397</ele>
        <time>2020-11-13T08:47:39.000Z</time>
      </trkpt>
      <trkpt lat="49.87312" lon="4.75967">
        <ele>397</ele>
        <time>2020-11-13T08:47:40.000Z</time>
      </trkpt>
      <trkpt lat="49.87314" lon="4.75969">
        <ele>397</ele>
        <time>2020-11-13T08:47:41.000Z</time>
      </trkpt>
      <trkpt lat="49.87315" lon="4.75972">
        <ele>398</ele>
        <time>2020-11-13T08:47:42.000Z</time>
      </trkpt>
      <trkpt lat="49.87317" lon="4.75975">
        <ele>398</ele>
        <time>2020-11-13T08:47:43.000Z</time>
      </trkpt>
      <trkpt lat="49.87319" lon="4.75977">
        <ele>398</ele>
        <time>2020-11-13T08:47:44.000Z</time>
      </trkpt>
      <trkpt lat="49.8732" lon="4.75979">
        <ele>398</ele>
        <time>2020-11-13T08:47:45.000Z</time>
      </trkpt>
      <trkpt lat="49.87322" lon="4.75981">
        <ele>398</ele>
        <time>2020-11-13T08:47:46.000Z</time>
      </trkpt>
      <trkpt lat="49.87324" lon="4.75983">
        <ele>398</ele>
        <time>2020-11-13T08:47:47.000Z</time>
      </trkpt>
      <trkpt lat="49.87326" lon="4.75985">
        <ele>399</ele>
        <time>2020-11-13T08:47:48.000Z</time>
      </trkpt>
      <trkpt lat="49.87328" lon="4.75988">
        <ele>399</ele>
        <time>2020-11-13T08:47:49.000Z</time>
      </trkpt>
      <trkpt lat="49.8733" lon="4.75991">
        <ele>399</ele>
        <time>2020-11-13T08:47:50.000Z</time>
      </trkpt>
      <trkpt lat="49.87332" lon="4.75994">
        <ele>399</ele>
        <time>2020-11-13T08:47:51.000Z</time>
      </trkpt>
      <trkpt lat="49.87334" lon="4.75997">
        <ele>399</ele>
        <time>2020-11-13T08:47:52.000Z</time>
      </trkpt>
      <trkpt lat="49.87336" lon="4.75999">
        <ele>399</ele>
        <time>2020-11-13T08:47:53.000Z</time>
      </trkpt>
      <trkpt lat="49.87338" lon="4.76002">
        <ele>400</ele>
        <time>2020-11-13T08:47:54.000Z</time>
      </trkpt>
      <trkpt lat="49.87341" lon="4.76005">
        <ele>400</ele>
        <time>2020-11-13T08:47:55.000Z</time>
      </trkpt>
      <trkpt lat="49.87343" lon="4.76007">
        <ele>400</ele>
        <time>2020-11-13T08:47:56.000Z</time>
      </trkpt>
      <trkpt lat="49.87345" lon="4.7601">
        <ele>400</ele>
        <time>2020-11-13T08:47:57.000Z</time>
      </trkpt>
      <trkpt lat="49.87348" lon="4.76014">
        <ele>400</ele>
        <time>2020-11-13T08:47:58.000Z</time>
      </trkpt>
      <trkpt lat="49.8735" lon="4.76016">
        <ele>400</ele>
        <time>2020-11-13T08:47:59.000Z</time>
      </trkpt>
      <trkpt lat="49.87352" lon="4.76019">
        <ele>400</ele>
        <time>2020-11-13T08:48:00.000Z</time>
      </trkpt>
      <trkpt lat="49.87354" lon="4.76023">
        <ele>400</ele>
        <time>2020-11-13T08:48:01.000Z</time>
      </trkpt>
      <trkpt lat="49.87357" lon="4.76026">
        <ele>400</ele>
        <time>2020-11-13T08:48:02.000Z</time>
      </trkpt>
      <trkpt lat="49.87359" lon="4.7603">
        <ele>400</ele>
        <time>2020-11-13T08:48:03.000Z</time>
      </trkpt>
      <trkpt lat="49.87361" lon="4.76033">
        <ele>401</ele>
        <time>2020-11-13T08:48:04.000Z</time>
      </trkpt>
      <trkpt lat="49.87363" lon="4.76037">
        <ele>401</ele>
        <time>2020-11-13T08:48:05.000Z</time>
      </trkpt>
      <trkpt lat="49.87366" lon="4.7604">
        <ele>401</ele>
        <time>2020-11-13T08:48:06.000Z</time>
      </trkpt>
      <trkpt lat="49.87368" lon="4.76044">
        <ele>401</ele>
        <time>2020-11-13T08:48:07.000Z</time>
      </trkpt>
      <trkpt lat="49.8737" lon="4.76046">
        <ele>401</ele>
        <time>2020-11-13T08:48:08.000Z</time>
      </trkpt>
      <trkpt lat="49.87372" lon="4.76049">
        <ele>401</ele>
        <time>2020-11-13T08:48:09.000Z</time>
      </trkpt>
      <trkpt lat="49.87374" lon="4.76051">
        <ele>401</ele>
        <time>2020-11-13T08:48:10.000Z</time>
      </trkpt>
      <trkpt lat="49.87376" lon="4.76054">
        <ele>401</ele>
        <time>2020-11-13T08:48:11.000Z</time>
      </trkpt>
      <trkpt lat="49.87378" lon="4.76056">
        <ele>401</ele>
        <time>2020-11-13T08:48:12.000Z</time>
      </trkpt>
      <trkpt lat="49.8738" lon="4.76059">
        <ele>401</ele>
        <time>2020-11-13T08:48:13.000Z</time>
      </trkpt>
      <trkpt lat="49.87383" lon="4.76062">
        <ele>401</ele>
        <time>2020-11-13T08:48:14.000Z</time>
      </trkpt>
      <trkpt lat="49.87385" lon="4.76066">
        <ele>401</ele>
        <time>2020-11-13T08:48:15.000Z</time>
      </trkpt>
      <trkpt lat="49.87387" lon="4.76069">
        <ele>401</ele>
        <time>2020-11-13T08:48:16.000Z</time>
      </trkpt>
      <trkpt lat="49.87389" lon="4.76073">
        <ele>401</ele>
        <time>2020-11-13T08:48:17.000Z</time>
      </trkpt>
      <trkpt lat="49.8739" lon="4.76076">
        <ele>401</ele>
        <time>2020-11-13T08:48:18.000Z</time>
      </trkpt>
      <trkpt lat="49.87392" lon="4.76078">
        <ele>401</ele>
        <time>2020-11-13T08:48:19.000Z</time>
      </trkpt>
      <trkpt lat="49.87394" lon="4.76081">
        <ele>401</ele>
        <time>2020-11-13T08:48:20.000Z</time>
      </trkpt>
      <trkpt lat="49.87395" lon="4.76083">
        <ele>401</ele>
        <time>2020-11-13T08:48:21.000Z</time>
      </trkpt>
      <trkpt lat="49.87397" lon="4.76085">
        <ele>402</ele>
        <time>2020-11-13T08:48:22.000Z</time>
      </trkpt>
      <trkpt lat="49.87398" lon="4.76087">
        <ele>402</ele>
        <time>2020-11-13T08:48:23.000Z</time>
      </trkpt>
      <trkpt lat="49.87399" lon="4.76089">
        <ele>402</ele>
        <time>2020-11-13T08:48:24.000Z</time>
      </trkpt>
      <trkpt lat="49.874" lon="4.7609">
        <ele>402</ele>
        <time>2020-11-13T08:48:25.000Z</time>
      </trkpt>
      <trkpt lat="49.87401" lon="4.76092">
        <ele>402</ele>
        <time>2020-11-13T08:48:26.000Z</time>
      </trkpt>
      <trkpt lat="49.87404" lon="4.76094">
        <ele>402</ele>
        <time>2020-11-13T08:48:27.000Z</time>
      </trkpt>
      <trkpt lat="49.87406" lon="4.76096">
        <ele>402</ele>
        <time>2020-11-13T08:48:28.000Z</time>
      </trkpt>
      <trkpt lat="49.87408" lon="4.76099">
        <ele>402</ele>
        <time>2020-11-13T08:48:29.000Z</time>
      </trkpt>
      <trkpt lat="49.87409" lon="4.76102">
        <ele>402</ele>
        <time>2020-11-13T08:48:30.000Z</time>
      </trkpt>
      <trkpt lat="49.87412" lon="4.76105">
        <ele>402</ele>
        <time>2020-11-13T08:48:31.000Z</time>
      </trkpt>
      <trkpt lat="49.87414" lon="4.76108">
        <ele>402</ele>
        <time>2020-11-13T08:48:32.000Z</time>
      </trkpt>
      <trkpt lat="49.87416" lon="4.76111">
        <ele>402</ele>
        <time>2020-11-13T08:48:33.000Z</time>
      </trkpt>
      <trkpt lat="49.87418" lon="4.76114">
        <ele>402</ele>
        <time>2020-11-13T08:48:34.000Z</time>
      </trkpt>
      <trkpt lat="49.8742" lon="4.76117">
        <ele>402</ele>
        <time>2020-11-13T08:48:35.000Z</time>
      </trkpt>
      <trkpt lat="49.87421" lon="4.76121">
        <ele>402</ele>
        <time>2020-11-13T08:48:36.000Z</time>
      </trkpt>
      <trkpt lat="49.87423" lon="4.76124">
        <ele>403</ele>
        <time>2020-11-13T08:48:37.000Z</time>
      </trkpt>
      <trkpt lat="49.87425" lon="4.76127">
        <ele>403</ele>
        <time>2020-11-13T08:48:38.000Z</time>
      </trkpt>
      <trkpt lat="49.87427" lon="4.7613">
        <ele>403</ele>
        <time>2020-11-13T08:48:39.000Z</time>
      </trkpt>
      <trkpt lat="49.87428" lon="4.76133">
        <ele>403</ele>
        <time>2020-11-13T08:48:40.000Z</time>
      </trkpt>
      <trkpt lat="49.8743" lon="4.76137">
        <ele>403</ele>
        <time>2020-11-13T08:48:41.000Z</time>
      </trkpt>
      <trkpt lat="49.87432" lon="4.7614">
        <ele>403</ele>
        <time>2020-11-13T08:48:42.000Z</time>
      </trkpt>
      <trkpt lat="49.87434" lon="4.76144">
        <ele>403</ele>
        <time>2020-11-13T08:48:43.000Z</time>
      </trkpt>
      <trkpt lat="49.87436" lon="4.76147">
        <ele>403</ele>
        <time>2020-11-13T08:48:44.000Z</time>
      </trkpt>
      <trkpt lat="49.87438" lon="4.7615">
        <ele>403</ele>
        <time>2020-11-13T08:48:45.000Z</time>
      </trkpt>
      <trkpt lat="49.8744" lon="4.76154">
        <ele>403</ele>
        <time>2020-11-13T08:48:46.000Z</time>
      </trkpt>
      <trkpt lat="49.87443" lon="4.76158">
        <ele>404</ele>
        <time>2020-11-13T08:48:47.000Z</time>
      </trkpt>
      <trkpt lat="49.87444" lon="4.76161">
        <ele>404</ele>
        <time>2020-11-13T08:48:48.000Z</time>
      </trkpt>
      <trkpt lat="49.87446" lon="4.76164">
        <ele>404</ele>
        <time>2020-11-13T08:48:49.000Z</time>
      </trkpt>
      <trkpt lat="49.87448" lon="4.76167">
        <ele>404</ele>
        <time>2020-11-13T08:48:50.000Z</time>
      </trkpt>
      <trkpt lat="49.87451" lon="4.76171">
        <ele>404</ele>
        <time>2020-11-13T08:48:51.000Z</time>
      </trkpt>
      <trkpt lat="49.87453" lon="4.76174">
        <ele>404</ele>
        <time>2020-11-13T08:48:52.000Z</time>
      </trkpt>
      <trkpt lat="49.87455" lon="4.76178">
        <ele>404</ele>
        <time>2020-11-13T08:48:53.000Z</time>
      </trkpt>
      <trkpt lat="49.87457" lon="4.76183">
        <ele>403</ele>
        <time>2020-11-13T08:48:54.000Z</time>
      </trkpt>
      <trkpt lat="49.8746" lon="4.76188">
        <ele>403</ele>
        <time>2020-11-13T08:48:55.000Z</time>
      </trkpt>
      <trkpt lat="49.87463" lon="4.76193">
        <ele>403</ele>
        <time>2020-11-13T08:48:56.000Z</time>
      </trkpt>
      <trkpt lat="49.87465" lon="4.76199">
        <ele>403</ele>
        <time>2020-11-13T08:48:57.000Z</time>
      </trkpt>
      <trkpt lat="49.87468" lon="4.76204">
        <ele>403</ele>
        <time>2020-11-13T08:48:58.000Z</time>
      </trkpt>
      <trkpt lat="49.8747" lon="4.76209">
        <ele>402</ele>
        <time>2020-11-13T08:48:59.000Z</time>
      </trkpt>
      <trkpt lat="49.87472" lon="4.76214">
        <ele>402</ele>
        <time>2020-11-13T08:49:00.000Z</time>
      </trkpt>
      <trkpt lat="49.87474" lon="4.7622">
        <ele>402</ele>
        <time>2020-11-13T08:49:01.000Z</time>
      </trkpt>
      <trkpt lat="49.87476" lon="4.76225">
        <ele>402</ele>
        <time>2020-11-13T08:49:02.000Z</time>
      </trkpt>
      <trkpt lat="49.87479" lon="4.76229">
        <ele>402</ele>
        <time>2020-11-13T08:49:03.000Z</time>
      </trkpt>
      <trkpt lat="49.87481" lon="4.76233">
        <ele>402</ele>
        <time>2020-11-13T08:49:04.000Z</time>
      </trkpt>
      <trkpt lat="49.87483" lon="4.76238">
        <ele>402</ele>
        <time>2020-11-13T08:49:05.000Z</time>
      </trkpt>
      <trkpt lat="49.87485" lon="4.76244">
        <ele>402</ele>
        <time>2020-11-13T08:49:06.000Z</time>
      </trkpt>
      <trkpt lat="49.87487" lon="4.7625">
        <ele>401</ele>
        <time>2020-11-13T08:49:07.000Z</time>
      </trkpt>
      <trkpt lat="49.87489" lon="4.76256">
        <ele>401</ele>
        <time>2020-11-13T08:49:08.000Z</time>
      </trkpt>
      <trkpt lat="49.87491" lon="4.76261">
        <ele>401</ele>
        <time>2020-11-13T08:49:09.000Z</time>
      </trkpt>
      <trkpt lat="49.87493" lon="4.76267">
        <ele>401</ele>
        <time>2020-11-13T08:49:10.000Z</time>
      </trkpt>
      <trkpt lat="49.87496" lon="4.76273">
        <ele>401</ele>
        <time>2020-11-13T08:49:11.000Z</time>
      </trkpt>
      <trkpt lat="49.87498" lon="4.76279">
        <ele>401</ele>
        <time>2020-11-13T08:49:12.000Z</time>
      </trkpt>
      <trkpt lat="49.87499" lon="4.76284">
        <ele>401</ele>
        <time>2020-11-13T08:49:13.000Z</time>
      </trkpt>
      <trkpt lat="49.87501" lon="4.7629">
        <ele>401</ele>
        <time>2020-11-13T08:49:14.000Z</time>
      </trkpt>
      <trkpt lat="49.87502" lon="4.76295">
        <ele>401</ele>
        <time>2020-11-13T08:49:15.000Z</time>
      </trkpt>
      <trkpt lat="49.87504" lon="4.76299">
        <ele>401</ele>
        <time>2020-11-13T08:49:16.000Z</time>
      </trkpt>
      <trkpt lat="49.87505" lon="4.76303">
        <ele>401</ele>
        <time>2020-11-13T08:49:17.000Z</time>
      </trkpt>
      <trkpt lat="49.87507" lon="4.76308">
        <ele>401</ele>
        <time>2020-11-13T08:49:18.000Z</time>
      </trkpt>
      <trkpt lat="49.87509" lon="4.76313">
        <ele>401</ele>
        <time>2020-11-13T08:49:19.000Z</time>
      </trkpt>
      <trkpt lat="49.87511" lon="4.76318">
        <ele>401</ele>
        <time>2020-11-13T08:49:20.000Z</time>
      </trkpt>
      <trkpt lat="49.87512" lon="4.76324">
        <ele>401</ele>
        <time>2020-11-13T08:49:21.000Z</time>
      </trkpt>
      <trkpt lat="49.87514" lon="4.7633">
        <ele>401</ele>
        <time>2020-11-13T08:49:22.000Z</time>
      </trkpt>
      <trkpt lat="49.87516" lon="4.76336">
        <ele>401</ele>
        <time>2020-11-13T08:49:23.000Z</time>
      </trkpt>
      <trkpt lat="49.87517" lon="4.76342">
        <ele>401</ele>
        <time>2020-11-13T08:49:24.000Z</time>
      </trkpt>
      <trkpt lat="49.87519" lon="4.76348">
        <ele>401</ele>
        <time>2020-11-13T08:49:25.000Z</time>
      </trkpt>
      <trkpt lat="49.8752" lon="4.76353">
        <ele>401</ele>
        <time>2020-11-13T08:49:26.000Z</time>
      </trkpt>
      <trkpt lat="49.87522" lon="4.76358">
        <ele>401</ele>
        <time>2020-11-13T08:49:27.000Z</time>
      </trkpt>
      <trkpt lat="49.87523" lon="4.76363">
        <ele>401</ele>
        <time>2020-11-13T08:49:28.000Z</time>
      </trkpt>
      <trkpt lat="49.87525" lon="4.76367">
        <ele>401</ele>
        <time>2020-11-13T08:49:29.000Z</time>
      </trkpt>
      <trkpt lat="49.87526" lon="4.76372">
        <ele>401</ele>
        <time>2020-11-13T08:49:30.000Z</time>
      </trkpt>
      <trkpt lat="49.87527" lon="4.76377">
        <ele>401</ele>
        <time>2020-11-13T08:49:31.000Z</time>
      </trkpt>
      <trkpt lat="49.87528" lon="4.76383">
        <ele>401</ele>
        <time>2020-11-13T08:49:32.000Z</time>
      </trkpt>
      <trkpt lat="49.8753" lon="4.76389">
        <ele>401</ele>
        <time>2020-11-13T08:49:33.000Z</time>
      </trkpt>
      <trkpt lat="49.8753" lon="4.76394">
        <ele>401</ele>
        <time>2020-11-13T08:49:34.000Z</time>
      </trkpt>
      <trkpt lat="49.87531" lon="4.764">
        <ele>401</ele>
        <time>2020-11-13T08:49:35.000Z</time>
      </trkpt>
      <trkpt lat="49.87532" lon="4.76405">
        <ele>401</ele>
        <time>2020-11-13T08:49:36.000Z</time>
      </trkpt>
      <trkpt lat="49.87533" lon="4.76411">
        <ele>401</ele>
        <time>2020-11-13T08:49:37.000Z</time>
      </trkpt>
      <trkpt lat="49.87534" lon="4.76416">
        <ele>401</ele>
        <time>2020-11-13T08:49:38.000Z</time>
      </trkpt>
      <trkpt lat="49.87536" lon="4.7642">
        <ele>401</ele>
        <time>2020-11-13T08:49:39.000Z</time>
      </trkpt>
      <trkpt lat="49.87539" lon="4.76424">
        <ele>401</ele>
        <time>2020-11-13T08:49:40.000Z</time>
      </trkpt>
      <trkpt lat="49.87541" lon="4.76428">
        <ele>400</ele>
        <time>2020-11-13T08:49:41.000Z</time>
      </trkpt>
      <trkpt lat="49.87543" lon="4.76433">
        <ele>400</ele>
        <time>2020-11-13T08:49:42.000Z</time>
      </trkpt>
      <trkpt lat="49.87545" lon="4.76437">
        <ele>400</ele>
        <time>2020-11-13T08:49:43.000Z</time>
      </trkpt>
      <trkpt lat="49.87547" lon="4.76442">
        <ele>400</ele>
        <time>2020-11-13T08:49:44.000Z</time>
      </trkpt>
      <trkpt lat="49.87549" lon="4.76447">
        <ele>400</ele>
        <time>2020-11-13T08:49:45.000Z</time>
      </trkpt>
      <trkpt lat="49.87552" lon="4.76451">
        <ele>399</ele>
        <time>2020-11-13T08:49:46.000Z</time>
      </trkpt>
      <trkpt lat="49.87554" lon="4.76457">
        <ele>399</ele>
        <time>2020-11-13T08:49:47.000Z</time>
      </trkpt>
      <trkpt lat="49.87556" lon="4.76462">
        <ele>399</ele>
        <time>2020-11-13T08:49:48.000Z</time>
      </trkpt>
      <trkpt lat="49.87558" lon="4.76467">
        <ele>399</ele>
        <time>2020-11-13T08:49:49.000Z</time>
      </trkpt>
      <trkpt lat="49.87559" lon="4.76472">
        <ele>399</ele>
        <time>2020-11-13T08:49:50.000Z</time>
      </trkpt>
      <trkpt lat="49.8756" lon="4.76477">
        <ele>399</ele>
        <time>2020-11-13T08:49:51.000Z</time>
      </trkpt>
      <trkpt lat="49.87562" lon="4.76482">
        <ele>399</ele>
        <time>2020-11-13T08:49:52.000Z</time>
      </trkpt>
      <trkpt lat="49.87563" lon="4.76487">
        <ele>399</ele>
        <time>2020-11-13T08:49:53.000Z</time>
      </trkpt>
      <trkpt lat="49.87564" lon="4.76493">
        <ele>399</ele>
        <time>2020-11-13T08:49:54.000Z</time>
      </trkpt>
      <trkpt lat="49.87565" lon="4.76497">
        <ele>399</ele>
        <time>2020-11-13T08:49:55.000Z</time>
      </trkpt>
      <trkpt lat="49.87566" lon="4.76502">
        <ele>399</ele>
        <time>2020-11-13T08:49:56.000Z</time>
      </trkpt>
      <trkpt lat="49.87567" lon="4.76507">
        <ele>399</ele>
        <time>2020-11-13T08:49:57.000Z</time>
      </trkpt>
      <trkpt lat="49.87567" lon="4.76511">
        <ele>398</ele>
        <time>2020-11-13T08:49:58.000Z</time>
      </trkpt>
      <trkpt lat="49.87568" lon="4.76513">
        <ele>398</ele>
        <time>2020-11-13T08:49:59.000Z</time>
      </trkpt>
      <trkpt lat="49.87567" lon="4.76513">
        <ele>398</ele>
        <time>2020-11-13T08:50:00.000Z</time>
      </trkpt>
      <trkpt lat="49.87568" lon="4.76513">
        <ele>398</ele>
        <time>2020-11-13T08:50:01.000Z</time>
      </trkpt>
      <trkpt lat="49.87568" lon="4.76513">
        <ele>398</ele>
        <time>2020-11-13T08:50:02.000Z</time>
      </trkpt>
      <trkpt lat="49.87568" lon="4.76513">
        <ele>398</ele>
        <time>2020-11-13T08:50:03.000Z</time>
      </trkpt>
      <trkpt lat="49.87568" lon="4.76514">
        <ele>398</ele>
        <time>2020-11-13T08:50:04.000Z</time>
      </trkpt>
      <trkpt lat="49.87568" lon="4.76514">
        <ele>398</ele>
        <time>2020-11-13T08:50:05.000Z</time>
      </trkpt>
      <trkpt lat="49.87568" lon="4.76514">
        <ele>398</ele>
        <time>2020-11-13T08:50:06.000Z</time>
      </trkpt>
      <trkpt lat="49.87569" lon="4.76514">
        <ele>398</ele>
        <time>2020-11-13T08:50:07.000Z</time>
      </trkpt>
      <trkpt lat="49.87569" lon="4.76514">
        <ele>398</ele>
        <time>2020-11-13T08:50:08.000Z</time>
      </trkpt>
      <trkpt lat="49.87569" lon="4.76515">
        <ele>398</ele>
        <time>2020-11-13T08:50:09.000Z</time>
      </trkpt>
      <trkpt lat="49.87569" lon="4.76515">
        <ele>398</ele>
        <time>2020-11-13T08:50:10.000Z</time>
      </trkpt>
      <trkpt lat="49.87569" lon="4.76515">
        <ele>399</ele>
        <time>2020-11-13T08:50:11.000Z</time>
      </trkpt>
      <trkpt lat="49.87569" lon="4.76516">
        <ele>399</ele>
        <time>2020-11-13T08:50:12.000Z</time>
      </trkpt>
      <trkpt lat="49.87569" lon="4.76516">
        <ele>399</ele>
        <time>2020-11-13T08:50:13.000Z</time>
      </trkpt>
      <trkpt lat="49.87569" lon="4.76516">
        <ele>399</ele>
        <time>2020-11-13T08:50:14.000Z</time>
      </trkpt>
      <trkpt lat="49.87569" lon="4.76516">
        <ele>399</ele>
        <time>2020-11-13T08:50:15.000Z</time>
      </trkpt>
      <trkpt lat="49.87569" lon="4.76516">
        <ele>399</ele>
        <time>2020-11-13T08:50:16.000Z</time>
      </trkpt>
      <trkpt lat="49.87569" lon="4.76516">
        <ele>399</ele>
        <time>2020-11-13T08:50:17.000Z</time>
      </trkpt>
      <trkpt lat="49.87569" lon="4.76516">
        <ele>399</ele>
        <time>2020-11-13T08:50:18.000Z</time>
      </trkpt>
      <trkpt lat="49.87569" lon="4.76517">
        <ele>399</ele>
        <time>2020-11-13T08:50:19.000Z</time>
      </trkpt>
      <trkpt lat="49.87569" lon="4.76517">
        <ele>399</ele>
        <time>2020-11-13T08:50:20.000Z</time>
      </trkpt>
      <trkpt lat="49.8757" lon="4.76517">
        <ele>399</ele>
        <time>2020-11-13T08:50:21.000Z</time>
      </trkpt>
      <trkpt lat="49.8757" lon="4.76517">
        <ele>399</ele>
        <time>2020-11-13T08:50:22.000Z</time>
      </trkpt>
      <trkpt lat="49.8757" lon="4.76517">
        <ele>399</ele>
        <time>2020-11-13T08:50:23.000Z</time>
      </trkpt>
      <trkpt lat="49.8757" lon="4.76517">
        <ele>399</ele>
        <time>2020-11-13T08:50:24.000Z</time>
      </trkpt>
      <trkpt lat="49.8757" lon="4.76517">
        <ele>399</ele>
        <time>2020-11-13T08:50:25.000Z</time>
      </trkpt>
      <trkpt lat="49.8757" lon="4.76517">
        <ele>399</ele>
        <time>2020-11-13T08:50:26.000Z</time>
      </trkpt>
      <trkpt lat="49.8757" lon="4.76518">
        <ele>399</ele>
        <time>2020-11-13T08:50:27.000Z</time>
      </trkpt>
      <trkpt lat="49.8757" lon="4.76518">
        <ele>400</ele>
        <time>2020-11-13T08:50:28.000Z</time>
      </trkpt>
      <trkpt lat="49.8757" lon="4.76518">
        <ele>400</ele>
        <time>2020-11-13T08:50:29.000Z</time>
      </trkpt>
      <trkpt lat="49.8757" lon="4.76518">
        <ele>400</ele>
        <time>2020-11-13T08:50:30.000Z</time>
      </trkpt>
      <trkpt lat="49.8757" lon="4.76518">
        <ele>400</ele>
        <time>2020-11-13T08:50:31.000Z</time>
      </trkpt>
      <trkpt lat="49.8757" lon="4.76518">
        <ele>400</ele>
        <time>2020-11-13T08:50:32.000Z</time>
      </trkpt>
      <trkpt lat="49.8757" lon="4.76518">
        <ele>400</ele>
        <time>2020-11-13T08:50:33.000Z</time>
      </trkpt>
      <trkpt lat="49.8757" lon="4.76519">
        <ele>400</ele>
        <time>2020-11-13T08:50:34.000Z</time>
      </trkpt>
      <trkpt lat="49.8757" lon="4.76519">
        <ele>400</ele>
        <time>2020-11-13T08:50:35.000Z</time>
      </trkpt>
      <trkpt lat="49.8757" lon="4.76519">
        <ele>400</ele>
        <time>2020-11-13T08:50:36.000Z</time>
      </trkpt>
      <trkpt lat="49.87571" lon="4.76519">
        <ele>400</ele>
        <time>2020-11-13T08:50:37.000Z</time>
      </trkpt>
      <trkpt lat="49.87571" lon="4.76519">
        <ele>400</ele>
        <time>2020-11-13T08:50:38.000Z</time>
      </trkpt>
      <trkpt lat="49.87571" lon="4.76519">
        <ele>400</ele>
        <time>2020-11-13T08:50:39.000Z</time>
      </trkpt>
      <trkpt lat="49.87571" lon="4.76519">
        <ele>400</ele>
        <time>2020-11-13T08:50:40.000Z</time>
      </trkpt>
      <trkpt lat="49.87571" lon="4.76519">
        <ele>400</ele>
        <time>2020-11-13T08:50:41.000Z</time>
      </trkpt>
      <trkpt lat="49.87571" lon="4.76519">
        <ele>400</ele>
        <time>2020-11-13T08:50:42.000Z</time>
      </trkpt>
      <trkpt lat="49.87571" lon="4.76519">
        <ele>400</ele>
        <time>2020-11-13T08:50:43.000Z</time>
      </trkpt>
      <trkpt lat="49.87571" lon="4.76519">
        <ele>400</ele>
        <time>2020-11-13T08:50:44.000Z</time>
      </trkpt>
      <trkpt lat="49.87571" lon="4.76519">
        <ele>400</ele>
        <time>2020-11-13T08:50:45.000Z</time>
      </trkpt>
      <trkpt lat="49.87571" lon="4.76519">
        <ele>400</ele>
        <time>2020-11-13T08:50:46.000Z</time>
      </trkpt>
      <trkpt lat="49.87571" lon="4.76519">
        <ele>400</ele>
        <time>2020-11-13T08:50:47.000Z</time>
      </trkpt>
      <trkpt lat="49.87571" lon="4.76519">
        <ele>400</ele>
        <time>2020-11-13T08:50:48.000Z</time>
      </trkpt>
      <trkpt lat="49.87571" lon="4.76519">
        <ele>400</ele>
        <time>2020-11-13T08:50:49.000Z</time>
      </trkpt>
      <trkpt lat="49.87571" lon="4.76519">
        <ele>400</ele>
        <time>2020-11-13T08:50:50.000Z</time>
      </trkpt>
      <trkpt lat="49.87571" lon="4.76519">
        <ele>400</ele>
        <time>2020-11-13T08:50:51.000Z</time>
      </trkpt>
      <trkpt lat="49.87571" lon="4.7652">
        <ele>400</ele>
        <time>2020-11-13T08:50:52.000Z</time>
      </trkpt>
      <trkpt lat="49.87571" lon="4.76519">
        <ele>400</ele>
        <time>2020-11-13T08:50:53.000Z</time>
      </trkpt>
      <trkpt lat="49.87571" lon="4.76519">
        <ele>400</ele>
        <time>2020-11-13T08:50:54.000Z</time>
      </trkpt>
      <trkpt lat="49.87571" lon="4.7652">
        <ele>400</ele>
        <time>2020-11-13T08:50:55.000Z</time>
      </trkpt>
      <trkpt lat="49.87571" lon="4.7652">
        <ele>400</ele>
        <time>2020-11-13T08:50:56.000Z</time>
      </trkpt>
      <trkpt lat="49.87571" lon="4.7652">
        <ele>400</ele>
        <time>2020-11-13T08:50:57.000Z</time>
      </trkpt>
      <trkpt lat="49.87571" lon="4.7652">
        <ele>400</ele>
        <time>2020-11-13T08:50:58.000Z</time>
      </trkpt>
      <trkpt lat="49.87571" lon="4.7652">
        <ele>400</ele>
        <time>2020-11-13T08:50:59.000Z</time>
      </trkpt>
      <trkpt lat="49.87571" lon="4.7652">
        <ele>400</ele>
        <time>2020-11-13T08:51:00.000Z</time>
      </trkpt>
      <trkpt lat="49.87571" lon="4.7652">
        <ele>400</ele>
        <time>2020-11-13T08:51:01.000Z</time>
      </trkpt>
      <trkpt lat="49.87571" lon="4.7652">
        <ele>400</ele>
        <time>2020-11-13T08:51:02.000Z</time>
      </trkpt>
      <trkpt lat="49.87571" lon="4.7652">
        <ele>400</ele>
        <time>2020-11-13T08:51:03.000Z</time>
      </trkpt>
      <trkpt lat="49.87571" lon="4.7652">
        <ele>400</ele>
        <time>2020-11-13T08:51:04.000Z</time>
      </trkpt>
      <trkpt lat="49.87571" lon="4.7652">
        <ele>400</ele>
        <time>2020-11-13T08:51:05.000Z</time>
      </trkpt>
      <trkpt lat="49.87571" lon="4.7652">
        <ele>400</ele>
        <time>2020-11-13T08:51:06.000Z</time>
      </trkpt>
      <trkpt lat="49.87571" lon="4.7652">
        <ele>400</ele>
        <time>2020-11-13T08:51:07.000Z</time>
      </trkpt>
      <trkpt lat="49.87571" lon="4.7652">
        <ele>400</ele>
        <time>2020-11-13T08:51:08.000Z</time>
      </trkpt>
      <trkpt lat="49.87571" lon="4.7652">
        <ele>400</ele>
        <time>2020-11-13T08:51:09.000Z</time>
      </trkpt>
      <trkpt lat="49.87571" lon="4.7652">
        <ele>400</ele>
        <time>2020-11-13T08:51:10.000Z</time>
      </trkpt>
      <trkpt lat="49.87571" lon="4.7652">
        <ele>400</ele>
        <time>2020-11-13T08:51:11.000Z</time>
      </trkpt>
      <trkpt lat="49.87571" lon="4.7652">
        <ele>400</ele>
        <time>2020-11-13T08:51:12.000Z</time>
      </trkpt>
      <trkpt lat="49.87571" lon="4.7652">
        <ele>400</ele>
        <time>2020-11-13T08:51:13.000Z</time>
      </trkpt>
      <trkpt lat="49.87571" lon="4.7652">
        <ele>400</ele>
        <time>2020-11-13T08:51:14.000Z</time>
      </trkpt>
      <trkpt lat="49.87571" lon="4.7652">
        <ele>400</ele>
        <time>2020-11-13T08:51:15.000Z</time>
      </trkpt>
      <trkpt lat="49.87571" lon="4.7652">
        <ele>400</ele>
        <time>2020-11-13T08:51:16.000Z</time>
      </trkpt>
      <trkpt lat="49.87571" lon="4.7652">
        <ele>400</ele>
        <time>2020-11-13T08:51:17.000Z</time>
      </trkpt>
      <trkpt lat="49.87571" lon="4.7652">
        <ele>400</ele>
        <time>2020-11-13T08:51:18.000Z</time>
      </trkpt>
      <trkpt lat="49.87571" lon="4.7652">
        <ele>400</ele>
        <time>2020-11-13T08:51:19.000Z</time>
      </trkpt>
      <trkpt lat="49.87571" lon="4.7652">
        <ele>400</ele>
        <time>2020-11-13T08:51:20.000Z</time>
      </trkpt>
      <trkpt lat="49.87571" lon="4.7652">
        <ele>400</ele>
        <time>2020-11-13T08:51:21.000Z</time>
      </trkpt>
      <trkpt lat="49.87571" lon="4.7652">
        <ele>400</ele>
        <time>2020-11-13T08:51:22.000Z</time>
      </trkpt>
      <trkpt lat="49.87571" lon="4.7652">
        <ele>400</ele>
        <time>2020-11-13T08:51:23.000Z</time>
      </trkpt>
      <trkpt lat="49.87571" lon="4.7652">
        <ele>400</ele>
        <time>2020-11-13T08:51:24.000Z</time>
      </trkpt>
      <trkpt lat="49.87571" lon="4.7652">
        <ele>400</ele>
        <time>2020-11-13T08:51:25.000Z</time>
      </trkpt>
      <trkpt lat="49.87571" lon="4.7652">
        <ele>400</ele>
        <time>2020-11-13T08:51:26.000Z</time>
      </trkpt>
      <trkpt lat="49.87571" lon="4.7652">
        <ele>400</ele>
        <time>2020-11-13T08:51:27.000Z</time>
      </trkpt>
      <trkpt lat="49.87571" lon="4.7652">
        <ele>400</ele>
        <time>2020-11-13T08:51:28.000Z</time>
      </trkpt>
      <trkpt lat="49.87571" lon="4.7652">
        <ele>400</ele>
        <time>2020-11-13T08:51:29.000Z</time>
      </trkpt>
      <trkpt lat="49.87571" lon="4.7652">
        <ele>400</ele>
        <time>2020-11-13T08:51:30.000Z</time>
      </trkpt>
      <trkpt lat="49.87571" lon="4.7652">
        <ele>400</ele>
        <time>2020-11-13T08:51:31.000Z</time>
      </trkpt>
      <trkpt lat="49.87571" lon="4.7652">
        <ele>400</ele>
        <time>2020-11-13T08:51:32.000Z</time>
      </trkpt>
      <trkpt lat="49.87571" lon="4.7652">
        <ele>400</ele>
        <time>2020-11-13T08:51:33.000Z</time>
      </trkpt>
      <trkpt lat="49.87571" lon="4.7652">
        <ele>400</ele>
        <time>2020-11-13T08:51:34.000Z</time>
      </trkpt>
      <trkpt lat="49.87571" lon="4.7652">
        <ele>400</ele>
        <time>2020-11-13T08:51:35.000Z</time>
      </trkpt>
      <trkpt lat="49.87571" lon="4.7652">
        <ele>400</ele>
        <time>2020-11-13T08:51:36.000Z</time>
      </trkpt>
      <trkpt lat="49.87571" lon="4.7652">
        <ele>400</ele>
        <time>2020-11-13T08:51:37.000Z</time>
      </trkpt>
      <trkpt lat="49.87571" lon="4.7652">
        <ele>400</ele>
        <time>2020-11-13T08:51:38.000Z</time>
      </trkpt>
      <trkpt lat="49.87571" lon="4.7652">
        <ele>400</ele>
        <time>2020-11-13T08:51:39.000Z</time>
      </trkpt>
      <trkpt lat="49.87571" lon="4.7652">
        <ele>400</ele>
        <time>2020-11-13T08:51:40.000Z</time>
      </trkpt>
      <trkpt lat="49.87571" lon="4.7652">
        <ele>400</ele>
        <time>2020-11-13T08:51:41.000Z</time>
      </trkpt>
      <trkpt lat="49.87571" lon="4.76521">
        <ele>400</ele>
        <time>2020-11-13T08:51:42.000Z</time>
      </trkpt>
      <trkpt lat="49.87571" lon="4.76521">
        <ele>400</ele>
        <time>2020-11-13T08:51:43.000Z</time>
      </trkpt>
      <trkpt lat="49.87571" lon="4.76521">
        <ele>400</ele>
        <time>2020-11-13T08:51:44.000Z</time>
      </trkpt>
      <trkpt lat="49.87571" lon="4.76521">
        <ele>400</ele>
        <time>2020-11-13T08:51:45.000Z</time>
      </trkpt>
      <trkpt lat="49.8757" lon="4.76521">
        <ele>400</ele>
        <time>2020-11-13T08:51:46.000Z</time>
      </trkpt>
      <trkpt lat="49.8757" lon="4.76521">
        <ele>400</ele>
        <time>2020-11-13T08:51:47.000Z</time>
      </trkpt>
      <trkpt lat="49.8757" lon="4.76521">
        <ele>400</ele>
        <time>2020-11-13T08:51:48.000Z</time>
      </trkpt>
      <trkpt lat="49.87571" lon="4.76521">
        <ele>400</ele>
        <time>2020-11-13T08:51:49.000Z</time>
      </trkpt>
      <trkpt lat="49.87571" lon="4.76521">
        <ele>400</ele>
        <time>2020-11-13T08:51:50.000Z</time>
      </trkpt>
      <trkpt lat="49.87571" lon="4.76521">
        <ele>400</ele>
        <time>2020-11-13T08:51:51.000Z</time>
      </trkpt>
      <trkpt lat="49.8757" lon="4.76521">
        <ele>400</ele>
        <time>2020-11-13T08:51:52.000Z</time>
      </trkpt>
      <trkpt lat="49.8757" lon="4.76521">
        <ele>400</ele>
        <time>2020-11-13T08:51:53.000Z</time>
      </trkpt>
      <trkpt lat="49.8757" lon="4.76521">
        <ele>400</ele>
        <time>2020-11-13T08:51:54.000Z</time>
      </trkpt>
      <trkpt lat="49.8757" lon="4.76521">
        <ele>400</ele>
        <time>2020-11-13T08:51:55.000Z</time>
      </trkpt>
      <trkpt lat="49.87571" lon="4.76521">
        <ele>401</ele>
        <time>2020-11-13T08:51:56.000Z</time>
      </trkpt>
      <trkpt lat="49.87571" lon="4.76521">
        <ele>401</ele>
        <time>2020-11-13T08:51:57.000Z</time>
      </trkpt>
      <trkpt lat="49.87571" lon="4.76521">
        <ele>401</ele>
        <time>2020-11-13T08:51:58.000Z</time>
      </trkpt>
      <trkpt lat="49.87571" lon="4.76521">
        <ele>401</ele>
        <time>2020-11-13T08:51:59.000Z</time>
      </trkpt>
      <trkpt lat="49.87571" lon="4.76521">
        <ele>401</ele>
        <time>2020-11-13T08:52:00.000Z</time>
      </trkpt>
      <trkpt lat="49.87571" lon="4.76521">
        <ele>401</ele>
        <time>2020-11-13T08:52:01.000Z</time>
      </trkpt>
      <trkpt lat="49.87571" lon="4.76521">
        <ele>401</ele>
        <time>2020-11-13T08:52:02.000Z</time>
      </trkpt>
      <trkpt lat="49.87571" lon="4.76521">
        <ele>401</ele>
        <time>2020-11-13T08:52:03.000Z</time>
      </trkpt>
      <trkpt lat="49.87571" lon="4.76521">
        <ele>401</ele>
        <time>2020-11-13T08:52:04.000Z</time>
      </trkpt>
      <trkpt lat="49.87571" lon="4.76521">
        <ele>401</ele>
        <time>2020-11-13T08:52:05.000Z</time>
      </trkpt>
      <trkpt lat="49.87571" lon="4.76521">
        <ele>401</ele>
        <time>2020-11-13T08:52:06.000Z</time>
      </trkpt>
      <trkpt lat="49.87571" lon="4.76521">
        <ele>401</ele>
        <time>2020-11-13T08:52:07.000Z</time>
      </trkpt>
      <trkpt lat="49.87571" lon="4.76521">
        <ele>401</ele>
        <time>2020-11-13T08:52:08.000Z</time>
      </trkpt>
      <trkpt lat="49.87571" lon="4.76521">
        <ele>401</ele>
        <time>2020-11-13T08:52:09.000Z</time>
      </trkpt>
      <trkpt lat="49.87571" lon="4.76521">
        <ele>401</ele>
        <time>2020-11-13T08:52:10.000Z</time>
      </trkpt>
      <trkpt lat="49.87571" lon="4.76521">
        <ele>401</ele>
        <time>2020-11-13T08:52:11.000Z</time>
      </trkpt>
      <trkpt lat="49.87571" lon="4.76521">
        <ele>401</ele>
        <time>2020-11-13T08:52:12.000Z</time>
      </trkpt>
      <trkpt lat="49.87571" lon="4.76521">
        <ele>401</ele>
        <time>2020-11-13T08:52:13.000Z</time>
      </trkpt>
      <trkpt lat="49.87571" lon="4.76521">
        <ele>401</ele>
        <time>2020-11-13T08:52:14.000Z</time>
      </trkpt>
      <trkpt lat="49.87571" lon="4.76521">
        <ele>401</ele>
        <time>2020-11-13T08:52:15.000Z</time>
      </trkpt>
      <trkpt lat="49.87571" lon="4.76521">
        <ele>401</ele>
        <time>2020-11-13T08:52:16.000Z</time>
      </trkpt>
      <trkpt lat="49.87571" lon="4.76521">
        <ele>401</ele>
        <time>2020-11-13T08:52:17.000Z</time>
      </trkpt>
      <trkpt lat="49.87571" lon="4.76521">
        <ele>401</ele>
        <time>2020-11-13T08:52:18.000Z</time>
      </trkpt>
      <trkpt lat="49.87571" lon="4.76521">
        <ele>401</ele>
        <time>2020-11-13T08:52:19.000Z</time>
      </trkpt>
      <trkpt lat="49.87571" lon="4.76521">
        <ele>401</ele>
        <time>2020-11-13T08:52:20.000Z</time>
      </trkpt>
      <trkpt lat="49.87571" lon="4.76521">
        <ele>401</ele>
        <time>2020-11-13T08:52:21.000Z</time>
      </trkpt>
      <trkpt lat="49.87571" lon="4.76521">
        <ele>401</ele>
        <time>2020-11-13T08:52:22.000Z</time>
      </trkpt>
      <trkpt lat="49.87571" lon="4.76521">
        <ele>401</ele>
        <time>2020-11-13T08:52:23.000Z</time>
      </trkpt>
      <trkpt lat="49.87571" lon="4.76521">
        <ele>401</ele>
        <time>2020-11-13T08:52:24.000Z</time>
      </trkpt>
      <trkpt lat="49.87571" lon="4.76521">
        <ele>401</ele>
        <time>2020-11-13T08:52:25.000Z</time>
      </trkpt>
      <trkpt lat="49.87571" lon="4.76521">
        <ele>401</ele>
        <time>2020-11-13T08:52:26.000Z</time>
      </trkpt>
      <trkpt lat="49.87571" lon="4.76521">
        <ele>401</ele>
        <time>2020-11-13T08:52:27.000Z</time>
      </trkpt>
      <trkpt lat="49.87571" lon="4.76521">
        <ele>401</ele>
        <time>2020-11-13T08:52:28.000Z</time>
      </trkpt>
      <trkpt lat="49.87571" lon="4.76521">
        <ele>401</ele>
        <time>2020-11-13T08:52:29.000Z</time>
      </trkpt>
      <trkpt lat="49.87571" lon="4.76521">
        <ele>401</ele>
        <time>2020-11-13T08:52:30.000Z</time>
      </trkpt>
      <trkpt lat="49.87571" lon="4.76521">
        <ele>401</ele>
        <time>2020-11-13T08:52:31.000Z</time>
      </trkpt>
      <trkpt lat="49.87571" lon="4.76521">
        <ele>401</ele>
        <time>2020-11-13T08:52:32.000Z</time>
      </trkpt>
      <trkpt lat="49.87571" lon="4.76521">
        <ele>401</ele>
        <time>2020-11-13T08:52:33.000Z</time>
      </trkpt>
      <trkpt lat="49.87571" lon="4.76521">
        <ele>401</ele>
        <time>2020-11-13T08:52:34.000Z</time>
      </trkpt>
      <trkpt lat="49.87571" lon="4.76521">
        <ele>401</ele>
        <time>2020-11-13T08:52:35.000Z</time>
      </trkpt>
      <trkpt lat="49.8757" lon="4.76521">
        <ele>401</ele>
        <time>2020-11-13T08:52:36.000Z</time>
      </trkpt>
      <trkpt lat="49.8757" lon="4.76522">
        <ele>401</ele>
        <time>2020-11-13T08:52:37.000Z</time>
      </trkpt>
      <trkpt lat="49.8757" lon="4.76522">
        <ele>401</ele>
        <time>2020-11-13T08:52:38.000Z</time>
      </trkpt>
      <trkpt lat="49.8757" lon="4.76522">
        <ele>401</ele>
        <time>2020-11-13T08:52:39.000Z</time>
      </trkpt>
      <trkpt lat="49.8757" lon="4.76522">
        <ele>401</ele>
        <time>2020-11-13T08:52:40.000Z</time>
      </trkpt>
      <trkpt lat="49.8757" lon="4.76522">
        <ele>401</ele>
        <time>2020-11-13T08:52:41.000Z</time>
      </trkpt>
      <trkpt lat="49.8757" lon="4.76522">
        <ele>401</ele>
        <time>2020-11-13T08:52:42.000Z</time>
      </trkpt>
      <trkpt lat="49.8757" lon="4.76522">
        <ele>401</ele>
        <time>2020-11-13T08:52:43.000Z</time>
      </trkpt>
      <trkpt lat="49.8757" lon="4.76522">
        <ele>401</ele>
        <time>2020-11-13T08:52:44.000Z</time>
      </trkpt>
      <trkpt lat="49.8757" lon="4.76522">
        <ele>401</ele>
        <time>2020-11-13T08:52:45.000Z</time>
      </trkpt>
      <trkpt lat="49.8757" lon="4.76522">
        <ele>401</ele>
        <time>2020-11-13T08:52:46.000Z</time>
      </trkpt>
      <trkpt lat="49.8757" lon="4.76522">
        <ele>401</ele>
        <time>2020-11-13T08:52:47.000Z</time>
      </trkpt>
      <trkpt lat="49.8757" lon="4.76522">
        <ele>401</ele>
        <time>2020-11-13T08:52:48.000Z</time>
      </trkpt>
      <trkpt lat="49.8757" lon="4.76522">
        <ele>401</ele>
        <time>2020-11-13T08:52:49.000Z</time>
      </trkpt>
      <trkpt lat="49.8757" lon="4.76522">
        <ele>401</ele>
        <time>2020-11-13T08:52:50.000Z</time>
      </trkpt>
      <trkpt lat="49.8757" lon="4.76522">
        <ele>401</ele>
        <time>2020-11-13T08:52:51.000Z</time>
      </trkpt>
      <trkpt lat="49.8757" lon="4.76522">
        <ele>401</ele>
        <time>2020-11-13T08:52:52.000Z</time>
      </trkpt>
      <trkpt lat="49.8757" lon="4.76522">
        <ele>401</ele>
        <time>2020-11-13T08:52:53.000Z</time>
      </trkpt>
      <trkpt lat="49.8757" lon="4.76522">
        <ele>401</ele>
        <time>2020-11-13T08:52:54.000Z</time>
      </trkpt>
      <trkpt lat="49.8757" lon="4.76522">
        <ele>401</ele>
        <time>2020-11-13T08:52:55.000Z</time>
      </trkpt>
      <trkpt lat="49.8757" lon="4.76522">
        <ele>401</ele>
        <time>2020-11-13T08:52:56.000Z</time>
      </trkpt>
      <trkpt lat="49.8757" lon="4.76522">
        <ele>401</ele>
        <time>2020-11-13T08:52:57.000Z</time>
      </trkpt>
      <trkpt lat="49.8757" lon="4.76522">
        <ele>401</ele>
        <time>2020-11-13T08:52:58.000Z</time>
      </trkpt>
      <trkpt lat="49.8757" lon="4.76522">
        <ele>401</ele>
        <time>2020-11-13T08:52:59.000Z</time>
      </trkpt>
      <trkpt lat="49.8757" lon="4.76522">
        <ele>401</ele>
        <time>2020-11-13T08:53:00.000Z</time>
      </trkpt>
      <trkpt lat="49.8757" lon="4.76522">
        <ele>401</ele>
        <time>2020-11-13T08:53:01.000Z</time>
      </trkpt>
      <trkpt lat="49.8757" lon="4.76522">
        <ele>401</ele>
        <time>2020-11-13T08:53:02.000Z</time>
      </trkpt>
      <trkpt lat="49.8757" lon="4.76522">
        <ele>401</ele>
        <time>2020-11-13T08:53:03.000Z</time>
      </trkpt>
      <trkpt lat="49.8757" lon="4.76522">
        <ele>401</ele>
        <time>2020-11-13T08:53:04.000Z</time>
      </trkpt>
      <trkpt lat="49.8757" lon="4.76522">
        <ele>401</ele>
        <time>2020-11-13T08:53:05.000Z</time>
      </trkpt>
      <trkpt lat="49.8757" lon="4.76522">
        <ele>401</ele>
        <time>2020-11-13T08:53:06.000Z</time>
      </trkpt>
      <trkpt lat="49.8757" lon="4.76522">
        <ele>401</ele>
        <time>2020-11-13T08:53:07.000Z</time>
      </trkpt>
      <trkpt lat="49.8757" lon="4.76522">
        <ele>401</ele>
        <time>2020-11-13T08:53:08.000Z</time>
      </trkpt>
      <trkpt lat="49.8757" lon="4.76522">
        <ele>401</ele>
        <time>2020-11-13T08:53:09.000Z</time>
      </trkpt>
      <trkpt lat="49.8757" lon="4.76522">
        <ele>401</ele>
        <time>2020-11-13T08:53:10.000Z</time>
      </trkpt>
      <trkpt lat="49.8757" lon="4.76522">
        <ele>401</ele>
        <time>2020-11-13T08:53:11.000Z</time>
      </trkpt>
      <trkpt lat="49.8757" lon="4.76522">
        <ele>401</ele>
        <time>2020-11-13T08:53:12.000Z</time>
      </trkpt>
      <trkpt lat="49.8757" lon="4.76522">
        <ele>401</ele>
        <time>2020-11-13T08:53:13.000Z</time>
      </trkpt>
      <trkpt lat="49.8757" lon="4.76523">
        <ele>401</ele>
        <time>2020-11-13T08:53:14.000Z</time>
      </trkpt>
      <trkpt lat="49.8757" lon="4.76523">
        <ele>401</ele>
        <time>2020-11-13T08:53:15.000Z</time>
      </trkpt>
      <trkpt lat="49.8757" lon="4.76523">
        <ele>401</ele>
        <time>2020-11-13T08:53:16.000Z</time>
      </trkpt>
      <trkpt lat="49.8757" lon="4.76523">
        <ele>401</ele>
        <time>2020-11-13T08:53:17.000Z</time>
      </trkpt>
      <trkpt lat="49.8757" lon="4.76523">
        <ele>401</ele>
        <time>2020-11-13T08:53:18.000Z</time>
      </trkpt>
      <trkpt lat="49.8757" lon="4.76523">
        <ele>401</ele>
        <time>2020-11-13T08:53:19.000Z</time>
      </trkpt>
      <trkpt lat="49.8757" lon="4.76523">
        <ele>401</ele>
        <time>2020-11-13T08:53:20.000Z</time>
      </trkpt>
      <trkpt lat="49.8757" lon="4.76523">
        <ele>402</ele>
        <time>2020-11-13T08:53:21.000Z</time>
      </trkpt>
      <trkpt lat="49.8757" lon="4.76523">
        <ele>402</ele>
        <time>2020-11-13T08:53:22.000Z</time>
      </trkpt>
      <trkpt lat="49.8757" lon="4.76523">
        <ele>402</ele>
        <time>2020-11-13T08:53:23.000Z</time>
      </trkpt>
      <trkpt lat="49.87571" lon="4.76523">
        <ele>402</ele>
        <time>2020-11-13T08:53:24.000Z</time>
      </trkpt>
      <trkpt lat="49.87571" lon="4.76523">
        <ele>402</ele>
        <time>2020-11-13T08:53:25.000Z</time>
      </trkpt>
      <trkpt lat="49.8757" lon="4.76522">
        <ele>402</ele>
        <time>2020-11-13T08:53:26.000Z</time>
      </trkpt>
      <trkpt lat="49.8757" lon="4.76522">
        <ele>402</ele>
        <time>2020-11-13T08:53:27.000Z</time>
      </trkpt>
      <trkpt lat="49.8757" lon="4.76521">
        <ele>402</ele>
        <time>2020-11-13T08:53:28.000Z</time>
      </trkpt>
      <trkpt lat="49.8757" lon="4.76521">
        <ele>403</ele>
        <time>2020-11-13T08:53:29.000Z</time>
      </trkpt>
      <trkpt lat="49.8757" lon="4.76521">
        <ele>403</ele>
        <time>2020-11-13T08:53:30.000Z</time>
      </trkpt>
      <trkpt lat="49.8757" lon="4.7652">
        <ele>403</ele>
        <time>2020-11-13T08:53:31.000Z</time>
      </trkpt>
      <trkpt lat="49.8757" lon="4.7652">
        <ele>403</ele>
        <time>2020-11-13T08:53:32.000Z</time>
      </trkpt>
      <trkpt lat="49.8757" lon="4.7652">
        <ele>403</ele>
        <time>2020-11-13T08:53:33.000Z</time>
      </trkpt>
      <trkpt lat="49.8757" lon="4.7652">
        <ele>403</ele>
        <time>2020-11-13T08:53:34.000Z</time>
      </trkpt>
      <trkpt lat="49.8757" lon="4.76519">
        <ele>403</ele>
        <time>2020-11-13T08:53:35.000Z</time>
      </trkpt>
      <trkpt lat="49.8757" lon="4.76519">
        <ele>403</ele>
        <time>2020-11-13T08:53:36.000Z</time>
      </trkpt>
      <trkpt lat="49.8757" lon="4.76519">
        <ele>404</ele>
        <time>2020-11-13T08:53:37.000Z</time>
      </trkpt>
      <trkpt lat="49.8757" lon="4.76519">
        <ele>404</ele>
        <time>2020-11-13T08:53:38.000Z</time>
      </trkpt>
      <trkpt lat="49.8757" lon="4.76519">
        <ele>404</ele>
        <time>2020-11-13T08:53:39.000Z</time>
      </trkpt>
      <trkpt lat="49.8757" lon="4.76518">
        <ele>404</ele>
        <time>2020-11-13T08:53:40.000Z</time>
      </trkpt>
      <trkpt lat="49.87571" lon="4.76518">
        <ele>404</ele>
        <time>2020-11-13T08:53:41.000Z</time>
      </trkpt>
      <trkpt lat="49.87571" lon="4.76518">
        <ele>404</ele>
        <time>2020-11-13T08:53:42.000Z</time>
      </trkpt>
      <trkpt lat="49.87571" lon="4.76518">
        <ele>404</ele>
        <time>2020-11-13T08:53:43.000Z</time>
      </trkpt>
      <trkpt lat="49.87571" lon="4.76518">
        <ele>404</ele>
        <time>2020-11-13T08:53:44.000Z</time>
      </trkpt>
      <trkpt lat="49.87571" lon="4.76518">
        <ele>404</ele>
        <time>2020-11-13T08:53:45.000Z</time>
      </trkpt>
      <trkpt lat="49.87571" lon="4.76518">
        <ele>404</ele>
        <time>2020-11-13T08:53:46.000Z</time>
      </trkpt>
      <trkpt lat="49.87571" lon="4.76518">
        <ele>404</ele>
        <time>2020-11-13T08:53:47.000Z</time>
      </trkpt>
      <trkpt lat="49.87571" lon="4.76518">
        <ele>404</ele>
        <time>2020-11-13T08:53:48.000Z</time>
      </trkpt>
      <trkpt lat="49.87571" lon="4.76518">
        <ele>404</ele>
        <time>2020-11-13T08:53:49.000Z</time>
      </trkpt>
      <trkpt lat="49.87571" lon="4.76517">
        <ele>404</ele>
        <time>2020-11-13T08:53:50.000Z</time>
      </trkpt>
      <trkpt lat="49.87571" lon="4.76517">
        <ele>404</ele>
        <time>2020-11-13T08:53:51.000Z</time>
      </trkpt>
      <trkpt lat="49.87571" lon="4.76517">
        <ele>404</ele>
        <time>2020-11-13T08:53:52.000Z</time>
      </trkpt>
      <trkpt lat="49.87571" lon="4.76517">
        <ele>404</ele>
        <time>2020-11-13T08:53:53.000Z</time>
      </trkpt>
      <trkpt lat="49.87571" lon="4.76517">
        <ele>404</ele>
        <time>2020-11-13T08:53:54.000Z</time>
      </trkpt>
      <trkpt lat="49.87571" lon="4.76517">
        <ele>404</ele>
        <time>2020-11-13T08:53:55.000Z</time>
      </trkpt>
      <trkpt lat="49.87571" lon="4.76517">
        <ele>404</ele>
        <time>2020-11-13T08:53:56.000Z</time>
      </trkpt>
      <trkpt lat="49.87571" lon="4.76518">
        <ele>404</ele>
        <time>2020-11-13T08:53:57.000Z</time>
      </trkpt>
      <trkpt lat="49.87571" lon="4.76518">
        <ele>404</ele>
        <time>2020-11-13T08:53:58.000Z</time>
      </trkpt>
      <trkpt lat="49.87571" lon="4.76518">
        <ele>404</ele>
        <time>2020-11-13T08:53:59.000Z</time>
      </trkpt>
      <trkpt lat="49.87571" lon="4.76518">
        <ele>404</ele>
        <time>2020-11-13T08:54:00.000Z</time>
      </trkpt>
      <trkpt lat="49.87571" lon="4.76518">
        <ele>404</ele>
        <time>2020-11-13T08:54:01.000Z</time>
      </trkpt>
      <trkpt lat="49.87572" lon="4.76518">
        <ele>404</ele>
        <time>2020-11-13T08:54:02.000Z</time>
      </trkpt>
      <trkpt lat="49.87572" lon="4.76518">
        <ele>404</ele>
        <time>2020-11-13T08:54:03.000Z</time>
      </trkpt>
      <trkpt lat="49.87572" lon="4.76518">
        <ele>404</ele>
        <time>2020-11-13T08:54:04.000Z</time>
      </trkpt>
      <trkpt lat="49.87572" lon="4.76519">
        <ele>404</ele>
        <time>2020-11-13T08:54:05.000Z</time>
      </trkpt>
      <trkpt lat="49.87572" lon="4.76519">
        <ele>403</ele>
        <time>2020-11-13T08:54:06.000Z</time>
      </trkpt>
      <trkpt lat="49.87572" lon="4.76519">
        <ele>403</ele>
        <time>2020-11-13T08:54:07.000Z</time>
      </trkpt>
      <trkpt lat="49.87571" lon="4.76519">
        <ele>403</ele>
        <time>2020-11-13T08:54:08.000Z</time>
      </trkpt>
      <trkpt lat="49.87571" lon="4.76519">
        <ele>403</ele>
        <time>2020-11-13T08:54:09.000Z</time>
      </trkpt>
      <trkpt lat="49.87571" lon="4.76519">
        <ele>403</ele>
        <time>2020-11-13T08:54:10.000Z</time>
      </trkpt>
      <trkpt lat="49.87571" lon="4.76519">
        <ele>403</ele>
        <time>2020-11-13T08:54:11.000Z</time>
      </trkpt>
      <trkpt lat="49.87571" lon="4.76519">
        <ele>403</ele>
        <time>2020-11-13T08:54:12.000Z</time>
      </trkpt>
      <trkpt lat="49.87571" lon="4.76519">
        <ele>403</ele>
        <time>2020-11-13T08:54:13.000Z</time>
      </trkpt>
      <trkpt lat="49.87571" lon="4.76519">
        <ele>403</ele>
        <time>2020-11-13T08:54:14.000Z</time>
      </trkpt>
      <trkpt lat="49.87571" lon="4.76519">
        <ele>403</ele>
        <time>2020-11-13T08:54:15.000Z</time>
      </trkpt>
      <trkpt lat="49.87571" lon="4.76519">
        <ele>403</ele>
        <time>2020-11-13T08:54:16.000Z</time>
      </trkpt>
      <trkpt lat="49.87571" lon="4.76519">
        <ele>403</ele>
        <time>2020-11-13T08:54:17.000Z</time>
      </trkpt>
      <trkpt lat="49.87571" lon="4.76519">
        <ele>403</ele>
        <time>2020-11-13T08:54:18.000Z</time>
      </trkpt>
      <trkpt lat="49.87571" lon="4.76519">
        <ele>403</ele>
        <time>2020-11-13T08:54:19.000Z</time>
      </trkpt>
      <trkpt lat="49.87571" lon="4.76519">
        <ele>403</ele>
        <time>2020-11-13T08:54:20.000Z</time>
      </trkpt>
      <trkpt lat="49.87571" lon="4.76519">
        <ele>403</ele>
        <time>2020-11-13T08:54:21.000Z</time>
      </trkpt>
      <trkpt lat="49.87571" lon="4.76519">
        <ele>403</ele>
        <time>2020-11-13T08:54:22.000Z</time>
      </trkpt>
      <trkpt lat="49.87571" lon="4.76519">
        <ele>403</ele>
        <time>2020-11-13T08:54:23.000Z</time>
      </trkpt>
      <trkpt lat="49.87571" lon="4.76519">
        <ele>403</ele>
        <time>2020-11-13T08:54:24.000Z</time>
      </trkpt>
      <trkpt lat="49.87571" lon="4.76519">
        <ele>403</ele>
        <time>2020-11-13T08:54:25.000Z</time>
      </trkpt>
      <trkpt lat="49.87571" lon="4.76519">
        <ele>403</ele>
        <time>2020-11-13T08:54:26.000Z</time>
      </trkpt>
      <trkpt lat="49.87571" lon="4.76518">
        <ele>403</ele>
        <time>2020-11-13T08:54:27.000Z</time>
      </trkpt>
      <trkpt lat="49.87571" lon="4.76518">
        <ele>403</ele>
        <time>2020-11-13T08:54:28.000Z</time>
      </trkpt>
      <trkpt lat="49.87571" lon="4.76518">
        <ele>403</ele>
        <time>2020-11-13T08:54:29.000Z</time>
      </trkpt>
      <trkpt lat="49.87571" lon="4.76518">
        <ele>403</ele>
        <time>2020-11-13T08:54:30.000Z</time>
      </trkpt>
      <trkpt lat="49.87571" lon="4.76518">
        <ele>403</ele>
        <time>2020-11-13T08:54:31.000Z</time>
      </trkpt>
      <trkpt lat="49.87571" lon="4.76518">
        <ele>403</ele>
        <time>2020-11-13T08:54:32.000Z</time>
      </trkpt>
      <trkpt lat="49.87571" lon="4.76518">
        <ele>403</ele>
        <time>2020-11-13T08:54:33.000Z</time>
      </trkpt>
      <trkpt lat="49.87571" lon="4.76518">
        <ele>403</ele>
        <time>2020-11-13T08:54:34.000Z</time>
      </trkpt>
      <trkpt lat="49.87571" lon="4.76518">
        <ele>403</ele>
        <time>2020-11-13T08:54:35.000Z</time>
      </trkpt>
      <trkpt lat="49.87571" lon="4.76518">
        <ele>403</ele>
        <time>2020-11-13T08:54:36.000Z</time>
      </trkpt>
      <trkpt lat="49.87571" lon="4.76518">
        <ele>403</ele>
        <time>2020-11-13T08:54:37.000Z</time>
      </trkpt>
      <trkpt lat="49.87571" lon="4.7652">
        <ele>403</ele>
        <time>2020-11-13T08:54:38.000Z</time>
      </trkpt>
      <trkpt lat="49.87571" lon="4.76521">
        <ele>403</ele>
        <time>2020-11-13T08:54:39.000Z</time>
      </trkpt>
      <trkpt lat="49.87571" lon="4.76521">
        <ele>403</ele>
        <time>2020-11-13T08:54:40.000Z</time>
      </trkpt>
      <trkpt lat="49.87571" lon="4.76521">
        <ele>403</ele>
        <time>2020-11-13T08:54:41.000Z</time>
      </trkpt>
      <trkpt lat="49.87571" lon="4.76521">
        <ele>403</ele>
        <time>2020-11-13T08:54:42.000Z</time>
      </trkpt>
      <trkpt lat="49.87571" lon="4.76521">
        <ele>403</ele>
        <time>2020-11-13T08:54:43.000Z</time>
      </trkpt>
      <trkpt lat="49.87571" lon="4.76522">
        <ele>403</ele>
        <time>2020-11-13T08:54:44.000Z</time>
      </trkpt>
      <trkpt lat="49.87572" lon="4.76524">
        <ele>403</ele>
        <time>2020-11-13T08:54:45.000Z</time>
      </trkpt>
      <trkpt lat="49.87573" lon="4.76526">
        <ele>403</ele>
        <time>2020-11-13T08:54:46.000Z</time>
      </trkpt>
      <trkpt lat="49.87575" lon="4.76529">
        <ele>403</ele>
        <time>2020-11-13T08:54:47.000Z</time>
      </trkpt>
      <trkpt lat="49.87576" lon="4.76534">
        <ele>403</ele>
        <time>2020-11-13T08:54:48.000Z</time>
      </trkpt>
      <trkpt lat="49.87578" lon="4.76538">
        <ele>403</ele>
        <time>2020-11-13T08:54:49.000Z</time>
      </trkpt>
      <trkpt lat="49.87579" lon="4.76544">
        <ele>403</ele>
        <time>2020-11-13T08:54:50.000Z</time>
      </trkpt>
      <trkpt lat="49.8758" lon="4.76549">
        <ele>403</ele>
        <time>2020-11-13T08:54:51.000Z</time>
      </trkpt>
      <trkpt lat="49.87581" lon="4.76555">
        <ele>403</ele>
        <time>2020-11-13T08:54:52.000Z</time>
      </trkpt>
      <trkpt lat="49.87582" lon="4.76561">
        <ele>403</ele>
        <time>2020-11-13T08:54:53.000Z</time>
      </trkpt>
      <trkpt lat="49.87582" lon="4.76568">
        <ele>403</ele>
        <time>2020-11-13T08:54:54.000Z</time>
      </trkpt>
      <trkpt lat="49.87583" lon="4.76575">
        <ele>403</ele>
        <time>2020-11-13T08:54:55.000Z</time>
      </trkpt>
      <trkpt lat="49.87583" lon="4.76582">
        <ele>402</ele>
        <time>2020-11-13T08:54:56.000Z</time>
      </trkpt>
      <trkpt lat="49.87584" lon="4.76589">
        <ele>402</ele>
        <time>2020-11-13T08:54:57.000Z</time>
      </trkpt>
      <trkpt lat="49.87584" lon="4.76595">
        <ele>402</ele>
        <time>2020-11-13T08:54:58.000Z</time>
      </trkpt>
      <trkpt lat="49.87585" lon="4.76602">
        <ele>402</ele>
        <time>2020-11-13T08:54:59.000Z</time>
      </trkpt>
      <trkpt lat="49.87585" lon="4.76609">
        <ele>402</ele>
        <time>2020-11-13T08:55:00.000Z</time>
      </trkpt>
      <trkpt lat="49.87586" lon="4.76615">
        <ele>402</ele>
        <time>2020-11-13T08:55:01.000Z</time>
      </trkpt>
      <trkpt lat="49.87586" lon="4.76622">
        <ele>402</ele>
        <time>2020-11-13T08:55:02.000Z</time>
      </trkpt>
      <trkpt lat="49.87587" lon="4.76629">
        <ele>402</ele>
        <time>2020-11-13T08:55:03.000Z</time>
      </trkpt>
      <trkpt lat="49.87588" lon="4.76636">
        <ele>402</ele>
        <time>2020-11-13T08:55:04.000Z</time>
      </trkpt>
      <trkpt lat="49.87589" lon="4.76642">
        <ele>402</ele>
        <time>2020-11-13T08:55:05.000Z</time>
      </trkpt>
      <trkpt lat="49.8759" lon="4.76649">
        <ele>402</ele>
        <time>2020-11-13T08:55:06.000Z</time>
      </trkpt>
      <trkpt lat="49.87591" lon="4.76655">
        <ele>401</ele>
        <time>2020-11-13T08:55:07.000Z</time>
      </trkpt>
      <trkpt lat="49.87591" lon="4.76661">
        <ele>401</ele>
        <time>2020-11-13T08:55:08.000Z</time>
      </trkpt>
      <trkpt lat="49.87592" lon="4.76668">
        <ele>401</ele>
        <time>2020-11-13T08:55:09.000Z</time>
      </trkpt>
      <trkpt lat="49.87591" lon="4.76674">
        <ele>401</ele>
        <time>2020-11-13T08:55:10.000Z</time>
      </trkpt>
      <trkpt lat="49.8759" lon="4.7668">
        <ele>401</ele>
        <time>2020-11-13T08:55:11.000Z</time>
      </trkpt>
      <trkpt lat="49.8759" lon="4.76686">
        <ele>401</ele>
        <time>2020-11-13T08:55:12.000Z</time>
      </trkpt>
      <trkpt lat="49.87588" lon="4.76692">
        <ele>400</ele>
        <time>2020-11-13T08:55:13.000Z</time>
      </trkpt>
      <trkpt lat="49.87587" lon="4.76698">
        <ele>400</ele>
        <time>2020-11-13T08:55:14.000Z</time>
      </trkpt>
      <trkpt lat="49.87587" lon="4.76704">
        <ele>400</ele>
        <time>2020-11-13T08:55:15.000Z</time>
      </trkpt>
      <trkpt lat="49.87587" lon="4.7671">
        <ele>400</ele>
        <time>2020-11-13T08:55:16.000Z</time>
      </trkpt>
      <trkpt lat="49.87586" lon="4.76716">
        <ele>400</ele>
        <time>2020-11-13T08:55:17.000Z</time>
      </trkpt>
      <trkpt lat="49.87586" lon="4.76722">
        <ele>400</ele>
        <time>2020-11-13T08:55:18.000Z</time>
      </trkpt>
      <trkpt lat="49.87586" lon="4.7673">
        <ele>400</ele>
        <time>2020-11-13T08:55:19.000Z</time>
      </trkpt>
      <trkpt lat="49.87586" lon="4.76736">
        <ele>400</ele>
        <time>2020-11-13T08:55:20.000Z</time>
      </trkpt>
      <trkpt lat="49.87586" lon="4.76743">
        <ele>399</ele>
        <time>2020-11-13T08:55:21.000Z</time>
      </trkpt>
      <trkpt lat="49.87586" lon="4.7675">
        <ele>399</ele>
        <time>2020-11-13T08:55:22.000Z</time>
      </trkpt>
      <trkpt lat="49.87586" lon="4.76756">
        <ele>399</ele>
        <time>2020-11-13T08:55:23.000Z</time>
      </trkpt>
      <trkpt lat="49.87586" lon="4.76763">
        <ele>399</ele>
        <time>2020-11-13T08:55:24.000Z</time>
      </trkpt>
      <trkpt lat="49.87586" lon="4.7677">
        <ele>399</ele>
        <time>2020-11-13T08:55:25.000Z</time>
      </trkpt>
      <trkpt lat="49.87586" lon="4.76777">
        <ele>399</ele>
        <time>2020-11-13T08:55:26.000Z</time>
      </trkpt>
      <trkpt lat="49.87586" lon="4.76783">
        <ele>399</ele>
        <time>2020-11-13T08:55:27.000Z</time>
      </trkpt>
      <trkpt lat="49.87587" lon="4.7679">
        <ele>398</ele>
        <time>2020-11-13T08:55:28.000Z</time>
      </trkpt>
      <trkpt lat="49.87586" lon="4.76796">
        <ele>398</ele>
        <time>2020-11-13T08:55:29.000Z</time>
      </trkpt>
      <trkpt lat="49.87586" lon="4.76802">
        <ele>398</ele>
        <time>2020-11-13T08:55:30.000Z</time>
      </trkpt>
      <trkpt lat="49.87586" lon="4.76808">
        <ele>398</ele>
        <time>2020-11-13T08:55:31.000Z</time>
      </trkpt>
      <trkpt lat="49.87585" lon="4.76814">
        <ele>398</ele>
        <time>2020-11-13T08:55:32.000Z</time>
      </trkpt>
      <trkpt lat="49.87585" lon="4.7682">
        <ele>397</ele>
        <time>2020-11-13T08:55:33.000Z</time>
      </trkpt>
      <trkpt lat="49.87585" lon="4.76826">
        <ele>397</ele>
        <time>2020-11-13T08:55:34.000Z</time>
      </trkpt>
      <trkpt lat="49.87586" lon="4.76833">
        <ele>397</ele>
        <time>2020-11-13T08:55:35.000Z</time>
      </trkpt>
      <trkpt lat="49.87587" lon="4.7684">
        <ele>396</ele>
        <time>2020-11-13T08:55:36.000Z</time>
      </trkpt>
      <trkpt lat="49.87588" lon="4.76848">
        <ele>396</ele>
        <time>2020-11-13T08:55:37.000Z</time>
      </trkpt>
      <trkpt lat="49.87589" lon="4.76856">
        <ele>396</ele>
        <time>2020-11-13T08:55:38.000Z</time>
      </trkpt>
      <trkpt lat="49.8759" lon="4.76863">
        <ele>396</ele>
        <time>2020-11-13T08:55:39.000Z</time>
      </trkpt>
      <trkpt lat="49.87591" lon="4.7687">
        <ele>395</ele>
        <time>2020-11-13T08:55:40.000Z</time>
      </trkpt>
      <trkpt lat="49.87592" lon="4.76877">
        <ele>395</ele>
        <time>2020-11-13T08:55:41.000Z</time>
      </trkpt>
      <trkpt lat="49.87594" lon="4.76882">
        <ele>395</ele>
        <time>2020-11-13T08:55:42.000Z</time>
      </trkpt>
      <trkpt lat="49.87595" lon="4.76886">
        <ele>394</ele>
        <time>2020-11-13T08:55:43.000Z</time>
      </trkpt>
      <trkpt lat="49.87596" lon="4.7689">
        <ele>394</ele>
        <time>2020-11-13T08:55:44.000Z</time>
      </trkpt>
      <trkpt lat="49.87597" lon="4.76894">
        <ele>394</ele>
        <time>2020-11-13T08:55:45.000Z</time>
      </trkpt>
      <trkpt lat="49.87598" lon="4.76899">
        <ele>393</ele>
        <time>2020-11-13T08:55:46.000Z</time>
      </trkpt>
      <trkpt lat="49.876" lon="4.76903">
        <ele>393</ele>
        <time>2020-11-13T08:55:47.000Z</time>
      </trkpt>
      <trkpt lat="49.87601" lon="4.76908">
        <ele>393</ele>
        <time>2020-11-13T08:55:48.000Z</time>
      </trkpt>
      <trkpt lat="49.87601" lon="4.76914">
        <ele>392</ele>
        <time>2020-11-13T08:55:49.000Z</time>
      </trkpt>
      <trkpt lat="49.87601" lon="4.76919">
        <ele>392</ele>
        <time>2020-11-13T08:55:50.000Z</time>
      </trkpt>
      <trkpt lat="49.87601" lon="4.76924">
        <ele>391</ele>
        <time>2020-11-13T08:55:51.000Z</time>
      </trkpt>
      <trkpt lat="49.876" lon="4.76928">
        <ele>391</ele>
        <time>2020-11-13T08:55:52.000Z</time>
      </trkpt>
      <trkpt lat="49.876" lon="4.76932">
        <ele>390</ele>
        <time>2020-11-13T08:55:53.000Z</time>
      </trkpt>
      <trkpt lat="49.876" lon="4.76935">
        <ele>390</ele>
        <time>2020-11-13T08:55:54.000Z</time>
      </trkpt>
      <trkpt lat="49.876" lon="4.76937">
        <ele>389</ele>
        <time>2020-11-13T08:55:55.000Z</time>
      </trkpt>
      <trkpt lat="49.87601" lon="4.76937">
        <ele>389</ele>
        <time>2020-11-13T08:55:56.000Z</time>
      </trkpt>
      <trkpt lat="49.87601" lon="4.76938">
        <ele>389</ele>
        <time>2020-11-13T08:55:57.000Z</time>
      </trkpt>
      <trkpt lat="49.87601" lon="4.76938">
        <ele>388</ele>
        <time>2020-11-13T08:55:58.000Z</time>
      </trkpt>
      <trkpt lat="49.87601" lon="4.76938">
        <ele>388</ele>
        <time>2020-11-13T08:55:59.000Z</time>
      </trkpt>
      <trkpt lat="49.87601" lon="4.76938">
        <ele>388</ele>
        <time>2020-11-13T08:56:00.000Z</time>
      </trkpt>
      <trkpt lat="49.87601" lon="4.76939">
        <ele>388</ele>
        <time>2020-11-13T08:56:01.000Z</time>
      </trkpt>
      <trkpt lat="49.87601" lon="4.76939">
        <ele>387</ele>
        <time>2020-11-13T08:56:02.000Z</time>
      </trkpt>
      <trkpt lat="49.87601" lon="4.76939">
        <ele>387</ele>
        <time>2020-11-13T08:56:03.000Z</time>
      </trkpt>
      <trkpt lat="49.87601" lon="4.76939">
        <ele>387</ele>
        <time>2020-11-13T08:56:04.000Z</time>
      </trkpt>
      <trkpt lat="49.87601" lon="4.76939">
        <ele>387</ele>
        <time>2020-11-13T08:56:05.000Z</time>
      </trkpt>
      <trkpt lat="49.87601" lon="4.76939">
        <ele>387</ele>
        <time>2020-11-13T08:56:06.000Z</time>
      </trkpt>
      <trkpt lat="49.87601" lon="4.76939">
        <ele>386</ele>
        <time>2020-11-13T08:56:07.000Z</time>
      </trkpt>
      <trkpt lat="49.87601" lon="4.76939">
        <ele>386</ele>
        <time>2020-11-13T08:56:08.000Z</time>
      </trkpt>
      <trkpt lat="49.87601" lon="4.76939">
        <ele>386</ele>
        <time>2020-11-13T08:56:09.000Z</time>
      </trkpt>
      <trkpt lat="49.87601" lon="4.76939">
        <ele>386</ele>
        <time>2020-11-13T08:56:10.000Z</time>
      </trkpt>
      <trkpt lat="49.87601" lon="4.76939">
        <ele>386</ele>
        <time>2020-11-13T08:56:11.000Z</time>
      </trkpt>
      <trkpt lat="49.87601" lon="4.76939">
        <ele>386</ele>
        <time>2020-11-13T08:56:12.000Z</time>
      </trkpt>
      <trkpt lat="49.87601" lon="4.76939">
        <ele>385</ele>
        <time>2020-11-13T08:56:13.000Z</time>
      </trkpt>
      <trkpt lat="49.87601" lon="4.76939">
        <ele>385</ele>
        <time>2020-11-13T08:56:14.000Z</time>
      </trkpt>
      <trkpt lat="49.87602" lon="4.76939">
        <ele>385</ele>
        <time>2020-11-13T08:56:15.000Z</time>
      </trkpt>
      <trkpt lat="49.87602" lon="4.76939">
        <ele>384</ele>
        <time>2020-11-13T08:56:16.000Z</time>
      </trkpt>
      <trkpt lat="49.87602" lon="4.76941">
        <ele>384</ele>
        <time>2020-11-13T08:56:17.000Z</time>
      </trkpt>
      <trkpt lat="49.87602" lon="4.76942">
        <ele>384</ele>
        <time>2020-11-13T08:56:18.000Z</time>
      </trkpt>
      <trkpt lat="49.87602" lon="4.76944">
        <ele>384</ele>
        <time>2020-11-13T08:56:19.000Z</time>
      </trkpt>
      <trkpt lat="49.87601" lon="4.76946">
        <ele>383</ele>
        <time>2020-11-13T08:56:20.000Z</time>
      </trkpt>
      <trkpt lat="49.87601" lon="4.76948">
        <ele>383</ele>
        <time>2020-11-13T08:56:21.000Z</time>
      </trkpt>
      <trkpt lat="49.87602" lon="4.7695">
        <ele>383</ele>
        <time>2020-11-13T08:56:22.000Z</time>
      </trkpt>
      <trkpt lat="49.87603" lon="4.76952">
        <ele>382</ele>
        <time>2020-11-13T08:56:23.000Z</time>
      </trkpt>
      <trkpt lat="49.87603" lon="4.76954">
        <ele>381</ele>
        <time>2020-11-13T08:56:24.000Z</time>
      </trkpt>
      <trkpt lat="49.87603" lon="4.76956">
        <ele>381</ele>
        <time>2020-11-13T08:56:25.000Z</time>
      </trkpt>
      <trkpt lat="49.87604" lon="4.76957">
        <ele>380</ele>
        <time>2020-11-13T08:56:26.000Z</time>
      </trkpt>
      <trkpt lat="49.87604" lon="4.76957">
        <ele>380</ele>
        <time>2020-11-13T08:56:27.000Z</time>
      </trkpt>
      <trkpt lat="49.87604" lon="4.76958">
        <ele>379</ele>
        <time>2020-11-13T08:56:28.000Z</time>
      </trkpt>
      <trkpt lat="49.87604" lon="4.76958">
        <ele>379</ele>
        <time>2020-11-13T08:56:29.000Z</time>
      </trkpt>
      <trkpt lat="49.87604" lon="4.76959">
        <ele>378</ele>
        <time>2020-11-13T08:56:30.000Z</time>
      </trkpt>
      <trkpt lat="49.87605" lon="4.7696">
        <ele>378</ele>
        <time>2020-11-13T08:56:31.000Z</time>
      </trkpt>
      <trkpt lat="49.87606" lon="4.76961">
        <ele>377</ele>
        <time>2020-11-13T08:56:32.000Z</time>
      </trkpt>
      <trkpt lat="49.87607" lon="4.76962">
        <ele>377</ele>
        <time>2020-11-13T08:56:33.000Z</time>
      </trkpt>
      <trkpt lat="49.87608" lon="4.76964">
        <ele>376</ele>
        <time>2020-11-13T08:56:34.000Z</time>
      </trkpt>
      <trkpt lat="49.87609" lon="4.76965">
        <ele>376</ele>
        <time>2020-11-13T08:56:35.000Z</time>
      </trkpt>
      <trkpt lat="49.87609" lon="4.76966">
        <ele>376</ele>
        <time>2020-11-13T08:56:36.000Z</time>
      </trkpt>
      <trkpt lat="49.8761" lon="4.76967">
        <ele>375</ele>
        <time>2020-11-13T08:56:37.000Z</time>
      </trkpt>
      <trkpt lat="49.87611" lon="4.76969">
        <ele>375</ele>
        <time>2020-11-13T08:56:38.000Z</time>
      </trkpt>
      <trkpt lat="49.87611" lon="4.7697">
        <ele>374</ele>
        <time>2020-11-13T08:56:39.000Z</time>
      </trkpt>
      <trkpt lat="49.87612" lon="4.76971">
        <ele>374</ele>
        <time>2020-11-13T08:56:40.000Z</time>
      </trkpt>
      <trkpt lat="49.87612" lon="4.76973">
        <ele>374</ele>
        <time>2020-11-13T08:56:41.000Z</time>
      </trkpt>
      <trkpt lat="49.87612" lon="4.76974">
        <ele>374</ele>
        <time>2020-11-13T08:56:42.000Z</time>
      </trkpt>
      <trkpt lat="49.87612" lon="4.76975">
        <ele>374</ele>
        <time>2020-11-13T08:56:43.000Z</time>
      </trkpt>
      <trkpt lat="49.87612" lon="4.76976">
        <ele>373</ele>
        <time>2020-11-13T08:56:44.000Z</time>
      </trkpt>
      <trkpt lat="49.87612" lon="4.76978">
        <ele>373</ele>
        <time>2020-11-13T08:56:45.000Z</time>
      </trkpt>
      <trkpt lat="49.87612" lon="4.76979">
        <ele>373</ele>
        <time>2020-11-13T08:56:46.000Z</time>
      </trkpt>
      <trkpt lat="49.87612" lon="4.7698">
        <ele>373</ele>
        <time>2020-11-13T08:56:47.000Z</time>
      </trkpt>
      <trkpt lat="49.87611" lon="4.76982">
        <ele>373</ele>
        <time>2020-11-13T08:56:48.000Z</time>
      </trkpt>
      <trkpt lat="49.8761" lon="4.76983">
        <ele>373</ele>
        <time>2020-11-13T08:56:49.000Z</time>
      </trkpt>
      <trkpt lat="49.8761" lon="4.76984">
        <ele>373</ele>
        <time>2020-11-13T08:56:50.000Z</time>
      </trkpt>
      <trkpt lat="49.8761" lon="4.76984">
        <ele>373</ele>
        <time>2020-11-13T08:56:51.000Z</time>
      </trkpt>
      <trkpt lat="49.8761" lon="4.76985">
        <ele>373</ele>
        <time>2020-11-13T08:56:52.000Z</time>
      </trkpt>
      <trkpt lat="49.87609" lon="4.76987">
        <ele>373</ele>
        <time>2020-11-13T08:56:53.000Z</time>
      </trkpt>
      <trkpt lat="49.87609" lon="4.7699">
        <ele>374</ele>
        <time>2020-11-13T08:56:54.000Z</time>
      </trkpt>
      <trkpt lat="49.87609" lon="4.76994">
        <ele>374</ele>
        <time>2020-11-13T08:56:55.000Z</time>
      </trkpt>
      <trkpt lat="49.87609" lon="4.76999">
        <ele>373</ele>
        <time>2020-11-13T08:56:56.000Z</time>
      </trkpt>
      <trkpt lat="49.8761" lon="4.77004">
        <ele>373</ele>
        <time>2020-11-13T08:56:57.000Z</time>
      </trkpt>
      <trkpt lat="49.8761" lon="4.7701">
        <ele>373</ele>
        <time>2020-11-13T08:56:58.000Z</time>
      </trkpt>
      <trkpt lat="49.87612" lon="4.77015">
        <ele>373</ele>
        <time>2020-11-13T08:56:59.000Z</time>
      </trkpt>
      <trkpt lat="49.87614" lon="4.77021">
        <ele>373</ele>
        <time>2020-11-13T08:57:00.000Z</time>
      </trkpt>
      <trkpt lat="49.87616" lon="4.77028">
        <ele>372</ele>
        <time>2020-11-13T08:57:01.000Z</time>
      </trkpt>
      <trkpt lat="49.87618" lon="4.77036">
        <ele>372</ele>
        <time>2020-11-13T08:57:02.000Z</time>
      </trkpt>
      <trkpt lat="49.8762" lon="4.77044">
        <ele>372</ele>
        <time>2020-11-13T08:57:03.000Z</time>
      </trkpt>
      <trkpt lat="49.87621" lon="4.77052">
        <ele>371</ele>
        <time>2020-11-13T08:57:04.000Z</time>
      </trkpt>
      <trkpt lat="49.87623" lon="4.77059">
        <ele>371</ele>
        <time>2020-11-13T08:57:05.000Z</time>
      </trkpt>
      <trkpt lat="49.87625" lon="4.77067">
        <ele>371</ele>
        <time>2020-11-13T08:57:06.000Z</time>
      </trkpt>
      <trkpt lat="49.87626" lon="4.77074">
        <ele>371</ele>
        <time>2020-11-13T08:57:07.000Z</time>
      </trkpt>
      <trkpt lat="49.87626" lon="4.77082">
        <ele>370</ele>
        <time>2020-11-13T08:57:08.000Z</time>
      </trkpt>
      <trkpt lat="49.87627" lon="4.77089">
        <ele>370</ele>
        <time>2020-11-13T08:57:09.000Z</time>
      </trkpt>
      <trkpt lat="49.87627" lon="4.77095">
        <ele>370</ele>
        <time>2020-11-13T08:57:10.000Z</time>
      </trkpt>
      <trkpt lat="49.87627" lon="4.77099">
        <ele>370</ele>
        <time>2020-11-13T08:57:11.000Z</time>
      </trkpt>
      <trkpt lat="49.87627" lon="4.77102">
        <ele>369</ele>
        <time>2020-11-13T08:57:12.000Z</time>
      </trkpt>
      <trkpt lat="49.87627" lon="4.77105">
        <ele>369</ele>
        <time>2020-11-13T08:57:13.000Z</time>
      </trkpt>
      <trkpt lat="49.87627" lon="4.77107">
        <ele>369</ele>
        <time>2020-11-13T08:57:14.000Z</time>
      </trkpt>
      <trkpt lat="49.87626" lon="4.77108">
        <ele>369</ele>
        <time>2020-11-13T08:57:15.000Z</time>
      </trkpt>
      <trkpt lat="49.87625" lon="4.77108">
        <ele>369</ele>
        <time>2020-11-13T08:57:16.000Z</time>
      </trkpt>
      <trkpt lat="49.87624" lon="4.77109">
        <ele>369</ele>
        <time>2020-11-13T08:57:17.000Z</time>
      </trkpt>
      <trkpt lat="49.87624" lon="4.77109">
        <ele>369</ele>
        <time>2020-11-13T08:57:18.000Z</time>
      </trkpt>
      <trkpt lat="49.87624" lon="4.77109">
        <ele>369</ele>
        <time>2020-11-13T08:57:19.000Z</time>
      </trkpt>
      <trkpt lat="49.87624" lon="4.77109">
        <ele>369</ele>
        <time>2020-11-13T08:57:20.000Z</time>
      </trkpt>
      <trkpt lat="49.87624" lon="4.7711">
        <ele>369</ele>
        <time>2020-11-13T08:57:21.000Z</time>
      </trkpt>
      <trkpt lat="49.87624" lon="4.77111">
        <ele>369</ele>
        <time>2020-11-13T08:57:22.000Z</time>
      </trkpt>
      <trkpt lat="49.87624" lon="4.77112">
        <ele>369</ele>
        <time>2020-11-13T08:57:23.000Z</time>
      </trkpt>
      <trkpt lat="49.87624" lon="4.77113">
        <ele>368</ele>
        <time>2020-11-13T08:57:24.000Z</time>
      </trkpt>
      <trkpt lat="49.87624" lon="4.77114">
        <ele>368</ele>
        <time>2020-11-13T08:57:25.000Z</time>
      </trkpt>
      <trkpt lat="49.87624" lon="4.77115">
        <ele>368</ele>
        <time>2020-11-13T08:57:26.000Z</time>
      </trkpt>
      <trkpt lat="49.87623" lon="4.77118">
        <ele>368</ele>
        <time>2020-11-13T08:57:27.000Z</time>
      </trkpt>
      <trkpt lat="49.87622" lon="4.7712">
        <ele>368</ele>
        <time>2020-11-13T08:57:28.000Z</time>
      </trkpt>
      <trkpt lat="49.87621" lon="4.77121">
        <ele>368</ele>
        <time>2020-11-13T08:57:29.000Z</time>
      </trkpt>
      <trkpt lat="49.8762" lon="4.77124">
        <ele>368</ele>
        <time>2020-11-13T08:57:30.000Z</time>
      </trkpt>
      <trkpt lat="49.87618" lon="4.77127">
        <ele>368</ele>
        <time>2020-11-13T08:57:31.000Z</time>
      </trkpt>
      <trkpt lat="49.87616" lon="4.7713">
        <ele>368</ele>
        <time>2020-11-13T08:57:32.000Z</time>
      </trkpt>
      <trkpt lat="49.87614" lon="4.77133">
        <ele>368</ele>
        <time>2020-11-13T08:57:33.000Z</time>
      </trkpt>
      <trkpt lat="49.87613" lon="4.77135">
        <ele>368</ele>
        <time>2020-11-13T08:57:34.000Z</time>
      </trkpt>
      <trkpt lat="49.87611" lon="4.77136">
        <ele>368</ele>
        <time>2020-11-13T08:57:35.000Z</time>
      </trkpt>
      <trkpt lat="49.87609" lon="4.77138">
        <ele>368</ele>
        <time>2020-11-13T08:57:36.000Z</time>
      </trkpt>
      <trkpt lat="49.87607" lon="4.7714">
        <ele>368</ele>
        <time>2020-11-13T08:57:37.000Z</time>
      </trkpt>
      <trkpt lat="49.87605" lon="4.77141">
        <ele>368</ele>
        <time>2020-11-13T08:57:38.000Z</time>
      </trkpt>
      <trkpt lat="49.87603" lon="4.77141">
        <ele>368</ele>
        <time>2020-11-13T08:57:39.000Z</time>
      </trkpt>
      <trkpt lat="49.87601" lon="4.77142">
        <ele>368</ele>
        <time>2020-11-13T08:57:40.000Z</time>
      </trkpt>
      <trkpt lat="49.87598" lon="4.77143">
        <ele>368</ele>
        <time>2020-11-13T08:57:41.000Z</time>
      </trkpt>
      <trkpt lat="49.87596" lon="4.77144">
        <ele>368</ele>
        <time>2020-11-13T08:57:42.000Z</time>
      </trkpt>
      <trkpt lat="49.87593" lon="4.77145">
        <ele>368</ele>
        <time>2020-11-13T08:57:43.000Z</time>
      </trkpt>
      <trkpt lat="49.8759" lon="4.77146">
        <ele>368</ele>
        <time>2020-11-13T08:57:44.000Z</time>
      </trkpt>
      <trkpt lat="49.87587" lon="4.77147">
        <ele>368</ele>
        <time>2020-11-13T08:57:45.000Z</time>
      </trkpt>
      <trkpt lat="49.87584" lon="4.77148">
        <ele>368</ele>
        <time>2020-11-13T08:57:46.000Z</time>
      </trkpt>
      <trkpt lat="49.87581" lon="4.77149">
        <ele>368</ele>
        <time>2020-11-13T08:57:47.000Z</time>
      </trkpt>
      <trkpt lat="49.87578" lon="4.77149">
        <ele>368</ele>
        <time>2020-11-13T08:57:48.000Z</time>
      </trkpt>
      <trkpt lat="49.87574" lon="4.7715">
        <ele>368</ele>
        <time>2020-11-13T08:57:49.000Z</time>
      </trkpt>
      <trkpt lat="49.8757" lon="4.7715">
        <ele>368</ele>
        <time>2020-11-13T08:57:50.000Z</time>
      </trkpt>
      <trkpt lat="49.87567" lon="4.7715">
        <ele>368</ele>
        <time>2020-11-13T08:57:51.000Z</time>
      </trkpt>
      <trkpt lat="49.87563" lon="4.77151">
        <ele>368</ele>
        <time>2020-11-13T08:57:52.000Z</time>
      </trkpt>
      <trkpt lat="49.87559" lon="4.77151">
        <ele>368</ele>
        <time>2020-11-13T08:57:53.000Z</time>
      </trkpt>
      <trkpt lat="49.87556" lon="4.77151">
        <ele>368</ele>
        <time>2020-11-13T08:57:54.000Z</time>
      </trkpt>
      <trkpt lat="49.87552" lon="4.7715">
        <ele>368</ele>
        <time>2020-11-13T08:57:55.000Z</time>
      </trkpt>
      <trkpt lat="49.87548" lon="4.77151">
        <ele>368</ele>
        <time>2020-11-13T08:57:56.000Z</time>
      </trkpt>
      <trkpt lat="49.87545" lon="4.77152">
        <ele>367</ele>
        <time>2020-11-13T08:57:57.000Z</time>
      </trkpt>
      <trkpt lat="49.87542" lon="4.77152">
        <ele>367</ele>
        <time>2020-11-13T08:57:58.000Z</time>
      </trkpt>
      <trkpt lat="49.87539" lon="4.77151">
        <ele>367</ele>
        <time>2020-11-13T08:57:59.000Z</time>
      </trkpt>
      <trkpt lat="49.87535" lon="4.77151">
        <ele>367</ele>
        <time>2020-11-13T08:58:00.000Z</time>
      </trkpt>
      <trkpt lat="49.87531" lon="4.77151">
        <ele>367</ele>
        <time>2020-11-13T08:58:01.000Z</time>
      </trkpt>
      <trkpt lat="49.87527" lon="4.77152">
        <ele>367</ele>
        <time>2020-11-13T08:58:02.000Z</time>
      </trkpt>
      <trkpt lat="49.87523" lon="4.77154">
        <ele>367</ele>
        <time>2020-11-13T08:58:03.000Z</time>
      </trkpt>
      <trkpt lat="49.8752" lon="4.77156">
        <ele>366</ele>
        <time>2020-11-13T08:58:04.000Z</time>
      </trkpt>
      <trkpt lat="49.87516" lon="4.77158">
        <ele>366</ele>
        <time>2020-11-13T08:58:05.000Z</time>
      </trkpt>
      <trkpt lat="49.87514" lon="4.7716">
        <ele>366</ele>
        <time>2020-11-13T08:58:06.000Z</time>
      </trkpt>
      <trkpt lat="49.87512" lon="4.77162">
        <ele>366</ele>
        <time>2020-11-13T08:58:07.000Z</time>
      </trkpt>
      <trkpt lat="49.8751" lon="4.77163">
        <ele>366</ele>
        <time>2020-11-13T08:58:08.000Z</time>
      </trkpt>
      <trkpt lat="49.87507" lon="4.77162">
        <ele>366</ele>
        <time>2020-11-13T08:58:09.000Z</time>
      </trkpt>
      <trkpt lat="49.87505" lon="4.77161">
        <ele>366</ele>
        <time>2020-11-13T08:58:10.000Z</time>
      </trkpt>
      <trkpt lat="49.87503" lon="4.7716">
        <ele>365</ele>
        <time>2020-11-13T08:58:11.000Z</time>
      </trkpt>
      <trkpt lat="49.87501" lon="4.77159">
        <ele>365</ele>
        <time>2020-11-13T08:58:12.000Z</time>
      </trkpt>
      <trkpt lat="49.87499" lon="4.77157">
        <ele>365</ele>
        <time>2020-11-13T08:58:13.000Z</time>
      </trkpt>
      <trkpt lat="49.87497" lon="4.77156">
        <ele>365</ele>
        <time>2020-11-13T08:58:14.000Z</time>
      </trkpt>
      <trkpt lat="49.87494" lon="4.77154">
        <ele>365</ele>
        <time>2020-11-13T08:58:15.000Z</time>
      </trkpt>
      <trkpt lat="49.87491" lon="4.77152">
        <ele>365</ele>
        <time>2020-11-13T08:58:16.000Z</time>
      </trkpt>
      <trkpt lat="49.87488" lon="4.7715">
        <ele>365</ele>
        <time>2020-11-13T08:58:17.000Z</time>
      </trkpt>
      <trkpt lat="49.87485" lon="4.77147">
        <ele>365</ele>
        <time>2020-11-13T08:58:18.000Z</time>
      </trkpt>
      <trkpt lat="49.87482" lon="4.77145">
        <ele>365</ele>
        <time>2020-11-13T08:58:19.000Z</time>
      </trkpt>
      <trkpt lat="49.87479" lon="4.77143">
        <ele>365</ele>
        <time>2020-11-13T08:58:20.000Z</time>
      </trkpt>
      <trkpt lat="49.87475" lon="4.77142">
        <ele>365</ele>
        <time>2020-11-13T08:58:21.000Z</time>
      </trkpt>
      <trkpt lat="49.87472" lon="4.77141">
        <ele>365</ele>
        <time>2020-11-13T08:58:22.000Z</time>
      </trkpt>
      <trkpt lat="49.87469" lon="4.7714">
        <ele>365</ele>
        <time>2020-11-13T08:58:23.000Z</time>
      </trkpt>
      <trkpt lat="49.87466" lon="4.77138">
        <ele>364</ele>
        <time>2020-11-13T08:58:24.000Z</time>
      </trkpt>
      <trkpt lat="49.87462" lon="4.77136">
        <ele>364</ele>
        <time>2020-11-13T08:58:25.000Z</time>
      </trkpt>
      <trkpt lat="49.87458" lon="4.77133">
        <ele>364</ele>
        <time>2020-11-13T08:58:26.000Z</time>
      </trkpt>
      <trkpt lat="49.87454" lon="4.77131">
        <ele>364</ele>
        <time>2020-11-13T08:58:27.000Z</time>
      </trkpt>
      <trkpt lat="49.8745" lon="4.77127">
        <ele>364</ele>
        <time>2020-11-13T08:58:28.000Z</time>
      </trkpt>
      <trkpt lat="49.87446" lon="4.77124">
        <ele>363</ele>
        <time>2020-11-13T08:58:29.000Z</time>
      </trkpt>
      <trkpt lat="49.87442" lon="4.77121">
        <ele>363</ele>
        <time>2020-11-13T08:58:30.000Z</time>
      </trkpt>
      <trkpt lat="49.87439" lon="4.77118">
        <ele>363</ele>
        <time>2020-11-13T08:58:31.000Z</time>
      </trkpt>
      <trkpt lat="49.87434" lon="4.77115">
        <ele>363</ele>
        <time>2020-11-13T08:58:32.000Z</time>
      </trkpt>
      <trkpt lat="49.87431" lon="4.77112">
        <ele>362</ele>
        <time>2020-11-13T08:58:33.000Z</time>
      </trkpt>
      <trkpt lat="49.87427" lon="4.77109">
        <ele>362</ele>
        <time>2020-11-13T08:58:34.000Z</time>
      </trkpt>
      <trkpt lat="49.87422" lon="4.77106">
        <ele>362</ele>
        <time>2020-11-13T08:58:35.000Z</time>
      </trkpt>
      <trkpt lat="49.87419" lon="4.77102">
        <ele>361</ele>
        <time>2020-11-13T08:58:36.000Z</time>
      </trkpt>
      <trkpt lat="49.87415" lon="4.77098">
        <ele>361</ele>
        <time>2020-11-13T08:58:37.000Z</time>
      </trkpt>
      <trkpt lat="49.87412" lon="4.77096">
        <ele>361</ele>
        <time>2020-11-13T08:58:38.000Z</time>
      </trkpt>
      <trkpt lat="49.87409" lon="4.77093">
        <ele>360</ele>
        <time>2020-11-13T08:58:39.000Z</time>
      </trkpt>
      <trkpt lat="49.87405" lon="4.7709">
        <ele>360</ele>
        <time>2020-11-13T08:58:40.000Z</time>
      </trkpt>
      <trkpt lat="49.87402" lon="4.77087">
        <ele>360</ele>
        <time>2020-11-13T08:58:41.000Z</time>
      </trkpt>
      <trkpt lat="49.87399" lon="4.77085">
        <ele>359</ele>
        <time>2020-11-13T08:58:42.000Z</time>
      </trkpt>
      <trkpt lat="49.87396" lon="4.77084">
        <ele>359</ele>
        <time>2020-11-13T08:58:43.000Z</time>
      </trkpt>
      <trkpt lat="49.87392" lon="4.77081">
        <ele>358</ele>
        <time>2020-11-13T08:58:44.000Z</time>
      </trkpt>
      <trkpt lat="49.87389" lon="4.77077">
        <ele>358</ele>
        <time>2020-11-13T08:58:45.000Z</time>
      </trkpt>
      <trkpt lat="49.87386" lon="4.77075">
        <ele>357</ele>
        <time>2020-11-13T08:58:46.000Z</time>
      </trkpt>
      <trkpt lat="49.87383" lon="4.77072">
        <ele>357</ele>
        <time>2020-11-13T08:58:47.000Z</time>
      </trkpt>
      <trkpt lat="49.8738" lon="4.7707">
        <ele>356</ele>
        <time>2020-11-13T08:58:48.000Z</time>
      </trkpt>
      <trkpt lat="49.87377" lon="4.77067">
        <ele>356</ele>
        <time>2020-11-13T08:58:49.000Z</time>
      </trkpt>
      <trkpt lat="49.87374" lon="4.77064">
        <ele>355</ele>
        <time>2020-11-13T08:58:50.000Z</time>
      </trkpt>
      <trkpt lat="49.87371" lon="4.77061">
        <ele>354</ele>
        <time>2020-11-13T08:58:51.000Z</time>
      </trkpt>
      <trkpt lat="49.87368" lon="4.77058">
        <ele>354</ele>
        <time>2020-11-13T08:58:52.000Z</time>
      </trkpt>
      <trkpt lat="49.87364" lon="4.77055">
        <ele>353</ele>
        <time>2020-11-13T08:58:53.000Z</time>
      </trkpt>
      <trkpt lat="49.87361" lon="4.77052">
        <ele>352</ele>
        <time>2020-11-13T08:58:54.000Z</time>
      </trkpt>
      <trkpt lat="49.87358" lon="4.7705">
        <ele>352</ele>
        <time>2020-11-13T08:58:55.000Z</time>
      </trkpt>
      <trkpt lat="49.87354" lon="4.77049">
        <ele>351</ele>
        <time>2020-11-13T08:58:56.000Z</time>
      </trkpt>
      <trkpt lat="49.8735" lon="4.77047">
        <ele>350</ele>
        <time>2020-11-13T08:58:57.000Z</time>
      </trkpt>
      <trkpt lat="49.87346" lon="4.77044">
        <ele>349</ele>
        <time>2020-11-13T08:58:58.000Z</time>
      </trkpt>
      <trkpt lat="49.87343" lon="4.77041">
        <ele>348</ele>
        <time>2020-11-13T08:58:59.000Z</time>
      </trkpt>
      <trkpt lat="49.87339" lon="4.77039">
        <ele>347</ele>
        <time>2020-11-13T08:59:00.000Z</time>
      </trkpt>
      <trkpt lat="49.87335" lon="4.77036">
        <ele>347</ele>
        <time>2020-11-13T08:59:01.000Z</time>
      </trkpt>
      <trkpt lat="49.87331" lon="4.77034">
        <ele>346</ele>
        <time>2020-11-13T08:59:02.000Z</time>
      </trkpt>
      <trkpt lat="49.87327" lon="4.77031">
        <ele>345</ele>
        <time>2020-11-13T08:59:03.000Z</time>
      </trkpt>
      <trkpt lat="49.87323" lon="4.7703">
        <ele>344</ele>
        <time>2020-11-13T08:59:04.000Z</time>
      </trkpt>
      <trkpt lat="49.87318" lon="4.77028">
        <ele>343</ele>
        <time>2020-11-13T08:59:05.000Z</time>
      </trkpt>
      <trkpt lat="49.87314" lon="4.77027">
        <ele>342</ele>
        <time>2020-11-13T08:59:06.000Z</time>
      </trkpt>
      <trkpt lat="49.87311" lon="4.77027">
        <ele>341</ele>
        <time>2020-11-13T08:59:07.000Z</time>
      </trkpt>
      <trkpt lat="49.87307" lon="4.77027">
        <ele>340</ele>
        <time>2020-11-13T08:59:08.000Z</time>
      </trkpt>
      <trkpt lat="49.87304" lon="4.77026">
        <ele>339</ele>
        <time>2020-11-13T08:59:09.000Z</time>
      </trkpt>
      <trkpt lat="49.873" lon="4.77025">
        <ele>338</ele>
        <time>2020-11-13T08:59:10.000Z</time>
      </trkpt>
      <trkpt lat="49.87297" lon="4.77025">
        <ele>337</ele>
        <time>2020-11-13T08:59:11.000Z</time>
      </trkpt>
      <trkpt lat="49.87293" lon="4.77024">
        <ele>336</ele>
        <time>2020-11-13T08:59:12.000Z</time>
      </trkpt>
      <trkpt lat="49.8729" lon="4.77023">
        <ele>336</ele>
        <time>2020-11-13T08:59:13.000Z</time>
      </trkpt>
      <trkpt lat="49.87288" lon="4.77021">
        <ele>335</ele>
        <time>2020-11-13T08:59:14.000Z</time>
      </trkpt>
      <trkpt lat="49.87285" lon="4.77019">
        <ele>334</ele>
        <time>2020-11-13T08:59:15.000Z</time>
      </trkpt>
      <trkpt lat="49.87283" lon="4.77016">
        <ele>333</ele>
        <time>2020-11-13T08:59:16.000Z</time>
      </trkpt>
      <trkpt lat="49.8728" lon="4.77014">
        <ele>332</ele>
        <time>2020-11-13T08:59:17.000Z</time>
      </trkpt>
      <trkpt lat="49.87278" lon="4.77012">
        <ele>332</ele>
        <time>2020-11-13T08:59:18.000Z</time>
      </trkpt>
      <trkpt lat="49.87275" lon="4.7701">
        <ele>331</ele>
        <time>2020-11-13T08:59:19.000Z</time>
      </trkpt>
      <trkpt lat="49.87272" lon="4.77007">
        <ele>331</ele>
        <time>2020-11-13T08:59:20.000Z</time>
      </trkpt>
      <trkpt lat="49.87269" lon="4.77004">
        <ele>330</ele>
        <time>2020-11-13T08:59:21.000Z</time>
      </trkpt>
      <trkpt lat="49.87266" lon="4.77002">
        <ele>329</ele>
        <time>2020-11-13T08:59:22.000Z</time>
      </trkpt>
      <trkpt lat="49.87263" lon="4.76999">
        <ele>329</ele>
        <time>2020-11-13T08:59:23.000Z</time>
      </trkpt>
      <trkpt lat="49.8726" lon="4.76996">
        <ele>328</ele>
        <time>2020-11-13T08:59:24.000Z</time>
      </trkpt>
      <trkpt lat="49.87256" lon="4.76993">
        <ele>328</ele>
        <time>2020-11-13T08:59:25.000Z</time>
      </trkpt>
      <trkpt lat="49.87253" lon="4.7699">
        <ele>327</ele>
        <time>2020-11-13T08:59:26.000Z</time>
      </trkpt>
      <trkpt lat="49.8725" lon="4.76987">
        <ele>326</ele>
        <time>2020-11-13T08:59:27.000Z</time>
      </trkpt>
      <trkpt lat="49.87246" lon="4.76983">
        <ele>326</ele>
        <time>2020-11-13T08:59:28.000Z</time>
      </trkpt>
      <trkpt lat="49.87242" lon="4.7698">
        <ele>325</ele>
        <time>2020-11-13T08:59:29.000Z</time>
      </trkpt>
      <trkpt lat="49.87239" lon="4.76978">
        <ele>325</ele>
        <time>2020-11-13T08:59:30.000Z</time>
      </trkpt>
      <trkpt lat="49.87236" lon="4.76976">
        <ele>324</ele>
        <time>2020-11-13T08:59:31.000Z</time>
      </trkpt>
      <trkpt lat="49.87234" lon="4.76974">
        <ele>324</ele>
        <time>2020-11-13T08:59:32.000Z</time>
      </trkpt>
      <trkpt lat="49.87231" lon="4.76972">
        <ele>324</ele>
        <time>2020-11-13T08:59:33.000Z</time>
      </trkpt>
      <trkpt lat="49.87228" lon="4.76971">
        <ele>323</ele>
        <time>2020-11-13T08:59:34.000Z</time>
      </trkpt>
      <trkpt lat="49.87225" lon="4.76969">
        <ele>323</ele>
        <time>2020-11-13T08:59:35.000Z</time>
      </trkpt>
      <trkpt lat="49.87221" lon="4.76966">
        <ele>323</ele>
        <time>2020-11-13T08:59:36.000Z</time>
      </trkpt>
      <trkpt lat="49.87218" lon="4.76963">
        <ele>322</ele>
        <time>2020-11-13T08:59:37.000Z</time>
      </trkpt>
      <trkpt lat="49.87216" lon="4.7696">
        <ele>322</ele>
        <time>2020-11-13T08:59:38.000Z</time>
      </trkpt>
      <trkpt lat="49.87213" lon="4.76958">
        <ele>322</ele>
        <time>2020-11-13T08:59:39.000Z</time>
      </trkpt>
      <trkpt lat="49.8721" lon="4.76956">
        <ele>322</ele>
        <time>2020-11-13T08:59:40.000Z</time>
      </trkpt>
      <trkpt lat="49.87207" lon="4.76953">
        <ele>321</ele>
        <time>2020-11-13T08:59:41.000Z</time>
      </trkpt>
      <trkpt lat="49.87204" lon="4.76951">
        <ele>321</ele>
        <time>2020-11-13T08:59:42.000Z</time>
      </trkpt>
      <trkpt lat="49.87201" lon="4.76948">
        <ele>321</ele>
        <time>2020-11-13T08:59:43.000Z</time>
      </trkpt>
      <trkpt lat="49.87197" lon="4.76946">
        <ele>321</ele>
        <time>2020-11-13T08:59:44.000Z</time>
      </trkpt>
      <trkpt lat="49.87193" lon="4.76943">
        <ele>321</ele>
        <time>2020-11-13T08:59:45.000Z</time>
      </trkpt>
      <trkpt lat="49.87189" lon="4.76941">
        <ele>321</ele>
        <time>2020-11-13T08:59:46.000Z</time>
      </trkpt>
      <trkpt lat="49.87185" lon="4.76938">
        <ele>321</ele>
        <time>2020-11-13T08:59:47.000Z</time>
      </trkpt>
      <trkpt lat="49.87182" lon="4.76937">
        <ele>321</ele>
        <time>2020-11-13T08:59:48.000Z</time>
      </trkpt>
      <trkpt lat="49.87178" lon="4.76935">
        <ele>321</ele>
        <time>2020-11-13T08:59:49.000Z</time>
      </trkpt>
      <trkpt lat="49.87174" lon="4.76934">
        <ele>321</ele>
        <time>2020-11-13T08:59:50.000Z</time>
      </trkpt>
      <trkpt lat="49.8717" lon="4.76933">
        <ele>321</ele>
        <time>2020-11-13T08:59:51.000Z</time>
      </trkpt>
      <trkpt lat="49.87166" lon="4.76933">
        <ele>321</ele>
        <time>2020-11-13T08:59:52.000Z</time>
      </trkpt>
      <trkpt lat="49.87162" lon="4.76933">
        <ele>321</ele>
        <time>2020-11-13T08:59:53.000Z</time>
      </trkpt>
      <trkpt lat="49.87158" lon="4.76934">
        <ele>320</ele>
        <time>2020-11-13T08:59:54.000Z</time>
      </trkpt>
      <trkpt lat="49.87153" lon="4.76936">
        <ele>320</ele>
        <time>2020-11-13T08:59:55.000Z</time>
      </trkpt>
      <trkpt lat="49.87148" lon="4.76937">
        <ele>320</ele>
        <time>2020-11-13T08:59:56.000Z</time>
      </trkpt>
      <trkpt lat="49.87142" lon="4.76938">
        <ele>320</ele>
        <time>2020-11-13T08:59:57.000Z</time>
      </trkpt>
      <trkpt lat="49.87138" lon="4.76939">
        <ele>320</ele>
        <time>2020-11-13T08:59:58.000Z</time>
      </trkpt>
      <trkpt lat="49.87134" lon="4.76941">
        <ele>320</ele>
        <time>2020-11-13T08:59:59.000Z</time>
      </trkpt>
      <trkpt lat="49.87131" lon="4.76944">
        <ele>320</ele>
        <time>2020-11-13T09:00:00.000Z</time>
      </trkpt>
      <trkpt lat="49.87127" lon="4.76947">
        <ele>320</ele>
        <time>2020-11-13T09:00:01.000Z</time>
      </trkpt>
      <trkpt lat="49.87124" lon="4.76951">
        <ele>320</ele>
        <time>2020-11-13T09:00:02.000Z</time>
      </trkpt>
      <trkpt lat="49.8712" lon="4.76955">
        <ele>320</ele>
        <time>2020-11-13T09:00:03.000Z</time>
      </trkpt>
      <trkpt lat="49.87115" lon="4.7696">
        <ele>320</ele>
        <time>2020-11-13T09:00:04.000Z</time>
      </trkpt>
      <trkpt lat="49.8711" lon="4.76964">
        <ele>320</ele>
        <time>2020-11-13T09:00:05.000Z</time>
      </trkpt>
      <trkpt lat="49.87106" lon="4.76967">
        <ele>320</ele>
        <time>2020-11-13T09:00:06.000Z</time>
      </trkpt>
      <trkpt lat="49.87102" lon="4.76969">
        <ele>319</ele>
        <time>2020-11-13T09:00:07.000Z</time>
      </trkpt>
      <trkpt lat="49.87098" lon="4.76971">
        <ele>319</ele>
        <time>2020-11-13T09:00:08.000Z</time>
      </trkpt>
      <trkpt lat="49.87095" lon="4.76972">
        <ele>319</ele>
        <time>2020-11-13T09:00:09.000Z</time>
      </trkpt>
      <trkpt lat="49.87091" lon="4.76973">
        <ele>319</ele>
        <time>2020-11-13T09:00:10.000Z</time>
      </trkpt>
      <trkpt lat="49.87087" lon="4.76976">
        <ele>319</ele>
        <time>2020-11-13T09:00:11.000Z</time>
      </trkpt>
      <trkpt lat="49.87083" lon="4.76979">
        <ele>318</ele>
        <time>2020-11-13T09:00:12.000Z</time>
      </trkpt>
      <trkpt lat="49.87079" lon="4.76981">
        <ele>318</ele>
        <time>2020-11-13T09:00:13.000Z</time>
      </trkpt>
      <trkpt lat="49.87075" lon="4.76985">
        <ele>318</ele>
        <time>2020-11-13T09:00:14.000Z</time>
      </trkpt>
      <trkpt lat="49.87071" lon="4.76989">
        <ele>317</ele>
        <time>2020-11-13T09:00:15.000Z</time>
      </trkpt>
      <trkpt lat="49.87068" lon="4.76993">
        <ele>317</ele>
        <time>2020-11-13T09:00:16.000Z</time>
      </trkpt>
      <trkpt lat="49.87064" lon="4.76997">
        <ele>317</ele>
        <time>2020-11-13T09:00:17.000Z</time>
      </trkpt>
      <trkpt lat="49.87061" lon="4.77001">
        <ele>316</ele>
        <time>2020-11-13T09:00:18.000Z</time>
      </trkpt>
      <trkpt lat="49.87057" lon="4.77005">
        <ele>316</ele>
        <time>2020-11-13T09:00:19.000Z</time>
      </trkpt>
      <trkpt lat="49.87054" lon="4.77009">
        <ele>316</ele>
        <time>2020-11-13T09:00:20.000Z</time>
      </trkpt>
      <trkpt lat="49.87051" lon="4.77014">
        <ele>316</ele>
        <time>2020-11-13T09:00:21.000Z</time>
      </trkpt>
      <trkpt lat="49.87047" lon="4.77019">
        <ele>315</ele>
        <time>2020-11-13T09:00:22.000Z</time>
      </trkpt>
      <trkpt lat="49.87043" lon="4.77024">
        <ele>315</ele>
        <time>2020-11-13T09:00:23.000Z</time>
      </trkpt>
      <trkpt lat="49.87039" lon="4.77028">
        <ele>315</ele>
        <time>2020-11-13T09:00:24.000Z</time>
      </trkpt>
      <trkpt lat="49.87035" lon="4.77032">
        <ele>315</ele>
        <time>2020-11-13T09:00:25.000Z</time>
      </trkpt>
      <trkpt lat="49.87031" lon="4.77035">
        <ele>314</ele>
        <time>2020-11-13T09:00:26.000Z</time>
      </trkpt>
      <trkpt lat="49.87028" lon="4.77038">
        <ele>314</ele>
        <time>2020-11-13T09:00:27.000Z</time>
      </trkpt>
      <trkpt lat="49.87025" lon="4.7704">
        <ele>314</ele>
        <time>2020-11-13T09:00:28.000Z</time>
      </trkpt>
      <trkpt lat="49.87023" lon="4.77044">
        <ele>314</ele>
        <time>2020-11-13T09:00:29.000Z</time>
      </trkpt>
      <trkpt lat="49.8702" lon="4.77047">
        <ele>313</ele>
        <time>2020-11-13T09:00:30.000Z</time>
      </trkpt>
      <trkpt lat="49.87019" lon="4.77051">
        <ele>313</ele>
        <time>2020-11-13T09:00:31.000Z</time>
      </trkpt>
      <trkpt lat="49.87017" lon="4.77054">
        <ele>313</ele>
        <time>2020-11-13T09:00:32.000Z</time>
      </trkpt>
      <trkpt lat="49.87015" lon="4.77058">
        <ele>313</ele>
        <time>2020-11-13T09:00:33.000Z</time>
      </trkpt>
      <trkpt lat="49.87014" lon="4.77061">
        <ele>313</ele>
        <time>2020-11-13T09:00:34.000Z</time>
      </trkpt>
      <trkpt lat="49.87012" lon="4.77064">
        <ele>313</ele>
        <time>2020-11-13T09:00:35.000Z</time>
      </trkpt>
      <trkpt lat="49.8701" lon="4.77067">
        <ele>313</ele>
        <time>2020-11-13T09:00:36.000Z</time>
      </trkpt>
      <trkpt lat="49.87009" lon="4.7707">
        <ele>313</ele>
        <time>2020-11-13T09:00:37.000Z</time>
      </trkpt>
      <trkpt lat="49.87006" lon="4.77074">
        <ele>312</ele>
        <time>2020-11-13T09:00:38.000Z</time>
      </trkpt>
      <trkpt lat="49.87004" lon="4.77078">
        <ele>312</ele>
        <time>2020-11-13T09:00:39.000Z</time>
      </trkpt>
      <trkpt lat="49.87001" lon="4.77083">
        <ele>312</ele>
        <time>2020-11-13T09:00:40.000Z</time>
      </trkpt>
      <trkpt lat="49.86999" lon="4.77088">
        <ele>312</ele>
        <time>2020-11-13T09:00:41.000Z</time>
      </trkpt>
      <trkpt lat="49.86996" lon="4.77093">
        <ele>312</ele>
        <time>2020-11-13T09:00:42.000Z</time>
      </trkpt>
      <trkpt lat="49.86994" lon="4.77098">
        <ele>311</ele>
        <time>2020-11-13T09:00:43.000Z</time>
      </trkpt>
      <trkpt lat="49.86992" lon="4.77103">
        <ele>311</ele>
        <time>2020-11-13T09:00:44.000Z</time>
      </trkpt>
      <trkpt lat="49.8699" lon="4.77108">
        <ele>311</ele>
        <time>2020-11-13T09:00:45.000Z</time>
      </trkpt>
      <trkpt lat="49.86988" lon="4.77114">
        <ele>311</ele>
        <time>2020-11-13T09:00:46.000Z</time>
      </trkpt>
      <trkpt lat="49.86985" lon="4.7712">
        <ele>311</ele>
        <time>2020-11-13T09:00:47.000Z</time>
      </trkpt>
      <trkpt lat="49.86981" lon="4.77124">
        <ele>311</ele>
        <time>2020-11-13T09:00:48.000Z</time>
      </trkpt>
      <trkpt lat="49.86978" lon="4.77129">
        <ele>310</ele>
        <time>2020-11-13T09:00:49.000Z</time>
      </trkpt>
      <trkpt lat="49.86976" lon="4.77133">
        <ele>310</ele>
        <time>2020-11-13T09:00:50.000Z</time>
      </trkpt>
      <trkpt lat="49.86973" lon="4.77137">
        <ele>310</ele>
        <time>2020-11-13T09:00:51.000Z</time>
      </trkpt>
      <trkpt lat="49.86971" lon="4.77142">
        <ele>310</ele>
        <time>2020-11-13T09:00:52.000Z</time>
      </trkpt>
      <trkpt lat="49.86968" lon="4.77147">
        <ele>310</ele>
        <time>2020-11-13T09:00:53.000Z</time>
      </trkpt>
      <trkpt lat="49.86966" lon="4.77151">
        <ele>310</ele>
        <time>2020-11-13T09:00:54.000Z</time>
      </trkpt>
      <trkpt lat="49.86964" lon="4.77155">
        <ele>310</ele>
        <time>2020-11-13T09:00:55.000Z</time>
      </trkpt>
      <trkpt lat="49.86962" lon="4.77159">
        <ele>309</ele>
        <time>2020-11-13T09:00:56.000Z</time>
      </trkpt>
      <trkpt lat="49.8696" lon="4.77163">
        <ele>309</ele>
        <time>2020-11-13T09:00:57.000Z</time>
      </trkpt>
      <trkpt lat="49.86958" lon="4.77166">
        <ele>309</ele>
        <time>2020-11-13T09:00:58.000Z</time>
      </trkpt>
      <trkpt lat="49.86956" lon="4.7717">
        <ele>309</ele>
        <time>2020-11-13T09:00:59.000Z</time>
      </trkpt>
      <trkpt lat="49.86954" lon="4.77174">
        <ele>309</ele>
        <time>2020-11-13T09:01:00.000Z</time>
      </trkpt>
      <trkpt lat="49.86953" lon="4.77177">
        <ele>309</ele>
        <time>2020-11-13T09:01:01.000Z</time>
      </trkpt>
      <trkpt lat="49.86951" lon="4.77181">
        <ele>309</ele>
        <time>2020-11-13T09:01:02.000Z</time>
      </trkpt>
      <trkpt lat="49.86949" lon="4.77185">
        <ele>309</ele>
        <time>2020-11-13T09:01:03.000Z</time>
      </trkpt>
      <trkpt lat="49.86948" lon="4.77189">
        <ele>309</ele>
        <time>2020-11-13T09:01:04.000Z</time>
      </trkpt>
      <trkpt lat="49.86946" lon="4.77194">
        <ele>309</ele>
        <time>2020-11-13T09:01:05.000Z</time>
      </trkpt>
      <trkpt lat="49.86945" lon="4.77199">
        <ele>310</ele>
        <time>2020-11-13T09:01:06.000Z</time>
      </trkpt>
      <trkpt lat="49.86944" lon="4.77203">
        <ele>310</ele>
        <time>2020-11-13T09:01:07.000Z</time>
      </trkpt>
      <trkpt lat="49.86942" lon="4.77207">
        <ele>310</ele>
        <time>2020-11-13T09:01:08.000Z</time>
      </trkpt>
      <trkpt lat="49.86941" lon="4.77212">
        <ele>310</ele>
        <time>2020-11-13T09:01:09.000Z</time>
      </trkpt>
      <trkpt lat="49.8694" lon="4.77216">
        <ele>310</ele>
        <time>2020-11-13T09:01:10.000Z</time>
      </trkpt>
      <trkpt lat="49.86939" lon="4.77221">
        <ele>310</ele>
        <time>2020-11-13T09:01:11.000Z</time>
      </trkpt>
      <trkpt lat="49.86937" lon="4.77226">
        <ele>311</ele>
        <time>2020-11-13T09:01:12.000Z</time>
      </trkpt>
      <trkpt lat="49.86936" lon="4.7723">
        <ele>311</ele>
        <time>2020-11-13T09:01:13.000Z</time>
      </trkpt>
      <trkpt lat="49.86935" lon="4.77235">
        <ele>311</ele>
        <time>2020-11-13T09:01:14.000Z</time>
      </trkpt>
      <trkpt lat="49.86934" lon="4.7724">
        <ele>311</ele>
        <time>2020-11-13T09:01:15.000Z</time>
      </trkpt>
      <trkpt lat="49.86933" lon="4.77245">
        <ele>312</ele>
        <time>2020-11-13T09:01:16.000Z</time>
      </trkpt>
      <trkpt lat="49.86932" lon="4.7725">
        <ele>312</ele>
        <time>2020-11-13T09:01:17.000Z</time>
      </trkpt>
      <trkpt lat="49.86931" lon="4.77253">
        <ele>312</ele>
        <time>2020-11-13T09:01:18.000Z</time>
      </trkpt>
      <trkpt lat="49.8693" lon="4.77257">
        <ele>312</ele>
        <time>2020-11-13T09:01:19.000Z</time>
      </trkpt>
      <trkpt lat="49.86929" lon="4.7726">
        <ele>312</ele>
        <time>2020-11-13T09:01:20.000Z</time>
      </trkpt>
      <trkpt lat="49.86928" lon="4.77264">
        <ele>312</ele>
        <time>2020-11-13T09:01:21.000Z</time>
      </trkpt>
      <trkpt lat="49.86928" lon="4.77268">
        <ele>312</ele>
        <time>2020-11-13T09:01:22.000Z</time>
      </trkpt>
      <trkpt lat="49.86926" lon="4.77271">
        <ele>312</ele>
        <time>2020-11-13T09:01:23.000Z</time>
      </trkpt>
      <trkpt lat="49.86925" lon="4.77275">
        <ele>312</ele>
        <time>2020-11-13T09:01:24.000Z</time>
      </trkpt>
      <trkpt lat="49.86923" lon="4.77278">
        <ele>312</ele>
        <time>2020-11-13T09:01:25.000Z</time>
      </trkpt>
      <trkpt lat="49.86922" lon="4.77281">
        <ele>312</ele>
        <time>2020-11-13T09:01:26.000Z</time>
      </trkpt>
      <trkpt lat="49.8692" lon="4.77283">
        <ele>312</ele>
        <time>2020-11-13T09:01:27.000Z</time>
      </trkpt>
      <trkpt lat="49.86917" lon="4.77285">
        <ele>312</ele>
        <time>2020-11-13T09:01:28.000Z</time>
      </trkpt>
      <trkpt lat="49.86915" lon="4.77287">
        <ele>312</ele>
        <time>2020-11-13T09:01:29.000Z</time>
      </trkpt>
      <trkpt lat="49.86913" lon="4.77289">
        <ele>312</ele>
        <time>2020-11-13T09:01:30.000Z</time>
      </trkpt>
      <trkpt lat="49.86911" lon="4.77291">
        <ele>312</ele>
        <time>2020-11-13T09:01:31.000Z</time>
      </trkpt>
      <trkpt lat="49.86909" lon="4.77292">
        <ele>312</ele>
        <time>2020-11-13T09:01:32.000Z</time>
      </trkpt>
      <trkpt lat="49.86907" lon="4.77294">
        <ele>312</ele>
        <time>2020-11-13T09:01:33.000Z</time>
      </trkpt>
      <trkpt lat="49.86906" lon="4.77295">
        <ele>312</ele>
        <time>2020-11-13T09:01:34.000Z</time>
      </trkpt>
      <trkpt lat="49.86904" lon="4.77297">
        <ele>312</ele>
        <time>2020-11-13T09:01:35.000Z</time>
      </trkpt>
      <trkpt lat="49.86903" lon="4.77299">
        <ele>312</ele>
        <time>2020-11-13T09:01:36.000Z</time>
      </trkpt>
      <trkpt lat="49.86902" lon="4.77302">
        <ele>312</ele>
        <time>2020-11-13T09:01:37.000Z</time>
      </trkpt>
      <trkpt lat="49.869" lon="4.77306">
        <ele>313</ele>
        <time>2020-11-13T09:01:38.000Z</time>
      </trkpt>
      <trkpt lat="49.86899" lon="4.7731">
        <ele>313</ele>
        <time>2020-11-13T09:01:39.000Z</time>
      </trkpt>
      <trkpt lat="49.86897" lon="4.77315">
        <ele>313</ele>
        <time>2020-11-13T09:01:40.000Z</time>
      </trkpt>
      <trkpt lat="49.86896" lon="4.7732">
        <ele>313</ele>
        <time>2020-11-13T09:01:41.000Z</time>
      </trkpt>
      <trkpt lat="49.86896" lon="4.77326">
        <ele>313</ele>
        <time>2020-11-13T09:01:42.000Z</time>
      </trkpt>
      <trkpt lat="49.86896" lon="4.77332">
        <ele>313</ele>
        <time>2020-11-13T09:01:43.000Z</time>
      </trkpt>
      <trkpt lat="49.86896" lon="4.77338">
        <ele>313</ele>
        <time>2020-11-13T09:01:44.000Z</time>
      </trkpt>
      <trkpt lat="49.86896" lon="4.77343">
        <ele>313</ele>
        <time>2020-11-13T09:01:45.000Z</time>
      </trkpt>
      <trkpt lat="49.86896" lon="4.7735">
        <ele>313</ele>
        <time>2020-11-13T09:01:46.000Z</time>
      </trkpt>
      <trkpt lat="49.86896" lon="4.77356">
        <ele>314</ele>
        <time>2020-11-13T09:01:47.000Z</time>
      </trkpt>
      <trkpt lat="49.86896" lon="4.77362">
        <ele>314</ele>
        <time>2020-11-13T09:01:48.000Z</time>
      </trkpt>
      <trkpt lat="49.86895" lon="4.77368">
        <ele>314</ele>
        <time>2020-11-13T09:01:49.000Z</time>
      </trkpt>
      <trkpt lat="49.86895" lon="4.77375">
        <ele>314</ele>
        <time>2020-11-13T09:01:50.000Z</time>
      </trkpt>
      <trkpt lat="49.86895" lon="4.77381">
        <ele>314</ele>
        <time>2020-11-13T09:01:51.000Z</time>
      </trkpt>
      <trkpt lat="49.86894" lon="4.77388">
        <ele>314</ele>
        <time>2020-11-13T09:01:52.000Z</time>
      </trkpt>
      <trkpt lat="49.86894" lon="4.77394">
        <ele>314</ele>
        <time>2020-11-13T09:01:53.000Z</time>
      </trkpt>
      <trkpt lat="49.86893" lon="4.77399">
        <ele>314</ele>
        <time>2020-11-13T09:01:54.000Z</time>
      </trkpt>
      <trkpt lat="49.86893" lon="4.77405">
        <ele>314</ele>
        <time>2020-11-13T09:01:55.000Z</time>
      </trkpt>
      <trkpt lat="49.86893" lon="4.77411">
        <ele>314</ele>
        <time>2020-11-13T09:01:56.000Z</time>
      </trkpt>
      <trkpt lat="49.86893" lon="4.77417">
        <ele>314</ele>
        <time>2020-11-13T09:01:57.000Z</time>
      </trkpt>
      <trkpt lat="49.86894" lon="4.77422">
        <ele>314</ele>
        <time>2020-11-13T09:01:58.000Z</time>
      </trkpt>
      <trkpt lat="49.86894" lon="4.77428">
        <ele>314</ele>
        <time>2020-11-13T09:01:59.000Z</time>
      </trkpt>
      <trkpt lat="49.86895" lon="4.77434">
        <ele>314</ele>
        <time>2020-11-13T09:02:00.000Z</time>
      </trkpt>
      <trkpt lat="49.86896" lon="4.77441">
        <ele>314</ele>
        <time>2020-11-13T09:02:01.000Z</time>
      </trkpt>
      <trkpt lat="49.86897" lon="4.77448">
        <ele>314</ele>
        <time>2020-11-13T09:02:02.000Z</time>
      </trkpt>
      <trkpt lat="49.86898" lon="4.77455">
        <ele>314</ele>
        <time>2020-11-13T09:02:03.000Z</time>
      </trkpt>
      <trkpt lat="49.86899" lon="4.77462">
        <ele>314</ele>
        <time>2020-11-13T09:02:04.000Z</time>
      </trkpt>
      <trkpt lat="49.869" lon="4.77469">
        <ele>314</ele>
        <time>2020-11-13T09:02:05.000Z</time>
      </trkpt>
      <trkpt lat="49.86901" lon="4.77475">
        <ele>314</ele>
        <time>2020-11-13T09:02:06.000Z</time>
      </trkpt>
      <trkpt lat="49.86902" lon="4.77481">
        <ele>315</ele>
        <time>2020-11-13T09:02:07.000Z</time>
      </trkpt>
      <trkpt lat="49.86903" lon="4.77487">
        <ele>315</ele>
        <time>2020-11-13T09:02:08.000Z</time>
      </trkpt>
      <trkpt lat="49.86904" lon="4.77491">
        <ele>315</ele>
        <time>2020-11-13T09:02:09.000Z</time>
      </trkpt>
      <trkpt lat="49.86906" lon="4.77496">
        <ele>315</ele>
        <time>2020-11-13T09:02:10.000Z</time>
      </trkpt>
      <trkpt lat="49.86907" lon="4.775">
        <ele>315</ele>
        <time>2020-11-13T09:02:11.000Z</time>
      </trkpt>
      <trkpt lat="49.86909" lon="4.77505">
        <ele>315</ele>
        <time>2020-11-13T09:02:12.000Z</time>
      </trkpt>
      <trkpt lat="49.8691" lon="4.7751">
        <ele>316</ele>
        <time>2020-11-13T09:02:13.000Z</time>
      </trkpt>
      <trkpt lat="49.86911" lon="4.77514">
        <ele>316</ele>
        <time>2020-11-13T09:02:14.000Z</time>
      </trkpt>
      <trkpt lat="49.86913" lon="4.77519">
        <ele>316</ele>
        <time>2020-11-13T09:02:15.000Z</time>
      </trkpt>
      <trkpt lat="49.86914" lon="4.77523">
        <ele>316</ele>
        <time>2020-11-13T09:02:16.000Z</time>
      </trkpt>
      <trkpt lat="49.86916" lon="4.77527">
        <ele>316</ele>
        <time>2020-11-13T09:02:17.000Z</time>
      </trkpt>
      <trkpt lat="49.86917" lon="4.77532">
        <ele>316</ele>
        <time>2020-11-13T09:02:18.000Z</time>
      </trkpt>
      <trkpt lat="49.86918" lon="4.77536">
        <ele>316</ele>
        <time>2020-11-13T09:02:19.000Z</time>
      </trkpt>
      <trkpt lat="49.86919" lon="4.77539">
        <ele>317</ele>
        <time>2020-11-13T09:02:20.000Z</time>
      </trkpt>
      <trkpt lat="49.86921" lon="4.77543">
        <ele>317</ele>
        <time>2020-11-13T09:02:21.000Z</time>
      </trkpt>
      <trkpt lat="49.86923" lon="4.77548">
        <ele>317</ele>
        <time>2020-11-13T09:02:22.000Z</time>
      </trkpt>
      <trkpt lat="49.86924" lon="4.77552">
        <ele>317</ele>
        <time>2020-11-13T09:02:23.000Z</time>
      </trkpt>
      <trkpt lat="49.86926" lon="4.77557">
        <ele>317</ele>
        <time>2020-11-13T09:02:24.000Z</time>
      </trkpt>
      <trkpt lat="49.86928" lon="4.77562">
        <ele>318</ele>
        <time>2020-11-13T09:02:25.000Z</time>
      </trkpt>
      <trkpt lat="49.8693" lon="4.77566">
        <ele>318</ele>
        <time>2020-11-13T09:02:26.000Z</time>
      </trkpt>
      <trkpt lat="49.86932" lon="4.7757">
        <ele>318</ele>
        <time>2020-11-13T09:02:27.000Z</time>
      </trkpt>
      <trkpt lat="49.86933" lon="4.77574">
        <ele>318</ele>
        <time>2020-11-13T09:02:28.000Z</time>
      </trkpt>
      <trkpt lat="49.86935" lon="4.77578">
        <ele>318</ele>
        <time>2020-11-13T09:02:29.000Z</time>
      </trkpt>
      <trkpt lat="49.86937" lon="4.77582">
        <ele>319</ele>
        <time>2020-11-13T09:02:30.000Z</time>
      </trkpt>
      <trkpt lat="49.86939" lon="4.77586">
        <ele>319</ele>
        <time>2020-11-13T09:02:31.000Z</time>
      </trkpt>
      <trkpt lat="49.86941" lon="4.77589">
        <ele>319</ele>
        <time>2020-11-13T09:02:32.000Z</time>
      </trkpt>
      <trkpt lat="49.86943" lon="4.77593">
        <ele>318</ele>
        <time>2020-11-13T09:02:33.000Z</time>
      </trkpt>
      <trkpt lat="49.86946" lon="4.77597">
        <ele>318</ele>
        <time>2020-11-13T09:02:34.000Z</time>
      </trkpt>
      <trkpt lat="49.86949" lon="4.77602">
        <ele>318</ele>
        <time>2020-11-13T09:02:35.000Z</time>
      </trkpt>
      <trkpt lat="49.86952" lon="4.77607">
        <ele>318</ele>
        <time>2020-11-13T09:02:36.000Z</time>
      </trkpt>
      <trkpt lat="49.86955" lon="4.77612">
        <ele>318</ele>
        <time>2020-11-13T09:02:37.000Z</time>
      </trkpt>
      <trkpt lat="49.86957" lon="4.77616">
        <ele>318</ele>
        <time>2020-11-13T09:02:38.000Z</time>
      </trkpt>
      <trkpt lat="49.8696" lon="4.77621">
        <ele>318</ele>
        <time>2020-11-13T09:02:39.000Z</time>
      </trkpt>
      <trkpt lat="49.86963" lon="4.77626">
        <ele>317</ele>
        <time>2020-11-13T09:02:40.000Z</time>
      </trkpt>
      <trkpt lat="49.86966" lon="4.77631">
        <ele>317</ele>
        <time>2020-11-13T09:02:41.000Z</time>
      </trkpt>
      <trkpt lat="49.86969" lon="4.77636">
        <ele>317</ele>
        <time>2020-11-13T09:02:42.000Z</time>
      </trkpt>
      <trkpt lat="49.86972" lon="4.77642">
        <ele>318</ele>
        <time>2020-11-13T09:02:43.000Z</time>
      </trkpt>
      <trkpt lat="49.86975" lon="4.77647">
        <ele>318</ele>
        <time>2020-11-13T09:02:44.000Z</time>
      </trkpt>
      <trkpt lat="49.86978" lon="4.77652">
        <ele>318</ele>
        <time>2020-11-13T09:02:45.000Z</time>
      </trkpt>
      <trkpt lat="49.8698" lon="4.77658">
        <ele>318</ele>
        <time>2020-11-13T09:02:46.000Z</time>
      </trkpt>
      <trkpt lat="49.86982" lon="4.77663">
        <ele>318</ele>
        <time>2020-11-13T09:02:47.000Z</time>
      </trkpt>
      <trkpt lat="49.86983" lon="4.77669">
        <ele>318</ele>
        <time>2020-11-13T09:02:48.000Z</time>
      </trkpt>
      <trkpt lat="49.86982" lon="4.77674">
        <ele>318</ele>
        <time>2020-11-13T09:02:49.000Z</time>
      </trkpt>
      <trkpt lat="49.86981" lon="4.77677">
        <ele>318</ele>
        <time>2020-11-13T09:02:50.000Z</time>
      </trkpt>
      <trkpt lat="49.86979" lon="4.77678">
        <ele>318</ele>
        <time>2020-11-13T09:02:51.000Z</time>
      </trkpt>
      <trkpt lat="49.86978" lon="4.77679">
        <ele>318</ele>
        <time>2020-11-13T09:02:52.000Z</time>
      </trkpt>
      <trkpt lat="49.86977" lon="4.7768">
        <ele>319</ele>
        <time>2020-11-13T09:02:53.000Z</time>
      </trkpt>
      <trkpt lat="49.86974" lon="4.77681">
        <ele>319</ele>
        <time>2020-11-13T09:02:54.000Z</time>
      </trkpt>
      <trkpt lat="49.86972" lon="4.7768">
        <ele>319</ele>
        <time>2020-11-13T09:02:55.000Z</time>
      </trkpt>
      <trkpt lat="49.8697" lon="4.77679">
        <ele>320</ele>
        <time>2020-11-13T09:02:56.000Z</time>
      </trkpt>
      <trkpt lat="49.86968" lon="4.77679">
        <ele>320</ele>
        <time>2020-11-13T09:02:57.000Z</time>
      </trkpt>
      <trkpt lat="49.86966" lon="4.77678">
        <ele>320</ele>
        <time>2020-11-13T09:02:58.000Z</time>
      </trkpt>
      <trkpt lat="49.86964" lon="4.77678">
        <ele>320</ele>
        <time>2020-11-13T09:02:59.000Z</time>
      </trkpt>
      <trkpt lat="49.86961" lon="4.77677">
        <ele>321</ele>
        <time>2020-11-13T09:03:00.000Z</time>
      </trkpt>
      <trkpt lat="49.86959" lon="4.77675">
        <ele>321</ele>
        <time>2020-11-13T09:03:01.000Z</time>
      </trkpt>
      <trkpt lat="49.86957" lon="4.77672">
        <ele>321</ele>
        <time>2020-11-13T09:03:02.000Z</time>
      </trkpt>
      <trkpt lat="49.86954" lon="4.7767">
        <ele>321</ele>
        <time>2020-11-13T09:03:03.000Z</time>
      </trkpt>
      <trkpt lat="49.86952" lon="4.77668">
        <ele>321</ele>
        <time>2020-11-13T09:03:04.000Z</time>
      </trkpt>
      <trkpt lat="49.8695" lon="4.77667">
        <ele>321</ele>
        <time>2020-11-13T09:03:05.000Z</time>
      </trkpt>
      <trkpt lat="49.86947" lon="4.77667">
        <ele>322</ele>
        <time>2020-11-13T09:03:06.000Z</time>
      </trkpt>
      <trkpt lat="49.86944" lon="4.77668">
        <ele>322</ele>
        <time>2020-11-13T09:03:07.000Z</time>
      </trkpt>
      <trkpt lat="49.86942" lon="4.77669">
        <ele>322</ele>
        <time>2020-11-13T09:03:08.000Z</time>
      </trkpt>
      <trkpt lat="49.86939" lon="4.7767">
        <ele>322</ele>
        <time>2020-11-13T09:03:09.000Z</time>
      </trkpt>
      <trkpt lat="49.86937" lon="4.77671">
        <ele>322</ele>
        <time>2020-11-13T09:03:10.000Z</time>
      </trkpt>
      <trkpt lat="49.86934" lon="4.7767">
        <ele>322</ele>
        <time>2020-11-13T09:03:11.000Z</time>
      </trkpt>
      <trkpt lat="49.86932" lon="4.7767">
        <ele>322</ele>
        <time>2020-11-13T09:03:12.000Z</time>
      </trkpt>
      <trkpt lat="49.86929" lon="4.7767">
        <ele>323</ele>
        <time>2020-11-13T09:03:13.000Z</time>
      </trkpt>
      <trkpt lat="49.86927" lon="4.7767">
        <ele>323</ele>
        <time>2020-11-13T09:03:14.000Z</time>
      </trkpt>
      <trkpt lat="49.86925" lon="4.7767">
        <ele>323</ele>
        <time>2020-11-13T09:03:15.000Z</time>
      </trkpt>
      <trkpt lat="49.86924" lon="4.77671">
        <ele>323</ele>
        <time>2020-11-13T09:03:16.000Z</time>
      </trkpt>
      <trkpt lat="49.86922" lon="4.77673">
        <ele>323</ele>
        <time>2020-11-13T09:03:17.000Z</time>
      </trkpt>
      <trkpt lat="49.8692" lon="4.77675">
        <ele>324</ele>
        <time>2020-11-13T09:03:18.000Z</time>
      </trkpt>
      <trkpt lat="49.86918" lon="4.77677">
        <ele>324</ele>
        <time>2020-11-13T09:03:19.000Z</time>
      </trkpt>
      <trkpt lat="49.86915" lon="4.77678">
        <ele>324</ele>
        <time>2020-11-13T09:03:20.000Z</time>
      </trkpt>
      <trkpt lat="49.86911" lon="4.77679">
        <ele>324</ele>
        <time>2020-11-13T09:03:21.000Z</time>
      </trkpt>
      <trkpt lat="49.86908" lon="4.77679">
        <ele>324</ele>
        <time>2020-11-13T09:03:22.000Z</time>
      </trkpt>
      <trkpt lat="49.86907" lon="4.77678">
        <ele>324</ele>
        <time>2020-11-13T09:03:23.000Z</time>
      </trkpt>
      <trkpt lat="49.86904" lon="4.77678">
        <ele>324</ele>
        <time>2020-11-13T09:03:24.000Z</time>
      </trkpt>
      <trkpt lat="49.86902" lon="4.77678">
        <ele>324</ele>
        <time>2020-11-13T09:03:25.000Z</time>
      </trkpt>
      <trkpt lat="49.86899" lon="4.77678">
        <ele>324</ele>
        <time>2020-11-13T09:03:26.000Z</time>
      </trkpt>
      <trkpt lat="49.86896" lon="4.77678">
        <ele>324</ele>
        <time>2020-11-13T09:03:27.000Z</time>
      </trkpt>
      <trkpt lat="49.86894" lon="4.77678">
        <ele>324</ele>
        <time>2020-11-13T09:03:28.000Z</time>
      </trkpt>
      <trkpt lat="49.86891" lon="4.77679">
        <ele>324</ele>
        <time>2020-11-13T09:03:29.000Z</time>
      </trkpt>
      <trkpt lat="49.86888" lon="4.7768">
        <ele>324</ele>
        <time>2020-11-13T09:03:30.000Z</time>
      </trkpt>
      <trkpt lat="49.86886" lon="4.77681">
        <ele>324</ele>
        <time>2020-11-13T09:03:31.000Z</time>
      </trkpt>
      <trkpt lat="49.86884" lon="4.77681">
        <ele>324</ele>
        <time>2020-11-13T09:03:32.000Z</time>
      </trkpt>
      <trkpt lat="49.86881" lon="4.77681">
        <ele>324</ele>
        <time>2020-11-13T09:03:33.000Z</time>
      </trkpt>
      <trkpt lat="49.86879" lon="4.77681">
        <ele>324</ele>
        <time>2020-11-13T09:03:34.000Z</time>
      </trkpt>
      <trkpt lat="49.86876" lon="4.77681">
        <ele>325</ele>
        <time>2020-11-13T09:03:35.000Z</time>
      </trkpt>
      <trkpt lat="49.86873" lon="4.77682">
        <ele>325</ele>
        <time>2020-11-13T09:03:36.000Z</time>
      </trkpt>
      <trkpt lat="49.86869" lon="4.77683">
        <ele>325</ele>
        <time>2020-11-13T09:03:37.000Z</time>
      </trkpt>
      <trkpt lat="49.86866" lon="4.77684">
        <ele>324</ele>
        <time>2020-11-13T09:03:38.000Z</time>
      </trkpt>
      <trkpt lat="49.86862" lon="4.77685">
        <ele>324</ele>
        <time>2020-11-13T09:03:39.000Z</time>
      </trkpt>
      <trkpt lat="49.86858" lon="4.77685">
        <ele>325</ele>
        <time>2020-11-13T09:03:40.000Z</time>
      </trkpt>
      <trkpt lat="49.86855" lon="4.77686">
        <ele>325</ele>
        <time>2020-11-13T09:03:41.000Z</time>
      </trkpt>
      <trkpt lat="49.86851" lon="4.77687">
        <ele>325</ele>
        <time>2020-11-13T09:03:42.000Z</time>
      </trkpt>
      <trkpt lat="49.86846" lon="4.77688">
        <ele>324</ele>
        <time>2020-11-13T09:03:43.000Z</time>
      </trkpt>
      <trkpt lat="49.86843" lon="4.77688">
        <ele>324</ele>
        <time>2020-11-13T09:03:44.000Z</time>
      </trkpt>
      <trkpt lat="49.86839" lon="4.77688">
        <ele>324</ele>
        <time>2020-11-13T09:03:45.000Z</time>
      </trkpt>
      <trkpt lat="49.86835" lon="4.77688">
        <ele>324</ele>
        <time>2020-11-13T09:03:46.000Z</time>
      </trkpt>
      <trkpt lat="49.86831" lon="4.77687">
        <ele>324</ele>
        <time>2020-11-13T09:03:47.000Z</time>
      </trkpt>
      <trkpt lat="49.86827" lon="4.77685">
        <ele>324</ele>
        <time>2020-11-13T09:03:48.000Z</time>
      </trkpt>
      <trkpt lat="49.86823" lon="4.77682">
        <ele>324</ele>
        <time>2020-11-13T09:03:49.000Z</time>
      </trkpt>
      <trkpt lat="49.8682" lon="4.77679">
        <ele>324</ele>
        <time>2020-11-13T09:03:50.000Z</time>
      </trkpt>
      <trkpt lat="49.86816" lon="4.77676">
        <ele>324</ele>
        <time>2020-11-13T09:03:51.000Z</time>
      </trkpt>
      <trkpt lat="49.86812" lon="4.77673">
        <ele>324</ele>
        <time>2020-11-13T09:03:52.000Z</time>
      </trkpt>
      <trkpt lat="49.86808" lon="4.77671">
        <ele>324</ele>
        <time>2020-11-13T09:03:53.000Z</time>
      </trkpt>
      <trkpt lat="49.86803" lon="4.77669">
        <ele>324</ele>
        <time>2020-11-13T09:03:54.000Z</time>
      </trkpt>
      <trkpt lat="49.86798" lon="4.77665">
        <ele>324</ele>
        <time>2020-11-13T09:03:55.000Z</time>
      </trkpt>
      <trkpt lat="49.86794" lon="4.77661">
        <ele>324</ele>
        <time>2020-11-13T09:03:56.000Z</time>
      </trkpt>
      <trkpt lat="49.86789" lon="4.77657">
        <ele>324</ele>
        <time>2020-11-13T09:03:57.000Z</time>
      </trkpt>
      <trkpt lat="49.86784" lon="4.77653">
        <ele>324</ele>
        <time>2020-11-13T09:03:58.000Z</time>
      </trkpt>
      <trkpt lat="49.86779" lon="4.77648">
        <ele>324</ele>
        <time>2020-11-13T09:03:59.000Z</time>
      </trkpt>
      <trkpt lat="49.86775" lon="4.77644">
        <ele>323</ele>
        <time>2020-11-13T09:04:00.000Z</time>
      </trkpt>
      <trkpt lat="49.86769" lon="4.77642">
        <ele>323</ele>
        <time>2020-11-13T09:04:01.000Z</time>
      </trkpt>
      <trkpt lat="49.86764" lon="4.77642">
        <ele>323</ele>
        <time>2020-11-13T09:04:02.000Z</time>
      </trkpt>
      <trkpt lat="49.86759" lon="4.77641">
        <ele>323</ele>
        <time>2020-11-13T09:04:03.000Z</time>
      </trkpt>
      <trkpt lat="49.86753" lon="4.77641">
        <ele>323</ele>
        <time>2020-11-13T09:04:04.000Z</time>
      </trkpt>
      <trkpt lat="49.86748" lon="4.77639">
        <ele>323</ele>
        <time>2020-11-13T09:04:05.000Z</time>
      </trkpt>
      <trkpt lat="49.86742" lon="4.77638">
        <ele>322</ele>
        <time>2020-11-13T09:04:06.000Z</time>
      </trkpt>
      <trkpt lat="49.86737" lon="4.77637">
        <ele>322</ele>
        <time>2020-11-13T09:04:07.000Z</time>
      </trkpt>
      <trkpt lat="49.86731" lon="4.77635">
        <ele>322</ele>
        <time>2020-11-13T09:04:08.000Z</time>
      </trkpt>
      <trkpt lat="49.86725" lon="4.77635">
        <ele>322</ele>
        <time>2020-11-13T09:04:09.000Z</time>
      </trkpt>
      <trkpt lat="49.86719" lon="4.77635">
        <ele>321</ele>
        <time>2020-11-13T09:04:10.000Z</time>
      </trkpt>
      <trkpt lat="49.86713" lon="4.77635">
        <ele>321</ele>
        <time>2020-11-13T09:04:11.000Z</time>
      </trkpt>
      <trkpt lat="49.86708" lon="4.77635">
        <ele>321</ele>
        <time>2020-11-13T09:04:12.000Z</time>
      </trkpt>
      <trkpt lat="49.86702" lon="4.77637">
        <ele>320</ele>
        <time>2020-11-13T09:04:13.000Z</time>
      </trkpt>
      <trkpt lat="49.86697" lon="4.77639">
        <ele>320</ele>
        <time>2020-11-13T09:04:14.000Z</time>
      </trkpt>
      <trkpt lat="49.86691" lon="4.77641">
        <ele>320</ele>
        <time>2020-11-13T09:04:15.000Z</time>
      </trkpt>
      <trkpt lat="49.86685" lon="4.77644">
        <ele>320</ele>
        <time>2020-11-13T09:04:16.000Z</time>
      </trkpt>
      <trkpt lat="49.86679" lon="4.77647">
        <ele>319</ele>
        <time>2020-11-13T09:04:17.000Z</time>
      </trkpt>
      <trkpt lat="49.86673" lon="4.7765">
        <ele>319</ele>
        <time>2020-11-13T09:04:18.000Z</time>
      </trkpt>
      <trkpt lat="49.86667" lon="4.77652">
        <ele>319</ele>
        <time>2020-11-13T09:04:19.000Z</time>
      </trkpt>
      <trkpt lat="49.86661" lon="4.77654">
        <ele>318</ele>
        <time>2020-11-13T09:04:20.000Z</time>
      </trkpt>
      <trkpt lat="49.86655" lon="4.77654">
        <ele>318</ele>
        <time>2020-11-13T09:04:21.000Z</time>
      </trkpt>
      <trkpt lat="49.8665" lon="4.77655">
        <ele>318</ele>
        <time>2020-11-13T09:04:22.000Z</time>
      </trkpt>
      <trkpt lat="49.86645" lon="4.77657">
        <ele>318</ele>
        <time>2020-11-13T09:04:23.000Z</time>
      </trkpt>
      <trkpt lat="49.86639" lon="4.77659">
        <ele>317</ele>
        <time>2020-11-13T09:04:24.000Z</time>
      </trkpt>
      <trkpt lat="49.86634" lon="4.7766">
        <ele>317</ele>
        <time>2020-11-13T09:04:25.000Z</time>
      </trkpt>
      <trkpt lat="49.8663" lon="4.7766">
        <ele>317</ele>
        <time>2020-11-13T09:04:26.000Z</time>
      </trkpt>
      <trkpt lat="49.86625" lon="4.7766">
        <ele>317</ele>
        <time>2020-11-13T09:04:27.000Z</time>
      </trkpt>
      <trkpt lat="49.86619" lon="4.77661">
        <ele>316</ele>
        <time>2020-11-13T09:04:28.000Z</time>
      </trkpt>
      <trkpt lat="49.86614" lon="4.77662">
        <ele>316</ele>
        <time>2020-11-13T09:04:29.000Z</time>
      </trkpt>
      <trkpt lat="49.86609" lon="4.77663">
        <ele>316</ele>
        <time>2020-11-13T09:04:30.000Z</time>
      </trkpt>
      <trkpt lat="49.86604" lon="4.77663">
        <ele>316</ele>
        <time>2020-11-13T09:04:31.000Z</time>
      </trkpt>
      <trkpt lat="49.866" lon="4.77662">
        <ele>316</ele>
        <time>2020-11-13T09:04:32.000Z</time>
      </trkpt>
      <trkpt lat="49.86598" lon="4.77662">
        <ele>316</ele>
        <time>2020-11-13T09:04:33.000Z</time>
      </trkpt>
      <trkpt lat="49.86595" lon="4.77662">
        <ele>316</ele>
        <time>2020-11-13T09:04:34.000Z</time>
      </trkpt>
      <trkpt lat="49.86591" lon="4.77664">
        <ele>316</ele>
        <time>2020-11-13T09:04:35.000Z</time>
      </trkpt>
      <trkpt lat="49.86587" lon="4.77665">
        <ele>316</ele>
        <time>2020-11-13T09:04:36.000Z</time>
      </trkpt>
      <trkpt lat="49.86584" lon="4.77668">
        <ele>316</ele>
        <time>2020-11-13T09:04:37.000Z</time>
      </trkpt>
      <trkpt lat="49.86581" lon="4.7767">
        <ele>316</ele>
        <time>2020-11-13T09:04:38.000Z</time>
      </trkpt>
      <trkpt lat="49.86579" lon="4.77672">
        <ele>316</ele>
        <time>2020-11-13T09:04:39.000Z</time>
      </trkpt>
      <trkpt lat="49.86576" lon="4.77674">
        <ele>316</ele>
        <time>2020-11-13T09:04:40.000Z</time>
      </trkpt>
      <trkpt lat="49.86574" lon="4.77676">
        <ele>316</ele>
        <time>2020-11-13T09:04:41.000Z</time>
      </trkpt>
      <trkpt lat="49.8657" lon="4.77677">
        <ele>316</ele>
        <time>2020-11-13T09:04:42.000Z</time>
      </trkpt>
      <trkpt lat="49.86567" lon="4.77677">
        <ele>316</ele>
        <time>2020-11-13T09:04:43.000Z</time>
      </trkpt>
      <trkpt lat="49.86564" lon="4.77676">
        <ele>316</ele>
        <time>2020-11-13T09:04:44.000Z</time>
      </trkpt>
      <trkpt lat="49.86561" lon="4.77676">
        <ele>316</ele>
        <time>2020-11-13T09:04:45.000Z</time>
      </trkpt>
      <trkpt lat="49.86558" lon="4.77677">
        <ele>316</ele>
        <time>2020-11-13T09:04:46.000Z</time>
      </trkpt>
      <trkpt lat="49.86555" lon="4.77679">
        <ele>316</ele>
        <time>2020-11-13T09:04:47.000Z</time>
      </trkpt>
      <trkpt lat="49.86552" lon="4.77682">
        <ele>315</ele>
        <time>2020-11-13T09:04:48.000Z</time>
      </trkpt>
      <trkpt lat="49.86549" lon="4.77685">
        <ele>315</ele>
        <time>2020-11-13T09:04:49.000Z</time>
      </trkpt>
      <trkpt lat="49.86545" lon="4.77687">
        <ele>315</ele>
        <time>2020-11-13T09:04:50.000Z</time>
      </trkpt>
      <trkpt lat="49.86541" lon="4.77689">
        <ele>315</ele>
        <time>2020-11-13T09:04:51.000Z</time>
      </trkpt>
      <trkpt lat="49.86537" lon="4.77692">
        <ele>314</ele>
        <time>2020-11-13T09:04:52.000Z</time>
      </trkpt>
      <trkpt lat="49.86532" lon="4.77694">
        <ele>314</ele>
        <time>2020-11-13T09:04:53.000Z</time>
      </trkpt>
      <trkpt lat="49.86528" lon="4.77696">
        <ele>314</ele>
        <time>2020-11-13T09:04:54.000Z</time>
      </trkpt>
      <trkpt lat="49.86523" lon="4.77699">
        <ele>314</ele>
        <time>2020-11-13T09:04:55.000Z</time>
      </trkpt>
      <trkpt lat="49.86519" lon="4.77701">
        <ele>314</ele>
        <time>2020-11-13T09:04:56.000Z</time>
      </trkpt>
      <trkpt lat="49.86515" lon="4.77702">
        <ele>314</ele>
        <time>2020-11-13T09:04:57.000Z</time>
      </trkpt>
      <trkpt lat="49.86511" lon="4.77702">
        <ele>313</ele>
        <time>2020-11-13T09:04:58.000Z</time>
      </trkpt>
      <trkpt lat="49.86507" lon="4.77702">
        <ele>313</ele>
        <time>2020-11-13T09:04:59.000Z</time>
      </trkpt>
      <trkpt lat="49.86503" lon="4.77702">
        <ele>313</ele>
        <time>2020-11-13T09:05:00.000Z</time>
      </trkpt>
      <trkpt lat="49.86499" lon="4.77702">
        <ele>313</ele>
        <time>2020-11-13T09:05:01.000Z</time>
      </trkpt>
      <trkpt lat="49.86495" lon="4.77703">
        <ele>313</ele>
        <time>2020-11-13T09:05:02.000Z</time>
      </trkpt>
      <trkpt lat="49.86491" lon="4.77705">
        <ele>313</ele>
        <time>2020-11-13T09:05:03.000Z</time>
      </trkpt>
      <trkpt lat="49.86487" lon="4.77707">
        <ele>313</ele>
        <time>2020-11-13T09:05:04.000Z</time>
      </trkpt>
      <trkpt lat="49.86483" lon="4.7771">
        <ele>313</ele>
        <time>2020-11-13T09:05:05.000Z</time>
      </trkpt>
      <trkpt lat="49.86479" lon="4.77711">
        <ele>313</ele>
        <time>2020-11-13T09:05:06.000Z</time>
      </trkpt>
      <trkpt lat="49.86475" lon="4.77711">
        <ele>313</ele>
        <time>2020-11-13T09:05:07.000Z</time>
      </trkpt>
      <trkpt lat="49.86471" lon="4.77712">
        <ele>313</ele>
        <time>2020-11-13T09:05:08.000Z</time>
      </trkpt>
      <trkpt lat="49.86467" lon="4.77714">
        <ele>313</ele>
        <time>2020-11-13T09:05:09.000Z</time>
      </trkpt>
      <trkpt lat="49.86461" lon="4.77716">
        <ele>313</ele>
        <time>2020-11-13T09:05:10.000Z</time>
      </trkpt>
      <trkpt lat="49.86455" lon="4.77717">
        <ele>313</ele>
        <time>2020-11-13T09:05:11.000Z</time>
      </trkpt>
      <trkpt lat="49.86449" lon="4.77718">
        <ele>313</ele>
        <time>2020-11-13T09:05:12.000Z</time>
      </trkpt>
      <trkpt lat="49.86443" lon="4.77719">
        <ele>313</ele>
        <time>2020-11-13T09:05:13.000Z</time>
      </trkpt>
      <trkpt lat="49.86437" lon="4.77721">
        <ele>313</ele>
        <time>2020-11-13T09:05:14.000Z</time>
      </trkpt>
      <trkpt lat="49.86431" lon="4.77723">
        <ele>313</ele>
        <time>2020-11-13T09:05:15.000Z</time>
      </trkpt>
      <trkpt lat="49.86426" lon="4.77723">
        <ele>313</ele>
        <time>2020-11-13T09:05:16.000Z</time>
      </trkpt>
      <trkpt lat="49.86421" lon="4.77723">
        <ele>313</ele>
        <time>2020-11-13T09:05:17.000Z</time>
      </trkpt>
      <trkpt lat="49.86416" lon="4.77722">
        <ele>313</ele>
        <time>2020-11-13T09:05:18.000Z</time>
      </trkpt>
      <trkpt lat="49.86411" lon="4.77721">
        <ele>312</ele>
        <time>2020-11-13T09:05:19.000Z</time>
      </trkpt>
      <trkpt lat="49.86406" lon="4.77721">
        <ele>312</ele>
        <time>2020-11-13T09:05:20.000Z</time>
      </trkpt>
      <trkpt lat="49.86401" lon="4.77721">
        <ele>312</ele>
        <time>2020-11-13T09:05:21.000Z</time>
      </trkpt>
      <trkpt lat="49.86396" lon="4.77722">
        <ele>312</ele>
        <time>2020-11-13T09:05:22.000Z</time>
      </trkpt>
      <trkpt lat="49.86391" lon="4.77723">
        <ele>312</ele>
        <time>2020-11-13T09:05:23.000Z</time>
      </trkpt>
      <trkpt lat="49.86388" lon="4.77726">
        <ele>312</ele>
        <time>2020-11-13T09:05:24.000Z</time>
      </trkpt>
      <trkpt lat="49.86386" lon="4.77729">
        <ele>312</ele>
        <time>2020-11-13T09:05:25.000Z</time>
      </trkpt>
      <trkpt lat="49.86384" lon="4.77733">
        <ele>312</ele>
        <time>2020-11-13T09:05:26.000Z</time>
      </trkpt>
      <trkpt lat="49.86382" lon="4.77737">
        <ele>312</ele>
        <time>2020-11-13T09:05:27.000Z</time>
      </trkpt>
      <trkpt lat="49.8638" lon="4.77741">
        <ele>312</ele>
        <time>2020-11-13T09:05:28.000Z</time>
      </trkpt>
      <trkpt lat="49.86378" lon="4.77744">
        <ele>312</ele>
        <time>2020-11-13T09:05:29.000Z</time>
      </trkpt>
      <trkpt lat="49.86376" lon="4.77747">
        <ele>312</ele>
        <time>2020-11-13T09:05:30.000Z</time>
      </trkpt>
      <trkpt lat="49.86374" lon="4.7775">
        <ele>312</ele>
        <time>2020-11-13T09:05:31.000Z</time>
      </trkpt>
      <trkpt lat="49.86373" lon="4.77753">
        <ele>312</ele>
        <time>2020-11-13T09:05:32.000Z</time>
      </trkpt>
      <trkpt lat="49.86371" lon="4.77756">
        <ele>312</ele>
        <time>2020-11-13T09:05:33.000Z</time>
      </trkpt>
      <trkpt lat="49.86371" lon="4.77759">
        <ele>312</ele>
        <time>2020-11-13T09:05:34.000Z</time>
      </trkpt>
      <trkpt lat="49.8637" lon="4.77762">
        <ele>313</ele>
        <time>2020-11-13T09:05:35.000Z</time>
      </trkpt>
      <trkpt lat="49.86369" lon="4.77765">
        <ele>313</ele>
        <time>2020-11-13T09:05:36.000Z</time>
      </trkpt>
      <trkpt lat="49.86368" lon="4.77768">
        <ele>313</ele>
        <time>2020-11-13T09:05:37.000Z</time>
      </trkpt>
      <trkpt lat="49.86367" lon="4.77771">
        <ele>313</ele>
        <time>2020-11-13T09:05:38.000Z</time>
      </trkpt>
      <trkpt lat="49.86366" lon="4.77775">
        <ele>314</ele>
        <time>2020-11-13T09:05:39.000Z</time>
      </trkpt>
      <trkpt lat="49.86366" lon="4.77778">
        <ele>314</ele>
        <time>2020-11-13T09:05:40.000Z</time>
      </trkpt>
      <trkpt lat="49.86366" lon="4.77781">
        <ele>314</ele>
        <time>2020-11-13T09:05:41.000Z</time>
      </trkpt>
      <trkpt lat="49.86366" lon="4.77785">
        <ele>314</ele>
        <time>2020-11-13T09:05:42.000Z</time>
      </trkpt>
      <trkpt lat="49.86365" lon="4.77788">
        <ele>315</ele>
        <time>2020-11-13T09:05:43.000Z</time>
      </trkpt>
      <trkpt lat="49.86365" lon="4.77792">
        <ele>315</ele>
        <time>2020-11-13T09:05:44.000Z</time>
      </trkpt>
      <trkpt lat="49.86365" lon="4.77795">
        <ele>315</ele>
        <time>2020-11-13T09:05:45.000Z</time>
      </trkpt>
      <trkpt lat="49.86364" lon="4.77798">
        <ele>315</ele>
        <time>2020-11-13T09:05:46.000Z</time>
      </trkpt>
      <trkpt lat="49.86363" lon="4.77801">
        <ele>316</ele>
        <time>2020-11-13T09:05:47.000Z</time>
      </trkpt>
      <trkpt lat="49.86363" lon="4.77804">
        <ele>316</ele>
        <time>2020-11-13T09:05:48.000Z</time>
      </trkpt>
      <trkpt lat="49.86362" lon="4.77807">
        <ele>316</ele>
        <time>2020-11-13T09:05:49.000Z</time>
      </trkpt>
      <trkpt lat="49.86362" lon="4.7781">
        <ele>316</ele>
        <time>2020-11-13T09:05:50.000Z</time>
      </trkpt>
      <trkpt lat="49.86362" lon="4.77813">
        <ele>316</ele>
        <time>2020-11-13T09:05:51.000Z</time>
      </trkpt>
      <trkpt lat="49.86362" lon="4.77817">
        <ele>316</ele>
        <time>2020-11-13T09:05:52.000Z</time>
      </trkpt>
      <trkpt lat="49.86361" lon="4.7782">
        <ele>317</ele>
        <time>2020-11-13T09:05:53.000Z</time>
      </trkpt>
      <trkpt lat="49.86359" lon="4.77823">
        <ele>317</ele>
        <time>2020-11-13T09:05:54.000Z</time>
      </trkpt>
      <trkpt lat="49.86357" lon="4.77824">
        <ele>317</ele>
        <time>2020-11-13T09:05:55.000Z</time>
      </trkpt>
      <trkpt lat="49.86355" lon="4.77825">
        <ele>317</ele>
        <time>2020-11-13T09:05:56.000Z</time>
      </trkpt>
      <trkpt lat="49.86353" lon="4.77825">
        <ele>317</ele>
        <time>2020-11-13T09:05:57.000Z</time>
      </trkpt>
      <trkpt lat="49.86351" lon="4.77824">
        <ele>317</ele>
        <time>2020-11-13T09:05:58.000Z</time>
      </trkpt>
      <trkpt lat="49.86348" lon="4.77824">
        <ele>317</ele>
        <time>2020-11-13T09:05:59.000Z</time>
      </trkpt>
      <trkpt lat="49.86345" lon="4.77824">
        <ele>317</ele>
        <time>2020-11-13T09:06:00.000Z</time>
      </trkpt>
      <trkpt lat="49.86343" lon="4.77824">
        <ele>317</ele>
        <time>2020-11-13T09:06:01.000Z</time>
      </trkpt>
      <trkpt lat="49.8634" lon="4.77824">
        <ele>317</ele>
        <time>2020-11-13T09:06:02.000Z</time>
      </trkpt>
      <trkpt lat="49.86336" lon="4.77824">
        <ele>317</ele>
        <time>2020-11-13T09:06:03.000Z</time>
      </trkpt>
      <trkpt lat="49.86332" lon="4.77824">
        <ele>317</ele>
        <time>2020-11-13T09:06:04.000Z</time>
      </trkpt>
      <trkpt lat="49.86329" lon="4.77824">
        <ele>317</ele>
        <time>2020-11-13T09:06:05.000Z</time>
      </trkpt>
      <trkpt lat="49.86325" lon="4.77825">
        <ele>317</ele>
        <time>2020-11-13T09:06:06.000Z</time>
      </trkpt>
      <trkpt lat="49.86322" lon="4.77827">
        <ele>318</ele>
        <time>2020-11-13T09:06:07.000Z</time>
      </trkpt>
      <trkpt lat="49.86318" lon="4.77827">
        <ele>318</ele>
        <time>2020-11-13T09:06:08.000Z</time>
      </trkpt>
      <trkpt lat="49.86314" lon="4.77826">
        <ele>318</ele>
        <time>2020-11-13T09:06:09.000Z</time>
      </trkpt>
      <trkpt lat="49.86311" lon="4.77826">
        <ele>318</ele>
        <time>2020-11-13T09:06:10.000Z</time>
      </trkpt>
      <trkpt lat="49.86308" lon="4.77828">
        <ele>318</ele>
        <time>2020-11-13T09:06:11.000Z</time>
      </trkpt>
      <trkpt lat="49.86305" lon="4.7783">
        <ele>318</ele>
        <time>2020-11-13T09:06:12.000Z</time>
      </trkpt>
      <trkpt lat="49.86303" lon="4.77832">
        <ele>318</ele>
        <time>2020-11-13T09:06:13.000Z</time>
      </trkpt>
      <trkpt lat="49.86302" lon="4.77834">
        <ele>318</ele>
        <time>2020-11-13T09:06:14.000Z</time>
      </trkpt>
      <trkpt lat="49.86302" lon="4.77836">
        <ele>318</ele>
        <time>2020-11-13T09:06:15.000Z</time>
      </trkpt>
      <trkpt lat="49.86301" lon="4.77838">
        <ele>318</ele>
        <time>2020-11-13T09:06:16.000Z</time>
      </trkpt>
      <trkpt lat="49.863" lon="4.77839">
        <ele>318</ele>
        <time>2020-11-13T09:06:17.000Z</time>
      </trkpt>
      <trkpt lat="49.86299" lon="4.7784">
        <ele>318</ele>
        <time>2020-11-13T09:06:18.000Z</time>
      </trkpt>
      <trkpt lat="49.86298" lon="4.77841">
        <ele>318</ele>
        <time>2020-11-13T09:06:19.000Z</time>
      </trkpt>
      <trkpt lat="49.86297" lon="4.77842">
        <ele>318</ele>
        <time>2020-11-13T09:06:20.000Z</time>
      </trkpt>
      <trkpt lat="49.86296" lon="4.77843">
        <ele>318</ele>
        <time>2020-11-13T09:06:21.000Z</time>
      </trkpt>
      <trkpt lat="49.86296" lon="4.77844">
        <ele>319</ele>
        <time>2020-11-13T09:06:22.000Z</time>
      </trkpt>
      <trkpt lat="49.86295" lon="4.77846">
        <ele>319</ele>
        <time>2020-11-13T09:06:23.000Z</time>
      </trkpt>
      <trkpt lat="49.86294" lon="4.77848">
        <ele>319</ele>
        <time>2020-11-13T09:06:24.000Z</time>
      </trkpt>
      <trkpt lat="49.86293" lon="4.77849">
        <ele>319</ele>
        <time>2020-11-13T09:06:25.000Z</time>
      </trkpt>
      <trkpt lat="49.86292" lon="4.7785">
        <ele>319</ele>
        <time>2020-11-13T09:06:26.000Z</time>
      </trkpt>
      <trkpt lat="49.86292" lon="4.77851">
        <ele>319</ele>
        <time>2020-11-13T09:06:27.000Z</time>
      </trkpt>
      <trkpt lat="49.86291" lon="4.77852">
        <ele>319</ele>
        <time>2020-11-13T09:06:28.000Z</time>
      </trkpt>
      <trkpt lat="49.8629" lon="4.77853">
        <ele>319</ele>
        <time>2020-11-13T09:06:29.000Z</time>
      </trkpt>
      <trkpt lat="49.86288" lon="4.77855">
        <ele>319</ele>
        <time>2020-11-13T09:06:30.000Z</time>
      </trkpt>
      <trkpt lat="49.86286" lon="4.77856">
        <ele>319</ele>
        <time>2020-11-13T09:06:31.000Z</time>
      </trkpt>
      <trkpt lat="49.86284" lon="4.77858">
        <ele>320</ele>
        <time>2020-11-13T09:06:32.000Z</time>
      </trkpt>
      <trkpt lat="49.86282" lon="4.77859">
        <ele>320</ele>
        <time>2020-11-13T09:06:33.000Z</time>
      </trkpt>
      <trkpt lat="49.8628" lon="4.7786">
        <ele>320</ele>
        <time>2020-11-13T09:06:34.000Z</time>
      </trkpt>
      <trkpt lat="49.86278" lon="4.7786">
        <ele>320</ele>
        <time>2020-11-13T09:06:35.000Z</time>
      </trkpt>
      <trkpt lat="49.86276" lon="4.7786">
        <ele>320</ele>
        <time>2020-11-13T09:06:36.000Z</time>
      </trkpt>
      <trkpt lat="49.86274" lon="4.7786">
        <ele>320</ele>
        <time>2020-11-13T09:06:37.000Z</time>
      </trkpt>
      <trkpt lat="49.86273" lon="4.7786">
        <ele>320</ele>
        <time>2020-11-13T09:06:38.000Z</time>
      </trkpt>
      <trkpt lat="49.86271" lon="4.77859">
        <ele>320</ele>
        <time>2020-11-13T09:06:39.000Z</time>
      </trkpt>
      <trkpt lat="49.86269" lon="4.77857">
        <ele>320</ele>
        <time>2020-11-13T09:06:40.000Z</time>
      </trkpt>
      <trkpt lat="49.86267" lon="4.77855">
        <ele>320</ele>
        <time>2020-11-13T09:06:41.000Z</time>
      </trkpt>
      <trkpt lat="49.86264" lon="4.7785">
        <ele>320</ele>
        <time>2020-11-13T09:06:42.000Z</time>
      </trkpt>
      <trkpt lat="49.86262" lon="4.77846">
        <ele>319</ele>
        <time>2020-11-13T09:06:43.000Z</time>
      </trkpt>
      <trkpt lat="49.86261" lon="4.7784">
        <ele>319</ele>
        <time>2020-11-13T09:06:44.000Z</time>
      </trkpt>
      <trkpt lat="49.86261" lon="4.77836">
        <ele>319</ele>
        <time>2020-11-13T09:06:45.000Z</time>
      </trkpt>
      <trkpt lat="49.86262" lon="4.77831">
        <ele>319</ele>
        <time>2020-11-13T09:06:46.000Z</time>
      </trkpt>
      <trkpt lat="49.86263" lon="4.77827">
        <ele>320</ele>
        <time>2020-11-13T09:06:47.000Z</time>
      </trkpt>
      <trkpt lat="49.86263" lon="4.77823">
        <ele>320</ele>
        <time>2020-11-13T09:06:48.000Z</time>
      </trkpt>
      <trkpt lat="49.86264" lon="4.77819">
        <ele>320</ele>
        <time>2020-11-13T09:06:49.000Z</time>
      </trkpt>
      <trkpt lat="49.86264" lon="4.77815">
        <ele>320</ele>
        <time>2020-11-13T09:06:50.000Z</time>
      </trkpt>
      <trkpt lat="49.86265" lon="4.77811">
        <ele>320</ele>
        <time>2020-11-13T09:06:51.000Z</time>
      </trkpt>
      <trkpt lat="49.86266" lon="4.77805">
        <ele>320</ele>
        <time>2020-11-13T09:06:52.000Z</time>
      </trkpt>
      <trkpt lat="49.86267" lon="4.778">
        <ele>320</ele>
        <time>2020-11-13T09:06:53.000Z</time>
      </trkpt>
      <trkpt lat="49.86268" lon="4.77795">
        <ele>320</ele>
        <time>2020-11-13T09:06:54.000Z</time>
      </trkpt>
      <trkpt lat="49.86269" lon="4.7779">
        <ele>321</ele>
        <time>2020-11-13T09:06:55.000Z</time>
      </trkpt>
      <trkpt lat="49.8627" lon="4.77784">
        <ele>321</ele>
        <time>2020-11-13T09:06:56.000Z</time>
      </trkpt>
      <trkpt lat="49.86271" lon="4.77778">
        <ele>321</ele>
        <time>2020-11-13T09:06:57.000Z</time>
      </trkpt>
      <trkpt lat="49.86271" lon="4.77772">
        <ele>321</ele>
        <time>2020-11-13T09:06:58.000Z</time>
      </trkpt>
      <trkpt lat="49.86272" lon="4.77766">
        <ele>321</ele>
        <time>2020-11-13T09:06:59.000Z</time>
      </trkpt>
      <trkpt lat="49.86273" lon="4.77761">
        <ele>321</ele>
        <time>2020-11-13T09:07:00.000Z</time>
      </trkpt>
      <trkpt lat="49.86275" lon="4.77755">
        <ele>321</ele>
        <time>2020-11-13T09:07:01.000Z</time>
      </trkpt>
      <trkpt lat="49.86276" lon="4.77748">
        <ele>321</ele>
        <time>2020-11-13T09:07:02.000Z</time>
      </trkpt>
      <trkpt lat="49.86276" lon="4.77743">
        <ele>321</ele>
        <time>2020-11-13T09:07:03.000Z</time>
      </trkpt>
      <trkpt lat="49.86276" lon="4.77738">
        <ele>321</ele>
        <time>2020-11-13T09:07:04.000Z</time>
      </trkpt>
      <trkpt lat="49.86274" lon="4.77733">
        <ele>321</ele>
        <time>2020-11-13T09:07:05.000Z</time>
      </trkpt>
      <trkpt lat="49.86271" lon="4.7773">
        <ele>321</ele>
        <time>2020-11-13T09:07:06.000Z</time>
      </trkpt>
      <trkpt lat="49.86269" lon="4.77727">
        <ele>321</ele>
        <time>2020-11-13T09:07:07.000Z</time>
      </trkpt>
      <trkpt lat="49.86266" lon="4.77725">
        <ele>321</ele>
        <time>2020-11-13T09:07:08.000Z</time>
      </trkpt>
      <trkpt lat="49.86263" lon="4.77723">
        <ele>321</ele>
        <time>2020-11-13T09:07:09.000Z</time>
      </trkpt>
      <trkpt lat="49.8626" lon="4.77721">
        <ele>321</ele>
        <time>2020-11-13T09:07:10.000Z</time>
      </trkpt>
      <trkpt lat="49.86257" lon="4.7772">
        <ele>321</ele>
        <time>2020-11-13T09:07:11.000Z</time>
      </trkpt>
      <trkpt lat="49.86254" lon="4.77718">
        <ele>321</ele>
        <time>2020-11-13T09:07:12.000Z</time>
      </trkpt>
      <trkpt lat="49.86251" lon="4.77716">
        <ele>321</ele>
        <time>2020-11-13T09:07:13.000Z</time>
      </trkpt>
      <trkpt lat="49.86248" lon="4.77713">
        <ele>321</ele>
        <time>2020-11-13T09:07:14.000Z</time>
      </trkpt>
      <trkpt lat="49.86246" lon="4.77712">
        <ele>321</ele>
        <time>2020-11-13T09:07:15.000Z</time>
      </trkpt>
      <trkpt lat="49.86243" lon="4.7771">
        <ele>321</ele>
        <time>2020-11-13T09:07:16.000Z</time>
      </trkpt>
      <trkpt lat="49.8624" lon="4.77708">
        <ele>321</ele>
        <time>2020-11-13T09:07:17.000Z</time>
      </trkpt>
      <trkpt lat="49.86237" lon="4.77706">
        <ele>321</ele>
        <time>2020-11-13T09:07:18.000Z</time>
      </trkpt>
      <trkpt lat="49.86233" lon="4.77704">
        <ele>322</ele>
        <time>2020-11-13T09:07:19.000Z</time>
      </trkpt>
      <trkpt lat="49.8623" lon="4.77703">
        <ele>322</ele>
        <time>2020-11-13T09:07:20.000Z</time>
      </trkpt>
      <trkpt lat="49.86227" lon="4.77701">
        <ele>322</ele>
        <time>2020-11-13T09:07:21.000Z</time>
      </trkpt>
      <trkpt lat="49.86224" lon="4.777">
        <ele>322</ele>
        <time>2020-11-13T09:07:22.000Z</time>
      </trkpt>
      <trkpt lat="49.86221" lon="4.777">
        <ele>322</ele>
        <time>2020-11-13T09:07:23.000Z</time>
      </trkpt>
      <trkpt lat="49.86217" lon="4.77698">
        <ele>322</ele>
        <time>2020-11-13T09:07:24.000Z</time>
      </trkpt>
      <trkpt lat="49.86213" lon="4.77698">
        <ele>322</ele>
        <time>2020-11-13T09:07:25.000Z</time>
      </trkpt>
      <trkpt lat="49.86209" lon="4.77697">
        <ele>323</ele>
        <time>2020-11-13T09:07:26.000Z</time>
      </trkpt>
      <trkpt lat="49.86205" lon="4.77697">
        <ele>323</ele>
        <time>2020-11-13T09:07:27.000Z</time>
      </trkpt>
      <trkpt lat="49.862" lon="4.77696">
        <ele>323</ele>
        <time>2020-11-13T09:07:28.000Z</time>
      </trkpt>
      <trkpt lat="49.86195" lon="4.77695">
        <ele>323</ele>
        <time>2020-11-13T09:07:29.000Z</time>
      </trkpt>
      <trkpt lat="49.8619" lon="4.77694">
        <ele>323</ele>
        <time>2020-11-13T09:07:30.000Z</time>
      </trkpt>
      <trkpt lat="49.86184" lon="4.77693">
        <ele>324</ele>
        <time>2020-11-13T09:07:31.000Z</time>
      </trkpt>
      <trkpt lat="49.86179" lon="4.77691">
        <ele>324</ele>
        <time>2020-11-13T09:07:32.000Z</time>
      </trkpt>
      <trkpt lat="49.86173" lon="4.7769">
        <ele>324</ele>
        <time>2020-11-13T09:07:33.000Z</time>
      </trkpt>
      <trkpt lat="49.86168" lon="4.77689">
        <ele>324</ele>
        <time>2020-11-13T09:07:34.000Z</time>
      </trkpt>
      <trkpt lat="49.86163" lon="4.77688">
        <ele>324</ele>
        <time>2020-11-13T09:07:35.000Z</time>
      </trkpt>
      <trkpt lat="49.86159" lon="4.77688">
        <ele>324</ele>
        <time>2020-11-13T09:07:36.000Z</time>
      </trkpt>
      <trkpt lat="49.86154" lon="4.77686">
        <ele>325</ele>
        <time>2020-11-13T09:07:37.000Z</time>
      </trkpt>
      <trkpt lat="49.86151" lon="4.77685">
        <ele>325</ele>
        <time>2020-11-13T09:07:38.000Z</time>
      </trkpt>
      <trkpt lat="49.86147" lon="4.77684">
        <ele>325</ele>
        <time>2020-11-13T09:07:39.000Z</time>
      </trkpt>
      <trkpt lat="49.86144" lon="4.77684">
        <ele>325</ele>
        <time>2020-11-13T09:07:40.000Z</time>
      </trkpt>
      <trkpt lat="49.86141" lon="4.77683">
        <ele>325</ele>
        <time>2020-11-13T09:07:41.000Z</time>
      </trkpt>
      <trkpt lat="49.86138" lon="4.77682">
        <ele>325</ele>
        <time>2020-11-13T09:07:42.000Z</time>
      </trkpt>
      <trkpt lat="49.86135" lon="4.77681">
        <ele>326</ele>
        <time>2020-11-13T09:07:43.000Z</time>
      </trkpt>
      <trkpt lat="49.86132" lon="4.7768">
        <ele>326</ele>
        <time>2020-11-13T09:07:44.000Z</time>
      </trkpt>
      <trkpt lat="49.86128" lon="4.7768">
        <ele>326</ele>
        <time>2020-11-13T09:07:45.000Z</time>
      </trkpt>
      <trkpt lat="49.86125" lon="4.77679">
        <ele>326</ele>
        <time>2020-11-13T09:07:46.000Z</time>
      </trkpt>
      <trkpt lat="49.86121" lon="4.77679">
        <ele>326</ele>
        <time>2020-11-13T09:07:47.000Z</time>
      </trkpt>
      <trkpt lat="49.86118" lon="4.77678">
        <ele>326</ele>
        <time>2020-11-13T09:07:48.000Z</time>
      </trkpt>
      <trkpt lat="49.86115" lon="4.77678">
        <ele>326</ele>
        <time>2020-11-13T09:07:49.000Z</time>
      </trkpt>
      <trkpt lat="49.86111" lon="4.77677">
        <ele>326</ele>
        <time>2020-11-13T09:07:50.000Z</time>
      </trkpt>
      <trkpt lat="49.86108" lon="4.77677">
        <ele>327</ele>
        <time>2020-11-13T09:07:51.000Z</time>
      </trkpt>
      <trkpt lat="49.86104" lon="4.77678">
        <ele>327</ele>
        <time>2020-11-13T09:07:52.000Z</time>
      </trkpt>
      <trkpt lat="49.86101" lon="4.77679">
        <ele>327</ele>
        <time>2020-11-13T09:07:53.000Z</time>
      </trkpt>
      <trkpt lat="49.86097" lon="4.7768">
        <ele>327</ele>
        <time>2020-11-13T09:07:54.000Z</time>
      </trkpt>
      <trkpt lat="49.86094" lon="4.7768">
        <ele>327</ele>
        <time>2020-11-13T09:07:55.000Z</time>
      </trkpt>
      <trkpt lat="49.86092" lon="4.7768">
        <ele>327</ele>
        <time>2020-11-13T09:07:56.000Z</time>
      </trkpt>
      <trkpt lat="49.86088" lon="4.7768">
        <ele>327</ele>
        <time>2020-11-13T09:07:57.000Z</time>
      </trkpt>
      <trkpt lat="49.86085" lon="4.7768">
        <ele>327</ele>
        <time>2020-11-13T09:07:58.000Z</time>
      </trkpt>
      <trkpt lat="49.86081" lon="4.77681">
        <ele>327</ele>
        <time>2020-11-13T09:07:59.000Z</time>
      </trkpt>
      <trkpt lat="49.86076" lon="4.77682">
        <ele>327</ele>
        <time>2020-11-13T09:08:00.000Z</time>
      </trkpt>
      <trkpt lat="49.86072" lon="4.77683">
        <ele>327</ele>
        <time>2020-11-13T09:08:01.000Z</time>
      </trkpt>
      <trkpt lat="49.86068" lon="4.77684">
        <ele>327</ele>
        <time>2020-11-13T09:08:02.000Z</time>
      </trkpt>
      <trkpt lat="49.86063" lon="4.77685">
        <ele>328</ele>
        <time>2020-11-13T09:08:03.000Z</time>
      </trkpt>
      <trkpt lat="49.86059" lon="4.77686">
        <ele>328</ele>
        <time>2020-11-13T09:08:04.000Z</time>
      </trkpt>
      <trkpt lat="49.86055" lon="4.77687">
        <ele>328</ele>
        <time>2020-11-13T09:08:05.000Z</time>
      </trkpt>
      <trkpt lat="49.8605" lon="4.77687">
        <ele>328</ele>
        <time>2020-11-13T09:08:06.000Z</time>
      </trkpt>
      <trkpt lat="49.86046" lon="4.77688">
        <ele>328</ele>
        <time>2020-11-13T09:08:07.000Z</time>
      </trkpt>
      <trkpt lat="49.86042" lon="4.77689">
        <ele>328</ele>
        <time>2020-11-13T09:08:08.000Z</time>
      </trkpt>
      <trkpt lat="49.86037" lon="4.7769">
        <ele>328</ele>
        <time>2020-11-13T09:08:09.000Z</time>
      </trkpt>
      <trkpt lat="49.86033" lon="4.7769">
        <ele>328</ele>
        <time>2020-11-13T09:08:10.000Z</time>
      </trkpt>
      <trkpt lat="49.86028" lon="4.77691">
        <ele>328</ele>
        <time>2020-11-13T09:08:11.000Z</time>
      </trkpt>
      <trkpt lat="49.86024" lon="4.77692">
        <ele>328</ele>
        <time>2020-11-13T09:08:12.000Z</time>
      </trkpt>
      <trkpt lat="49.8602" lon="4.77693">
        <ele>329</ele>
        <time>2020-11-13T09:08:13.000Z</time>
      </trkpt>
      <trkpt lat="49.86016" lon="4.77693">
        <ele>329</ele>
        <time>2020-11-13T09:08:14.000Z</time>
      </trkpt>
      <trkpt lat="49.86012" lon="4.77694">
        <ele>329</ele>
        <time>2020-11-13T09:08:15.000Z</time>
      </trkpt>
      <trkpt lat="49.86008" lon="4.77695">
        <ele>329</ele>
        <time>2020-11-13T09:08:16.000Z</time>
      </trkpt>
      <trkpt lat="49.86004" lon="4.77696">
        <ele>329</ele>
        <time>2020-11-13T09:08:17.000Z</time>
      </trkpt>
      <trkpt lat="49.86" lon="4.77697">
        <ele>329</ele>
        <time>2020-11-13T09:08:18.000Z</time>
      </trkpt>
      <trkpt lat="49.85997" lon="4.77697">
        <ele>329</ele>
        <time>2020-11-13T09:08:19.000Z</time>
      </trkpt>
      <trkpt lat="49.85994" lon="4.77698">
        <ele>329</ele>
        <time>2020-11-13T09:08:20.000Z</time>
      </trkpt>
      <trkpt lat="49.8599" lon="4.77699">
        <ele>330</ele>
        <time>2020-11-13T09:08:21.000Z</time>
      </trkpt>
      <trkpt lat="49.85986" lon="4.77701">
        <ele>330</ele>
        <time>2020-11-13T09:08:22.000Z</time>
      </trkpt>
      <trkpt lat="49.85982" lon="4.77703">
        <ele>330</ele>
        <time>2020-11-13T09:08:23.000Z</time>
      </trkpt>
      <trkpt lat="49.85977" lon="4.77705">
        <ele>330</ele>
        <time>2020-11-13T09:08:24.000Z</time>
      </trkpt>
      <trkpt lat="49.85971" lon="4.77706">
        <ele>330</ele>
        <time>2020-11-13T09:08:25.000Z</time>
      </trkpt>
      <trkpt lat="49.85966" lon="4.77708">
        <ele>330</ele>
        <time>2020-11-13T09:08:26.000Z</time>
      </trkpt>
      <trkpt lat="49.8596" lon="4.7771">
        <ele>330</ele>
        <time>2020-11-13T09:08:27.000Z</time>
      </trkpt>
      <trkpt lat="49.85954" lon="4.77711">
        <ele>330</ele>
        <time>2020-11-13T09:08:28.000Z</time>
      </trkpt>
      <trkpt lat="49.85947" lon="4.77713">
        <ele>330</ele>
        <time>2020-11-13T09:08:29.000Z</time>
      </trkpt>
      <trkpt lat="49.85941" lon="4.77715">
        <ele>330</ele>
        <time>2020-11-13T09:08:30.000Z</time>
      </trkpt>
      <trkpt lat="49.85936" lon="4.77719">
        <ele>329</ele>
        <time>2020-11-13T09:08:31.000Z</time>
      </trkpt>
      <trkpt lat="49.8593" lon="4.77721">
        <ele>329</ele>
        <time>2020-11-13T09:08:32.000Z</time>
      </trkpt>
      <trkpt lat="49.85923" lon="4.77723">
        <ele>329</ele>
        <time>2020-11-13T09:08:33.000Z</time>
      </trkpt>
      <trkpt lat="49.85917" lon="4.77725">
        <ele>328</ele>
        <time>2020-11-13T09:08:34.000Z</time>
      </trkpt>
      <trkpt lat="49.85911" lon="4.77728">
        <ele>328</ele>
        <time>2020-11-13T09:08:35.000Z</time>
      </trkpt>
      <trkpt lat="49.85905" lon="4.77731">
        <ele>327</ele>
        <time>2020-11-13T09:08:36.000Z</time>
      </trkpt>
      <trkpt lat="49.859" lon="4.77735">
        <ele>327</ele>
        <time>2020-11-13T09:08:37.000Z</time>
      </trkpt>
      <trkpt lat="49.85895" lon="4.77738">
        <ele>327</ele>
        <time>2020-11-13T09:08:38.000Z</time>
      </trkpt>
      <trkpt lat="49.8589" lon="4.7774">
        <ele>326</ele>
        <time>2020-11-13T09:08:39.000Z</time>
      </trkpt>
      <trkpt lat="49.85886" lon="4.77744">
        <ele>326</ele>
        <time>2020-11-13T09:08:40.000Z</time>
      </trkpt>
      <trkpt lat="49.8588" lon="4.77747">
        <ele>325</ele>
        <time>2020-11-13T09:08:41.000Z</time>
      </trkpt>
      <trkpt lat="49.85874" lon="4.77749">
        <ele>325</ele>
        <time>2020-11-13T09:08:42.000Z</time>
      </trkpt>
      <trkpt lat="49.85867" lon="4.77751">
        <ele>324</ele>
        <time>2020-11-13T09:08:43.000Z</time>
      </trkpt>
      <trkpt lat="49.8586" lon="4.77754">
        <ele>324</ele>
        <time>2020-11-13T09:08:44.000Z</time>
      </trkpt>
      <trkpt lat="49.85853" lon="4.77754">
        <ele>323</ele>
        <time>2020-11-13T09:08:45.000Z</time>
      </trkpt>
      <trkpt lat="49.85845" lon="4.77755">
        <ele>323</ele>
        <time>2020-11-13T09:08:46.000Z</time>
      </trkpt>
      <trkpt lat="49.85837" lon="4.77756">
        <ele>322</ele>
        <time>2020-11-13T09:08:47.000Z</time>
      </trkpt>
      <trkpt lat="49.85831" lon="4.77756">
        <ele>321</ele>
        <time>2020-11-13T09:08:48.000Z</time>
      </trkpt>
      <trkpt lat="49.85825" lon="4.77758">
        <ele>321</ele>
        <time>2020-11-13T09:08:49.000Z</time>
      </trkpt>
      <trkpt lat="49.85819" lon="4.7776">
        <ele>320</ele>
        <time>2020-11-13T09:08:50.000Z</time>
      </trkpt>
      <trkpt lat="49.85813" lon="4.77761">
        <ele>320</ele>
        <time>2020-11-13T09:08:51.000Z</time>
      </trkpt>
      <trkpt lat="49.85808" lon="4.77762">
        <ele>319</ele>
        <time>2020-11-13T09:08:52.000Z</time>
      </trkpt>
      <trkpt lat="49.85803" lon="4.77763">
        <ele>319</ele>
        <time>2020-11-13T09:08:53.000Z</time>
      </trkpt>
      <trkpt lat="49.85799" lon="4.77764">
        <ele>318</ele>
        <time>2020-11-13T09:08:54.000Z</time>
      </trkpt>
      <trkpt lat="49.85794" lon="4.77766">
        <ele>317</ele>
        <time>2020-11-13T09:08:55.000Z</time>
      </trkpt>
      <trkpt lat="49.85789" lon="4.77767">
        <ele>317</ele>
        <time>2020-11-13T09:08:56.000Z</time>
      </trkpt>
      <trkpt lat="49.85785" lon="4.77768">
        <ele>316</ele>
        <time>2020-11-13T09:08:57.000Z</time>
      </trkpt>
      <trkpt lat="49.85781" lon="4.77768">
        <ele>315</ele>
        <time>2020-11-13T09:08:58.000Z</time>
      </trkpt>
      <trkpt lat="49.85777" lon="4.77767">
        <ele>315</ele>
        <time>2020-11-13T09:08:59.000Z</time>
      </trkpt>
      <trkpt lat="49.85774" lon="4.77766">
        <ele>314</ele>
        <time>2020-11-13T09:09:00.000Z</time>
      </trkpt>
      <trkpt lat="49.85772" lon="4.77762">
        <ele>314</ele>
        <time>2020-11-13T09:09:01.000Z</time>
      </trkpt>
      <trkpt lat="49.8577" lon="4.77758">
        <ele>314</ele>
        <time>2020-11-13T09:09:02.000Z</time>
      </trkpt>
      <trkpt lat="49.85767" lon="4.77754">
        <ele>313</ele>
        <time>2020-11-13T09:09:03.000Z</time>
      </trkpt>
      <trkpt lat="49.85764" lon="4.7775">
        <ele>313</ele>
        <time>2020-11-13T09:09:04.000Z</time>
      </trkpt>
      <trkpt lat="49.85761" lon="4.77748">
        <ele>312</ele>
        <time>2020-11-13T09:09:05.000Z</time>
      </trkpt>
      <trkpt lat="49.85757" lon="4.77747">
        <ele>312</ele>
        <time>2020-11-13T09:09:06.000Z</time>
      </trkpt>
      <trkpt lat="49.85754" lon="4.77746">
        <ele>311</ele>
        <time>2020-11-13T09:09:07.000Z</time>
      </trkpt>
      <trkpt lat="49.85751" lon="4.77746">
        <ele>311</ele>
        <time>2020-11-13T09:09:08.000Z</time>
      </trkpt>
      <trkpt lat="49.85747" lon="4.77747">
        <ele>311</ele>
        <time>2020-11-13T09:09:09.000Z</time>
      </trkpt>
      <trkpt lat="49.85744" lon="4.77749">
        <ele>310</ele>
        <time>2020-11-13T09:09:10.000Z</time>
      </trkpt>
      <trkpt lat="49.8574" lon="4.7775">
        <ele>310</ele>
        <time>2020-11-13T09:09:11.000Z</time>
      </trkpt>
      <trkpt lat="49.85737" lon="4.77752">
        <ele>309</ele>
        <time>2020-11-13T09:09:12.000Z</time>
      </trkpt>
      <trkpt lat="49.85734" lon="4.77753">
        <ele>309</ele>
        <time>2020-11-13T09:09:13.000Z</time>
      </trkpt>
      <trkpt lat="49.85731" lon="4.77755">
        <ele>309</ele>
        <time>2020-11-13T09:09:14.000Z</time>
      </trkpt>
      <trkpt lat="49.85728" lon="4.77757">
        <ele>309</ele>
        <time>2020-11-13T09:09:15.000Z</time>
      </trkpt>
      <trkpt lat="49.85725" lon="4.77758">
        <ele>308</ele>
        <time>2020-11-13T09:09:16.000Z</time>
      </trkpt>
      <trkpt lat="49.85721" lon="4.77759">
        <ele>308</ele>
        <time>2020-11-13T09:09:17.000Z</time>
      </trkpt>
      <trkpt lat="49.85718" lon="4.7776">
        <ele>308</ele>
        <time>2020-11-13T09:09:18.000Z</time>
      </trkpt>
      <trkpt lat="49.85715" lon="4.77762">
        <ele>308</ele>
        <time>2020-11-13T09:09:19.000Z</time>
      </trkpt>
      <trkpt lat="49.85712" lon="4.77763">
        <ele>308</ele>
        <time>2020-11-13T09:09:20.000Z</time>
      </trkpt>
      <trkpt lat="49.85709" lon="4.77765">
        <ele>307</ele>
        <time>2020-11-13T09:09:21.000Z</time>
      </trkpt>
      <trkpt lat="49.85706" lon="4.77767">
        <ele>307</ele>
        <time>2020-11-13T09:09:22.000Z</time>
      </trkpt>
      <trkpt lat="49.85703" lon="4.77768">
        <ele>307</ele>
        <time>2020-11-13T09:09:23.000Z</time>
      </trkpt>
      <trkpt lat="49.857" lon="4.7777">
        <ele>307</ele>
        <time>2020-11-13T09:09:24.000Z</time>
      </trkpt>
      <trkpt lat="49.85697" lon="4.77772">
        <ele>307</ele>
        <time>2020-11-13T09:09:25.000Z</time>
      </trkpt>
      <trkpt lat="49.85694" lon="4.77774">
        <ele>307</ele>
        <time>2020-11-13T09:09:26.000Z</time>
      </trkpt>
      <trkpt lat="49.8569" lon="4.77776">
        <ele>307</ele>
        <time>2020-11-13T09:09:27.000Z</time>
      </trkpt>
      <trkpt lat="49.85687" lon="4.77778">
        <ele>307</ele>
        <time>2020-11-13T09:09:28.000Z</time>
      </trkpt>
      <trkpt lat="49.85684" lon="4.7778">
        <ele>307</ele>
        <time>2020-11-13T09:09:29.000Z</time>
      </trkpt>
      <trkpt lat="49.85681" lon="4.77782">
        <ele>307</ele>
        <time>2020-11-13T09:09:30.000Z</time>
      </trkpt>
      <trkpt lat="49.85678" lon="4.77784">
        <ele>307</ele>
        <time>2020-11-13T09:09:31.000Z</time>
      </trkpt>
      <trkpt lat="49.85675" lon="4.77786">
        <ele>307</ele>
        <time>2020-11-13T09:09:32.000Z</time>
      </trkpt>
      <trkpt lat="49.85672" lon="4.77789">
        <ele>307</ele>
        <time>2020-11-13T09:09:33.000Z</time>
      </trkpt>
      <trkpt lat="49.85669" lon="4.77791">
        <ele>307</ele>
        <time>2020-11-13T09:09:34.000Z</time>
      </trkpt>
      <trkpt lat="49.85666" lon="4.77794">
        <ele>307</ele>
        <time>2020-11-13T09:09:35.000Z</time>
      </trkpt>
      <trkpt lat="49.85663" lon="4.77797">
        <ele>307</ele>
        <time>2020-11-13T09:09:36.000Z</time>
      </trkpt>
      <trkpt lat="49.85659" lon="4.77799">
        <ele>307</ele>
        <time>2020-11-13T09:09:37.000Z</time>
      </trkpt>
      <trkpt lat="49.85655" lon="4.77798">
        <ele>307</ele>
        <time>2020-11-13T09:09:38.000Z</time>
      </trkpt>
      <trkpt lat="49.85653" lon="4.77798">
        <ele>307</ele>
        <time>2020-11-13T09:09:39.000Z</time>
      </trkpt>
      <trkpt lat="49.85651" lon="4.77797">
        <ele>307</ele>
        <time>2020-11-13T09:09:40.000Z</time>
      </trkpt>
      <trkpt lat="49.8565" lon="4.77797">
        <ele>307</ele>
        <time>2020-11-13T09:09:41.000Z</time>
      </trkpt>
      <trkpt lat="49.85649" lon="4.77797">
        <ele>307</ele>
        <time>2020-11-13T09:09:42.000Z</time>
      </trkpt>
      <trkpt lat="49.85647" lon="4.77798">
        <ele>308</ele>
        <time>2020-11-13T09:09:43.000Z</time>
      </trkpt>
      <trkpt lat="49.85646" lon="4.77799">
        <ele>308</ele>
        <time>2020-11-13T09:09:44.000Z</time>
      </trkpt>
      <trkpt lat="49.85645" lon="4.77799">
        <ele>308</ele>
        <time>2020-11-13T09:09:45.000Z</time>
      </trkpt>
      <trkpt lat="49.85644" lon="4.778">
        <ele>308</ele>
        <time>2020-11-13T09:09:46.000Z</time>
      </trkpt>
      <trkpt lat="49.85643" lon="4.77802">
        <ele>308</ele>
        <time>2020-11-13T09:09:47.000Z</time>
      </trkpt>
      <trkpt lat="49.85641" lon="4.77804">
        <ele>308</ele>
        <time>2020-11-13T09:09:48.000Z</time>
      </trkpt>
      <trkpt lat="49.85639" lon="4.77805">
        <ele>308</ele>
        <time>2020-11-13T09:09:49.000Z</time>
      </trkpt>
      <trkpt lat="49.85638" lon="4.77806">
        <ele>308</ele>
        <time>2020-11-13T09:09:50.000Z</time>
      </trkpt>
      <trkpt lat="49.85636" lon="4.77808">
        <ele>308</ele>
        <time>2020-11-13T09:09:51.000Z</time>
      </trkpt>
      <trkpt lat="49.85634" lon="4.7781">
        <ele>308</ele>
        <time>2020-11-13T09:09:52.000Z</time>
      </trkpt>
      <trkpt lat="49.85632" lon="4.77811">
        <ele>308</ele>
        <time>2020-11-13T09:09:53.000Z</time>
      </trkpt>
      <trkpt lat="49.8563" lon="4.77812">
        <ele>308</ele>
        <time>2020-11-13T09:09:54.000Z</time>
      </trkpt>
      <trkpt lat="49.85629" lon="4.77813">
        <ele>308</ele>
        <time>2020-11-13T09:09:55.000Z</time>
      </trkpt>
      <trkpt lat="49.85627" lon="4.77814">
        <ele>308</ele>
        <time>2020-11-13T09:09:56.000Z</time>
      </trkpt>
      <trkpt lat="49.85625" lon="4.77816">
        <ele>308</ele>
        <time>2020-11-13T09:09:57.000Z</time>
      </trkpt>
      <trkpt lat="49.85622" lon="4.77818">
        <ele>309</ele>
        <time>2020-11-13T09:09:58.000Z</time>
      </trkpt>
      <trkpt lat="49.8562" lon="4.77821">
        <ele>309</ele>
        <time>2020-11-13T09:09:59.000Z</time>
      </trkpt>
      <trkpt lat="49.85616" lon="4.77824">
        <ele>309</ele>
        <time>2020-11-13T09:10:00.000Z</time>
      </trkpt>
      <trkpt lat="49.85613" lon="4.77826">
        <ele>309</ele>
        <time>2020-11-13T09:10:01.000Z</time>
      </trkpt>
      <trkpt lat="49.85611" lon="4.77827">
        <ele>309</ele>
        <time>2020-11-13T09:10:02.000Z</time>
      </trkpt>
      <trkpt lat="49.85609" lon="4.77827">
        <ele>309</ele>
        <time>2020-11-13T09:10:03.000Z</time>
      </trkpt>
      <trkpt lat="49.85608" lon="4.77826">
        <ele>309</ele>
        <time>2020-11-13T09:10:04.000Z</time>
      </trkpt>
      <trkpt lat="49.85606" lon="4.77825">
        <ele>309</ele>
        <time>2020-11-13T09:10:05.000Z</time>
      </trkpt>
      <trkpt lat="49.85605" lon="4.77823">
        <ele>309</ele>
        <time>2020-11-13T09:10:06.000Z</time>
      </trkpt>
      <trkpt lat="49.85603" lon="4.77822">
        <ele>309</ele>
        <time>2020-11-13T09:10:07.000Z</time>
      </trkpt>
      <trkpt lat="49.85602" lon="4.77821">
        <ele>309</ele>
        <time>2020-11-13T09:10:08.000Z</time>
      </trkpt>
      <trkpt lat="49.856" lon="4.77822">
        <ele>310</ele>
        <time>2020-11-13T09:10:09.000Z</time>
      </trkpt>
      <trkpt lat="49.85598" lon="4.77823">
        <ele>310</ele>
        <time>2020-11-13T09:10:10.000Z</time>
      </trkpt>
      <trkpt lat="49.85596" lon="4.77824">
        <ele>310</ele>
        <time>2020-11-13T09:10:11.000Z</time>
      </trkpt>
      <trkpt lat="49.85594" lon="4.77825">
        <ele>310</ele>
        <time>2020-11-13T09:10:12.000Z</time>
      </trkpt>
      <trkpt lat="49.85592" lon="4.77826">
        <ele>310</ele>
        <time>2020-11-13T09:10:13.000Z</time>
      </trkpt>
      <trkpt lat="49.85591" lon="4.77827">
        <ele>310</ele>
        <time>2020-11-13T09:10:14.000Z</time>
      </trkpt>
      <trkpt lat="49.85588" lon="4.77828">
        <ele>310</ele>
        <time>2020-11-13T09:10:15.000Z</time>
      </trkpt>
      <trkpt lat="49.85586" lon="4.77828">
        <ele>310</ele>
        <time>2020-11-13T09:10:16.000Z</time>
      </trkpt>
      <trkpt lat="49.85584" lon="4.77829">
        <ele>310</ele>
        <time>2020-11-13T09:10:17.000Z</time>
      </trkpt>
      <trkpt lat="49.85582" lon="4.77831">
        <ele>310</ele>
        <time>2020-11-13T09:10:18.000Z</time>
      </trkpt>
      <trkpt lat="49.85581" lon="4.77834">
        <ele>310</ele>
        <time>2020-11-13T09:10:19.000Z</time>
      </trkpt>
      <trkpt lat="49.8558" lon="4.77836">
        <ele>310</ele>
        <time>2020-11-13T09:10:20.000Z</time>
      </trkpt>
      <trkpt lat="49.85579" lon="4.77839">
        <ele>310</ele>
        <time>2020-11-13T09:10:21.000Z</time>
      </trkpt>
      <trkpt lat="49.85579" lon="4.77842">
        <ele>310</ele>
        <time>2020-11-13T09:10:22.000Z</time>
      </trkpt>
      <trkpt lat="49.85579" lon="4.77846">
        <ele>310</ele>
        <time>2020-11-13T09:10:23.000Z</time>
      </trkpt>
      <trkpt lat="49.85579" lon="4.77849">
        <ele>310</ele>
        <time>2020-11-13T09:10:24.000Z</time>
      </trkpt>
      <trkpt lat="49.85578" lon="4.77852">
        <ele>310</ele>
        <time>2020-11-13T09:10:25.000Z</time>
      </trkpt>
      <trkpt lat="49.85578" lon="4.77855">
        <ele>309</ele>
        <time>2020-11-13T09:10:26.000Z</time>
      </trkpt>
      <trkpt lat="49.85578" lon="4.77859">
        <ele>309</ele>
        <time>2020-11-13T09:10:27.000Z</time>
      </trkpt>
      <trkpt lat="49.85578" lon="4.77862">
        <ele>309</ele>
        <time>2020-11-13T09:10:28.000Z</time>
      </trkpt>
      <trkpt lat="49.85578" lon="4.77866">
        <ele>309</ele>
        <time>2020-11-13T09:10:29.000Z</time>
      </trkpt>
      <trkpt lat="49.85578" lon="4.7787">
        <ele>309</ele>
        <time>2020-11-13T09:10:30.000Z</time>
      </trkpt>
      <trkpt lat="49.85578" lon="4.77874">
        <ele>309</ele>
        <time>2020-11-13T09:10:31.000Z</time>
      </trkpt>
      <trkpt lat="49.85577" lon="4.77878">
        <ele>309</ele>
        <time>2020-11-13T09:10:32.000Z</time>
      </trkpt>
      <trkpt lat="49.85575" lon="4.77883">
        <ele>309</ele>
        <time>2020-11-13T09:10:33.000Z</time>
      </trkpt>
      <trkpt lat="49.85573" lon="4.77887">
        <ele>309</ele>
        <time>2020-11-13T09:10:34.000Z</time>
      </trkpt>
      <trkpt lat="49.85572" lon="4.77891">
        <ele>309</ele>
        <time>2020-11-13T09:10:35.000Z</time>
      </trkpt>
      <trkpt lat="49.85571" lon="4.77895">
        <ele>309</ele>
        <time>2020-11-13T09:10:36.000Z</time>
      </trkpt>
      <trkpt lat="49.8557" lon="4.77899">
        <ele>309</ele>
        <time>2020-11-13T09:10:37.000Z</time>
      </trkpt>
      <trkpt lat="49.85568" lon="4.77903">
        <ele>309</ele>
        <time>2020-11-13T09:10:38.000Z</time>
      </trkpt>
      <trkpt lat="49.85567" lon="4.77908">
        <ele>309</ele>
        <time>2020-11-13T09:10:39.000Z</time>
      </trkpt>
      <trkpt lat="49.85566" lon="4.77912">
        <ele>310</ele>
        <time>2020-11-13T09:10:40.000Z</time>
      </trkpt>
      <trkpt lat="49.85565" lon="4.77916">
        <ele>310</ele>
        <time>2020-11-13T09:10:41.000Z</time>
      </trkpt>
      <trkpt lat="49.85564" lon="4.77921">
        <ele>310</ele>
        <time>2020-11-13T09:10:42.000Z</time>
      </trkpt>
      <trkpt lat="49.85562" lon="4.77926">
        <ele>310</ele>
        <time>2020-11-13T09:10:43.000Z</time>
      </trkpt>
      <trkpt lat="49.85561" lon="4.77932">
        <ele>310</ele>
        <time>2020-11-13T09:10:44.000Z</time>
      </trkpt>
      <trkpt lat="49.85559" lon="4.77937">
        <ele>310</ele>
        <time>2020-11-13T09:10:45.000Z</time>
      </trkpt>
      <trkpt lat="49.85558" lon="4.77942">
        <ele>310</ele>
        <time>2020-11-13T09:10:46.000Z</time>
      </trkpt>
      <trkpt lat="49.85556" lon="4.77947">
        <ele>310</ele>
        <time>2020-11-13T09:10:47.000Z</time>
      </trkpt>
      <trkpt lat="49.85555" lon="4.77952">
        <ele>310</ele>
        <time>2020-11-13T09:10:48.000Z</time>
      </trkpt>
      <trkpt lat="49.85554" lon="4.77958">
        <ele>310</ele>
        <time>2020-11-13T09:10:49.000Z</time>
      </trkpt>
      <trkpt lat="49.85553" lon="4.77963">
        <ele>310</ele>
        <time>2020-11-13T09:10:50.000Z</time>
      </trkpt>
      <trkpt lat="49.85551" lon="4.77968">
        <ele>310</ele>
        <time>2020-11-13T09:10:51.000Z</time>
      </trkpt>
      <trkpt lat="49.85549" lon="4.77973">
        <ele>310</ele>
        <time>2020-11-13T09:10:52.000Z</time>
      </trkpt>
      <trkpt lat="49.85546" lon="4.77977">
        <ele>310</ele>
        <time>2020-11-13T09:10:53.000Z</time>
      </trkpt>
      <trkpt lat="49.85544" lon="4.77983">
        <ele>310</ele>
        <time>2020-11-13T09:10:54.000Z</time>
      </trkpt>
      <trkpt lat="49.85542" lon="4.77988">
        <ele>310</ele>
        <time>2020-11-13T09:10:55.000Z</time>
      </trkpt>
      <trkpt lat="49.85541" lon="4.77993">
        <ele>310</ele>
        <time>2020-11-13T09:10:56.000Z</time>
      </trkpt>
      <trkpt lat="49.85539" lon="4.77999">
        <ele>310</ele>
        <time>2020-11-13T09:10:57.000Z</time>
      </trkpt>
      <trkpt lat="49.85538" lon="4.78005">
        <ele>310</ele>
        <time>2020-11-13T09:10:58.000Z</time>
      </trkpt>
      <trkpt lat="49.85536" lon="4.78011">
        <ele>310</ele>
        <time>2020-11-13T09:10:59.000Z</time>
      </trkpt>
      <trkpt lat="49.85534" lon="4.78018">
        <ele>310</ele>
        <time>2020-11-13T09:11:00.000Z</time>
      </trkpt>
      <trkpt lat="49.85532" lon="4.78024">
        <ele>310</ele>
        <time>2020-11-13T09:11:01.000Z</time>
      </trkpt>
      <trkpt lat="49.85531" lon="4.7803">
        <ele>310</ele>
        <time>2020-11-13T09:11:02.000Z</time>
      </trkpt>
      <trkpt lat="49.8553" lon="4.78035">
        <ele>310</ele>
        <time>2020-11-13T09:11:03.000Z</time>
      </trkpt>
      <trkpt lat="49.85529" lon="4.7804">
        <ele>310</ele>
        <time>2020-11-13T09:11:04.000Z</time>
      </trkpt>
      <trkpt lat="49.85527" lon="4.78045">
        <ele>310</ele>
        <time>2020-11-13T09:11:05.000Z</time>
      </trkpt>
      <trkpt lat="49.85525" lon="4.7805">
        <ele>310</ele>
        <time>2020-11-13T09:11:06.000Z</time>
      </trkpt>
      <trkpt lat="49.85523" lon="4.78056">
        <ele>310</ele>
        <time>2020-11-13T09:11:07.000Z</time>
      </trkpt>
      <trkpt lat="49.85521" lon="4.78061">
        <ele>309</ele>
        <time>2020-11-13T09:11:08.000Z</time>
      </trkpt>
      <trkpt lat="49.85519" lon="4.78066">
        <ele>309</ele>
        <time>2020-11-13T09:11:09.000Z</time>
      </trkpt>
      <trkpt lat="49.85516" lon="4.78072">
        <ele>309</ele>
        <time>2020-11-13T09:11:10.000Z</time>
      </trkpt>
      <trkpt lat="49.85514" lon="4.78078">
        <ele>309</ele>
        <time>2020-11-13T09:11:11.000Z</time>
      </trkpt>
      <trkpt lat="49.85512" lon="4.78082">
        <ele>309</ele>
        <time>2020-11-13T09:11:12.000Z</time>
      </trkpt>
      <trkpt lat="49.85509" lon="4.78087">
        <ele>309</ele>
        <time>2020-11-13T09:11:13.000Z</time>
      </trkpt>
      <trkpt lat="49.85507" lon="4.78093">
        <ele>309</ele>
        <time>2020-11-13T09:11:14.000Z</time>
      </trkpt>
      <trkpt lat="49.85505" lon="4.78099">
        <ele>309</ele>
        <time>2020-11-13T09:11:15.000Z</time>
      </trkpt>
      <trkpt lat="49.85502" lon="4.78104">
        <ele>309</ele>
        <time>2020-11-13T09:11:16.000Z</time>
      </trkpt>
      <trkpt lat="49.855" lon="4.78109">
        <ele>309</ele>
        <time>2020-11-13T09:11:17.000Z</time>
      </trkpt>
      <trkpt lat="49.85498" lon="4.78115">
        <ele>309</ele>
        <time>2020-11-13T09:11:18.000Z</time>
      </trkpt>
      <trkpt lat="49.85496" lon="4.78121">
        <ele>309</ele>
        <time>2020-11-13T09:11:19.000Z</time>
      </trkpt>
      <trkpt lat="49.85494" lon="4.78126">
        <ele>309</ele>
        <time>2020-11-13T09:11:20.000Z</time>
      </trkpt>
      <trkpt lat="49.85491" lon="4.78131">
        <ele>309</ele>
        <time>2020-11-13T09:11:21.000Z</time>
      </trkpt>
      <trkpt lat="49.85488" lon="4.78136">
        <ele>309</ele>
        <time>2020-11-13T09:11:22.000Z</time>
      </trkpt>
      <trkpt lat="49.85485" lon="4.78141">
        <ele>309</ele>
        <time>2020-11-13T09:11:23.000Z</time>
      </trkpt>
      <trkpt lat="49.85483" lon="4.78146">
        <ele>309</ele>
        <time>2020-11-13T09:11:24.000Z</time>
      </trkpt>
      <trkpt lat="49.8548" lon="4.78151">
        <ele>309</ele>
        <time>2020-11-13T09:11:25.000Z</time>
      </trkpt>
      <trkpt lat="49.85478" lon="4.78156">
        <ele>309</ele>
        <time>2020-11-13T09:11:26.000Z</time>
      </trkpt>
      <trkpt lat="49.85476" lon="4.78161">
        <ele>309</ele>
        <time>2020-11-13T09:11:27.000Z</time>
      </trkpt>
      <trkpt lat="49.85474" lon="4.78167">
        <ele>308</ele>
        <time>2020-11-13T09:11:28.000Z</time>
      </trkpt>
      <trkpt lat="49.85473" lon="4.78171">
        <ele>308</ele>
        <time>2020-11-13T09:11:29.000Z</time>
      </trkpt>
      <trkpt lat="49.85471" lon="4.78176">
        <ele>308</ele>
        <time>2020-11-13T09:11:30.000Z</time>
      </trkpt>
      <trkpt lat="49.85468" lon="4.7818">
        <ele>308</ele>
        <time>2020-11-13T09:11:31.000Z</time>
      </trkpt>
      <trkpt lat="49.85466" lon="4.78184">
        <ele>308</ele>
        <time>2020-11-13T09:11:32.000Z</time>
      </trkpt>
      <trkpt lat="49.85464" lon="4.78189">
        <ele>308</ele>
        <time>2020-11-13T09:11:33.000Z</time>
      </trkpt>
      <trkpt lat="49.85462" lon="4.78193">
        <ele>308</ele>
        <time>2020-11-13T09:11:34.000Z</time>
      </trkpt>
      <trkpt lat="49.8546" lon="4.78197">
        <ele>308</ele>
        <time>2020-11-13T09:11:35.000Z</time>
      </trkpt>
      <trkpt lat="49.85457" lon="4.78201">
        <ele>308</ele>
        <time>2020-11-13T09:11:36.000Z</time>
      </trkpt>
      <trkpt lat="49.85454" lon="4.78205">
        <ele>308</ele>
        <time>2020-11-13T09:11:37.000Z</time>
      </trkpt>
      <trkpt lat="49.85451" lon="4.78209">
        <ele>308</ele>
        <time>2020-11-13T09:11:38.000Z</time>
      </trkpt>
      <trkpt lat="49.85448" lon="4.78213">
        <ele>308</ele>
        <time>2020-11-13T09:11:39.000Z</time>
      </trkpt>
      <trkpt lat="49.85446" lon="4.78217">
        <ele>308</ele>
        <time>2020-11-13T09:11:40.000Z</time>
      </trkpt>
      <trkpt lat="49.85443" lon="4.7822">
        <ele>308</ele>
        <time>2020-11-13T09:11:41.000Z</time>
      </trkpt>
      <trkpt lat="49.85441" lon="4.78224">
        <ele>308</ele>
        <time>2020-11-13T09:11:42.000Z</time>
      </trkpt>
      <trkpt lat="49.85438" lon="4.78227">
        <ele>308</ele>
        <time>2020-11-13T09:11:43.000Z</time>
      </trkpt>
      <trkpt lat="49.85436" lon="4.7823">
        <ele>308</ele>
        <time>2020-11-13T09:11:44.000Z</time>
      </trkpt>
      <trkpt lat="49.85434" lon="4.78233">
        <ele>308</ele>
        <time>2020-11-13T09:11:45.000Z</time>
      </trkpt>
      <trkpt lat="49.85432" lon="4.78236">
        <ele>308</ele>
        <time>2020-11-13T09:11:46.000Z</time>
      </trkpt>
      <trkpt lat="49.8543" lon="4.7824">
        <ele>309</ele>
        <time>2020-11-13T09:11:47.000Z</time>
      </trkpt>
      <trkpt lat="49.85428" lon="4.78243">
        <ele>309</ele>
        <time>2020-11-13T09:11:48.000Z</time>
      </trkpt>
      <trkpt lat="49.85426" lon="4.78245">
        <ele>309</ele>
        <time>2020-11-13T09:11:49.000Z</time>
      </trkpt>
      <trkpt lat="49.85424" lon="4.78248">
        <ele>309</ele>
        <time>2020-11-13T09:11:50.000Z</time>
      </trkpt>
      <trkpt lat="49.85422" lon="4.7825">
        <ele>309</ele>
        <time>2020-11-13T09:11:51.000Z</time>
      </trkpt>
      <trkpt lat="49.8542" lon="4.78252">
        <ele>309</ele>
        <time>2020-11-13T09:11:52.000Z</time>
      </trkpt>
      <trkpt lat="49.85418" lon="4.78254">
        <ele>309</ele>
        <time>2020-11-13T09:11:53.000Z</time>
      </trkpt>
      <trkpt lat="49.85416" lon="4.78256">
        <ele>309</ele>
        <time>2020-11-13T09:11:54.000Z</time>
      </trkpt>
      <trkpt lat="49.85415" lon="4.78259">
        <ele>309</ele>
        <time>2020-11-13T09:11:55.000Z</time>
      </trkpt>
      <trkpt lat="49.85413" lon="4.78261">
        <ele>309</ele>
        <time>2020-11-13T09:11:56.000Z</time>
      </trkpt>
      <trkpt lat="49.85411" lon="4.78263">
        <ele>309</ele>
        <time>2020-11-13T09:11:57.000Z</time>
      </trkpt>
      <trkpt lat="49.85409" lon="4.78265">
        <ele>309</ele>
        <time>2020-11-13T09:11:58.000Z</time>
      </trkpt>
      <trkpt lat="49.85407" lon="4.78267">
        <ele>310</ele>
        <time>2020-11-13T09:11:59.000Z</time>
      </trkpt>
      <trkpt lat="49.85405" lon="4.78269">
        <ele>310</ele>
        <time>2020-11-13T09:12:00.000Z</time>
      </trkpt>
      <trkpt lat="49.85403" lon="4.78271">
        <ele>310</ele>
        <time>2020-11-13T09:12:01.000Z</time>
      </trkpt>
      <trkpt lat="49.85401" lon="4.78273">
        <ele>310</ele>
        <time>2020-11-13T09:12:02.000Z</time>
      </trkpt>
      <trkpt lat="49.85399" lon="4.78275">
        <ele>310</ele>
        <time>2020-11-13T09:12:03.000Z</time>
      </trkpt>
      <trkpt lat="49.85397" lon="4.78278">
        <ele>310</ele>
        <time>2020-11-13T09:12:04.000Z</time>
      </trkpt>
      <trkpt lat="49.85395" lon="4.7828">
        <ele>311</ele>
        <time>2020-11-13T09:12:05.000Z</time>
      </trkpt>
      <trkpt lat="49.85393" lon="4.78283">
        <ele>311</ele>
        <time>2020-11-13T09:12:06.000Z</time>
      </trkpt>
      <trkpt lat="49.85391" lon="4.78286">
        <ele>311</ele>
        <time>2020-11-13T09:12:07.000Z</time>
      </trkpt>
      <trkpt lat="49.85389" lon="4.78289">
        <ele>311</ele>
        <time>2020-11-13T09:12:08.000Z</time>
      </trkpt>
      <trkpt lat="49.85387" lon="4.78291">
        <ele>311</ele>
        <time>2020-11-13T09:12:09.000Z</time>
      </trkpt>
      <trkpt lat="49.85385" lon="4.78294">
        <ele>311</ele>
        <time>2020-11-13T09:12:10.000Z</time>
      </trkpt>
      <trkpt lat="49.85382" lon="4.78296">
        <ele>311</ele>
        <time>2020-11-13T09:12:11.000Z</time>
      </trkpt>
      <trkpt lat="49.8538" lon="4.78299">
        <ele>312</ele>
        <time>2020-11-13T09:12:12.000Z</time>
      </trkpt>
      <trkpt lat="49.85378" lon="4.78301">
        <ele>312</ele>
        <time>2020-11-13T09:12:13.000Z</time>
      </trkpt>
      <trkpt lat="49.85376" lon="4.78303">
        <ele>312</ele>
        <time>2020-11-13T09:12:14.000Z</time>
      </trkpt>
      <trkpt lat="49.85375" lon="4.78305">
        <ele>312</ele>
        <time>2020-11-13T09:12:15.000Z</time>
      </trkpt>
      <trkpt lat="49.85373" lon="4.78308">
        <ele>312</ele>
        <time>2020-11-13T09:12:16.000Z</time>
      </trkpt>
      <trkpt lat="49.85371" lon="4.78311">
        <ele>313</ele>
        <time>2020-11-13T09:12:17.000Z</time>
      </trkpt>
      <trkpt lat="49.85369" lon="4.78313">
        <ele>313</ele>
        <time>2020-11-13T09:12:18.000Z</time>
      </trkpt>
      <trkpt lat="49.85368" lon="4.78316">
        <ele>313</ele>
        <time>2020-11-13T09:12:19.000Z</time>
      </trkpt>
      <trkpt lat="49.85366" lon="4.78319">
        <ele>313</ele>
        <time>2020-11-13T09:12:20.000Z</time>
      </trkpt>
      <trkpt lat="49.85365" lon="4.78321">
        <ele>313</ele>
        <time>2020-11-13T09:12:21.000Z</time>
      </trkpt>
      <trkpt lat="49.85363" lon="4.78324">
        <ele>314</ele>
        <time>2020-11-13T09:12:22.000Z</time>
      </trkpt>
      <trkpt lat="49.85361" lon="4.78327">
        <ele>314</ele>
        <time>2020-11-13T09:12:23.000Z</time>
      </trkpt>
      <trkpt lat="49.8536" lon="4.78329">
        <ele>314</ele>
        <time>2020-11-13T09:12:24.000Z</time>
      </trkpt>
      <trkpt lat="49.85358" lon="4.78332">
        <ele>314</ele>
        <time>2020-11-13T09:12:25.000Z</time>
      </trkpt>
      <trkpt lat="49.85357" lon="4.78334">
        <ele>314</ele>
        <time>2020-11-13T09:12:26.000Z</time>
      </trkpt>
      <trkpt lat="49.85355" lon="4.78336">
        <ele>314</ele>
        <time>2020-11-13T09:12:27.000Z</time>
      </trkpt>
      <trkpt lat="49.85354" lon="4.78338">
        <ele>315</ele>
        <time>2020-11-13T09:12:28.000Z</time>
      </trkpt>
      <trkpt lat="49.85352" lon="4.78341">
        <ele>315</ele>
        <time>2020-11-13T09:12:29.000Z</time>
      </trkpt>
      <trkpt lat="49.85351" lon="4.78343">
        <ele>315</ele>
        <time>2020-11-13T09:12:30.000Z</time>
      </trkpt>
      <trkpt lat="49.8535" lon="4.78345">
        <ele>315</ele>
        <time>2020-11-13T09:12:31.000Z</time>
      </trkpt>
      <trkpt lat="49.85348" lon="4.78348">
        <ele>315</ele>
        <time>2020-11-13T09:12:32.000Z</time>
      </trkpt>
      <trkpt lat="49.85348" lon="4.78349">
        <ele>315</ele>
        <time>2020-11-13T09:12:33.000Z</time>
      </trkpt>
      <trkpt lat="49.85347" lon="4.78352">
        <ele>316</ele>
        <time>2020-11-13T09:12:34.000Z</time>
      </trkpt>
      <trkpt lat="49.85345" lon="4.78355">
        <ele>316</ele>
        <time>2020-11-13T09:12:35.000Z</time>
      </trkpt>
      <trkpt lat="49.85344" lon="4.78357">
        <ele>316</ele>
        <time>2020-11-13T09:12:36.000Z</time>
      </trkpt>
      <trkpt lat="49.85343" lon="4.78359">
        <ele>316</ele>
        <time>2020-11-13T09:12:37.000Z</time>
      </trkpt>
      <trkpt lat="49.85341" lon="4.78361">
        <ele>316</ele>
        <time>2020-11-13T09:12:38.000Z</time>
      </trkpt>
      <trkpt lat="49.85339" lon="4.78363">
        <ele>316</ele>
        <time>2020-11-13T09:12:39.000Z</time>
      </trkpt>
      <trkpt lat="49.85337" lon="4.78365">
        <ele>317</ele>
        <time>2020-11-13T09:12:40.000Z</time>
      </trkpt>
      <trkpt lat="49.85336" lon="4.78367">
        <ele>317</ele>
        <time>2020-11-13T09:12:41.000Z</time>
      </trkpt>
      <trkpt lat="49.85334" lon="4.7837">
        <ele>317</ele>
        <time>2020-11-13T09:12:42.000Z</time>
      </trkpt>
      <trkpt lat="49.85333" lon="4.78372">
        <ele>317</ele>
        <time>2020-11-13T09:12:43.000Z</time>
      </trkpt>
      <trkpt lat="49.85332" lon="4.78374">
        <ele>317</ele>
        <time>2020-11-13T09:12:44.000Z</time>
      </trkpt>
      <trkpt lat="49.85331" lon="4.78376">
        <ele>317</ele>
        <time>2020-11-13T09:12:45.000Z</time>
      </trkpt>
      <trkpt lat="49.8533" lon="4.78378">
        <ele>318</ele>
        <time>2020-11-13T09:12:46.000Z</time>
      </trkpt>
      <trkpt lat="49.85328" lon="4.7838">
        <ele>318</ele>
        <time>2020-11-13T09:12:47.000Z</time>
      </trkpt>
      <trkpt lat="49.85327" lon="4.78382">
        <ele>318</ele>
        <time>2020-11-13T09:12:48.000Z</time>
      </trkpt>
      <trkpt lat="49.85326" lon="4.78385">
        <ele>318</ele>
        <time>2020-11-13T09:12:49.000Z</time>
      </trkpt>
      <trkpt lat="49.85325" lon="4.78386">
        <ele>318</ele>
        <time>2020-11-13T09:12:50.000Z</time>
      </trkpt>
      <trkpt lat="49.85323" lon="4.78388">
        <ele>318</ele>
        <time>2020-11-13T09:12:51.000Z</time>
      </trkpt>
      <trkpt lat="49.85322" lon="4.7839">
        <ele>319</ele>
        <time>2020-11-13T09:12:52.000Z</time>
      </trkpt>
      <trkpt lat="49.85321" lon="4.78392">
        <ele>319</ele>
        <time>2020-11-13T09:12:53.000Z</time>
      </trkpt>
      <trkpt lat="49.8532" lon="4.78394">
        <ele>319</ele>
        <time>2020-11-13T09:12:54.000Z</time>
      </trkpt>
      <trkpt lat="49.85318" lon="4.78396">
        <ele>319</ele>
        <time>2020-11-13T09:12:55.000Z</time>
      </trkpt>
      <trkpt lat="49.85317" lon="4.78398">
        <ele>319</ele>
        <time>2020-11-13T09:12:56.000Z</time>
      </trkpt>
      <trkpt lat="49.85316" lon="4.784">
        <ele>319</ele>
        <time>2020-11-13T09:12:57.000Z</time>
      </trkpt>
      <trkpt lat="49.85315" lon="4.78402">
        <ele>320</ele>
        <time>2020-11-13T09:12:58.000Z</time>
      </trkpt>
      <trkpt lat="49.85314" lon="4.78403">
        <ele>320</ele>
        <time>2020-11-13T09:12:59.000Z</time>
      </trkpt>
      <trkpt lat="49.85313" lon="4.78406">
        <ele>320</ele>
        <time>2020-11-13T09:13:00.000Z</time>
      </trkpt>
      <trkpt lat="49.85312" lon="4.78408">
        <ele>321</ele>
        <time>2020-11-13T09:13:01.000Z</time>
      </trkpt>
      <trkpt lat="49.85311" lon="4.7841">
        <ele>321</ele>
        <time>2020-11-13T09:13:02.000Z</time>
      </trkpt>
      <trkpt lat="49.85309" lon="4.78413">
        <ele>321</ele>
        <time>2020-11-13T09:13:03.000Z</time>
      </trkpt>
      <trkpt lat="49.85308" lon="4.78416">
        <ele>322</ele>
        <time>2020-11-13T09:13:04.000Z</time>
      </trkpt>
      <trkpt lat="49.85307" lon="4.78418">
        <ele>322</ele>
        <time>2020-11-13T09:13:05.000Z</time>
      </trkpt>
      <trkpt lat="49.85306" lon="4.78421">
        <ele>322</ele>
        <time>2020-11-13T09:13:06.000Z</time>
      </trkpt>
      <trkpt lat="49.85305" lon="4.78424">
        <ele>323</ele>
        <time>2020-11-13T09:13:07.000Z</time>
      </trkpt>
      <trkpt lat="49.85304" lon="4.78426">
        <ele>323</ele>
        <time>2020-11-13T09:13:08.000Z</time>
      </trkpt>
      <trkpt lat="49.85303" lon="4.78429">
        <ele>323</ele>
        <time>2020-11-13T09:13:09.000Z</time>
      </trkpt>
      <trkpt lat="49.85301" lon="4.78431">
        <ele>324</ele>
        <time>2020-11-13T09:13:10.000Z</time>
      </trkpt>
      <trkpt lat="49.85299" lon="4.78434">
        <ele>324</ele>
        <time>2020-11-13T09:13:11.000Z</time>
      </trkpt>
      <trkpt lat="49.85298" lon="4.78436">
        <ele>324</ele>
        <time>2020-11-13T09:13:12.000Z</time>
      </trkpt>
      <trkpt lat="49.85297" lon="4.78439">
        <ele>324</ele>
        <time>2020-11-13T09:13:13.000Z</time>
      </trkpt>
      <trkpt lat="49.85295" lon="4.78442">
        <ele>325</ele>
        <time>2020-11-13T09:13:14.000Z</time>
      </trkpt>
      <trkpt lat="49.85294" lon="4.78445">
        <ele>325</ele>
        <time>2020-11-13T09:13:15.000Z</time>
      </trkpt>
      <trkpt lat="49.85292" lon="4.78448">
        <ele>325</ele>
        <time>2020-11-13T09:13:16.000Z</time>
      </trkpt>
      <trkpt lat="49.85291" lon="4.78451">
        <ele>326</ele>
        <time>2020-11-13T09:13:17.000Z</time>
      </trkpt>
      <trkpt lat="49.85289" lon="4.78454">
        <ele>326</ele>
        <time>2020-11-13T09:13:18.000Z</time>
      </trkpt>
      <trkpt lat="49.85287" lon="4.78457">
        <ele>326</ele>
        <time>2020-11-13T09:13:19.000Z</time>
      </trkpt>
      <trkpt lat="49.85285" lon="4.78459">
        <ele>326</ele>
        <time>2020-11-13T09:13:20.000Z</time>
      </trkpt>
      <trkpt lat="49.85284" lon="4.78462">
        <ele>327</ele>
        <time>2020-11-13T09:13:21.000Z</time>
      </trkpt>
      <trkpt lat="49.85282" lon="4.78464">
        <ele>327</ele>
        <time>2020-11-13T09:13:22.000Z</time>
      </trkpt>
      <trkpt lat="49.85281" lon="4.78466">
        <ele>327</ele>
        <time>2020-11-13T09:13:23.000Z</time>
      </trkpt>
      <trkpt lat="49.85279" lon="4.78469">
        <ele>327</ele>
        <time>2020-11-13T09:13:24.000Z</time>
      </trkpt>
      <trkpt lat="49.85278" lon="4.78472">
        <ele>327</ele>
        <time>2020-11-13T09:13:25.000Z</time>
      </trkpt>
      <trkpt lat="49.85277" lon="4.78475">
        <ele>328</ele>
        <time>2020-11-13T09:13:26.000Z</time>
      </trkpt>
      <trkpt lat="49.85275" lon="4.78478">
        <ele>328</ele>
        <time>2020-11-13T09:13:27.000Z</time>
      </trkpt>
      <trkpt lat="49.85273" lon="4.7848">
        <ele>328</ele>
        <time>2020-11-13T09:13:28.000Z</time>
      </trkpt>
      <trkpt lat="49.85272" lon="4.78482">
        <ele>329</ele>
        <time>2020-11-13T09:13:29.000Z</time>
      </trkpt>
      <trkpt lat="49.8527" lon="4.78485">
        <ele>329</ele>
        <time>2020-11-13T09:13:30.000Z</time>
      </trkpt>
      <trkpt lat="49.85268" lon="4.78488">
        <ele>329</ele>
        <time>2020-11-13T09:13:31.000Z</time>
      </trkpt>
      <trkpt lat="49.85266" lon="4.78492">
        <ele>329</ele>
        <time>2020-11-13T09:13:32.000Z</time>
      </trkpt>
      <trkpt lat="49.85264" lon="4.78495">
        <ele>330</ele>
        <time>2020-11-13T09:13:33.000Z</time>
      </trkpt>
      <trkpt lat="49.85262" lon="4.78499">
        <ele>330</ele>
        <time>2020-11-13T09:13:34.000Z</time>
      </trkpt>
      <trkpt lat="49.85259" lon="4.78502">
        <ele>330</ele>
        <time>2020-11-13T09:13:35.000Z</time>
      </trkpt>
      <trkpt lat="49.85257" lon="4.78505">
        <ele>330</ele>
        <time>2020-11-13T09:13:36.000Z</time>
      </trkpt>
      <trkpt lat="49.85255" lon="4.78508">
        <ele>331</ele>
        <time>2020-11-13T09:13:37.000Z</time>
      </trkpt>
      <trkpt lat="49.85253" lon="4.78512">
        <ele>331</ele>
        <time>2020-11-13T09:13:38.000Z</time>
      </trkpt>
      <trkpt lat="49.8525" lon="4.78517">
        <ele>331</ele>
        <time>2020-11-13T09:13:39.000Z</time>
      </trkpt>
      <trkpt lat="49.85248" lon="4.78521">
        <ele>331</ele>
        <time>2020-11-13T09:13:40.000Z</time>
      </trkpt>
      <trkpt lat="49.85245" lon="4.78526">
        <ele>331</ele>
        <time>2020-11-13T09:13:41.000Z</time>
      </trkpt>
      <trkpt lat="49.85243" lon="4.7853">
        <ele>331</ele>
        <time>2020-11-13T09:13:42.000Z</time>
      </trkpt>
      <trkpt lat="49.8524" lon="4.78534">
        <ele>331</ele>
        <time>2020-11-13T09:13:43.000Z</time>
      </trkpt>
      <trkpt lat="49.85237" lon="4.78538">
        <ele>331</ele>
        <time>2020-11-13T09:13:44.000Z</time>
      </trkpt>
      <trkpt lat="49.85234" lon="4.78542">
        <ele>332</ele>
        <time>2020-11-13T09:13:45.000Z</time>
      </trkpt>
      <trkpt lat="49.85231" lon="4.78547">
        <ele>332</ele>
        <time>2020-11-13T09:13:46.000Z</time>
      </trkpt>
      <trkpt lat="49.85228" lon="4.78551">
        <ele>332</ele>
        <time>2020-11-13T09:13:47.000Z</time>
      </trkpt>
      <trkpt lat="49.85225" lon="4.78555">
        <ele>332</ele>
        <time>2020-11-13T09:13:48.000Z</time>
      </trkpt>
      <trkpt lat="49.85222" lon="4.7856">
        <ele>332</ele>
        <time>2020-11-13T09:13:49.000Z</time>
      </trkpt>
      <trkpt lat="49.8522" lon="4.78563">
        <ele>332</ele>
        <time>2020-11-13T09:13:50.000Z</time>
      </trkpt>
      <trkpt lat="49.85216" lon="4.78567">
        <ele>332</ele>
        <time>2020-11-13T09:13:51.000Z</time>
      </trkpt>
      <trkpt lat="49.85213" lon="4.78571">
        <ele>332</ele>
        <time>2020-11-13T09:13:52.000Z</time>
      </trkpt>
      <trkpt lat="49.8521" lon="4.78575">
        <ele>332</ele>
        <time>2020-11-13T09:13:53.000Z</time>
      </trkpt>
      <trkpt lat="49.85208" lon="4.78579">
        <ele>332</ele>
        <time>2020-11-13T09:13:54.000Z</time>
      </trkpt>
      <trkpt lat="49.85205" lon="4.78583">
        <ele>332</ele>
        <time>2020-11-13T09:13:55.000Z</time>
      </trkpt>
      <trkpt lat="49.85202" lon="4.78588">
        <ele>332</ele>
        <time>2020-11-13T09:13:56.000Z</time>
      </trkpt>
      <trkpt lat="49.85199" lon="4.78591">
        <ele>332</ele>
        <time>2020-11-13T09:13:57.000Z</time>
      </trkpt>
      <trkpt lat="49.85196" lon="4.78595">
        <ele>332</ele>
        <time>2020-11-13T09:13:58.000Z</time>
      </trkpt>
      <trkpt lat="49.85193" lon="4.78599">
        <ele>333</ele>
        <time>2020-11-13T09:13:59.000Z</time>
      </trkpt>
      <trkpt lat="49.8519" lon="4.78603">
        <ele>333</ele>
        <time>2020-11-13T09:14:00.000Z</time>
      </trkpt>
      <trkpt lat="49.85187" lon="4.78607">
        <ele>333</ele>
        <time>2020-11-13T09:14:01.000Z</time>
      </trkpt>
      <trkpt lat="49.85185" lon="4.78612">
        <ele>333</ele>
        <time>2020-11-13T09:14:02.000Z</time>
      </trkpt>
      <trkpt lat="49.85182" lon="4.78615">
        <ele>333</ele>
        <time>2020-11-13T09:14:03.000Z</time>
      </trkpt>
      <trkpt lat="49.85179" lon="4.78619">
        <ele>333</ele>
        <time>2020-11-13T09:14:04.000Z</time>
      </trkpt>
      <trkpt lat="49.85176" lon="4.78622">
        <ele>333</ele>
        <time>2020-11-13T09:14:05.000Z</time>
      </trkpt>
      <trkpt lat="49.85173" lon="4.78626">
        <ele>333</ele>
        <time>2020-11-13T09:14:06.000Z</time>
      </trkpt>
      <trkpt lat="49.8517" lon="4.78629">
        <ele>333</ele>
        <time>2020-11-13T09:14:07.000Z</time>
      </trkpt>
      <trkpt lat="49.85167" lon="4.78633">
        <ele>333</ele>
        <time>2020-11-13T09:14:08.000Z</time>
      </trkpt>
      <trkpt lat="49.85164" lon="4.78636">
        <ele>333</ele>
        <time>2020-11-13T09:14:09.000Z</time>
      </trkpt>
      <trkpt lat="49.85161" lon="4.78639">
        <ele>333</ele>
        <time>2020-11-13T09:14:10.000Z</time>
      </trkpt>
      <trkpt lat="49.85158" lon="4.78643">
        <ele>333</ele>
        <time>2020-11-13T09:14:11.000Z</time>
      </trkpt>
      <trkpt lat="49.85154" lon="4.78646">
        <ele>333</ele>
        <time>2020-11-13T09:14:12.000Z</time>
      </trkpt>
      <trkpt lat="49.85152" lon="4.78649">
        <ele>333</ele>
        <time>2020-11-13T09:14:13.000Z</time>
      </trkpt>
      <trkpt lat="49.85148" lon="4.78653">
        <ele>333</ele>
        <time>2020-11-13T09:14:14.000Z</time>
      </trkpt>
      <trkpt lat="49.85145" lon="4.78657">
        <ele>334</ele>
        <time>2020-11-13T09:14:15.000Z</time>
      </trkpt>
      <trkpt lat="49.85142" lon="4.78661">
        <ele>334</ele>
        <time>2020-11-13T09:14:16.000Z</time>
      </trkpt>
      <trkpt lat="49.85139" lon="4.78666">
        <ele>334</ele>
        <time>2020-11-13T09:14:17.000Z</time>
      </trkpt>
      <trkpt lat="49.85137" lon="4.7867">
        <ele>334</ele>
        <time>2020-11-13T09:14:18.000Z</time>
      </trkpt>
      <trkpt lat="49.85134" lon="4.78674">
        <ele>334</ele>
        <time>2020-11-13T09:14:19.000Z</time>
      </trkpt>
      <trkpt lat="49.85132" lon="4.78677">
        <ele>334</ele>
        <time>2020-11-13T09:14:20.000Z</time>
      </trkpt>
      <trkpt lat="49.85129" lon="4.78681">
        <ele>334</ele>
        <time>2020-11-13T09:14:21.000Z</time>
      </trkpt>
      <trkpt lat="49.85126" lon="4.78685">
        <ele>335</ele>
        <time>2020-11-13T09:14:22.000Z</time>
      </trkpt>
      <trkpt lat="49.85123" lon="4.7869">
        <ele>335</ele>
        <time>2020-11-13T09:14:23.000Z</time>
      </trkpt>
      <trkpt lat="49.85121" lon="4.78694">
        <ele>335</ele>
        <time>2020-11-13T09:14:24.000Z</time>
      </trkpt>
      <trkpt lat="49.85118" lon="4.787">
        <ele>335</ele>
        <time>2020-11-13T09:14:25.000Z</time>
      </trkpt>
      <trkpt lat="49.85115" lon="4.78705">
        <ele>335</ele>
        <time>2020-11-13T09:14:26.000Z</time>
      </trkpt>
      <trkpt lat="49.85112" lon="4.78709">
        <ele>335</ele>
        <time>2020-11-13T09:14:27.000Z</time>
      </trkpt>
      <trkpt lat="49.85108" lon="4.78713">
        <ele>335</ele>
        <time>2020-11-13T09:14:28.000Z</time>
      </trkpt>
      <trkpt lat="49.85105" lon="4.78717">
        <ele>335</ele>
        <time>2020-11-13T09:14:29.000Z</time>
      </trkpt>
      <trkpt lat="49.85102" lon="4.78721">
        <ele>335</ele>
        <time>2020-11-13T09:14:30.000Z</time>
      </trkpt>
      <trkpt lat="49.85099" lon="4.78725">
        <ele>335</ele>
        <time>2020-11-13T09:14:31.000Z</time>
      </trkpt>
      <trkpt lat="49.85096" lon="4.78729">
        <ele>335</ele>
        <time>2020-11-13T09:14:32.000Z</time>
      </trkpt>
      <trkpt lat="49.85093" lon="4.78734">
        <ele>336</ele>
        <time>2020-11-13T09:14:33.000Z</time>
      </trkpt>
      <trkpt lat="49.8509" lon="4.78738">
        <ele>336</ele>
        <time>2020-11-13T09:14:34.000Z</time>
      </trkpt>
      <trkpt lat="49.85088" lon="4.78742">
        <ele>336</ele>
        <time>2020-11-13T09:14:35.000Z</time>
      </trkpt>
      <trkpt lat="49.85086" lon="4.78745">
        <ele>336</ele>
        <time>2020-11-13T09:14:36.000Z</time>
      </trkpt>
      <trkpt lat="49.85083" lon="4.78749">
        <ele>336</ele>
        <time>2020-11-13T09:14:37.000Z</time>
      </trkpt>
      <trkpt lat="49.85081" lon="4.78753">
        <ele>336</ele>
        <time>2020-11-13T09:14:38.000Z</time>
      </trkpt>
      <trkpt lat="49.85079" lon="4.78756">
        <ele>336</ele>
        <time>2020-11-13T09:14:39.000Z</time>
      </trkpt>
      <trkpt lat="49.85076" lon="4.7876">
        <ele>336</ele>
        <time>2020-11-13T09:14:40.000Z</time>
      </trkpt>
      <trkpt lat="49.85074" lon="4.78763">
        <ele>336</ele>
        <time>2020-11-13T09:14:41.000Z</time>
      </trkpt>
      <trkpt lat="49.85072" lon="4.78767">
        <ele>336</ele>
        <time>2020-11-13T09:14:42.000Z</time>
      </trkpt>
      <trkpt lat="49.8507" lon="4.78771">
        <ele>336</ele>
        <time>2020-11-13T09:14:43.000Z</time>
      </trkpt>
      <trkpt lat="49.85068" lon="4.78775">
        <ele>336</ele>
        <time>2020-11-13T09:14:44.000Z</time>
      </trkpt>
      <trkpt lat="49.85066" lon="4.7878">
        <ele>336</ele>
        <time>2020-11-13T09:14:45.000Z</time>
      </trkpt>
      <trkpt lat="49.85064" lon="4.78785">
        <ele>336</ele>
        <time>2020-11-13T09:14:46.000Z</time>
      </trkpt>
      <trkpt lat="49.85062" lon="4.7879">
        <ele>336</ele>
        <time>2020-11-13T09:14:47.000Z</time>
      </trkpt>
      <trkpt lat="49.8506" lon="4.78795">
        <ele>336</ele>
        <time>2020-11-13T09:14:48.000Z</time>
      </trkpt>
      <trkpt lat="49.85058" lon="4.788">
        <ele>336</ele>
        <time>2020-11-13T09:14:49.000Z</time>
      </trkpt>
      <trkpt lat="49.85055" lon="4.78805">
        <ele>336</ele>
        <time>2020-11-13T09:14:50.000Z</time>
      </trkpt>
      <trkpt lat="49.85053" lon="4.7881">
        <ele>336</ele>
        <time>2020-11-13T09:14:51.000Z</time>
      </trkpt>
      <trkpt lat="49.8505" lon="4.78815">
        <ele>337</ele>
        <time>2020-11-13T09:14:52.000Z</time>
      </trkpt>
      <trkpt lat="49.85047" lon="4.78819">
        <ele>337</ele>
        <time>2020-11-13T09:14:53.000Z</time>
      </trkpt>
      <trkpt lat="49.85044" lon="4.78824">
        <ele>337</ele>
        <time>2020-11-13T09:14:54.000Z</time>
      </trkpt>
      <trkpt lat="49.85041" lon="4.78828">
        <ele>337</ele>
        <time>2020-11-13T09:14:55.000Z</time>
      </trkpt>
      <trkpt lat="49.85038" lon="4.78832">
        <ele>337</ele>
        <time>2020-11-13T09:14:56.000Z</time>
      </trkpt>
      <trkpt lat="49.85035" lon="4.78835">
        <ele>337</ele>
        <time>2020-11-13T09:14:57.000Z</time>
      </trkpt>
      <trkpt lat="49.85033" lon="4.78838">
        <ele>337</ele>
        <time>2020-11-13T09:14:58.000Z</time>
      </trkpt>
      <trkpt lat="49.8503" lon="4.78841">
        <ele>337</ele>
        <time>2020-11-13T09:14:59.000Z</time>
      </trkpt>
      <trkpt lat="49.85027" lon="4.78844">
        <ele>337</ele>
        <time>2020-11-13T09:15:00.000Z</time>
      </trkpt>
      <trkpt lat="49.85024" lon="4.78847">
        <ele>337</ele>
        <time>2020-11-13T09:15:01.000Z</time>
      </trkpt>
      <trkpt lat="49.85022" lon="4.78849">
        <ele>337</ele>
        <time>2020-11-13T09:15:02.000Z</time>
      </trkpt>
      <trkpt lat="49.85019" lon="4.78853">
        <ele>337</ele>
        <time>2020-11-13T09:15:03.000Z</time>
      </trkpt>
      <trkpt lat="49.85017" lon="4.78858">
        <ele>337</ele>
        <time>2020-11-13T09:15:04.000Z</time>
      </trkpt>
      <trkpt lat="49.85014" lon="4.78861">
        <ele>338</ele>
        <time>2020-11-13T09:15:05.000Z</time>
      </trkpt>
      <trkpt lat="49.85011" lon="4.78866">
        <ele>338</ele>
        <time>2020-11-13T09:15:06.000Z</time>
      </trkpt>
      <trkpt lat="49.85008" lon="4.7887">
        <ele>338</ele>
        <time>2020-11-13T09:15:07.000Z</time>
      </trkpt>
      <trkpt lat="49.85006" lon="4.78874">
        <ele>338</ele>
        <time>2020-11-13T09:15:08.000Z</time>
      </trkpt>
      <trkpt lat="49.85003" lon="4.78878">
        <ele>338</ele>
        <time>2020-11-13T09:15:09.000Z</time>
      </trkpt>
      <trkpt lat="49.84999" lon="4.78882">
        <ele>338</ele>
        <time>2020-11-13T09:15:10.000Z</time>
      </trkpt>
      <trkpt lat="49.84996" lon="4.78885">
        <ele>338</ele>
        <time>2020-11-13T09:15:11.000Z</time>
      </trkpt>
      <trkpt lat="49.84993" lon="4.78888">
        <ele>338</ele>
        <time>2020-11-13T09:15:12.000Z</time>
      </trkpt>
      <trkpt lat="49.84991" lon="4.7889">
        <ele>338</ele>
        <time>2020-11-13T09:15:13.000Z</time>
      </trkpt>
      <trkpt lat="49.84989" lon="4.78893">
        <ele>338</ele>
        <time>2020-11-13T09:15:14.000Z</time>
      </trkpt>
      <trkpt lat="49.84987" lon="4.78896">
        <ele>338</ele>
        <time>2020-11-13T09:15:15.000Z</time>
      </trkpt>
      <trkpt lat="49.84985" lon="4.78898">
        <ele>339</ele>
        <time>2020-11-13T09:15:16.000Z</time>
      </trkpt>
      <trkpt lat="49.84983" lon="4.78901">
        <ele>339</ele>
        <time>2020-11-13T09:15:17.000Z</time>
      </trkpt>
      <trkpt lat="49.84981" lon="4.78903">
        <ele>339</ele>
        <time>2020-11-13T09:15:18.000Z</time>
      </trkpt>
      <trkpt lat="49.84979" lon="4.78906">
        <ele>339</ele>
        <time>2020-11-13T09:15:19.000Z</time>
      </trkpt>
      <trkpt lat="49.84977" lon="4.78909">
        <ele>339</ele>
        <time>2020-11-13T09:15:20.000Z</time>
      </trkpt>
      <trkpt lat="49.84975" lon="4.78911">
        <ele>339</ele>
        <time>2020-11-13T09:15:21.000Z</time>
      </trkpt>
      <trkpt lat="49.84974" lon="4.78914">
        <ele>339</ele>
        <time>2020-11-13T09:15:22.000Z</time>
      </trkpt>
      <trkpt lat="49.84972" lon="4.78915">
        <ele>339</ele>
        <time>2020-11-13T09:15:23.000Z</time>
      </trkpt>
      <trkpt lat="49.84971" lon="4.78918">
        <ele>339</ele>
        <time>2020-11-13T09:15:24.000Z</time>
      </trkpt>
      <trkpt lat="49.84969" lon="4.7892">
        <ele>340</ele>
        <time>2020-11-13T09:15:25.000Z</time>
      </trkpt>
      <trkpt lat="49.84967" lon="4.78923">
        <ele>340</ele>
        <time>2020-11-13T09:15:26.000Z</time>
      </trkpt>
      <trkpt lat="49.84966" lon="4.78926">
        <ele>340</ele>
        <time>2020-11-13T09:15:27.000Z</time>
      </trkpt>
      <trkpt lat="49.84964" lon="4.78929">
        <ele>340</ele>
        <time>2020-11-13T09:15:28.000Z</time>
      </trkpt>
      <trkpt lat="49.84963" lon="4.78932">
        <ele>340</ele>
        <time>2020-11-13T09:15:29.000Z</time>
      </trkpt>
      <trkpt lat="49.84961" lon="4.78934">
        <ele>341</ele>
        <time>2020-11-13T09:15:30.000Z</time>
      </trkpt>
      <trkpt lat="49.8496" lon="4.78937">
        <ele>341</ele>
        <time>2020-11-13T09:15:31.000Z</time>
      </trkpt>
      <trkpt lat="49.84958" lon="4.7894">
        <ele>341</ele>
        <time>2020-11-13T09:15:32.000Z</time>
      </trkpt>
      <trkpt lat="49.84956" lon="4.78943">
        <ele>341</ele>
        <time>2020-11-13T09:15:33.000Z</time>
      </trkpt>
      <trkpt lat="49.84955" lon="4.78946">
        <ele>341</ele>
        <time>2020-11-13T09:15:34.000Z</time>
      </trkpt>
      <trkpt lat="49.84953" lon="4.7895">
        <ele>341</ele>
        <time>2020-11-13T09:15:35.000Z</time>
      </trkpt>
      <trkpt lat="49.84952" lon="4.78953">
        <ele>341</ele>
        <time>2020-11-13T09:15:36.000Z</time>
      </trkpt>
      <trkpt lat="49.8495" lon="4.78957">
        <ele>341</ele>
        <time>2020-11-13T09:15:37.000Z</time>
      </trkpt>
      <trkpt lat="49.84949" lon="4.7896">
        <ele>342</ele>
        <time>2020-11-13T09:15:38.000Z</time>
      </trkpt>
      <trkpt lat="49.84948" lon="4.78962">
        <ele>342</ele>
        <time>2020-11-13T09:15:39.000Z</time>
      </trkpt>
      <trkpt lat="49.84948" lon="4.78965">
        <ele>342</ele>
        <time>2020-11-13T09:15:40.000Z</time>
      </trkpt>
      <trkpt lat="49.84947" lon="4.78967">
        <ele>342</ele>
        <time>2020-11-13T09:15:41.000Z</time>
      </trkpt>
      <trkpt lat="49.84946" lon="4.7897">
        <ele>342</ele>
        <time>2020-11-13T09:15:42.000Z</time>
      </trkpt>
      <trkpt lat="49.84944" lon="4.78974">
        <ele>342</ele>
        <time>2020-11-13T09:15:43.000Z</time>
      </trkpt>
      <trkpt lat="49.84942" lon="4.78977">
        <ele>342</ele>
        <time>2020-11-13T09:15:44.000Z</time>
      </trkpt>
      <trkpt lat="49.8494" lon="4.7898">
        <ele>342</ele>
        <time>2020-11-13T09:15:45.000Z</time>
      </trkpt>
      <trkpt lat="49.84938" lon="4.78982">
        <ele>342</ele>
        <time>2020-11-13T09:15:46.000Z</time>
      </trkpt>
      <trkpt lat="49.84936" lon="4.78984">
        <ele>342</ele>
        <time>2020-11-13T09:15:47.000Z</time>
      </trkpt>
      <trkpt lat="49.84934" lon="4.78986">
        <ele>342</ele>
        <time>2020-11-13T09:15:48.000Z</time>
      </trkpt>
      <trkpt lat="49.84932" lon="4.78988">
        <ele>342</ele>
        <time>2020-11-13T09:15:49.000Z</time>
      </trkpt>
      <trkpt lat="49.8493" lon="4.7899">
        <ele>342</ele>
        <time>2020-11-13T09:15:50.000Z</time>
      </trkpt>
      <trkpt lat="49.84928" lon="4.78993">
        <ele>342</ele>
        <time>2020-11-13T09:15:51.000Z</time>
      </trkpt>
      <trkpt lat="49.84926" lon="4.78996">
        <ele>342</ele>
        <time>2020-11-13T09:15:52.000Z</time>
      </trkpt>
      <trkpt lat="49.84924" lon="4.78999">
        <ele>342</ele>
        <time>2020-11-13T09:15:53.000Z</time>
      </trkpt>
      <trkpt lat="49.84922" lon="4.79003">
        <ele>342</ele>
        <time>2020-11-13T09:15:54.000Z</time>
      </trkpt>
      <trkpt lat="49.8492" lon="4.79005">
        <ele>342</ele>
        <time>2020-11-13T09:15:55.000Z</time>
      </trkpt>
      <trkpt lat="49.84919" lon="4.79008">
        <ele>342</ele>
        <time>2020-11-13T09:15:56.000Z</time>
      </trkpt>
      <trkpt lat="49.84917" lon="4.79011">
        <ele>343</ele>
        <time>2020-11-13T09:15:57.000Z</time>
      </trkpt>
      <trkpt lat="49.84916" lon="4.79015">
        <ele>343</ele>
        <time>2020-11-13T09:15:58.000Z</time>
      </trkpt>
      <trkpt lat="49.84916" lon="4.79018">
        <ele>343</ele>
        <time>2020-11-13T09:15:59.000Z</time>
      </trkpt>
      <trkpt lat="49.84915" lon="4.79021">
        <ele>343</ele>
        <time>2020-11-13T09:16:00.000Z</time>
      </trkpt>
      <trkpt lat="49.84914" lon="4.79025">
        <ele>343</ele>
        <time>2020-11-13T09:16:01.000Z</time>
      </trkpt>
      <trkpt lat="49.84914" lon="4.79029">
        <ele>343</ele>
        <time>2020-11-13T09:16:02.000Z</time>
      </trkpt>
      <trkpt lat="49.84913" lon="4.79032">
        <ele>343</ele>
        <time>2020-11-13T09:16:03.000Z</time>
      </trkpt>
      <trkpt lat="49.84913" lon="4.79036">
        <ele>343</ele>
        <time>2020-11-13T09:16:04.000Z</time>
      </trkpt>
      <trkpt lat="49.84912" lon="4.7904">
        <ele>343</ele>
        <time>2020-11-13T09:16:05.000Z</time>
      </trkpt>
      <trkpt lat="49.84911" lon="4.79043">
        <ele>343</ele>
        <time>2020-11-13T09:16:06.000Z</time>
      </trkpt>
      <trkpt lat="49.8491" lon="4.79047">
        <ele>343</ele>
        <time>2020-11-13T09:16:07.000Z</time>
      </trkpt>
      <trkpt lat="49.84909" lon="4.7905">
        <ele>344</ele>
        <time>2020-11-13T09:16:08.000Z</time>
      </trkpt>
      <trkpt lat="49.84908" lon="4.79053">
        <ele>344</ele>
        <time>2020-11-13T09:16:09.000Z</time>
      </trkpt>
      <trkpt lat="49.84907" lon="4.79055">
        <ele>344</ele>
        <time>2020-11-13T09:16:10.000Z</time>
      </trkpt>
      <trkpt lat="49.84906" lon="4.79058">
        <ele>344</ele>
        <time>2020-11-13T09:16:11.000Z</time>
      </trkpt>
      <trkpt lat="49.84904" lon="4.7906">
        <ele>344</ele>
        <time>2020-11-13T09:16:12.000Z</time>
      </trkpt>
      <trkpt lat="49.84903" lon="4.79063">
        <ele>344</ele>
        <time>2020-11-13T09:16:13.000Z</time>
      </trkpt>
      <trkpt lat="49.84902" lon="4.79065">
        <ele>344</ele>
        <time>2020-11-13T09:16:14.000Z</time>
      </trkpt>
      <trkpt lat="49.84901" lon="4.79068">
        <ele>344</ele>
        <time>2020-11-13T09:16:15.000Z</time>
      </trkpt>
      <trkpt lat="49.849" lon="4.79071">
        <ele>344</ele>
        <time>2020-11-13T09:16:16.000Z</time>
      </trkpt>
      <trkpt lat="49.849" lon="4.79074">
        <ele>344</ele>
        <time>2020-11-13T09:16:17.000Z</time>
      </trkpt>
      <trkpt lat="49.849" lon="4.79077">
        <ele>344</ele>
        <time>2020-11-13T09:16:18.000Z</time>
      </trkpt>
      <trkpt lat="49.849" lon="4.7908">
        <ele>344</ele>
        <time>2020-11-13T09:16:19.000Z</time>
      </trkpt>
      <trkpt lat="49.849" lon="4.79082">
        <ele>345</ele>
        <time>2020-11-13T09:16:20.000Z</time>
      </trkpt>
      <trkpt lat="49.849" lon="4.79085">
        <ele>345</ele>
        <time>2020-11-13T09:16:21.000Z</time>
      </trkpt>
      <trkpt lat="49.849" lon="4.79086">
        <ele>345</ele>
        <time>2020-11-13T09:16:22.000Z</time>
      </trkpt>
      <trkpt lat="49.849" lon="4.79087">
        <ele>345</ele>
        <time>2020-11-13T09:16:23.000Z</time>
      </trkpt>
      <trkpt lat="49.84901" lon="4.79087">
        <ele>345</ele>
        <time>2020-11-13T09:16:24.000Z</time>
      </trkpt>
      <trkpt lat="49.84901" lon="4.79087">
        <ele>345</ele>
        <time>2020-11-13T09:16:25.000Z</time>
      </trkpt>
      <trkpt lat="49.84902" lon="4.79088">
        <ele>346</ele>
        <time>2020-11-13T09:16:26.000Z</time>
      </trkpt>
      <trkpt lat="49.84903" lon="4.79089">
        <ele>346</ele>
        <time>2020-11-13T09:16:27.000Z</time>
      </trkpt>
      <trkpt lat="49.84904" lon="4.7909">
        <ele>346</ele>
        <time>2020-11-13T09:16:28.000Z</time>
      </trkpt>
      <trkpt lat="49.84905" lon="4.7909">
        <ele>346</ele>
        <time>2020-11-13T09:16:29.000Z</time>
      </trkpt>
      <trkpt lat="49.84906" lon="4.79091">
        <ele>346</ele>
        <time>2020-11-13T09:16:30.000Z</time>
      </trkpt>
      <trkpt lat="49.84906" lon="4.79092">
        <ele>346</ele>
        <time>2020-11-13T09:16:31.000Z</time>
      </trkpt>
      <trkpt lat="49.84907" lon="4.79093">
        <ele>346</ele>
        <time>2020-11-13T09:16:32.000Z</time>
      </trkpt>
      <trkpt lat="49.84907" lon="4.79095">
        <ele>346</ele>
        <time>2020-11-13T09:16:33.000Z</time>
      </trkpt>
      <trkpt lat="49.84907" lon="4.79095">
        <ele>346</ele>
        <time>2020-11-13T09:16:34.000Z</time>
      </trkpt>
      <trkpt lat="49.84908" lon="4.79096">
        <ele>346</ele>
        <time>2020-11-13T09:16:35.000Z</time>
      </trkpt>
      <trkpt lat="49.84908" lon="4.79096">
        <ele>346</ele>
        <time>2020-11-13T09:16:36.000Z</time>
      </trkpt>
      <trkpt lat="49.84908" lon="4.79096">
        <ele>346</ele>
        <time>2020-11-13T09:16:37.000Z</time>
      </trkpt>
      <trkpt lat="49.84908" lon="4.79097">
        <ele>346</ele>
        <time>2020-11-13T09:16:38.000Z</time>
      </trkpt>
      <trkpt lat="49.84908" lon="4.79098">
        <ele>346</ele>
        <time>2020-11-13T09:16:39.000Z</time>
      </trkpt>
      <trkpt lat="49.84908" lon="4.791">
        <ele>346</ele>
        <time>2020-11-13T09:16:40.000Z</time>
      </trkpt>
      <trkpt lat="49.84907" lon="4.79102">
        <ele>346</ele>
        <time>2020-11-13T09:16:41.000Z</time>
      </trkpt>
      <trkpt lat="49.84907" lon="4.79104">
        <ele>347</ele>
        <time>2020-11-13T09:16:42.000Z</time>
      </trkpt>
      <trkpt lat="49.84907" lon="4.79107">
        <ele>347</ele>
        <time>2020-11-13T09:16:43.000Z</time>
      </trkpt>
      <trkpt lat="49.84906" lon="4.7911">
        <ele>347</ele>
        <time>2020-11-13T09:16:44.000Z</time>
      </trkpt>
      <trkpt lat="49.84905" lon="4.79114">
        <ele>347</ele>
        <time>2020-11-13T09:16:45.000Z</time>
      </trkpt>
      <trkpt lat="49.84905" lon="4.79119">
        <ele>347</ele>
        <time>2020-11-13T09:16:46.000Z</time>
      </trkpt>
      <trkpt lat="49.84904" lon="4.79123">
        <ele>347</ele>
        <time>2020-11-13T09:16:47.000Z</time>
      </trkpt>
      <trkpt lat="49.84904" lon="4.79127">
        <ele>347</ele>
        <time>2020-11-13T09:16:48.000Z</time>
      </trkpt>
      <trkpt lat="49.84904" lon="4.7913">
        <ele>347</ele>
        <time>2020-11-13T09:16:49.000Z</time>
      </trkpt>
      <trkpt lat="49.84903" lon="4.79134">
        <ele>347</ele>
        <time>2020-11-13T09:16:50.000Z</time>
      </trkpt>
      <trkpt lat="49.84903" lon="4.79138">
        <ele>347</ele>
        <time>2020-11-13T09:16:51.000Z</time>
      </trkpt>
      <trkpt lat="49.84902" lon="4.79141">
        <ele>347</ele>
        <time>2020-11-13T09:16:52.000Z</time>
      </trkpt>
      <trkpt lat="49.84902" lon="4.79145">
        <ele>347</ele>
        <time>2020-11-13T09:16:53.000Z</time>
      </trkpt>
      <trkpt lat="49.84901" lon="4.79148">
        <ele>347</ele>
        <time>2020-11-13T09:16:54.000Z</time>
      </trkpt>
      <trkpt lat="49.849" lon="4.79152">
        <ele>347</ele>
        <time>2020-11-13T09:16:55.000Z</time>
      </trkpt>
      <trkpt lat="49.849" lon="4.79156">
        <ele>347</ele>
        <time>2020-11-13T09:16:56.000Z</time>
      </trkpt>
      <trkpt lat="49.84899" lon="4.79161">
        <ele>347</ele>
        <time>2020-11-13T09:16:57.000Z</time>
      </trkpt>
      <trkpt lat="49.84899" lon="4.79166">
        <ele>347</ele>
        <time>2020-11-13T09:16:58.000Z</time>
      </trkpt>
      <trkpt lat="49.84898" lon="4.79171">
        <ele>347</ele>
        <time>2020-11-13T09:16:59.000Z</time>
      </trkpt>
      <trkpt lat="49.84898" lon="4.79176">
        <ele>347</ele>
        <time>2020-11-13T09:17:00.000Z</time>
      </trkpt>
      <trkpt lat="49.84897" lon="4.79181">
        <ele>347</ele>
        <time>2020-11-13T09:17:01.000Z</time>
      </trkpt>
      <trkpt lat="49.84896" lon="4.79185">
        <ele>347</ele>
        <time>2020-11-13T09:17:02.000Z</time>
      </trkpt>
      <trkpt lat="49.84896" lon="4.7919">
        <ele>347</ele>
        <time>2020-11-13T09:17:03.000Z</time>
      </trkpt>
      <trkpt lat="49.84895" lon="4.79194">
        <ele>347</ele>
        <time>2020-11-13T09:17:04.000Z</time>
      </trkpt>
      <trkpt lat="49.84894" lon="4.79198">
        <ele>347</ele>
        <time>2020-11-13T09:17:05.000Z</time>
      </trkpt>
      <trkpt lat="49.84894" lon="4.79202">
        <ele>347</ele>
        <time>2020-11-13T09:17:06.000Z</time>
      </trkpt>
      <trkpt lat="49.84895" lon="4.79207">
        <ele>347</ele>
        <time>2020-11-13T09:17:07.000Z</time>
      </trkpt>
      <trkpt lat="49.84895" lon="4.79212">
        <ele>347</ele>
        <time>2020-11-13T09:17:08.000Z</time>
      </trkpt>
      <trkpt lat="49.84895" lon="4.79217">
        <ele>347</ele>
        <time>2020-11-13T09:17:09.000Z</time>
      </trkpt>
      <trkpt lat="49.84894" lon="4.79222">
        <ele>347</ele>
        <time>2020-11-13T09:17:10.000Z</time>
      </trkpt>
      <trkpt lat="49.84893" lon="4.79226">
        <ele>347</ele>
        <time>2020-11-13T09:17:11.000Z</time>
      </trkpt>
      <trkpt lat="49.84892" lon="4.79232">
        <ele>347</ele>
        <time>2020-11-13T09:17:12.000Z</time>
      </trkpt>
      <trkpt lat="49.84891" lon="4.79237">
        <ele>347</ele>
        <time>2020-11-13T09:17:13.000Z</time>
      </trkpt>
      <trkpt lat="49.8489" lon="4.79243">
        <ele>347</ele>
        <time>2020-11-13T09:17:14.000Z</time>
      </trkpt>
      <trkpt lat="49.84889" lon="4.79249">
        <ele>347</ele>
        <time>2020-11-13T09:17:15.000Z</time>
      </trkpt>
      <trkpt lat="49.84888" lon="4.79255">
        <ele>347</ele>
        <time>2020-11-13T09:17:16.000Z</time>
      </trkpt>
      <trkpt lat="49.84887" lon="4.79261">
        <ele>347</ele>
        <time>2020-11-13T09:17:17.000Z</time>
      </trkpt>
      <trkpt lat="49.84886" lon="4.79267">
        <ele>348</ele>
        <time>2020-11-13T09:17:18.000Z</time>
      </trkpt>
      <trkpt lat="49.84885" lon="4.79273">
        <ele>348</ele>
        <time>2020-11-13T09:17:19.000Z</time>
      </trkpt>
      <trkpt lat="49.84885" lon="4.79279">
        <ele>348</ele>
        <time>2020-11-13T09:17:20.000Z</time>
      </trkpt>
      <trkpt lat="49.84884" lon="4.79285">
        <ele>348</ele>
        <time>2020-11-13T09:17:21.000Z</time>
      </trkpt>
      <trkpt lat="49.84884" lon="4.79291">
        <ele>348</ele>
        <time>2020-11-13T09:17:22.000Z</time>
      </trkpt>
      <trkpt lat="49.84883" lon="4.79297">
        <ele>348</ele>
        <time>2020-11-13T09:17:23.000Z</time>
      </trkpt>
      <trkpt lat="49.84882" lon="4.79302">
        <ele>348</ele>
        <time>2020-11-13T09:17:24.000Z</time>
      </trkpt>
      <trkpt lat="49.84881" lon="4.79309">
        <ele>348</ele>
        <time>2020-11-13T09:17:25.000Z</time>
      </trkpt>
      <trkpt lat="49.8488" lon="4.79315">
        <ele>348</ele>
        <time>2020-11-13T09:17:26.000Z</time>
      </trkpt>
      <trkpt lat="49.8488" lon="4.79321">
        <ele>348</ele>
        <time>2020-11-13T09:17:27.000Z</time>
      </trkpt>
      <trkpt lat="49.84879" lon="4.79328">
        <ele>348</ele>
        <time>2020-11-13T09:17:28.000Z</time>
      </trkpt>
      <trkpt lat="49.84878" lon="4.79335">
        <ele>348</ele>
        <time>2020-11-13T09:17:29.000Z</time>
      </trkpt>
      <trkpt lat="49.84878" lon="4.79341">
        <ele>348</ele>
        <time>2020-11-13T09:17:30.000Z</time>
      </trkpt>
      <trkpt lat="49.84878" lon="4.79348">
        <ele>348</ele>
        <time>2020-11-13T09:17:31.000Z</time>
      </trkpt>
      <trkpt lat="49.84879" lon="4.79354">
        <ele>348</ele>
        <time>2020-11-13T09:17:32.000Z</time>
      </trkpt>
      <trkpt lat="49.84879" lon="4.7936">
        <ele>348</ele>
        <time>2020-11-13T09:17:33.000Z</time>
      </trkpt>
      <trkpt lat="49.84878" lon="4.79366">
        <ele>348</ele>
        <time>2020-11-13T09:17:34.000Z</time>
      </trkpt>
      <trkpt lat="49.84876" lon="4.79372">
        <ele>348</ele>
        <time>2020-11-13T09:17:35.000Z</time>
      </trkpt>
      <trkpt lat="49.84874" lon="4.79377">
        <ele>348</ele>
        <time>2020-11-13T09:17:36.000Z</time>
      </trkpt>
      <trkpt lat="49.84872" lon="4.79381">
        <ele>348</ele>
        <time>2020-11-13T09:17:37.000Z</time>
      </trkpt>
      <trkpt lat="49.84871" lon="4.79386">
        <ele>348</ele>
        <time>2020-11-13T09:17:38.000Z</time>
      </trkpt>
      <trkpt lat="49.84869" lon="4.79391">
        <ele>348</ele>
        <time>2020-11-13T09:17:39.000Z</time>
      </trkpt>
      <trkpt lat="49.84867" lon="4.79395">
        <ele>348</ele>
        <time>2020-11-13T09:17:40.000Z</time>
      </trkpt>
      <trkpt lat="49.84866" lon="4.794">
        <ele>348</ele>
        <time>2020-11-13T09:17:41.000Z</time>
      </trkpt>
      <trkpt lat="49.84865" lon="4.79405">
        <ele>348</ele>
        <time>2020-11-13T09:17:42.000Z</time>
      </trkpt>
      <trkpt lat="49.84864" lon="4.79409">
        <ele>348</ele>
        <time>2020-11-13T09:17:43.000Z</time>
      </trkpt>
      <trkpt lat="49.84863" lon="4.79413">
        <ele>349</ele>
        <time>2020-11-13T09:17:44.000Z</time>
      </trkpt>
      <trkpt lat="49.84862" lon="4.79416">
        <ele>349</ele>
        <time>2020-11-13T09:17:45.000Z</time>
      </trkpt>
      <trkpt lat="49.84861" lon="4.7942">
        <ele>349</ele>
        <time>2020-11-13T09:17:46.000Z</time>
      </trkpt>
      <trkpt lat="49.84859" lon="4.79424">
        <ele>349</ele>
        <time>2020-11-13T09:17:47.000Z</time>
      </trkpt>
      <trkpt lat="49.84858" lon="4.79428">
        <ele>349</ele>
        <time>2020-11-13T09:17:48.000Z</time>
      </trkpt>
      <trkpt lat="49.84857" lon="4.79433">
        <ele>349</ele>
        <time>2020-11-13T09:17:49.000Z</time>
      </trkpt>
      <trkpt lat="49.84855" lon="4.79437">
        <ele>349</ele>
        <time>2020-11-13T09:17:50.000Z</time>
      </trkpt>
      <trkpt lat="49.84854" lon="4.79441">
        <ele>349</ele>
        <time>2020-11-13T09:17:51.000Z</time>
      </trkpt>
      <trkpt lat="49.84853" lon="4.79445">
        <ele>349</ele>
        <time>2020-11-13T09:17:52.000Z</time>
      </trkpt>
      <trkpt lat="49.84851" lon="4.7945">
        <ele>350</ele>
        <time>2020-11-13T09:17:53.000Z</time>
      </trkpt>
      <trkpt lat="49.8485" lon="4.79454">
        <ele>350</ele>
        <time>2020-11-13T09:17:54.000Z</time>
      </trkpt>
      <trkpt lat="49.84848" lon="4.79458">
        <ele>350</ele>
        <time>2020-11-13T09:17:55.000Z</time>
      </trkpt>
      <trkpt lat="49.84847" lon="4.79462">
        <ele>350</ele>
        <time>2020-11-13T09:17:56.000Z</time>
      </trkpt>
      <trkpt lat="49.84846" lon="4.79467">
        <ele>350</ele>
        <time>2020-11-13T09:17:57.000Z</time>
      </trkpt>
      <trkpt lat="49.84844" lon="4.79471">
        <ele>351</ele>
        <time>2020-11-13T09:17:58.000Z</time>
      </trkpt>
      <trkpt lat="49.84843" lon="4.79474">
        <ele>351</ele>
        <time>2020-11-13T09:17:59.000Z</time>
      </trkpt>
      <trkpt lat="49.84842" lon="4.79478">
        <ele>351</ele>
        <time>2020-11-13T09:18:00.000Z</time>
      </trkpt>
      <trkpt lat="49.8484" lon="4.79482">
        <ele>351</ele>
        <time>2020-11-13T09:18:01.000Z</time>
      </trkpt>
      <trkpt lat="49.84838" lon="4.79486">
        <ele>351</ele>
        <time>2020-11-13T09:18:02.000Z</time>
      </trkpt>
      <trkpt lat="49.84836" lon="4.7949">
        <ele>352</ele>
        <time>2020-11-13T09:18:03.000Z</time>
      </trkpt>
      <trkpt lat="49.84835" lon="4.79494">
        <ele>352</ele>
        <time>2020-11-13T09:18:04.000Z</time>
      </trkpt>
      <trkpt lat="49.84833" lon="4.79496">
        <ele>352</ele>
        <time>2020-11-13T09:18:05.000Z</time>
      </trkpt>
      <trkpt lat="49.84833" lon="4.79498">
        <ele>352</ele>
        <time>2020-11-13T09:18:06.000Z</time>
      </trkpt>
      <trkpt lat="49.84831" lon="4.79501">
        <ele>352</ele>
        <time>2020-11-13T09:18:07.000Z</time>
      </trkpt>
      <trkpt lat="49.8483" lon="4.79503">
        <ele>352</ele>
        <time>2020-11-13T09:18:08.000Z</time>
      </trkpt>
      <trkpt lat="49.84829" lon="4.79506">
        <ele>352</ele>
        <time>2020-11-13T09:18:09.000Z</time>
      </trkpt>
      <trkpt lat="49.84828" lon="4.79508">
        <ele>352</ele>
        <time>2020-11-13T09:18:10.000Z</time>
      </trkpt>
      <trkpt lat="49.84827" lon="4.7951">
        <ele>352</ele>
        <time>2020-11-13T09:18:11.000Z</time>
      </trkpt>
      <trkpt lat="49.84825" lon="4.79513">
        <ele>353</ele>
        <time>2020-11-13T09:18:12.000Z</time>
      </trkpt>
      <trkpt lat="49.84824" lon="4.79516">
        <ele>353</ele>
        <time>2020-11-13T09:18:13.000Z</time>
      </trkpt>
      <trkpt lat="49.84823" lon="4.79519">
        <ele>353</ele>
        <time>2020-11-13T09:18:14.000Z</time>
      </trkpt>
      <trkpt lat="49.84822" lon="4.79522">
        <ele>353</ele>
        <time>2020-11-13T09:18:15.000Z</time>
      </trkpt>
      <trkpt lat="49.8482" lon="4.79525">
        <ele>353</ele>
        <time>2020-11-13T09:18:16.000Z</time>
      </trkpt>
      <trkpt lat="49.84819" lon="4.79528">
        <ele>354</ele>
        <time>2020-11-13T09:18:17.000Z</time>
      </trkpt>
      <trkpt lat="49.84818" lon="4.79532">
        <ele>354</ele>
        <time>2020-11-13T09:18:18.000Z</time>
      </trkpt>
      <trkpt lat="49.84817" lon="4.79534">
        <ele>354</ele>
        <time>2020-11-13T09:18:19.000Z</time>
      </trkpt>
      <trkpt lat="49.84815" lon="4.79537">
        <ele>354</ele>
        <time>2020-11-13T09:18:20.000Z</time>
      </trkpt>
      <trkpt lat="49.84814" lon="4.7954">
        <ele>355</ele>
        <time>2020-11-13T09:18:21.000Z</time>
      </trkpt>
      <trkpt lat="49.84812" lon="4.79543">
        <ele>355</ele>
        <time>2020-11-13T09:18:22.000Z</time>
      </trkpt>
      <trkpt lat="49.84811" lon="4.79545">
        <ele>355</ele>
        <time>2020-11-13T09:18:23.000Z</time>
      </trkpt>
      <trkpt lat="49.8481" lon="4.79548">
        <ele>355</ele>
        <time>2020-11-13T09:18:24.000Z</time>
      </trkpt>
      <trkpt lat="49.84809" lon="4.7955">
        <ele>356</ele>
        <time>2020-11-13T09:18:25.000Z</time>
      </trkpt>
      <trkpt lat="49.84808" lon="4.79553">
        <ele>356</ele>
        <time>2020-11-13T09:18:26.000Z</time>
      </trkpt>
      <trkpt lat="49.84807" lon="4.79556">
        <ele>356</ele>
        <time>2020-11-13T09:18:27.000Z</time>
      </trkpt>
      <trkpt lat="49.84806" lon="4.79559">
        <ele>356</ele>
        <time>2020-11-13T09:18:28.000Z</time>
      </trkpt>
      <trkpt lat="49.84805" lon="4.79562">
        <ele>357</ele>
        <time>2020-11-13T09:18:29.000Z</time>
      </trkpt>
      <trkpt lat="49.84805" lon="4.79565">
        <ele>357</ele>
        <time>2020-11-13T09:18:30.000Z</time>
      </trkpt>
      <trkpt lat="49.84804" lon="4.79568">
        <ele>357</ele>
        <time>2020-11-13T09:18:31.000Z</time>
      </trkpt>
      <trkpt lat="49.84803" lon="4.79571">
        <ele>357</ele>
        <time>2020-11-13T09:18:32.000Z</time>
      </trkpt>
      <trkpt lat="49.84802" lon="4.79574">
        <ele>357</ele>
        <time>2020-11-13T09:18:33.000Z</time>
      </trkpt>
      <trkpt lat="49.84802" lon="4.79577">
        <ele>358</ele>
        <time>2020-11-13T09:18:34.000Z</time>
      </trkpt>
      <trkpt lat="49.84802" lon="4.7958">
        <ele>358</ele>
        <time>2020-11-13T09:18:35.000Z</time>
      </trkpt>
      <trkpt lat="49.84802" lon="4.79582">
        <ele>358</ele>
        <time>2020-11-13T09:18:36.000Z</time>
      </trkpt>
      <trkpt lat="49.84802" lon="4.79585">
        <ele>358</ele>
        <time>2020-11-13T09:18:37.000Z</time>
      </trkpt>
      <trkpt lat="49.84803" lon="4.79589">
        <ele>359</ele>
        <time>2020-11-13T09:18:38.000Z</time>
      </trkpt>
      <trkpt lat="49.84804" lon="4.79593">
        <ele>359</ele>
        <time>2020-11-13T09:18:39.000Z</time>
      </trkpt>
      <trkpt lat="49.84804" lon="4.79596">
        <ele>359</ele>
        <time>2020-11-13T09:18:40.000Z</time>
      </trkpt>
      <trkpt lat="49.84804" lon="4.796">
        <ele>359</ele>
        <time>2020-11-13T09:18:41.000Z</time>
      </trkpt>
      <trkpt lat="49.84804" lon="4.79604">
        <ele>359</ele>
        <time>2020-11-13T09:18:42.000Z</time>
      </trkpt>
      <trkpt lat="49.84804" lon="4.79607">
        <ele>359</ele>
        <time>2020-11-13T09:18:43.000Z</time>
      </trkpt>
      <trkpt lat="49.84804" lon="4.79611">
        <ele>359</ele>
        <time>2020-11-13T09:18:44.000Z</time>
      </trkpt>
      <trkpt lat="49.84803" lon="4.79615">
        <ele>360</ele>
        <time>2020-11-13T09:18:45.000Z</time>
      </trkpt>
      <trkpt lat="49.84803" lon="4.79619">
        <ele>360</ele>
        <time>2020-11-13T09:18:46.000Z</time>
      </trkpt>
      <trkpt lat="49.84803" lon="4.79622">
        <ele>360</ele>
        <time>2020-11-13T09:18:47.000Z</time>
      </trkpt>
      <trkpt lat="49.84803" lon="4.79626">
        <ele>360</ele>
        <time>2020-11-13T09:18:48.000Z</time>
      </trkpt>
      <trkpt lat="49.84804" lon="4.79629">
        <ele>360</ele>
        <time>2020-11-13T09:18:49.000Z</time>
      </trkpt>
      <trkpt lat="49.84804" lon="4.79632">
        <ele>360</ele>
        <time>2020-11-13T09:18:50.000Z</time>
      </trkpt>
      <trkpt lat="49.84805" lon="4.79635">
        <ele>360</ele>
        <time>2020-11-13T09:18:51.000Z</time>
      </trkpt>
      <trkpt lat="49.84806" lon="4.79639">
        <ele>360</ele>
        <time>2020-11-13T09:18:52.000Z</time>
      </trkpt>
      <trkpt lat="49.84807" lon="4.79642">
        <ele>360</ele>
        <time>2020-11-13T09:18:53.000Z</time>
      </trkpt>
      <trkpt lat="49.84807" lon="4.79646">
        <ele>360</ele>
        <time>2020-11-13T09:18:54.000Z</time>
      </trkpt>
      <trkpt lat="49.84807" lon="4.7965">
        <ele>361</ele>
        <time>2020-11-13T09:18:55.000Z</time>
      </trkpt>
      <trkpt lat="49.84807" lon="4.79654">
        <ele>361</ele>
        <time>2020-11-13T09:18:56.000Z</time>
      </trkpt>
      <trkpt lat="49.84808" lon="4.79657">
        <ele>361</ele>
        <time>2020-11-13T09:18:57.000Z</time>
      </trkpt>
      <trkpt lat="49.84808" lon="4.79661">
        <ele>361</ele>
        <time>2020-11-13T09:18:58.000Z</time>
      </trkpt>
      <trkpt lat="49.84808" lon="4.79665">
        <ele>361</ele>
        <time>2020-11-13T09:18:59.000Z</time>
      </trkpt>
      <trkpt lat="49.84807" lon="4.79668">
        <ele>361</ele>
        <time>2020-11-13T09:19:00.000Z</time>
      </trkpt>
      <trkpt lat="49.84807" lon="4.79671">
        <ele>361</ele>
        <time>2020-11-13T09:19:01.000Z</time>
      </trkpt>
      <trkpt lat="49.84807" lon="4.79674">
        <ele>361</ele>
        <time>2020-11-13T09:19:02.000Z</time>
      </trkpt>
      <trkpt lat="49.84807" lon="4.79677">
        <ele>362</ele>
        <time>2020-11-13T09:19:03.000Z</time>
      </trkpt>
      <trkpt lat="49.84807" lon="4.7968">
        <ele>362</ele>
        <time>2020-11-13T09:19:04.000Z</time>
      </trkpt>
      <trkpt lat="49.84807" lon="4.79683">
        <ele>362</ele>
        <time>2020-11-13T09:19:05.000Z</time>
      </trkpt>
      <trkpt lat="49.84808" lon="4.79686">
        <ele>362</ele>
        <time>2020-11-13T09:19:06.000Z</time>
      </trkpt>
      <trkpt lat="49.84808" lon="4.79689">
        <ele>362</ele>
        <time>2020-11-13T09:19:07.000Z</time>
      </trkpt>
      <trkpt lat="49.84808" lon="4.79693">
        <ele>362</ele>
        <time>2020-11-13T09:19:08.000Z</time>
      </trkpt>
      <trkpt lat="49.84808" lon="4.79696">
        <ele>362</ele>
        <time>2020-11-13T09:19:09.000Z</time>
      </trkpt>
      <trkpt lat="49.84808" lon="4.797">
        <ele>362</ele>
        <time>2020-11-13T09:19:10.000Z</time>
      </trkpt>
      <trkpt lat="49.84808" lon="4.79703">
        <ele>363</ele>
        <time>2020-11-13T09:19:11.000Z</time>
      </trkpt>
      <trkpt lat="49.84808" lon="4.79707">
        <ele>363</ele>
        <time>2020-11-13T09:19:12.000Z</time>
      </trkpt>
      <trkpt lat="49.84808" lon="4.79711">
        <ele>363</ele>
        <time>2020-11-13T09:19:13.000Z</time>
      </trkpt>
      <trkpt lat="49.84809" lon="4.79715">
        <ele>363</ele>
        <time>2020-11-13T09:19:14.000Z</time>
      </trkpt>
      <trkpt lat="49.84808" lon="4.79718">
        <ele>363</ele>
        <time>2020-11-13T09:19:15.000Z</time>
      </trkpt>
      <trkpt lat="49.84808" lon="4.79722">
        <ele>363</ele>
        <time>2020-11-13T09:19:16.000Z</time>
      </trkpt>
      <trkpt lat="49.84808" lon="4.79725">
        <ele>363</ele>
        <time>2020-11-13T09:19:17.000Z</time>
      </trkpt>
      <trkpt lat="49.84809" lon="4.79729">
        <ele>363</ele>
        <time>2020-11-13T09:19:18.000Z</time>
      </trkpt>
      <trkpt lat="49.84809" lon="4.79733">
        <ele>364</ele>
        <time>2020-11-13T09:19:19.000Z</time>
      </trkpt>
      <trkpt lat="49.8481" lon="4.79736">
        <ele>364</ele>
        <time>2020-11-13T09:19:20.000Z</time>
      </trkpt>
      <trkpt lat="49.8481" lon="4.7974">
        <ele>364</ele>
        <time>2020-11-13T09:19:21.000Z</time>
      </trkpt>
      <trkpt lat="49.8481" lon="4.79744">
        <ele>364</ele>
        <time>2020-11-13T09:19:22.000Z</time>
      </trkpt>
      <trkpt lat="49.8481" lon="4.79747">
        <ele>364</ele>
        <time>2020-11-13T09:19:23.000Z</time>
      </trkpt>
      <trkpt lat="49.84811" lon="4.79751">
        <ele>364</ele>
        <time>2020-11-13T09:19:24.000Z</time>
      </trkpt>
      <trkpt lat="49.84811" lon="4.79754">
        <ele>364</ele>
        <time>2020-11-13T09:19:25.000Z</time>
      </trkpt>
      <trkpt lat="49.84811" lon="4.79758">
        <ele>364</ele>
        <time>2020-11-13T09:19:26.000Z</time>
      </trkpt>
      <trkpt lat="49.84811" lon="4.7976">
        <ele>364</ele>
        <time>2020-11-13T09:19:27.000Z</time>
      </trkpt>
      <trkpt lat="49.84811" lon="4.79763">
        <ele>364</ele>
        <time>2020-11-13T09:19:28.000Z</time>
      </trkpt>
      <trkpt lat="49.84811" lon="4.79766">
        <ele>364</ele>
        <time>2020-11-13T09:19:29.000Z</time>
      </trkpt>
      <trkpt lat="49.84811" lon="4.7977">
        <ele>364</ele>
        <time>2020-11-13T09:19:30.000Z</time>
      </trkpt>
      <trkpt lat="49.84812" lon="4.79773">
        <ele>364</ele>
        <time>2020-11-13T09:19:31.000Z</time>
      </trkpt>
      <trkpt lat="49.84812" lon="4.79776">
        <ele>364</ele>
        <time>2020-11-13T09:19:32.000Z</time>
      </trkpt>
      <trkpt lat="49.84812" lon="4.7978">
        <ele>365</ele>
        <time>2020-11-13T09:19:33.000Z</time>
      </trkpt>
      <trkpt lat="49.84813" lon="4.79783">
        <ele>365</ele>
        <time>2020-11-13T09:19:34.000Z</time>
      </trkpt>
      <trkpt lat="49.84814" lon="4.79787">
        <ele>365</ele>
        <time>2020-11-13T09:19:35.000Z</time>
      </trkpt>
      <trkpt lat="49.84815" lon="4.7979">
        <ele>365</ele>
        <time>2020-11-13T09:19:36.000Z</time>
      </trkpt>
      <trkpt lat="49.84815" lon="4.79793">
        <ele>365</ele>
        <time>2020-11-13T09:19:37.000Z</time>
      </trkpt>
      <trkpt lat="49.84816" lon="4.79796">
        <ele>365</ele>
        <time>2020-11-13T09:19:38.000Z</time>
      </trkpt>
      <trkpt lat="49.84817" lon="4.79799">
        <ele>365</ele>
        <time>2020-11-13T09:19:39.000Z</time>
      </trkpt>
      <trkpt lat="49.84818" lon="4.79803">
        <ele>365</ele>
        <time>2020-11-13T09:19:40.000Z</time>
      </trkpt>
      <trkpt lat="49.84819" lon="4.79806">
        <ele>365</ele>
        <time>2020-11-13T09:19:41.000Z</time>
      </trkpt>
      <trkpt lat="49.84819" lon="4.7981">
        <ele>365</ele>
        <time>2020-11-13T09:19:42.000Z</time>
      </trkpt>
      <trkpt lat="49.84819" lon="4.79814">
        <ele>365</ele>
        <time>2020-11-13T09:19:43.000Z</time>
      </trkpt>
      <trkpt lat="49.8482" lon="4.79817">
        <ele>366</ele>
        <time>2020-11-13T09:19:44.000Z</time>
      </trkpt>
      <trkpt lat="49.8482" lon="4.7982">
        <ele>366</ele>
        <time>2020-11-13T09:19:45.000Z</time>
      </trkpt>
      <trkpt lat="49.8482" lon="4.79823">
        <ele>366</ele>
        <time>2020-11-13T09:19:46.000Z</time>
      </trkpt>
      <trkpt lat="49.84821" lon="4.79827">
        <ele>366</ele>
        <time>2020-11-13T09:19:47.000Z</time>
      </trkpt>
      <trkpt lat="49.84822" lon="4.7983">
        <ele>366</ele>
        <time>2020-11-13T09:19:48.000Z</time>
      </trkpt>
      <trkpt lat="49.84822" lon="4.79833">
        <ele>366</ele>
        <time>2020-11-13T09:19:49.000Z</time>
      </trkpt>
      <trkpt lat="49.84822" lon="4.79837">
        <ele>366</ele>
        <time>2020-11-13T09:19:50.000Z</time>
      </trkpt>
      <trkpt lat="49.84823" lon="4.7984">
        <ele>366</ele>
        <time>2020-11-13T09:19:51.000Z</time>
      </trkpt>
      <trkpt lat="49.84824" lon="4.79843">
        <ele>366</ele>
        <time>2020-11-13T09:19:52.000Z</time>
      </trkpt>
      <trkpt lat="49.84826" lon="4.79847">
        <ele>366</ele>
        <time>2020-11-13T09:19:53.000Z</time>
      </trkpt>
      <trkpt lat="49.84827" lon="4.7985">
        <ele>366</ele>
        <time>2020-11-13T09:19:54.000Z</time>
      </trkpt>
      <trkpt lat="49.84828" lon="4.79854">
        <ele>367</ele>
        <time>2020-11-13T09:19:55.000Z</time>
      </trkpt>
      <trkpt lat="49.84829" lon="4.79858">
        <ele>367</ele>
        <time>2020-11-13T09:19:56.000Z</time>
      </trkpt>
      <trkpt lat="49.8483" lon="4.79861">
        <ele>367</ele>
        <time>2020-11-13T09:19:57.000Z</time>
      </trkpt>
      <trkpt lat="49.84831" lon="4.79865">
        <ele>367</ele>
        <time>2020-11-13T09:19:58.000Z</time>
      </trkpt>
      <trkpt lat="49.84831" lon="4.7987">
        <ele>367</ele>
        <time>2020-11-13T09:19:59.000Z</time>
      </trkpt>
      <trkpt lat="49.84832" lon="4.79874">
        <ele>367</ele>
        <time>2020-11-13T09:20:00.000Z</time>
      </trkpt>
      <trkpt lat="49.84833" lon="4.79878">
        <ele>367</ele>
        <time>2020-11-13T09:20:01.000Z</time>
      </trkpt>
      <trkpt lat="49.84834" lon="4.79881">
        <ele>367</ele>
        <time>2020-11-13T09:20:02.000Z</time>
      </trkpt>
      <trkpt lat="49.84834" lon="4.79884">
        <ele>367</ele>
        <time>2020-11-13T09:20:03.000Z</time>
      </trkpt>
      <trkpt lat="49.84834" lon="4.79888">
        <ele>367</ele>
        <time>2020-11-13T09:20:04.000Z</time>
      </trkpt>
      <trkpt lat="49.84833" lon="4.79892">
        <ele>368</ele>
        <time>2020-11-13T09:20:05.000Z</time>
      </trkpt>
      <trkpt lat="49.84833" lon="4.79896">
        <ele>368</ele>
        <time>2020-11-13T09:20:06.000Z</time>
      </trkpt>
      <trkpt lat="49.84833" lon="4.79899">
        <ele>368</ele>
        <time>2020-11-13T09:20:07.000Z</time>
      </trkpt>
      <trkpt lat="49.84833" lon="4.79903">
        <ele>368</ele>
        <time>2020-11-13T09:20:08.000Z</time>
      </trkpt>
      <trkpt lat="49.84832" lon="4.79907">
        <ele>368</ele>
        <time>2020-11-13T09:20:09.000Z</time>
      </trkpt>
      <trkpt lat="49.84832" lon="4.79911">
        <ele>368</ele>
        <time>2020-11-13T09:20:10.000Z</time>
      </trkpt>
      <trkpt lat="49.84832" lon="4.79915">
        <ele>368</ele>
        <time>2020-11-13T09:20:11.000Z</time>
      </trkpt>
      <trkpt lat="49.84831" lon="4.79919">
        <ele>368</ele>
        <time>2020-11-13T09:20:12.000Z</time>
      </trkpt>
      <trkpt lat="49.84831" lon="4.79923">
        <ele>368</ele>
        <time>2020-11-13T09:20:13.000Z</time>
      </trkpt>
      <trkpt lat="49.84831" lon="4.79927">
        <ele>369</ele>
        <time>2020-11-13T09:20:14.000Z</time>
      </trkpt>
      <trkpt lat="49.8483" lon="4.7993">
        <ele>369</ele>
        <time>2020-11-13T09:20:15.000Z</time>
      </trkpt>
      <trkpt lat="49.84829" lon="4.79934">
        <ele>369</ele>
        <time>2020-11-13T09:20:16.000Z</time>
      </trkpt>
      <trkpt lat="49.84829" lon="4.79938">
        <ele>369</ele>
        <time>2020-11-13T09:20:17.000Z</time>
      </trkpt>
      <trkpt lat="49.84828" lon="4.79942">
        <ele>370</ele>
        <time>2020-11-13T09:20:18.000Z</time>
      </trkpt>
      <trkpt lat="49.84827" lon="4.79946">
        <ele>370</ele>
        <time>2020-11-13T09:20:19.000Z</time>
      </trkpt>
      <trkpt lat="49.84827" lon="4.7995">
        <ele>371</ele>
        <time>2020-11-13T09:20:20.000Z</time>
      </trkpt>
      <trkpt lat="49.84826" lon="4.79954">
        <ele>371</ele>
        <time>2020-11-13T09:20:21.000Z</time>
      </trkpt>
      <trkpt lat="49.84826" lon="4.79957">
        <ele>371</ele>
        <time>2020-11-13T09:20:22.000Z</time>
      </trkpt>
      <trkpt lat="49.84826" lon="4.79961">
        <ele>372</ele>
        <time>2020-11-13T09:20:23.000Z</time>
      </trkpt>
      <trkpt lat="49.84826" lon="4.79964">
        <ele>372</ele>
        <time>2020-11-13T09:20:24.000Z</time>
      </trkpt>
      <trkpt lat="49.84826" lon="4.79968">
        <ele>372</ele>
        <time>2020-11-13T09:20:25.000Z</time>
      </trkpt>
      <trkpt lat="49.84825" lon="4.79972">
        <ele>372</ele>
        <time>2020-11-13T09:20:26.000Z</time>
      </trkpt>
      <trkpt lat="49.84825" lon="4.79976">
        <ele>372</ele>
        <time>2020-11-13T09:20:27.000Z</time>
      </trkpt>
      <trkpt lat="49.84824" lon="4.7998">
        <ele>373</ele>
        <time>2020-11-13T09:20:28.000Z</time>
      </trkpt>
      <trkpt lat="49.84823" lon="4.79984">
        <ele>373</ele>
        <time>2020-11-13T09:20:29.000Z</time>
      </trkpt>
      <trkpt lat="49.84822" lon="4.79988">
        <ele>373</ele>
        <time>2020-11-13T09:20:30.000Z</time>
      </trkpt>
      <trkpt lat="49.84821" lon="4.79991">
        <ele>374</ele>
        <time>2020-11-13T09:20:31.000Z</time>
      </trkpt>
      <trkpt lat="49.84821" lon="4.79996">
        <ele>374</ele>
        <time>2020-11-13T09:20:32.000Z</time>
      </trkpt>
      <trkpt lat="49.8482" lon="4.8">
        <ele>374</ele>
        <time>2020-11-13T09:20:33.000Z</time>
      </trkpt>
      <trkpt lat="49.84819" lon="4.80004">
        <ele>375</ele>
        <time>2020-11-13T09:20:34.000Z</time>
      </trkpt>
      <trkpt lat="49.84818" lon="4.80008">
        <ele>375</ele>
        <time>2020-11-13T09:20:35.000Z</time>
      </trkpt>
      <trkpt lat="49.84817" lon="4.80011">
        <ele>375</ele>
        <time>2020-11-13T09:20:36.000Z</time>
      </trkpt>
      <trkpt lat="49.84815" lon="4.80014">
        <ele>375</ele>
        <time>2020-11-13T09:20:37.000Z</time>
      </trkpt>
      <trkpt lat="49.84814" lon="4.80018">
        <ele>375</ele>
        <time>2020-11-13T09:20:38.000Z</time>
      </trkpt>
      <trkpt lat="49.84813" lon="4.80021">
        <ele>376</ele>
        <time>2020-11-13T09:20:39.000Z</time>
      </trkpt>
      <trkpt lat="49.84811" lon="4.80024">
        <ele>376</ele>
        <time>2020-11-13T09:20:40.000Z</time>
      </trkpt>
      <trkpt lat="49.8481" lon="4.80028">
        <ele>376</ele>
        <time>2020-11-13T09:20:41.000Z</time>
      </trkpt>
      <trkpt lat="49.84809" lon="4.80031">
        <ele>377</ele>
        <time>2020-11-13T09:20:42.000Z</time>
      </trkpt>
      <trkpt lat="49.84808" lon="4.80035">
        <ele>377</ele>
        <time>2020-11-13T09:20:43.000Z</time>
      </trkpt>
      <trkpt lat="49.84806" lon="4.80037">
        <ele>377</ele>
        <time>2020-11-13T09:20:44.000Z</time>
      </trkpt>
      <trkpt lat="49.84805" lon="4.8004">
        <ele>378</ele>
        <time>2020-11-13T09:20:45.000Z</time>
      </trkpt>
      <trkpt lat="49.84804" lon="4.80043">
        <ele>378</ele>
        <time>2020-11-13T09:20:46.000Z</time>
      </trkpt>
      <trkpt lat="49.84802" lon="4.80046">
        <ele>378</ele>
        <time>2020-11-13T09:20:47.000Z</time>
      </trkpt>
      <trkpt lat="49.84801" lon="4.80049">
        <ele>379</ele>
        <time>2020-11-13T09:20:48.000Z</time>
      </trkpt>
      <trkpt lat="49.848" lon="4.80052">
        <ele>379</ele>
        <time>2020-11-13T09:20:49.000Z</time>
      </trkpt>
      <trkpt lat="49.84799" lon="4.80055">
        <ele>380</ele>
        <time>2020-11-13T09:20:50.000Z</time>
      </trkpt>
      <trkpt lat="49.84797" lon="4.80059">
        <ele>380</ele>
        <time>2020-11-13T09:20:51.000Z</time>
      </trkpt>
      <trkpt lat="49.84796" lon="4.80063">
        <ele>380</ele>
        <time>2020-11-13T09:20:52.000Z</time>
      </trkpt>
      <trkpt lat="49.84795" lon="4.80066">
        <ele>381</ele>
        <time>2020-11-13T09:20:53.000Z</time>
      </trkpt>
      <trkpt lat="49.84794" lon="4.8007">
        <ele>381</ele>
        <time>2020-11-13T09:20:54.000Z</time>
      </trkpt>
      <trkpt lat="49.84793" lon="4.80074">
        <ele>381</ele>
        <time>2020-11-13T09:20:55.000Z</time>
      </trkpt>
      <trkpt lat="49.84792" lon="4.80078">
        <ele>381</ele>
        <time>2020-11-13T09:20:56.000Z</time>
      </trkpt>
      <trkpt lat="49.84791" lon="4.80082">
        <ele>381</ele>
        <time>2020-11-13T09:20:57.000Z</time>
      </trkpt>
      <trkpt lat="49.8479" lon="4.80086">
        <ele>382</ele>
        <time>2020-11-13T09:20:58.000Z</time>
      </trkpt>
      <trkpt lat="49.84789" lon="4.8009">
        <ele>382</ele>
        <time>2020-11-13T09:20:59.000Z</time>
      </trkpt>
      <trkpt lat="49.84788" lon="4.80094">
        <ele>382</ele>
        <time>2020-11-13T09:21:00.000Z</time>
      </trkpt>
      <trkpt lat="49.84787" lon="4.80099">
        <ele>382</ele>
        <time>2020-11-13T09:21:01.000Z</time>
      </trkpt>
      <trkpt lat="49.84787" lon="4.80102">
        <ele>382</ele>
        <time>2020-11-13T09:21:02.000Z</time>
      </trkpt>
      <trkpt lat="49.84786" lon="4.80106">
        <ele>383</ele>
        <time>2020-11-13T09:21:03.000Z</time>
      </trkpt>
      <trkpt lat="49.84785" lon="4.8011">
        <ele>383</ele>
        <time>2020-11-13T09:21:04.000Z</time>
      </trkpt>
      <trkpt lat="49.84784" lon="4.80114">
        <ele>383</ele>
        <time>2020-11-13T09:21:05.000Z</time>
      </trkpt>
      <trkpt lat="49.84783" lon="4.80118">
        <ele>383</ele>
        <time>2020-11-13T09:21:06.000Z</time>
      </trkpt>
      <trkpt lat="49.84783" lon="4.80121">
        <ele>383</ele>
        <time>2020-11-13T09:21:07.000Z</time>
      </trkpt>
      <trkpt lat="49.84782" lon="4.80124">
        <ele>383</ele>
        <time>2020-11-13T09:21:08.000Z</time>
      </trkpt>
      <trkpt lat="49.84782" lon="4.80127">
        <ele>384</ele>
        <time>2020-11-13T09:21:09.000Z</time>
      </trkpt>
      <trkpt lat="49.84781" lon="4.8013">
        <ele>384</ele>
        <time>2020-11-13T09:21:10.000Z</time>
      </trkpt>
      <trkpt lat="49.84781" lon="4.80133">
        <ele>384</ele>
        <time>2020-11-13T09:21:11.000Z</time>
      </trkpt>
      <trkpt lat="49.8478" lon="4.80137">
        <ele>384</ele>
        <time>2020-11-13T09:21:12.000Z</time>
      </trkpt>
      <trkpt lat="49.8478" lon="4.80141">
        <ele>384</ele>
        <time>2020-11-13T09:21:13.000Z</time>
      </trkpt>
      <trkpt lat="49.84779" lon="4.80145">
        <ele>385</ele>
        <time>2020-11-13T09:21:14.000Z</time>
      </trkpt>
      <trkpt lat="49.84778" lon="4.80149">
        <ele>385</ele>
        <time>2020-11-13T09:21:15.000Z</time>
      </trkpt>
      <trkpt lat="49.84778" lon="4.80153">
        <ele>385</ele>
        <time>2020-11-13T09:21:16.000Z</time>
      </trkpt>
      <trkpt lat="49.84778" lon="4.80157">
        <ele>385</ele>
        <time>2020-11-13T09:21:17.000Z</time>
      </trkpt>
      <trkpt lat="49.84777" lon="4.80161">
        <ele>385</ele>
        <time>2020-11-13T09:21:18.000Z</time>
      </trkpt>
      <trkpt lat="49.84776" lon="4.80165">
        <ele>386</ele>
        <time>2020-11-13T09:21:19.000Z</time>
      </trkpt>
      <trkpt lat="49.84776" lon="4.80168">
        <ele>386</ele>
        <time>2020-11-13T09:21:20.000Z</time>
      </trkpt>
      <trkpt lat="49.84775" lon="4.80172">
        <ele>386</ele>
        <time>2020-11-13T09:21:21.000Z</time>
      </trkpt>
      <trkpt lat="49.84774" lon="4.80176">
        <ele>386</ele>
        <time>2020-11-13T09:21:22.000Z</time>
      </trkpt>
      <trkpt lat="49.84774" lon="4.8018">
        <ele>386</ele>
        <time>2020-11-13T09:21:23.000Z</time>
      </trkpt>
      <trkpt lat="49.84773" lon="4.80184">
        <ele>387</ele>
        <time>2020-11-13T09:21:24.000Z</time>
      </trkpt>
      <trkpt lat="49.84771" lon="4.80187">
        <ele>387</ele>
        <time>2020-11-13T09:21:25.000Z</time>
      </trkpt>
      <trkpt lat="49.8477" lon="4.8019">
        <ele>387</ele>
        <time>2020-11-13T09:21:26.000Z</time>
      </trkpt>
      <trkpt lat="49.8477" lon="4.80192">
        <ele>387</ele>
        <time>2020-11-13T09:21:27.000Z</time>
      </trkpt>
      <trkpt lat="49.84769" lon="4.80194">
        <ele>387</ele>
        <time>2020-11-13T09:21:28.000Z</time>
      </trkpt>
      <trkpt lat="49.84769" lon="4.80197">
        <ele>387</ele>
        <time>2020-11-13T09:21:29.000Z</time>
      </trkpt>
      <trkpt lat="49.84769" lon="4.80201">
        <ele>387</ele>
        <time>2020-11-13T09:21:30.000Z</time>
      </trkpt>
      <trkpt lat="49.8477" lon="4.80204">
        <ele>387</ele>
        <time>2020-11-13T09:21:31.000Z</time>
      </trkpt>
      <trkpt lat="49.8477" lon="4.80208">
        <ele>388</ele>
        <time>2020-11-13T09:21:32.000Z</time>
      </trkpt>
      <trkpt lat="49.8477" lon="4.80213">
        <ele>388</ele>
        <time>2020-11-13T09:21:33.000Z</time>
      </trkpt>
      <trkpt lat="49.8477" lon="4.80217">
        <ele>388</ele>
        <time>2020-11-13T09:21:34.000Z</time>
      </trkpt>
      <trkpt lat="49.8477" lon="4.80221">
        <ele>388</ele>
        <time>2020-11-13T09:21:35.000Z</time>
      </trkpt>
      <trkpt lat="49.84769" lon="4.80225">
        <ele>388</ele>
        <time>2020-11-13T09:21:36.000Z</time>
      </trkpt>
      <trkpt lat="49.84769" lon="4.80228">
        <ele>388</ele>
        <time>2020-11-13T09:21:37.000Z</time>
      </trkpt>
      <trkpt lat="49.84769" lon="4.80232">
        <ele>388</ele>
        <time>2020-11-13T09:21:38.000Z</time>
      </trkpt>
      <trkpt lat="49.84769" lon="4.80234">
        <ele>388</ele>
        <time>2020-11-13T09:21:39.000Z</time>
      </trkpt>
      <trkpt lat="49.84769" lon="4.80237">
        <ele>388</ele>
        <time>2020-11-13T09:21:40.000Z</time>
      </trkpt>
      <trkpt lat="49.84769" lon="4.8024">
        <ele>388</ele>
        <time>2020-11-13T09:21:41.000Z</time>
      </trkpt>
      <trkpt lat="49.84768" lon="4.80243">
        <ele>388</ele>
        <time>2020-11-13T09:21:42.000Z</time>
      </trkpt>
      <trkpt lat="49.84767" lon="4.80247">
        <ele>388</ele>
        <time>2020-11-13T09:21:43.000Z</time>
      </trkpt>
      <trkpt lat="49.84766" lon="4.8025">
        <ele>388</ele>
        <time>2020-11-13T09:21:44.000Z</time>
      </trkpt>
      <trkpt lat="49.84765" lon="4.80254">
        <ele>388</ele>
        <time>2020-11-13T09:21:45.000Z</time>
      </trkpt>
      <trkpt lat="49.84764" lon="4.80257">
        <ele>388</ele>
        <time>2020-11-13T09:21:46.000Z</time>
      </trkpt>
      <trkpt lat="49.84764" lon="4.80261">
        <ele>388</ele>
        <time>2020-11-13T09:21:47.000Z</time>
      </trkpt>
      <trkpt lat="49.84763" lon="4.80264">
        <ele>388</ele>
        <time>2020-11-13T09:21:48.000Z</time>
      </trkpt>
      <trkpt lat="49.84763" lon="4.80267">
        <ele>388</ele>
        <time>2020-11-13T09:21:49.000Z</time>
      </trkpt>
      <trkpt lat="49.84763" lon="4.80271">
        <ele>388</ele>
        <time>2020-11-13T09:21:50.000Z</time>
      </trkpt>
      <trkpt lat="49.84762" lon="4.80275">
        <ele>388</ele>
        <time>2020-11-13T09:21:51.000Z</time>
      </trkpt>
      <trkpt lat="49.84761" lon="4.80279">
        <ele>389</ele>
        <time>2020-11-13T09:21:52.000Z</time>
      </trkpt>
      <trkpt lat="49.84761" lon="4.80282">
        <ele>389</ele>
        <time>2020-11-13T09:21:53.000Z</time>
      </trkpt>
      <trkpt lat="49.84761" lon="4.80285">
        <ele>389</ele>
        <time>2020-11-13T09:21:54.000Z</time>
      </trkpt>
      <trkpt lat="49.84761" lon="4.80288">
        <ele>389</ele>
        <time>2020-11-13T09:21:55.000Z</time>
      </trkpt>
      <trkpt lat="49.84761" lon="4.80291">
        <ele>389</ele>
        <time>2020-11-13T09:21:56.000Z</time>
      </trkpt>
      <trkpt lat="49.84761" lon="4.80295">
        <ele>389</ele>
        <time>2020-11-13T09:21:57.000Z</time>
      </trkpt>
      <trkpt lat="49.84761" lon="4.80298">
        <ele>390</ele>
        <time>2020-11-13T09:21:58.000Z</time>
      </trkpt>
      <trkpt lat="49.8476" lon="4.80302">
        <ele>390</ele>
        <time>2020-11-13T09:21:59.000Z</time>
      </trkpt>
      <trkpt lat="49.8476" lon="4.80306">
        <ele>390</ele>
        <time>2020-11-13T09:22:00.000Z</time>
      </trkpt>
      <trkpt lat="49.8476" lon="4.80311">
        <ele>390</ele>
        <time>2020-11-13T09:22:01.000Z</time>
      </trkpt>
      <trkpt lat="49.84759" lon="4.80315">
        <ele>390</ele>
        <time>2020-11-13T09:22:02.000Z</time>
      </trkpt>
      <trkpt lat="49.84758" lon="4.80319">
        <ele>390</ele>
        <time>2020-11-13T09:22:03.000Z</time>
      </trkpt>
      <trkpt lat="49.84757" lon="4.80323">
        <ele>390</ele>
        <time>2020-11-13T09:22:04.000Z</time>
      </trkpt>
      <trkpt lat="49.84757" lon="4.80327">
        <ele>390</ele>
        <time>2020-11-13T09:22:05.000Z</time>
      </trkpt>
      <trkpt lat="49.84756" lon="4.8033">
        <ele>390</ele>
        <time>2020-11-13T09:22:06.000Z</time>
      </trkpt>
      <trkpt lat="49.84756" lon="4.80335">
        <ele>390</ele>
        <time>2020-11-13T09:22:07.000Z</time>
      </trkpt>
      <trkpt lat="49.84756" lon="4.80339">
        <ele>390</ele>
        <time>2020-11-13T09:22:08.000Z</time>
      </trkpt>
      <trkpt lat="49.84756" lon="4.80343">
        <ele>390</ele>
        <time>2020-11-13T09:22:09.000Z</time>
      </trkpt>
      <trkpt lat="49.84756" lon="4.80346">
        <ele>390</ele>
        <time>2020-11-13T09:22:10.000Z</time>
      </trkpt>
      <trkpt lat="49.84756" lon="4.8035">
        <ele>390</ele>
        <time>2020-11-13T09:22:11.000Z</time>
      </trkpt>
      <trkpt lat="49.84756" lon="4.80354">
        <ele>390</ele>
        <time>2020-11-13T09:22:12.000Z</time>
      </trkpt>
      <trkpt lat="49.84755" lon="4.80358">
        <ele>390</ele>
        <time>2020-11-13T09:22:13.000Z</time>
      </trkpt>
      <trkpt lat="49.84754" lon="4.80363">
        <ele>390</ele>
        <time>2020-11-13T09:22:14.000Z</time>
      </trkpt>
      <trkpt lat="49.84754" lon="4.80368">
        <ele>390</ele>
        <time>2020-11-13T09:22:15.000Z</time>
      </trkpt>
      <trkpt lat="49.84754" lon="4.80373">
        <ele>390</ele>
        <time>2020-11-13T09:22:16.000Z</time>
      </trkpt>
      <trkpt lat="49.84754" lon="4.80378">
        <ele>390</ele>
        <time>2020-11-13T09:22:17.000Z</time>
      </trkpt>
      <trkpt lat="49.84754" lon="4.80383">
        <ele>390</ele>
        <time>2020-11-13T09:22:18.000Z</time>
      </trkpt>
      <trkpt lat="49.84754" lon="4.80389">
        <ele>390</ele>
        <time>2020-11-13T09:22:19.000Z</time>
      </trkpt>
      <trkpt lat="49.84754" lon="4.80393">
        <ele>391</ele>
        <time>2020-11-13T09:22:20.000Z</time>
      </trkpt>
      <trkpt lat="49.84755" lon="4.80398">
        <ele>391</ele>
        <time>2020-11-13T09:22:21.000Z</time>
      </trkpt>
      <trkpt lat="49.84755" lon="4.80403">
        <ele>391</ele>
        <time>2020-11-13T09:22:22.000Z</time>
      </trkpt>
      <trkpt lat="49.84756" lon="4.80409">
        <ele>391</ele>
        <time>2020-11-13T09:22:23.000Z</time>
      </trkpt>
      <trkpt lat="49.84756" lon="4.80414">
        <ele>391</ele>
        <time>2020-11-13T09:22:24.000Z</time>
      </trkpt>
      <trkpt lat="49.84756" lon="4.8042">
        <ele>391</ele>
        <time>2020-11-13T09:22:25.000Z</time>
      </trkpt>
      <trkpt lat="49.84756" lon="4.80425">
        <ele>391</ele>
        <time>2020-11-13T09:22:26.000Z</time>
      </trkpt>
      <trkpt lat="49.84756" lon="4.80431">
        <ele>390</ele>
        <time>2020-11-13T09:22:27.000Z</time>
      </trkpt>
      <trkpt lat="49.84756" lon="4.80437">
        <ele>390</ele>
        <time>2020-11-13T09:22:28.000Z</time>
      </trkpt>
      <trkpt lat="49.84757" lon="4.80443">
        <ele>390</ele>
        <time>2020-11-13T09:22:29.000Z</time>
      </trkpt>
      <trkpt lat="49.84758" lon="4.80448">
        <ele>390</ele>
        <time>2020-11-13T09:22:30.000Z</time>
      </trkpt>
      <trkpt lat="49.84758" lon="4.80454">
        <ele>390</ele>
        <time>2020-11-13T09:22:31.000Z</time>
      </trkpt>
      <trkpt lat="49.84759" lon="4.8046">
        <ele>390</ele>
        <time>2020-11-13T09:22:32.000Z</time>
      </trkpt>
      <trkpt lat="49.84759" lon="4.80465">
        <ele>390</ele>
        <time>2020-11-13T09:22:33.000Z</time>
      </trkpt>
      <trkpt lat="49.84759" lon="4.80471">
        <ele>390</ele>
        <time>2020-11-13T09:22:34.000Z</time>
      </trkpt>
      <trkpt lat="49.8476" lon="4.80477">
        <ele>390</ele>
        <time>2020-11-13T09:22:35.000Z</time>
      </trkpt>
      <trkpt lat="49.8476" lon="4.80483">
        <ele>390</ele>
        <time>2020-11-13T09:22:36.000Z</time>
      </trkpt>
      <trkpt lat="49.84761" lon="4.80489">
        <ele>390</ele>
        <time>2020-11-13T09:22:37.000Z</time>
      </trkpt>
      <trkpt lat="49.84761" lon="4.80495">
        <ele>390</ele>
        <time>2020-11-13T09:22:38.000Z</time>
      </trkpt>
      <trkpt lat="49.84762" lon="4.80501">
        <ele>390</ele>
        <time>2020-11-13T09:22:39.000Z</time>
      </trkpt>
      <trkpt lat="49.84763" lon="4.80506">
        <ele>390</ele>
        <time>2020-11-13T09:22:40.000Z</time>
      </trkpt>
      <trkpt lat="49.84763" lon="4.80511">
        <ele>390</ele>
        <time>2020-11-13T09:22:41.000Z</time>
      </trkpt>
      <trkpt lat="49.84764" lon="4.80515">
        <ele>390</ele>
        <time>2020-11-13T09:22:42.000Z</time>
      </trkpt>
      <trkpt lat="49.84765" lon="4.8052">
        <ele>390</ele>
        <time>2020-11-13T09:22:43.000Z</time>
      </trkpt>
      <trkpt lat="49.84765" lon="4.80524">
        <ele>390</ele>
        <time>2020-11-13T09:22:44.000Z</time>
      </trkpt>
      <trkpt lat="49.84765" lon="4.80529">
        <ele>390</ele>
        <time>2020-11-13T09:22:45.000Z</time>
      </trkpt>
      <trkpt lat="49.84765" lon="4.80533">
        <ele>390</ele>
        <time>2020-11-13T09:22:46.000Z</time>
      </trkpt>
      <trkpt lat="49.84764" lon="4.80536">
        <ele>390</ele>
        <time>2020-11-13T09:22:47.000Z</time>
      </trkpt>
      <trkpt lat="49.84762" lon="4.80538">
        <ele>390</ele>
        <time>2020-11-13T09:22:48.000Z</time>
      </trkpt>
      <trkpt lat="49.84761" lon="4.80539">
        <ele>390</ele>
        <time>2020-11-13T09:22:49.000Z</time>
      </trkpt>
      <trkpt lat="49.8476" lon="4.80541">
        <ele>390</ele>
        <time>2020-11-13T09:22:50.000Z</time>
      </trkpt>
      <trkpt lat="49.84758" lon="4.80542">
        <ele>390</ele>
        <time>2020-11-13T09:22:51.000Z</time>
      </trkpt>
      <trkpt lat="49.84756" lon="4.80544">
        <ele>390</ele>
        <time>2020-11-13T09:22:52.000Z</time>
      </trkpt>
      <trkpt lat="49.84755" lon="4.80546">
        <ele>390</ele>
        <time>2020-11-13T09:22:53.000Z</time>
      </trkpt>
      <trkpt lat="49.84755" lon="4.80549">
        <ele>389</ele>
        <time>2020-11-13T09:22:54.000Z</time>
      </trkpt>
      <trkpt lat="49.84754" lon="4.80552">
        <ele>389</ele>
        <time>2020-11-13T09:22:55.000Z</time>
      </trkpt>
      <trkpt lat="49.84754" lon="4.80554">
        <ele>389</ele>
        <time>2020-11-13T09:22:56.000Z</time>
      </trkpt>
      <trkpt lat="49.84753" lon="4.80555">
        <ele>389</ele>
        <time>2020-11-13T09:22:57.000Z</time>
      </trkpt>
      <trkpt lat="49.84753" lon="4.80556">
        <ele>389</ele>
        <time>2020-11-13T09:22:58.000Z</time>
      </trkpt>
      <trkpt lat="49.84752" lon="4.80557">
        <ele>389</ele>
        <time>2020-11-13T09:22:59.000Z</time>
      </trkpt>
      <trkpt lat="49.84751" lon="4.80558">
        <ele>389</ele>
        <time>2020-11-13T09:23:00.000Z</time>
      </trkpt>
      <trkpt lat="49.84751" lon="4.80559">
        <ele>389</ele>
        <time>2020-11-13T09:23:01.000Z</time>
      </trkpt>
      <trkpt lat="49.84751" lon="4.80561">
        <ele>389</ele>
        <time>2020-11-13T09:23:02.000Z</time>
      </trkpt>
      <trkpt lat="49.84752" lon="4.80562">
        <ele>389</ele>
        <time>2020-11-13T09:23:03.000Z</time>
      </trkpt>
      <trkpt lat="49.84752" lon="4.80562">
        <ele>389</ele>
        <time>2020-11-13T09:23:04.000Z</time>
      </trkpt>
      <trkpt lat="49.84753" lon="4.80563">
        <ele>388</ele>
        <time>2020-11-13T09:23:05.000Z</time>
      </trkpt>
      <trkpt lat="49.84753" lon="4.80564">
        <ele>388</ele>
        <time>2020-11-13T09:23:06.000Z</time>
      </trkpt>
      <trkpt lat="49.84754" lon="4.80566">
        <ele>388</ele>
        <time>2020-11-13T09:23:07.000Z</time>
      </trkpt>
      <trkpt lat="49.84755" lon="4.80568">
        <ele>388</ele>
        <time>2020-11-13T09:23:08.000Z</time>
      </trkpt>
      <trkpt lat="49.84755" lon="4.80571">
        <ele>388</ele>
        <time>2020-11-13T09:23:09.000Z</time>
      </trkpt>
      <trkpt lat="49.84755" lon="4.80572">
        <ele>387</ele>
        <time>2020-11-13T09:23:10.000Z</time>
      </trkpt>
      <trkpt lat="49.84755" lon="4.80572">
        <ele>387</ele>
        <time>2020-11-13T09:23:11.000Z</time>
      </trkpt>
      <trkpt lat="49.84755" lon="4.80572">
        <ele>387</ele>
        <time>2020-11-13T09:23:12.000Z</time>
      </trkpt>
      <trkpt lat="49.84755" lon="4.80572">
        <ele>387</ele>
        <time>2020-11-13T09:23:13.000Z</time>
      </trkpt>
      <trkpt lat="49.84756" lon="4.80573">
        <ele>387</ele>
        <time>2020-11-13T09:23:14.000Z</time>
      </trkpt>
      <trkpt lat="49.84756" lon="4.80573">
        <ele>387</ele>
        <time>2020-11-13T09:23:15.000Z</time>
      </trkpt>
      <trkpt lat="49.84756" lon="4.80573">
        <ele>387</ele>
        <time>2020-11-13T09:23:16.000Z</time>
      </trkpt>
      <trkpt lat="49.84756" lon="4.80573">
        <ele>387</ele>
        <time>2020-11-13T09:23:17.000Z</time>
      </trkpt>
      <trkpt lat="49.84756" lon="4.80573">
        <ele>387</ele>
        <time>2020-11-13T09:23:18.000Z</time>
      </trkpt>
      <trkpt lat="49.84756" lon="4.80573">
        <ele>386</ele>
        <time>2020-11-13T09:23:19.000Z</time>
      </trkpt>
      <trkpt lat="49.84756" lon="4.80573">
        <ele>386</ele>
        <time>2020-11-13T09:23:20.000Z</time>
      </trkpt>
      <trkpt lat="49.84756" lon="4.80574">
        <ele>386</ele>
        <time>2020-11-13T09:23:21.000Z</time>
      </trkpt>
      <trkpt lat="49.84756" lon="4.80574">
        <ele>386</ele>
        <time>2020-11-13T09:23:22.000Z</time>
      </trkpt>
      <trkpt lat="49.84755" lon="4.80577">
        <ele>386</ele>
        <time>2020-11-13T09:23:23.000Z</time>
      </trkpt>
      <trkpt lat="49.84755" lon="4.8058">
        <ele>386</ele>
        <time>2020-11-13T09:23:24.000Z</time>
      </trkpt>
      <trkpt lat="49.84755" lon="4.80584">
        <ele>386</ele>
        <time>2020-11-13T09:23:25.000Z</time>
      </trkpt>
      <trkpt lat="49.84755" lon="4.80588">
        <ele>386</ele>
        <time>2020-11-13T09:23:26.000Z</time>
      </trkpt>
      <trkpt lat="49.84755" lon="4.80594">
        <ele>386</ele>
        <time>2020-11-13T09:23:27.000Z</time>
      </trkpt>
      <trkpt lat="49.84756" lon="4.806">
        <ele>386</ele>
        <time>2020-11-13T09:23:28.000Z</time>
      </trkpt>
      <trkpt lat="49.84758" lon="4.80606">
        <ele>385</ele>
        <time>2020-11-13T09:23:29.000Z</time>
      </trkpt>
      <trkpt lat="49.8476" lon="4.80612">
        <ele>385</ele>
        <time>2020-11-13T09:23:30.000Z</time>
      </trkpt>
      <trkpt lat="49.84763" lon="4.80618">
        <ele>385</ele>
        <time>2020-11-13T09:23:31.000Z</time>
      </trkpt>
      <trkpt lat="49.84766" lon="4.80624">
        <ele>385</ele>
        <time>2020-11-13T09:23:32.000Z</time>
      </trkpt>
      <trkpt lat="49.8477" lon="4.80628">
        <ele>385</ele>
        <time>2020-11-13T09:23:33.000Z</time>
      </trkpt>
      <trkpt lat="49.84774" lon="4.80633">
        <ele>385</ele>
        <time>2020-11-13T09:23:34.000Z</time>
      </trkpt>
      <trkpt lat="49.84777" lon="4.80639">
        <ele>384</ele>
        <time>2020-11-13T09:23:35.000Z</time>
      </trkpt>
      <trkpt lat="49.8478" lon="4.80645">
        <ele>384</ele>
        <time>2020-11-13T09:23:36.000Z</time>
      </trkpt>
      <trkpt lat="49.84784" lon="4.80651">
        <ele>384</ele>
        <time>2020-11-13T09:23:37.000Z</time>
      </trkpt>
      <trkpt lat="49.84787" lon="4.80656">
        <ele>384</ele>
        <time>2020-11-13T09:23:38.000Z</time>
      </trkpt>
      <trkpt lat="49.84789" lon="4.80662">
        <ele>384</ele>
        <time>2020-11-13T09:23:39.000Z</time>
      </trkpt>
      <trkpt lat="49.84792" lon="4.80669">
        <ele>384</ele>
        <time>2020-11-13T09:23:40.000Z</time>
      </trkpt>
      <trkpt lat="49.84795" lon="4.80675">
        <ele>383</ele>
        <time>2020-11-13T09:23:41.000Z</time>
      </trkpt>
      <trkpt lat="49.84797" lon="4.80681">
        <ele>383</ele>
        <time>2020-11-13T09:23:42.000Z</time>
      </trkpt>
      <trkpt lat="49.848" lon="4.80687">
        <ele>383</ele>
        <time>2020-11-13T09:23:43.000Z</time>
      </trkpt>
      <trkpt lat="49.84803" lon="4.80692">
        <ele>383</ele>
        <time>2020-11-13T09:23:44.000Z</time>
      </trkpt>
      <trkpt lat="49.84807" lon="4.80697">
        <ele>383</ele>
        <time>2020-11-13T09:23:45.000Z</time>
      </trkpt>
      <trkpt lat="49.8481" lon="4.80701">
        <ele>383</ele>
        <time>2020-11-13T09:23:46.000Z</time>
      </trkpt>
      <trkpt lat="49.84813" lon="4.80705">
        <ele>383</ele>
        <time>2020-11-13T09:23:47.000Z</time>
      </trkpt>
      <trkpt lat="49.84816" lon="4.80708">
        <ele>383</ele>
        <time>2020-11-13T09:23:48.000Z</time>
      </trkpt>
      <trkpt lat="49.84818" lon="4.80711">
        <ele>383</ele>
        <time>2020-11-13T09:23:49.000Z</time>
      </trkpt>
      <trkpt lat="49.84819" lon="4.80715">
        <ele>383</ele>
        <time>2020-11-13T09:23:50.000Z</time>
      </trkpt>
      <trkpt lat="49.8482" lon="4.8072">
        <ele>383</ele>
        <time>2020-11-13T09:23:51.000Z</time>
      </trkpt>
      <trkpt lat="49.84822" lon="4.80725">
        <ele>383</ele>
        <time>2020-11-13T09:23:52.000Z</time>
      </trkpt>
      <trkpt lat="49.84823" lon="4.8073">
        <ele>383</ele>
        <time>2020-11-13T09:23:53.000Z</time>
      </trkpt>
      <trkpt lat="49.84825" lon="4.80735">
        <ele>383</ele>
        <time>2020-11-13T09:23:54.000Z</time>
      </trkpt>
      <trkpt lat="49.84827" lon="4.80739">
        <ele>383</ele>
        <time>2020-11-13T09:23:55.000Z</time>
      </trkpt>
      <trkpt lat="49.84829" lon="4.80744">
        <ele>383</ele>
        <time>2020-11-13T09:23:56.000Z</time>
      </trkpt>
      <trkpt lat="49.8483" lon="4.80749">
        <ele>383</ele>
        <time>2020-11-13T09:23:57.000Z</time>
      </trkpt>
      <trkpt lat="49.84833" lon="4.80755">
        <ele>383</ele>
        <time>2020-11-13T09:23:58.000Z</time>
      </trkpt>
      <trkpt lat="49.84835" lon="4.80761">
        <ele>383</ele>
        <time>2020-11-13T09:23:59.000Z</time>
      </trkpt>
      <trkpt lat="49.84839" lon="4.80766">
        <ele>383</ele>
        <time>2020-11-13T09:24:00.000Z</time>
      </trkpt>
      <trkpt lat="49.84842" lon="4.80772">
        <ele>383</ele>
        <time>2020-11-13T09:24:01.000Z</time>
      </trkpt>
      <trkpt lat="49.84845" lon="4.80777">
        <ele>383</ele>
        <time>2020-11-13T09:24:02.000Z</time>
      </trkpt>
      <trkpt lat="49.84848" lon="4.8078">
        <ele>383</ele>
        <time>2020-11-13T09:24:03.000Z</time>
      </trkpt>
      <trkpt lat="49.8485" lon="4.80784">
        <ele>383</ele>
        <time>2020-11-13T09:24:04.000Z</time>
      </trkpt>
      <trkpt lat="49.84852" lon="4.80787">
        <ele>383</ele>
        <time>2020-11-13T09:24:05.000Z</time>
      </trkpt>
      <trkpt lat="49.84855" lon="4.80791">
        <ele>383</ele>
        <time>2020-11-13T09:24:06.000Z</time>
      </trkpt>
      <trkpt lat="49.84859" lon="4.80794">
        <ele>383</ele>
        <time>2020-11-13T09:24:07.000Z</time>
      </trkpt>
      <trkpt lat="49.84864" lon="4.80797">
        <ele>383</ele>
        <time>2020-11-13T09:24:08.000Z</time>
      </trkpt>
      <trkpt lat="49.84868" lon="4.80799">
        <ele>383</ele>
        <time>2020-11-13T09:24:09.000Z</time>
      </trkpt>
      <trkpt lat="49.84873" lon="4.80801">
        <ele>383</ele>
        <time>2020-11-13T09:24:10.000Z</time>
      </trkpt>
      <trkpt lat="49.84878" lon="4.80802">
        <ele>383</ele>
        <time>2020-11-13T09:24:11.000Z</time>
      </trkpt>
      <trkpt lat="49.84883" lon="4.80805">
        <ele>383</ele>
        <time>2020-11-13T09:24:12.000Z</time>
      </trkpt>
      <trkpt lat="49.84888" lon="4.80809">
        <ele>383</ele>
        <time>2020-11-13T09:24:13.000Z</time>
      </trkpt>
      <trkpt lat="49.84892" lon="4.80814">
        <ele>383</ele>
        <time>2020-11-13T09:24:14.000Z</time>
      </trkpt>
      <trkpt lat="49.84896" lon="4.8082">
        <ele>383</ele>
        <time>2020-11-13T09:24:15.000Z</time>
      </trkpt>
      <trkpt lat="49.849" lon="4.80826">
        <ele>383</ele>
        <time>2020-11-13T09:24:16.000Z</time>
      </trkpt>
      <trkpt lat="49.84903" lon="4.80831">
        <ele>383</ele>
        <time>2020-11-13T09:24:17.000Z</time>
      </trkpt>
      <trkpt lat="49.84906" lon="4.80837">
        <ele>383</ele>
        <time>2020-11-13T09:24:18.000Z</time>
      </trkpt>
      <trkpt lat="49.84909" lon="4.80844">
        <ele>383</ele>
        <time>2020-11-13T09:24:19.000Z</time>
      </trkpt>
      <trkpt lat="49.84912" lon="4.80851">
        <ele>383</ele>
        <time>2020-11-13T09:24:20.000Z</time>
      </trkpt>
      <trkpt lat="49.84915" lon="4.80859">
        <ele>383</ele>
        <time>2020-11-13T09:24:21.000Z</time>
      </trkpt>
      <trkpt lat="49.84919" lon="4.80866">
        <ele>382</ele>
        <time>2020-11-13T09:24:22.000Z</time>
      </trkpt>
      <trkpt lat="49.84922" lon="4.80874">
        <ele>382</ele>
        <time>2020-11-13T09:24:23.000Z</time>
      </trkpt>
      <trkpt lat="49.84926" lon="4.80881">
        <ele>382</ele>
        <time>2020-11-13T09:24:24.000Z</time>
      </trkpt>
      <trkpt lat="49.84928" lon="4.80889">
        <ele>382</ele>
        <time>2020-11-13T09:24:25.000Z</time>
      </trkpt>
      <trkpt lat="49.8493" lon="4.80896">
        <ele>382</ele>
        <time>2020-11-13T09:24:26.000Z</time>
      </trkpt>
      <trkpt lat="49.84931" lon="4.80903">
        <ele>382</ele>
        <time>2020-11-13T09:24:27.000Z</time>
      </trkpt>
      <trkpt lat="49.84931" lon="4.8091">
        <ele>382</ele>
        <time>2020-11-13T09:24:28.000Z</time>
      </trkpt>
      <trkpt lat="49.84931" lon="4.80916">
        <ele>382</ele>
        <time>2020-11-13T09:24:29.000Z</time>
      </trkpt>
      <trkpt lat="49.84932" lon="4.80922">
        <ele>382</ele>
        <time>2020-11-13T09:24:30.000Z</time>
      </trkpt>
      <trkpt lat="49.84933" lon="4.80927">
        <ele>382</ele>
        <time>2020-11-13T09:24:31.000Z</time>
      </trkpt>
      <trkpt lat="49.84934" lon="4.80931">
        <ele>382</ele>
        <time>2020-11-13T09:24:32.000Z</time>
      </trkpt>
      <trkpt lat="49.84935" lon="4.80937">
        <ele>382</ele>
        <time>2020-11-13T09:24:33.000Z</time>
      </trkpt>
      <trkpt lat="49.84937" lon="4.80942">
        <ele>382</ele>
        <time>2020-11-13T09:24:34.000Z</time>
      </trkpt>
      <trkpt lat="49.84938" lon="4.80948">
        <ele>382</ele>
        <time>2020-11-13T09:24:35.000Z</time>
      </trkpt>
      <trkpt lat="49.8494" lon="4.80954">
        <ele>382</ele>
        <time>2020-11-13T09:24:36.000Z</time>
      </trkpt>
      <trkpt lat="49.84942" lon="4.8096">
        <ele>382</ele>
        <time>2020-11-13T09:24:37.000Z</time>
      </trkpt>
      <trkpt lat="49.84944" lon="4.80966">
        <ele>382</ele>
        <time>2020-11-13T09:24:38.000Z</time>
      </trkpt>
      <trkpt lat="49.84946" lon="4.80972">
        <ele>382</ele>
        <time>2020-11-13T09:24:39.000Z</time>
      </trkpt>
      <trkpt lat="49.84948" lon="4.80978">
        <ele>382</ele>
        <time>2020-11-13T09:24:40.000Z</time>
      </trkpt>
      <trkpt lat="49.8495" lon="4.80984">
        <ele>382</ele>
        <time>2020-11-13T09:24:41.000Z</time>
      </trkpt>
      <trkpt lat="49.84952" lon="4.80991">
        <ele>382</ele>
        <time>2020-11-13T09:24:42.000Z</time>
      </trkpt>
      <trkpt lat="49.84953" lon="4.80997">
        <ele>382</ele>
        <time>2020-11-13T09:24:43.000Z</time>
      </trkpt>
      <trkpt lat="49.84955" lon="4.81004">
        <ele>382</ele>
        <time>2020-11-13T09:24:44.000Z</time>
      </trkpt>
      <trkpt lat="49.84957" lon="4.8101">
        <ele>382</ele>
        <time>2020-11-13T09:24:45.000Z</time>
      </trkpt>
      <trkpt lat="49.84959" lon="4.81016">
        <ele>382</ele>
        <time>2020-11-13T09:24:46.000Z</time>
      </trkpt>
      <trkpt lat="49.84961" lon="4.81022">
        <ele>382</ele>
        <time>2020-11-13T09:24:47.000Z</time>
      </trkpt>
      <trkpt lat="49.84963" lon="4.81027">
        <ele>382</ele>
        <time>2020-11-13T09:24:48.000Z</time>
      </trkpt>
      <trkpt lat="49.84965" lon="4.81033">
        <ele>382</ele>
        <time>2020-11-13T09:24:49.000Z</time>
      </trkpt>
      <trkpt lat="49.84967" lon="4.81038">
        <ele>382</ele>
        <time>2020-11-13T09:24:50.000Z</time>
      </trkpt>
      <trkpt lat="49.84969" lon="4.81043">
        <ele>383</ele>
        <time>2020-11-13T09:24:51.000Z</time>
      </trkpt>
      <trkpt lat="49.84971" lon="4.81049">
        <ele>383</ele>
        <time>2020-11-13T09:24:52.000Z</time>
      </trkpt>
      <trkpt lat="49.84973" lon="4.81055">
        <ele>383</ele>
        <time>2020-11-13T09:24:53.000Z</time>
      </trkpt>
      <trkpt lat="49.84975" lon="4.81061">
        <ele>383</ele>
        <time>2020-11-13T09:24:54.000Z</time>
      </trkpt>
      <trkpt lat="49.84977" lon="4.81067">
        <ele>383</ele>
        <time>2020-11-13T09:24:55.000Z</time>
      </trkpt>
      <trkpt lat="49.84979" lon="4.81073">
        <ele>383</ele>
        <time>2020-11-13T09:24:56.000Z</time>
      </trkpt>
      <trkpt lat="49.84982" lon="4.81079">
        <ele>383</ele>
        <time>2020-11-13T09:24:57.000Z</time>
      </trkpt>
      <trkpt lat="49.84984" lon="4.81085">
        <ele>383</ele>
        <time>2020-11-13T09:24:58.000Z</time>
      </trkpt>
      <trkpt lat="49.84986" lon="4.8109">
        <ele>383</ele>
        <time>2020-11-13T09:24:59.000Z</time>
      </trkpt>
      <trkpt lat="49.84988" lon="4.81096">
        <ele>383</ele>
        <time>2020-11-13T09:25:00.000Z</time>
      </trkpt>
      <trkpt lat="49.8499" lon="4.81102">
        <ele>384</ele>
        <time>2020-11-13T09:25:01.000Z</time>
      </trkpt>
      <trkpt lat="49.84992" lon="4.81108">
        <ele>384</ele>
        <time>2020-11-13T09:25:02.000Z</time>
      </trkpt>
      <trkpt lat="49.84994" lon="4.81113">
        <ele>384</ele>
        <time>2020-11-13T09:25:03.000Z</time>
      </trkpt>
      <trkpt lat="49.84996" lon="4.81118">
        <ele>384</ele>
        <time>2020-11-13T09:25:04.000Z</time>
      </trkpt>
      <trkpt lat="49.84998" lon="4.81124">
        <ele>384</ele>
        <time>2020-11-13T09:25:05.000Z</time>
      </trkpt>
      <trkpt lat="49.85" lon="4.81129">
        <ele>384</ele>
        <time>2020-11-13T09:25:06.000Z</time>
      </trkpt>
      <trkpt lat="49.85003" lon="4.81135">
        <ele>384</ele>
        <time>2020-11-13T09:25:07.000Z</time>
      </trkpt>
      <trkpt lat="49.85005" lon="4.8114">
        <ele>384</ele>
        <time>2020-11-13T09:25:08.000Z</time>
      </trkpt>
      <trkpt lat="49.85008" lon="4.81145">
        <ele>384</ele>
        <time>2020-11-13T09:25:09.000Z</time>
      </trkpt>
      <trkpt lat="49.8501" lon="4.81149">
        <ele>384</ele>
        <time>2020-11-13T09:25:10.000Z</time>
      </trkpt>
      <trkpt lat="49.85012" lon="4.81154">
        <ele>384</ele>
        <time>2020-11-13T09:25:11.000Z</time>
      </trkpt>
      <trkpt lat="49.85015" lon="4.81159">
        <ele>384</ele>
        <time>2020-11-13T09:25:12.000Z</time>
      </trkpt>
      <trkpt lat="49.85018" lon="4.81163">
        <ele>384</ele>
        <time>2020-11-13T09:25:13.000Z</time>
      </trkpt>
      <trkpt lat="49.85022" lon="4.81167">
        <ele>384</ele>
        <time>2020-11-13T09:25:14.000Z</time>
      </trkpt>
      <trkpt lat="49.85025" lon="4.81172">
        <ele>384</ele>
        <time>2020-11-13T09:25:15.000Z</time>
      </trkpt>
      <trkpt lat="49.85028" lon="4.81177">
        <ele>384</ele>
        <time>2020-11-13T09:25:16.000Z</time>
      </trkpt>
      <trkpt lat="49.85032" lon="4.81183">
        <ele>384</ele>
        <time>2020-11-13T09:25:17.000Z</time>
      </trkpt>
      <trkpt lat="49.85036" lon="4.81189">
        <ele>384</ele>
        <time>2020-11-13T09:25:18.000Z</time>
      </trkpt>
      <trkpt lat="49.85039" lon="4.81194">
        <ele>384</ele>
        <time>2020-11-13T09:25:19.000Z</time>
      </trkpt>
      <trkpt lat="49.85043" lon="4.812">
        <ele>384</ele>
        <time>2020-11-13T09:25:20.000Z</time>
      </trkpt>
      <trkpt lat="49.85046" lon="4.81205">
        <ele>383</ele>
        <time>2020-11-13T09:25:21.000Z</time>
      </trkpt>
      <trkpt lat="49.8505" lon="4.81211">
        <ele>383</ele>
        <time>2020-11-13T09:25:22.000Z</time>
      </trkpt>
      <trkpt lat="49.85054" lon="4.81216">
        <ele>383</ele>
        <time>2020-11-13T09:25:23.000Z</time>
      </trkpt>
      <trkpt lat="49.85057" lon="4.81221">
        <ele>383</ele>
        <time>2020-11-13T09:25:24.000Z</time>
      </trkpt>
      <trkpt lat="49.85061" lon="4.81226">
        <ele>383</ele>
        <time>2020-11-13T09:25:25.000Z</time>
      </trkpt>
      <trkpt lat="49.85064" lon="4.81231">
        <ele>383</ele>
        <time>2020-11-13T09:25:26.000Z</time>
      </trkpt>
      <trkpt lat="49.85067" lon="4.81237">
        <ele>383</ele>
        <time>2020-11-13T09:25:27.000Z</time>
      </trkpt>
      <trkpt lat="49.8507" lon="4.81242">
        <ele>383</ele>
        <time>2020-11-13T09:25:28.000Z</time>
      </trkpt>
      <trkpt lat="49.85074" lon="4.81248">
        <ele>383</ele>
        <time>2020-11-13T09:25:29.000Z</time>
      </trkpt>
      <trkpt lat="49.85077" lon="4.81253">
        <ele>383</ele>
        <time>2020-11-13T09:25:30.000Z</time>
      </trkpt>
      <trkpt lat="49.8508" lon="4.81258">
        <ele>383</ele>
        <time>2020-11-13T09:25:31.000Z</time>
      </trkpt>
      <trkpt lat="49.85083" lon="4.81263">
        <ele>383</ele>
        <time>2020-11-13T09:25:32.000Z</time>
      </trkpt>
      <trkpt lat="49.85086" lon="4.81268">
        <ele>383</ele>
        <time>2020-11-13T09:25:33.000Z</time>
      </trkpt>
      <trkpt lat="49.8509" lon="4.81272">
        <ele>383</ele>
        <time>2020-11-13T09:25:34.000Z</time>
      </trkpt>
      <trkpt lat="49.85094" lon="4.81276">
        <ele>383</ele>
        <time>2020-11-13T09:25:35.000Z</time>
      </trkpt>
      <trkpt lat="49.85097" lon="4.81281">
        <ele>383</ele>
        <time>2020-11-13T09:25:36.000Z</time>
      </trkpt>
      <trkpt lat="49.85101" lon="4.81286">
        <ele>383</ele>
        <time>2020-11-13T09:25:37.000Z</time>
      </trkpt>
      <trkpt lat="49.85104" lon="4.81291">
        <ele>383</ele>
        <time>2020-11-13T09:25:38.000Z</time>
      </trkpt>
      <trkpt lat="49.85107" lon="4.81297">
        <ele>383</ele>
        <time>2020-11-13T09:25:39.000Z</time>
      </trkpt>
      <trkpt lat="49.8511" lon="4.81302">
        <ele>383</ele>
        <time>2020-11-13T09:25:40.000Z</time>
      </trkpt>
      <trkpt lat="49.85113" lon="4.81307">
        <ele>383</ele>
        <time>2020-11-13T09:25:41.000Z</time>
      </trkpt>
      <trkpt lat="49.85115" lon="4.81312">
        <ele>383</ele>
        <time>2020-11-13T09:25:42.000Z</time>
      </trkpt>
      <trkpt lat="49.85117" lon="4.81317">
        <ele>383</ele>
        <time>2020-11-13T09:25:43.000Z</time>
      </trkpt>
      <trkpt lat="49.85119" lon="4.81321">
        <ele>383</ele>
        <time>2020-11-13T09:25:44.000Z</time>
      </trkpt>
      <trkpt lat="49.85121" lon="4.81326">
        <ele>383</ele>
        <time>2020-11-13T09:25:45.000Z</time>
      </trkpt>
      <trkpt lat="49.85123" lon="4.81329">
        <ele>383</ele>
        <time>2020-11-13T09:25:46.000Z</time>
      </trkpt>
      <trkpt lat="49.85125" lon="4.81333">
        <ele>383</ele>
        <time>2020-11-13T09:25:47.000Z</time>
      </trkpt>
      <trkpt lat="49.85126" lon="4.81338">
        <ele>383</ele>
        <time>2020-11-13T09:25:48.000Z</time>
      </trkpt>
      <trkpt lat="49.85129" lon="4.81343">
        <ele>383</ele>
        <time>2020-11-13T09:25:49.000Z</time>
      </trkpt>
      <trkpt lat="49.85131" lon="4.81348">
        <ele>383</ele>
        <time>2020-11-13T09:25:50.000Z</time>
      </trkpt>
      <trkpt lat="49.85133" lon="4.81353">
        <ele>383</ele>
        <time>2020-11-13T09:25:51.000Z</time>
      </trkpt>
      <trkpt lat="49.85135" lon="4.81359">
        <ele>383</ele>
        <time>2020-11-13T09:25:52.000Z</time>
      </trkpt>
      <trkpt lat="49.85136" lon="4.81364">
        <ele>383</ele>
        <time>2020-11-13T09:25:53.000Z</time>
      </trkpt>
      <trkpt lat="49.85138" lon="4.81371">
        <ele>383</ele>
        <time>2020-11-13T09:25:54.000Z</time>
      </trkpt>
      <trkpt lat="49.8514" lon="4.81376">
        <ele>383</ele>
        <time>2020-11-13T09:25:55.000Z</time>
      </trkpt>
      <trkpt lat="49.85141" lon="4.81383">
        <ele>383</ele>
        <time>2020-11-13T09:25:56.000Z</time>
      </trkpt>
      <trkpt lat="49.85142" lon="4.81388">
        <ele>383</ele>
        <time>2020-11-13T09:25:57.000Z</time>
      </trkpt>
      <trkpt lat="49.85144" lon="4.81393">
        <ele>383</ele>
        <time>2020-11-13T09:25:58.000Z</time>
      </trkpt>
      <trkpt lat="49.85145" lon="4.814">
        <ele>384</ele>
        <time>2020-11-13T09:25:59.000Z</time>
      </trkpt>
      <trkpt lat="49.85146" lon="4.81406">
        <ele>384</ele>
        <time>2020-11-13T09:26:00.000Z</time>
      </trkpt>
      <trkpt lat="49.85147" lon="4.81412">
        <ele>384</ele>
        <time>2020-11-13T09:26:01.000Z</time>
      </trkpt>
      <trkpt lat="49.85148" lon="4.81419">
        <ele>384</ele>
        <time>2020-11-13T09:26:02.000Z</time>
      </trkpt>
      <trkpt lat="49.85148" lon="4.81425">
        <ele>384</ele>
        <time>2020-11-13T09:26:03.000Z</time>
      </trkpt>
      <trkpt lat="49.85148" lon="4.81432">
        <ele>384</ele>
        <time>2020-11-13T09:26:04.000Z</time>
      </trkpt>
      <trkpt lat="49.85149" lon="4.81439">
        <ele>384</ele>
        <time>2020-11-13T09:26:05.000Z</time>
      </trkpt>
      <trkpt lat="49.85149" lon="4.81445">
        <ele>384</ele>
        <time>2020-11-13T09:26:06.000Z</time>
      </trkpt>
      <trkpt lat="49.85149" lon="4.81452">
        <ele>384</ele>
        <time>2020-11-13T09:26:07.000Z</time>
      </trkpt>
      <trkpt lat="49.85149" lon="4.81459">
        <ele>385</ele>
        <time>2020-11-13T09:26:08.000Z</time>
      </trkpt>
      <trkpt lat="49.85149" lon="4.81466">
        <ele>385</ele>
        <time>2020-11-13T09:26:09.000Z</time>
      </trkpt>
      <trkpt lat="49.85148" lon="4.81473">
        <ele>385</ele>
        <time>2020-11-13T09:26:10.000Z</time>
      </trkpt>
      <trkpt lat="49.85148" lon="4.8148">
        <ele>385</ele>
        <time>2020-11-13T09:26:11.000Z</time>
      </trkpt>
      <trkpt lat="49.85148" lon="4.81487">
        <ele>385</ele>
        <time>2020-11-13T09:26:12.000Z</time>
      </trkpt>
      <trkpt lat="49.85147" lon="4.81494">
        <ele>385</ele>
        <time>2020-11-13T09:26:13.000Z</time>
      </trkpt>
      <trkpt lat="49.85147" lon="4.81502">
        <ele>385</ele>
        <time>2020-11-13T09:26:14.000Z</time>
      </trkpt>
      <trkpt lat="49.85146" lon="4.81509">
        <ele>385</ele>
        <time>2020-11-13T09:26:15.000Z</time>
      </trkpt>
      <trkpt lat="49.85146" lon="4.81515">
        <ele>385</ele>
        <time>2020-11-13T09:26:16.000Z</time>
      </trkpt>
      <trkpt lat="49.85146" lon="4.81522">
        <ele>386</ele>
        <time>2020-11-13T09:26:17.000Z</time>
      </trkpt>
      <trkpt lat="49.85146" lon="4.81529">
        <ele>386</ele>
        <time>2020-11-13T09:26:18.000Z</time>
      </trkpt>
      <trkpt lat="49.85146" lon="4.81535">
        <ele>386</ele>
        <time>2020-11-13T09:26:19.000Z</time>
      </trkpt>
      <trkpt lat="49.85145" lon="4.81541">
        <ele>386</ele>
        <time>2020-11-13T09:26:20.000Z</time>
      </trkpt>
      <trkpt lat="49.85145" lon="4.81548">
        <ele>386</ele>
        <time>2020-11-13T09:26:21.000Z</time>
      </trkpt>
      <trkpt lat="49.85144" lon="4.81554">
        <ele>386</ele>
        <time>2020-11-13T09:26:22.000Z</time>
      </trkpt>
      <trkpt lat="49.85144" lon="4.81561">
        <ele>386</ele>
        <time>2020-11-13T09:26:23.000Z</time>
      </trkpt>
      <trkpt lat="49.85143" lon="4.81567">
        <ele>386</ele>
        <time>2020-11-13T09:26:24.000Z</time>
      </trkpt>
      <trkpt lat="49.85143" lon="4.81574">
        <ele>386</ele>
        <time>2020-11-13T09:26:25.000Z</time>
      </trkpt>
      <trkpt lat="49.85143" lon="4.8158">
        <ele>386</ele>
        <time>2020-11-13T09:26:26.000Z</time>
      </trkpt>
      <trkpt lat="49.85143" lon="4.81587">
        <ele>386</ele>
        <time>2020-11-13T09:26:27.000Z</time>
      </trkpt>
      <trkpt lat="49.85143" lon="4.81593">
        <ele>386</ele>
        <time>2020-11-13T09:26:28.000Z</time>
      </trkpt>
      <trkpt lat="49.85143" lon="4.81599">
        <ele>386</ele>
        <time>2020-11-13T09:26:29.000Z</time>
      </trkpt>
      <trkpt lat="49.85143" lon="4.81605">
        <ele>387</ele>
        <time>2020-11-13T09:26:30.000Z</time>
      </trkpt>
      <trkpt lat="49.85143" lon="4.81611">
        <ele>387</ele>
        <time>2020-11-13T09:26:31.000Z</time>
      </trkpt>
      <trkpt lat="49.85143" lon="4.81617">
        <ele>387</ele>
        <time>2020-11-13T09:26:32.000Z</time>
      </trkpt>
      <trkpt lat="49.85143" lon="4.81623">
        <ele>387</ele>
        <time>2020-11-13T09:26:33.000Z</time>
      </trkpt>
      <trkpt lat="49.85144" lon="4.81628">
        <ele>387</ele>
        <time>2020-11-13T09:26:34.000Z</time>
      </trkpt>
      <trkpt lat="49.85144" lon="4.81634">
        <ele>388</ele>
        <time>2020-11-13T09:26:35.000Z</time>
      </trkpt>
      <trkpt lat="49.85145" lon="4.81641">
        <ele>388</ele>
        <time>2020-11-13T09:26:36.000Z</time>
      </trkpt>
      <trkpt lat="49.85145" lon="4.81647">
        <ele>388</ele>
        <time>2020-11-13T09:26:37.000Z</time>
      </trkpt>
      <trkpt lat="49.85145" lon="4.81653">
        <ele>388</ele>
        <time>2020-11-13T09:26:38.000Z</time>
      </trkpt>
      <trkpt lat="49.85146" lon="4.81658">
        <ele>388</ele>
        <time>2020-11-13T09:26:39.000Z</time>
      </trkpt>
      <trkpt lat="49.85147" lon="4.81664">
        <ele>388</ele>
        <time>2020-11-13T09:26:40.000Z</time>
      </trkpt>
      <trkpt lat="49.85148" lon="4.81669">
        <ele>388</ele>
        <time>2020-11-13T09:26:41.000Z</time>
      </trkpt>
      <trkpt lat="49.85149" lon="4.81675">
        <ele>389</ele>
        <time>2020-11-13T09:26:42.000Z</time>
      </trkpt>
      <trkpt lat="49.8515" lon="4.81681">
        <ele>389</ele>
        <time>2020-11-13T09:26:43.000Z</time>
      </trkpt>
      <trkpt lat="49.85151" lon="4.81686">
        <ele>389</ele>
        <time>2020-11-13T09:26:44.000Z</time>
      </trkpt>
      <trkpt lat="49.85153" lon="4.81692">
        <ele>389</ele>
        <time>2020-11-13T09:26:45.000Z</time>
      </trkpt>
      <trkpt lat="49.85155" lon="4.81698">
        <ele>389</ele>
        <time>2020-11-13T09:26:46.000Z</time>
      </trkpt>
      <trkpt lat="49.85156" lon="4.81703">
        <ele>390</ele>
        <time>2020-11-13T09:26:47.000Z</time>
      </trkpt>
      <trkpt lat="49.85158" lon="4.81708">
        <ele>390</ele>
        <time>2020-11-13T09:26:48.000Z</time>
      </trkpt>
      <trkpt lat="49.85159" lon="4.81713">
        <ele>390</ele>
        <time>2020-11-13T09:26:49.000Z</time>
      </trkpt>
      <trkpt lat="49.8516" lon="4.81716">
        <ele>390</ele>
        <time>2020-11-13T09:26:50.000Z</time>
      </trkpt>
      <trkpt lat="49.8516" lon="4.81719">
        <ele>390</ele>
        <time>2020-11-13T09:26:51.000Z</time>
      </trkpt>
      <trkpt lat="49.85161" lon="4.81723">
        <ele>390</ele>
        <time>2020-11-13T09:26:52.000Z</time>
      </trkpt>
      <trkpt lat="49.85163" lon="4.81727">
        <ele>390</ele>
        <time>2020-11-13T09:26:53.000Z</time>
      </trkpt>
      <trkpt lat="49.85164" lon="4.81732">
        <ele>390</ele>
        <time>2020-11-13T09:26:54.000Z</time>
      </trkpt>
      <trkpt lat="49.85165" lon="4.81738">
        <ele>390</ele>
        <time>2020-11-13T09:26:55.000Z</time>
      </trkpt>
      <trkpt lat="49.85166" lon="4.81744">
        <ele>390</ele>
        <time>2020-11-13T09:26:56.000Z</time>
      </trkpt>
      <trkpt lat="49.85167" lon="4.8175">
        <ele>390</ele>
        <time>2020-11-13T09:26:57.000Z</time>
      </trkpt>
      <trkpt lat="49.85168" lon="4.81756">
        <ele>390</ele>
        <time>2020-11-13T09:26:58.000Z</time>
      </trkpt>
      <trkpt lat="49.8517" lon="4.81762">
        <ele>390</ele>
        <time>2020-11-13T09:26:59.000Z</time>
      </trkpt>
      <trkpt lat="49.85171" lon="4.81767">
        <ele>390</ele>
        <time>2020-11-13T09:27:00.000Z</time>
      </trkpt>
      <trkpt lat="49.85173" lon="4.81773">
        <ele>390</ele>
        <time>2020-11-13T09:27:01.000Z</time>
      </trkpt>
      <trkpt lat="49.85175" lon="4.81779">
        <ele>390</ele>
        <time>2020-11-13T09:27:02.000Z</time>
      </trkpt>
      <trkpt lat="49.85175" lon="4.81785">
        <ele>390</ele>
        <time>2020-11-13T09:27:03.000Z</time>
      </trkpt>
      <trkpt lat="49.85177" lon="4.81792">
        <ele>390</ele>
        <time>2020-11-13T09:27:04.000Z</time>
      </trkpt>
      <trkpt lat="49.85179" lon="4.81799">
        <ele>390</ele>
        <time>2020-11-13T09:27:05.000Z</time>
      </trkpt>
      <trkpt lat="49.8518" lon="4.81806">
        <ele>390</ele>
        <time>2020-11-13T09:27:06.000Z</time>
      </trkpt>
      <trkpt lat="49.85181" lon="4.81814">
        <ele>390</ele>
        <time>2020-11-13T09:27:07.000Z</time>
      </trkpt>
      <trkpt lat="49.85183" lon="4.81822">
        <ele>390</ele>
        <time>2020-11-13T09:27:08.000Z</time>
      </trkpt>
      <trkpt lat="49.85183" lon="4.81829">
        <ele>390</ele>
        <time>2020-11-13T09:27:09.000Z</time>
      </trkpt>
      <trkpt lat="49.85184" lon="4.81837">
        <ele>390</ele>
        <time>2020-11-13T09:27:10.000Z</time>
      </trkpt>
      <trkpt lat="49.85185" lon="4.81846">
        <ele>390</ele>
        <time>2020-11-13T09:27:11.000Z</time>
      </trkpt>
      <trkpt lat="49.85187" lon="4.81854">
        <ele>389</ele>
        <time>2020-11-13T09:27:12.000Z</time>
      </trkpt>
      <trkpt lat="49.85188" lon="4.81863">
        <ele>389</ele>
        <time>2020-11-13T09:27:13.000Z</time>
      </trkpt>
      <trkpt lat="49.85189" lon="4.81872">
        <ele>389</ele>
        <time>2020-11-13T09:27:14.000Z</time>
      </trkpt>
      <trkpt lat="49.8519" lon="4.81881">
        <ele>389</ele>
        <time>2020-11-13T09:27:15.000Z</time>
      </trkpt>
      <trkpt lat="49.8519" lon="4.8189">
        <ele>389</ele>
        <time>2020-11-13T09:27:16.000Z</time>
      </trkpt>
      <trkpt lat="49.85191" lon="4.81899">
        <ele>389</ele>
        <time>2020-11-13T09:27:17.000Z</time>
      </trkpt>
      <trkpt lat="49.85192" lon="4.81908">
        <ele>388</ele>
        <time>2020-11-13T09:27:18.000Z</time>
      </trkpt>
      <trkpt lat="49.85192" lon="4.81917">
        <ele>388</ele>
        <time>2020-11-13T09:27:19.000Z</time>
      </trkpt>
      <trkpt lat="49.85193" lon="4.81926">
        <ele>388</ele>
        <time>2020-11-13T09:27:20.000Z</time>
      </trkpt>
      <trkpt lat="49.85193" lon="4.81936">
        <ele>388</ele>
        <time>2020-11-13T09:27:21.000Z</time>
      </trkpt>
      <trkpt lat="49.85194" lon="4.81946">
        <ele>388</ele>
        <time>2020-11-13T09:27:22.000Z</time>
      </trkpt>
      <trkpt lat="49.85194" lon="4.81956">
        <ele>387</ele>
        <time>2020-11-13T09:27:23.000Z</time>
      </trkpt>
      <trkpt lat="49.85195" lon="4.81966">
        <ele>387</ele>
        <time>2020-11-13T09:27:24.000Z</time>
      </trkpt>
      <trkpt lat="49.85196" lon="4.81976">
        <ele>387</ele>
        <time>2020-11-13T09:27:25.000Z</time>
      </trkpt>
      <trkpt lat="49.85197" lon="4.81986">
        <ele>387</ele>
        <time>2020-11-13T09:27:26.000Z</time>
      </trkpt>
      <trkpt lat="49.85197" lon="4.81996">
        <ele>386</ele>
        <time>2020-11-13T09:27:27.000Z</time>
      </trkpt>
      <trkpt lat="49.85199" lon="4.82006">
        <ele>386</ele>
        <time>2020-11-13T09:27:28.000Z</time>
      </trkpt>
      <trkpt lat="49.852" lon="4.82016">
        <ele>386</ele>
        <time>2020-11-13T09:27:29.000Z</time>
      </trkpt>
      <trkpt lat="49.85201" lon="4.82027">
        <ele>385</ele>
        <time>2020-11-13T09:27:30.000Z</time>
      </trkpt>
      <trkpt lat="49.85202" lon="4.82038">
        <ele>385</ele>
        <time>2020-11-13T09:27:31.000Z</time>
      </trkpt>
      <trkpt lat="49.85203" lon="4.82048">
        <ele>384</ele>
        <time>2020-11-13T09:27:32.000Z</time>
      </trkpt>
      <trkpt lat="49.85203" lon="4.82058">
        <ele>384</ele>
        <time>2020-11-13T09:27:33.000Z</time>
      </trkpt>
      <trkpt lat="49.85205" lon="4.82068">
        <ele>384</ele>
        <time>2020-11-13T09:27:34.000Z</time>
      </trkpt>
      <trkpt lat="49.85206" lon="4.8208">
        <ele>383</ele>
        <time>2020-11-13T09:27:35.000Z</time>
      </trkpt>
      <trkpt lat="49.85206" lon="4.82092">
        <ele>383</ele>
        <time>2020-11-13T09:27:36.000Z</time>
      </trkpt>
      <trkpt lat="49.85207" lon="4.82103">
        <ele>382</ele>
        <time>2020-11-13T09:27:37.000Z</time>
      </trkpt>
      <trkpt lat="49.85208" lon="4.82115">
        <ele>382</ele>
        <time>2020-11-13T09:27:38.000Z</time>
      </trkpt>
      <trkpt lat="49.85209" lon="4.82127">
        <ele>381</ele>
        <time>2020-11-13T09:27:39.000Z</time>
      </trkpt>
      <trkpt lat="49.8521" lon="4.82139">
        <ele>381</ele>
        <time>2020-11-13T09:27:40.000Z</time>
      </trkpt>
      <trkpt lat="49.85211" lon="4.8215">
        <ele>380</ele>
        <time>2020-11-13T09:27:41.000Z</time>
      </trkpt>
      <trkpt lat="49.85212" lon="4.8216">
        <ele>380</ele>
        <time>2020-11-13T09:27:42.000Z</time>
      </trkpt>
      <trkpt lat="49.85214" lon="4.8217">
        <ele>379</ele>
        <time>2020-11-13T09:27:43.000Z</time>
      </trkpt>
      <trkpt lat="49.85215" lon="4.8218">
        <ele>379</ele>
        <time>2020-11-13T09:27:44.000Z</time>
      </trkpt>
      <trkpt lat="49.85217" lon="4.8219">
        <ele>378</ele>
        <time>2020-11-13T09:27:45.000Z</time>
      </trkpt>
      <trkpt lat="49.85219" lon="4.82201">
        <ele>377</ele>
        <time>2020-11-13T09:27:46.000Z</time>
      </trkpt>
      <trkpt lat="49.85221" lon="4.82212">
        <ele>377</ele>
        <time>2020-11-13T09:27:47.000Z</time>
      </trkpt>
      <trkpt lat="49.85223" lon="4.82224">
        <ele>376</ele>
        <time>2020-11-13T09:27:48.000Z</time>
      </trkpt>
      <trkpt lat="49.85224" lon="4.82236">
        <ele>375</ele>
        <time>2020-11-13T09:27:49.000Z</time>
      </trkpt>
      <trkpt lat="49.85224" lon="4.82248">
        <ele>374</ele>
        <time>2020-11-13T09:27:50.000Z</time>
      </trkpt>
      <trkpt lat="49.85225" lon="4.82261">
        <ele>373</ele>
        <time>2020-11-13T09:27:51.000Z</time>
      </trkpt>
      <trkpt lat="49.85226" lon="4.82273">
        <ele>372</ele>
        <time>2020-11-13T09:27:52.000Z</time>
      </trkpt>
      <trkpt lat="49.85226" lon="4.82284">
        <ele>371</ele>
        <time>2020-11-13T09:27:53.000Z</time>
      </trkpt>
      <trkpt lat="49.85227" lon="4.82295">
        <ele>370</ele>
        <time>2020-11-13T09:27:54.000Z</time>
      </trkpt>
      <trkpt lat="49.85228" lon="4.82307">
        <ele>370</ele>
        <time>2020-11-13T09:27:55.000Z</time>
      </trkpt>
      <trkpt lat="49.8523" lon="4.82318">
        <ele>369</ele>
        <time>2020-11-13T09:27:56.000Z</time>
      </trkpt>
      <trkpt lat="49.85231" lon="4.8233">
        <ele>368</ele>
        <time>2020-11-13T09:27:57.000Z</time>
      </trkpt>
      <trkpt lat="49.85232" lon="4.82341">
        <ele>367</ele>
        <time>2020-11-13T09:27:58.000Z</time>
      </trkpt>
      <trkpt lat="49.85233" lon="4.82352">
        <ele>367</ele>
        <time>2020-11-13T09:27:59.000Z</time>
      </trkpt>
      <trkpt lat="49.85234" lon="4.82364">
        <ele>366</ele>
        <time>2020-11-13T09:28:00.000Z</time>
      </trkpt>
      <trkpt lat="49.85234" lon="4.82375">
        <ele>365</ele>
        <time>2020-11-13T09:28:01.000Z</time>
      </trkpt>
      <trkpt lat="49.85234" lon="4.82385">
        <ele>365</ele>
        <time>2020-11-13T09:28:02.000Z</time>
      </trkpt>
      <trkpt lat="49.85234" lon="4.82394">
        <ele>365</ele>
        <time>2020-11-13T09:28:03.000Z</time>
      </trkpt>
      <trkpt lat="49.85233" lon="4.82402">
        <ele>364</ele>
        <time>2020-11-13T09:28:04.000Z</time>
      </trkpt>
      <trkpt lat="49.85232" lon="4.82409">
        <ele>364</ele>
        <time>2020-11-13T09:28:05.000Z</time>
      </trkpt>
      <trkpt lat="49.8523" lon="4.82415">
        <ele>364</ele>
        <time>2020-11-13T09:28:06.000Z</time>
      </trkpt>
      <trkpt lat="49.85229" lon="4.82421">
        <ele>363</ele>
        <time>2020-11-13T09:28:07.000Z</time>
      </trkpt>
      <trkpt lat="49.85227" lon="4.82427">
        <ele>363</ele>
        <time>2020-11-13T09:28:08.000Z</time>
      </trkpt>
      <trkpt lat="49.85226" lon="4.82432">
        <ele>363</ele>
        <time>2020-11-13T09:28:09.000Z</time>
      </trkpt>
      <trkpt lat="49.85225" lon="4.82436">
        <ele>363</ele>
        <time>2020-11-13T09:28:10.000Z</time>
      </trkpt>
      <trkpt lat="49.85223" lon="4.82441">
        <ele>362</ele>
        <time>2020-11-13T09:28:11.000Z</time>
      </trkpt>
      <trkpt lat="49.85222" lon="4.82445">
        <ele>362</ele>
        <time>2020-11-13T09:28:12.000Z</time>
      </trkpt>
      <trkpt lat="49.85221" lon="4.8245">
        <ele>362</ele>
        <time>2020-11-13T09:28:13.000Z</time>
      </trkpt>
      <trkpt lat="49.8522" lon="4.82455">
        <ele>362</ele>
        <time>2020-11-13T09:28:14.000Z</time>
      </trkpt>
      <trkpt lat="49.85219" lon="4.82459">
        <ele>362</ele>
        <time>2020-11-13T09:28:15.000Z</time>
      </trkpt>
      <trkpt lat="49.85218" lon="4.82462">
        <ele>362</ele>
        <time>2020-11-13T09:28:16.000Z</time>
      </trkpt>
      <trkpt lat="49.85217" lon="4.82464">
        <ele>361</ele>
        <time>2020-11-13T09:28:17.000Z</time>
      </trkpt>
      <trkpt lat="49.85217" lon="4.82467">
        <ele>361</ele>
        <time>2020-11-13T09:28:18.000Z</time>
      </trkpt>
      <trkpt lat="49.85216" lon="4.8247">
        <ele>361</ele>
        <time>2020-11-13T09:28:19.000Z</time>
      </trkpt>
      <trkpt lat="49.85215" lon="4.82473">
        <ele>361</ele>
        <time>2020-11-13T09:28:20.000Z</time>
      </trkpt>
      <trkpt lat="49.85213" lon="4.82475">
        <ele>361</ele>
        <time>2020-11-13T09:28:21.000Z</time>
      </trkpt>
      <trkpt lat="49.85212" lon="4.82478">
        <ele>361</ele>
        <time>2020-11-13T09:28:22.000Z</time>
      </trkpt>
      <trkpt lat="49.85211" lon="4.82481">
        <ele>361</ele>
        <time>2020-11-13T09:28:23.000Z</time>
      </trkpt>
      <trkpt lat="49.85211" lon="4.82483">
        <ele>361</ele>
        <time>2020-11-13T09:28:24.000Z</time>
      </trkpt>
      <trkpt lat="49.8521" lon="4.82486">
        <ele>361</ele>
        <time>2020-11-13T09:28:25.000Z</time>
      </trkpt>
      <trkpt lat="49.85209" lon="4.82488">
        <ele>361</ele>
        <time>2020-11-13T09:28:26.000Z</time>
      </trkpt>
      <trkpt lat="49.85209" lon="4.8249">
        <ele>361</ele>
        <time>2020-11-13T09:28:27.000Z</time>
      </trkpt>
      <trkpt lat="49.85208" lon="4.82492">
        <ele>361</ele>
        <time>2020-11-13T09:28:28.000Z</time>
      </trkpt>
      <trkpt lat="49.85207" lon="4.82495">
        <ele>361</ele>
        <time>2020-11-13T09:28:29.000Z</time>
      </trkpt>
      <trkpt lat="49.85206" lon="4.82497">
        <ele>361</ele>
        <time>2020-11-13T09:28:30.000Z</time>
      </trkpt>
      <trkpt lat="49.85205" lon="4.82499">
        <ele>361</ele>
        <time>2020-11-13T09:28:31.000Z</time>
      </trkpt>
      <trkpt lat="49.85204" lon="4.82501">
        <ele>361</ele>
        <time>2020-11-13T09:28:32.000Z</time>
      </trkpt>
      <trkpt lat="49.85203" lon="4.82503">
        <ele>361</ele>
        <time>2020-11-13T09:28:33.000Z</time>
      </trkpt>
      <trkpt lat="49.85202" lon="4.82506">
        <ele>362</ele>
        <time>2020-11-13T09:28:34.000Z</time>
      </trkpt>
      <trkpt lat="49.852" lon="4.82508">
        <ele>362</ele>
        <time>2020-11-13T09:28:35.000Z</time>
      </trkpt>
      <trkpt lat="49.852" lon="4.8251">
        <ele>362</ele>
        <time>2020-11-13T09:28:36.000Z</time>
      </trkpt>
      <trkpt lat="49.85199" lon="4.82512">
        <ele>362</ele>
        <time>2020-11-13T09:28:37.000Z</time>
      </trkpt>
      <trkpt lat="49.85198" lon="4.82513">
        <ele>362</ele>
        <time>2020-11-13T09:28:38.000Z</time>
      </trkpt>
      <trkpt lat="49.85198" lon="4.82514">
        <ele>363</ele>
        <time>2020-11-13T09:28:39.000Z</time>
      </trkpt>
      <trkpt lat="49.85198" lon="4.82514">
        <ele>363</ele>
        <time>2020-11-13T09:28:40.000Z</time>
      </trkpt>
      <trkpt lat="49.85198" lon="4.82514">
        <ele>363</ele>
        <time>2020-11-13T09:28:41.000Z</time>
      </trkpt>
      <trkpt lat="49.85198" lon="4.82515">
        <ele>364</ele>
        <time>2020-11-13T09:28:42.000Z</time>
      </trkpt>
      <trkpt lat="49.85197" lon="4.82516">
        <ele>364</ele>
        <time>2020-11-13T09:28:43.000Z</time>
      </trkpt>
      <trkpt lat="49.85196" lon="4.82519">
        <ele>364</ele>
        <time>2020-11-13T09:28:44.000Z</time>
      </trkpt>
      <trkpt lat="49.85195" lon="4.82521">
        <ele>365</ele>
        <time>2020-11-13T09:28:45.000Z</time>
      </trkpt>
      <trkpt lat="49.85194" lon="4.82523">
        <ele>365</ele>
        <time>2020-11-13T09:28:46.000Z</time>
      </trkpt>
      <trkpt lat="49.85193" lon="4.82525">
        <ele>365</ele>
        <time>2020-11-13T09:28:47.000Z</time>
      </trkpt>
      <trkpt lat="49.85192" lon="4.82528">
        <ele>366</ele>
        <time>2020-11-13T09:28:48.000Z</time>
      </trkpt>
      <trkpt lat="49.8519" lon="4.8253">
        <ele>366</ele>
        <time>2020-11-13T09:28:49.000Z</time>
      </trkpt>
      <trkpt lat="49.85189" lon="4.82532">
        <ele>366</ele>
        <time>2020-11-13T09:28:50.000Z</time>
      </trkpt>
      <trkpt lat="49.85188" lon="4.82534">
        <ele>367</ele>
        <time>2020-11-13T09:28:51.000Z</time>
      </trkpt>
      <trkpt lat="49.85188" lon="4.82537">
        <ele>367</ele>
        <time>2020-11-13T09:28:52.000Z</time>
      </trkpt>
      <trkpt lat="49.85187" lon="4.82539">
        <ele>367</ele>
        <time>2020-11-13T09:28:53.000Z</time>
      </trkpt>
      <trkpt lat="49.85186" lon="4.82541">
        <ele>367</ele>
        <time>2020-11-13T09:28:54.000Z</time>
      </trkpt>
      <trkpt lat="49.85185" lon="4.82543">
        <ele>368</ele>
        <time>2020-11-13T09:28:55.000Z</time>
      </trkpt>
      <trkpt lat="49.85184" lon="4.82544">
        <ele>368</ele>
        <time>2020-11-13T09:28:56.000Z</time>
      </trkpt>
      <trkpt lat="49.85183" lon="4.82546">
        <ele>368</ele>
        <time>2020-11-13T09:28:57.000Z</time>
      </trkpt>
      <trkpt lat="49.85183" lon="4.82548">
        <ele>369</ele>
        <time>2020-11-13T09:28:58.000Z</time>
      </trkpt>
      <trkpt lat="49.85182" lon="4.8255">
        <ele>369</ele>
        <time>2020-11-13T09:28:59.000Z</time>
      </trkpt>
      <trkpt lat="49.85181" lon="4.82552">
        <ele>369</ele>
        <time>2020-11-13T09:29:00.000Z</time>
      </trkpt>
      <trkpt lat="49.8518" lon="4.82553">
        <ele>370</ele>
        <time>2020-11-13T09:29:01.000Z</time>
      </trkpt>
      <trkpt lat="49.8518" lon="4.82555">
        <ele>370</ele>
        <time>2020-11-13T09:29:02.000Z</time>
      </trkpt>
      <trkpt lat="49.85179" lon="4.82557">
        <ele>370</ele>
        <time>2020-11-13T09:29:03.000Z</time>
      </trkpt>
      <trkpt lat="49.85178" lon="4.82559">
        <ele>371</ele>
        <time>2020-11-13T09:29:04.000Z</time>
      </trkpt>
      <trkpt lat="49.85177" lon="4.82561">
        <ele>371</ele>
        <time>2020-11-13T09:29:05.000Z</time>
      </trkpt>
      <trkpt lat="49.85175" lon="4.82563">
        <ele>372</ele>
        <time>2020-11-13T09:29:06.000Z</time>
      </trkpt>
      <trkpt lat="49.85174" lon="4.82565">
        <ele>372</ele>
        <time>2020-11-13T09:29:07.000Z</time>
      </trkpt>
      <trkpt lat="49.85173" lon="4.82567">
        <ele>372</ele>
        <time>2020-11-13T09:29:08.000Z</time>
      </trkpt>
      <trkpt lat="49.85172" lon="4.82569">
        <ele>373</ele>
        <time>2020-11-13T09:29:09.000Z</time>
      </trkpt>
      <trkpt lat="49.85171" lon="4.8257">
        <ele>373</ele>
        <time>2020-11-13T09:29:10.000Z</time>
      </trkpt>
      <trkpt lat="49.8517" lon="4.82572">
        <ele>374</ele>
        <time>2020-11-13T09:29:11.000Z</time>
      </trkpt>
      <trkpt lat="49.85169" lon="4.82574">
        <ele>374</ele>
        <time>2020-11-13T09:29:12.000Z</time>
      </trkpt>
      <trkpt lat="49.85168" lon="4.82576">
        <ele>374</ele>
        <time>2020-11-13T09:29:13.000Z</time>
      </trkpt>
      <trkpt lat="49.85167" lon="4.82578">
        <ele>375</ele>
        <time>2020-11-13T09:29:14.000Z</time>
      </trkpt>
      <trkpt lat="49.85166" lon="4.8258">
        <ele>375</ele>
        <time>2020-11-13T09:29:15.000Z</time>
      </trkpt>
      <trkpt lat="49.85165" lon="4.82583">
        <ele>375</ele>
        <time>2020-11-13T09:29:16.000Z</time>
      </trkpt>
      <trkpt lat="49.85163" lon="4.82585">
        <ele>376</ele>
        <time>2020-11-13T09:29:17.000Z</time>
      </trkpt>
      <trkpt lat="49.85162" lon="4.82587">
        <ele>376</ele>
        <time>2020-11-13T09:29:18.000Z</time>
      </trkpt>
      <trkpt lat="49.85161" lon="4.82589">
        <ele>376</ele>
        <time>2020-11-13T09:29:19.000Z</time>
      </trkpt>
      <trkpt lat="49.8516" lon="4.8259">
        <ele>377</ele>
        <time>2020-11-13T09:29:20.000Z</time>
      </trkpt>
      <trkpt lat="49.85159" lon="4.82593">
        <ele>377</ele>
        <time>2020-11-13T09:29:21.000Z</time>
      </trkpt>
      <trkpt lat="49.85158" lon="4.82595">
        <ele>377</ele>
        <time>2020-11-13T09:29:22.000Z</time>
      </trkpt>
      <trkpt lat="49.85157" lon="4.82596">
        <ele>377</ele>
        <time>2020-11-13T09:29:23.000Z</time>
      </trkpt>
      <trkpt lat="49.85156" lon="4.82598">
        <ele>378</ele>
        <time>2020-11-13T09:29:24.000Z</time>
      </trkpt>
      <trkpt lat="49.85155" lon="4.82599">
        <ele>378</ele>
        <time>2020-11-13T09:29:25.000Z</time>
      </trkpt>
      <trkpt lat="49.85154" lon="4.82601">
        <ele>378</ele>
        <time>2020-11-13T09:29:26.000Z</time>
      </trkpt>
      <trkpt lat="49.85153" lon="4.82604">
        <ele>378</ele>
        <time>2020-11-13T09:29:27.000Z</time>
      </trkpt>
      <trkpt lat="49.85152" lon="4.82606">
        <ele>378</ele>
        <time>2020-11-13T09:29:28.000Z</time>
      </trkpt>
      <trkpt lat="49.8515" lon="4.82609">
        <ele>379</ele>
        <time>2020-11-13T09:29:29.000Z</time>
      </trkpt>
      <trkpt lat="49.85149" lon="4.82612">
        <ele>379</ele>
        <time>2020-11-13T09:29:30.000Z</time>
      </trkpt>
      <trkpt lat="49.85147" lon="4.82614">
        <ele>379</ele>
        <time>2020-11-13T09:29:31.000Z</time>
      </trkpt>
      <trkpt lat="49.85146" lon="4.82617">
        <ele>379</ele>
        <time>2020-11-13T09:29:32.000Z</time>
      </trkpt>
      <trkpt lat="49.85144" lon="4.8262">
        <ele>379</ele>
        <time>2020-11-13T09:29:33.000Z</time>
      </trkpt>
      <trkpt lat="49.85143" lon="4.82623">
        <ele>379</ele>
        <time>2020-11-13T09:29:34.000Z</time>
      </trkpt>
      <trkpt lat="49.85141" lon="4.82626">
        <ele>379</ele>
        <time>2020-11-13T09:29:35.000Z</time>
      </trkpt>
      <trkpt lat="49.85139" lon="4.82628">
        <ele>379</ele>
        <time>2020-11-13T09:29:36.000Z</time>
      </trkpt>
      <trkpt lat="49.85137" lon="4.82631">
        <ele>379</ele>
        <time>2020-11-13T09:29:37.000Z</time>
      </trkpt>
      <trkpt lat="49.85135" lon="4.82633">
        <ele>379</ele>
        <time>2020-11-13T09:29:38.000Z</time>
      </trkpt>
      <trkpt lat="49.85134" lon="4.82636">
        <ele>379</ele>
        <time>2020-11-13T09:29:39.000Z</time>
      </trkpt>
      <trkpt lat="49.85132" lon="4.82639">
        <ele>379</ele>
        <time>2020-11-13T09:29:40.000Z</time>
      </trkpt>
      <trkpt lat="49.85131" lon="4.82642">
        <ele>379</ele>
        <time>2020-11-13T09:29:41.000Z</time>
      </trkpt>
      <trkpt lat="49.8513" lon="4.82644">
        <ele>379</ele>
        <time>2020-11-13T09:29:42.000Z</time>
      </trkpt>
      <trkpt lat="49.85129" lon="4.82646">
        <ele>380</ele>
        <time>2020-11-13T09:29:43.000Z</time>
      </trkpt>
      <trkpt lat="49.85128" lon="4.82649">
        <ele>380</ele>
        <time>2020-11-13T09:29:44.000Z</time>
      </trkpt>
      <trkpt lat="49.85127" lon="4.82652">
        <ele>379</ele>
        <time>2020-11-13T09:29:45.000Z</time>
      </trkpt>
      <trkpt lat="49.85125" lon="4.82656">
        <ele>379</ele>
        <time>2020-11-13T09:29:46.000Z</time>
      </trkpt>
      <trkpt lat="49.85124" lon="4.82659">
        <ele>379</ele>
        <time>2020-11-13T09:29:47.000Z</time>
      </trkpt>
      <trkpt lat="49.85122" lon="4.82661">
        <ele>379</ele>
        <time>2020-11-13T09:29:48.000Z</time>
      </trkpt>
      <trkpt lat="49.85121" lon="4.82664">
        <ele>379</ele>
        <time>2020-11-13T09:29:49.000Z</time>
      </trkpt>
      <trkpt lat="49.85119" lon="4.82667">
        <ele>379</ele>
        <time>2020-11-13T09:29:50.000Z</time>
      </trkpt>
      <trkpt lat="49.85118" lon="4.8267">
        <ele>379</ele>
        <time>2020-11-13T09:29:51.000Z</time>
      </trkpt>
      <trkpt lat="49.85116" lon="4.82673">
        <ele>379</ele>
        <time>2020-11-13T09:29:52.000Z</time>
      </trkpt>
      <trkpt lat="49.85115" lon="4.82675">
        <ele>379</ele>
        <time>2020-11-13T09:29:53.000Z</time>
      </trkpt>
      <trkpt lat="49.85113" lon="4.82676">
        <ele>378</ele>
        <time>2020-11-13T09:29:54.000Z</time>
      </trkpt>
      <trkpt lat="49.85111" lon="4.82678">
        <ele>378</ele>
        <time>2020-11-13T09:29:55.000Z</time>
      </trkpt>
      <trkpt lat="49.85109" lon="4.8268">
        <ele>378</ele>
        <time>2020-11-13T09:29:56.000Z</time>
      </trkpt>
      <trkpt lat="49.85107" lon="4.82682">
        <ele>378</ele>
        <time>2020-11-13T09:29:57.000Z</time>
      </trkpt>
      <trkpt lat="49.85105" lon="4.82685">
        <ele>378</ele>
        <time>2020-11-13T09:29:58.000Z</time>
      </trkpt>
      <trkpt lat="49.85104" lon="4.82689">
        <ele>378</ele>
        <time>2020-11-13T09:29:59.000Z</time>
      </trkpt>
      <trkpt lat="49.85102" lon="4.82693">
        <ele>378</ele>
        <time>2020-11-13T09:30:00.000Z</time>
      </trkpt>
      <trkpt lat="49.85101" lon="4.82697">
        <ele>379</ele>
        <time>2020-11-13T09:30:01.000Z</time>
      </trkpt>
      <trkpt lat="49.851" lon="4.82702">
        <ele>379</ele>
        <time>2020-11-13T09:30:02.000Z</time>
      </trkpt>
      <trkpt lat="49.851" lon="4.82708">
        <ele>379</ele>
        <time>2020-11-13T09:30:03.000Z</time>
      </trkpt>
      <trkpt lat="49.85101" lon="4.82713">
        <ele>379</ele>
        <time>2020-11-13T09:30:04.000Z</time>
      </trkpt>
      <trkpt lat="49.85101" lon="4.82718">
        <ele>378</ele>
        <time>2020-11-13T09:30:05.000Z</time>
      </trkpt>
      <trkpt lat="49.85101" lon="4.82724">
        <ele>378</ele>
        <time>2020-11-13T09:30:06.000Z</time>
      </trkpt>
      <trkpt lat="49.851" lon="4.82728">
        <ele>378</ele>
        <time>2020-11-13T09:30:07.000Z</time>
      </trkpt>
      <trkpt lat="49.85098" lon="4.82732">
        <ele>378</ele>
        <time>2020-11-13T09:30:08.000Z</time>
      </trkpt>
      <trkpt lat="49.85095" lon="4.82735">
        <ele>378</ele>
        <time>2020-11-13T09:30:09.000Z</time>
      </trkpt>
      <trkpt lat="49.85092" lon="4.82738">
        <ele>378</ele>
        <time>2020-11-13T09:30:10.000Z</time>
      </trkpt>
      <trkpt lat="49.85088" lon="4.8274">
        <ele>378</ele>
        <time>2020-11-13T09:30:11.000Z</time>
      </trkpt>
      <trkpt lat="49.85085" lon="4.82742">
        <ele>378</ele>
        <time>2020-11-13T09:30:12.000Z</time>
      </trkpt>
      <trkpt lat="49.85081" lon="4.82745">
        <ele>377</ele>
        <time>2020-11-13T09:30:13.000Z</time>
      </trkpt>
      <trkpt lat="49.85077" lon="4.82748">
        <ele>377</ele>
        <time>2020-11-13T09:30:14.000Z</time>
      </trkpt>
      <trkpt lat="49.85074" lon="4.8275">
        <ele>377</ele>
        <time>2020-11-13T09:30:15.000Z</time>
      </trkpt>
      <trkpt lat="49.85071" lon="4.82753">
        <ele>377</ele>
        <time>2020-11-13T09:30:16.000Z</time>
      </trkpt>
      <trkpt lat="49.85068" lon="4.82757">
        <ele>377</ele>
        <time>2020-11-13T09:30:17.000Z</time>
      </trkpt>
      <trkpt lat="49.85065" lon="4.82762">
        <ele>377</ele>
        <time>2020-11-13T09:30:18.000Z</time>
      </trkpt>
      <trkpt lat="49.85062" lon="4.82766">
        <ele>377</ele>
        <time>2020-11-13T09:30:19.000Z</time>
      </trkpt>
      <trkpt lat="49.85058" lon="4.82771">
        <ele>377</ele>
        <time>2020-11-13T09:30:20.000Z</time>
      </trkpt>
      <trkpt lat="49.85054" lon="4.82776">
        <ele>376</ele>
        <time>2020-11-13T09:30:21.000Z</time>
      </trkpt>
      <trkpt lat="49.85051" lon="4.82782">
        <ele>376</ele>
        <time>2020-11-13T09:30:22.000Z</time>
      </trkpt>
      <trkpt lat="49.85047" lon="4.82787">
        <ele>376</ele>
        <time>2020-11-13T09:30:23.000Z</time>
      </trkpt>
      <trkpt lat="49.85043" lon="4.82792">
        <ele>376</ele>
        <time>2020-11-13T09:30:24.000Z</time>
      </trkpt>
      <trkpt lat="49.85038" lon="4.82797">
        <ele>376</ele>
        <time>2020-11-13T09:30:25.000Z</time>
      </trkpt>
      <trkpt lat="49.85035" lon="4.82801">
        <ele>376</ele>
        <time>2020-11-13T09:30:26.000Z</time>
      </trkpt>
      <trkpt lat="49.85031" lon="4.82805">
        <ele>376</ele>
        <time>2020-11-13T09:30:27.000Z</time>
      </trkpt>
      <trkpt lat="49.85028" lon="4.82807">
        <ele>376</ele>
        <time>2020-11-13T09:30:28.000Z</time>
      </trkpt>
      <trkpt lat="49.85025" lon="4.8281">
        <ele>376</ele>
        <time>2020-11-13T09:30:29.000Z</time>
      </trkpt>
      <trkpt lat="49.85022" lon="4.82813">
        <ele>376</ele>
        <time>2020-11-13T09:30:30.000Z</time>
      </trkpt>
      <trkpt lat="49.8502" lon="4.82816">
        <ele>376</ele>
        <time>2020-11-13T09:30:31.000Z</time>
      </trkpt>
      <trkpt lat="49.85016" lon="4.82819">
        <ele>376</ele>
        <time>2020-11-13T09:30:32.000Z</time>
      </trkpt>
      <trkpt lat="49.85013" lon="4.82822">
        <ele>376</ele>
        <time>2020-11-13T09:30:33.000Z</time>
      </trkpt>
      <trkpt lat="49.8501" lon="4.82826">
        <ele>376</ele>
        <time>2020-11-13T09:30:34.000Z</time>
      </trkpt>
      <trkpt lat="49.85007" lon="4.82831">
        <ele>376</ele>
        <time>2020-11-13T09:30:35.000Z</time>
      </trkpt>
      <trkpt lat="49.85003" lon="4.82836">
        <ele>376</ele>
        <time>2020-11-13T09:30:36.000Z</time>
      </trkpt>
      <trkpt lat="49.84999" lon="4.82841">
        <ele>376</ele>
        <time>2020-11-13T09:30:37.000Z</time>
      </trkpt>
      <trkpt lat="49.84995" lon="4.82847">
        <ele>376</ele>
        <time>2020-11-13T09:30:38.000Z</time>
      </trkpt>
      <trkpt lat="49.84991" lon="4.82852">
        <ele>376</ele>
        <time>2020-11-13T09:30:39.000Z</time>
      </trkpt>
      <trkpt lat="49.84986" lon="4.82857">
        <ele>376</ele>
        <time>2020-11-13T09:30:40.000Z</time>
      </trkpt>
      <trkpt lat="49.84982" lon="4.82862">
        <ele>375</ele>
        <time>2020-11-13T09:30:41.000Z</time>
      </trkpt>
      <trkpt lat="49.84977" lon="4.82867">
        <ele>375</ele>
        <time>2020-11-13T09:30:42.000Z</time>
      </trkpt>
      <trkpt lat="49.84973" lon="4.82871">
        <ele>375</ele>
        <time>2020-11-13T09:30:43.000Z</time>
      </trkpt>
      <trkpt lat="49.84969" lon="4.82873">
        <ele>375</ele>
        <time>2020-11-13T09:30:44.000Z</time>
      </trkpt>
      <trkpt lat="49.84965" lon="4.82876">
        <ele>375</ele>
        <time>2020-11-13T09:30:45.000Z</time>
      </trkpt>
      <trkpt lat="49.84963" lon="4.82878">
        <ele>375</ele>
        <time>2020-11-13T09:30:46.000Z</time>
      </trkpt>
      <trkpt lat="49.84961" lon="4.82879">
        <ele>374</ele>
        <time>2020-11-13T09:30:47.000Z</time>
      </trkpt>
      <trkpt lat="49.8496" lon="4.82881">
        <ele>374</ele>
        <time>2020-11-13T09:30:48.000Z</time>
      </trkpt>
      <trkpt lat="49.84959" lon="4.82883">
        <ele>374</ele>
        <time>2020-11-13T09:30:49.000Z</time>
      </trkpt>
      <trkpt lat="49.84958" lon="4.82885">
        <ele>374</ele>
        <time>2020-11-13T09:30:50.000Z</time>
      </trkpt>
      <trkpt lat="49.84957" lon="4.82887">
        <ele>374</ele>
        <time>2020-11-13T09:30:51.000Z</time>
      </trkpt>
      <trkpt lat="49.84956" lon="4.82889">
        <ele>374</ele>
        <time>2020-11-13T09:30:52.000Z</time>
      </trkpt>
      <trkpt lat="49.84957" lon="4.82892">
        <ele>374</ele>
        <time>2020-11-13T09:30:53.000Z</time>
      </trkpt>
      <trkpt lat="49.84957" lon="4.82895">
        <ele>374</ele>
        <time>2020-11-13T09:30:54.000Z</time>
      </trkpt>
      <trkpt lat="49.84958" lon="4.82899">
        <ele>374</ele>
        <time>2020-11-13T09:30:55.000Z</time>
      </trkpt>
      <trkpt lat="49.84959" lon="4.82902">
        <ele>374</ele>
        <time>2020-11-13T09:30:56.000Z</time>
      </trkpt>
      <trkpt lat="49.8496" lon="4.82905">
        <ele>374</ele>
        <time>2020-11-13T09:30:57.000Z</time>
      </trkpt>
      <trkpt lat="49.84961" lon="4.82908">
        <ele>374</ele>
        <time>2020-11-13T09:30:58.000Z</time>
      </trkpt>
      <trkpt lat="49.84961" lon="4.82911">
        <ele>374</ele>
        <time>2020-11-13T09:30:59.000Z</time>
      </trkpt>
      <trkpt lat="49.84962" lon="4.82914">
        <ele>374</ele>
        <time>2020-11-13T09:31:00.000Z</time>
      </trkpt>
      <trkpt lat="49.84961" lon="4.82919">
        <ele>374</ele>
        <time>2020-11-13T09:31:01.000Z</time>
      </trkpt>
      <trkpt lat="49.8496" lon="4.82924">
        <ele>374</ele>
        <time>2020-11-13T09:31:02.000Z</time>
      </trkpt>
      <trkpt lat="49.84959" lon="4.82929">
        <ele>374</ele>
        <time>2020-11-13T09:31:03.000Z</time>
      </trkpt>
      <trkpt lat="49.84957" lon="4.82933">
        <ele>374</ele>
        <time>2020-11-13T09:31:04.000Z</time>
      </trkpt>
      <trkpt lat="49.84954" lon="4.82938">
        <ele>374</ele>
        <time>2020-11-13T09:31:05.000Z</time>
      </trkpt>
      <trkpt lat="49.84952" lon="4.82944">
        <ele>374</ele>
        <time>2020-11-13T09:31:06.000Z</time>
      </trkpt>
      <trkpt lat="49.8495" lon="4.82951">
        <ele>374</ele>
        <time>2020-11-13T09:31:07.000Z</time>
      </trkpt>
      <trkpt lat="49.84948" lon="4.82958">
        <ele>374</ele>
        <time>2020-11-13T09:31:08.000Z</time>
      </trkpt>
      <trkpt lat="49.84946" lon="4.82966">
        <ele>374</ele>
        <time>2020-11-13T09:31:09.000Z</time>
      </trkpt>
      <trkpt lat="49.84944" lon="4.82972">
        <ele>374</ele>
        <time>2020-11-13T09:31:10.000Z</time>
      </trkpt>
      <trkpt lat="49.84943" lon="4.82977">
        <ele>374</ele>
        <time>2020-11-13T09:31:11.000Z</time>
      </trkpt>
      <trkpt lat="49.8494" lon="4.82983">
        <ele>374</ele>
        <time>2020-11-13T09:31:12.000Z</time>
      </trkpt>
      <trkpt lat="49.84938" lon="4.82989">
        <ele>374</ele>
        <time>2020-11-13T09:31:13.000Z</time>
      </trkpt>
      <trkpt lat="49.84935" lon="4.82994">
        <ele>374</ele>
        <time>2020-11-13T09:31:14.000Z</time>
      </trkpt>
      <trkpt lat="49.84933" lon="4.82999">
        <ele>374</ele>
        <time>2020-11-13T09:31:15.000Z</time>
      </trkpt>
      <trkpt lat="49.8493" lon="4.83004">
        <ele>374</ele>
        <time>2020-11-13T09:31:16.000Z</time>
      </trkpt>
      <trkpt lat="49.84928" lon="4.83008">
        <ele>374</ele>
        <time>2020-11-13T09:31:17.000Z</time>
      </trkpt>
      <trkpt lat="49.84924" lon="4.83013">
        <ele>374</ele>
        <time>2020-11-13T09:31:18.000Z</time>
      </trkpt>
      <trkpt lat="49.84921" lon="4.83018">
        <ele>374</ele>
        <time>2020-11-13T09:31:19.000Z</time>
      </trkpt>
      <trkpt lat="49.84918" lon="4.83021">
        <ele>373</ele>
        <time>2020-11-13T09:31:20.000Z</time>
      </trkpt>
      <trkpt lat="49.84915" lon="4.83026">
        <ele>373</ele>
        <time>2020-11-13T09:31:21.000Z</time>
      </trkpt>
      <trkpt lat="49.84911" lon="4.83032">
        <ele>373</ele>
        <time>2020-11-13T09:31:22.000Z</time>
      </trkpt>
      <trkpt lat="49.84908" lon="4.83038">
        <ele>373</ele>
        <time>2020-11-13T09:31:23.000Z</time>
      </trkpt>
      <trkpt lat="49.84904" lon="4.83043">
        <ele>372</ele>
        <time>2020-11-13T09:31:24.000Z</time>
      </trkpt>
      <trkpt lat="49.849" lon="4.83049">
        <ele>372</ele>
        <time>2020-11-13T09:31:25.000Z</time>
      </trkpt>
      <trkpt lat="49.84897" lon="4.83054">
        <ele>372</ele>
        <time>2020-11-13T09:31:26.000Z</time>
      </trkpt>
      <trkpt lat="49.84894" lon="4.83058">
        <ele>371</ele>
        <time>2020-11-13T09:31:27.000Z</time>
      </trkpt>
      <trkpt lat="49.84891" lon="4.83061">
        <ele>371</ele>
        <time>2020-11-13T09:31:28.000Z</time>
      </trkpt>
      <trkpt lat="49.84888" lon="4.83065">
        <ele>370</ele>
        <time>2020-11-13T09:31:29.000Z</time>
      </trkpt>
      <trkpt lat="49.84884" lon="4.83069">
        <ele>370</ele>
        <time>2020-11-13T09:31:30.000Z</time>
      </trkpt>
      <trkpt lat="49.84881" lon="4.83073">
        <ele>370</ele>
        <time>2020-11-13T09:31:31.000Z</time>
      </trkpt>
      <trkpt lat="49.84878" lon="4.83078">
        <ele>370</ele>
        <time>2020-11-13T09:31:32.000Z</time>
      </trkpt>
      <trkpt lat="49.84876" lon="4.83082">
        <ele>369</ele>
        <time>2020-11-13T09:31:33.000Z</time>
      </trkpt>
      <trkpt lat="49.84873" lon="4.83086">
        <ele>369</ele>
        <time>2020-11-13T09:31:34.000Z</time>
      </trkpt>
      <trkpt lat="49.84869" lon="4.8309">
        <ele>369</ele>
        <time>2020-11-13T09:31:35.000Z</time>
      </trkpt>
      <trkpt lat="49.84867" lon="4.83093">
        <ele>368</ele>
        <time>2020-11-13T09:31:36.000Z</time>
      </trkpt>
      <trkpt lat="49.84863" lon="4.83097">
        <ele>368</ele>
        <time>2020-11-13T09:31:37.000Z</time>
      </trkpt>
      <trkpt lat="49.8486" lon="4.83101">
        <ele>368</ele>
        <time>2020-11-13T09:31:38.000Z</time>
      </trkpt>
      <trkpt lat="49.84858" lon="4.83106">
        <ele>367</ele>
        <time>2020-11-13T09:31:39.000Z</time>
      </trkpt>
      <trkpt lat="49.84855" lon="4.83111">
        <ele>367</ele>
        <time>2020-11-13T09:31:40.000Z</time>
      </trkpt>
      <trkpt lat="49.84853" lon="4.83116">
        <ele>367</ele>
        <time>2020-11-13T09:31:41.000Z</time>
      </trkpt>
      <trkpt lat="49.8485" lon="4.8312">
        <ele>367</ele>
        <time>2020-11-13T09:31:42.000Z</time>
      </trkpt>
      <trkpt lat="49.84846" lon="4.83125">
        <ele>366</ele>
        <time>2020-11-13T09:31:43.000Z</time>
      </trkpt>
      <trkpt lat="49.84843" lon="4.8313">
        <ele>366</ele>
        <time>2020-11-13T09:31:44.000Z</time>
      </trkpt>
      <trkpt lat="49.8484" lon="4.83134">
        <ele>366</ele>
        <time>2020-11-13T09:31:45.000Z</time>
      </trkpt>
      <trkpt lat="49.84837" lon="4.83139">
        <ele>365</ele>
        <time>2020-11-13T09:31:46.000Z</time>
      </trkpt>
      <trkpt lat="49.84834" lon="4.83144">
        <ele>365</ele>
        <time>2020-11-13T09:31:47.000Z</time>
      </trkpt>
      <trkpt lat="49.84831" lon="4.83149">
        <ele>365</ele>
        <time>2020-11-13T09:31:48.000Z</time>
      </trkpt>
      <trkpt lat="49.84828" lon="4.83153">
        <ele>365</ele>
        <time>2020-11-13T09:31:49.000Z</time>
      </trkpt>
      <trkpt lat="49.84824" lon="4.83158">
        <ele>365</ele>
        <time>2020-11-13T09:31:50.000Z</time>
      </trkpt>
      <trkpt lat="49.84822" lon="4.83163">
        <ele>365</ele>
        <time>2020-11-13T09:31:51.000Z</time>
      </trkpt>
      <trkpt lat="49.84819" lon="4.83168">
        <ele>365</ele>
        <time>2020-11-13T09:31:52.000Z</time>
      </trkpt>
      <trkpt lat="49.84816" lon="4.83172">
        <ele>365</ele>
        <time>2020-11-13T09:31:53.000Z</time>
      </trkpt>
      <trkpt lat="49.84813" lon="4.83177">
        <ele>365</ele>
        <time>2020-11-13T09:31:54.000Z</time>
      </trkpt>
      <trkpt lat="49.84811" lon="4.83181">
        <ele>364</ele>
        <time>2020-11-13T09:31:55.000Z</time>
      </trkpt>
      <trkpt lat="49.84808" lon="4.83185">
        <ele>364</ele>
        <time>2020-11-13T09:31:56.000Z</time>
      </trkpt>
      <trkpt lat="49.84806" lon="4.83188">
        <ele>364</ele>
        <time>2020-11-13T09:31:57.000Z</time>
      </trkpt>
      <trkpt lat="49.84803" lon="4.83192">
        <ele>364</ele>
        <time>2020-11-13T09:31:58.000Z</time>
      </trkpt>
      <trkpt lat="49.84801" lon="4.83196">
        <ele>364</ele>
        <time>2020-11-13T09:31:59.000Z</time>
      </trkpt>
      <trkpt lat="49.84798" lon="4.832">
        <ele>364</ele>
        <time>2020-11-13T09:32:00.000Z</time>
      </trkpt>
      <trkpt lat="49.84795" lon="4.83202">
        <ele>364</ele>
        <time>2020-11-13T09:32:01.000Z</time>
      </trkpt>
      <trkpt lat="49.84792" lon="4.83206">
        <ele>363</ele>
        <time>2020-11-13T09:32:02.000Z</time>
      </trkpt>
      <trkpt lat="49.84789" lon="4.8321">
        <ele>363</ele>
        <time>2020-11-13T09:32:03.000Z</time>
      </trkpt>
      <trkpt lat="49.84787" lon="4.83214">
        <ele>363</ele>
        <time>2020-11-13T09:32:04.000Z</time>
      </trkpt>
      <trkpt lat="49.84785" lon="4.83218">
        <ele>363</ele>
        <time>2020-11-13T09:32:05.000Z</time>
      </trkpt>
      <trkpt lat="49.84784" lon="4.83223">
        <ele>363</ele>
        <time>2020-11-13T09:32:06.000Z</time>
      </trkpt>
      <trkpt lat="49.84784" lon="4.83227">
        <ele>363</ele>
        <time>2020-11-13T09:32:07.000Z</time>
      </trkpt>
      <trkpt lat="49.84784" lon="4.83231">
        <ele>363</ele>
        <time>2020-11-13T09:32:08.000Z</time>
      </trkpt>
      <trkpt lat="49.84785" lon="4.83234">
        <ele>363</ele>
        <time>2020-11-13T09:32:09.000Z</time>
      </trkpt>
      <trkpt lat="49.84786" lon="4.83238">
        <ele>363</ele>
        <time>2020-11-13T09:32:10.000Z</time>
      </trkpt>
      <trkpt lat="49.84787" lon="4.83242">
        <ele>363</ele>
        <time>2020-11-13T09:32:11.000Z</time>
      </trkpt>
      <trkpt lat="49.84788" lon="4.83246">
        <ele>363</ele>
        <time>2020-11-13T09:32:12.000Z</time>
      </trkpt>
      <trkpt lat="49.84788" lon="4.8325">
        <ele>363</ele>
        <time>2020-11-13T09:32:13.000Z</time>
      </trkpt>
      <trkpt lat="49.84789" lon="4.83254">
        <ele>363</ele>
        <time>2020-11-13T09:32:14.000Z</time>
      </trkpt>
      <trkpt lat="49.84789" lon="4.83258">
        <ele>363</ele>
        <time>2020-11-13T09:32:15.000Z</time>
      </trkpt>
      <trkpt lat="49.84789" lon="4.83262">
        <ele>362</ele>
        <time>2020-11-13T09:32:16.000Z</time>
      </trkpt>
      <trkpt lat="49.84789" lon="4.83268">
        <ele>362</ele>
        <time>2020-11-13T09:32:17.000Z</time>
      </trkpt>
      <trkpt lat="49.84789" lon="4.83275">
        <ele>362</ele>
        <time>2020-11-13T09:32:18.000Z</time>
      </trkpt>
      <trkpt lat="49.84789" lon="4.83282">
        <ele>362</ele>
        <time>2020-11-13T09:32:19.000Z</time>
      </trkpt>
      <trkpt lat="49.84788" lon="4.83289">
        <ele>362</ele>
        <time>2020-11-13T09:32:20.000Z</time>
      </trkpt>
      <trkpt lat="49.84788" lon="4.83295">
        <ele>362</ele>
        <time>2020-11-13T09:32:21.000Z</time>
      </trkpt>
      <trkpt lat="49.84787" lon="4.83303">
        <ele>362</ele>
        <time>2020-11-13T09:32:22.000Z</time>
      </trkpt>
      <trkpt lat="49.84787" lon="4.83311">
        <ele>362</ele>
        <time>2020-11-13T09:32:23.000Z</time>
      </trkpt>
      <trkpt lat="49.84788" lon="4.83319">
        <ele>362</ele>
        <time>2020-11-13T09:32:24.000Z</time>
      </trkpt>
      <trkpt lat="49.84788" lon="4.83329">
        <ele>362</ele>
        <time>2020-11-13T09:32:25.000Z</time>
      </trkpt>
      <trkpt lat="49.84789" lon="4.83339">
        <ele>362</ele>
        <time>2020-11-13T09:32:26.000Z</time>
      </trkpt>
      <trkpt lat="49.84789" lon="4.8335">
        <ele>362</ele>
        <time>2020-11-13T09:32:27.000Z</time>
      </trkpt>
      <trkpt lat="49.84789" lon="4.83362">
        <ele>361</ele>
        <time>2020-11-13T09:32:28.000Z</time>
      </trkpt>
      <trkpt lat="49.84789" lon="4.83373">
        <ele>361</ele>
        <time>2020-11-13T09:32:29.000Z</time>
      </trkpt>
      <trkpt lat="49.84789" lon="4.83385">
        <ele>361</ele>
        <time>2020-11-13T09:32:30.000Z</time>
      </trkpt>
      <trkpt lat="49.8479" lon="4.83395">
        <ele>360</ele>
        <time>2020-11-13T09:32:31.000Z</time>
      </trkpt>
      <trkpt lat="49.8479" lon="4.83405">
        <ele>360</ele>
        <time>2020-11-13T09:32:32.000Z</time>
      </trkpt>
      <trkpt lat="49.84791" lon="4.83416">
        <ele>360</ele>
        <time>2020-11-13T09:32:33.000Z</time>
      </trkpt>
      <trkpt lat="49.84791" lon="4.83429">
        <ele>359</ele>
        <time>2020-11-13T09:32:34.000Z</time>
      </trkpt>
      <trkpt lat="49.84791" lon="4.83441">
        <ele>359</ele>
        <time>2020-11-13T09:32:35.000Z</time>
      </trkpt>
      <trkpt lat="49.84791" lon="4.83452">
        <ele>359</ele>
        <time>2020-11-13T09:32:36.000Z</time>
      </trkpt>
      <trkpt lat="49.8479" lon="4.83462">
        <ele>358</ele>
        <time>2020-11-13T09:32:37.000Z</time>
      </trkpt>
      <trkpt lat="49.84789" lon="4.83469">
        <ele>358</ele>
        <time>2020-11-13T09:32:38.000Z</time>
      </trkpt>
      <trkpt lat="49.84788" lon="4.83476">
        <ele>358</ele>
        <time>2020-11-13T09:32:39.000Z</time>
      </trkpt>
      <trkpt lat="49.84788" lon="4.83483">
        <ele>357</ele>
        <time>2020-11-13T09:32:40.000Z</time>
      </trkpt>
      <trkpt lat="49.84787" lon="4.83489">
        <ele>357</ele>
        <time>2020-11-13T09:32:41.000Z</time>
      </trkpt>
      <trkpt lat="49.84787" lon="4.83497">
        <ele>357</ele>
        <time>2020-11-13T09:32:42.000Z</time>
      </trkpt>
      <trkpt lat="49.84787" lon="4.83504">
        <ele>357</ele>
        <time>2020-11-13T09:32:43.000Z</time>
      </trkpt>
      <trkpt lat="49.84787" lon="4.83513">
        <ele>356</ele>
        <time>2020-11-13T09:32:44.000Z</time>
      </trkpt>
      <trkpt lat="49.84787" lon="4.83521">
        <ele>356</ele>
        <time>2020-11-13T09:32:45.000Z</time>
      </trkpt>
      <trkpt lat="49.84787" lon="4.83528">
        <ele>356</ele>
        <time>2020-11-13T09:32:46.000Z</time>
      </trkpt>
      <trkpt lat="49.84786" lon="4.83536">
        <ele>356</ele>
        <time>2020-11-13T09:32:47.000Z</time>
      </trkpt>
      <trkpt lat="49.84786" lon="4.83544">
        <ele>355</ele>
        <time>2020-11-13T09:32:48.000Z</time>
      </trkpt>
      <trkpt lat="49.84786" lon="4.83552">
        <ele>355</ele>
        <time>2020-11-13T09:32:49.000Z</time>
      </trkpt>
      <trkpt lat="49.84786" lon="4.83559">
        <ele>355</ele>
        <time>2020-11-13T09:32:50.000Z</time>
      </trkpt>
      <trkpt lat="49.84786" lon="4.83565">
        <ele>354</ele>
        <time>2020-11-13T09:32:51.000Z</time>
      </trkpt>
      <trkpt lat="49.84786" lon="4.83571">
        <ele>354</ele>
        <time>2020-11-13T09:32:52.000Z</time>
      </trkpt>
      <trkpt lat="49.84786" lon="4.83578">
        <ele>354</ele>
        <time>2020-11-13T09:32:53.000Z</time>
      </trkpt>
      <trkpt lat="49.84786" lon="4.83585">
        <ele>354</ele>
        <time>2020-11-13T09:32:54.000Z</time>
      </trkpt>
      <trkpt lat="49.84785" lon="4.83592">
        <ele>353</ele>
        <time>2020-11-13T09:32:55.000Z</time>
      </trkpt>
      <trkpt lat="49.84785" lon="4.83599">
        <ele>353</ele>
        <time>2020-11-13T09:32:56.000Z</time>
      </trkpt>
      <trkpt lat="49.84785" lon="4.83606">
        <ele>353</ele>
        <time>2020-11-13T09:32:57.000Z</time>
      </trkpt>
      <trkpt lat="49.84786" lon="4.83613">
        <ele>353</ele>
        <time>2020-11-13T09:32:58.000Z</time>
      </trkpt>
      <trkpt lat="49.84786" lon="4.8362">
        <ele>352</ele>
        <time>2020-11-13T09:32:59.000Z</time>
      </trkpt>
      <trkpt lat="49.84786" lon="4.83628">
        <ele>352</ele>
        <time>2020-11-13T09:33:00.000Z</time>
      </trkpt>
      <trkpt lat="49.84787" lon="4.83636">
        <ele>352</ele>
        <time>2020-11-13T09:33:01.000Z</time>
      </trkpt>
      <trkpt lat="49.84787" lon="4.83644">
        <ele>352</ele>
        <time>2020-11-13T09:33:02.000Z</time>
      </trkpt>
      <trkpt lat="49.84787" lon="4.83652">
        <ele>352</ele>
        <time>2020-11-13T09:33:03.000Z</time>
      </trkpt>
      <trkpt lat="49.84787" lon="4.8366">
        <ele>351</ele>
        <time>2020-11-13T09:33:04.000Z</time>
      </trkpt>
      <trkpt lat="49.84788" lon="4.83667">
        <ele>351</ele>
        <time>2020-11-13T09:33:05.000Z</time>
      </trkpt>
      <trkpt lat="49.84787" lon="4.83675">
        <ele>351</ele>
        <time>2020-11-13T09:33:06.000Z</time>
      </trkpt>
      <trkpt lat="49.84788" lon="4.83683">
        <ele>351</ele>
        <time>2020-11-13T09:33:07.000Z</time>
      </trkpt>
      <trkpt lat="49.84788" lon="4.83691">
        <ele>351</ele>
        <time>2020-11-13T09:33:08.000Z</time>
      </trkpt>
      <trkpt lat="49.84788" lon="4.83698">
        <ele>351</ele>
        <time>2020-11-13T09:33:09.000Z</time>
      </trkpt>
      <trkpt lat="49.84788" lon="4.83706">
        <ele>350</ele>
        <time>2020-11-13T09:33:10.000Z</time>
      </trkpt>
      <trkpt lat="49.84788" lon="4.83714">
        <ele>350</ele>
        <time>2020-11-13T09:33:11.000Z</time>
      </trkpt>
      <trkpt lat="49.84788" lon="4.83722">
        <ele>350</ele>
        <time>2020-11-13T09:33:12.000Z</time>
      </trkpt>
      <trkpt lat="49.84788" lon="4.8373">
        <ele>350</ele>
        <time>2020-11-13T09:33:13.000Z</time>
      </trkpt>
      <trkpt lat="49.84788" lon="4.83738">
        <ele>350</ele>
        <time>2020-11-13T09:33:14.000Z</time>
      </trkpt>
      <trkpt lat="49.84788" lon="4.83745">
        <ele>350</ele>
        <time>2020-11-13T09:33:15.000Z</time>
      </trkpt>
      <trkpt lat="49.84787" lon="4.83753">
        <ele>350</ele>
        <time>2020-11-13T09:33:16.000Z</time>
      </trkpt>
      <trkpt lat="49.84787" lon="4.8376">
        <ele>350</ele>
        <time>2020-11-13T09:33:17.000Z</time>
      </trkpt>
      <trkpt lat="49.84787" lon="4.83767">
        <ele>350</ele>
        <time>2020-11-13T09:33:18.000Z</time>
      </trkpt>
      <trkpt lat="49.84788" lon="4.83774">
        <ele>349</ele>
        <time>2020-11-13T09:33:19.000Z</time>
      </trkpt>
      <trkpt lat="49.84788" lon="4.83782">
        <ele>349</ele>
        <time>2020-11-13T09:33:20.000Z</time>
      </trkpt>
      <trkpt lat="49.84788" lon="4.83788">
        <ele>349</ele>
        <time>2020-11-13T09:33:21.000Z</time>
      </trkpt>
      <trkpt lat="49.84788" lon="4.83794">
        <ele>349</ele>
        <time>2020-11-13T09:33:22.000Z</time>
      </trkpt>
      <trkpt lat="49.84788" lon="4.83801">
        <ele>349</ele>
        <time>2020-11-13T09:33:23.000Z</time>
      </trkpt>
      <trkpt lat="49.84789" lon="4.83806">
        <ele>350</ele>
        <time>2020-11-13T09:33:24.000Z</time>
      </trkpt>
      <trkpt lat="49.84789" lon="4.83811">
        <ele>350</ele>
        <time>2020-11-13T09:33:25.000Z</time>
      </trkpt>
      <trkpt lat="49.84789" lon="4.83816">
        <ele>350</ele>
        <time>2020-11-13T09:33:26.000Z</time>
      </trkpt>
      <trkpt lat="49.84789" lon="4.8382">
        <ele>350</ele>
        <time>2020-11-13T09:33:27.000Z</time>
      </trkpt>
      <trkpt lat="49.84789" lon="4.83824">
        <ele>350</ele>
        <time>2020-11-13T09:33:28.000Z</time>
      </trkpt>
      <trkpt lat="49.84788" lon="4.83827">
        <ele>350</ele>
        <time>2020-11-13T09:33:29.000Z</time>
      </trkpt>
      <trkpt lat="49.84787" lon="4.83831">
        <ele>350</ele>
        <time>2020-11-13T09:33:30.000Z</time>
      </trkpt>
      <trkpt lat="49.84786" lon="4.83833">
        <ele>350</ele>
        <time>2020-11-13T09:33:31.000Z</time>
      </trkpt>
      <trkpt lat="49.84784" lon="4.83836">
        <ele>350</ele>
        <time>2020-11-13T09:33:32.000Z</time>
      </trkpt>
      <trkpt lat="49.84783" lon="4.8384">
        <ele>350</ele>
        <time>2020-11-13T09:33:33.000Z</time>
      </trkpt>
      <trkpt lat="49.84782" lon="4.83844">
        <ele>350</ele>
        <time>2020-11-13T09:33:34.000Z</time>
      </trkpt>
      <trkpt lat="49.84781" lon="4.83848">
        <ele>350</ele>
        <time>2020-11-13T09:33:35.000Z</time>
      </trkpt>
      <trkpt lat="49.8478" lon="4.83852">
        <ele>351</ele>
        <time>2020-11-13T09:33:36.000Z</time>
      </trkpt>
      <trkpt lat="49.84779" lon="4.83857">
        <ele>351</ele>
        <time>2020-11-13T09:33:37.000Z</time>
      </trkpt>
      <trkpt lat="49.84777" lon="4.83862">
        <ele>351</ele>
        <time>2020-11-13T09:33:38.000Z</time>
      </trkpt>
      <trkpt lat="49.84776" lon="4.83866">
        <ele>351</ele>
        <time>2020-11-13T09:33:39.000Z</time>
      </trkpt>
      <trkpt lat="49.84774" lon="4.8387">
        <ele>351</ele>
        <time>2020-11-13T09:33:40.000Z</time>
      </trkpt>
      <trkpt lat="49.84773" lon="4.83874">
        <ele>351</ele>
        <time>2020-11-13T09:33:41.000Z</time>
      </trkpt>
      <trkpt lat="49.84771" lon="4.83879">
        <ele>351</ele>
        <time>2020-11-13T09:33:42.000Z</time>
      </trkpt>
      <trkpt lat="49.84769" lon="4.83884">
        <ele>352</ele>
        <time>2020-11-13T09:33:43.000Z</time>
      </trkpt>
      <trkpt lat="49.84766" lon="4.83889">
        <ele>352</ele>
        <time>2020-11-13T09:33:44.000Z</time>
      </trkpt>
      <trkpt lat="49.84764" lon="4.83894">
        <ele>352</ele>
        <time>2020-11-13T09:33:45.000Z</time>
      </trkpt>
      <trkpt lat="49.84761" lon="4.83898">
        <ele>352</ele>
        <time>2020-11-13T09:33:46.000Z</time>
      </trkpt>
      <trkpt lat="49.84759" lon="4.83902">
        <ele>352</ele>
        <time>2020-11-13T09:33:47.000Z</time>
      </trkpt>
      <trkpt lat="49.84757" lon="4.83906">
        <ele>352</ele>
        <time>2020-11-13T09:33:48.000Z</time>
      </trkpt>
      <trkpt lat="49.84755" lon="4.83911">
        <ele>352</ele>
        <time>2020-11-13T09:33:49.000Z</time>
      </trkpt>
      <trkpt lat="49.84753" lon="4.83915">
        <ele>353</ele>
        <time>2020-11-13T09:33:50.000Z</time>
      </trkpt>
      <trkpt lat="49.8475" lon="4.83919">
        <ele>353</ele>
        <time>2020-11-13T09:33:51.000Z</time>
      </trkpt>
      <trkpt lat="49.84748" lon="4.83924">
        <ele>353</ele>
        <time>2020-11-13T09:33:52.000Z</time>
      </trkpt>
      <trkpt lat="49.84746" lon="4.83929">
        <ele>353</ele>
        <time>2020-11-13T09:33:53.000Z</time>
      </trkpt>
      <trkpt lat="49.84744" lon="4.83934">
        <ele>353</ele>
        <time>2020-11-13T09:33:54.000Z</time>
      </trkpt>
      <trkpt lat="49.84742" lon="4.83938">
        <ele>353</ele>
        <time>2020-11-13T09:33:55.000Z</time>
      </trkpt>
      <trkpt lat="49.84739" lon="4.83942">
        <ele>353</ele>
        <time>2020-11-13T09:33:56.000Z</time>
      </trkpt>
      <trkpt lat="49.84737" lon="4.83946">
        <ele>353</ele>
        <time>2020-11-13T09:33:57.000Z</time>
      </trkpt>
      <trkpt lat="49.84736" lon="4.8395">
        <ele>353</ele>
        <time>2020-11-13T09:33:58.000Z</time>
      </trkpt>
      <trkpt lat="49.84734" lon="4.83953">
        <ele>353</ele>
        <time>2020-11-13T09:33:59.000Z</time>
      </trkpt>
      <trkpt lat="49.84732" lon="4.83957">
        <ele>353</ele>
        <time>2020-11-13T09:34:00.000Z</time>
      </trkpt>
      <trkpt lat="49.8473" lon="4.8396">
        <ele>353</ele>
        <time>2020-11-13T09:34:01.000Z</time>
      </trkpt>
      <trkpt lat="49.84727" lon="4.83963">
        <ele>354</ele>
        <time>2020-11-13T09:34:02.000Z</time>
      </trkpt>
      <trkpt lat="49.84725" lon="4.83966">
        <ele>354</ele>
        <time>2020-11-13T09:34:03.000Z</time>
      </trkpt>
      <trkpt lat="49.84723" lon="4.83968">
        <ele>354</ele>
        <time>2020-11-13T09:34:04.000Z</time>
      </trkpt>
      <trkpt lat="49.8472" lon="4.8397">
        <ele>354</ele>
        <time>2020-11-13T09:34:05.000Z</time>
      </trkpt>
      <trkpt lat="49.84718" lon="4.83971">
        <ele>354</ele>
        <time>2020-11-13T09:34:06.000Z</time>
      </trkpt>
      <trkpt lat="49.84716" lon="4.83973">
        <ele>354</ele>
        <time>2020-11-13T09:34:07.000Z</time>
      </trkpt>
      <trkpt lat="49.84713" lon="4.83974">
        <ele>354</ele>
        <time>2020-11-13T09:34:08.000Z</time>
      </trkpt>
      <trkpt lat="49.8471" lon="4.83975">
        <ele>355</ele>
        <time>2020-11-13T09:34:09.000Z</time>
      </trkpt>
      <trkpt lat="49.84707" lon="4.83976">
        <ele>355</ele>
        <time>2020-11-13T09:34:10.000Z</time>
      </trkpt>
      <trkpt lat="49.84703" lon="4.83977">
        <ele>355</ele>
        <time>2020-11-13T09:34:11.000Z</time>
      </trkpt>
      <trkpt lat="49.84699" lon="4.83978">
        <ele>355</ele>
        <time>2020-11-13T09:34:12.000Z</time>
      </trkpt>
      <trkpt lat="49.84696" lon="4.8398">
        <ele>355</ele>
        <time>2020-11-13T09:34:13.000Z</time>
      </trkpt>
      <trkpt lat="49.84692" lon="4.83982">
        <ele>355</ele>
        <time>2020-11-13T09:34:14.000Z</time>
      </trkpt>
      <trkpt lat="49.84689" lon="4.83983">
        <ele>356</ele>
        <time>2020-11-13T09:34:15.000Z</time>
      </trkpt>
      <trkpt lat="49.84686" lon="4.83984">
        <ele>356</ele>
        <time>2020-11-13T09:34:16.000Z</time>
      </trkpt>
      <trkpt lat="49.84683" lon="4.83985">
        <ele>356</ele>
        <time>2020-11-13T09:34:17.000Z</time>
      </trkpt>
      <trkpt lat="49.8468" lon="4.83985">
        <ele>356</ele>
        <time>2020-11-13T09:34:18.000Z</time>
      </trkpt>
      <trkpt lat="49.84677" lon="4.83986">
        <ele>356</ele>
        <time>2020-11-13T09:34:19.000Z</time>
      </trkpt>
      <trkpt lat="49.84675" lon="4.83986">
        <ele>357</ele>
        <time>2020-11-13T09:34:20.000Z</time>
      </trkpt>
      <trkpt lat="49.84671" lon="4.83987">
        <ele>357</ele>
        <time>2020-11-13T09:34:21.000Z</time>
      </trkpt>
      <trkpt lat="49.84668" lon="4.83988">
        <ele>357</ele>
        <time>2020-11-13T09:34:22.000Z</time>
      </trkpt>
      <trkpt lat="49.84665" lon="4.83989">
        <ele>357</ele>
        <time>2020-11-13T09:34:23.000Z</time>
      </trkpt>
      <trkpt lat="49.84662" lon="4.83989">
        <ele>358</ele>
        <time>2020-11-13T09:34:24.000Z</time>
      </trkpt>
      <trkpt lat="49.84659" lon="4.8399">
        <ele>358</ele>
        <time>2020-11-13T09:34:25.000Z</time>
      </trkpt>
      <trkpt lat="49.84656" lon="4.83991">
        <ele>358</ele>
        <time>2020-11-13T09:34:26.000Z</time>
      </trkpt>
      <trkpt lat="49.84654" lon="4.83991">
        <ele>358</ele>
        <time>2020-11-13T09:34:27.000Z</time>
      </trkpt>
      <trkpt lat="49.84651" lon="4.83992">
        <ele>358</ele>
        <time>2020-11-13T09:34:28.000Z</time>
      </trkpt>
      <trkpt lat="49.84649" lon="4.83993">
        <ele>358</ele>
        <time>2020-11-13T09:34:29.000Z</time>
      </trkpt>
      <trkpt lat="49.84648" lon="4.83993">
        <ele>359</ele>
        <time>2020-11-13T09:34:30.000Z</time>
      </trkpt>
      <trkpt lat="49.84646" lon="4.83994">
        <ele>359</ele>
        <time>2020-11-13T09:34:31.000Z</time>
      </trkpt>
      <trkpt lat="49.84643" lon="4.83994">
        <ele>359</ele>
        <time>2020-11-13T09:34:32.000Z</time>
      </trkpt>
      <trkpt lat="49.84641" lon="4.83994">
        <ele>359</ele>
        <time>2020-11-13T09:34:33.000Z</time>
      </trkpt>
      <trkpt lat="49.84639" lon="4.83994">
        <ele>359</ele>
        <time>2020-11-13T09:34:34.000Z</time>
      </trkpt>
      <trkpt lat="49.84637" lon="4.83995">
        <ele>359</ele>
        <time>2020-11-13T09:34:35.000Z</time>
      </trkpt>
      <trkpt lat="49.84634" lon="4.83996">
        <ele>359</ele>
        <time>2020-11-13T09:34:36.000Z</time>
      </trkpt>
      <trkpt lat="49.84632" lon="4.83997">
        <ele>359</ele>
        <time>2020-11-13T09:34:37.000Z</time>
      </trkpt>
      <trkpt lat="49.8463" lon="4.83997">
        <ele>360</ele>
        <time>2020-11-13T09:34:38.000Z</time>
      </trkpt>
      <trkpt lat="49.84628" lon="4.83998">
        <ele>360</ele>
        <time>2020-11-13T09:34:39.000Z</time>
      </trkpt>
      <trkpt lat="49.84626" lon="4.83998">
        <ele>360</ele>
        <time>2020-11-13T09:34:40.000Z</time>
      </trkpt>
      <trkpt lat="49.84624" lon="4.83999">
        <ele>360</ele>
        <time>2020-11-13T09:34:41.000Z</time>
      </trkpt>
      <trkpt lat="49.84621" lon="4.84">
        <ele>360</ele>
        <time>2020-11-13T09:34:42.000Z</time>
      </trkpt>
      <trkpt lat="49.84619" lon="4.84">
        <ele>361</ele>
        <time>2020-11-13T09:34:43.000Z</time>
      </trkpt>
      <trkpt lat="49.84616" lon="4.84001">
        <ele>361</ele>
        <time>2020-11-13T09:34:44.000Z</time>
      </trkpt>
      <trkpt lat="49.84613" lon="4.84002">
        <ele>361</ele>
        <time>2020-11-13T09:34:45.000Z</time>
      </trkpt>
      <trkpt lat="49.8461" lon="4.84003">
        <ele>361</ele>
        <time>2020-11-13T09:34:46.000Z</time>
      </trkpt>
      <trkpt lat="49.84608" lon="4.84004">
        <ele>361</ele>
        <time>2020-11-13T09:34:47.000Z</time>
      </trkpt>
      <trkpt lat="49.84605" lon="4.84006">
        <ele>362</ele>
        <time>2020-11-13T09:34:48.000Z</time>
      </trkpt>
      <trkpt lat="49.84603" lon="4.84008">
        <ele>362</ele>
        <time>2020-11-13T09:34:49.000Z</time>
      </trkpt>
      <trkpt lat="49.846" lon="4.8401">
        <ele>362</ele>
        <time>2020-11-13T09:34:50.000Z</time>
      </trkpt>
      <trkpt lat="49.84597" lon="4.84013">
        <ele>362</ele>
        <time>2020-11-13T09:34:51.000Z</time>
      </trkpt>
      <trkpt lat="49.84594" lon="4.84016">
        <ele>362</ele>
        <time>2020-11-13T09:34:52.000Z</time>
      </trkpt>
      <trkpt lat="49.8459" lon="4.84019">
        <ele>362</ele>
        <time>2020-11-13T09:34:53.000Z</time>
      </trkpt>
      <trkpt lat="49.84586" lon="4.84022">
        <ele>362</ele>
        <time>2020-11-13T09:34:54.000Z</time>
      </trkpt>
      <trkpt lat="49.84583" lon="4.84026">
        <ele>362</ele>
        <time>2020-11-13T09:34:55.000Z</time>
      </trkpt>
      <trkpt lat="49.84579" lon="4.84029">
        <ele>362</ele>
        <time>2020-11-13T09:34:56.000Z</time>
      </trkpt>
      <trkpt lat="49.84576" lon="4.84032">
        <ele>362</ele>
        <time>2020-11-13T09:34:57.000Z</time>
      </trkpt>
      <trkpt lat="49.84573" lon="4.84035">
        <ele>361</ele>
        <time>2020-11-13T09:34:58.000Z</time>
      </trkpt>
      <trkpt lat="49.84571" lon="4.84039">
        <ele>361</ele>
        <time>2020-11-13T09:34:59.000Z</time>
      </trkpt>
      <trkpt lat="49.84568" lon="4.84042">
        <ele>361</ele>
        <time>2020-11-13T09:35:00.000Z</time>
      </trkpt>
      <trkpt lat="49.84565" lon="4.84044">
        <ele>361</ele>
        <time>2020-11-13T09:35:01.000Z</time>
      </trkpt>
      <trkpt lat="49.84562" lon="4.84048">
        <ele>361</ele>
        <time>2020-11-13T09:35:02.000Z</time>
      </trkpt>
      <trkpt lat="49.84559" lon="4.8405">
        <ele>361</ele>
        <time>2020-11-13T09:35:03.000Z</time>
      </trkpt>
      <trkpt lat="49.84557" lon="4.84054">
        <ele>361</ele>
        <time>2020-11-13T09:35:04.000Z</time>
      </trkpt>
      <trkpt lat="49.84554" lon="4.84056">
        <ele>361</ele>
        <time>2020-11-13T09:35:05.000Z</time>
      </trkpt>
      <trkpt lat="49.84552" lon="4.84057">
        <ele>361</ele>
        <time>2020-11-13T09:35:06.000Z</time>
      </trkpt>
      <trkpt lat="49.84552" lon="4.84058">
        <ele>361</ele>
        <time>2020-11-13T09:35:07.000Z</time>
      </trkpt>
      <trkpt lat="49.84551" lon="4.84058">
        <ele>361</ele>
        <time>2020-11-13T09:35:08.000Z</time>
      </trkpt>
      <trkpt lat="49.84551" lon="4.84059">
        <ele>361</ele>
        <time>2020-11-13T09:35:09.000Z</time>
      </trkpt>
      <trkpt lat="49.8455" lon="4.8406">
        <ele>361</ele>
        <time>2020-11-13T09:35:10.000Z</time>
      </trkpt>
      <trkpt lat="49.84549" lon="4.84061">
        <ele>362</ele>
        <time>2020-11-13T09:35:11.000Z</time>
      </trkpt>
      <trkpt lat="49.84548" lon="4.84061">
        <ele>362</ele>
        <time>2020-11-13T09:35:12.000Z</time>
      </trkpt>
      <trkpt lat="49.84548" lon="4.84062">
        <ele>362</ele>
        <time>2020-11-13T09:35:13.000Z</time>
      </trkpt>
      <trkpt lat="49.84547" lon="4.84063">
        <ele>362</ele>
        <time>2020-11-13T09:35:14.000Z</time>
      </trkpt>
      <trkpt lat="49.84547" lon="4.84064">
        <ele>362</ele>
        <time>2020-11-13T09:35:15.000Z</time>
      </trkpt>
      <trkpt lat="49.84546" lon="4.84066">
        <ele>363</ele>
        <time>2020-11-13T09:35:16.000Z</time>
      </trkpt>
      <trkpt lat="49.84545" lon="4.84068">
        <ele>363</ele>
        <time>2020-11-13T09:35:17.000Z</time>
      </trkpt>
      <trkpt lat="49.84543" lon="4.84071">
        <ele>363</ele>
        <time>2020-11-13T09:35:18.000Z</time>
      </trkpt>
      <trkpt lat="49.84542" lon="4.84073">
        <ele>363</ele>
        <time>2020-11-13T09:35:19.000Z</time>
      </trkpt>
      <trkpt lat="49.84541" lon="4.84076">
        <ele>363</ele>
        <time>2020-11-13T09:35:20.000Z</time>
      </trkpt>
      <trkpt lat="49.84539" lon="4.84079">
        <ele>363</ele>
        <time>2020-11-13T09:35:21.000Z</time>
      </trkpt>
      <trkpt lat="49.84537" lon="4.84083">
        <ele>363</ele>
        <time>2020-11-13T09:35:22.000Z</time>
      </trkpt>
      <trkpt lat="49.84535" lon="4.84087">
        <ele>363</ele>
        <time>2020-11-13T09:35:23.000Z</time>
      </trkpt>
      <trkpt lat="49.84532" lon="4.84091">
        <ele>363</ele>
        <time>2020-11-13T09:35:24.000Z</time>
      </trkpt>
      <trkpt lat="49.8453" lon="4.84093">
        <ele>363</ele>
        <time>2020-11-13T09:35:25.000Z</time>
      </trkpt>
      <trkpt lat="49.84527" lon="4.84095">
        <ele>363</ele>
        <time>2020-11-13T09:35:26.000Z</time>
      </trkpt>
      <trkpt lat="49.84525" lon="4.84098">
        <ele>363</ele>
        <time>2020-11-13T09:35:27.000Z</time>
      </trkpt>
      <trkpt lat="49.84522" lon="4.84102">
        <ele>363</ele>
        <time>2020-11-13T09:35:28.000Z</time>
      </trkpt>
      <trkpt lat="49.84518" lon="4.84106">
        <ele>363</ele>
        <time>2020-11-13T09:35:29.000Z</time>
      </trkpt>
      <trkpt lat="49.84515" lon="4.8411">
        <ele>363</ele>
        <time>2020-11-13T09:35:30.000Z</time>
      </trkpt>
      <trkpt lat="49.84512" lon="4.84114">
        <ele>363</ele>
        <time>2020-11-13T09:35:31.000Z</time>
      </trkpt>
      <trkpt lat="49.84509" lon="4.84118">
        <ele>363</ele>
        <time>2020-11-13T09:35:32.000Z</time>
      </trkpt>
      <trkpt lat="49.84506" lon="4.84123">
        <ele>363</ele>
        <time>2020-11-13T09:35:33.000Z</time>
      </trkpt>
      <trkpt lat="49.84503" lon="4.84128">
        <ele>362</ele>
        <time>2020-11-13T09:35:34.000Z</time>
      </trkpt>
      <trkpt lat="49.845" lon="4.84132">
        <ele>362</ele>
        <time>2020-11-13T09:35:35.000Z</time>
      </trkpt>
      <trkpt lat="49.84496" lon="4.84137">
        <ele>362</ele>
        <time>2020-11-13T09:35:36.000Z</time>
      </trkpt>
      <trkpt lat="49.84491" lon="4.84142">
        <ele>362</ele>
        <time>2020-11-13T09:35:37.000Z</time>
      </trkpt>
      <trkpt lat="49.84487" lon="4.84147">
        <ele>362</ele>
        <time>2020-11-13T09:35:38.000Z</time>
      </trkpt>
      <trkpt lat="49.84482" lon="4.84152">
        <ele>362</ele>
        <time>2020-11-13T09:35:39.000Z</time>
      </trkpt>
      <trkpt lat="49.84477" lon="4.84157">
        <ele>362</ele>
        <time>2020-11-13T09:35:40.000Z</time>
      </trkpt>
      <trkpt lat="49.84472" lon="4.84161">
        <ele>362</ele>
        <time>2020-11-13T09:35:41.000Z</time>
      </trkpt>
      <trkpt lat="49.84468" lon="4.84166">
        <ele>362</ele>
        <time>2020-11-13T09:35:42.000Z</time>
      </trkpt>
      <trkpt lat="49.84463" lon="4.84171">
        <ele>362</ele>
        <time>2020-11-13T09:35:43.000Z</time>
      </trkpt>
      <trkpt lat="49.84459" lon="4.84175">
        <ele>362</ele>
        <time>2020-11-13T09:35:44.000Z</time>
      </trkpt>
      <trkpt lat="49.84454" lon="4.8418">
        <ele>362</ele>
        <time>2020-11-13T09:35:45.000Z</time>
      </trkpt>
      <trkpt lat="49.8445" lon="4.84185">
        <ele>361</ele>
        <time>2020-11-13T09:35:46.000Z</time>
      </trkpt>
      <trkpt lat="49.84445" lon="4.8419">
        <ele>361</ele>
        <time>2020-11-13T09:35:47.000Z</time>
      </trkpt>
      <trkpt lat="49.84442" lon="4.84195">
        <ele>361</ele>
        <time>2020-11-13T09:35:48.000Z</time>
      </trkpt>
      <trkpt lat="49.84437" lon="4.842">
        <ele>361</ele>
        <time>2020-11-13T09:35:49.000Z</time>
      </trkpt>
      <trkpt lat="49.84433" lon="4.84204">
        <ele>361</ele>
        <time>2020-11-13T09:35:50.000Z</time>
      </trkpt>
      <trkpt lat="49.84429" lon="4.84207">
        <ele>361</ele>
        <time>2020-11-13T09:35:51.000Z</time>
      </trkpt>
      <trkpt lat="49.84424" lon="4.84211">
        <ele>361</ele>
        <time>2020-11-13T09:35:52.000Z</time>
      </trkpt>
      <trkpt lat="49.8442" lon="4.84214">
        <ele>361</ele>
        <time>2020-11-13T09:35:53.000Z</time>
      </trkpt>
      <trkpt lat="49.84416" lon="4.84216">
        <ele>361</ele>
        <time>2020-11-13T09:35:54.000Z</time>
      </trkpt>
      <trkpt lat="49.84411" lon="4.84218">
        <ele>361</ele>
        <time>2020-11-13T09:35:55.000Z</time>
      </trkpt>
      <trkpt lat="49.84407" lon="4.8422">
        <ele>361</ele>
        <time>2020-11-13T09:35:56.000Z</time>
      </trkpt>
      <trkpt lat="49.84402" lon="4.84222">
        <ele>361</ele>
        <time>2020-11-13T09:35:57.000Z</time>
      </trkpt>
      <trkpt lat="49.84398" lon="4.84226">
        <ele>361</ele>
        <time>2020-11-13T09:35:58.000Z</time>
      </trkpt>
      <trkpt lat="49.84395" lon="4.84229">
        <ele>361</ele>
        <time>2020-11-13T09:35:59.000Z</time>
      </trkpt>
      <trkpt lat="49.84391" lon="4.8423">
        <ele>361</ele>
        <time>2020-11-13T09:36:00.000Z</time>
      </trkpt>
      <trkpt lat="49.84387" lon="4.84231">
        <ele>361</ele>
        <time>2020-11-13T09:36:01.000Z</time>
      </trkpt>
      <trkpt lat="49.84383" lon="4.84232">
        <ele>361</ele>
        <time>2020-11-13T09:36:02.000Z</time>
      </trkpt>
      <trkpt lat="49.84378" lon="4.84232">
        <ele>360</ele>
        <time>2020-11-13T09:36:03.000Z</time>
      </trkpt>
      <trkpt lat="49.84374" lon="4.84233">
        <ele>360</ele>
        <time>2020-11-13T09:36:04.000Z</time>
      </trkpt>
      <trkpt lat="49.84369" lon="4.84235">
        <ele>360</ele>
        <time>2020-11-13T09:36:05.000Z</time>
      </trkpt>
      <trkpt lat="49.84365" lon="4.84236">
        <ele>360</ele>
        <time>2020-11-13T09:36:06.000Z</time>
      </trkpt>
      <trkpt lat="49.84361" lon="4.84236">
        <ele>360</ele>
        <time>2020-11-13T09:36:07.000Z</time>
      </trkpt>
      <trkpt lat="49.84356" lon="4.84237">
        <ele>360</ele>
        <time>2020-11-13T09:36:08.000Z</time>
      </trkpt>
      <trkpt lat="49.84352" lon="4.84238">
        <ele>360</ele>
        <time>2020-11-13T09:36:09.000Z</time>
      </trkpt>
      <trkpt lat="49.84348" lon="4.84239">
        <ele>360</ele>
        <time>2020-11-13T09:36:10.000Z</time>
      </trkpt>
      <trkpt lat="49.84344" lon="4.8424">
        <ele>360</ele>
        <time>2020-11-13T09:36:11.000Z</time>
      </trkpt>
      <trkpt lat="49.8434" lon="4.84241">
        <ele>360</ele>
        <time>2020-11-13T09:36:12.000Z</time>
      </trkpt>
      <trkpt lat="49.84336" lon="4.84243">
        <ele>359</ele>
        <time>2020-11-13T09:36:13.000Z</time>
      </trkpt>
      <trkpt lat="49.84332" lon="4.84244">
        <ele>359</ele>
        <time>2020-11-13T09:36:14.000Z</time>
      </trkpt>
      <trkpt lat="49.84329" lon="4.84245">
        <ele>359</ele>
        <time>2020-11-13T09:36:15.000Z</time>
      </trkpt>
      <trkpt lat="49.84325" lon="4.84247">
        <ele>359</ele>
        <time>2020-11-13T09:36:16.000Z</time>
      </trkpt>
      <trkpt lat="49.84322" lon="4.84248">
        <ele>359</ele>
        <time>2020-11-13T09:36:17.000Z</time>
      </trkpt>
      <trkpt lat="49.8432" lon="4.84249">
        <ele>359</ele>
        <time>2020-11-13T09:36:18.000Z</time>
      </trkpt>
      <trkpt lat="49.84318" lon="4.84249">
        <ele>358</ele>
        <time>2020-11-13T09:36:19.000Z</time>
      </trkpt>
      <trkpt lat="49.84315" lon="4.8425">
        <ele>358</ele>
        <time>2020-11-13T09:36:20.000Z</time>
      </trkpt>
      <trkpt lat="49.84312" lon="4.84252">
        <ele>358</ele>
        <time>2020-11-13T09:36:21.000Z</time>
      </trkpt>
      <trkpt lat="49.84309" lon="4.84253">
        <ele>358</ele>
        <time>2020-11-13T09:36:22.000Z</time>
      </trkpt>
      <trkpt lat="49.84307" lon="4.84254">
        <ele>358</ele>
        <time>2020-11-13T09:36:23.000Z</time>
      </trkpt>
      <trkpt lat="49.84303" lon="4.84257">
        <ele>358</ele>
        <time>2020-11-13T09:36:24.000Z</time>
      </trkpt>
      <trkpt lat="49.84298" lon="4.84259">
        <ele>357</ele>
        <time>2020-11-13T09:36:25.000Z</time>
      </trkpt>
      <trkpt lat="49.84295" lon="4.84261">
        <ele>357</ele>
        <time>2020-11-13T09:36:26.000Z</time>
      </trkpt>
      <trkpt lat="49.8429" lon="4.84264">
        <ele>357</ele>
        <time>2020-11-13T09:36:27.000Z</time>
      </trkpt>
      <trkpt lat="49.84285" lon="4.84266">
        <ele>357</ele>
        <time>2020-11-13T09:36:28.000Z</time>
      </trkpt>
      <trkpt lat="49.8428" lon="4.8427">
        <ele>357</ele>
        <time>2020-11-13T09:36:29.000Z</time>
      </trkpt>
      <trkpt lat="49.84275" lon="4.84273">
        <ele>357</ele>
        <time>2020-11-13T09:36:30.000Z</time>
      </trkpt>
      <trkpt lat="49.8427" lon="4.84278">
        <ele>357</ele>
        <time>2020-11-13T09:36:31.000Z</time>
      </trkpt>
      <trkpt lat="49.84266" lon="4.84283">
        <ele>356</ele>
        <time>2020-11-13T09:36:32.000Z</time>
      </trkpt>
      <trkpt lat="49.84262" lon="4.84289">
        <ele>356</ele>
        <time>2020-11-13T09:36:33.000Z</time>
      </trkpt>
      <trkpt lat="49.84258" lon="4.84294">
        <ele>356</ele>
        <time>2020-11-13T09:36:34.000Z</time>
      </trkpt>
      <trkpt lat="49.84255" lon="4.843">
        <ele>356</ele>
        <time>2020-11-13T09:36:35.000Z</time>
      </trkpt>
      <trkpt lat="49.84251" lon="4.84304">
        <ele>355</ele>
        <time>2020-11-13T09:36:36.000Z</time>
      </trkpt>
      <trkpt lat="49.84246" lon="4.84307">
        <ele>355</ele>
        <time>2020-11-13T09:36:37.000Z</time>
      </trkpt>
      <trkpt lat="49.8424" lon="4.84308">
        <ele>355</ele>
        <time>2020-11-13T09:36:38.000Z</time>
      </trkpt>
      <trkpt lat="49.84235" lon="4.84308">
        <ele>355</ele>
        <time>2020-11-13T09:36:39.000Z</time>
      </trkpt>
      <trkpt lat="49.84229" lon="4.84308">
        <ele>355</ele>
        <time>2020-11-13T09:36:40.000Z</time>
      </trkpt>
      <trkpt lat="49.84223" lon="4.84308">
        <ele>355</ele>
        <time>2020-11-13T09:36:41.000Z</time>
      </trkpt>
      <trkpt lat="49.84217" lon="4.84309">
        <ele>355</ele>
        <time>2020-11-13T09:36:42.000Z</time>
      </trkpt>
      <trkpt lat="49.84211" lon="4.84309">
        <ele>355</ele>
        <time>2020-11-13T09:36:43.000Z</time>
      </trkpt>
      <trkpt lat="49.84205" lon="4.84308">
        <ele>355</ele>
        <time>2020-11-13T09:36:44.000Z</time>
      </trkpt>
      <trkpt lat="49.84199" lon="4.84308">
        <ele>355</ele>
        <time>2020-11-13T09:36:45.000Z</time>
      </trkpt>
      <trkpt lat="49.84193" lon="4.84307">
        <ele>354</ele>
        <time>2020-11-13T09:36:46.000Z</time>
      </trkpt>
      <trkpt lat="49.84187" lon="4.84307">
        <ele>354</ele>
        <time>2020-11-13T09:36:47.000Z</time>
      </trkpt>
      <trkpt lat="49.8418" lon="4.84307">
        <ele>354</ele>
        <time>2020-11-13T09:36:48.000Z</time>
      </trkpt>
      <trkpt lat="49.84173" lon="4.84307">
        <ele>355</ele>
        <time>2020-11-13T09:36:49.000Z</time>
      </trkpt>
      <trkpt lat="49.84166" lon="4.84307">
        <ele>355</ele>
        <time>2020-11-13T09:36:50.000Z</time>
      </trkpt>
      <trkpt lat="49.8416" lon="4.84306">
        <ele>355</ele>
        <time>2020-11-13T09:36:51.000Z</time>
      </trkpt>
      <trkpt lat="49.84154" lon="4.84305">
        <ele>355</ele>
        <time>2020-11-13T09:36:52.000Z</time>
      </trkpt>
      <trkpt lat="49.84148" lon="4.84305">
        <ele>355</ele>
        <time>2020-11-13T09:36:53.000Z</time>
      </trkpt>
      <trkpt lat="49.84142" lon="4.84305">
        <ele>355</ele>
        <time>2020-11-13T09:36:54.000Z</time>
      </trkpt>
      <trkpt lat="49.84136" lon="4.84304">
        <ele>355</ele>
        <time>2020-11-13T09:36:55.000Z</time>
      </trkpt>
      <trkpt lat="49.8413" lon="4.84302">
        <ele>355</ele>
        <time>2020-11-13T09:36:56.000Z</time>
      </trkpt>
      <trkpt lat="49.84124" lon="4.84301">
        <ele>355</ele>
        <time>2020-11-13T09:36:57.000Z</time>
      </trkpt>
      <trkpt lat="49.84118" lon="4.843">
        <ele>355</ele>
        <time>2020-11-13T09:36:58.000Z</time>
      </trkpt>
      <trkpt lat="49.84112" lon="4.84299">
        <ele>355</ele>
        <time>2020-11-13T09:36:59.000Z</time>
      </trkpt>
      <trkpt lat="49.84106" lon="4.84298">
        <ele>355</ele>
        <time>2020-11-13T09:37:00.000Z</time>
      </trkpt>
      <trkpt lat="49.84101" lon="4.84296">
        <ele>355</ele>
        <time>2020-11-13T09:37:01.000Z</time>
      </trkpt>
      <trkpt lat="49.84096" lon="4.84295">
        <ele>355</ele>
        <time>2020-11-13T09:37:02.000Z</time>
      </trkpt>
      <trkpt lat="49.8409" lon="4.84294">
        <ele>355</ele>
        <time>2020-11-13T09:37:03.000Z</time>
      </trkpt>
      <trkpt lat="49.84085" lon="4.84292">
        <ele>355</ele>
        <time>2020-11-13T09:37:04.000Z</time>
      </trkpt>
      <trkpt lat="49.84079" lon="4.8429">
        <ele>355</ele>
        <time>2020-11-13T09:37:05.000Z</time>
      </trkpt>
      <trkpt lat="49.84072" lon="4.84289">
        <ele>355</ele>
        <time>2020-11-13T09:37:06.000Z</time>
      </trkpt>
      <trkpt lat="49.84066" lon="4.84287">
        <ele>355</ele>
        <time>2020-11-13T09:37:07.000Z</time>
      </trkpt>
      <trkpt lat="49.8406" lon="4.84286">
        <ele>355</ele>
        <time>2020-11-13T09:37:08.000Z</time>
      </trkpt>
      <trkpt lat="49.84053" lon="4.84284">
        <ele>355</ele>
        <time>2020-11-13T09:37:09.000Z</time>
      </trkpt>
      <trkpt lat="49.84046" lon="4.84283">
        <ele>355</ele>
        <time>2020-11-13T09:37:10.000Z</time>
      </trkpt>
      <trkpt lat="49.8404" lon="4.84281">
        <ele>355</ele>
        <time>2020-11-13T09:37:11.000Z</time>
      </trkpt>
      <trkpt lat="49.84033" lon="4.8428">
        <ele>355</ele>
        <time>2020-11-13T09:37:12.000Z</time>
      </trkpt>
      <trkpt lat="49.84026" lon="4.84278">
        <ele>355</ele>
        <time>2020-11-13T09:37:13.000Z</time>
      </trkpt>
      <trkpt lat="49.84019" lon="4.84277">
        <ele>355</ele>
        <time>2020-11-13T09:37:14.000Z</time>
      </trkpt>
      <trkpt lat="49.84012" lon="4.84275">
        <ele>355</ele>
        <time>2020-11-13T09:37:15.000Z</time>
      </trkpt>
      <trkpt lat="49.84006" lon="4.84273">
        <ele>355</ele>
        <time>2020-11-13T09:37:16.000Z</time>
      </trkpt>
      <trkpt lat="49.84" lon="4.84271">
        <ele>355</ele>
        <time>2020-11-13T09:37:17.000Z</time>
      </trkpt>
      <trkpt lat="49.83993" lon="4.8427">
        <ele>354</ele>
        <time>2020-11-13T09:37:18.000Z</time>
      </trkpt>
      <trkpt lat="49.83986" lon="4.84268">
        <ele>354</ele>
        <time>2020-11-13T09:37:19.000Z</time>
      </trkpt>
      <trkpt lat="49.83979" lon="4.84267">
        <ele>354</ele>
        <time>2020-11-13T09:37:20.000Z</time>
      </trkpt>
      <trkpt lat="49.83972" lon="4.84265">
        <ele>354</ele>
        <time>2020-11-13T09:37:21.000Z</time>
      </trkpt>
      <trkpt lat="49.83966" lon="4.84264">
        <ele>354</ele>
        <time>2020-11-13T09:37:22.000Z</time>
      </trkpt>
      <trkpt lat="49.83959" lon="4.84262">
        <ele>354</ele>
        <time>2020-11-13T09:37:23.000Z</time>
      </trkpt>
      <trkpt lat="49.83953" lon="4.84261">
        <ele>354</ele>
        <time>2020-11-13T09:37:24.000Z</time>
      </trkpt>
      <trkpt lat="49.83947" lon="4.84259">
        <ele>354</ele>
        <time>2020-11-13T09:37:25.000Z</time>
      </trkpt>
      <trkpt lat="49.83941" lon="4.84258">
        <ele>354</ele>
        <time>2020-11-13T09:37:26.000Z</time>
      </trkpt>
      <trkpt lat="49.83934" lon="4.84256">
        <ele>354</ele>
        <time>2020-11-13T09:37:27.000Z</time>
      </trkpt>
      <trkpt lat="49.83927" lon="4.84255">
        <ele>353</ele>
        <time>2020-11-13T09:37:28.000Z</time>
      </trkpt>
      <trkpt lat="49.83921" lon="4.84254">
        <ele>353</ele>
        <time>2020-11-13T09:37:29.000Z</time>
      </trkpt>
      <trkpt lat="49.83914" lon="4.84253">
        <ele>353</ele>
        <time>2020-11-13T09:37:30.000Z</time>
      </trkpt>
      <trkpt lat="49.83907" lon="4.84251">
        <ele>353</ele>
        <time>2020-11-13T09:37:31.000Z</time>
      </trkpt>
      <trkpt lat="49.839" lon="4.8425">
        <ele>353</ele>
        <time>2020-11-13T09:37:32.000Z</time>
      </trkpt>
      <trkpt lat="49.83893" lon="4.84249">
        <ele>353</ele>
        <time>2020-11-13T09:37:33.000Z</time>
      </trkpt>
      <trkpt lat="49.83886" lon="4.84247">
        <ele>353</ele>
        <time>2020-11-13T09:37:34.000Z</time>
      </trkpt>
      <trkpt lat="49.83879" lon="4.84246">
        <ele>353</ele>
        <time>2020-11-13T09:37:35.000Z</time>
      </trkpt>
      <trkpt lat="49.83873" lon="4.84244">
        <ele>353</ele>
        <time>2020-11-13T09:37:36.000Z</time>
      </trkpt>
      <trkpt lat="49.83866" lon="4.84243">
        <ele>353</ele>
        <time>2020-11-13T09:37:37.000Z</time>
      </trkpt>
      <trkpt lat="49.8386" lon="4.84242">
        <ele>352</ele>
        <time>2020-11-13T09:37:38.000Z</time>
      </trkpt>
      <trkpt lat="49.83853" lon="4.84241">
        <ele>352</ele>
        <time>2020-11-13T09:37:39.000Z</time>
      </trkpt>
      <trkpt lat="49.83847" lon="4.8424">
        <ele>352</ele>
        <time>2020-11-13T09:37:40.000Z</time>
      </trkpt>
      <trkpt lat="49.83841" lon="4.84239">
        <ele>352</ele>
        <time>2020-11-13T09:37:41.000Z</time>
      </trkpt>
      <trkpt lat="49.83835" lon="4.84238">
        <ele>352</ele>
        <time>2020-11-13T09:37:42.000Z</time>
      </trkpt>
      <trkpt lat="49.83829" lon="4.84236">
        <ele>352</ele>
        <time>2020-11-13T09:37:43.000Z</time>
      </trkpt>
      <trkpt lat="49.83823" lon="4.84235">
        <ele>352</ele>
        <time>2020-11-13T09:37:44.000Z</time>
      </trkpt>
      <trkpt lat="49.83817" lon="4.84233">
        <ele>352</ele>
        <time>2020-11-13T09:37:45.000Z</time>
      </trkpt>
      <trkpt lat="49.83812" lon="4.84232">
        <ele>352</ele>
        <time>2020-11-13T09:37:46.000Z</time>
      </trkpt>
      <trkpt lat="49.83806" lon="4.84231">
        <ele>351</ele>
        <time>2020-11-13T09:37:47.000Z</time>
      </trkpt>
      <trkpt lat="49.83801" lon="4.8423">
        <ele>351</ele>
        <time>2020-11-13T09:37:48.000Z</time>
      </trkpt>
      <trkpt lat="49.83797" lon="4.84229">
        <ele>351</ele>
        <time>2020-11-13T09:37:49.000Z</time>
      </trkpt>
      <trkpt lat="49.83792" lon="4.84227">
        <ele>351</ele>
        <time>2020-11-13T09:37:50.000Z</time>
      </trkpt>
      <trkpt lat="49.83787" lon="4.84226">
        <ele>351</ele>
        <time>2020-11-13T09:37:51.000Z</time>
      </trkpt>
      <trkpt lat="49.83783" lon="4.84225">
        <ele>351</ele>
        <time>2020-11-13T09:37:52.000Z</time>
      </trkpt>
      <trkpt lat="49.83778" lon="4.84225">
        <ele>351</ele>
        <time>2020-11-13T09:37:53.000Z</time>
      </trkpt>
      <trkpt lat="49.83774" lon="4.84224">
        <ele>351</ele>
        <time>2020-11-13T09:37:54.000Z</time>
      </trkpt>
      <trkpt lat="49.83769" lon="4.84223">
        <ele>351</ele>
        <time>2020-11-13T09:37:55.000Z</time>
      </trkpt>
      <trkpt lat="49.83764" lon="4.84223">
        <ele>351</ele>
        <time>2020-11-13T09:37:56.000Z</time>
      </trkpt>
      <trkpt lat="49.8376" lon="4.84223">
        <ele>351</ele>
        <time>2020-11-13T09:37:57.000Z</time>
      </trkpt>
      <trkpt lat="49.83756" lon="4.84222">
        <ele>351</ele>
        <time>2020-11-13T09:37:58.000Z</time>
      </trkpt>
      <trkpt lat="49.83752" lon="4.84221">
        <ele>351</ele>
        <time>2020-11-13T09:37:59.000Z</time>
      </trkpt>
      <trkpt lat="49.83748" lon="4.8422">
        <ele>351</ele>
        <time>2020-11-13T09:38:00.000Z</time>
      </trkpt>
      <trkpt lat="49.83745" lon="4.84219">
        <ele>351</ele>
        <time>2020-11-13T09:38:01.000Z</time>
      </trkpt>
      <trkpt lat="49.83741" lon="4.84217">
        <ele>351</ele>
        <time>2020-11-13T09:38:02.000Z</time>
      </trkpt>
      <trkpt lat="49.83737" lon="4.84216">
        <ele>352</ele>
        <time>2020-11-13T09:38:03.000Z</time>
      </trkpt>
      <trkpt lat="49.83733" lon="4.84216">
        <ele>352</ele>
        <time>2020-11-13T09:38:04.000Z</time>
      </trkpt>
      <trkpt lat="49.83729" lon="4.84215">
        <ele>352</ele>
        <time>2020-11-13T09:38:05.000Z</time>
      </trkpt>
      <trkpt lat="49.83725" lon="4.84214">
        <ele>352</ele>
        <time>2020-11-13T09:38:06.000Z</time>
      </trkpt>
      <trkpt lat="49.8372" lon="4.84212">
        <ele>352</ele>
        <time>2020-11-13T09:38:07.000Z</time>
      </trkpt>
      <trkpt lat="49.83716" lon="4.84211">
        <ele>352</ele>
        <time>2020-11-13T09:38:08.000Z</time>
      </trkpt>
      <trkpt lat="49.83711" lon="4.84211">
        <ele>353</ele>
        <time>2020-11-13T09:38:09.000Z</time>
      </trkpt>
      <trkpt lat="49.83707" lon="4.84209">
        <ele>353</ele>
        <time>2020-11-13T09:38:10.000Z</time>
      </trkpt>
      <trkpt lat="49.83702" lon="4.84209">
        <ele>353</ele>
        <time>2020-11-13T09:38:11.000Z</time>
      </trkpt>
      <trkpt lat="49.83698" lon="4.84208">
        <ele>353</ele>
        <time>2020-11-13T09:38:12.000Z</time>
      </trkpt>
      <trkpt lat="49.83694" lon="4.84207">
        <ele>354</ele>
        <time>2020-11-13T09:38:13.000Z</time>
      </trkpt>
      <trkpt lat="49.8369" lon="4.84206">
        <ele>354</ele>
        <time>2020-11-13T09:38:14.000Z</time>
      </trkpt>
      <trkpt lat="49.83686" lon="4.84206">
        <ele>354</ele>
        <time>2020-11-13T09:38:15.000Z</time>
      </trkpt>
      <trkpt lat="49.83682" lon="4.84205">
        <ele>354</ele>
        <time>2020-11-13T09:38:16.000Z</time>
      </trkpt>
      <trkpt lat="49.83677" lon="4.84204">
        <ele>354</ele>
        <time>2020-11-13T09:38:17.000Z</time>
      </trkpt>
      <trkpt lat="49.83673" lon="4.84204">
        <ele>355</ele>
        <time>2020-11-13T09:38:18.000Z</time>
      </trkpt>
      <trkpt lat="49.83669" lon="4.84203">
        <ele>355</ele>
        <time>2020-11-13T09:38:19.000Z</time>
      </trkpt>
      <trkpt lat="49.83666" lon="4.84204">
        <ele>355</ele>
        <time>2020-11-13T09:38:20.000Z</time>
      </trkpt>
      <trkpt lat="49.83663" lon="4.84205">
        <ele>355</ele>
        <time>2020-11-13T09:38:21.000Z</time>
      </trkpt>
      <trkpt lat="49.8366" lon="4.84205">
        <ele>355</ele>
        <time>2020-11-13T09:38:22.000Z</time>
      </trkpt>
      <trkpt lat="49.83658" lon="4.84206">
        <ele>356</ele>
        <time>2020-11-13T09:38:23.000Z</time>
      </trkpt>
      <trkpt lat="49.83656" lon="4.84208">
        <ele>356</ele>
        <time>2020-11-13T09:38:24.000Z</time>
      </trkpt>
      <trkpt lat="49.83653" lon="4.8421">
        <ele>356</ele>
        <time>2020-11-13T09:38:25.000Z</time>
      </trkpt>
      <trkpt lat="49.83651" lon="4.84213">
        <ele>356</ele>
        <time>2020-11-13T09:38:26.000Z</time>
      </trkpt>
      <trkpt lat="49.83649" lon="4.84216">
        <ele>356</ele>
        <time>2020-11-13T09:38:27.000Z</time>
      </trkpt>
      <trkpt lat="49.83647" lon="4.84221">
        <ele>356</ele>
        <time>2020-11-13T09:38:28.000Z</time>
      </trkpt>
      <trkpt lat="49.83645" lon="4.84227">
        <ele>356</ele>
        <time>2020-11-13T09:38:29.000Z</time>
      </trkpt>
      <trkpt lat="49.83641" lon="4.84235">
        <ele>356</ele>
        <time>2020-11-13T09:38:30.000Z</time>
      </trkpt>
      <trkpt lat="49.83637" lon="4.84245">
        <ele>355</ele>
        <time>2020-11-13T09:38:31.000Z</time>
      </trkpt>
      <trkpt lat="49.83634" lon="4.84254">
        <ele>355</ele>
        <time>2020-11-13T09:38:32.000Z</time>
      </trkpt>
      <trkpt lat="49.83629" lon="4.84264">
        <ele>355</ele>
        <time>2020-11-13T09:38:33.000Z</time>
      </trkpt>
      <trkpt lat="49.83625" lon="4.84275">
        <ele>355</ele>
        <time>2020-11-13T09:38:34.000Z</time>
      </trkpt>
      <trkpt lat="49.83621" lon="4.84286">
        <ele>355</ele>
        <time>2020-11-13T09:38:35.000Z</time>
      </trkpt>
      <trkpt lat="49.83617" lon="4.84297">
        <ele>355</ele>
        <time>2020-11-13T09:38:36.000Z</time>
      </trkpt>
      <trkpt lat="49.83614" lon="4.84307">
        <ele>355</ele>
        <time>2020-11-13T09:38:37.000Z</time>
      </trkpt>
      <trkpt lat="49.83611" lon="4.84317">
        <ele>355</ele>
        <time>2020-11-13T09:38:38.000Z</time>
      </trkpt>
      <trkpt lat="49.83608" lon="4.84328">
        <ele>355</ele>
        <time>2020-11-13T09:38:39.000Z</time>
      </trkpt>
      <trkpt lat="49.83605" lon="4.84338">
        <ele>354</ele>
        <time>2020-11-13T09:38:40.000Z</time>
      </trkpt>
      <trkpt lat="49.83603" lon="4.84348">
        <ele>354</ele>
        <time>2020-11-13T09:38:41.000Z</time>
      </trkpt>
      <trkpt lat="49.83601" lon="4.84358">
        <ele>354</ele>
        <time>2020-11-13T09:38:42.000Z</time>
      </trkpt>
      <trkpt lat="49.83599" lon="4.84369">
        <ele>354</ele>
        <time>2020-11-13T09:38:43.000Z</time>
      </trkpt>
      <trkpt lat="49.83597" lon="4.8438">
        <ele>354</ele>
        <time>2020-11-13T09:38:44.000Z</time>
      </trkpt>
      <trkpt lat="49.83595" lon="4.84391">
        <ele>354</ele>
        <time>2020-11-13T09:38:45.000Z</time>
      </trkpt>
      <trkpt lat="49.83593" lon="4.84401">
        <ele>354</ele>
        <time>2020-11-13T09:38:46.000Z</time>
      </trkpt>
      <trkpt lat="49.8359" lon="4.8441">
        <ele>354</ele>
        <time>2020-11-13T09:38:47.000Z</time>
      </trkpt>
      <trkpt lat="49.83588" lon="4.84419">
        <ele>354</ele>
        <time>2020-11-13T09:38:48.000Z</time>
      </trkpt>
      <trkpt lat="49.83585" lon="4.84428">
        <ele>353</ele>
        <time>2020-11-13T09:38:49.000Z</time>
      </trkpt>
      <trkpt lat="49.83583" lon="4.84435">
        <ele>353</ele>
        <time>2020-11-13T09:38:50.000Z</time>
      </trkpt>
      <trkpt lat="49.83581" lon="4.84443">
        <ele>353</ele>
        <time>2020-11-13T09:38:51.000Z</time>
      </trkpt>
      <trkpt lat="49.83579" lon="4.84451">
        <ele>353</ele>
        <time>2020-11-13T09:38:52.000Z</time>
      </trkpt>
      <trkpt lat="49.83578" lon="4.84458">
        <ele>353</ele>
        <time>2020-11-13T09:38:53.000Z</time>
      </trkpt>
      <trkpt lat="49.83577" lon="4.84465">
        <ele>353</ele>
        <time>2020-11-13T09:38:54.000Z</time>
      </trkpt>
      <trkpt lat="49.83576" lon="4.84472">
        <ele>352</ele>
        <time>2020-11-13T09:38:55.000Z</time>
      </trkpt>
      <trkpt lat="49.83575" lon="4.84479">
        <ele>352</ele>
        <time>2020-11-13T09:38:56.000Z</time>
      </trkpt>
      <trkpt lat="49.83574" lon="4.84486">
        <ele>352</ele>
        <time>2020-11-13T09:38:57.000Z</time>
      </trkpt>
      <trkpt lat="49.83573" lon="4.84492">
        <ele>352</ele>
        <time>2020-11-13T09:38:58.000Z</time>
      </trkpt>
      <trkpt lat="49.83572" lon="4.84497">
        <ele>351</ele>
        <time>2020-11-13T09:38:59.000Z</time>
      </trkpt>
      <trkpt lat="49.83571" lon="4.84503">
        <ele>351</ele>
        <time>2020-11-13T09:39:00.000Z</time>
      </trkpt>
      <trkpt lat="49.8357" lon="4.84509">
        <ele>351</ele>
        <time>2020-11-13T09:39:01.000Z</time>
      </trkpt>
      <trkpt lat="49.83568" lon="4.84516">
        <ele>351</ele>
        <time>2020-11-13T09:39:02.000Z</time>
      </trkpt>
      <trkpt lat="49.83567" lon="4.84524">
        <ele>350</ele>
        <time>2020-11-13T09:39:03.000Z</time>
      </trkpt>
      <trkpt lat="49.83565" lon="4.84531">
        <ele>350</ele>
        <time>2020-11-13T09:39:04.000Z</time>
      </trkpt>
      <trkpt lat="49.83563" lon="4.84539">
        <ele>350</ele>
        <time>2020-11-13T09:39:05.000Z</time>
      </trkpt>
      <trkpt lat="49.83562" lon="4.84547">
        <ele>349</ele>
        <time>2020-11-13T09:39:06.000Z</time>
      </trkpt>
      <trkpt lat="49.8356" lon="4.84555">
        <ele>349</ele>
        <time>2020-11-13T09:39:07.000Z</time>
      </trkpt>
      <trkpt lat="49.83559" lon="4.84562">
        <ele>349</ele>
        <time>2020-11-13T09:39:08.000Z</time>
      </trkpt>
      <trkpt lat="49.83557" lon="4.8457">
        <ele>348</ele>
        <time>2020-11-13T09:39:09.000Z</time>
      </trkpt>
      <trkpt lat="49.83555" lon="4.84578">
        <ele>348</ele>
        <time>2020-11-13T09:39:10.000Z</time>
      </trkpt>
      <trkpt lat="49.83554" lon="4.84586">
        <ele>348</ele>
        <time>2020-11-13T09:39:11.000Z</time>
      </trkpt>
      <trkpt lat="49.83552" lon="4.84593">
        <ele>348</ele>
        <time>2020-11-13T09:39:12.000Z</time>
      </trkpt>
      <trkpt lat="49.8355" lon="4.84601">
        <ele>348</ele>
        <time>2020-11-13T09:39:13.000Z</time>
      </trkpt>
      <trkpt lat="49.83549" lon="4.84609">
        <ele>347</ele>
        <time>2020-11-13T09:39:14.000Z</time>
      </trkpt>
      <trkpt lat="49.83547" lon="4.84617">
        <ele>347</ele>
        <time>2020-11-13T09:39:15.000Z</time>
      </trkpt>
      <trkpt lat="49.83545" lon="4.84625">
        <ele>347</ele>
        <time>2020-11-13T09:39:16.000Z</time>
      </trkpt>
      <trkpt lat="49.83544" lon="4.84633">
        <ele>347</ele>
        <time>2020-11-13T09:39:17.000Z</time>
      </trkpt>
      <trkpt lat="49.83542" lon="4.8464">
        <ele>347</ele>
        <time>2020-11-13T09:39:18.000Z</time>
      </trkpt>
      <trkpt lat="49.8354" lon="4.84648">
        <ele>347</ele>
        <time>2020-11-13T09:39:19.000Z</time>
      </trkpt>
      <trkpt lat="49.83539" lon="4.84656">
        <ele>347</ele>
        <time>2020-11-13T09:39:20.000Z</time>
      </trkpt>
      <trkpt lat="49.83537" lon="4.84664">
        <ele>346</ele>
        <time>2020-11-13T09:39:21.000Z</time>
      </trkpt>
      <trkpt lat="49.83536" lon="4.84671">
        <ele>346</ele>
        <time>2020-11-13T09:39:22.000Z</time>
      </trkpt>
      <trkpt lat="49.83534" lon="4.84679">
        <ele>346</ele>
        <time>2020-11-13T09:39:23.000Z</time>
      </trkpt>
      <trkpt lat="49.83533" lon="4.84687">
        <ele>346</ele>
        <time>2020-11-13T09:39:24.000Z</time>
      </trkpt>
      <trkpt lat="49.83532" lon="4.84694">
        <ele>346</ele>
        <time>2020-11-13T09:39:25.000Z</time>
      </trkpt>
      <trkpt lat="49.8353" lon="4.84702">
        <ele>346</ele>
        <time>2020-11-13T09:39:26.000Z</time>
      </trkpt>
      <trkpt lat="49.83529" lon="4.8471">
        <ele>346</ele>
        <time>2020-11-13T09:39:27.000Z</time>
      </trkpt>
      <trkpt lat="49.83528" lon="4.84718">
        <ele>346</ele>
        <time>2020-11-13T09:39:28.000Z</time>
      </trkpt>
      <trkpt lat="49.83527" lon="4.84725">
        <ele>346</ele>
        <time>2020-11-13T09:39:29.000Z</time>
      </trkpt>
      <trkpt lat="49.83525" lon="4.84733">
        <ele>346</ele>
        <time>2020-11-13T09:39:30.000Z</time>
      </trkpt>
      <trkpt lat="49.83524" lon="4.84741">
        <ele>346</ele>
        <time>2020-11-13T09:39:31.000Z</time>
      </trkpt>
      <trkpt lat="49.83523" lon="4.84749">
        <ele>346</ele>
        <time>2020-11-13T09:39:32.000Z</time>
      </trkpt>
      <trkpt lat="49.83522" lon="4.84757">
        <ele>346</ele>
        <time>2020-11-13T09:39:33.000Z</time>
      </trkpt>
      <trkpt lat="49.83521" lon="4.84765">
        <ele>346</ele>
        <time>2020-11-13T09:39:34.000Z</time>
      </trkpt>
      <trkpt lat="49.83519" lon="4.84773">
        <ele>346</ele>
        <time>2020-11-13T09:39:35.000Z</time>
      </trkpt>
      <trkpt lat="49.83518" lon="4.84781">
        <ele>346</ele>
        <time>2020-11-13T09:39:36.000Z</time>
      </trkpt>
      <trkpt lat="49.83516" lon="4.84789">
        <ele>346</ele>
        <time>2020-11-13T09:39:37.000Z</time>
      </trkpt>
      <trkpt lat="49.83515" lon="4.84797">
        <ele>346</ele>
        <time>2020-11-13T09:39:38.000Z</time>
      </trkpt>
      <trkpt lat="49.83514" lon="4.84805">
        <ele>346</ele>
        <time>2020-11-13T09:39:39.000Z</time>
      </trkpt>
      <trkpt lat="49.83513" lon="4.84812">
        <ele>346</ele>
        <time>2020-11-13T09:39:40.000Z</time>
      </trkpt>
      <trkpt lat="49.83512" lon="4.8482">
        <ele>346</ele>
        <time>2020-11-13T09:39:41.000Z</time>
      </trkpt>
      <trkpt lat="49.8351" lon="4.84828">
        <ele>346</ele>
        <time>2020-11-13T09:39:42.000Z</time>
      </trkpt>
      <trkpt lat="49.83509" lon="4.84835">
        <ele>346</ele>
        <time>2020-11-13T09:39:43.000Z</time>
      </trkpt>
      <trkpt lat="49.83508" lon="4.84842">
        <ele>346</ele>
        <time>2020-11-13T09:39:44.000Z</time>
      </trkpt>
      <trkpt lat="49.83506" lon="4.84849">
        <ele>346</ele>
        <time>2020-11-13T09:39:45.000Z</time>
      </trkpt>
      <trkpt lat="49.83505" lon="4.84856">
        <ele>346</ele>
        <time>2020-11-13T09:39:46.000Z</time>
      </trkpt>
      <trkpt lat="49.83503" lon="4.84863">
        <ele>346</ele>
        <time>2020-11-13T09:39:47.000Z</time>
      </trkpt>
      <trkpt lat="49.83501" lon="4.8487">
        <ele>346</ele>
        <time>2020-11-13T09:39:48.000Z</time>
      </trkpt>
      <trkpt lat="49.83499" lon="4.84876">
        <ele>346</ele>
        <time>2020-11-13T09:39:49.000Z</time>
      </trkpt>
      <trkpt lat="49.83497" lon="4.84882">
        <ele>346</ele>
        <time>2020-11-13T09:39:50.000Z</time>
      </trkpt>
      <trkpt lat="49.83494" lon="4.84887">
        <ele>346</ele>
        <time>2020-11-13T09:39:51.000Z</time>
      </trkpt>
      <trkpt lat="49.83492" lon="4.84892">
        <ele>346</ele>
        <time>2020-11-13T09:39:52.000Z</time>
      </trkpt>
      <trkpt lat="49.83489" lon="4.84896">
        <ele>346</ele>
        <time>2020-11-13T09:39:53.000Z</time>
      </trkpt>
      <trkpt lat="49.83487" lon="4.849">
        <ele>347</ele>
        <time>2020-11-13T09:39:54.000Z</time>
      </trkpt>
      <trkpt lat="49.83484" lon="4.84904">
        <ele>347</ele>
        <time>2020-11-13T09:39:55.000Z</time>
      </trkpt>
      <trkpt lat="49.83481" lon="4.84908">
        <ele>347</ele>
        <time>2020-11-13T09:39:56.000Z</time>
      </trkpt>
      <trkpt lat="49.83478" lon="4.84913">
        <ele>347</ele>
        <time>2020-11-13T09:39:57.000Z</time>
      </trkpt>
      <trkpt lat="49.83475" lon="4.84916">
        <ele>347</ele>
        <time>2020-11-13T09:39:58.000Z</time>
      </trkpt>
      <trkpt lat="49.83472" lon="4.84919">
        <ele>347</ele>
        <time>2020-11-13T09:39:59.000Z</time>
      </trkpt>
      <trkpt lat="49.83468" lon="4.84922">
        <ele>347</ele>
        <time>2020-11-13T09:40:00.000Z</time>
      </trkpt>
      <trkpt lat="49.83465" lon="4.84926">
        <ele>347</ele>
        <time>2020-11-13T09:40:01.000Z</time>
      </trkpt>
      <trkpt lat="49.83462" lon="4.84929">
        <ele>347</ele>
        <time>2020-11-13T09:40:02.000Z</time>
      </trkpt>
      <trkpt lat="49.83458" lon="4.84933">
        <ele>347</ele>
        <time>2020-11-13T09:40:03.000Z</time>
      </trkpt>
      <trkpt lat="49.83455" lon="4.84937">
        <ele>347</ele>
        <time>2020-11-13T09:40:04.000Z</time>
      </trkpt>
      <trkpt lat="49.83451" lon="4.8494">
        <ele>347</ele>
        <time>2020-11-13T09:40:05.000Z</time>
      </trkpt>
      <trkpt lat="49.83447" lon="4.84943">
        <ele>347</ele>
        <time>2020-11-13T09:40:06.000Z</time>
      </trkpt>
      <trkpt lat="49.83444" lon="4.84947">
        <ele>347</ele>
        <time>2020-11-13T09:40:07.000Z</time>
      </trkpt>
      <trkpt lat="49.8344" lon="4.8495">
        <ele>347</ele>
        <time>2020-11-13T09:40:08.000Z</time>
      </trkpt>
      <trkpt lat="49.83436" lon="4.84954">
        <ele>347</ele>
        <time>2020-11-13T09:40:09.000Z</time>
      </trkpt>
      <trkpt lat="49.83433" lon="4.84957">
        <ele>348</ele>
        <time>2020-11-13T09:40:10.000Z</time>
      </trkpt>
      <trkpt lat="49.83429" lon="4.84961">
        <ele>348</ele>
        <time>2020-11-13T09:40:11.000Z</time>
      </trkpt>
      <trkpt lat="49.83426" lon="4.84964">
        <ele>348</ele>
        <time>2020-11-13T09:40:12.000Z</time>
      </trkpt>
      <trkpt lat="49.83422" lon="4.84968">
        <ele>348</ele>
        <time>2020-11-13T09:40:13.000Z</time>
      </trkpt>
      <trkpt lat="49.83419" lon="4.84971">
        <ele>348</ele>
        <time>2020-11-13T09:40:14.000Z</time>
      </trkpt>
      <trkpt lat="49.83415" lon="4.84974">
        <ele>348</ele>
        <time>2020-11-13T09:40:15.000Z</time>
      </trkpt>
      <trkpt lat="49.83412" lon="4.84977">
        <ele>348</ele>
        <time>2020-11-13T09:40:16.000Z</time>
      </trkpt>
      <trkpt lat="49.83409" lon="4.8498">
        <ele>348</ele>
        <time>2020-11-13T09:40:17.000Z</time>
      </trkpt>
      <trkpt lat="49.83406" lon="4.84983">
        <ele>349</ele>
        <time>2020-11-13T09:40:18.000Z</time>
      </trkpt>
      <trkpt lat="49.83403" lon="4.84987">
        <ele>349</ele>
        <time>2020-11-13T09:40:19.000Z</time>
      </trkpt>
      <trkpt lat="49.834" lon="4.8499">
        <ele>349</ele>
        <time>2020-11-13T09:40:20.000Z</time>
      </trkpt>
      <trkpt lat="49.83396" lon="4.84993">
        <ele>349</ele>
        <time>2020-11-13T09:40:21.000Z</time>
      </trkpt>
      <trkpt lat="49.83393" lon="4.84997">
        <ele>349</ele>
        <time>2020-11-13T09:40:22.000Z</time>
      </trkpt>
      <trkpt lat="49.83389" lon="4.85">
        <ele>349</ele>
        <time>2020-11-13T09:40:23.000Z</time>
      </trkpt>
      <trkpt lat="49.83385" lon="4.85003">
        <ele>349</ele>
        <time>2020-11-13T09:40:24.000Z</time>
      </trkpt>
      <trkpt lat="49.83382" lon="4.85006">
        <ele>349</ele>
        <time>2020-11-13T09:40:25.000Z</time>
      </trkpt>
      <trkpt lat="49.83378" lon="4.8501">
        <ele>350</ele>
        <time>2020-11-13T09:40:26.000Z</time>
      </trkpt>
      <trkpt lat="49.83375" lon="4.85013">
        <ele>350</ele>
        <time>2020-11-13T09:40:27.000Z</time>
      </trkpt>
      <trkpt lat="49.83371" lon="4.85017">
        <ele>350</ele>
        <time>2020-11-13T09:40:28.000Z</time>
      </trkpt>
      <trkpt lat="49.83367" lon="4.85019">
        <ele>350</ele>
        <time>2020-11-13T09:40:29.000Z</time>
      </trkpt>
      <trkpt lat="49.83364" lon="4.85022">
        <ele>350</ele>
        <time>2020-11-13T09:40:30.000Z</time>
      </trkpt>
      <trkpt lat="49.83361" lon="4.85024">
        <ele>351</ele>
        <time>2020-11-13T09:40:31.000Z</time>
      </trkpt>
      <trkpt lat="49.83358" lon="4.85027">
        <ele>351</ele>
        <time>2020-11-13T09:40:32.000Z</time>
      </trkpt>
      <trkpt lat="49.83355" lon="4.85029">
        <ele>351</ele>
        <time>2020-11-13T09:40:33.000Z</time>
      </trkpt>
      <trkpt lat="49.83353" lon="4.85031">
        <ele>351</ele>
        <time>2020-11-13T09:40:34.000Z</time>
      </trkpt>
      <trkpt lat="49.8335" lon="4.85033">
        <ele>351</ele>
        <time>2020-11-13T09:40:35.000Z</time>
      </trkpt>
      <trkpt lat="49.83347" lon="4.85035">
        <ele>352</ele>
        <time>2020-11-13T09:40:36.000Z</time>
      </trkpt>
      <trkpt lat="49.83344" lon="4.85037">
        <ele>352</ele>
        <time>2020-11-13T09:40:37.000Z</time>
      </trkpt>
      <trkpt lat="49.83341" lon="4.85039">
        <ele>352</ele>
        <time>2020-11-13T09:40:38.000Z</time>
      </trkpt>
      <trkpt lat="49.83338" lon="4.8504">
        <ele>352</ele>
        <time>2020-11-13T09:40:39.000Z</time>
      </trkpt>
      <trkpt lat="49.83335" lon="4.85042">
        <ele>352</ele>
        <time>2020-11-13T09:40:40.000Z</time>
      </trkpt>
      <trkpt lat="49.83332" lon="4.85043">
        <ele>352</ele>
        <time>2020-11-13T09:40:41.000Z</time>
      </trkpt>
      <trkpt lat="49.83329" lon="4.85043">
        <ele>353</ele>
        <time>2020-11-13T09:40:42.000Z</time>
      </trkpt>
      <trkpt lat="49.83326" lon="4.85043">
        <ele>353</ele>
        <time>2020-11-13T09:40:43.000Z</time>
      </trkpt>
      <trkpt lat="49.83324" lon="4.85043">
        <ele>353</ele>
        <time>2020-11-13T09:40:44.000Z</time>
      </trkpt>
      <trkpt lat="49.83321" lon="4.85043">
        <ele>353</ele>
        <time>2020-11-13T09:40:45.000Z</time>
      </trkpt>
      <trkpt lat="49.83317" lon="4.85043">
        <ele>353</ele>
        <time>2020-11-13T09:40:46.000Z</time>
      </trkpt>
      <trkpt lat="49.83314" lon="4.85044">
        <ele>354</ele>
        <time>2020-11-13T09:40:47.000Z</time>
      </trkpt>
      <trkpt lat="49.83311" lon="4.85045">
        <ele>354</ele>
        <time>2020-11-13T09:40:48.000Z</time>
      </trkpt>
      <trkpt lat="49.83308" lon="4.85046">
        <ele>354</ele>
        <time>2020-11-13T09:40:49.000Z</time>
      </trkpt>
      <trkpt lat="49.83304" lon="4.85048">
        <ele>354</ele>
        <time>2020-11-13T09:40:50.000Z</time>
      </trkpt>
      <trkpt lat="49.83301" lon="4.85049">
        <ele>354</ele>
        <time>2020-11-13T09:40:51.000Z</time>
      </trkpt>
      <trkpt lat="49.83298" lon="4.85051">
        <ele>355</ele>
        <time>2020-11-13T09:40:52.000Z</time>
      </trkpt>
      <trkpt lat="49.83295" lon="4.85051">
        <ele>355</ele>
        <time>2020-11-13T09:40:53.000Z</time>
      </trkpt>
      <trkpt lat="49.83292" lon="4.85053">
        <ele>355</ele>
        <time>2020-11-13T09:40:54.000Z</time>
      </trkpt>
      <trkpt lat="49.83289" lon="4.85054">
        <ele>355</ele>
        <time>2020-11-13T09:40:55.000Z</time>
      </trkpt>
      <trkpt lat="49.83285" lon="4.85055">
        <ele>356</ele>
        <time>2020-11-13T09:40:56.000Z</time>
      </trkpt>
      <trkpt lat="49.83282" lon="4.85056">
        <ele>356</ele>
        <time>2020-11-13T09:40:57.000Z</time>
      </trkpt>
      <trkpt lat="49.83279" lon="4.85057">
        <ele>356</ele>
        <time>2020-11-13T09:40:58.000Z</time>
      </trkpt>
      <trkpt lat="49.83276" lon="4.85059">
        <ele>356</ele>
        <time>2020-11-13T09:40:59.000Z</time>
      </trkpt>
      <trkpt lat="49.83273" lon="4.8506">
        <ele>357</ele>
        <time>2020-11-13T09:41:00.000Z</time>
      </trkpt>
      <trkpt lat="49.83269" lon="4.85059">
        <ele>357</ele>
        <time>2020-11-13T09:41:01.000Z</time>
      </trkpt>
      <trkpt lat="49.83267" lon="4.85056">
        <ele>357</ele>
        <time>2020-11-13T09:41:02.000Z</time>
      </trkpt>
      <trkpt lat="49.83264" lon="4.85052">
        <ele>357</ele>
        <time>2020-11-13T09:41:03.000Z</time>
      </trkpt>
      <trkpt lat="49.83262" lon="4.85049">
        <ele>357</ele>
        <time>2020-11-13T09:41:04.000Z</time>
      </trkpt>
      <trkpt lat="49.83259" lon="4.85047">
        <ele>357</ele>
        <time>2020-11-13T09:41:05.000Z</time>
      </trkpt>
      <trkpt lat="49.83257" lon="4.85044">
        <ele>357</ele>
        <time>2020-11-13T09:41:06.000Z</time>
      </trkpt>
      <trkpt lat="49.83254" lon="4.85041">
        <ele>357</ele>
        <time>2020-11-13T09:41:07.000Z</time>
      </trkpt>
      <trkpt lat="49.83252" lon="4.85039">
        <ele>357</ele>
        <time>2020-11-13T09:41:08.000Z</time>
      </trkpt>
      <trkpt lat="49.83249" lon="4.85036">
        <ele>357</ele>
        <time>2020-11-13T09:41:09.000Z</time>
      </trkpt>
      <trkpt lat="49.83246" lon="4.85033">
        <ele>357</ele>
        <time>2020-11-13T09:41:10.000Z</time>
      </trkpt>
      <trkpt lat="49.83243" lon="4.8503">
        <ele>358</ele>
        <time>2020-11-13T09:41:11.000Z</time>
      </trkpt>
      <trkpt lat="49.83239" lon="4.85028">
        <ele>358</ele>
        <time>2020-11-13T09:41:12.000Z</time>
      </trkpt>
      <trkpt lat="49.83236" lon="4.85025">
        <ele>358</ele>
        <time>2020-11-13T09:41:13.000Z</time>
      </trkpt>
      <trkpt lat="49.83233" lon="4.85021">
        <ele>358</ele>
        <time>2020-11-13T09:41:14.000Z</time>
      </trkpt>
      <trkpt lat="49.8323" lon="4.85018">
        <ele>358</ele>
        <time>2020-11-13T09:41:15.000Z</time>
      </trkpt>
      <trkpt lat="49.83226" lon="4.85015">
        <ele>358</ele>
        <time>2020-11-13T09:41:16.000Z</time>
      </trkpt>
      <trkpt lat="49.83223" lon="4.85012">
        <ele>358</ele>
        <time>2020-11-13T09:41:17.000Z</time>
      </trkpt>
      <trkpt lat="49.8322" lon="4.85009">
        <ele>358</ele>
        <time>2020-11-13T09:41:18.000Z</time>
      </trkpt>
      <trkpt lat="49.83217" lon="4.85006">
        <ele>358</ele>
        <time>2020-11-13T09:41:19.000Z</time>
      </trkpt>
      <trkpt lat="49.83213" lon="4.85002">
        <ele>358</ele>
        <time>2020-11-13T09:41:20.000Z</time>
      </trkpt>
      <trkpt lat="49.8321" lon="4.84999">
        <ele>358</ele>
        <time>2020-11-13T09:41:21.000Z</time>
      </trkpt>
      <trkpt lat="49.83206" lon="4.84996">
        <ele>358</ele>
        <time>2020-11-13T09:41:22.000Z</time>
      </trkpt>
      <trkpt lat="49.83203" lon="4.84992">
        <ele>358</ele>
        <time>2020-11-13T09:41:23.000Z</time>
      </trkpt>
      <trkpt lat="49.83199" lon="4.84989">
        <ele>358</ele>
        <time>2020-11-13T09:41:24.000Z</time>
      </trkpt>
      <trkpt lat="49.83195" lon="4.84984">
        <ele>358</ele>
        <time>2020-11-13T09:41:25.000Z</time>
      </trkpt>
      <trkpt lat="49.83191" lon="4.8498">
        <ele>358</ele>
        <time>2020-11-13T09:41:26.000Z</time>
      </trkpt>
      <trkpt lat="49.83188" lon="4.84976">
        <ele>358</ele>
        <time>2020-11-13T09:41:27.000Z</time>
      </trkpt>
      <trkpt lat="49.83184" lon="4.84972">
        <ele>359</ele>
        <time>2020-11-13T09:41:28.000Z</time>
      </trkpt>
      <trkpt lat="49.8318" lon="4.84968">
        <ele>359</ele>
        <time>2020-11-13T09:41:29.000Z</time>
      </trkpt>
      <trkpt lat="49.83176" lon="4.84964">
        <ele>359</ele>
        <time>2020-11-13T09:41:30.000Z</time>
      </trkpt>
      <trkpt lat="49.83172" lon="4.84961">
        <ele>359</ele>
        <time>2020-11-13T09:41:31.000Z</time>
      </trkpt>
      <trkpt lat="49.83168" lon="4.84957">
        <ele>359</ele>
        <time>2020-11-13T09:41:32.000Z</time>
      </trkpt>
      <trkpt lat="49.83164" lon="4.84953">
        <ele>359</ele>
        <time>2020-11-13T09:41:33.000Z</time>
      </trkpt>
      <trkpt lat="49.83161" lon="4.8495">
        <ele>359</ele>
        <time>2020-11-13T09:41:34.000Z</time>
      </trkpt>
      <trkpt lat="49.83157" lon="4.84947">
        <ele>359</ele>
        <time>2020-11-13T09:41:35.000Z</time>
      </trkpt>
      <trkpt lat="49.83153" lon="4.84943">
        <ele>359</ele>
        <time>2020-11-13T09:41:36.000Z</time>
      </trkpt>
      <trkpt lat="49.8315" lon="4.8494">
        <ele>360</ele>
        <time>2020-11-13T09:41:37.000Z</time>
      </trkpt>
      <trkpt lat="49.83146" lon="4.84938">
        <ele>360</ele>
        <time>2020-11-13T09:41:38.000Z</time>
      </trkpt>
      <trkpt lat="49.83143" lon="4.84935">
        <ele>360</ele>
        <time>2020-11-13T09:41:39.000Z</time>
      </trkpt>
      <trkpt lat="49.8314" lon="4.84932">
        <ele>360</ele>
        <time>2020-11-13T09:41:40.000Z</time>
      </trkpt>
      <trkpt lat="49.83137" lon="4.84929">
        <ele>360</ele>
        <time>2020-11-13T09:41:41.000Z</time>
      </trkpt>
      <trkpt lat="49.83133" lon="4.84926">
        <ele>360</ele>
        <time>2020-11-13T09:41:42.000Z</time>
      </trkpt>
      <trkpt lat="49.8313" lon="4.84922">
        <ele>360</ele>
        <time>2020-11-13T09:41:43.000Z</time>
      </trkpt>
      <trkpt lat="49.83127" lon="4.84919">
        <ele>360</ele>
        <time>2020-11-13T09:41:44.000Z</time>
      </trkpt>
      <trkpt lat="49.83124" lon="4.84916">
        <ele>360</ele>
        <time>2020-11-13T09:41:45.000Z</time>
      </trkpt>
      <trkpt lat="49.83122" lon="4.84913">
        <ele>361</ele>
        <time>2020-11-13T09:41:46.000Z</time>
      </trkpt>
      <trkpt lat="49.83121" lon="4.84911">
        <ele>361</ele>
        <time>2020-11-13T09:41:47.000Z</time>
      </trkpt>
      <trkpt lat="49.8312" lon="4.84911">
        <ele>361</ele>
        <time>2020-11-13T09:41:48.000Z</time>
      </trkpt>
      <trkpt lat="49.83118" lon="4.8491">
        <ele>361</ele>
        <time>2020-11-13T09:41:49.000Z</time>
      </trkpt>
      <trkpt lat="49.83115" lon="4.84909">
        <ele>361</ele>
        <time>2020-11-13T09:41:50.000Z</time>
      </trkpt>
      <trkpt lat="49.83112" lon="4.84907">
        <ele>361</ele>
        <time>2020-11-13T09:41:51.000Z</time>
      </trkpt>
      <trkpt lat="49.83109" lon="4.84905">
        <ele>361</ele>
        <time>2020-11-13T09:41:52.000Z</time>
      </trkpt>
      <trkpt lat="49.83106" lon="4.84902">
        <ele>361</ele>
        <time>2020-11-13T09:41:53.000Z</time>
      </trkpt>
      <trkpt lat="49.83103" lon="4.84899">
        <ele>361</ele>
        <time>2020-11-13T09:41:54.000Z</time>
      </trkpt>
      <trkpt lat="49.83099" lon="4.84896">
        <ele>361</ele>
        <time>2020-11-13T09:41:55.000Z</time>
      </trkpt>
      <trkpt lat="49.83096" lon="4.84893">
        <ele>361</ele>
        <time>2020-11-13T09:41:56.000Z</time>
      </trkpt>
      <trkpt lat="49.83092" lon="4.84889">
        <ele>361</ele>
        <time>2020-11-13T09:41:57.000Z</time>
      </trkpt>
      <trkpt lat="49.83088" lon="4.84886">
        <ele>361</ele>
        <time>2020-11-13T09:41:58.000Z</time>
      </trkpt>
      <trkpt lat="49.83085" lon="4.84882">
        <ele>361</ele>
        <time>2020-11-13T09:41:59.000Z</time>
      </trkpt>
      <trkpt lat="49.83081" lon="4.84878">
        <ele>361</ele>
        <time>2020-11-13T09:42:00.000Z</time>
      </trkpt>
      <trkpt lat="49.83078" lon="4.84875">
        <ele>361</ele>
        <time>2020-11-13T09:42:01.000Z</time>
      </trkpt>
      <trkpt lat="49.83073" lon="4.84871">
        <ele>361</ele>
        <time>2020-11-13T09:42:02.000Z</time>
      </trkpt>
      <trkpt lat="49.83069" lon="4.84866">
        <ele>361</ele>
        <time>2020-11-13T09:42:03.000Z</time>
      </trkpt>
      <trkpt lat="49.83064" lon="4.84862">
        <ele>361</ele>
        <time>2020-11-13T09:42:04.000Z</time>
      </trkpt>
      <trkpt lat="49.8306" lon="4.84857">
        <ele>361</ele>
        <time>2020-11-13T09:42:05.000Z</time>
      </trkpt>
      <trkpt lat="49.83056" lon="4.84852">
        <ele>361</ele>
        <time>2020-11-13T09:42:06.000Z</time>
      </trkpt>
      <trkpt lat="49.83052" lon="4.84849">
        <ele>360</ele>
        <time>2020-11-13T09:42:07.000Z</time>
      </trkpt>
      <trkpt lat="49.83048" lon="4.84844">
        <ele>360</ele>
        <time>2020-11-13T09:42:08.000Z</time>
      </trkpt>
      <trkpt lat="49.83043" lon="4.8484">
        <ele>360</ele>
        <time>2020-11-13T09:42:09.000Z</time>
      </trkpt>
      <trkpt lat="49.83039" lon="4.84835">
        <ele>360</ele>
        <time>2020-11-13T09:42:10.000Z</time>
      </trkpt>
      <trkpt lat="49.83035" lon="4.84834">
        <ele>360</ele>
        <time>2020-11-13T09:42:11.000Z</time>
      </trkpt>
      <trkpt lat="49.83031" lon="4.84833">
        <ele>360</ele>
        <time>2020-11-13T09:42:12.000Z</time>
      </trkpt>
      <trkpt lat="49.83028" lon="4.84833">
        <ele>359</ele>
        <time>2020-11-13T09:42:13.000Z</time>
      </trkpt>
      <trkpt lat="49.83025" lon="4.84835">
        <ele>359</ele>
        <time>2020-11-13T09:42:14.000Z</time>
      </trkpt>
      <trkpt lat="49.83022" lon="4.84837">
        <ele>359</ele>
        <time>2020-11-13T09:42:15.000Z</time>
      </trkpt>
      <trkpt lat="49.83018" lon="4.84838">
        <ele>359</ele>
        <time>2020-11-13T09:42:16.000Z</time>
      </trkpt>
      <trkpt lat="49.83015" lon="4.84838">
        <ele>358</ele>
        <time>2020-11-13T09:42:17.000Z</time>
      </trkpt>
      <trkpt lat="49.83011" lon="4.84839">
        <ele>358</ele>
        <time>2020-11-13T09:42:18.000Z</time>
      </trkpt>
      <trkpt lat="49.83006" lon="4.84838">
        <ele>357</ele>
        <time>2020-11-13T09:42:19.000Z</time>
      </trkpt>
      <trkpt lat="49.83" lon="4.84837">
        <ele>357</ele>
        <time>2020-11-13T09:42:20.000Z</time>
      </trkpt>
      <trkpt lat="49.82995" lon="4.84836">
        <ele>357</ele>
        <time>2020-11-13T09:42:21.000Z</time>
      </trkpt>
      <trkpt lat="49.82989" lon="4.84834">
        <ele>356</ele>
        <time>2020-11-13T09:42:22.000Z</time>
      </trkpt>
      <trkpt lat="49.82983" lon="4.84832">
        <ele>356</ele>
        <time>2020-11-13T09:42:23.000Z</time>
      </trkpt>
      <trkpt lat="49.82977" lon="4.84831">
        <ele>355</ele>
        <time>2020-11-13T09:42:24.000Z</time>
      </trkpt>
      <trkpt lat="49.82972" lon="4.84831">
        <ele>355</ele>
        <time>2020-11-13T09:42:25.000Z</time>
      </trkpt>
      <trkpt lat="49.82967" lon="4.84831">
        <ele>355</ele>
        <time>2020-11-13T09:42:26.000Z</time>
      </trkpt>
      <trkpt lat="49.82962" lon="4.84832">
        <ele>354</ele>
        <time>2020-11-13T09:42:27.000Z</time>
      </trkpt>
      <trkpt lat="49.82958" lon="4.84835">
        <ele>354</ele>
        <time>2020-11-13T09:42:28.000Z</time>
      </trkpt>
      <trkpt lat="49.82954" lon="4.84837">
        <ele>354</ele>
        <time>2020-11-13T09:42:29.000Z</time>
      </trkpt>
      <trkpt lat="49.8295" lon="4.84841">
        <ele>353</ele>
        <time>2020-11-13T09:42:30.000Z</time>
      </trkpt>
      <trkpt lat="49.82946" lon="4.84845">
        <ele>353</ele>
        <time>2020-11-13T09:42:31.000Z</time>
      </trkpt>
      <trkpt lat="49.82942" lon="4.8485">
        <ele>352</ele>
        <time>2020-11-13T09:42:32.000Z</time>
      </trkpt>
      <trkpt lat="49.82939" lon="4.84855">
        <ele>352</ele>
        <time>2020-11-13T09:42:33.000Z</time>
      </trkpt>
      <trkpt lat="49.82935" lon="4.84859">
        <ele>351</ele>
        <time>2020-11-13T09:42:34.000Z</time>
      </trkpt>
      <trkpt lat="49.82932" lon="4.84863">
        <ele>351</ele>
        <time>2020-11-13T09:42:35.000Z</time>
      </trkpt>
      <trkpt lat="49.82929" lon="4.84866">
        <ele>350</ele>
        <time>2020-11-13T09:42:36.000Z</time>
      </trkpt>
      <trkpt lat="49.82926" lon="4.84869">
        <ele>350</ele>
        <time>2020-11-13T09:42:37.000Z</time>
      </trkpt>
      <trkpt lat="49.82923" lon="4.84871">
        <ele>349</ele>
        <time>2020-11-13T09:42:38.000Z</time>
      </trkpt>
      <trkpt lat="49.82919" lon="4.84873">
        <ele>349</ele>
        <time>2020-11-13T09:42:39.000Z</time>
      </trkpt>
      <trkpt lat="49.82914" lon="4.84874">
        <ele>349</ele>
        <time>2020-11-13T09:42:40.000Z</time>
      </trkpt>
      <trkpt lat="49.8291" lon="4.84875">
        <ele>348</ele>
        <time>2020-11-13T09:42:41.000Z</time>
      </trkpt>
      <trkpt lat="49.82907" lon="4.84876">
        <ele>348</ele>
        <time>2020-11-13T09:42:42.000Z</time>
      </trkpt>
      <trkpt lat="49.82903" lon="4.84877">
        <ele>347</ele>
        <time>2020-11-13T09:42:43.000Z</time>
      </trkpt>
      <trkpt lat="49.82899" lon="4.84878">
        <ele>347</ele>
        <time>2020-11-13T09:42:44.000Z</time>
      </trkpt>
      <trkpt lat="49.82896" lon="4.8488">
        <ele>347</ele>
        <time>2020-11-13T09:42:45.000Z</time>
      </trkpt>
      <trkpt lat="49.82894" lon="4.84883">
        <ele>346</ele>
        <time>2020-11-13T09:42:46.000Z</time>
      </trkpt>
      <trkpt lat="49.82892" lon="4.84886">
        <ele>346</ele>
        <time>2020-11-13T09:42:47.000Z</time>
      </trkpt>
      <trkpt lat="49.82891" lon="4.8489">
        <ele>346</ele>
        <time>2020-11-13T09:42:48.000Z</time>
      </trkpt>
      <trkpt lat="49.8289" lon="4.84893">
        <ele>345</ele>
        <time>2020-11-13T09:42:49.000Z</time>
      </trkpt>
      <trkpt lat="49.8289" lon="4.84897">
        <ele>345</ele>
        <time>2020-11-13T09:42:50.000Z</time>
      </trkpt>
      <trkpt lat="49.8289" lon="4.84901">
        <ele>345</ele>
        <time>2020-11-13T09:42:51.000Z</time>
      </trkpt>
      <trkpt lat="49.82891" lon="4.84905">
        <ele>344</ele>
        <time>2020-11-13T09:42:52.000Z</time>
      </trkpt>
      <trkpt lat="49.82891" lon="4.84908">
        <ele>344</ele>
        <time>2020-11-13T09:42:53.000Z</time>
      </trkpt>
      <trkpt lat="49.82892" lon="4.84912">
        <ele>343</ele>
        <time>2020-11-13T09:42:54.000Z</time>
      </trkpt>
      <trkpt lat="49.82893" lon="4.84916">
        <ele>343</ele>
        <time>2020-11-13T09:42:55.000Z</time>
      </trkpt>
      <trkpt lat="49.82894" lon="4.8492">
        <ele>343</ele>
        <time>2020-11-13T09:42:56.000Z</time>
      </trkpt>
      <trkpt lat="49.82894" lon="4.84924">
        <ele>342</ele>
        <time>2020-11-13T09:42:57.000Z</time>
      </trkpt>
      <trkpt lat="49.82895" lon="4.84928">
        <ele>342</ele>
        <time>2020-11-13T09:42:58.000Z</time>
      </trkpt>
      <trkpt lat="49.82896" lon="4.84931">
        <ele>341</ele>
        <time>2020-11-13T09:42:59.000Z</time>
      </trkpt>
      <trkpt lat="49.82897" lon="4.84935">
        <ele>341</ele>
        <time>2020-11-13T09:43:00.000Z</time>
      </trkpt>
      <trkpt lat="49.82898" lon="4.84939">
        <ele>341</ele>
        <time>2020-11-13T09:43:01.000Z</time>
      </trkpt>
      <trkpt lat="49.82899" lon="4.84942">
        <ele>340</ele>
        <time>2020-11-13T09:43:02.000Z</time>
      </trkpt>
      <trkpt lat="49.82901" lon="4.84946">
        <ele>340</ele>
        <time>2020-11-13T09:43:03.000Z</time>
      </trkpt>
      <trkpt lat="49.82901" lon="4.84949">
        <ele>339</ele>
        <time>2020-11-13T09:43:04.000Z</time>
      </trkpt>
      <trkpt lat="49.82903" lon="4.84952">
        <ele>339</ele>
        <time>2020-11-13T09:43:05.000Z</time>
      </trkpt>
      <trkpt lat="49.82904" lon="4.84955">
        <ele>339</ele>
        <time>2020-11-13T09:43:06.000Z</time>
      </trkpt>
      <trkpt lat="49.82904" lon="4.84958">
        <ele>338</ele>
        <time>2020-11-13T09:43:07.000Z</time>
      </trkpt>
      <trkpt lat="49.82906" lon="4.84961">
        <ele>338</ele>
        <time>2020-11-13T09:43:08.000Z</time>
      </trkpt>
      <trkpt lat="49.82906" lon="4.84963">
        <ele>338</ele>
        <time>2020-11-13T09:43:09.000Z</time>
      </trkpt>
      <trkpt lat="49.82907" lon="4.84966">
        <ele>338</ele>
        <time>2020-11-13T09:43:10.000Z</time>
      </trkpt>
      <trkpt lat="49.82909" lon="4.84969">
        <ele>337</ele>
        <time>2020-11-13T09:43:11.000Z</time>
      </trkpt>
      <trkpt lat="49.82909" lon="4.84973">
        <ele>337</ele>
        <time>2020-11-13T09:43:12.000Z</time>
      </trkpt>
      <trkpt lat="49.8291" lon="4.84976">
        <ele>337</ele>
        <time>2020-11-13T09:43:13.000Z</time>
      </trkpt>
      <trkpt lat="49.82911" lon="4.8498">
        <ele>337</ele>
        <time>2020-11-13T09:43:14.000Z</time>
      </trkpt>
      <trkpt lat="49.82912" lon="4.84983">
        <ele>337</ele>
        <time>2020-11-13T09:43:15.000Z</time>
      </trkpt>
      <trkpt lat="49.82913" lon="4.84987">
        <ele>336</ele>
        <time>2020-11-13T09:43:16.000Z</time>
      </trkpt>
      <trkpt lat="49.82913" lon="4.84991">
        <ele>336</ele>
        <time>2020-11-13T09:43:17.000Z</time>
      </trkpt>
      <trkpt lat="49.82914" lon="4.84995">
        <ele>336</ele>
        <time>2020-11-13T09:43:18.000Z</time>
      </trkpt>
      <trkpt lat="49.82914" lon="4.84999">
        <ele>336</ele>
        <time>2020-11-13T09:43:19.000Z</time>
      </trkpt>
      <trkpt lat="49.82914" lon="4.85003">
        <ele>336</ele>
        <time>2020-11-13T09:43:20.000Z</time>
      </trkpt>
      <trkpt lat="49.82913" lon="4.85008">
        <ele>336</ele>
        <time>2020-11-13T09:43:21.000Z</time>
      </trkpt>
      <trkpt lat="49.82913" lon="4.85012">
        <ele>336</ele>
        <time>2020-11-13T09:43:22.000Z</time>
      </trkpt>
      <trkpt lat="49.82912" lon="4.85016">
        <ele>335</ele>
        <time>2020-11-13T09:43:23.000Z</time>
      </trkpt>
      <trkpt lat="49.82912" lon="4.85021">
        <ele>336</ele>
        <time>2020-11-13T09:43:24.000Z</time>
      </trkpt>
      <trkpt lat="49.82911" lon="4.85025">
        <ele>336</ele>
        <time>2020-11-13T09:43:25.000Z</time>
      </trkpt>
      <trkpt lat="49.82911" lon="4.8503">
        <ele>336</ele>
        <time>2020-11-13T09:43:26.000Z</time>
      </trkpt>
      <trkpt lat="49.8291" lon="4.85034">
        <ele>336</ele>
        <time>2020-11-13T09:43:27.000Z</time>
      </trkpt>
      <trkpt lat="49.8291" lon="4.85037">
        <ele>336</ele>
        <time>2020-11-13T09:43:28.000Z</time>
      </trkpt>
      <trkpt lat="49.82909" lon="4.85041">
        <ele>336</ele>
        <time>2020-11-13T09:43:29.000Z</time>
      </trkpt>
      <trkpt lat="49.82907" lon="4.85044">
        <ele>336</ele>
        <time>2020-11-13T09:43:30.000Z</time>
      </trkpt>
      <trkpt lat="49.82906" lon="4.85047">
        <ele>337</ele>
        <time>2020-11-13T09:43:31.000Z</time>
      </trkpt>
      <trkpt lat="49.82905" lon="4.8505">
        <ele>337</ele>
        <time>2020-11-13T09:43:32.000Z</time>
      </trkpt>
      <trkpt lat="49.82904" lon="4.85053">
        <ele>337</ele>
        <time>2020-11-13T09:43:33.000Z</time>
      </trkpt>
      <trkpt lat="49.82902" lon="4.85057">
        <ele>338</ele>
        <time>2020-11-13T09:43:34.000Z</time>
      </trkpt>
      <trkpt lat="49.82901" lon="4.85059">
        <ele>338</ele>
        <time>2020-11-13T09:43:35.000Z</time>
      </trkpt>
      <trkpt lat="49.82899" lon="4.85062">
        <ele>338</ele>
        <time>2020-11-13T09:43:36.000Z</time>
      </trkpt>
      <trkpt lat="49.82897" lon="4.85065">
        <ele>338</ele>
        <time>2020-11-13T09:43:37.000Z</time>
      </trkpt>
      <trkpt lat="49.82896" lon="4.85067">
        <ele>338</ele>
        <time>2020-11-13T09:43:38.000Z</time>
      </trkpt>
      <trkpt lat="49.82894" lon="4.85071">
        <ele>339</ele>
        <time>2020-11-13T09:43:39.000Z</time>
      </trkpt>
      <trkpt lat="49.82893" lon="4.85074">
        <ele>339</ele>
        <time>2020-11-13T09:43:40.000Z</time>
      </trkpt>
      <trkpt lat="49.82891" lon="4.85076">
        <ele>339</ele>
        <time>2020-11-13T09:43:41.000Z</time>
      </trkpt>
      <trkpt lat="49.82889" lon="4.85079">
        <ele>339</ele>
        <time>2020-11-13T09:43:42.000Z</time>
      </trkpt>
      <trkpt lat="49.82887" lon="4.85082">
        <ele>339</ele>
        <time>2020-11-13T09:43:43.000Z</time>
      </trkpt>
      <trkpt lat="49.82885" lon="4.85086">
        <ele>339</ele>
        <time>2020-11-13T09:43:44.000Z</time>
      </trkpt>
      <trkpt lat="49.82883" lon="4.85089">
        <ele>339</ele>
        <time>2020-11-13T09:43:45.000Z</time>
      </trkpt>
      <trkpt lat="49.82881" lon="4.85092">
        <ele>339</ele>
        <time>2020-11-13T09:43:46.000Z</time>
      </trkpt>
      <trkpt lat="49.8288" lon="4.85095">
        <ele>339</ele>
        <time>2020-11-13T09:43:47.000Z</time>
      </trkpt>
      <trkpt lat="49.82878" lon="4.85099">
        <ele>339</ele>
        <time>2020-11-13T09:43:48.000Z</time>
      </trkpt>
      <trkpt lat="49.82876" lon="4.85101">
        <ele>340</ele>
        <time>2020-11-13T09:43:49.000Z</time>
      </trkpt>
      <trkpt lat="49.82874" lon="4.85103">
        <ele>340</ele>
        <time>2020-11-13T09:43:50.000Z</time>
      </trkpt>
      <trkpt lat="49.82872" lon="4.85106">
        <ele>340</ele>
        <time>2020-11-13T09:43:51.000Z</time>
      </trkpt>
      <trkpt lat="49.8287" lon="4.85109">
        <ele>340</ele>
        <time>2020-11-13T09:43:52.000Z</time>
      </trkpt>
      <trkpt lat="49.82867" lon="4.85112">
        <ele>340</ele>
        <time>2020-11-13T09:43:53.000Z</time>
      </trkpt>
      <trkpt lat="49.82865" lon="4.85114">
        <ele>340</ele>
        <time>2020-11-13T09:43:54.000Z</time>
      </trkpt>
      <trkpt lat="49.82864" lon="4.85117">
        <ele>340</ele>
        <time>2020-11-13T09:43:55.000Z</time>
      </trkpt>
      <trkpt lat="49.82862" lon="4.8512">
        <ele>340</ele>
        <time>2020-11-13T09:43:56.000Z</time>
      </trkpt>
      <trkpt lat="49.8286" lon="4.85123">
        <ele>340</ele>
        <time>2020-11-13T09:43:57.000Z</time>
      </trkpt>
      <trkpt lat="49.82858" lon="4.85126">
        <ele>340</ele>
        <time>2020-11-13T09:43:58.000Z</time>
      </trkpt>
      <trkpt lat="49.82856" lon="4.85129">
        <ele>341</ele>
        <time>2020-11-13T09:43:59.000Z</time>
      </trkpt>
      <trkpt lat="49.82854" lon="4.85131">
        <ele>341</ele>
        <time>2020-11-13T09:44:00.000Z</time>
      </trkpt>
      <trkpt lat="49.82852" lon="4.85134">
        <ele>341</ele>
        <time>2020-11-13T09:44:01.000Z</time>
      </trkpt>
      <trkpt lat="49.8285" lon="4.85136">
        <ele>341</ele>
        <time>2020-11-13T09:44:02.000Z</time>
      </trkpt>
      <trkpt lat="49.82847" lon="4.85139">
        <ele>342</ele>
        <time>2020-11-13T09:44:03.000Z</time>
      </trkpt>
      <trkpt lat="49.82845" lon="4.85141">
        <ele>342</ele>
        <time>2020-11-13T09:44:04.000Z</time>
      </trkpt>
      <trkpt lat="49.82843" lon="4.85144">
        <ele>342</ele>
        <time>2020-11-13T09:44:05.000Z</time>
      </trkpt>
      <trkpt lat="49.82841" lon="4.85146">
        <ele>342</ele>
        <time>2020-11-13T09:44:06.000Z</time>
      </trkpt>
      <trkpt lat="49.82839" lon="4.85149">
        <ele>342</ele>
        <time>2020-11-13T09:44:07.000Z</time>
      </trkpt>
      <trkpt lat="49.82837" lon="4.85152">
        <ele>343</ele>
        <time>2020-11-13T09:44:08.000Z</time>
      </trkpt>
      <trkpt lat="49.82835" lon="4.85155">
        <ele>343</ele>
        <time>2020-11-13T09:44:09.000Z</time>
      </trkpt>
      <trkpt lat="49.82833" lon="4.85158">
        <ele>343</ele>
        <time>2020-11-13T09:44:10.000Z</time>
      </trkpt>
      <trkpt lat="49.82831" lon="4.85161">
        <ele>343</ele>
        <time>2020-11-13T09:44:11.000Z</time>
      </trkpt>
      <trkpt lat="49.82829" lon="4.85164">
        <ele>343</ele>
        <time>2020-11-13T09:44:12.000Z</time>
      </trkpt>
      <trkpt lat="49.82827" lon="4.85167">
        <ele>344</ele>
        <time>2020-11-13T09:44:13.000Z</time>
      </trkpt>
      <trkpt lat="49.82825" lon="4.8517">
        <ele>344</ele>
        <time>2020-11-13T09:44:14.000Z</time>
      </trkpt>
      <trkpt lat="49.82823" lon="4.85174">
        <ele>344</ele>
        <time>2020-11-13T09:44:15.000Z</time>
      </trkpt>
      <trkpt lat="49.82822" lon="4.85178">
        <ele>344</ele>
        <time>2020-11-13T09:44:16.000Z</time>
      </trkpt>
      <trkpt lat="49.8282" lon="4.85181">
        <ele>345</ele>
        <time>2020-11-13T09:44:17.000Z</time>
      </trkpt>
      <trkpt lat="49.82819" lon="4.85184">
        <ele>345</ele>
        <time>2020-11-13T09:44:18.000Z</time>
      </trkpt>
      <trkpt lat="49.82818" lon="4.85187">
        <ele>345</ele>
        <time>2020-11-13T09:44:19.000Z</time>
      </trkpt>
      <trkpt lat="49.82817" lon="4.85191">
        <ele>346</ele>
        <time>2020-11-13T09:44:20.000Z</time>
      </trkpt>
      <trkpt lat="49.82815" lon="4.85194">
        <ele>346</ele>
        <time>2020-11-13T09:44:21.000Z</time>
      </trkpt>
      <trkpt lat="49.82814" lon="4.85198">
        <ele>346</ele>
        <time>2020-11-13T09:44:22.000Z</time>
      </trkpt>
      <trkpt lat="49.82812" lon="4.85201">
        <ele>346</ele>
        <time>2020-11-13T09:44:23.000Z</time>
      </trkpt>
      <trkpt lat="49.82811" lon="4.85204">
        <ele>346</ele>
        <time>2020-11-13T09:44:24.000Z</time>
      </trkpt>
      <trkpt lat="49.82809" lon="4.85208">
        <ele>347</ele>
        <time>2020-11-13T09:44:25.000Z</time>
      </trkpt>
      <trkpt lat="49.82808" lon="4.85211">
        <ele>347</ele>
        <time>2020-11-13T09:44:26.000Z</time>
      </trkpt>
      <trkpt lat="49.82806" lon="4.85214">
        <ele>347</ele>
        <time>2020-11-13T09:44:27.000Z</time>
      </trkpt>
      <trkpt lat="49.82804" lon="4.85216">
        <ele>348</ele>
        <time>2020-11-13T09:44:28.000Z</time>
      </trkpt>
      <trkpt lat="49.82803" lon="4.85219">
        <ele>348</ele>
        <time>2020-11-13T09:44:29.000Z</time>
      </trkpt>
      <trkpt lat="49.82801" lon="4.85223">
        <ele>348</ele>
        <time>2020-11-13T09:44:30.000Z</time>
      </trkpt>
      <trkpt lat="49.82799" lon="4.85226">
        <ele>349</ele>
        <time>2020-11-13T09:44:31.000Z</time>
      </trkpt>
      <trkpt lat="49.82798" lon="4.85229">
        <ele>349</ele>
        <time>2020-11-13T09:44:32.000Z</time>
      </trkpt>
      <trkpt lat="49.82796" lon="4.85232">
        <ele>349</ele>
        <time>2020-11-13T09:44:33.000Z</time>
      </trkpt>
      <trkpt lat="49.82794" lon="4.85234">
        <ele>350</ele>
        <time>2020-11-13T09:44:34.000Z</time>
      </trkpt>
      <trkpt lat="49.82793" lon="4.85235">
        <ele>350</ele>
        <time>2020-11-13T09:44:35.000Z</time>
      </trkpt>
      <trkpt lat="49.82791" lon="4.85236">
        <ele>350</ele>
        <time>2020-11-13T09:44:36.000Z</time>
      </trkpt>
      <trkpt lat="49.82789" lon="4.85235">
        <ele>350</ele>
        <time>2020-11-13T09:44:37.000Z</time>
      </trkpt>
      <trkpt lat="49.82787" lon="4.85234">
        <ele>350</ele>
        <time>2020-11-13T09:44:38.000Z</time>
      </trkpt>
      <trkpt lat="49.82785" lon="4.85232">
        <ele>350</ele>
        <time>2020-11-13T09:44:39.000Z</time>
      </trkpt>
      <trkpt lat="49.82783" lon="4.85229">
        <ele>350</ele>
        <time>2020-11-13T09:44:40.000Z</time>
      </trkpt>
      <trkpt lat="49.82781" lon="4.85224">
        <ele>350</ele>
        <time>2020-11-13T09:44:41.000Z</time>
      </trkpt>
      <trkpt lat="49.82779" lon="4.8522">
        <ele>350</ele>
        <time>2020-11-13T09:44:42.000Z</time>
      </trkpt>
      <trkpt lat="49.82776" lon="4.85214">
        <ele>350</ele>
        <time>2020-11-13T09:44:43.000Z</time>
      </trkpt>
      <trkpt lat="49.82773" lon="4.85209">
        <ele>349</ele>
        <time>2020-11-13T09:44:44.000Z</time>
      </trkpt>
      <trkpt lat="49.8277" lon="4.85203">
        <ele>349</ele>
        <time>2020-11-13T09:44:45.000Z</time>
      </trkpt>
      <trkpt lat="49.82768" lon="4.85197">
        <ele>349</ele>
        <time>2020-11-13T09:44:46.000Z</time>
      </trkpt>
      <trkpt lat="49.82764" lon="4.85191">
        <ele>349</ele>
        <time>2020-11-13T09:44:47.000Z</time>
      </trkpt>
      <trkpt lat="49.82761" lon="4.85183">
        <ele>349</ele>
        <time>2020-11-13T09:44:48.000Z</time>
      </trkpt>
      <trkpt lat="49.82757" lon="4.85175">
        <ele>349</ele>
        <time>2020-11-13T09:44:49.000Z</time>
      </trkpt>
      <trkpt lat="49.82753" lon="4.85167">
        <ele>349</ele>
        <time>2020-11-13T09:44:50.000Z</time>
      </trkpt>
      <trkpt lat="49.82749" lon="4.8516">
        <ele>349</ele>
        <time>2020-11-13T09:44:51.000Z</time>
      </trkpt>
      <trkpt lat="49.82746" lon="4.85152">
        <ele>348</ele>
        <time>2020-11-13T09:44:52.000Z</time>
      </trkpt>
      <trkpt lat="49.82742" lon="4.85145">
        <ele>348</ele>
        <time>2020-11-13T09:44:53.000Z</time>
      </trkpt>
      <trkpt lat="49.82739" lon="4.85138">
        <ele>348</ele>
        <time>2020-11-13T09:44:54.000Z</time>
      </trkpt>
      <trkpt lat="49.82737" lon="4.85132">
        <ele>348</ele>
        <time>2020-11-13T09:44:55.000Z</time>
      </trkpt>
      <trkpt lat="49.82734" lon="4.85126">
        <ele>348</ele>
        <time>2020-11-13T09:44:56.000Z</time>
      </trkpt>
      <trkpt lat="49.82731" lon="4.85121">
        <ele>348</ele>
        <time>2020-11-13T09:44:57.000Z</time>
      </trkpt>
      <trkpt lat="49.82729" lon="4.85116">
        <ele>348</ele>
        <time>2020-11-13T09:44:58.000Z</time>
      </trkpt>
      <trkpt lat="49.82726" lon="4.85111">
        <ele>347</ele>
        <time>2020-11-13T09:44:59.000Z</time>
      </trkpt>
      <trkpt lat="49.82724" lon="4.85106">
        <ele>347</ele>
        <time>2020-11-13T09:45:00.000Z</time>
      </trkpt>
      <trkpt lat="49.82722" lon="4.85101">
        <ele>347</ele>
        <time>2020-11-13T09:45:01.000Z</time>
      </trkpt>
      <trkpt lat="49.82719" lon="4.85095">
        <ele>347</ele>
        <time>2020-11-13T09:45:02.000Z</time>
      </trkpt>
      <trkpt lat="49.82717" lon="4.8509">
        <ele>347</ele>
        <time>2020-11-13T09:45:03.000Z</time>
      </trkpt>
      <trkpt lat="49.82714" lon="4.85086">
        <ele>347</ele>
        <time>2020-11-13T09:45:04.000Z</time>
      </trkpt>
      <trkpt lat="49.82712" lon="4.85081">
        <ele>347</ele>
        <time>2020-11-13T09:45:05.000Z</time>
      </trkpt>
      <trkpt lat="49.8271" lon="4.85077">
        <ele>346</ele>
        <time>2020-11-13T09:45:06.000Z</time>
      </trkpt>
      <trkpt lat="49.82709" lon="4.85073">
        <ele>346</ele>
        <time>2020-11-13T09:45:07.000Z</time>
      </trkpt>
      <trkpt lat="49.82707" lon="4.85069">
        <ele>346</ele>
        <time>2020-11-13T09:45:08.000Z</time>
      </trkpt>
      <trkpt lat="49.82705" lon="4.85065">
        <ele>346</ele>
        <time>2020-11-13T09:45:09.000Z</time>
      </trkpt>
      <trkpt lat="49.82703" lon="4.85061">
        <ele>346</ele>
        <time>2020-11-13T09:45:10.000Z</time>
      </trkpt>
      <trkpt lat="49.82701" lon="4.85058">
        <ele>346</ele>
        <time>2020-11-13T09:45:11.000Z</time>
      </trkpt>
      <trkpt lat="49.82699" lon="4.85054">
        <ele>346</ele>
        <time>2020-11-13T09:45:12.000Z</time>
      </trkpt>
      <trkpt lat="49.82696" lon="4.85052">
        <ele>345</ele>
        <time>2020-11-13T09:45:13.000Z</time>
      </trkpt>
      <trkpt lat="49.82695" lon="4.85048">
        <ele>345</ele>
        <time>2020-11-13T09:45:14.000Z</time>
      </trkpt>
      <trkpt lat="49.82693" lon="4.85045">
        <ele>345</ele>
        <time>2020-11-13T09:45:15.000Z</time>
      </trkpt>
      <trkpt lat="49.82692" lon="4.85042">
        <ele>345</ele>
        <time>2020-11-13T09:45:16.000Z</time>
      </trkpt>
      <trkpt lat="49.8269" lon="4.85039">
        <ele>345</ele>
        <time>2020-11-13T09:45:17.000Z</time>
      </trkpt>
      <trkpt lat="49.82688" lon="4.85036">
        <ele>345</ele>
        <time>2020-11-13T09:45:18.000Z</time>
      </trkpt>
      <trkpt lat="49.82686" lon="4.85033">
        <ele>344</ele>
        <time>2020-11-13T09:45:19.000Z</time>
      </trkpt>
      <trkpt lat="49.82684" lon="4.85029">
        <ele>344</ele>
        <time>2020-11-13T09:45:20.000Z</time>
      </trkpt>
      <trkpt lat="49.82682" lon="4.85026">
        <ele>344</ele>
        <time>2020-11-13T09:45:21.000Z</time>
      </trkpt>
      <trkpt lat="49.8268" lon="4.85022">
        <ele>344</ele>
        <time>2020-11-13T09:45:22.000Z</time>
      </trkpt>
      <trkpt lat="49.82678" lon="4.85019">
        <ele>344</ele>
        <time>2020-11-13T09:45:23.000Z</time>
      </trkpt>
      <trkpt lat="49.82676" lon="4.85015">
        <ele>344</ele>
        <time>2020-11-13T09:45:24.000Z</time>
      </trkpt>
      <trkpt lat="49.82674" lon="4.85011">
        <ele>344</ele>
        <time>2020-11-13T09:45:25.000Z</time>
      </trkpt>
      <trkpt lat="49.82672" lon="4.85008">
        <ele>344</ele>
        <time>2020-11-13T09:45:26.000Z</time>
      </trkpt>
      <trkpt lat="49.82671" lon="4.85003">
        <ele>344</ele>
        <time>2020-11-13T09:45:27.000Z</time>
      </trkpt>
      <trkpt lat="49.82669" lon="4.84999">
        <ele>344</ele>
        <time>2020-11-13T09:45:28.000Z</time>
      </trkpt>
      <trkpt lat="49.82667" lon="4.84995">
        <ele>344</ele>
        <time>2020-11-13T09:45:29.000Z</time>
      </trkpt>
      <trkpt lat="49.82666" lon="4.84991">
        <ele>344</ele>
        <time>2020-11-13T09:45:30.000Z</time>
      </trkpt>
      <trkpt lat="49.82664" lon="4.84987">
        <ele>344</ele>
        <time>2020-11-13T09:45:31.000Z</time>
      </trkpt>
      <trkpt lat="49.82662" lon="4.84982">
        <ele>344</ele>
        <time>2020-11-13T09:45:32.000Z</time>
      </trkpt>
      <trkpt lat="49.8266" lon="4.84978">
        <ele>344</ele>
        <time>2020-11-13T09:45:33.000Z</time>
      </trkpt>
      <trkpt lat="49.82659" lon="4.84973">
        <ele>344</ele>
        <time>2020-11-13T09:45:34.000Z</time>
      </trkpt>
      <trkpt lat="49.82657" lon="4.84969">
        <ele>344</ele>
        <time>2020-11-13T09:45:35.000Z</time>
      </trkpt>
      <trkpt lat="49.82655" lon="4.84965">
        <ele>344</ele>
        <time>2020-11-13T09:45:36.000Z</time>
      </trkpt>
      <trkpt lat="49.82653" lon="4.8496">
        <ele>344</ele>
        <time>2020-11-13T09:45:37.000Z</time>
      </trkpt>
      <trkpt lat="49.82651" lon="4.84956">
        <ele>344</ele>
        <time>2020-11-13T09:45:38.000Z</time>
      </trkpt>
      <trkpt lat="49.82648" lon="4.84952">
        <ele>344</ele>
        <time>2020-11-13T09:45:39.000Z</time>
      </trkpt>
      <trkpt lat="49.82647" lon="4.84948">
        <ele>344</ele>
        <time>2020-11-13T09:45:40.000Z</time>
      </trkpt>
      <trkpt lat="49.82645" lon="4.84944">
        <ele>344</ele>
        <time>2020-11-13T09:45:41.000Z</time>
      </trkpt>
      <trkpt lat="49.82643" lon="4.8494">
        <ele>344</ele>
        <time>2020-11-13T09:45:42.000Z</time>
      </trkpt>
      <trkpt lat="49.82641" lon="4.84936">
        <ele>344</ele>
        <time>2020-11-13T09:45:43.000Z</time>
      </trkpt>
      <trkpt lat="49.82639" lon="4.84933">
        <ele>344</ele>
        <time>2020-11-13T09:45:44.000Z</time>
      </trkpt>
      <trkpt lat="49.82636" lon="4.84929">
        <ele>343</ele>
        <time>2020-11-13T09:45:45.000Z</time>
      </trkpt>
      <trkpt lat="49.82634" lon="4.84924">
        <ele>343</ele>
        <time>2020-11-13T09:45:46.000Z</time>
      </trkpt>
      <trkpt lat="49.82632" lon="4.8492">
        <ele>343</ele>
        <time>2020-11-13T09:45:47.000Z</time>
      </trkpt>
      <trkpt lat="49.82631" lon="4.84916">
        <ele>343</ele>
        <time>2020-11-13T09:45:48.000Z</time>
      </trkpt>
      <trkpt lat="49.82629" lon="4.84912">
        <ele>343</ele>
        <time>2020-11-13T09:45:49.000Z</time>
      </trkpt>
      <trkpt lat="49.82627" lon="4.84907">
        <ele>343</ele>
        <time>2020-11-13T09:45:50.000Z</time>
      </trkpt>
      <trkpt lat="49.82624" lon="4.84903">
        <ele>343</ele>
        <time>2020-11-13T09:45:51.000Z</time>
      </trkpt>
      <trkpt lat="49.82622" lon="4.84899">
        <ele>343</ele>
        <time>2020-11-13T09:45:52.000Z</time>
      </trkpt>
      <trkpt lat="49.8262" lon="4.84895">
        <ele>343</ele>
        <time>2020-11-13T09:45:53.000Z</time>
      </trkpt>
      <trkpt lat="49.82618" lon="4.84891">
        <ele>343</ele>
        <time>2020-11-13T09:45:54.000Z</time>
      </trkpt>
      <trkpt lat="49.82616" lon="4.84886">
        <ele>343</ele>
        <time>2020-11-13T09:45:55.000Z</time>
      </trkpt>
      <trkpt lat="49.82614" lon="4.84882">
        <ele>344</ele>
        <time>2020-11-13T09:45:56.000Z</time>
      </trkpt>
      <trkpt lat="49.82612" lon="4.84879">
        <ele>344</ele>
        <time>2020-11-13T09:45:57.000Z</time>
      </trkpt>
      <trkpt lat="49.8261" lon="4.84875">
        <ele>344</ele>
        <time>2020-11-13T09:45:58.000Z</time>
      </trkpt>
      <trkpt lat="49.82608" lon="4.84871">
        <ele>344</ele>
        <time>2020-11-13T09:45:59.000Z</time>
      </trkpt>
      <trkpt lat="49.82606" lon="4.84869">
        <ele>344</ele>
        <time>2020-11-13T09:46:00.000Z</time>
      </trkpt>
      <trkpt lat="49.82605" lon="4.84866">
        <ele>344</ele>
        <time>2020-11-13T09:46:01.000Z</time>
      </trkpt>
      <trkpt lat="49.82603" lon="4.84862">
        <ele>344</ele>
        <time>2020-11-13T09:46:02.000Z</time>
      </trkpt>
      <trkpt lat="49.82601" lon="4.84859">
        <ele>344</ele>
        <time>2020-11-13T09:46:03.000Z</time>
      </trkpt>
      <trkpt lat="49.82599" lon="4.84855">
        <ele>344</ele>
        <time>2020-11-13T09:46:04.000Z</time>
      </trkpt>
      <trkpt lat="49.82597" lon="4.84852">
        <ele>344</ele>
        <time>2020-11-13T09:46:05.000Z</time>
      </trkpt>
      <trkpt lat="49.82595" lon="4.84849">
        <ele>344</ele>
        <time>2020-11-13T09:46:06.000Z</time>
      </trkpt>
      <trkpt lat="49.82594" lon="4.84845">
        <ele>344</ele>
        <time>2020-11-13T09:46:07.000Z</time>
      </trkpt>
      <trkpt lat="49.82592" lon="4.84842">
        <ele>345</ele>
        <time>2020-11-13T09:46:08.000Z</time>
      </trkpt>
      <trkpt lat="49.8259" lon="4.84839">
        <ele>345</ele>
        <time>2020-11-13T09:46:09.000Z</time>
      </trkpt>
      <trkpt lat="49.82588" lon="4.84835">
        <ele>345</ele>
        <time>2020-11-13T09:46:10.000Z</time>
      </trkpt>
      <trkpt lat="49.82587" lon="4.84832">
        <ele>345</ele>
        <time>2020-11-13T09:46:11.000Z</time>
      </trkpt>
      <trkpt lat="49.82585" lon="4.84829">
        <ele>345</ele>
        <time>2020-11-13T09:46:12.000Z</time>
      </trkpt>
      <trkpt lat="49.82584" lon="4.84825">
        <ele>345</ele>
        <time>2020-11-13T09:46:13.000Z</time>
      </trkpt>
      <trkpt lat="49.82582" lon="4.84822">
        <ele>346</ele>
        <time>2020-11-13T09:46:14.000Z</time>
      </trkpt>
      <trkpt lat="49.82581" lon="4.84819">
        <ele>346</ele>
        <time>2020-11-13T09:46:15.000Z</time>
      </trkpt>
      <trkpt lat="49.82579" lon="4.84815">
        <ele>346</ele>
        <time>2020-11-13T09:46:16.000Z</time>
      </trkpt>
      <trkpt lat="49.82577" lon="4.84812">
        <ele>346</ele>
        <time>2020-11-13T09:46:17.000Z</time>
      </trkpt>
      <trkpt lat="49.82576" lon="4.84808">
        <ele>347</ele>
        <time>2020-11-13T09:46:18.000Z</time>
      </trkpt>
      <trkpt lat="49.82575" lon="4.84804">
        <ele>347</ele>
        <time>2020-11-13T09:46:19.000Z</time>
      </trkpt>
      <trkpt lat="49.82573" lon="4.84801">
        <ele>347</ele>
        <time>2020-11-13T09:46:20.000Z</time>
      </trkpt>
      <trkpt lat="49.82571" lon="4.84797">
        <ele>347</ele>
        <time>2020-11-13T09:46:21.000Z</time>
      </trkpt>
      <trkpt lat="49.82569" lon="4.84793">
        <ele>347</ele>
        <time>2020-11-13T09:46:22.000Z</time>
      </trkpt>
      <trkpt lat="49.82567" lon="4.84789">
        <ele>347</ele>
        <time>2020-11-13T09:46:23.000Z</time>
      </trkpt>
      <trkpt lat="49.82566" lon="4.84784">
        <ele>347</ele>
        <time>2020-11-13T09:46:24.000Z</time>
      </trkpt>
      <trkpt lat="49.82564" lon="4.8478">
        <ele>348</ele>
        <time>2020-11-13T09:46:25.000Z</time>
      </trkpt>
      <trkpt lat="49.82562" lon="4.84776">
        <ele>348</ele>
        <time>2020-11-13T09:46:26.000Z</time>
      </trkpt>
      <trkpt lat="49.8256" lon="4.84772">
        <ele>348</ele>
        <time>2020-11-13T09:46:27.000Z</time>
      </trkpt>
      <trkpt lat="49.82558" lon="4.84768">
        <ele>348</ele>
        <time>2020-11-13T09:46:28.000Z</time>
      </trkpt>
      <trkpt lat="49.82556" lon="4.84764">
        <ele>348</ele>
        <time>2020-11-13T09:46:29.000Z</time>
      </trkpt>
      <trkpt lat="49.82554" lon="4.8476">
        <ele>348</ele>
        <time>2020-11-13T09:46:30.000Z</time>
      </trkpt>
      <trkpt lat="49.82552" lon="4.84755">
        <ele>348</ele>
        <time>2020-11-13T09:46:31.000Z</time>
      </trkpt>
      <trkpt lat="49.82549" lon="4.8475">
        <ele>348</ele>
        <time>2020-11-13T09:46:32.000Z</time>
      </trkpt>
      <trkpt lat="49.82547" lon="4.84744">
        <ele>348</ele>
        <time>2020-11-13T09:46:33.000Z</time>
      </trkpt>
      <trkpt lat="49.82545" lon="4.84738">
        <ele>348</ele>
        <time>2020-11-13T09:46:34.000Z</time>
      </trkpt>
      <trkpt lat="49.82542" lon="4.84731">
        <ele>348</ele>
        <time>2020-11-13T09:46:35.000Z</time>
      </trkpt>
      <trkpt lat="49.82539" lon="4.84723">
        <ele>348</ele>
        <time>2020-11-13T09:46:36.000Z</time>
      </trkpt>
      <trkpt lat="49.82536" lon="4.84717">
        <ele>348</ele>
        <time>2020-11-13T09:46:37.000Z</time>
      </trkpt>
      <trkpt lat="49.82533" lon="4.8471">
        <ele>348</ele>
        <time>2020-11-13T09:46:38.000Z</time>
      </trkpt>
      <trkpt lat="49.82529" lon="4.84703">
        <ele>348</ele>
        <time>2020-11-13T09:46:39.000Z</time>
      </trkpt>
      <trkpt lat="49.82525" lon="4.84695">
        <ele>348</ele>
        <time>2020-11-13T09:46:40.000Z</time>
      </trkpt>
      <trkpt lat="49.82521" lon="4.84686">
        <ele>347</ele>
        <time>2020-11-13T09:46:41.000Z</time>
      </trkpt>
      <trkpt lat="49.82518" lon="4.84678">
        <ele>347</ele>
        <time>2020-11-13T09:46:42.000Z</time>
      </trkpt>
      <trkpt lat="49.82514" lon="4.8467">
        <ele>347</ele>
        <time>2020-11-13T09:46:43.000Z</time>
      </trkpt>
      <trkpt lat="49.82511" lon="4.84661">
        <ele>347</ele>
        <time>2020-11-13T09:46:44.000Z</time>
      </trkpt>
      <trkpt lat="49.82508" lon="4.84654">
        <ele>347</ele>
        <time>2020-11-13T09:46:45.000Z</time>
      </trkpt>
      <trkpt lat="49.82504" lon="4.84648">
        <ele>347</ele>
        <time>2020-11-13T09:46:46.000Z</time>
      </trkpt>
      <trkpt lat="49.825" lon="4.84641">
        <ele>347</ele>
        <time>2020-11-13T09:46:47.000Z</time>
      </trkpt>
      <trkpt lat="49.82496" lon="4.84633">
        <ele>346</ele>
        <time>2020-11-13T09:46:48.000Z</time>
      </trkpt>
      <trkpt lat="49.82493" lon="4.84625">
        <ele>346</ele>
        <time>2020-11-13T09:46:49.000Z</time>
      </trkpt>
      <trkpt lat="49.82489" lon="4.84617">
        <ele>346</ele>
        <time>2020-11-13T09:46:50.000Z</time>
      </trkpt>
      <trkpt lat="49.82486" lon="4.84609">
        <ele>345</ele>
        <time>2020-11-13T09:46:51.000Z</time>
      </trkpt>
      <trkpt lat="49.82483" lon="4.84602">
        <ele>345</ele>
        <time>2020-11-13T09:46:52.000Z</time>
      </trkpt>
      <trkpt lat="49.8248" lon="4.84595">
        <ele>345</ele>
        <time>2020-11-13T09:46:53.000Z</time>
      </trkpt>
      <trkpt lat="49.82477" lon="4.84589">
        <ele>344</ele>
        <time>2020-11-13T09:46:54.000Z</time>
      </trkpt>
      <trkpt lat="49.82475" lon="4.84584">
        <ele>344</ele>
        <time>2020-11-13T09:46:55.000Z</time>
      </trkpt>
      <trkpt lat="49.82473" lon="4.84582">
        <ele>343</ele>
        <time>2020-11-13T09:46:56.000Z</time>
      </trkpt>
      <trkpt lat="49.82472" lon="4.84582">
        <ele>343</ele>
        <time>2020-11-13T09:46:57.000Z</time>
      </trkpt>
      <trkpt lat="49.82471" lon="4.84582">
        <ele>343</ele>
        <time>2020-11-13T09:46:58.000Z</time>
      </trkpt>
      <trkpt lat="49.82469" lon="4.84583">
        <ele>342</ele>
        <time>2020-11-13T09:46:59.000Z</time>
      </trkpt>
      <trkpt lat="49.82468" lon="4.84583">
        <ele>342</ele>
        <time>2020-11-13T09:47:00.000Z</time>
      </trkpt>
      <trkpt lat="49.82467" lon="4.84584">
        <ele>341</ele>
        <time>2020-11-13T09:47:01.000Z</time>
      </trkpt>
      <trkpt lat="49.82466" lon="4.84585">
        <ele>341</ele>
        <time>2020-11-13T09:47:02.000Z</time>
      </trkpt>
      <trkpt lat="49.82465" lon="4.84587">
        <ele>340</ele>
        <time>2020-11-13T09:47:03.000Z</time>
      </trkpt>
      <trkpt lat="49.82463" lon="4.84589">
        <ele>340</ele>
        <time>2020-11-13T09:47:04.000Z</time>
      </trkpt>
      <trkpt lat="49.82462" lon="4.84591">
        <ele>340</ele>
        <time>2020-11-13T09:47:05.000Z</time>
      </trkpt>
      <trkpt lat="49.82459" lon="4.84594">
        <ele>340</ele>
        <time>2020-11-13T09:47:06.000Z</time>
      </trkpt>
      <trkpt lat="49.82457" lon="4.84596">
        <ele>339</ele>
        <time>2020-11-13T09:47:07.000Z</time>
      </trkpt>
      <trkpt lat="49.82455" lon="4.84598">
        <ele>339</ele>
        <time>2020-11-13T09:47:08.000Z</time>
      </trkpt>
      <trkpt lat="49.82453" lon="4.84601">
        <ele>339</ele>
        <time>2020-11-13T09:47:09.000Z</time>
      </trkpt>
      <trkpt lat="49.8245" lon="4.84603">
        <ele>339</ele>
        <time>2020-11-13T09:47:10.000Z</time>
      </trkpt>
      <trkpt lat="49.82447" lon="4.84604">
        <ele>339</ele>
        <time>2020-11-13T09:47:11.000Z</time>
      </trkpt>
      <trkpt lat="49.82445" lon="4.84606">
        <ele>339</ele>
        <time>2020-11-13T09:47:12.000Z</time>
      </trkpt>
      <trkpt lat="49.82444" lon="4.84607">
        <ele>339</ele>
        <time>2020-11-13T09:47:13.000Z</time>
      </trkpt>
      <trkpt lat="49.82442" lon="4.84609">
        <ele>339</ele>
        <time>2020-11-13T09:47:14.000Z</time>
      </trkpt>
      <trkpt lat="49.82441" lon="4.84611">
        <ele>339</ele>
        <time>2020-11-13T09:47:15.000Z</time>
      </trkpt>
      <trkpt lat="49.82439" lon="4.84613">
        <ele>339</ele>
        <time>2020-11-13T09:47:16.000Z</time>
      </trkpt>
      <trkpt lat="49.82437" lon="4.84615">
        <ele>339</ele>
        <time>2020-11-13T09:47:17.000Z</time>
      </trkpt>
      <trkpt lat="49.82435" lon="4.84617">
        <ele>339</ele>
        <time>2020-11-13T09:47:18.000Z</time>
      </trkpt>
      <trkpt lat="49.82433" lon="4.84619">
        <ele>339</ele>
        <time>2020-11-13T09:47:19.000Z</time>
      </trkpt>
      <trkpt lat="49.82431" lon="4.84622">
        <ele>338</ele>
        <time>2020-11-13T09:47:20.000Z</time>
      </trkpt>
      <trkpt lat="49.82429" lon="4.84624">
        <ele>338</ele>
        <time>2020-11-13T09:47:21.000Z</time>
      </trkpt>
      <trkpt lat="49.82427" lon="4.84626">
        <ele>338</ele>
        <time>2020-11-13T09:47:22.000Z</time>
      </trkpt>
      <trkpt lat="49.82426" lon="4.84628">
        <ele>338</ele>
        <time>2020-11-13T09:47:23.000Z</time>
      </trkpt>
      <trkpt lat="49.82424" lon="4.8463">
        <ele>338</ele>
        <time>2020-11-13T09:47:24.000Z</time>
      </trkpt>
      <trkpt lat="49.82423" lon="4.84631">
        <ele>338</ele>
        <time>2020-11-13T09:47:25.000Z</time>
      </trkpt>
      <trkpt lat="49.82422" lon="4.84633">
        <ele>338</ele>
        <time>2020-11-13T09:47:26.000Z</time>
      </trkpt>
      <trkpt lat="49.8242" lon="4.84635">
        <ele>338</ele>
        <time>2020-11-13T09:47:27.000Z</time>
      </trkpt>
      <trkpt lat="49.82419" lon="4.84636">
        <ele>338</ele>
        <time>2020-11-13T09:47:28.000Z</time>
      </trkpt>
      <trkpt lat="49.82418" lon="4.84638">
        <ele>338</ele>
        <time>2020-11-13T09:47:29.000Z</time>
      </trkpt>
      <trkpt lat="49.82416" lon="4.84639">
        <ele>338</ele>
        <time>2020-11-13T09:47:30.000Z</time>
      </trkpt>
      <trkpt lat="49.82414" lon="4.84641">
        <ele>338</ele>
        <time>2020-11-13T09:47:31.000Z</time>
      </trkpt>
      <trkpt lat="49.82413" lon="4.84643">
        <ele>338</ele>
        <time>2020-11-13T09:47:32.000Z</time>
      </trkpt>
      <trkpt lat="49.82412" lon="4.84645">
        <ele>338</ele>
        <time>2020-11-13T09:47:33.000Z</time>
      </trkpt>
      <trkpt lat="49.8241" lon="4.84646">
        <ele>338</ele>
        <time>2020-11-13T09:47:34.000Z</time>
      </trkpt>
      <trkpt lat="49.82409" lon="4.84648">
        <ele>338</ele>
        <time>2020-11-13T09:47:35.000Z</time>
      </trkpt>
      <trkpt lat="49.82407" lon="4.84649">
        <ele>338</ele>
        <time>2020-11-13T09:47:36.000Z</time>
      </trkpt>
      <trkpt lat="49.82406" lon="4.84651">
        <ele>338</ele>
        <time>2020-11-13T09:47:37.000Z</time>
      </trkpt>
      <trkpt lat="49.82404" lon="4.84653">
        <ele>338</ele>
        <time>2020-11-13T09:47:38.000Z</time>
      </trkpt>
      <trkpt lat="49.82403" lon="4.84654">
        <ele>338</ele>
        <time>2020-11-13T09:47:39.000Z</time>
      </trkpt>
      <trkpt lat="49.82402" lon="4.84656">
        <ele>338</ele>
        <time>2020-11-13T09:47:40.000Z</time>
      </trkpt>
      <trkpt lat="49.824" lon="4.84658">
        <ele>339</ele>
        <time>2020-11-13T09:47:41.000Z</time>
      </trkpt>
      <trkpt lat="49.82399" lon="4.84659">
        <ele>339</ele>
        <time>2020-11-13T09:47:42.000Z</time>
      </trkpt>
      <trkpt lat="49.82398" lon="4.84661">
        <ele>339</ele>
        <time>2020-11-13T09:47:43.000Z</time>
      </trkpt>
      <trkpt lat="49.82397" lon="4.84662">
        <ele>339</ele>
        <time>2020-11-13T09:47:44.000Z</time>
      </trkpt>
      <trkpt lat="49.82396" lon="4.84664">
        <ele>339</ele>
        <time>2020-11-13T09:47:45.000Z</time>
      </trkpt>
      <trkpt lat="49.82394" lon="4.84666">
        <ele>340</ele>
        <time>2020-11-13T09:47:46.000Z</time>
      </trkpt>
      <trkpt lat="49.82393" lon="4.84667">
        <ele>340</ele>
        <time>2020-11-13T09:47:47.000Z</time>
      </trkpt>
      <trkpt lat="49.82391" lon="4.84668">
        <ele>340</ele>
        <time>2020-11-13T09:47:48.000Z</time>
      </trkpt>
      <trkpt lat="49.8239" lon="4.84669">
        <ele>340</ele>
        <time>2020-11-13T09:47:49.000Z</time>
      </trkpt>
      <trkpt lat="49.82388" lon="4.84671">
        <ele>340</ele>
        <time>2020-11-13T09:47:50.000Z</time>
      </trkpt>
      <trkpt lat="49.82387" lon="4.84672">
        <ele>340</ele>
        <time>2020-11-13T09:47:51.000Z</time>
      </trkpt>
      <trkpt lat="49.82385" lon="4.84673">
        <ele>340</ele>
        <time>2020-11-13T09:47:52.000Z</time>
      </trkpt>
      <trkpt lat="49.82383" lon="4.84673">
        <ele>340</ele>
        <time>2020-11-13T09:47:53.000Z</time>
      </trkpt>
      <trkpt lat="49.82381" lon="4.84673">
        <ele>340</ele>
        <time>2020-11-13T09:47:54.000Z</time>
      </trkpt>
      <trkpt lat="49.82379" lon="4.84673">
        <ele>340</ele>
        <time>2020-11-13T09:47:55.000Z</time>
      </trkpt>
      <trkpt lat="49.82376" lon="4.84672">
        <ele>340</ele>
        <time>2020-11-13T09:47:56.000Z</time>
      </trkpt>
      <trkpt lat="49.82374" lon="4.84671">
        <ele>340</ele>
        <time>2020-11-13T09:47:57.000Z</time>
      </trkpt>
      <trkpt lat="49.82371" lon="4.8467">
        <ele>340</ele>
        <time>2020-11-13T09:47:58.000Z</time>
      </trkpt>
      <trkpt lat="49.82368" lon="4.84668">
        <ele>340</ele>
        <time>2020-11-13T09:47:59.000Z</time>
      </trkpt>
      <trkpt lat="49.82366" lon="4.84666">
        <ele>340</ele>
        <time>2020-11-13T09:48:00.000Z</time>
      </trkpt>
      <trkpt lat="49.82363" lon="4.84663">
        <ele>340</ele>
        <time>2020-11-13T09:48:01.000Z</time>
      </trkpt>
      <trkpt lat="49.8236" lon="4.84661">
        <ele>340</ele>
        <time>2020-11-13T09:48:02.000Z</time>
      </trkpt>
      <trkpt lat="49.82358" lon="4.84659">
        <ele>340</ele>
        <time>2020-11-13T09:48:03.000Z</time>
      </trkpt>
      <trkpt lat="49.82355" lon="4.84655">
        <ele>340</ele>
        <time>2020-11-13T09:48:04.000Z</time>
      </trkpt>
      <trkpt lat="49.82352" lon="4.84652">
        <ele>340</ele>
        <time>2020-11-13T09:48:05.000Z</time>
      </trkpt>
      <trkpt lat="49.82349" lon="4.84647">
        <ele>340</ele>
        <time>2020-11-13T09:48:06.000Z</time>
      </trkpt>
      <trkpt lat="49.82346" lon="4.84642">
        <ele>339</ele>
        <time>2020-11-13T09:48:07.000Z</time>
      </trkpt>
      <trkpt lat="49.82343" lon="4.84637">
        <ele>339</ele>
        <time>2020-11-13T09:48:08.000Z</time>
      </trkpt>
      <trkpt lat="49.8234" lon="4.84631">
        <ele>339</ele>
        <time>2020-11-13T09:48:09.000Z</time>
      </trkpt>
      <trkpt lat="49.82336" lon="4.84625">
        <ele>339</ele>
        <time>2020-11-13T09:48:10.000Z</time>
      </trkpt>
      <trkpt lat="49.82332" lon="4.84621">
        <ele>339</ele>
        <time>2020-11-13T09:48:11.000Z</time>
      </trkpt>
      <trkpt lat="49.82328" lon="4.84617">
        <ele>339</ele>
        <time>2020-11-13T09:48:12.000Z</time>
      </trkpt>
      <trkpt lat="49.82324" lon="4.84614">
        <ele>339</ele>
        <time>2020-11-13T09:48:13.000Z</time>
      </trkpt>
      <trkpt lat="49.82319" lon="4.8461">
        <ele>339</ele>
        <time>2020-11-13T09:48:14.000Z</time>
      </trkpt>
      <trkpt lat="49.82315" lon="4.84606">
        <ele>339</ele>
        <time>2020-11-13T09:48:15.000Z</time>
      </trkpt>
      <trkpt lat="49.82311" lon="4.84602">
        <ele>338</ele>
        <time>2020-11-13T09:48:16.000Z</time>
      </trkpt>
      <trkpt lat="49.82308" lon="4.84597">
        <ele>338</ele>
        <time>2020-11-13T09:48:17.000Z</time>
      </trkpt>
      <trkpt lat="49.82305" lon="4.84593">
        <ele>338</ele>
        <time>2020-11-13T09:48:18.000Z</time>
      </trkpt>
      <trkpt lat="49.82301" lon="4.84588">
        <ele>338</ele>
        <time>2020-11-13T09:48:19.000Z</time>
      </trkpt>
      <trkpt lat="49.82296" lon="4.84585">
        <ele>338</ele>
        <time>2020-11-13T09:48:20.000Z</time>
      </trkpt>
      <trkpt lat="49.82292" lon="4.84581">
        <ele>337</ele>
        <time>2020-11-13T09:48:21.000Z</time>
      </trkpt>
      <trkpt lat="49.82287" lon="4.84577">
        <ele>337</ele>
        <time>2020-11-13T09:48:22.000Z</time>
      </trkpt>
      <trkpt lat="49.82282" lon="4.84574">
        <ele>337</ele>
        <time>2020-11-13T09:48:23.000Z</time>
      </trkpt>
      <trkpt lat="49.82276" lon="4.8457">
        <ele>337</ele>
        <time>2020-11-13T09:48:24.000Z</time>
      </trkpt>
      <trkpt lat="49.82271" lon="4.84567">
        <ele>337</ele>
        <time>2020-11-13T09:48:25.000Z</time>
      </trkpt>
      <trkpt lat="49.82265" lon="4.84563">
        <ele>336</ele>
        <time>2020-11-13T09:48:26.000Z</time>
      </trkpt>
      <trkpt lat="49.8226" lon="4.84559">
        <ele>336</ele>
        <time>2020-11-13T09:48:27.000Z</time>
      </trkpt>
      <trkpt lat="49.82256" lon="4.84556">
        <ele>336</ele>
        <time>2020-11-13T09:48:28.000Z</time>
      </trkpt>
      <trkpt lat="49.82252" lon="4.84553">
        <ele>336</ele>
        <time>2020-11-13T09:48:29.000Z</time>
      </trkpt>
      <trkpt lat="49.82248" lon="4.8455">
        <ele>335</ele>
        <time>2020-11-13T09:48:30.000Z</time>
      </trkpt>
      <trkpt lat="49.82244" lon="4.84548">
        <ele>335</ele>
        <time>2020-11-13T09:48:31.000Z</time>
      </trkpt>
      <trkpt lat="49.8224" lon="4.84546">
        <ele>335</ele>
        <time>2020-11-13T09:48:32.000Z</time>
      </trkpt>
      <trkpt lat="49.82237" lon="4.84545">
        <ele>335</ele>
        <time>2020-11-13T09:48:33.000Z</time>
      </trkpt>
      <trkpt lat="49.82235" lon="4.84544">
        <ele>335</ele>
        <time>2020-11-13T09:48:34.000Z</time>
      </trkpt>
      <trkpt lat="49.82233" lon="4.84543">
        <ele>335</ele>
        <time>2020-11-13T09:48:35.000Z</time>
      </trkpt>
      <trkpt lat="49.8223" lon="4.84542">
        <ele>334</ele>
        <time>2020-11-13T09:48:36.000Z</time>
      </trkpt>
      <trkpt lat="49.82228" lon="4.84541">
        <ele>334</ele>
        <time>2020-11-13T09:48:37.000Z</time>
      </trkpt>
      <trkpt lat="49.82226" lon="4.84541">
        <ele>334</ele>
        <time>2020-11-13T09:48:38.000Z</time>
      </trkpt>
      <trkpt lat="49.82224" lon="4.8454">
        <ele>334</ele>
        <time>2020-11-13T09:48:39.000Z</time>
      </trkpt>
      <trkpt lat="49.82223" lon="4.84539">
        <ele>334</ele>
        <time>2020-11-13T09:48:40.000Z</time>
      </trkpt>
      <trkpt lat="49.82221" lon="4.84538">
        <ele>334</ele>
        <time>2020-11-13T09:48:41.000Z</time>
      </trkpt>
      <trkpt lat="49.82219" lon="4.84538">
        <ele>334</ele>
        <time>2020-11-13T09:48:42.000Z</time>
      </trkpt>
      <trkpt lat="49.82217" lon="4.84537">
        <ele>334</ele>
        <time>2020-11-13T09:48:43.000Z</time>
      </trkpt>
      <trkpt lat="49.82215" lon="4.84537">
        <ele>333</ele>
        <time>2020-11-13T09:48:44.000Z</time>
      </trkpt>
      <trkpt lat="49.82212" lon="4.84536">
        <ele>333</ele>
        <time>2020-11-13T09:48:45.000Z</time>
      </trkpt>
      <trkpt lat="49.8221" lon="4.84535">
        <ele>333</ele>
        <time>2020-11-13T09:48:46.000Z</time>
      </trkpt>
      <trkpt lat="49.82208" lon="4.84534">
        <ele>333</ele>
        <time>2020-11-13T09:48:47.000Z</time>
      </trkpt>
      <trkpt lat="49.82205" lon="4.84533">
        <ele>332</ele>
        <time>2020-11-13T09:48:48.000Z</time>
      </trkpt>
      <trkpt lat="49.82203" lon="4.84532">
        <ele>332</ele>
        <time>2020-11-13T09:48:49.000Z</time>
      </trkpt>
      <trkpt lat="49.82202" lon="4.84531">
        <ele>332</ele>
        <time>2020-11-13T09:48:50.000Z</time>
      </trkpt>
      <trkpt lat="49.822" lon="4.84531">
        <ele>332</ele>
        <time>2020-11-13T09:48:51.000Z</time>
      </trkpt>
      <trkpt lat="49.82198" lon="4.84529">
        <ele>332</ele>
        <time>2020-11-13T09:48:52.000Z</time>
      </trkpt>
      <trkpt lat="49.82197" lon="4.84529">
        <ele>332</ele>
        <time>2020-11-13T09:48:53.000Z</time>
      </trkpt>
      <trkpt lat="49.82195" lon="4.84528">
        <ele>332</ele>
        <time>2020-11-13T09:48:54.000Z</time>
      </trkpt>
      <trkpt lat="49.82193" lon="4.84527">
        <ele>332</ele>
        <time>2020-11-13T09:48:55.000Z</time>
      </trkpt>
      <trkpt lat="49.82191" lon="4.84527">
        <ele>332</ele>
        <time>2020-11-13T09:48:56.000Z</time>
      </trkpt>
      <trkpt lat="49.82189" lon="4.84526">
        <ele>332</ele>
        <time>2020-11-13T09:48:57.000Z</time>
      </trkpt>
      <trkpt lat="49.82187" lon="4.84525">
        <ele>332</ele>
        <time>2020-11-13T09:48:58.000Z</time>
      </trkpt>
      <trkpt lat="49.82185" lon="4.84523">
        <ele>332</ele>
        <time>2020-11-13T09:48:59.000Z</time>
      </trkpt>
      <trkpt lat="49.82183" lon="4.84522">
        <ele>332</ele>
        <time>2020-11-13T09:49:00.000Z</time>
      </trkpt>
      <trkpt lat="49.82181" lon="4.84521">
        <ele>332</ele>
        <time>2020-11-13T09:49:01.000Z</time>
      </trkpt>
      <trkpt lat="49.82178" lon="4.8452">
        <ele>332</ele>
        <time>2020-11-13T09:49:02.000Z</time>
      </trkpt>
      <trkpt lat="49.82176" lon="4.84519">
        <ele>332</ele>
        <time>2020-11-13T09:49:03.000Z</time>
      </trkpt>
      <trkpt lat="49.82175" lon="4.84518">
        <ele>332</ele>
        <time>2020-11-13T09:49:04.000Z</time>
      </trkpt>
      <trkpt lat="49.82173" lon="4.84517">
        <ele>332</ele>
        <time>2020-11-13T09:49:05.000Z</time>
      </trkpt>
      <trkpt lat="49.82171" lon="4.84515">
        <ele>332</ele>
        <time>2020-11-13T09:49:06.000Z</time>
      </trkpt>
      <trkpt lat="49.82169" lon="4.84514">
        <ele>332</ele>
        <time>2020-11-13T09:49:07.000Z</time>
      </trkpt>
      <trkpt lat="49.82167" lon="4.84512">
        <ele>332</ele>
        <time>2020-11-13T09:49:08.000Z</time>
      </trkpt>
      <trkpt lat="49.82165" lon="4.8451">
        <ele>332</ele>
        <time>2020-11-13T09:49:09.000Z</time>
      </trkpt>
      <trkpt lat="49.82163" lon="4.84507">
        <ele>332</ele>
        <time>2020-11-13T09:49:10.000Z</time>
      </trkpt>
      <trkpt lat="49.8216" lon="4.84505">
        <ele>332</ele>
        <time>2020-11-13T09:49:11.000Z</time>
      </trkpt>
      <trkpt lat="49.82158" lon="4.84502">
        <ele>332</ele>
        <time>2020-11-13T09:49:12.000Z</time>
      </trkpt>
      <trkpt lat="49.82155" lon="4.845">
        <ele>332</ele>
        <time>2020-11-13T09:49:13.000Z</time>
      </trkpt>
      <trkpt lat="49.82153" lon="4.84496">
        <ele>332</ele>
        <time>2020-11-13T09:49:14.000Z</time>
      </trkpt>
      <trkpt lat="49.82151" lon="4.84493">
        <ele>332</ele>
        <time>2020-11-13T09:49:15.000Z</time>
      </trkpt>
      <trkpt lat="49.82149" lon="4.8449">
        <ele>332</ele>
        <time>2020-11-13T09:49:16.000Z</time>
      </trkpt>
      <trkpt lat="49.82146" lon="4.84486">
        <ele>332</ele>
        <time>2020-11-13T09:49:17.000Z</time>
      </trkpt>
      <trkpt lat="49.82142" lon="4.84481">
        <ele>332</ele>
        <time>2020-11-13T09:49:18.000Z</time>
      </trkpt>
      <trkpt lat="49.82139" lon="4.84476">
        <ele>332</ele>
        <time>2020-11-13T09:49:19.000Z</time>
      </trkpt>
      <trkpt lat="49.82136" lon="4.84472">
        <ele>332</ele>
        <time>2020-11-13T09:49:20.000Z</time>
      </trkpt>
      <trkpt lat="49.82133" lon="4.84467">
        <ele>332</ele>
        <time>2020-11-13T09:49:21.000Z</time>
      </trkpt>
      <trkpt lat="49.8213" lon="4.84461">
        <ele>332</ele>
        <time>2020-11-13T09:49:22.000Z</time>
      </trkpt>
      <trkpt lat="49.82126" lon="4.84456">
        <ele>332</ele>
        <time>2020-11-13T09:49:23.000Z</time>
      </trkpt>
      <trkpt lat="49.82123" lon="4.84449">
        <ele>332</ele>
        <time>2020-11-13T09:49:24.000Z</time>
      </trkpt>
      <trkpt lat="49.8212" lon="4.84443">
        <ele>332</ele>
        <time>2020-11-13T09:49:25.000Z</time>
      </trkpt>
      <trkpt lat="49.82117" lon="4.84437">
        <ele>331</ele>
        <time>2020-11-13T09:49:26.000Z</time>
      </trkpt>
      <trkpt lat="49.82114" lon="4.8443">
        <ele>331</ele>
        <time>2020-11-13T09:49:27.000Z</time>
      </trkpt>
      <trkpt lat="49.82111" lon="4.84423">
        <ele>331</ele>
        <time>2020-11-13T09:49:28.000Z</time>
      </trkpt>
      <trkpt lat="49.82107" lon="4.84416">
        <ele>331</ele>
        <time>2020-11-13T09:49:29.000Z</time>
      </trkpt>
      <trkpt lat="49.82103" lon="4.84409">
        <ele>330</ele>
        <time>2020-11-13T09:49:30.000Z</time>
      </trkpt>
      <trkpt lat="49.82099" lon="4.84403">
        <ele>330</ele>
        <time>2020-11-13T09:49:31.000Z</time>
      </trkpt>
      <trkpt lat="49.82095" lon="4.84396">
        <ele>330</ele>
        <time>2020-11-13T09:49:32.000Z</time>
      </trkpt>
      <trkpt lat="49.82091" lon="4.8439">
        <ele>329</ele>
        <time>2020-11-13T09:49:33.000Z</time>
      </trkpt>
      <trkpt lat="49.82088" lon="4.84383">
        <ele>329</ele>
        <time>2020-11-13T09:49:34.000Z</time>
      </trkpt>
      <trkpt lat="49.82085" lon="4.84377">
        <ele>329</ele>
        <time>2020-11-13T09:49:35.000Z</time>
      </trkpt>
      <trkpt lat="49.82082" lon="4.84372">
        <ele>328</ele>
        <time>2020-11-13T09:49:36.000Z</time>
      </trkpt>
      <trkpt lat="49.82079" lon="4.84367">
        <ele>328</ele>
        <time>2020-11-13T09:49:37.000Z</time>
      </trkpt>
      <trkpt lat="49.82076" lon="4.84364">
        <ele>327</ele>
        <time>2020-11-13T09:49:38.000Z</time>
      </trkpt>
      <trkpt lat="49.82072" lon="4.8436">
        <ele>327</ele>
        <time>2020-11-13T09:49:39.000Z</time>
      </trkpt>
      <trkpt lat="49.82067" lon="4.84356">
        <ele>327</ele>
        <time>2020-11-13T09:49:40.000Z</time>
      </trkpt>
      <trkpt lat="49.82062" lon="4.84352">
        <ele>326</ele>
        <time>2020-11-13T09:49:41.000Z</time>
      </trkpt>
      <trkpt lat="49.82057" lon="4.84346">
        <ele>326</ele>
        <time>2020-11-13T09:49:42.000Z</time>
      </trkpt>
      <trkpt lat="49.82051" lon="4.84341">
        <ele>325</ele>
        <time>2020-11-13T09:49:43.000Z</time>
      </trkpt>
      <trkpt lat="49.82045" lon="4.84336">
        <ele>325</ele>
        <time>2020-11-13T09:49:44.000Z</time>
      </trkpt>
      <trkpt lat="49.82039" lon="4.84332">
        <ele>324</ele>
        <time>2020-11-13T09:49:45.000Z</time>
      </trkpt>
      <trkpt lat="49.82034" lon="4.84328">
        <ele>324</ele>
        <time>2020-11-13T09:49:46.000Z</time>
      </trkpt>
      <trkpt lat="49.82029" lon="4.84323">
        <ele>323</ele>
        <time>2020-11-13T09:49:47.000Z</time>
      </trkpt>
      <trkpt lat="49.82024" lon="4.84319">
        <ele>323</ele>
        <time>2020-11-13T09:49:48.000Z</time>
      </trkpt>
      <trkpt lat="49.82019" lon="4.84314">
        <ele>322</ele>
        <time>2020-11-13T09:49:49.000Z</time>
      </trkpt>
      <trkpt lat="49.82015" lon="4.84309">
        <ele>322</ele>
        <time>2020-11-13T09:49:50.000Z</time>
      </trkpt>
      <trkpt lat="49.82011" lon="4.84305">
        <ele>322</ele>
        <time>2020-11-13T09:49:51.000Z</time>
      </trkpt>
      <trkpt lat="49.82007" lon="4.84301">
        <ele>321</ele>
        <time>2020-11-13T09:49:52.000Z</time>
      </trkpt>
      <trkpt lat="49.82003" lon="4.84296">
        <ele>321</ele>
        <time>2020-11-13T09:49:53.000Z</time>
      </trkpt>
      <trkpt lat="49.82" lon="4.8429">
        <ele>320</ele>
        <time>2020-11-13T09:49:54.000Z</time>
      </trkpt>
      <trkpt lat="49.81996" lon="4.84282">
        <ele>319</ele>
        <time>2020-11-13T09:49:55.000Z</time>
      </trkpt>
      <trkpt lat="49.81993" lon="4.84274">
        <ele>319</ele>
        <time>2020-11-13T09:49:56.000Z</time>
      </trkpt>
      <trkpt lat="49.8199" lon="4.84266">
        <ele>318</ele>
        <time>2020-11-13T09:49:57.000Z</time>
      </trkpt>
      <trkpt lat="49.81986" lon="4.84259">
        <ele>317</ele>
        <time>2020-11-13T09:49:58.000Z</time>
      </trkpt>
      <trkpt lat="49.81984" lon="4.84253">
        <ele>317</ele>
        <time>2020-11-13T09:49:59.000Z</time>
      </trkpt>
      <trkpt lat="49.81982" lon="4.84247">
        <ele>316</ele>
        <time>2020-11-13T09:50:00.000Z</time>
      </trkpt>
      <trkpt lat="49.81979" lon="4.8424">
        <ele>316</ele>
        <time>2020-11-13T09:50:01.000Z</time>
      </trkpt>
      <trkpt lat="49.81975" lon="4.84232">
        <ele>315</ele>
        <time>2020-11-13T09:50:02.000Z</time>
      </trkpt>
      <trkpt lat="49.81971" lon="4.84225">
        <ele>314</ele>
        <time>2020-11-13T09:50:03.000Z</time>
      </trkpt>
      <trkpt lat="49.81968" lon="4.84219">
        <ele>313</ele>
        <time>2020-11-13T09:50:04.000Z</time>
      </trkpt>
      <trkpt lat="49.81965" lon="4.84213">
        <ele>312</ele>
        <time>2020-11-13T09:50:05.000Z</time>
      </trkpt>
      <trkpt lat="49.81962" lon="4.8421">
        <ele>312</ele>
        <time>2020-11-13T09:50:06.000Z</time>
      </trkpt>
      <trkpt lat="49.81959" lon="4.84207">
        <ele>311</ele>
        <time>2020-11-13T09:50:07.000Z</time>
      </trkpt>
      <trkpt lat="49.81955" lon="4.84203">
        <ele>310</ele>
        <time>2020-11-13T09:50:08.000Z</time>
      </trkpt>
      <trkpt lat="49.8195" lon="4.84198">
        <ele>309</ele>
        <time>2020-11-13T09:50:09.000Z</time>
      </trkpt>
      <trkpt lat="49.81946" lon="4.84193">
        <ele>309</ele>
        <time>2020-11-13T09:50:10.000Z</time>
      </trkpt>
      <trkpt lat="49.81942" lon="4.84186">
        <ele>308</ele>
        <time>2020-11-13T09:50:11.000Z</time>
      </trkpt>
      <trkpt lat="49.81938" lon="4.84179">
        <ele>307</ele>
        <time>2020-11-13T09:50:12.000Z</time>
      </trkpt>
      <trkpt lat="49.81934" lon="4.84173">
        <ele>306</ele>
        <time>2020-11-13T09:50:13.000Z</time>
      </trkpt>
      <trkpt lat="49.8193" lon="4.84169">
        <ele>305</ele>
        <time>2020-11-13T09:50:14.000Z</time>
      </trkpt>
      <trkpt lat="49.81926" lon="4.84164">
        <ele>304</ele>
        <time>2020-11-13T09:50:15.000Z</time>
      </trkpt>
      <trkpt lat="49.81922" lon="4.8416">
        <ele>303</ele>
        <time>2020-11-13T09:50:16.000Z</time>
      </trkpt>
      <trkpt lat="49.81919" lon="4.84156">
        <ele>303</ele>
        <time>2020-11-13T09:50:17.000Z</time>
      </trkpt>
      <trkpt lat="49.81915" lon="4.84151">
        <ele>302</ele>
        <time>2020-11-13T09:50:18.000Z</time>
      </trkpt>
      <trkpt lat="49.81911" lon="4.84145">
        <ele>301</ele>
        <time>2020-11-13T09:50:19.000Z</time>
      </trkpt>
      <trkpt lat="49.81907" lon="4.8414">
        <ele>300</ele>
        <time>2020-11-13T09:50:20.000Z</time>
      </trkpt>
      <trkpt lat="49.81903" lon="4.84134">
        <ele>299</ele>
        <time>2020-11-13T09:50:21.000Z</time>
      </trkpt>
      <trkpt lat="49.81901" lon="4.84128">
        <ele>298</ele>
        <time>2020-11-13T09:50:22.000Z</time>
      </trkpt>
      <trkpt lat="49.81899" lon="4.84123">
        <ele>297</ele>
        <time>2020-11-13T09:50:23.000Z</time>
      </trkpt>
      <trkpt lat="49.81897" lon="4.84119">
        <ele>296</ele>
        <time>2020-11-13T09:50:24.000Z</time>
      </trkpt>
      <trkpt lat="49.81896" lon="4.84114">
        <ele>295</ele>
        <time>2020-11-13T09:50:25.000Z</time>
      </trkpt>
      <trkpt lat="49.81896" lon="4.84108">
        <ele>294</ele>
        <time>2020-11-13T09:50:26.000Z</time>
      </trkpt>
      <trkpt lat="49.81898" lon="4.84102">
        <ele>293</ele>
        <time>2020-11-13T09:50:27.000Z</time>
      </trkpt>
      <trkpt lat="49.819" lon="4.84096">
        <ele>292</ele>
        <time>2020-11-13T09:50:28.000Z</time>
      </trkpt>
      <trkpt lat="49.81905" lon="4.84092">
        <ele>291</ele>
        <time>2020-11-13T09:50:29.000Z</time>
      </trkpt>
      <trkpt lat="49.81909" lon="4.84088">
        <ele>291</ele>
        <time>2020-11-13T09:50:30.000Z</time>
      </trkpt>
      <trkpt lat="49.81913" lon="4.84082">
        <ele>290</ele>
        <time>2020-11-13T09:50:31.000Z</time>
      </trkpt>
      <trkpt lat="49.81918" lon="4.84074">
        <ele>289</ele>
        <time>2020-11-13T09:50:32.000Z</time>
      </trkpt>
      <trkpt lat="49.81922" lon="4.84067">
        <ele>289</ele>
        <time>2020-11-13T09:50:33.000Z</time>
      </trkpt>
      <trkpt lat="49.81927" lon="4.84059">
        <ele>288</ele>
        <time>2020-11-13T09:50:34.000Z</time>
      </trkpt>
      <trkpt lat="49.81931" lon="4.84051">
        <ele>287</ele>
        <time>2020-11-13T09:50:35.000Z</time>
      </trkpt>
      <trkpt lat="49.81936" lon="4.84042">
        <ele>286</ele>
        <time>2020-11-13T09:50:36.000Z</time>
      </trkpt>
      <trkpt lat="49.8194" lon="4.84034">
        <ele>286</ele>
        <time>2020-11-13T09:50:37.000Z</time>
      </trkpt>
      <trkpt lat="49.81945" lon="4.84025">
        <ele>285</ele>
        <time>2020-11-13T09:50:38.000Z</time>
      </trkpt>
      <trkpt lat="49.81949" lon="4.84017">
        <ele>285</ele>
        <time>2020-11-13T09:50:39.000Z</time>
      </trkpt>
      <trkpt lat="49.81953" lon="4.84008">
        <ele>284</ele>
        <time>2020-11-13T09:50:40.000Z</time>
      </trkpt>
      <trkpt lat="49.81957" lon="4.84">
        <ele>283</ele>
        <time>2020-11-13T09:50:41.000Z</time>
      </trkpt>
      <trkpt lat="49.81961" lon="4.83993">
        <ele>283</ele>
        <time>2020-11-13T09:50:42.000Z</time>
      </trkpt>
      <trkpt lat="49.81965" lon="4.83987">
        <ele>282</ele>
        <time>2020-11-13T09:50:43.000Z</time>
      </trkpt>
      <trkpt lat="49.81967" lon="4.83982">
        <ele>281</ele>
        <time>2020-11-13T09:50:44.000Z</time>
      </trkpt>
      <trkpt lat="49.81968" lon="4.8398">
        <ele>280</ele>
        <time>2020-11-13T09:50:45.000Z</time>
      </trkpt>
      <trkpt lat="49.81968" lon="4.83978">
        <ele>280</ele>
        <time>2020-11-13T09:50:46.000Z</time>
      </trkpt>
      <trkpt lat="49.81968" lon="4.83977">
        <ele>279</ele>
        <time>2020-11-13T09:50:47.000Z</time>
      </trkpt>
      <trkpt lat="49.81968" lon="4.83976">
        <ele>278</ele>
        <time>2020-11-13T09:50:48.000Z</time>
      </trkpt>
      <trkpt lat="49.81967" lon="4.83975">
        <ele>278</ele>
        <time>2020-11-13T09:50:49.000Z</time>
      </trkpt>
      <trkpt lat="49.81965" lon="4.83974">
        <ele>277</ele>
        <time>2020-11-13T09:50:50.000Z</time>
      </trkpt>
      <trkpt lat="49.81962" lon="4.83972">
        <ele>276</ele>
        <time>2020-11-13T09:50:51.000Z</time>
      </trkpt>
      <trkpt lat="49.81959" lon="4.83971">
        <ele>275</ele>
        <time>2020-11-13T09:50:52.000Z</time>
      </trkpt>
      <trkpt lat="49.81954" lon="4.83969">
        <ele>274</ele>
        <time>2020-11-13T09:50:53.000Z</time>
      </trkpt>
      <trkpt lat="49.81948" lon="4.83967">
        <ele>273</ele>
        <time>2020-11-13T09:50:54.000Z</time>
      </trkpt>
      <trkpt lat="49.81942" lon="4.83965">
        <ele>272</ele>
        <time>2020-11-13T09:50:55.000Z</time>
      </trkpt>
      <trkpt lat="49.81935" lon="4.83964">
        <ele>271</ele>
        <time>2020-11-13T09:50:56.000Z</time>
      </trkpt>
      <trkpt lat="49.81928" lon="4.83963">
        <ele>270</ele>
        <time>2020-11-13T09:50:57.000Z</time>
      </trkpt>
      <trkpt lat="49.8192" lon="4.83962">
        <ele>269</ele>
        <time>2020-11-13T09:50:58.000Z</time>
      </trkpt>
      <trkpt lat="49.81913" lon="4.83962">
        <ele>268</ele>
        <time>2020-11-13T09:50:59.000Z</time>
      </trkpt>
      <trkpt lat="49.81905" lon="4.83963">
        <ele>267</ele>
        <time>2020-11-13T09:51:00.000Z</time>
      </trkpt>
      <trkpt lat="49.81897" lon="4.83963">
        <ele>266</ele>
        <time>2020-11-13T09:51:01.000Z</time>
      </trkpt>
      <trkpt lat="49.81888" lon="4.83963">
        <ele>265</ele>
        <time>2020-11-13T09:51:02.000Z</time>
      </trkpt>
      <trkpt lat="49.8188" lon="4.83963">
        <ele>264</ele>
        <time>2020-11-13T09:51:03.000Z</time>
      </trkpt>
      <trkpt lat="49.81872" lon="4.83962">
        <ele>262</ele>
        <time>2020-11-13T09:51:04.000Z</time>
      </trkpt>
      <trkpt lat="49.81864" lon="4.83961">
        <ele>261</ele>
        <time>2020-11-13T09:51:05.000Z</time>
      </trkpt>
      <trkpt lat="49.81856" lon="4.83959">
        <ele>260</ele>
        <time>2020-11-13T09:51:06.000Z</time>
      </trkpt>
      <trkpt lat="49.81849" lon="4.83958">
        <ele>259</ele>
        <time>2020-11-13T09:51:07.000Z</time>
      </trkpt>
      <trkpt lat="49.81843" lon="4.83958">
        <ele>257</ele>
        <time>2020-11-13T09:51:08.000Z</time>
      </trkpt>
      <trkpt lat="49.81837" lon="4.83958">
        <ele>256</ele>
        <time>2020-11-13T09:51:09.000Z</time>
      </trkpt>
      <trkpt lat="49.81831" lon="4.83957">
        <ele>255</ele>
        <time>2020-11-13T09:51:10.000Z</time>
      </trkpt>
      <trkpt lat="49.81824" lon="4.83954">
        <ele>254</ele>
        <time>2020-11-13T09:51:11.000Z</time>
      </trkpt>
      <trkpt lat="49.81818" lon="4.83951">
        <ele>253</ele>
        <time>2020-11-13T09:51:12.000Z</time>
      </trkpt>
      <trkpt lat="49.81812" lon="4.83948">
        <ele>252</ele>
        <time>2020-11-13T09:51:13.000Z</time>
      </trkpt>
      <trkpt lat="49.81807" lon="4.83944">
        <ele>251</ele>
        <time>2020-11-13T09:51:14.000Z</time>
      </trkpt>
      <trkpt lat="49.81803" lon="4.83939">
        <ele>250</ele>
        <time>2020-11-13T09:51:15.000Z</time>
      </trkpt>
      <trkpt lat="49.81799" lon="4.83933">
        <ele>249</ele>
        <time>2020-11-13T09:51:16.000Z</time>
      </trkpt>
      <trkpt lat="49.81796" lon="4.83927">
        <ele>248</ele>
        <time>2020-11-13T09:51:17.000Z</time>
      </trkpt>
      <trkpt lat="49.81794" lon="4.83922">
        <ele>247</ele>
        <time>2020-11-13T09:51:18.000Z</time>
      </trkpt>
      <trkpt lat="49.81792" lon="4.83916">
        <ele>246</ele>
        <time>2020-11-13T09:51:19.000Z</time>
      </trkpt>
      <trkpt lat="49.81789" lon="4.8391">
        <ele>245</ele>
        <time>2020-11-13T09:51:20.000Z</time>
      </trkpt>
      <trkpt lat="49.81786" lon="4.83902">
        <ele>244</ele>
        <time>2020-11-13T09:51:21.000Z</time>
      </trkpt>
      <trkpt lat="49.81784" lon="4.83895">
        <ele>243</ele>
        <time>2020-11-13T09:51:22.000Z</time>
      </trkpt>
      <trkpt lat="49.81782" lon="4.83889">
        <ele>242</ele>
        <time>2020-11-13T09:51:23.000Z</time>
      </trkpt>
      <trkpt lat="49.81781" lon="4.83882">
        <ele>241</ele>
        <time>2020-11-13T09:51:24.000Z</time>
      </trkpt>
      <trkpt lat="49.8178" lon="4.83876">
        <ele>240</ele>
        <time>2020-11-13T09:51:25.000Z</time>
      </trkpt>
      <trkpt lat="49.8178" lon="4.83869">
        <ele>239</ele>
        <time>2020-11-13T09:51:26.000Z</time>
      </trkpt>
      <trkpt lat="49.8178" lon="4.83863">
        <ele>239</ele>
        <time>2020-11-13T09:51:27.000Z</time>
      </trkpt>
      <trkpt lat="49.81779" lon="4.83856">
        <ele>238</ele>
        <time>2020-11-13T09:51:28.000Z</time>
      </trkpt>
      <trkpt lat="49.8178" lon="4.83849">
        <ele>237</ele>
        <time>2020-11-13T09:51:29.000Z</time>
      </trkpt>
      <trkpt lat="49.8178" lon="4.83842">
        <ele>237</ele>
        <time>2020-11-13T09:51:30.000Z</time>
      </trkpt>
      <trkpt lat="49.8178" lon="4.83834">
        <ele>236</ele>
        <time>2020-11-13T09:51:31.000Z</time>
      </trkpt>
      <trkpt lat="49.81781" lon="4.83825">
        <ele>235</ele>
        <time>2020-11-13T09:51:32.000Z</time>
      </trkpt>
      <trkpt lat="49.81781" lon="4.83817">
        <ele>235</ele>
        <time>2020-11-13T09:51:33.000Z</time>
      </trkpt>
      <trkpt lat="49.81781" lon="4.83808">
        <ele>234</ele>
        <time>2020-11-13T09:51:34.000Z</time>
      </trkpt>
      <trkpt lat="49.81782" lon="4.83798">
        <ele>233</ele>
        <time>2020-11-13T09:51:35.000Z</time>
      </trkpt>
      <trkpt lat="49.81782" lon="4.83788">
        <ele>232</ele>
        <time>2020-11-13T09:51:36.000Z</time>
      </trkpt>
      <trkpt lat="49.81783" lon="4.83778">
        <ele>231</ele>
        <time>2020-11-13T09:51:37.000Z</time>
      </trkpt>
      <trkpt lat="49.81783" lon="4.83767">
        <ele>230</ele>
        <time>2020-11-13T09:51:38.000Z</time>
      </trkpt>
      <trkpt lat="49.81784" lon="4.83756">
        <ele>229</ele>
        <time>2020-11-13T09:51:39.000Z</time>
      </trkpt>
      <trkpt lat="49.81784" lon="4.83745">
        <ele>228</ele>
        <time>2020-11-13T09:51:40.000Z</time>
      </trkpt>
      <trkpt lat="49.81785" lon="4.83733">
        <ele>227</ele>
        <time>2020-11-13T09:51:41.000Z</time>
      </trkpt>
      <trkpt lat="49.81786" lon="4.83722">
        <ele>226</ele>
        <time>2020-11-13T09:51:42.000Z</time>
      </trkpt>
      <trkpt lat="49.81788" lon="4.83711">
        <ele>225</ele>
        <time>2020-11-13T09:51:43.000Z</time>
      </trkpt>
      <trkpt lat="49.8179" lon="4.837">
        <ele>224</ele>
        <time>2020-11-13T09:51:44.000Z</time>
      </trkpt>
      <trkpt lat="49.81792" lon="4.83689">
        <ele>223</ele>
        <time>2020-11-13T09:51:45.000Z</time>
      </trkpt>
      <trkpt lat="49.81795" lon="4.83679">
        <ele>222</ele>
        <time>2020-11-13T09:51:46.000Z</time>
      </trkpt>
      <trkpt lat="49.81798" lon="4.83669">
        <ele>221</ele>
        <time>2020-11-13T09:51:47.000Z</time>
      </trkpt>
      <trkpt lat="49.81802" lon="4.8366">
        <ele>220</ele>
        <time>2020-11-13T09:51:48.000Z</time>
      </trkpt>
      <trkpt lat="49.81805" lon="4.83651">
        <ele>219</ele>
        <time>2020-11-13T09:51:49.000Z</time>
      </trkpt>
      <trkpt lat="49.81808" lon="4.83642">
        <ele>218</ele>
        <time>2020-11-13T09:51:50.000Z</time>
      </trkpt>
      <trkpt lat="49.81811" lon="4.83633">
        <ele>218</ele>
        <time>2020-11-13T09:51:51.000Z</time>
      </trkpt>
      <trkpt lat="49.81814" lon="4.83624">
        <ele>217</ele>
        <time>2020-11-13T09:51:52.000Z</time>
      </trkpt>
      <trkpt lat="49.81818" lon="4.83615">
        <ele>216</ele>
        <time>2020-11-13T09:51:53.000Z</time>
      </trkpt>
      <trkpt lat="49.81819" lon="4.83606">
        <ele>215</ele>
        <time>2020-11-13T09:51:54.000Z</time>
      </trkpt>
      <trkpt lat="49.81818" lon="4.83596">
        <ele>215</ele>
        <time>2020-11-13T09:51:55.000Z</time>
      </trkpt>
      <trkpt lat="49.81815" lon="4.83588">
        <ele>214</ele>
        <time>2020-11-13T09:51:56.000Z</time>
      </trkpt>
      <trkpt lat="49.81812" lon="4.8358">
        <ele>214</ele>
        <time>2020-11-13T09:51:57.000Z</time>
      </trkpt>
      <trkpt lat="49.81809" lon="4.83574">
        <ele>213</ele>
        <time>2020-11-13T09:51:58.000Z</time>
      </trkpt>
      <trkpt lat="49.81807" lon="4.83569">
        <ele>213</ele>
        <time>2020-11-13T09:51:59.000Z</time>
      </trkpt>
      <trkpt lat="49.81806" lon="4.83566">
        <ele>212</ele>
        <time>2020-11-13T09:52:00.000Z</time>
      </trkpt>
      <trkpt lat="49.81805" lon="4.83564">
        <ele>211</ele>
        <time>2020-11-13T09:52:01.000Z</time>
      </trkpt>
      <trkpt lat="49.81805" lon="4.8356">
        <ele>211</ele>
        <time>2020-11-13T09:52:02.000Z</time>
      </trkpt>
      <trkpt lat="49.81807" lon="4.83556">
        <ele>210</ele>
        <time>2020-11-13T09:52:03.000Z</time>
      </trkpt>
      <trkpt lat="49.81809" lon="4.83553">
        <ele>210</ele>
        <time>2020-11-13T09:52:04.000Z</time>
      </trkpt>
      <trkpt lat="49.81812" lon="4.83549">
        <ele>209</ele>
        <time>2020-11-13T09:52:05.000Z</time>
      </trkpt>
      <trkpt lat="49.81814" lon="4.83545">
        <ele>209</ele>
        <time>2020-11-13T09:52:06.000Z</time>
      </trkpt>
      <trkpt lat="49.81817" lon="4.83541">
        <ele>208</ele>
        <time>2020-11-13T09:52:07.000Z</time>
      </trkpt>
      <trkpt lat="49.81819" lon="4.83537">
        <ele>208</ele>
        <time>2020-11-13T09:52:08.000Z</time>
      </trkpt>
      <trkpt lat="49.81822" lon="4.83533">
        <ele>208</ele>
        <time>2020-11-13T09:52:09.000Z</time>
      </trkpt>
      <trkpt lat="49.81824" lon="4.8353">
        <ele>207</ele>
        <time>2020-11-13T09:52:10.000Z</time>
      </trkpt>
      <trkpt lat="49.81825" lon="4.83526">
        <ele>207</ele>
        <time>2020-11-13T09:52:11.000Z</time>
      </trkpt>
      <trkpt lat="49.81827" lon="4.83522">
        <ele>207</ele>
        <time>2020-11-13T09:52:12.000Z</time>
      </trkpt>
      <trkpt lat="49.81828" lon="4.83519">
        <ele>206</ele>
        <time>2020-11-13T09:52:13.000Z</time>
      </trkpt>
      <trkpt lat="49.8183" lon="4.83516">
        <ele>206</ele>
        <time>2020-11-13T09:52:14.000Z</time>
      </trkpt>
      <trkpt lat="49.81831" lon="4.83512">
        <ele>206</ele>
        <time>2020-11-13T09:52:15.000Z</time>
      </trkpt>
      <trkpt lat="49.81832" lon="4.83509">
        <ele>206</ele>
        <time>2020-11-13T09:52:16.000Z</time>
      </trkpt>
      <trkpt lat="49.81833" lon="4.83504">
        <ele>205</ele>
        <time>2020-11-13T09:52:17.000Z</time>
      </trkpt>
      <trkpt lat="49.81833" lon="4.83499">
        <ele>205</ele>
        <time>2020-11-13T09:52:18.000Z</time>
      </trkpt>
      <trkpt lat="49.81832" lon="4.83495">
        <ele>205</ele>
        <time>2020-11-13T09:52:19.000Z</time>
      </trkpt>
      <trkpt lat="49.81829" lon="4.83492">
        <ele>205</ele>
        <time>2020-11-13T09:52:20.000Z</time>
      </trkpt>
      <trkpt lat="49.81825" lon="4.8349">
        <ele>204</ele>
        <time>2020-11-13T09:52:21.000Z</time>
      </trkpt>
      <trkpt lat="49.81821" lon="4.83487">
        <ele>204</ele>
        <time>2020-11-13T09:52:22.000Z</time>
      </trkpt>
      <trkpt lat="49.81817" lon="4.83484">
        <ele>204</ele>
        <time>2020-11-13T09:52:23.000Z</time>
      </trkpt>
      <trkpt lat="49.81813" lon="4.83482">
        <ele>204</ele>
        <time>2020-11-13T09:52:24.000Z</time>
      </trkpt>
      <trkpt lat="49.81808" lon="4.8348">
        <ele>204</ele>
        <time>2020-11-13T09:52:25.000Z</time>
      </trkpt>
      <trkpt lat="49.81804" lon="4.83478">
        <ele>204</ele>
        <time>2020-11-13T09:52:26.000Z</time>
      </trkpt>
      <trkpt lat="49.818" lon="4.83475">
        <ele>204</ele>
        <time>2020-11-13T09:52:27.000Z</time>
      </trkpt>
      <trkpt lat="49.81795" lon="4.83472">
        <ele>204</ele>
        <time>2020-11-13T09:52:28.000Z</time>
      </trkpt>
      <trkpt lat="49.81791" lon="4.8347">
        <ele>204</ele>
        <time>2020-11-13T09:52:29.000Z</time>
      </trkpt>
      <trkpt lat="49.81786" lon="4.83468">
        <ele>204</ele>
        <time>2020-11-13T09:52:30.000Z</time>
      </trkpt>
      <trkpt lat="49.81781" lon="4.83466">
        <ele>204</ele>
        <time>2020-11-13T09:52:31.000Z</time>
      </trkpt>
      <trkpt lat="49.81776" lon="4.83464">
        <ele>204</ele>
        <time>2020-11-13T09:52:32.000Z</time>
      </trkpt>
      <trkpt lat="49.8177" lon="4.83463">
        <ele>204</ele>
        <time>2020-11-13T09:52:33.000Z</time>
      </trkpt>
      <trkpt lat="49.81765" lon="4.8346">
        <ele>204</ele>
        <time>2020-11-13T09:52:34.000Z</time>
      </trkpt>
      <trkpt lat="49.8176" lon="4.83458">
        <ele>204</ele>
        <time>2020-11-13T09:52:35.000Z</time>
      </trkpt>
      <trkpt lat="49.81755" lon="4.83456">
        <ele>204</ele>
        <time>2020-11-13T09:52:36.000Z</time>
      </trkpt>
      <trkpt lat="49.8175" lon="4.83454">
        <ele>204</ele>
        <time>2020-11-13T09:52:37.000Z</time>
      </trkpt>
      <trkpt lat="49.81744" lon="4.83452">
        <ele>204</ele>
        <time>2020-11-13T09:52:38.000Z</time>
      </trkpt>
      <trkpt lat="49.81739" lon="4.8345">
        <ele>204</ele>
        <time>2020-11-13T09:52:39.000Z</time>
      </trkpt>
      <trkpt lat="49.81733" lon="4.83447">
        <ele>204</ele>
        <time>2020-11-13T09:52:40.000Z</time>
      </trkpt>
      <trkpt lat="49.81728" lon="4.83445">
        <ele>204</ele>
        <time>2020-11-13T09:52:41.000Z</time>
      </trkpt>
      <trkpt lat="49.81722" lon="4.83443">
        <ele>204</ele>
        <time>2020-11-13T09:52:42.000Z</time>
      </trkpt>
      <trkpt lat="49.81717" lon="4.83441">
        <ele>204</ele>
        <time>2020-11-13T09:52:43.000Z</time>
      </trkpt>
      <trkpt lat="49.81712" lon="4.83438">
        <ele>203</ele>
        <time>2020-11-13T09:52:44.000Z</time>
      </trkpt>
      <trkpt lat="49.81706" lon="4.83436">
        <ele>203</ele>
        <time>2020-11-13T09:52:45.000Z</time>
      </trkpt>
      <trkpt lat="49.81701" lon="4.83434">
        <ele>203</ele>
        <time>2020-11-13T09:52:46.000Z</time>
      </trkpt>
      <trkpt lat="49.81695" lon="4.83431">
        <ele>203</ele>
        <time>2020-11-13T09:52:47.000Z</time>
      </trkpt>
      <trkpt lat="49.8169" lon="4.83429">
        <ele>203</ele>
        <time>2020-11-13T09:52:48.000Z</time>
      </trkpt>
      <trkpt lat="49.81685" lon="4.83427">
        <ele>203</ele>
        <time>2020-11-13T09:52:49.000Z</time>
      </trkpt>
      <trkpt lat="49.8168" lon="4.83424">
        <ele>203</ele>
        <time>2020-11-13T09:52:50.000Z</time>
      </trkpt>
      <trkpt lat="49.81675" lon="4.83422">
        <ele>203</ele>
        <time>2020-11-13T09:52:51.000Z</time>
      </trkpt>
      <trkpt lat="49.8167" lon="4.83419">
        <ele>203</ele>
        <time>2020-11-13T09:52:52.000Z</time>
      </trkpt>
      <trkpt lat="49.81665" lon="4.83417">
        <ele>203</ele>
        <time>2020-11-13T09:52:53.000Z</time>
      </trkpt>
      <trkpt lat="49.81661" lon="4.83415">
        <ele>203</ele>
        <time>2020-11-13T09:52:54.000Z</time>
      </trkpt>
      <trkpt lat="49.81656" lon="4.83412">
        <ele>203</ele>
        <time>2020-11-13T09:52:55.000Z</time>
      </trkpt>
      <trkpt lat="49.81652" lon="4.83412">
        <ele>202</ele>
        <time>2020-11-13T09:52:56.000Z</time>
      </trkpt>
      <trkpt lat="49.81647" lon="4.83413">
        <ele>202</ele>
        <time>2020-11-13T09:52:57.000Z</time>
      </trkpt>
      <trkpt lat="49.81644" lon="4.83417">
        <ele>202</ele>
        <time>2020-11-13T09:52:58.000Z</time>
      </trkpt>
      <trkpt lat="49.8164" lon="4.83422">
        <ele>202</ele>
        <time>2020-11-13T09:52:59.000Z</time>
      </trkpt>
      <trkpt lat="49.81637" lon="4.83428">
        <ele>202</ele>
        <time>2020-11-13T09:53:00.000Z</time>
      </trkpt>
      <trkpt lat="49.81633" lon="4.83434">
        <ele>202</ele>
        <time>2020-11-13T09:53:01.000Z</time>
      </trkpt>
      <trkpt lat="49.8163" lon="4.83441">
        <ele>202</ele>
        <time>2020-11-13T09:53:02.000Z</time>
      </trkpt>
      <trkpt lat="49.81626" lon="4.83447">
        <ele>202</ele>
        <time>2020-11-13T09:53:03.000Z</time>
      </trkpt>
      <trkpt lat="49.81623" lon="4.83452">
        <ele>202</ele>
        <time>2020-11-13T09:53:04.000Z</time>
      </trkpt>
      <trkpt lat="49.8162" lon="4.83458">
        <ele>201</ele>
        <time>2020-11-13T09:53:05.000Z</time>
      </trkpt>
      <trkpt lat="49.81616" lon="4.83464">
        <ele>201</ele>
        <time>2020-11-13T09:53:06.000Z</time>
      </trkpt>
      <trkpt lat="49.81613" lon="4.8347">
        <ele>201</ele>
        <time>2020-11-13T09:53:07.000Z</time>
      </trkpt>
      <trkpt lat="49.8161" lon="4.83476">
        <ele>201</ele>
        <time>2020-11-13T09:53:08.000Z</time>
      </trkpt>
      <trkpt lat="49.81607" lon="4.83482">
        <ele>201</ele>
        <time>2020-11-13T09:53:09.000Z</time>
      </trkpt>
      <trkpt lat="49.81604" lon="4.83488">
        <ele>201</ele>
        <time>2020-11-13T09:53:10.000Z</time>
      </trkpt>
      <trkpt lat="49.81601" lon="4.83494">
        <ele>201</ele>
        <time>2020-11-13T09:53:11.000Z</time>
      </trkpt>
      <trkpt lat="49.81598" lon="4.835">
        <ele>201</ele>
        <time>2020-11-13T09:53:12.000Z</time>
      </trkpt>
      <trkpt lat="49.81594" lon="4.83507">
        <ele>201</ele>
        <time>2020-11-13T09:53:13.000Z</time>
      </trkpt>
      <trkpt lat="49.81591" lon="4.83513">
        <ele>201</ele>
        <time>2020-11-13T09:53:14.000Z</time>
      </trkpt>
      <trkpt lat="49.81588" lon="4.83519">
        <ele>201</ele>
        <time>2020-11-13T09:53:15.000Z</time>
      </trkpt>
      <trkpt lat="49.81584" lon="4.83526">
        <ele>201</ele>
        <time>2020-11-13T09:53:16.000Z</time>
      </trkpt>
      <trkpt lat="49.81581" lon="4.83532">
        <ele>201</ele>
        <time>2020-11-13T09:53:17.000Z</time>
      </trkpt>
      <trkpt lat="49.81578" lon="4.83539">
        <ele>201</ele>
        <time>2020-11-13T09:53:18.000Z</time>
      </trkpt>
      <trkpt lat="49.81575" lon="4.83546">
        <ele>201</ele>
        <time>2020-11-13T09:53:19.000Z</time>
      </trkpt>
      <trkpt lat="49.81571" lon="4.83553">
        <ele>201</ele>
        <time>2020-11-13T09:53:20.000Z</time>
      </trkpt>
      <trkpt lat="49.81569" lon="4.83559">
        <ele>201</ele>
        <time>2020-11-13T09:53:21.000Z</time>
      </trkpt>
      <trkpt lat="49.81566" lon="4.83566">
        <ele>201</ele>
        <time>2020-11-13T09:53:22.000Z</time>
      </trkpt>
      <trkpt lat="49.81562" lon="4.83573">
        <ele>201</ele>
        <time>2020-11-13T09:53:23.000Z</time>
      </trkpt>
      <trkpt lat="49.81559" lon="4.83579">
        <ele>201</ele>
        <time>2020-11-13T09:53:24.000Z</time>
      </trkpt>
      <trkpt lat="49.81556" lon="4.83586">
        <ele>201</ele>
        <time>2020-11-13T09:53:25.000Z</time>
      </trkpt>
      <trkpt lat="49.81554" lon="4.83591">
        <ele>201</ele>
        <time>2020-11-13T09:53:26.000Z</time>
      </trkpt>
      <trkpt lat="49.81551" lon="4.83597">
        <ele>201</ele>
        <time>2020-11-13T09:53:27.000Z</time>
      </trkpt>
      <trkpt lat="49.81548" lon="4.83602">
        <ele>201</ele>
        <time>2020-11-13T09:53:28.000Z</time>
      </trkpt>
      <trkpt lat="49.81546" lon="4.83607">
        <ele>201</ele>
        <time>2020-11-13T09:53:29.000Z</time>
      </trkpt>
      <trkpt lat="49.81543" lon="4.83612">
        <ele>201</ele>
        <time>2020-11-13T09:53:30.000Z</time>
      </trkpt>
      <trkpt lat="49.81541" lon="4.83618">
        <ele>201</ele>
        <time>2020-11-13T09:53:31.000Z</time>
      </trkpt>
      <trkpt lat="49.81538" lon="4.83624">
        <ele>201</ele>
        <time>2020-11-13T09:53:32.000Z</time>
      </trkpt>
      <trkpt lat="49.81536" lon="4.83629">
        <ele>201</ele>
        <time>2020-11-13T09:53:33.000Z</time>
      </trkpt>
      <trkpt lat="49.81533" lon="4.83635">
        <ele>201</ele>
        <time>2020-11-13T09:53:34.000Z</time>
      </trkpt>
      <trkpt lat="49.81531" lon="4.8364">
        <ele>201</ele>
        <time>2020-11-13T09:53:35.000Z</time>
      </trkpt>
      <trkpt lat="49.81527" lon="4.83646">
        <ele>201</ele>
        <time>2020-11-13T09:53:36.000Z</time>
      </trkpt>
      <trkpt lat="49.81524" lon="4.83652">
        <ele>201</ele>
        <time>2020-11-13T09:53:37.000Z</time>
      </trkpt>
      <trkpt lat="49.81521" lon="4.83658">
        <ele>201</ele>
        <time>2020-11-13T09:53:38.000Z</time>
      </trkpt>
      <trkpt lat="49.81518" lon="4.83664">
        <ele>201</ele>
        <time>2020-11-13T09:53:39.000Z</time>
      </trkpt>
      <trkpt lat="49.81514" lon="4.83671">
        <ele>201</ele>
        <time>2020-11-13T09:53:40.000Z</time>
      </trkpt>
      <trkpt lat="49.81511" lon="4.83677">
        <ele>201</ele>
        <time>2020-11-13T09:53:41.000Z</time>
      </trkpt>
      <trkpt lat="49.81509" lon="4.83683">
        <ele>201</ele>
        <time>2020-11-13T09:53:42.000Z</time>
      </trkpt>
      <trkpt lat="49.81506" lon="4.83689">
        <ele>201</ele>
        <time>2020-11-13T09:53:43.000Z</time>
      </trkpt>
      <trkpt lat="49.81503" lon="4.83694">
        <ele>201</ele>
        <time>2020-11-13T09:53:44.000Z</time>
      </trkpt>
      <trkpt lat="49.81501" lon="4.837">
        <ele>202</ele>
        <time>2020-11-13T09:53:45.000Z</time>
      </trkpt>
      <trkpt lat="49.81498" lon="4.83705">
        <ele>202</ele>
        <time>2020-11-13T09:53:46.000Z</time>
      </trkpt>
      <trkpt lat="49.81496" lon="4.8371">
        <ele>202</ele>
        <time>2020-11-13T09:53:47.000Z</time>
      </trkpt>
      <trkpt lat="49.81494" lon="4.83716">
        <ele>202</ele>
        <time>2020-11-13T09:53:48.000Z</time>
      </trkpt>
      <trkpt lat="49.81492" lon="4.8372">
        <ele>202</ele>
        <time>2020-11-13T09:53:49.000Z</time>
      </trkpt>
      <trkpt lat="49.8149" lon="4.83725">
        <ele>203</ele>
        <time>2020-11-13T09:53:50.000Z</time>
      </trkpt>
      <trkpt lat="49.81488" lon="4.83731">
        <ele>203</ele>
        <time>2020-11-13T09:53:51.000Z</time>
      </trkpt>
      <trkpt lat="49.81487" lon="4.83736">
        <ele>203</ele>
        <time>2020-11-13T09:53:52.000Z</time>
      </trkpt>
      <trkpt lat="49.81485" lon="4.83741">
        <ele>203</ele>
        <time>2020-11-13T09:53:53.000Z</time>
      </trkpt>
      <trkpt lat="49.81484" lon="4.83746">
        <ele>204</ele>
        <time>2020-11-13T09:53:54.000Z</time>
      </trkpt>
      <trkpt lat="49.81483" lon="4.83751">
        <ele>204</ele>
        <time>2020-11-13T09:53:55.000Z</time>
      </trkpt>
      <trkpt lat="49.81481" lon="4.83755">
        <ele>204</ele>
        <time>2020-11-13T09:53:56.000Z</time>
      </trkpt>
      <trkpt lat="49.8148" lon="4.83759">
        <ele>204</ele>
        <time>2020-11-13T09:53:57.000Z</time>
      </trkpt>
      <trkpt lat="49.81479" lon="4.83764">
        <ele>205</ele>
        <time>2020-11-13T09:53:58.000Z</time>
      </trkpt>
      <trkpt lat="49.81478" lon="4.83769">
        <ele>205</ele>
        <time>2020-11-13T09:53:59.000Z</time>
      </trkpt>
      <trkpt lat="49.81477" lon="4.83775">
        <ele>205</ele>
        <time>2020-11-13T09:54:00.000Z</time>
      </trkpt>
      <trkpt lat="49.81476" lon="4.83781">
        <ele>205</ele>
        <time>2020-11-13T09:54:01.000Z</time>
      </trkpt>
      <trkpt lat="49.81475" lon="4.83787">
        <ele>205</ele>
        <time>2020-11-13T09:54:02.000Z</time>
      </trkpt>
      <trkpt lat="49.81474" lon="4.83793">
        <ele>206</ele>
        <time>2020-11-13T09:54:03.000Z</time>
      </trkpt>
      <trkpt lat="49.81473" lon="4.83799">
        <ele>206</ele>
        <time>2020-11-13T09:54:04.000Z</time>
      </trkpt>
      <trkpt lat="49.81473" lon="4.83804">
        <ele>206</ele>
        <time>2020-11-13T09:54:05.000Z</time>
      </trkpt>
      <trkpt lat="49.81472" lon="4.8381">
        <ele>206</ele>
        <time>2020-11-13T09:54:06.000Z</time>
      </trkpt>
      <trkpt lat="49.81472" lon="4.83815">
        <ele>207</ele>
        <time>2020-11-13T09:54:07.000Z</time>
      </trkpt>
      <trkpt lat="49.81472" lon="4.8382">
        <ele>207</ele>
        <time>2020-11-13T09:54:08.000Z</time>
      </trkpt>
      <trkpt lat="49.81471" lon="4.83823">
        <ele>207</ele>
        <time>2020-11-13T09:54:09.000Z</time>
      </trkpt>
      <trkpt lat="49.81469" lon="4.83827">
        <ele>207</ele>
        <time>2020-11-13T09:54:10.000Z</time>
      </trkpt>
      <trkpt lat="49.81468" lon="4.8383">
        <ele>208</ele>
        <time>2020-11-13T09:54:11.000Z</time>
      </trkpt>
      <trkpt lat="49.81466" lon="4.83832">
        <ele>208</ele>
        <time>2020-11-13T09:54:12.000Z</time>
      </trkpt>
      <trkpt lat="49.81465" lon="4.83834">
        <ele>208</ele>
        <time>2020-11-13T09:54:13.000Z</time>
      </trkpt>
      <trkpt lat="49.81463" lon="4.83837">
        <ele>208</ele>
        <time>2020-11-13T09:54:14.000Z</time>
      </trkpt>
      <trkpt lat="49.81462" lon="4.83839">
        <ele>209</ele>
        <time>2020-11-13T09:54:15.000Z</time>
      </trkpt>
      <trkpt lat="49.81461" lon="4.83841">
        <ele>209</ele>
        <time>2020-11-13T09:54:16.000Z</time>
      </trkpt>
      <trkpt lat="49.81459" lon="4.83844">
        <ele>209</ele>
        <time>2020-11-13T09:54:17.000Z</time>
      </trkpt>
      <trkpt lat="49.81458" lon="4.83846">
        <ele>210</ele>
        <time>2020-11-13T09:54:18.000Z</time>
      </trkpt>
      <trkpt lat="49.81457" lon="4.83847">
        <ele>210</ele>
        <time>2020-11-13T09:54:19.000Z</time>
      </trkpt>
      <trkpt lat="49.81456" lon="4.83848">
        <ele>210</ele>
        <time>2020-11-13T09:54:20.000Z</time>
      </trkpt>
      <trkpt lat="49.81456" lon="4.83849">
        <ele>210</ele>
        <time>2020-11-13T09:54:21.000Z</time>
      </trkpt>
      <trkpt lat="49.81455" lon="4.8385">
        <ele>211</ele>
        <time>2020-11-13T09:54:22.000Z</time>
      </trkpt>
      <trkpt lat="49.81454" lon="4.83849">
        <ele>211</ele>
        <time>2020-11-13T09:54:23.000Z</time>
      </trkpt>
      <trkpt lat="49.81453" lon="4.8385">
        <ele>211</ele>
        <time>2020-11-13T09:54:24.000Z</time>
      </trkpt>
      <trkpt lat="49.81452" lon="4.8385">
        <ele>211</ele>
        <time>2020-11-13T09:54:25.000Z</time>
      </trkpt>
      <trkpt lat="49.81451" lon="4.8385">
        <ele>212</ele>
        <time>2020-11-13T09:54:26.000Z</time>
      </trkpt>
      <trkpt lat="49.8145" lon="4.83851">
        <ele>212</ele>
        <time>2020-11-13T09:54:27.000Z</time>
      </trkpt>
      <trkpt lat="49.81449" lon="4.83851">
        <ele>212</ele>
        <time>2020-11-13T09:54:28.000Z</time>
      </trkpt>
      <trkpt lat="49.81449" lon="4.83852">
        <ele>212</ele>
        <time>2020-11-13T09:54:29.000Z</time>
      </trkpt>
      <trkpt lat="49.81447" lon="4.83853">
        <ele>212</ele>
        <time>2020-11-13T09:54:30.000Z</time>
      </trkpt>
      <trkpt lat="49.81447" lon="4.83853">
        <ele>213</ele>
        <time>2020-11-13T09:54:31.000Z</time>
      </trkpt>
      <trkpt lat="49.81446" lon="4.83853">
        <ele>213</ele>
        <time>2020-11-13T09:54:32.000Z</time>
      </trkpt>
      <trkpt lat="49.81445" lon="4.83853">
        <ele>213</ele>
        <time>2020-11-13T09:54:33.000Z</time>
      </trkpt>
      <trkpt lat="49.81444" lon="4.83854">
        <ele>213</ele>
        <time>2020-11-13T09:54:34.000Z</time>
      </trkpt>
      <trkpt lat="49.81442" lon="4.83854">
        <ele>214</ele>
        <time>2020-11-13T09:54:35.000Z</time>
      </trkpt>
      <trkpt lat="49.81441" lon="4.83853">
        <ele>214</ele>
        <time>2020-11-13T09:54:36.000Z</time>
      </trkpt>
      <trkpt lat="49.81439" lon="4.83852">
        <ele>214</ele>
        <time>2020-11-13T09:54:37.000Z</time>
      </trkpt>
      <trkpt lat="49.81438" lon="4.83851">
        <ele>214</ele>
        <time>2020-11-13T09:54:38.000Z</time>
      </trkpt>
      <trkpt lat="49.81436" lon="4.8385">
        <ele>215</ele>
        <time>2020-11-13T09:54:39.000Z</time>
      </trkpt>
      <trkpt lat="49.81434" lon="4.83848">
        <ele>215</ele>
        <time>2020-11-13T09:54:40.000Z</time>
      </trkpt>
      <trkpt lat="49.81433" lon="4.83847">
        <ele>215</ele>
        <time>2020-11-13T09:54:41.000Z</time>
      </trkpt>
      <trkpt lat="49.81431" lon="4.83845">
        <ele>215</ele>
        <time>2020-11-13T09:54:42.000Z</time>
      </trkpt>
      <trkpt lat="49.81428" lon="4.83844">
        <ele>215</ele>
        <time>2020-11-13T09:54:43.000Z</time>
      </trkpt>
      <trkpt lat="49.81426" lon="4.83843">
        <ele>215</ele>
        <time>2020-11-13T09:54:44.000Z</time>
      </trkpt>
      <trkpt lat="49.81424" lon="4.83843">
        <ele>215</ele>
        <time>2020-11-13T09:54:45.000Z</time>
      </trkpt>
      <trkpt lat="49.81423" lon="4.83843">
        <ele>215</ele>
        <time>2020-11-13T09:54:46.000Z</time>
      </trkpt>
      <trkpt lat="49.8142" lon="4.83843">
        <ele>215</ele>
        <time>2020-11-13T09:54:47.000Z</time>
      </trkpt>
      <trkpt lat="49.81419" lon="4.83844">
        <ele>215</ele>
        <time>2020-11-13T09:54:48.000Z</time>
      </trkpt>
      <trkpt lat="49.81417" lon="4.83843">
        <ele>216</ele>
        <time>2020-11-13T09:54:49.000Z</time>
      </trkpt>
      <trkpt lat="49.81415" lon="4.83844">
        <ele>216</ele>
        <time>2020-11-13T09:54:50.000Z</time>
      </trkpt>
      <trkpt lat="49.81413" lon="4.83844">
        <ele>216</ele>
        <time>2020-11-13T09:54:51.000Z</time>
      </trkpt>
      <trkpt lat="49.81412" lon="4.83845">
        <ele>216</ele>
        <time>2020-11-13T09:54:52.000Z</time>
      </trkpt>
      <trkpt lat="49.8141" lon="4.83844">
        <ele>216</ele>
        <time>2020-11-13T09:54:53.000Z</time>
      </trkpt>
      <trkpt lat="49.81408" lon="4.83845">
        <ele>216</ele>
        <time>2020-11-13T09:54:54.000Z</time>
      </trkpt>
      <trkpt lat="49.81406" lon="4.83846">
        <ele>216</ele>
        <time>2020-11-13T09:54:55.000Z</time>
      </trkpt>
      <trkpt lat="49.81404" lon="4.83846">
        <ele>216</ele>
        <time>2020-11-13T09:54:56.000Z</time>
      </trkpt>
      <trkpt lat="49.81402" lon="4.83847">
        <ele>216</ele>
        <time>2020-11-13T09:54:57.000Z</time>
      </trkpt>
      <trkpt lat="49.814" lon="4.83848">
        <ele>217</ele>
        <time>2020-11-13T09:54:58.000Z</time>
      </trkpt>
      <trkpt lat="49.81398" lon="4.83849">
        <ele>217</ele>
        <time>2020-11-13T09:54:59.000Z</time>
      </trkpt>
      <trkpt lat="49.81397" lon="4.83849">
        <ele>217</ele>
        <time>2020-11-13T09:55:00.000Z</time>
      </trkpt>
      <trkpt lat="49.81396" lon="4.83849">
        <ele>217</ele>
        <time>2020-11-13T09:55:01.000Z</time>
      </trkpt>
      <trkpt lat="49.81394" lon="4.83849">
        <ele>217</ele>
        <time>2020-11-13T09:55:02.000Z</time>
      </trkpt>
      <trkpt lat="49.81393" lon="4.83849">
        <ele>218</ele>
        <time>2020-11-13T09:55:03.000Z</time>
      </trkpt>
      <trkpt lat="49.81391" lon="4.83849">
        <ele>218</ele>
        <time>2020-11-13T09:55:04.000Z</time>
      </trkpt>
      <trkpt lat="49.81389" lon="4.83848">
        <ele>218</ele>
        <time>2020-11-13T09:55:05.000Z</time>
      </trkpt>
      <trkpt lat="49.81386" lon="4.83847">
        <ele>218</ele>
        <time>2020-11-13T09:55:06.000Z</time>
      </trkpt>
      <trkpt lat="49.81383" lon="4.83846">
        <ele>218</ele>
        <time>2020-11-13T09:55:07.000Z</time>
      </trkpt>
      <trkpt lat="49.8138" lon="4.83845">
        <ele>218</ele>
        <time>2020-11-13T09:55:08.000Z</time>
      </trkpt>
      <trkpt lat="49.81377" lon="4.83844">
        <ele>218</ele>
        <time>2020-11-13T09:55:09.000Z</time>
      </trkpt>
      <trkpt lat="49.81374" lon="4.83844">
        <ele>218</ele>
        <time>2020-11-13T09:55:10.000Z</time>
      </trkpt>
      <trkpt lat="49.81371" lon="4.83843">
        <ele>218</ele>
        <time>2020-11-13T09:55:11.000Z</time>
      </trkpt>
      <trkpt lat="49.81367" lon="4.83842">
        <ele>219</ele>
        <time>2020-11-13T09:55:12.000Z</time>
      </trkpt>
      <trkpt lat="49.81364" lon="4.83841">
        <ele>219</ele>
        <time>2020-11-13T09:55:13.000Z</time>
      </trkpt>
      <trkpt lat="49.8136" lon="4.8384">
        <ele>219</ele>
        <time>2020-11-13T09:55:14.000Z</time>
      </trkpt>
      <trkpt lat="49.81357" lon="4.8384">
        <ele>219</ele>
        <time>2020-11-13T09:55:15.000Z</time>
      </trkpt>
      <trkpt lat="49.81353" lon="4.83839">
        <ele>219</ele>
        <time>2020-11-13T09:55:16.000Z</time>
      </trkpt>
      <trkpt lat="49.8135" lon="4.83837">
        <ele>219</ele>
        <time>2020-11-13T09:55:17.000Z</time>
      </trkpt>
      <trkpt lat="49.81346" lon="4.83836">
        <ele>219</ele>
        <time>2020-11-13T09:55:18.000Z</time>
      </trkpt>
      <trkpt lat="49.81343" lon="4.83835">
        <ele>219</ele>
        <time>2020-11-13T09:55:19.000Z</time>
      </trkpt>
      <trkpt lat="49.81341" lon="4.83835">
        <ele>219</ele>
        <time>2020-11-13T09:55:20.000Z</time>
      </trkpt>
      <trkpt lat="49.81338" lon="4.83834">
        <ele>220</ele>
        <time>2020-11-13T09:55:21.000Z</time>
      </trkpt>
      <trkpt lat="49.81334" lon="4.83833">
        <ele>220</ele>
        <time>2020-11-13T09:55:22.000Z</time>
      </trkpt>
      <trkpt lat="49.81331" lon="4.83832">
        <ele>220</ele>
        <time>2020-11-13T09:55:23.000Z</time>
      </trkpt>
      <trkpt lat="49.81327" lon="4.83832">
        <ele>220</ele>
        <time>2020-11-13T09:55:24.000Z</time>
      </trkpt>
      <trkpt lat="49.81323" lon="4.83834">
        <ele>220</ele>
        <time>2020-11-13T09:55:25.000Z</time>
      </trkpt>
      <trkpt lat="49.8132" lon="4.83836">
        <ele>220</ele>
        <time>2020-11-13T09:55:26.000Z</time>
      </trkpt>
      <trkpt lat="49.81317" lon="4.83838">
        <ele>220</ele>
        <time>2020-11-13T09:55:27.000Z</time>
      </trkpt>
      <trkpt lat="49.81314" lon="4.8384">
        <ele>221</ele>
        <time>2020-11-13T09:55:28.000Z</time>
      </trkpt>
      <trkpt lat="49.81312" lon="4.83842">
        <ele>221</ele>
        <time>2020-11-13T09:55:29.000Z</time>
      </trkpt>
      <trkpt lat="49.81309" lon="4.83844">
        <ele>221</ele>
        <time>2020-11-13T09:55:30.000Z</time>
      </trkpt>
      <trkpt lat="49.81307" lon="4.83848">
        <ele>221</ele>
        <time>2020-11-13T09:55:31.000Z</time>
      </trkpt>
      <trkpt lat="49.81305" lon="4.83851">
        <ele>221</ele>
        <time>2020-11-13T09:55:32.000Z</time>
      </trkpt>
      <trkpt lat="49.81303" lon="4.83853">
        <ele>221</ele>
        <time>2020-11-13T09:55:33.000Z</time>
      </trkpt>
      <trkpt lat="49.81301" lon="4.83855">
        <ele>222</ele>
        <time>2020-11-13T09:55:34.000Z</time>
      </trkpt>
      <trkpt lat="49.813" lon="4.83857">
        <ele>222</ele>
        <time>2020-11-13T09:55:35.000Z</time>
      </trkpt>
      <trkpt lat="49.81298" lon="4.83859">
        <ele>222</ele>
        <time>2020-11-13T09:55:36.000Z</time>
      </trkpt>
      <trkpt lat="49.81297" lon="4.8386">
        <ele>223</ele>
        <time>2020-11-13T09:55:37.000Z</time>
      </trkpt>
      <trkpt lat="49.81295" lon="4.83862">
        <ele>223</ele>
        <time>2020-11-13T09:55:38.000Z</time>
      </trkpt>
      <trkpt lat="49.81294" lon="4.83864">
        <ele>223</ele>
        <time>2020-11-13T09:55:39.000Z</time>
      </trkpt>
      <trkpt lat="49.81291" lon="4.83866">
        <ele>224</ele>
        <time>2020-11-13T09:55:40.000Z</time>
      </trkpt>
      <trkpt lat="49.8129" lon="4.83867">
        <ele>224</ele>
        <time>2020-11-13T09:55:41.000Z</time>
      </trkpt>
      <trkpt lat="49.81288" lon="4.83869">
        <ele>224</ele>
        <time>2020-11-13T09:55:42.000Z</time>
      </trkpt>
      <trkpt lat="49.81286" lon="4.8387">
        <ele>224</ele>
        <time>2020-11-13T09:55:43.000Z</time>
      </trkpt>
      <trkpt lat="49.81285" lon="4.83871">
        <ele>224</ele>
        <time>2020-11-13T09:55:44.000Z</time>
      </trkpt>
      <trkpt lat="49.81283" lon="4.83873">
        <ele>225</ele>
        <time>2020-11-13T09:55:45.000Z</time>
      </trkpt>
      <trkpt lat="49.81282" lon="4.83874">
        <ele>225</ele>
        <time>2020-11-13T09:55:46.000Z</time>
      </trkpt>
      <trkpt lat="49.8128" lon="4.83875">
        <ele>225</ele>
        <time>2020-11-13T09:55:47.000Z</time>
      </trkpt>
      <trkpt lat="49.81278" lon="4.83876">
        <ele>225</ele>
        <time>2020-11-13T09:55:48.000Z</time>
      </trkpt>
      <trkpt lat="49.81276" lon="4.83878">
        <ele>225</ele>
        <time>2020-11-13T09:55:49.000Z</time>
      </trkpt>
      <trkpt lat="49.81274" lon="4.83878">
        <ele>226</ele>
        <time>2020-11-13T09:55:50.000Z</time>
      </trkpt>
      <trkpt lat="49.81273" lon="4.83879">
        <ele>226</ele>
        <time>2020-11-13T09:55:51.000Z</time>
      </trkpt>
      <trkpt lat="49.81272" lon="4.83879">
        <ele>226</ele>
        <time>2020-11-13T09:55:52.000Z</time>
      </trkpt>
      <trkpt lat="49.81269" lon="4.8388">
        <ele>226</ele>
        <time>2020-11-13T09:55:53.000Z</time>
      </trkpt>
      <trkpt lat="49.81267" lon="4.8388">
        <ele>227</ele>
        <time>2020-11-13T09:55:54.000Z</time>
      </trkpt>
      <trkpt lat="49.81265" lon="4.8388">
        <ele>227</ele>
        <time>2020-11-13T09:55:55.000Z</time>
      </trkpt>
      <trkpt lat="49.81262" lon="4.83881">
        <ele>227</ele>
        <time>2020-11-13T09:55:56.000Z</time>
      </trkpt>
      <trkpt lat="49.81259" lon="4.83881">
        <ele>227</ele>
        <time>2020-11-13T09:55:57.000Z</time>
      </trkpt>
      <trkpt lat="49.81256" lon="4.83881">
        <ele>227</ele>
        <time>2020-11-13T09:55:58.000Z</time>
      </trkpt>
      <trkpt lat="49.81253" lon="4.83881">
        <ele>228</ele>
        <time>2020-11-13T09:55:59.000Z</time>
      </trkpt>
      <trkpt lat="49.81249" lon="4.83882">
        <ele>228</ele>
        <time>2020-11-13T09:56:00.000Z</time>
      </trkpt>
      <trkpt lat="49.81246" lon="4.83882">
        <ele>228</ele>
        <time>2020-11-13T09:56:01.000Z</time>
      </trkpt>
      <trkpt lat="49.81243" lon="4.83883">
        <ele>228</ele>
        <time>2020-11-13T09:56:02.000Z</time>
      </trkpt>
      <trkpt lat="49.81239" lon="4.83884">
        <ele>228</ele>
        <time>2020-11-13T09:56:03.000Z</time>
      </trkpt>
      <trkpt lat="49.81236" lon="4.83884">
        <ele>228</ele>
        <time>2020-11-13T09:56:04.000Z</time>
      </trkpt>
      <trkpt lat="49.81232" lon="4.83884">
        <ele>228</ele>
        <time>2020-11-13T09:56:05.000Z</time>
      </trkpt>
      <trkpt lat="49.81229" lon="4.83884">
        <ele>228</ele>
        <time>2020-11-13T09:56:06.000Z</time>
      </trkpt>
      <trkpt lat="49.81225" lon="4.83885">
        <ele>228</ele>
        <time>2020-11-13T09:56:07.000Z</time>
      </trkpt>
      <trkpt lat="49.8122" lon="4.83885">
        <ele>228</ele>
        <time>2020-11-13T09:56:08.000Z</time>
      </trkpt>
      <trkpt lat="49.81216" lon="4.83886">
        <ele>228</ele>
        <time>2020-11-13T09:56:09.000Z</time>
      </trkpt>
      <trkpt lat="49.81211" lon="4.83888">
        <ele>228</ele>
        <time>2020-11-13T09:56:10.000Z</time>
      </trkpt>
      <trkpt lat="49.81206" lon="4.83889">
        <ele>229</ele>
        <time>2020-11-13T09:56:11.000Z</time>
      </trkpt>
      <trkpt lat="49.81201" lon="4.8389">
        <ele>229</ele>
        <time>2020-11-13T09:56:12.000Z</time>
      </trkpt>
      <trkpt lat="49.81197" lon="4.8389">
        <ele>229</ele>
        <time>2020-11-13T09:56:13.000Z</time>
      </trkpt>
      <trkpt lat="49.81193" lon="4.83891">
        <ele>229</ele>
        <time>2020-11-13T09:56:14.000Z</time>
      </trkpt>
      <trkpt lat="49.81188" lon="4.83892">
        <ele>229</ele>
        <time>2020-11-13T09:56:15.000Z</time>
      </trkpt>
      <trkpt lat="49.81185" lon="4.83893">
        <ele>229</ele>
        <time>2020-11-13T09:56:16.000Z</time>
      </trkpt>
      <trkpt lat="49.8118" lon="4.83893">
        <ele>230</ele>
        <time>2020-11-13T09:56:17.000Z</time>
      </trkpt>
      <trkpt lat="49.81176" lon="4.83894">
        <ele>230</ele>
        <time>2020-11-13T09:56:18.000Z</time>
      </trkpt>
      <trkpt lat="49.81172" lon="4.83893">
        <ele>230</ele>
        <time>2020-11-13T09:56:19.000Z</time>
      </trkpt>
      <trkpt lat="49.81168" lon="4.83893">
        <ele>230</ele>
        <time>2020-11-13T09:56:20.000Z</time>
      </trkpt>
      <trkpt lat="49.81163" lon="4.83894">
        <ele>230</ele>
        <time>2020-11-13T09:56:21.000Z</time>
      </trkpt>
      <trkpt lat="49.81158" lon="4.83894">
        <ele>230</ele>
        <time>2020-11-13T09:56:22.000Z</time>
      </trkpt>
      <trkpt lat="49.81153" lon="4.83895">
        <ele>230</ele>
        <time>2020-11-13T09:56:23.000Z</time>
      </trkpt>
      <trkpt lat="49.81148" lon="4.83896">
        <ele>230</ele>
        <time>2020-11-13T09:56:24.000Z</time>
      </trkpt>
      <trkpt lat="49.81144" lon="4.83896">
        <ele>230</ele>
        <time>2020-11-13T09:56:25.000Z</time>
      </trkpt>
      <trkpt lat="49.8114" lon="4.83897">
        <ele>230</ele>
        <time>2020-11-13T09:56:26.000Z</time>
      </trkpt>
      <trkpt lat="49.81136" lon="4.83897">
        <ele>230</ele>
        <time>2020-11-13T09:56:27.000Z</time>
      </trkpt>
      <trkpt lat="49.81131" lon="4.83897">
        <ele>230</ele>
        <time>2020-11-13T09:56:28.000Z</time>
      </trkpt>
      <trkpt lat="49.81127" lon="4.83897">
        <ele>230</ele>
        <time>2020-11-13T09:56:29.000Z</time>
      </trkpt>
      <trkpt lat="49.81123" lon="4.83897">
        <ele>230</ele>
        <time>2020-11-13T09:56:30.000Z</time>
      </trkpt>
      <trkpt lat="49.81119" lon="4.83896">
        <ele>230</ele>
        <time>2020-11-13T09:56:31.000Z</time>
      </trkpt>
      <trkpt lat="49.81115" lon="4.83895">
        <ele>230</ele>
        <time>2020-11-13T09:56:32.000Z</time>
      </trkpt>
      <trkpt lat="49.81111" lon="4.83894">
        <ele>230</ele>
        <time>2020-11-13T09:56:33.000Z</time>
      </trkpt>
      <trkpt lat="49.81107" lon="4.83893">
        <ele>230</ele>
        <time>2020-11-13T09:56:34.000Z</time>
      </trkpt>
      <trkpt lat="49.81103" lon="4.83892">
        <ele>230</ele>
        <time>2020-11-13T09:56:35.000Z</time>
      </trkpt>
      <trkpt lat="49.81099" lon="4.83891">
        <ele>230</ele>
        <time>2020-11-13T09:56:36.000Z</time>
      </trkpt>
      <trkpt lat="49.81094" lon="4.8389">
        <ele>230</ele>
        <time>2020-11-13T09:56:37.000Z</time>
      </trkpt>
      <trkpt lat="49.81089" lon="4.83889">
        <ele>231</ele>
        <time>2020-11-13T09:56:38.000Z</time>
      </trkpt>
      <trkpt lat="49.81085" lon="4.83888">
        <ele>231</ele>
        <time>2020-11-13T09:56:39.000Z</time>
      </trkpt>
      <trkpt lat="49.8108" lon="4.83887">
        <ele>231</ele>
        <time>2020-11-13T09:56:40.000Z</time>
      </trkpt>
      <trkpt lat="49.81076" lon="4.83887">
        <ele>231</ele>
        <time>2020-11-13T09:56:41.000Z</time>
      </trkpt>
      <trkpt lat="49.81072" lon="4.83886">
        <ele>231</ele>
        <time>2020-11-13T09:56:42.000Z</time>
      </trkpt>
      <trkpt lat="49.81068" lon="4.83886">
        <ele>230</ele>
        <time>2020-11-13T09:56:43.000Z</time>
      </trkpt>
      <trkpt lat="49.81064" lon="4.83885">
        <ele>230</ele>
        <time>2020-11-13T09:56:44.000Z</time>
      </trkpt>
      <trkpt lat="49.8106" lon="4.83885">
        <ele>230</ele>
        <time>2020-11-13T09:56:45.000Z</time>
      </trkpt>
      <trkpt lat="49.81056" lon="4.83885">
        <ele>230</ele>
        <time>2020-11-13T09:56:46.000Z</time>
      </trkpt>
      <trkpt lat="49.81051" lon="4.83886">
        <ele>230</ele>
        <time>2020-11-13T09:56:47.000Z</time>
      </trkpt>
      <trkpt lat="49.81047" lon="4.83887">
        <ele>230</ele>
        <time>2020-11-13T09:56:48.000Z</time>
      </trkpt>
      <trkpt lat="49.81043" lon="4.83888">
        <ele>230</ele>
        <time>2020-11-13T09:56:49.000Z</time>
      </trkpt>
      <trkpt lat="49.81039" lon="4.83888">
        <ele>230</ele>
        <time>2020-11-13T09:56:50.000Z</time>
      </trkpt>
      <trkpt lat="49.81035" lon="4.83888">
        <ele>230</ele>
        <time>2020-11-13T09:56:51.000Z</time>
      </trkpt>
      <trkpt lat="49.81031" lon="4.83888">
        <ele>230</ele>
        <time>2020-11-13T09:56:52.000Z</time>
      </trkpt>
      <trkpt lat="49.81027" lon="4.83888">
        <ele>230</ele>
        <time>2020-11-13T09:56:53.000Z</time>
      </trkpt>
      <trkpt lat="49.81023" lon="4.83888">
        <ele>230</ele>
        <time>2020-11-13T09:56:54.000Z</time>
      </trkpt>
      <trkpt lat="49.81019" lon="4.83889">
        <ele>230</ele>
        <time>2020-11-13T09:56:55.000Z</time>
      </trkpt>
      <trkpt lat="49.81014" lon="4.83889">
        <ele>230</ele>
        <time>2020-11-13T09:56:56.000Z</time>
      </trkpt>
      <trkpt lat="49.8101" lon="4.83889">
        <ele>230</ele>
        <time>2020-11-13T09:56:57.000Z</time>
      </trkpt>
      <trkpt lat="49.81006" lon="4.83889">
        <ele>230</ele>
        <time>2020-11-13T09:56:58.000Z</time>
      </trkpt>
      <trkpt lat="49.81002" lon="4.83889">
        <ele>230</ele>
        <time>2020-11-13T09:56:59.000Z</time>
      </trkpt>
      <trkpt lat="49.80998" lon="4.83889">
        <ele>230</ele>
        <time>2020-11-13T09:57:00.000Z</time>
      </trkpt>
      <trkpt lat="49.80994" lon="4.83888">
        <ele>230</ele>
        <time>2020-11-13T09:57:01.000Z</time>
      </trkpt>
      <trkpt lat="49.8099" lon="4.83888">
        <ele>229</ele>
        <time>2020-11-13T09:57:02.000Z</time>
      </trkpt>
      <trkpt lat="49.80985" lon="4.83888">
        <ele>229</ele>
        <time>2020-11-13T09:57:03.000Z</time>
      </trkpt>
      <trkpt lat="49.80982" lon="4.83887">
        <ele>229</ele>
        <time>2020-11-13T09:57:04.000Z</time>
      </trkpt>
      <trkpt lat="49.80978" lon="4.83886">
        <ele>229</ele>
        <time>2020-11-13T09:57:05.000Z</time>
      </trkpt>
      <trkpt lat="49.80974" lon="4.83885">
        <ele>229</ele>
        <time>2020-11-13T09:57:06.000Z</time>
      </trkpt>
      <trkpt lat="49.80971" lon="4.83885">
        <ele>229</ele>
        <time>2020-11-13T09:57:07.000Z</time>
      </trkpt>
      <trkpt lat="49.80967" lon="4.83885">
        <ele>229</ele>
        <time>2020-11-13T09:57:08.000Z</time>
      </trkpt>
      <trkpt lat="49.80963" lon="4.83885">
        <ele>229</ele>
        <time>2020-11-13T09:57:09.000Z</time>
      </trkpt>
      <trkpt lat="49.8096" lon="4.83884">
        <ele>229</ele>
        <time>2020-11-13T09:57:10.000Z</time>
      </trkpt>
      <trkpt lat="49.80956" lon="4.83884">
        <ele>229</ele>
        <time>2020-11-13T09:57:11.000Z</time>
      </trkpt>
      <trkpt lat="49.80952" lon="4.83884">
        <ele>229</ele>
        <time>2020-11-13T09:57:12.000Z</time>
      </trkpt>
      <trkpt lat="49.80948" lon="4.83885">
        <ele>229</ele>
        <time>2020-11-13T09:57:13.000Z</time>
      </trkpt>
      <trkpt lat="49.80944" lon="4.83885">
        <ele>229</ele>
        <time>2020-11-13T09:57:14.000Z</time>
      </trkpt>
      <trkpt lat="49.80939" lon="4.83885">
        <ele>229</ele>
        <time>2020-11-13T09:57:15.000Z</time>
      </trkpt>
      <trkpt lat="49.80934" lon="4.83885">
        <ele>229</ele>
        <time>2020-11-13T09:57:16.000Z</time>
      </trkpt>
      <trkpt lat="49.80929" lon="4.83885">
        <ele>229</ele>
        <time>2020-11-13T09:57:17.000Z</time>
      </trkpt>
      <trkpt lat="49.80924" lon="4.83885">
        <ele>228</ele>
        <time>2020-11-13T09:57:18.000Z</time>
      </trkpt>
      <trkpt lat="49.80918" lon="4.83886">
        <ele>228</ele>
        <time>2020-11-13T09:57:19.000Z</time>
      </trkpt>
      <trkpt lat="49.80913" lon="4.83886">
        <ele>228</ele>
        <time>2020-11-13T09:57:20.000Z</time>
      </trkpt>
      <trkpt lat="49.80908" lon="4.83886">
        <ele>228</ele>
        <time>2020-11-13T09:57:21.000Z</time>
      </trkpt>
      <trkpt lat="49.80902" lon="4.83887">
        <ele>228</ele>
        <time>2020-11-13T09:57:22.000Z</time>
      </trkpt>
      <trkpt lat="49.80897" lon="4.83887">
        <ele>228</ele>
        <time>2020-11-13T09:57:23.000Z</time>
      </trkpt>
      <trkpt lat="49.80892" lon="4.83888">
        <ele>228</ele>
        <time>2020-11-13T09:57:24.000Z</time>
      </trkpt>
      <trkpt lat="49.80888" lon="4.83888">
        <ele>228</ele>
        <time>2020-11-13T09:57:25.000Z</time>
      </trkpt>
      <trkpt lat="49.80883" lon="4.83889">
        <ele>228</ele>
        <time>2020-11-13T09:57:26.000Z</time>
      </trkpt>
      <trkpt lat="49.80879" lon="4.83889">
        <ele>228</ele>
        <time>2020-11-13T09:57:27.000Z</time>
      </trkpt>
      <trkpt lat="49.80874" lon="4.8389">
        <ele>228</ele>
        <time>2020-11-13T09:57:28.000Z</time>
      </trkpt>
      <trkpt lat="49.80869" lon="4.8389">
        <ele>228</ele>
        <time>2020-11-13T09:57:29.000Z</time>
      </trkpt>
      <trkpt lat="49.80865" lon="4.83891">
        <ele>228</ele>
        <time>2020-11-13T09:57:30.000Z</time>
      </trkpt>
      <trkpt lat="49.8086" lon="4.83891">
        <ele>227</ele>
        <time>2020-11-13T09:57:31.000Z</time>
      </trkpt>
      <trkpt lat="49.80855" lon="4.83892">
        <ele>227</ele>
        <time>2020-11-13T09:57:32.000Z</time>
      </trkpt>
      <trkpt lat="49.80851" lon="4.83892">
        <ele>227</ele>
        <time>2020-11-13T09:57:33.000Z</time>
      </trkpt>
      <trkpt lat="49.80846" lon="4.83892">
        <ele>227</ele>
        <time>2020-11-13T09:57:34.000Z</time>
      </trkpt>
      <trkpt lat="49.80843" lon="4.83891">
        <ele>227</ele>
        <time>2020-11-13T09:57:35.000Z</time>
      </trkpt>
      <trkpt lat="49.8084" lon="4.83891">
        <ele>227</ele>
        <time>2020-11-13T09:57:36.000Z</time>
      </trkpt>
      <trkpt lat="49.80836" lon="4.83892">
        <ele>227</ele>
        <time>2020-11-13T09:57:37.000Z</time>
      </trkpt>
      <trkpt lat="49.80832" lon="4.83891">
        <ele>227</ele>
        <time>2020-11-13T09:57:38.000Z</time>
      </trkpt>
      <trkpt lat="49.80829" lon="4.83889">
        <ele>227</ele>
        <time>2020-11-13T09:57:39.000Z</time>
      </trkpt>
      <trkpt lat="49.80825" lon="4.83888">
        <ele>227</ele>
        <time>2020-11-13T09:57:40.000Z</time>
      </trkpt>
      <trkpt lat="49.80821" lon="4.83888">
        <ele>227</ele>
        <time>2020-11-13T09:57:41.000Z</time>
      </trkpt>
      <trkpt lat="49.80817" lon="4.83889">
        <ele>227</ele>
        <time>2020-11-13T09:57:42.000Z</time>
      </trkpt>
      <trkpt lat="49.80814" lon="4.8389">
        <ele>227</ele>
        <time>2020-11-13T09:57:43.000Z</time>
      </trkpt>
      <trkpt lat="49.8081" lon="4.83891">
        <ele>227</ele>
        <time>2020-11-13T09:57:44.000Z</time>
      </trkpt>
      <trkpt lat="49.80806" lon="4.83891">
        <ele>227</ele>
        <time>2020-11-13T09:57:45.000Z</time>
      </trkpt>
      <trkpt lat="49.80801" lon="4.83892">
        <ele>227</ele>
        <time>2020-11-13T09:57:46.000Z</time>
      </trkpt>
      <trkpt lat="49.80795" lon="4.83893">
        <ele>227</ele>
        <time>2020-11-13T09:57:47.000Z</time>
      </trkpt>
      <trkpt lat="49.8079" lon="4.83894">
        <ele>227</ele>
        <time>2020-11-13T09:57:48.000Z</time>
      </trkpt>
      <trkpt lat="49.80785" lon="4.83896">
        <ele>227</ele>
        <time>2020-11-13T09:57:49.000Z</time>
      </trkpt>
      <trkpt lat="49.80781" lon="4.83897">
        <ele>227</ele>
        <time>2020-11-13T09:57:50.000Z</time>
      </trkpt>
      <trkpt lat="49.80776" lon="4.83898">
        <ele>227</ele>
        <time>2020-11-13T09:57:51.000Z</time>
      </trkpt>
      <trkpt lat="49.80771" lon="4.83899">
        <ele>227</ele>
        <time>2020-11-13T09:57:52.000Z</time>
      </trkpt>
      <trkpt lat="49.80766" lon="4.83901">
        <ele>227</ele>
        <time>2020-11-13T09:57:53.000Z</time>
      </trkpt>
      <trkpt lat="49.80763" lon="4.83902">
        <ele>227</ele>
        <time>2020-11-13T09:57:54.000Z</time>
      </trkpt>
      <trkpt lat="49.80759" lon="4.83903">
        <ele>227</ele>
        <time>2020-11-13T09:57:55.000Z</time>
      </trkpt>
      <trkpt lat="49.80755" lon="4.83904">
        <ele>227</ele>
        <time>2020-11-13T09:57:56.000Z</time>
      </trkpt>
      <trkpt lat="49.80752" lon="4.83906">
        <ele>227</ele>
        <time>2020-11-13T09:57:57.000Z</time>
      </trkpt>
      <trkpt lat="49.80748" lon="4.83907">
        <ele>227</ele>
        <time>2020-11-13T09:57:58.000Z</time>
      </trkpt>
      <trkpt lat="49.80745" lon="4.83908">
        <ele>227</ele>
        <time>2020-11-13T09:57:59.000Z</time>
      </trkpt>
      <trkpt lat="49.80741" lon="4.83909">
        <ele>227</ele>
        <time>2020-11-13T09:58:00.000Z</time>
      </trkpt>
      <trkpt lat="49.80737" lon="4.8391">
        <ele>227</ele>
        <time>2020-11-13T09:58:01.000Z</time>
      </trkpt>
      <trkpt lat="49.80732" lon="4.83911">
        <ele>227</ele>
        <time>2020-11-13T09:58:02.000Z</time>
      </trkpt>
      <trkpt lat="49.80728" lon="4.83912">
        <ele>227</ele>
        <time>2020-11-13T09:58:03.000Z</time>
      </trkpt>
      <trkpt lat="49.80724" lon="4.83913">
        <ele>227</ele>
        <time>2020-11-13T09:58:04.000Z</time>
      </trkpt>
      <trkpt lat="49.8072" lon="4.83913">
        <ele>227</ele>
        <time>2020-11-13T09:58:05.000Z</time>
      </trkpt>
      <trkpt lat="49.80716" lon="4.83914">
        <ele>227</ele>
        <time>2020-11-13T09:58:06.000Z</time>
      </trkpt>
      <trkpt lat="49.80712" lon="4.83915">
        <ele>227</ele>
        <time>2020-11-13T09:58:07.000Z</time>
      </trkpt>
      <trkpt lat="49.80708" lon="4.83916">
        <ele>227</ele>
        <time>2020-11-13T09:58:08.000Z</time>
      </trkpt>
      <trkpt lat="49.80705" lon="4.83918">
        <ele>226</ele>
        <time>2020-11-13T09:58:09.000Z</time>
      </trkpt>
      <trkpt lat="49.80702" lon="4.83919">
        <ele>226</ele>
        <time>2020-11-13T09:58:10.000Z</time>
      </trkpt>
      <trkpt lat="49.80699" lon="4.8392">
        <ele>226</ele>
        <time>2020-11-13T09:58:11.000Z</time>
      </trkpt>
      <trkpt lat="49.80696" lon="4.83921">
        <ele>226</ele>
        <time>2020-11-13T09:58:12.000Z</time>
      </trkpt>
      <trkpt lat="49.80694" lon="4.83922">
        <ele>226</ele>
        <time>2020-11-13T09:58:13.000Z</time>
      </trkpt>
      <trkpt lat="49.80692" lon="4.83923">
        <ele>226</ele>
        <time>2020-11-13T09:58:14.000Z</time>
      </trkpt>
      <trkpt lat="49.8069" lon="4.83923">
        <ele>226</ele>
        <time>2020-11-13T09:58:15.000Z</time>
      </trkpt>
      <trkpt lat="49.80688" lon="4.83923">
        <ele>226</ele>
        <time>2020-11-13T09:58:16.000Z</time>
      </trkpt>
      <trkpt lat="49.80686" lon="4.83924">
        <ele>225</ele>
        <time>2020-11-13T09:58:17.000Z</time>
      </trkpt>
      <trkpt lat="49.80684" lon="4.83925">
        <ele>225</ele>
        <time>2020-11-13T09:58:18.000Z</time>
      </trkpt>
      <trkpt lat="49.80682" lon="4.83926">
        <ele>225</ele>
        <time>2020-11-13T09:58:19.000Z</time>
      </trkpt>
      <trkpt lat="49.8068" lon="4.83927">
        <ele>225</ele>
        <time>2020-11-13T09:58:20.000Z</time>
      </trkpt>
      <trkpt lat="49.80679" lon="4.83927">
        <ele>224</ele>
        <time>2020-11-13T09:58:21.000Z</time>
      </trkpt>
      <trkpt lat="49.80678" lon="4.83928">
        <ele>224</ele>
        <time>2020-11-13T09:58:22.000Z</time>
      </trkpt>
      <trkpt lat="49.80678" lon="4.83928">
        <ele>224</ele>
        <time>2020-11-13T09:58:23.000Z</time>
      </trkpt>
      <trkpt lat="49.80677" lon="4.83929">
        <ele>224</ele>
        <time>2020-11-13T09:58:24.000Z</time>
      </trkpt>
      <trkpt lat="49.80677" lon="4.83929">
        <ele>224</ele>
        <time>2020-11-13T09:58:25.000Z</time>
      </trkpt>
      <trkpt lat="49.80677" lon="4.83929">
        <ele>224</ele>
        <time>2020-11-13T09:58:26.000Z</time>
      </trkpt>
      <trkpt lat="49.80676" lon="4.83929">
        <ele>224</ele>
        <time>2020-11-13T09:58:27.000Z</time>
      </trkpt>
      <trkpt lat="49.80675" lon="4.83929">
        <ele>224</ele>
        <time>2020-11-13T09:58:28.000Z</time>
      </trkpt>
      <trkpt lat="49.80673" lon="4.83929">
        <ele>224</ele>
        <time>2020-11-13T09:58:29.000Z</time>
      </trkpt>
      <trkpt lat="49.80671" lon="4.83929">
        <ele>224</ele>
        <time>2020-11-13T09:58:30.000Z</time>
      </trkpt>
      <trkpt lat="49.80669" lon="4.83929">
        <ele>224</ele>
        <time>2020-11-13T09:58:31.000Z</time>
      </trkpt>
      <trkpt lat="49.80666" lon="4.8393">
        <ele>224</ele>
        <time>2020-11-13T09:58:32.000Z</time>
      </trkpt>
      <trkpt lat="49.80663" lon="4.83931">
        <ele>224</ele>
        <time>2020-11-13T09:58:33.000Z</time>
      </trkpt>
      <trkpt lat="49.80661" lon="4.83932">
        <ele>224</ele>
        <time>2020-11-13T09:58:34.000Z</time>
      </trkpt>
      <trkpt lat="49.80658" lon="4.83933">
        <ele>224</ele>
        <time>2020-11-13T09:58:35.000Z</time>
      </trkpt>
      <trkpt lat="49.80655" lon="4.83935">
        <ele>224</ele>
        <time>2020-11-13T09:58:36.000Z</time>
      </trkpt>
      <trkpt lat="49.80652" lon="4.83936">
        <ele>224</ele>
        <time>2020-11-13T09:58:37.000Z</time>
      </trkpt>
      <trkpt lat="49.80649" lon="4.83937">
        <ele>224</ele>
        <time>2020-11-13T09:58:38.000Z</time>
      </trkpt>
      <trkpt lat="49.80647" lon="4.83938">
        <ele>224</ele>
        <time>2020-11-13T09:58:39.000Z</time>
      </trkpt>
      <trkpt lat="49.80644" lon="4.83938">
        <ele>224</ele>
        <time>2020-11-13T09:58:40.000Z</time>
      </trkpt>
      <trkpt lat="49.80641" lon="4.83939">
        <ele>224</ele>
        <time>2020-11-13T09:58:41.000Z</time>
      </trkpt>
      <trkpt lat="49.80637" lon="4.8394">
        <ele>224</ele>
        <time>2020-11-13T09:58:42.000Z</time>
      </trkpt>
      <trkpt lat="49.80634" lon="4.83941">
        <ele>224</ele>
        <time>2020-11-13T09:58:43.000Z</time>
      </trkpt>
      <trkpt lat="49.80631" lon="4.83942">
        <ele>224</ele>
        <time>2020-11-13T09:58:44.000Z</time>
      </trkpt>
      <trkpt lat="49.80629" lon="4.83942">
        <ele>224</ele>
        <time>2020-11-13T09:58:45.000Z</time>
      </trkpt>
      <trkpt lat="49.80627" lon="4.83943">
        <ele>224</ele>
        <time>2020-11-13T09:58:46.000Z</time>
      </trkpt>
      <trkpt lat="49.80624" lon="4.83943">
        <ele>224</ele>
        <time>2020-11-13T09:58:47.000Z</time>
      </trkpt>
      <trkpt lat="49.80621" lon="4.83944">
        <ele>224</ele>
        <time>2020-11-13T09:58:48.000Z</time>
      </trkpt>
      <trkpt lat="49.80617" lon="4.83945">
        <ele>224</ele>
        <time>2020-11-13T09:58:49.000Z</time>
      </trkpt>
      <trkpt lat="49.80613" lon="4.83945">
        <ele>224</ele>
        <time>2020-11-13T09:58:50.000Z</time>
      </trkpt>
      <trkpt lat="49.8061" lon="4.83946">
        <ele>224</ele>
        <time>2020-11-13T09:58:51.000Z</time>
      </trkpt>
      <trkpt lat="49.80606" lon="4.83946">
        <ele>223</ele>
        <time>2020-11-13T09:58:52.000Z</time>
      </trkpt>
      <trkpt lat="49.80602" lon="4.83947">
        <ele>223</ele>
        <time>2020-11-13T09:58:53.000Z</time>
      </trkpt>
      <trkpt lat="49.80599" lon="4.83947">
        <ele>223</ele>
        <time>2020-11-13T09:58:54.000Z</time>
      </trkpt>
      <trkpt lat="49.80596" lon="4.83948">
        <ele>223</ele>
        <time>2020-11-13T09:58:55.000Z</time>
      </trkpt>
      <trkpt lat="49.80594" lon="4.83948">
        <ele>223</ele>
        <time>2020-11-13T09:58:56.000Z</time>
      </trkpt>
      <trkpt lat="49.80591" lon="4.83948">
        <ele>223</ele>
        <time>2020-11-13T09:58:57.000Z</time>
      </trkpt>
      <trkpt lat="49.80588" lon="4.83948">
        <ele>223</ele>
        <time>2020-11-13T09:58:58.000Z</time>
      </trkpt>
      <trkpt lat="49.80585" lon="4.83949">
        <ele>223</ele>
        <time>2020-11-13T09:58:59.000Z</time>
      </trkpt>
      <trkpt lat="49.80582" lon="4.83949">
        <ele>223</ele>
        <time>2020-11-13T09:59:00.000Z</time>
      </trkpt>
      <trkpt lat="49.80578" lon="4.8395">
        <ele>222</ele>
        <time>2020-11-13T09:59:01.000Z</time>
      </trkpt>
      <trkpt lat="49.80575" lon="4.8395">
        <ele>222</ele>
        <time>2020-11-13T09:59:02.000Z</time>
      </trkpt>
      <trkpt lat="49.80572" lon="4.83951">
        <ele>222</ele>
        <time>2020-11-13T09:59:03.000Z</time>
      </trkpt>
      <trkpt lat="49.80568" lon="4.83951">
        <ele>222</ele>
        <time>2020-11-13T09:59:04.000Z</time>
      </trkpt>
      <trkpt lat="49.80565" lon="4.83951">
        <ele>222</ele>
        <time>2020-11-13T09:59:05.000Z</time>
      </trkpt>
      <trkpt lat="49.80561" lon="4.83951">
        <ele>222</ele>
        <time>2020-11-13T09:59:06.000Z</time>
      </trkpt>
      <trkpt lat="49.80558" lon="4.83952">
        <ele>222</ele>
        <time>2020-11-13T09:59:07.000Z</time>
      </trkpt>
      <trkpt lat="49.80555" lon="4.83952">
        <ele>222</ele>
        <time>2020-11-13T09:59:08.000Z</time>
      </trkpt>
      <trkpt lat="49.80552" lon="4.83953">
        <ele>221</ele>
        <time>2020-11-13T09:59:09.000Z</time>
      </trkpt>
      <trkpt lat="49.80549" lon="4.83953">
        <ele>221</ele>
        <time>2020-11-13T09:59:10.000Z</time>
      </trkpt>
      <trkpt lat="49.80546" lon="4.83954">
        <ele>221</ele>
        <time>2020-11-13T09:59:11.000Z</time>
      </trkpt>
      <trkpt lat="49.80543" lon="4.83954">
        <ele>221</ele>
        <time>2020-11-13T09:59:12.000Z</time>
      </trkpt>
      <trkpt lat="49.8054" lon="4.83955">
        <ele>221</ele>
        <time>2020-11-13T09:59:13.000Z</time>
      </trkpt>
      <trkpt lat="49.80537" lon="4.83955">
        <ele>221</ele>
        <time>2020-11-13T09:59:14.000Z</time>
      </trkpt>
      <trkpt lat="49.80535" lon="4.83955">
        <ele>221</ele>
        <time>2020-11-13T09:59:15.000Z</time>
      </trkpt>
      <trkpt lat="49.80533" lon="4.83954">
        <ele>220</ele>
        <time>2020-11-13T09:59:16.000Z</time>
      </trkpt>
      <trkpt lat="49.80531" lon="4.83954">
        <ele>220</ele>
        <time>2020-11-13T09:59:17.000Z</time>
      </trkpt>
      <trkpt lat="49.80529" lon="4.83955">
        <ele>220</ele>
        <time>2020-11-13T09:59:18.000Z</time>
      </trkpt>
      <trkpt lat="49.80527" lon="4.83956">
        <ele>220</ele>
        <time>2020-11-13T09:59:19.000Z</time>
      </trkpt>
      <trkpt lat="49.80525" lon="4.83957">
        <ele>220</ele>
        <time>2020-11-13T09:59:20.000Z</time>
      </trkpt>
      <trkpt lat="49.80523" lon="4.83958">
        <ele>220</ele>
        <time>2020-11-13T09:59:21.000Z</time>
      </trkpt>
      <trkpt lat="49.80521" lon="4.83959">
        <ele>219</ele>
        <time>2020-11-13T09:59:22.000Z</time>
      </trkpt>
      <trkpt lat="49.80519" lon="4.83958">
        <ele>219</ele>
        <time>2020-11-13T09:59:23.000Z</time>
      </trkpt>
      <trkpt lat="49.80517" lon="4.83958">
        <ele>219</ele>
        <time>2020-11-13T09:59:24.000Z</time>
      </trkpt>
      <trkpt lat="49.80515" lon="4.83958">
        <ele>219</ele>
        <time>2020-11-13T09:59:25.000Z</time>
      </trkpt>
      <trkpt lat="49.80513" lon="4.83957">
        <ele>219</ele>
        <time>2020-11-13T09:59:26.000Z</time>
      </trkpt>
      <trkpt lat="49.80512" lon="4.83958">
        <ele>219</ele>
        <time>2020-11-13T09:59:27.000Z</time>
      </trkpt>
      <trkpt lat="49.8051" lon="4.83957">
        <ele>219</ele>
        <time>2020-11-13T09:59:28.000Z</time>
      </trkpt>
      <trkpt lat="49.80508" lon="4.83956">
        <ele>219</ele>
        <time>2020-11-13T09:59:29.000Z</time>
      </trkpt>
      <trkpt lat="49.80506" lon="4.83953">
        <ele>219</ele>
        <time>2020-11-13T09:59:30.000Z</time>
      </trkpt>
      <trkpt lat="49.80504" lon="4.8395">
        <ele>219</ele>
        <time>2020-11-13T09:59:31.000Z</time>
      </trkpt>
      <trkpt lat="49.80502" lon="4.83948">
        <ele>219</ele>
        <time>2020-11-13T09:59:32.000Z</time>
      </trkpt>
      <trkpt lat="49.805" lon="4.83945">
        <ele>218</ele>
        <time>2020-11-13T09:59:33.000Z</time>
      </trkpt>
      <trkpt lat="49.80498" lon="4.83942">
        <ele>218</ele>
        <time>2020-11-13T09:59:34.000Z</time>
      </trkpt>
      <trkpt lat="49.80496" lon="4.83939">
        <ele>218</ele>
        <time>2020-11-13T09:59:35.000Z</time>
      </trkpt>
      <trkpt lat="49.80493" lon="4.83936">
        <ele>218</ele>
        <time>2020-11-13T09:59:36.000Z</time>
      </trkpt>
      <trkpt lat="49.80491" lon="4.83933">
        <ele>218</ele>
        <time>2020-11-13T09:59:37.000Z</time>
      </trkpt>
      <trkpt lat="49.80488" lon="4.8393">
        <ele>217</ele>
        <time>2020-11-13T09:59:38.000Z</time>
      </trkpt>
      <trkpt lat="49.80484" lon="4.83927">
        <ele>217</ele>
        <time>2020-11-13T09:59:39.000Z</time>
      </trkpt>
      <trkpt lat="49.80481" lon="4.83924">
        <ele>217</ele>
        <time>2020-11-13T09:59:40.000Z</time>
      </trkpt>
      <trkpt lat="49.80478" lon="4.83921">
        <ele>217</ele>
        <time>2020-11-13T09:59:41.000Z</time>
      </trkpt>
      <trkpt lat="49.80474" lon="4.83919">
        <ele>217</ele>
        <time>2020-11-13T09:59:42.000Z</time>
      </trkpt>
      <trkpt lat="49.80471" lon="4.83917">
        <ele>217</ele>
        <time>2020-11-13T09:59:43.000Z</time>
      </trkpt>
      <trkpt lat="49.80468" lon="4.83915">
        <ele>217</ele>
        <time>2020-11-13T09:59:44.000Z</time>
      </trkpt>
      <trkpt lat="49.80464" lon="4.83913">
        <ele>216</ele>
        <time>2020-11-13T09:59:45.000Z</time>
      </trkpt>
      <trkpt lat="49.8046" lon="4.83911">
        <ele>216</ele>
        <time>2020-11-13T09:59:46.000Z</time>
      </trkpt>
      <trkpt lat="49.80457" lon="4.83909">
        <ele>216</ele>
        <time>2020-11-13T09:59:47.000Z</time>
      </trkpt>
      <trkpt lat="49.80453" lon="4.83908">
        <ele>216</ele>
        <time>2020-11-13T09:59:48.000Z</time>
      </trkpt>
      <trkpt lat="49.8045" lon="4.83906">
        <ele>216</ele>
        <time>2020-11-13T09:59:49.000Z</time>
      </trkpt>
      <trkpt lat="49.80446" lon="4.83903">
        <ele>216</ele>
        <time>2020-11-13T09:59:50.000Z</time>
      </trkpt>
      <trkpt lat="49.80443" lon="4.83901">
        <ele>216</ele>
        <time>2020-11-13T09:59:51.000Z</time>
      </trkpt>
      <trkpt lat="49.80439" lon="4.83898">
        <ele>216</ele>
        <time>2020-11-13T09:59:52.000Z</time>
      </trkpt>
      <trkpt lat="49.80436" lon="4.83896">
        <ele>216</ele>
        <time>2020-11-13T09:59:53.000Z</time>
      </trkpt>
      <trkpt lat="49.80432" lon="4.83893">
        <ele>216</ele>
        <time>2020-11-13T09:59:54.000Z</time>
      </trkpt>
      <trkpt lat="49.80428" lon="4.83891">
        <ele>216</ele>
        <time>2020-11-13T09:59:55.000Z</time>
      </trkpt>
      <trkpt lat="49.80423" lon="4.83888">
        <ele>216</ele>
        <time>2020-11-13T09:59:56.000Z</time>
      </trkpt>
      <trkpt lat="49.80419" lon="4.83884">
        <ele>216</ele>
        <time>2020-11-13T09:59:57.000Z</time>
      </trkpt>
      <trkpt lat="49.80415" lon="4.83881">
        <ele>216</ele>
        <time>2020-11-13T09:59:58.000Z</time>
      </trkpt>
      <trkpt lat="49.80411" lon="4.83877">
        <ele>216</ele>
        <time>2020-11-13T09:59:59.000Z</time>
      </trkpt>
      <trkpt lat="49.80408" lon="4.83872">
        <ele>216</ele>
        <time>2020-11-13T10:00:00.000Z</time>
      </trkpt>
      <trkpt lat="49.80404" lon="4.83867">
        <ele>216</ele>
        <time>2020-11-13T10:00:01.000Z</time>
      </trkpt>
      <trkpt lat="49.804" lon="4.83863">
        <ele>216</ele>
        <time>2020-11-13T10:00:02.000Z</time>
      </trkpt>
      <trkpt lat="49.80396" lon="4.83861">
        <ele>216</ele>
        <time>2020-11-13T10:00:03.000Z</time>
      </trkpt>
      <trkpt lat="49.80392" lon="4.8386">
        <ele>216</ele>
        <time>2020-11-13T10:00:04.000Z</time>
      </trkpt>
      <trkpt lat="49.80388" lon="4.8386">
        <ele>216</ele>
        <time>2020-11-13T10:00:05.000Z</time>
      </trkpt>
      <trkpt lat="49.80384" lon="4.83859">
        <ele>216</ele>
        <time>2020-11-13T10:00:06.000Z</time>
      </trkpt>
      <trkpt lat="49.8038" lon="4.83858">
        <ele>216</ele>
        <time>2020-11-13T10:00:07.000Z</time>
      </trkpt>
      <trkpt lat="49.80375" lon="4.83858">
        <ele>216</ele>
        <time>2020-11-13T10:00:08.000Z</time>
      </trkpt>
      <trkpt lat="49.80371" lon="4.83858">
        <ele>216</ele>
        <time>2020-11-13T10:00:09.000Z</time>
      </trkpt>
      <trkpt lat="49.80367" lon="4.83856">
        <ele>216</ele>
        <time>2020-11-13T10:00:10.000Z</time>
      </trkpt>
      <trkpt lat="49.80363" lon="4.83856">
        <ele>216</ele>
        <time>2020-11-13T10:00:11.000Z</time>
      </trkpt>
      <trkpt lat="49.80359" lon="4.83855">
        <ele>216</ele>
        <time>2020-11-13T10:00:12.000Z</time>
      </trkpt>
      <trkpt lat="49.80354" lon="4.83855">
        <ele>216</ele>
        <time>2020-11-13T10:00:13.000Z</time>
      </trkpt>
      <trkpt lat="49.8035" lon="4.83855">
        <ele>216</ele>
        <time>2020-11-13T10:00:14.000Z</time>
      </trkpt>
      <trkpt lat="49.80346" lon="4.83854">
        <ele>217</ele>
        <time>2020-11-13T10:00:15.000Z</time>
      </trkpt>
      <trkpt lat="49.80342" lon="4.83853">
        <ele>217</ele>
        <time>2020-11-13T10:00:16.000Z</time>
      </trkpt>
      <trkpt lat="49.80338" lon="4.83852">
        <ele>217</ele>
        <time>2020-11-13T10:00:17.000Z</time>
      </trkpt>
      <trkpt lat="49.80334" lon="4.83851">
        <ele>217</ele>
        <time>2020-11-13T10:00:18.000Z</time>
      </trkpt>
      <trkpt lat="49.8033" lon="4.83851">
        <ele>217</ele>
        <time>2020-11-13T10:00:19.000Z</time>
      </trkpt>
      <trkpt lat="49.80326" lon="4.8385">
        <ele>217</ele>
        <time>2020-11-13T10:00:20.000Z</time>
      </trkpt>
      <trkpt lat="49.80322" lon="4.8385">
        <ele>217</ele>
        <time>2020-11-13T10:00:21.000Z</time>
      </trkpt>
      <trkpt lat="49.80318" lon="4.83849">
        <ele>217</ele>
        <time>2020-11-13T10:00:22.000Z</time>
      </trkpt>
      <trkpt lat="49.80314" lon="4.83849">
        <ele>218</ele>
        <time>2020-11-13T10:00:23.000Z</time>
      </trkpt>
      <trkpt lat="49.8031" lon="4.83849">
        <ele>218</ele>
        <time>2020-11-13T10:00:24.000Z</time>
      </trkpt>
      <trkpt lat="49.80307" lon="4.83848">
        <ele>218</ele>
        <time>2020-11-13T10:00:25.000Z</time>
      </trkpt>
      <trkpt lat="49.80304" lon="4.83847">
        <ele>218</ele>
        <time>2020-11-13T10:00:26.000Z</time>
      </trkpt>
      <trkpt lat="49.80302" lon="4.83846">
        <ele>218</ele>
        <time>2020-11-13T10:00:27.000Z</time>
      </trkpt>
      <trkpt lat="49.80298" lon="4.83845">
        <ele>218</ele>
        <time>2020-11-13T10:00:28.000Z</time>
      </trkpt>
      <trkpt lat="49.80295" lon="4.83844">
        <ele>218</ele>
        <time>2020-11-13T10:00:29.000Z</time>
      </trkpt>
      <trkpt lat="49.80291" lon="4.83843">
        <ele>218</ele>
        <time>2020-11-13T10:00:30.000Z</time>
      </trkpt>
      <trkpt lat="49.80288" lon="4.83843">
        <ele>219</ele>
        <time>2020-11-13T10:00:31.000Z</time>
      </trkpt>
      <trkpt lat="49.80284" lon="4.83843">
        <ele>219</ele>
        <time>2020-11-13T10:00:32.000Z</time>
      </trkpt>
      <trkpt lat="49.8028" lon="4.83843">
        <ele>219</ele>
        <time>2020-11-13T10:00:33.000Z</time>
      </trkpt>
      <trkpt lat="49.80276" lon="4.83842">
        <ele>219</ele>
        <time>2020-11-13T10:00:34.000Z</time>
      </trkpt>
      <trkpt lat="49.80272" lon="4.83841">
        <ele>219</ele>
        <time>2020-11-13T10:00:35.000Z</time>
      </trkpt>
      <trkpt lat="49.80269" lon="4.83841">
        <ele>219</ele>
        <time>2020-11-13T10:00:36.000Z</time>
      </trkpt>
      <trkpt lat="49.80265" lon="4.83841">
        <ele>219</ele>
        <time>2020-11-13T10:00:37.000Z</time>
      </trkpt>
      <trkpt lat="49.80261" lon="4.83841">
        <ele>219</ele>
        <time>2020-11-13T10:00:38.000Z</time>
      </trkpt>
      <trkpt lat="49.80257" lon="4.83842">
        <ele>220</ele>
        <time>2020-11-13T10:00:39.000Z</time>
      </trkpt>
      <trkpt lat="49.80253" lon="4.83842">
        <ele>220</ele>
        <time>2020-11-13T10:00:40.000Z</time>
      </trkpt>
      <trkpt lat="49.8025" lon="4.83842">
        <ele>220</ele>
        <time>2020-11-13T10:00:41.000Z</time>
      </trkpt>
      <trkpt lat="49.80247" lon="4.83843">
        <ele>220</ele>
        <time>2020-11-13T10:00:42.000Z</time>
      </trkpt>
      <trkpt lat="49.80243" lon="4.83842">
        <ele>220</ele>
        <time>2020-11-13T10:00:43.000Z</time>
      </trkpt>
      <trkpt lat="49.8024" lon="4.83842">
        <ele>221</ele>
        <time>2020-11-13T10:00:44.000Z</time>
      </trkpt>
      <trkpt lat="49.80236" lon="4.83842">
        <ele>221</ele>
        <time>2020-11-13T10:00:45.000Z</time>
      </trkpt>
      <trkpt lat="49.80232" lon="4.83843">
        <ele>221</ele>
        <time>2020-11-13T10:00:46.000Z</time>
      </trkpt>
      <trkpt lat="49.80228" lon="4.83843">
        <ele>221</ele>
        <time>2020-11-13T10:00:47.000Z</time>
      </trkpt>
      <trkpt lat="49.80223" lon="4.83843">
        <ele>221</ele>
        <time>2020-11-13T10:00:48.000Z</time>
      </trkpt>
      <trkpt lat="49.80219" lon="4.83843">
        <ele>222</ele>
        <time>2020-11-13T10:00:49.000Z</time>
      </trkpt>
      <trkpt lat="49.80214" lon="4.83843">
        <ele>222</ele>
        <time>2020-11-13T10:00:50.000Z</time>
      </trkpt>
      <trkpt lat="49.80209" lon="4.83842">
        <ele>222</ele>
        <time>2020-11-13T10:00:51.000Z</time>
      </trkpt>
      <trkpt lat="49.80204" lon="4.8384">
        <ele>222</ele>
        <time>2020-11-13T10:00:52.000Z</time>
      </trkpt>
      <trkpt lat="49.80199" lon="4.83839">
        <ele>222</ele>
        <time>2020-11-13T10:00:53.000Z</time>
      </trkpt>
      <trkpt lat="49.80193" lon="4.83839">
        <ele>223</ele>
        <time>2020-11-13T10:00:54.000Z</time>
      </trkpt>
      <trkpt lat="49.80188" lon="4.83838">
        <ele>223</ele>
        <time>2020-11-13T10:00:55.000Z</time>
      </trkpt>
      <trkpt lat="49.80183" lon="4.83838">
        <ele>223</ele>
        <time>2020-11-13T10:00:56.000Z</time>
      </trkpt>
      <trkpt lat="49.80178" lon="4.83838">
        <ele>223</ele>
        <time>2020-11-13T10:00:57.000Z</time>
      </trkpt>
      <trkpt lat="49.80173" lon="4.83836">
        <ele>223</ele>
        <time>2020-11-13T10:00:58.000Z</time>
      </trkpt>
      <trkpt lat="49.80168" lon="4.83835">
        <ele>223</ele>
        <time>2020-11-13T10:00:59.000Z</time>
      </trkpt>
      <trkpt lat="49.80163" lon="4.83834">
        <ele>223</ele>
        <time>2020-11-13T10:01:00.000Z</time>
      </trkpt>
      <trkpt lat="49.80158" lon="4.83833">
        <ele>223</ele>
        <time>2020-11-13T10:01:01.000Z</time>
      </trkpt>
      <trkpt lat="49.80152" lon="4.83831">
        <ele>223</ele>
        <time>2020-11-13T10:01:02.000Z</time>
      </trkpt>
      <trkpt lat="49.80147" lon="4.83829">
        <ele>223</ele>
        <time>2020-11-13T10:01:03.000Z</time>
      </trkpt>
      <trkpt lat="49.80142" lon="4.83827">
        <ele>223</ele>
        <time>2020-11-13T10:01:04.000Z</time>
      </trkpt>
      <trkpt lat="49.80137" lon="4.83826">
        <ele>223</ele>
        <time>2020-11-13T10:01:05.000Z</time>
      </trkpt>
      <trkpt lat="49.80132" lon="4.83826">
        <ele>223</ele>
        <time>2020-11-13T10:01:06.000Z</time>
      </trkpt>
      <trkpt lat="49.80127" lon="4.83824">
        <ele>224</ele>
        <time>2020-11-13T10:01:07.000Z</time>
      </trkpt>
      <trkpt lat="49.80122" lon="4.83822">
        <ele>224</ele>
        <time>2020-11-13T10:01:08.000Z</time>
      </trkpt>
      <trkpt lat="49.80117" lon="4.8382">
        <ele>224</ele>
        <time>2020-11-13T10:01:09.000Z</time>
      </trkpt>
      <trkpt lat="49.80112" lon="4.83817">
        <ele>224</ele>
        <time>2020-11-13T10:01:10.000Z</time>
      </trkpt>
      <trkpt lat="49.80107" lon="4.83814">
        <ele>224</ele>
        <time>2020-11-13T10:01:11.000Z</time>
      </trkpt>
      <trkpt lat="49.80102" lon="4.83812">
        <ele>224</ele>
        <time>2020-11-13T10:01:12.000Z</time>
      </trkpt>
      <trkpt lat="49.80097" lon="4.83809">
        <ele>225</ele>
        <time>2020-11-13T10:01:13.000Z</time>
      </trkpt>
      <trkpt lat="49.80092" lon="4.83806">
        <ele>225</ele>
        <time>2020-11-13T10:01:14.000Z</time>
      </trkpt>
      <trkpt lat="49.80086" lon="4.83804">
        <ele>225</ele>
        <time>2020-11-13T10:01:15.000Z</time>
      </trkpt>
      <trkpt lat="49.80081" lon="4.83803">
        <ele>225</ele>
        <time>2020-11-13T10:01:16.000Z</time>
      </trkpt>
      <trkpt lat="49.80075" lon="4.83802">
        <ele>225</ele>
        <time>2020-11-13T10:01:17.000Z</time>
      </trkpt>
      <trkpt lat="49.8007" lon="4.838">
        <ele>225</ele>
        <time>2020-11-13T10:01:18.000Z</time>
      </trkpt>
      <trkpt lat="49.80065" lon="4.83799">
        <ele>225</ele>
        <time>2020-11-13T10:01:19.000Z</time>
      </trkpt>
      <trkpt lat="49.8006" lon="4.83798">
        <ele>226</ele>
        <time>2020-11-13T10:01:20.000Z</time>
      </trkpt>
      <trkpt lat="49.80055" lon="4.83797">
        <ele>226</ele>
        <time>2020-11-13T10:01:21.000Z</time>
      </trkpt>
      <trkpt lat="49.80051" lon="4.83795">
        <ele>226</ele>
        <time>2020-11-13T10:01:22.000Z</time>
      </trkpt>
      <trkpt lat="49.80046" lon="4.83793">
        <ele>226</ele>
        <time>2020-11-13T10:01:23.000Z</time>
      </trkpt>
      <trkpt lat="49.80041" lon="4.83792">
        <ele>226</ele>
        <time>2020-11-13T10:01:24.000Z</time>
      </trkpt>
      <trkpt lat="49.80036" lon="4.83791">
        <ele>226</ele>
        <time>2020-11-13T10:01:25.000Z</time>
      </trkpt>
      <trkpt lat="49.8003" lon="4.83789">
        <ele>226</ele>
        <time>2020-11-13T10:01:26.000Z</time>
      </trkpt>
      <trkpt lat="49.80025" lon="4.83788">
        <ele>226</ele>
        <time>2020-11-13T10:01:27.000Z</time>
      </trkpt>
      <trkpt lat="49.8002" lon="4.83787">
        <ele>226</ele>
        <time>2020-11-13T10:01:28.000Z</time>
      </trkpt>
      <trkpt lat="49.80015" lon="4.83785">
        <ele>226</ele>
        <time>2020-11-13T10:01:29.000Z</time>
      </trkpt>
      <trkpt lat="49.80011" lon="4.83784">
        <ele>226</ele>
        <time>2020-11-13T10:01:30.000Z</time>
      </trkpt>
      <trkpt lat="49.80006" lon="4.83783">
        <ele>225</ele>
        <time>2020-11-13T10:01:31.000Z</time>
      </trkpt>
      <trkpt lat="49.80001" lon="4.83781">
        <ele>225</ele>
        <time>2020-11-13T10:01:32.000Z</time>
      </trkpt>
      <trkpt lat="49.79995" lon="4.8378">
        <ele>226</ele>
        <time>2020-11-13T10:01:33.000Z</time>
      </trkpt>
      <trkpt lat="49.79989" lon="4.83778">
        <ele>226</ele>
        <time>2020-11-13T10:01:34.000Z</time>
      </trkpt>
      <trkpt lat="49.79984" lon="4.83777">
        <ele>226</ele>
        <time>2020-11-13T10:01:35.000Z</time>
      </trkpt>
      <trkpt lat="49.79978" lon="4.83775">
        <ele>226</ele>
        <time>2020-11-13T10:01:36.000Z</time>
      </trkpt>
      <trkpt lat="49.79973" lon="4.83772">
        <ele>226</ele>
        <time>2020-11-13T10:01:37.000Z</time>
      </trkpt>
      <trkpt lat="49.79968" lon="4.8377">
        <ele>227</ele>
        <time>2020-11-13T10:01:38.000Z</time>
      </trkpt>
      <trkpt lat="49.79963" lon="4.83768">
        <ele>227</ele>
        <time>2020-11-13T10:01:39.000Z</time>
      </trkpt>
      <trkpt lat="49.79958" lon="4.83767">
        <ele>227</ele>
        <time>2020-11-13T10:01:40.000Z</time>
      </trkpt>
      <trkpt lat="49.79953" lon="4.83765">
        <ele>227</ele>
        <time>2020-11-13T10:01:41.000Z</time>
      </trkpt>
      <trkpt lat="49.79948" lon="4.83764">
        <ele>227</ele>
        <time>2020-11-13T10:01:42.000Z</time>
      </trkpt>
      <trkpt lat="49.79943" lon="4.83762">
        <ele>228</ele>
        <time>2020-11-13T10:01:43.000Z</time>
      </trkpt>
      <trkpt lat="49.79938" lon="4.83761">
        <ele>228</ele>
        <time>2020-11-13T10:01:44.000Z</time>
      </trkpt>
      <trkpt lat="49.79934" lon="4.8376">
        <ele>228</ele>
        <time>2020-11-13T10:01:45.000Z</time>
      </trkpt>
      <trkpt lat="49.79929" lon="4.83758">
        <ele>228</ele>
        <time>2020-11-13T10:01:46.000Z</time>
      </trkpt>
      <trkpt lat="49.79924" lon="4.83757">
        <ele>228</ele>
        <time>2020-11-13T10:01:47.000Z</time>
      </trkpt>
      <trkpt lat="49.79918" lon="4.83756">
        <ele>228</ele>
        <time>2020-11-13T10:01:48.000Z</time>
      </trkpt>
      <trkpt lat="49.79913" lon="4.83755">
        <ele>228</ele>
        <time>2020-11-13T10:01:49.000Z</time>
      </trkpt>
      <trkpt lat="49.79908" lon="4.83753">
        <ele>228</ele>
        <time>2020-11-13T10:01:50.000Z</time>
      </trkpt>
      <trkpt lat="49.79903" lon="4.83752">
        <ele>228</ele>
        <time>2020-11-13T10:01:51.000Z</time>
      </trkpt>
      <trkpt lat="49.79897" lon="4.83751">
        <ele>228</ele>
        <time>2020-11-13T10:01:52.000Z</time>
      </trkpt>
      <trkpt lat="49.79891" lon="4.8375">
        <ele>228</ele>
        <time>2020-11-13T10:01:53.000Z</time>
      </trkpt>
      <trkpt lat="49.79885" lon="4.83748">
        <ele>228</ele>
        <time>2020-11-13T10:01:54.000Z</time>
      </trkpt>
      <trkpt lat="49.79879" lon="4.83746">
        <ele>228</ele>
        <time>2020-11-13T10:01:55.000Z</time>
      </trkpt>
      <trkpt lat="49.79873" lon="4.83745">
        <ele>228</ele>
        <time>2020-11-13T10:01:56.000Z</time>
      </trkpt>
      <trkpt lat="49.79867" lon="4.83744">
        <ele>228</ele>
        <time>2020-11-13T10:01:57.000Z</time>
      </trkpt>
      <trkpt lat="49.79862" lon="4.83743">
        <ele>228</ele>
        <time>2020-11-13T10:01:58.000Z</time>
      </trkpt>
      <trkpt lat="49.79856" lon="4.83742">
        <ele>228</ele>
        <time>2020-11-13T10:01:59.000Z</time>
      </trkpt>
      <trkpt lat="49.79851" lon="4.8374">
        <ele>228</ele>
        <time>2020-11-13T10:02:00.000Z</time>
      </trkpt>
      <trkpt lat="49.79846" lon="4.83738">
        <ele>228</ele>
        <time>2020-11-13T10:02:01.000Z</time>
      </trkpt>
      <trkpt lat="49.7984" lon="4.83737">
        <ele>228</ele>
        <time>2020-11-13T10:02:02.000Z</time>
      </trkpt>
      <trkpt lat="49.79834" lon="4.83736">
        <ele>228</ele>
        <time>2020-11-13T10:02:03.000Z</time>
      </trkpt>
      <trkpt lat="49.79828" lon="4.83735">
        <ele>228</ele>
        <time>2020-11-13T10:02:04.000Z</time>
      </trkpt>
      <trkpt lat="49.79822" lon="4.83733">
        <ele>228</ele>
        <time>2020-11-13T10:02:05.000Z</time>
      </trkpt>
      <trkpt lat="49.79816" lon="4.83732">
        <ele>228</ele>
        <time>2020-11-13T10:02:06.000Z</time>
      </trkpt>
      <trkpt lat="49.79811" lon="4.83731">
        <ele>228</ele>
        <time>2020-11-13T10:02:07.000Z</time>
      </trkpt>
      <trkpt lat="49.79805" lon="4.8373">
        <ele>228</ele>
        <time>2020-11-13T10:02:08.000Z</time>
      </trkpt>
      <trkpt lat="49.79799" lon="4.83729">
        <ele>228</ele>
        <time>2020-11-13T10:02:09.000Z</time>
      </trkpt>
      <trkpt lat="49.79794" lon="4.83728">
        <ele>229</ele>
        <time>2020-11-13T10:02:10.000Z</time>
      </trkpt>
      <trkpt lat="49.79788" lon="4.83727">
        <ele>229</ele>
        <time>2020-11-13T10:02:11.000Z</time>
      </trkpt>
      <trkpt lat="49.79782" lon="4.83727">
        <ele>228</ele>
        <time>2020-11-13T10:02:12.000Z</time>
      </trkpt>
      <trkpt lat="49.79776" lon="4.83728">
        <ele>228</ele>
        <time>2020-11-13T10:02:13.000Z</time>
      </trkpt>
      <trkpt lat="49.7977" lon="4.83727">
        <ele>228</ele>
        <time>2020-11-13T10:02:14.000Z</time>
      </trkpt>
      <trkpt lat="49.79764" lon="4.83727">
        <ele>228</ele>
        <time>2020-11-13T10:02:15.000Z</time>
      </trkpt>
      <trkpt lat="49.79758" lon="4.83727">
        <ele>228</ele>
        <time>2020-11-13T10:02:16.000Z</time>
      </trkpt>
      <trkpt lat="49.79751" lon="4.83727">
        <ele>228</ele>
        <time>2020-11-13T10:02:17.000Z</time>
      </trkpt>
      <trkpt lat="49.79745" lon="4.83727">
        <ele>228</ele>
        <time>2020-11-13T10:02:18.000Z</time>
      </trkpt>
      <trkpt lat="49.79739" lon="4.83727">
        <ele>228</ele>
        <time>2020-11-13T10:02:19.000Z</time>
      </trkpt>
      <trkpt lat="49.79734" lon="4.83727">
        <ele>228</ele>
        <time>2020-11-13T10:02:20.000Z</time>
      </trkpt>
      <trkpt lat="49.79728" lon="4.83726">
        <ele>228</ele>
        <time>2020-11-13T10:02:21.000Z</time>
      </trkpt>
      <trkpt lat="49.79722" lon="4.83726">
        <ele>228</ele>
        <time>2020-11-13T10:02:22.000Z</time>
      </trkpt>
      <trkpt lat="49.79716" lon="4.83727">
        <ele>228</ele>
        <time>2020-11-13T10:02:23.000Z</time>
      </trkpt>
      <trkpt lat="49.79711" lon="4.83728">
        <ele>228</ele>
        <time>2020-11-13T10:02:24.000Z</time>
      </trkpt>
      <trkpt lat="49.79705" lon="4.83727">
        <ele>228</ele>
        <time>2020-11-13T10:02:25.000Z</time>
      </trkpt>
      <trkpt lat="49.797" lon="4.83726">
        <ele>228</ele>
        <time>2020-11-13T10:02:26.000Z</time>
      </trkpt>
      <trkpt lat="49.79694" lon="4.83726">
        <ele>228</ele>
        <time>2020-11-13T10:02:27.000Z</time>
      </trkpt>
      <trkpt lat="49.79688" lon="4.83727">
        <ele>228</ele>
        <time>2020-11-13T10:02:28.000Z</time>
      </trkpt>
      <trkpt lat="49.79681" lon="4.83728">
        <ele>228</ele>
        <time>2020-11-13T10:02:29.000Z</time>
      </trkpt>
      <trkpt lat="49.79675" lon="4.83728">
        <ele>228</ele>
        <time>2020-11-13T10:02:30.000Z</time>
      </trkpt>
      <trkpt lat="49.79669" lon="4.83727">
        <ele>228</ele>
        <time>2020-11-13T10:02:31.000Z</time>
      </trkpt>
      <trkpt lat="49.79663" lon="4.83727">
        <ele>228</ele>
        <time>2020-11-13T10:02:32.000Z</time>
      </trkpt>
      <trkpt lat="49.79657" lon="4.83727">
        <ele>227</ele>
        <time>2020-11-13T10:02:33.000Z</time>
      </trkpt>
      <trkpt lat="49.7965" lon="4.83727">
        <ele>227</ele>
        <time>2020-11-13T10:02:34.000Z</time>
      </trkpt>
      <trkpt lat="49.79643" lon="4.83727">
        <ele>227</ele>
        <time>2020-11-13T10:02:35.000Z</time>
      </trkpt>
      <trkpt lat="49.79636" lon="4.83727">
        <ele>227</ele>
        <time>2020-11-13T10:02:36.000Z</time>
      </trkpt>
      <trkpt lat="49.79629" lon="4.83727">
        <ele>226</ele>
        <time>2020-11-13T10:02:37.000Z</time>
      </trkpt>
      <trkpt lat="49.79622" lon="4.83727">
        <ele>226</ele>
        <time>2020-11-13T10:02:38.000Z</time>
      </trkpt>
      <trkpt lat="49.79615" lon="4.83726">
        <ele>226</ele>
        <time>2020-11-13T10:02:39.000Z</time>
      </trkpt>
      <trkpt lat="49.79607" lon="4.83726">
        <ele>225</ele>
        <time>2020-11-13T10:02:40.000Z</time>
      </trkpt>
      <trkpt lat="49.796" lon="4.83726">
        <ele>225</ele>
        <time>2020-11-13T10:02:41.000Z</time>
      </trkpt>
      <trkpt lat="49.79593" lon="4.83726">
        <ele>225</ele>
        <time>2020-11-13T10:02:42.000Z</time>
      </trkpt>
      <trkpt lat="49.79586" lon="4.83725">
        <ele>224</ele>
        <time>2020-11-13T10:02:43.000Z</time>
      </trkpt>
      <trkpt lat="49.79579" lon="4.83725">
        <ele>224</ele>
        <time>2020-11-13T10:02:44.000Z</time>
      </trkpt>
      <trkpt lat="49.79572" lon="4.83725">
        <ele>223</ele>
        <time>2020-11-13T10:02:45.000Z</time>
      </trkpt>
      <trkpt lat="49.79565" lon="4.83723">
        <ele>223</ele>
        <time>2020-11-13T10:02:46.000Z</time>
      </trkpt>
      <trkpt lat="49.79559" lon="4.83722">
        <ele>222</ele>
        <time>2020-11-13T10:02:47.000Z</time>
      </trkpt>
      <trkpt lat="49.79552" lon="4.83721">
        <ele>222</ele>
        <time>2020-11-13T10:02:48.000Z</time>
      </trkpt>
      <trkpt lat="49.79545" lon="4.83719">
        <ele>221</ele>
        <time>2020-11-13T10:02:49.000Z</time>
      </trkpt>
      <trkpt lat="49.79539" lon="4.83718">
        <ele>221</ele>
        <time>2020-11-13T10:02:50.000Z</time>
      </trkpt>
      <trkpt lat="49.79532" lon="4.83717">
        <ele>220</ele>
        <time>2020-11-13T10:02:51.000Z</time>
      </trkpt>
      <trkpt lat="49.79526" lon="4.83715">
        <ele>220</ele>
        <time>2020-11-13T10:02:52.000Z</time>
      </trkpt>
      <trkpt lat="49.79521" lon="4.83714">
        <ele>220</ele>
        <time>2020-11-13T10:02:53.000Z</time>
      </trkpt>
      <trkpt lat="49.79516" lon="4.83713">
        <ele>219</ele>
        <time>2020-11-13T10:02:54.000Z</time>
      </trkpt>
      <trkpt lat="49.79511" lon="4.83712">
        <ele>219</ele>
        <time>2020-11-13T10:02:55.000Z</time>
      </trkpt>
      <trkpt lat="49.79505" lon="4.8371">
        <ele>219</ele>
        <time>2020-11-13T10:02:56.000Z</time>
      </trkpt>
      <trkpt lat="49.795" lon="4.83709">
        <ele>219</ele>
        <time>2020-11-13T10:02:57.000Z</time>
      </trkpt>
      <trkpt lat="49.79494" lon="4.83707">
        <ele>219</ele>
        <time>2020-11-13T10:02:58.000Z</time>
      </trkpt>
      <trkpt lat="49.79487" lon="4.83706">
        <ele>219</ele>
        <time>2020-11-13T10:02:59.000Z</time>
      </trkpt>
      <trkpt lat="49.79482" lon="4.83705">
        <ele>219</ele>
        <time>2020-11-13T10:03:00.000Z</time>
      </trkpt>
      <trkpt lat="49.79475" lon="4.83704">
        <ele>219</ele>
        <time>2020-11-13T10:03:01.000Z</time>
      </trkpt>
      <trkpt lat="49.79469" lon="4.83703">
        <ele>219</ele>
        <time>2020-11-13T10:03:02.000Z</time>
      </trkpt>
      <trkpt lat="49.79463" lon="4.83702">
        <ele>219</ele>
        <time>2020-11-13T10:03:03.000Z</time>
      </trkpt>
      <trkpt lat="49.79457" lon="4.83701">
        <ele>219</ele>
        <time>2020-11-13T10:03:04.000Z</time>
      </trkpt>
      <trkpt lat="49.79451" lon="4.837">
        <ele>219</ele>
        <time>2020-11-13T10:03:05.000Z</time>
      </trkpt>
      <trkpt lat="49.79445" lon="4.83698">
        <ele>219</ele>
        <time>2020-11-13T10:03:06.000Z</time>
      </trkpt>
      <trkpt lat="49.7944" lon="4.83697">
        <ele>219</ele>
        <time>2020-11-13T10:03:07.000Z</time>
      </trkpt>
      <trkpt lat="49.79435" lon="4.83696">
        <ele>219</ele>
        <time>2020-11-13T10:03:08.000Z</time>
      </trkpt>
      <trkpt lat="49.7943" lon="4.83695">
        <ele>219</ele>
        <time>2020-11-13T10:03:09.000Z</time>
      </trkpt>
      <trkpt lat="49.79424" lon="4.83695">
        <ele>219</ele>
        <time>2020-11-13T10:03:10.000Z</time>
      </trkpt>
      <trkpt lat="49.79418" lon="4.83693">
        <ele>219</ele>
        <time>2020-11-13T10:03:11.000Z</time>
      </trkpt>
      <trkpt lat="49.79412" lon="4.83692">
        <ele>219</ele>
        <time>2020-11-13T10:03:12.000Z</time>
      </trkpt>
      <trkpt lat="49.79406" lon="4.83692">
        <ele>219</ele>
        <time>2020-11-13T10:03:13.000Z</time>
      </trkpt>
      <trkpt lat="49.794" lon="4.83691">
        <ele>219</ele>
        <time>2020-11-13T10:03:14.000Z</time>
      </trkpt>
      <trkpt lat="49.79394" lon="4.83691">
        <ele>219</ele>
        <time>2020-11-13T10:03:15.000Z</time>
      </trkpt>
      <trkpt lat="49.79388" lon="4.83691">
        <ele>219</ele>
        <time>2020-11-13T10:03:16.000Z</time>
      </trkpt>
      <trkpt lat="49.79382" lon="4.83693">
        <ele>219</ele>
        <time>2020-11-13T10:03:17.000Z</time>
      </trkpt>
      <trkpt lat="49.79377" lon="4.83694">
        <ele>219</ele>
        <time>2020-11-13T10:03:18.000Z</time>
      </trkpt>
      <trkpt lat="49.79373" lon="4.83696">
        <ele>219</ele>
        <time>2020-11-13T10:03:19.000Z</time>
      </trkpt>
      <trkpt lat="49.79369" lon="4.83698">
        <ele>219</ele>
        <time>2020-11-13T10:03:20.000Z</time>
      </trkpt>
      <trkpt lat="49.79366" lon="4.83702">
        <ele>219</ele>
        <time>2020-11-13T10:03:21.000Z</time>
      </trkpt>
      <trkpt lat="49.79362" lon="4.83706">
        <ele>219</ele>
        <time>2020-11-13T10:03:22.000Z</time>
      </trkpt>
      <trkpt lat="49.79358" lon="4.83712">
        <ele>219</ele>
        <time>2020-11-13T10:03:23.000Z</time>
      </trkpt>
      <trkpt lat="49.79353" lon="4.83717">
        <ele>219</ele>
        <time>2020-11-13T10:03:24.000Z</time>
      </trkpt>
      <trkpt lat="49.79348" lon="4.83723">
        <ele>219</ele>
        <time>2020-11-13T10:03:25.000Z</time>
      </trkpt>
      <trkpt lat="49.79343" lon="4.83729">
        <ele>220</ele>
        <time>2020-11-13T10:03:26.000Z</time>
      </trkpt>
      <trkpt lat="49.79339" lon="4.83735">
        <ele>220</ele>
        <time>2020-11-13T10:03:27.000Z</time>
      </trkpt>
      <trkpt lat="49.79334" lon="4.83741">
        <ele>220</ele>
        <time>2020-11-13T10:03:28.000Z</time>
      </trkpt>
      <trkpt lat="49.7933" lon="4.83748">
        <ele>220</ele>
        <time>2020-11-13T10:03:29.000Z</time>
      </trkpt>
      <trkpt lat="49.79325" lon="4.83754">
        <ele>220</ele>
        <time>2020-11-13T10:03:30.000Z</time>
      </trkpt>
      <trkpt lat="49.79321" lon="4.8376">
        <ele>221</ele>
        <time>2020-11-13T10:03:31.000Z</time>
      </trkpt>
      <trkpt lat="49.79316" lon="4.83767">
        <ele>221</ele>
        <time>2020-11-13T10:03:32.000Z</time>
      </trkpt>
      <trkpt lat="49.79312" lon="4.83773">
        <ele>221</ele>
        <time>2020-11-13T10:03:33.000Z</time>
      </trkpt>
      <trkpt lat="49.79308" lon="4.8378">
        <ele>221</ele>
        <time>2020-11-13T10:03:34.000Z</time>
      </trkpt>
      <trkpt lat="49.79304" lon="4.83787">
        <ele>221</ele>
        <time>2020-11-13T10:03:35.000Z</time>
      </trkpt>
      <trkpt lat="49.793" lon="4.83795">
        <ele>221</ele>
        <time>2020-11-13T10:03:36.000Z</time>
      </trkpt>
      <trkpt lat="49.79296" lon="4.83802">
        <ele>221</ele>
        <time>2020-11-13T10:03:37.000Z</time>
      </trkpt>
      <trkpt lat="49.79292" lon="4.8381">
        <ele>221</ele>
        <time>2020-11-13T10:03:38.000Z</time>
      </trkpt>
      <trkpt lat="49.79288" lon="4.83818">
        <ele>221</ele>
        <time>2020-11-13T10:03:39.000Z</time>
      </trkpt>
      <trkpt lat="49.79284" lon="4.83826">
        <ele>221</ele>
        <time>2020-11-13T10:03:40.000Z</time>
      </trkpt>
      <trkpt lat="49.7928" lon="4.83834">
        <ele>221</ele>
        <time>2020-11-13T10:03:41.000Z</time>
      </trkpt>
      <trkpt lat="49.79277" lon="4.83842">
        <ele>221</ele>
        <time>2020-11-13T10:03:42.000Z</time>
      </trkpt>
      <trkpt lat="49.79273" lon="4.8385">
        <ele>221</ele>
        <time>2020-11-13T10:03:43.000Z</time>
      </trkpt>
      <trkpt lat="49.7927" lon="4.83859">
        <ele>221</ele>
        <time>2020-11-13T10:03:44.000Z</time>
      </trkpt>
      <trkpt lat="49.79267" lon="4.83867">
        <ele>221</ele>
        <time>2020-11-13T10:03:45.000Z</time>
      </trkpt>
      <trkpt lat="49.79263" lon="4.83875">
        <ele>221</ele>
        <time>2020-11-13T10:03:46.000Z</time>
      </trkpt>
      <trkpt lat="49.79259" lon="4.83883">
        <ele>221</ele>
        <time>2020-11-13T10:03:47.000Z</time>
      </trkpt>
      <trkpt lat="49.79255" lon="4.83892">
        <ele>221</ele>
        <time>2020-11-13T10:03:48.000Z</time>
      </trkpt>
      <trkpt lat="49.79251" lon="4.839">
        <ele>222</ele>
        <time>2020-11-13T10:03:49.000Z</time>
      </trkpt>
      <trkpt lat="49.79247" lon="4.83909">
        <ele>222</ele>
        <time>2020-11-13T10:03:50.000Z</time>
      </trkpt>
      <trkpt lat="49.79243" lon="4.83917">
        <ele>222</ele>
        <time>2020-11-13T10:03:51.000Z</time>
      </trkpt>
      <trkpt lat="49.79239" lon="4.83926">
        <ele>222</ele>
        <time>2020-11-13T10:03:52.000Z</time>
      </trkpt>
      <trkpt lat="49.79235" lon="4.83934">
        <ele>222</ele>
        <time>2020-11-13T10:03:53.000Z</time>
      </trkpt>
      <trkpt lat="49.79231" lon="4.83942">
        <ele>222</ele>
        <time>2020-11-13T10:03:54.000Z</time>
      </trkpt>
      <trkpt lat="49.79227" lon="4.8395">
        <ele>222</ele>
        <time>2020-11-13T10:03:55.000Z</time>
      </trkpt>
      <trkpt lat="49.79223" lon="4.83959">
        <ele>221</ele>
        <time>2020-11-13T10:03:56.000Z</time>
      </trkpt>
      <trkpt lat="49.79219" lon="4.83967">
        <ele>221</ele>
        <time>2020-11-13T10:03:57.000Z</time>
      </trkpt>
      <trkpt lat="49.79216" lon="4.83975">
        <ele>221</ele>
        <time>2020-11-13T10:03:58.000Z</time>
      </trkpt>
      <trkpt lat="49.79212" lon="4.83983">
        <ele>221</ele>
        <time>2020-11-13T10:03:59.000Z</time>
      </trkpt>
      <trkpt lat="49.79208" lon="4.83991">
        <ele>221</ele>
        <time>2020-11-13T10:04:00.000Z</time>
      </trkpt>
      <trkpt lat="49.79204" lon="4.83999">
        <ele>222</ele>
        <time>2020-11-13T10:04:01.000Z</time>
      </trkpt>
      <trkpt lat="49.79201" lon="4.84007">
        <ele>222</ele>
        <time>2020-11-13T10:04:02.000Z</time>
      </trkpt>
      <trkpt lat="49.79197" lon="4.84015">
        <ele>222</ele>
        <time>2020-11-13T10:04:03.000Z</time>
      </trkpt>
      <trkpt lat="49.79193" lon="4.84023">
        <ele>222</ele>
        <time>2020-11-13T10:04:04.000Z</time>
      </trkpt>
      <trkpt lat="49.79189" lon="4.84031">
        <ele>222</ele>
        <time>2020-11-13T10:04:05.000Z</time>
      </trkpt>
      <trkpt lat="49.79185" lon="4.84039">
        <ele>222</ele>
        <time>2020-11-13T10:04:06.000Z</time>
      </trkpt>
      <trkpt lat="49.79181" lon="4.84047">
        <ele>222</ele>
        <time>2020-11-13T10:04:07.000Z</time>
      </trkpt>
      <trkpt lat="49.79177" lon="4.84055">
        <ele>222</ele>
        <time>2020-11-13T10:04:08.000Z</time>
      </trkpt>
      <trkpt lat="49.79173" lon="4.84063">
        <ele>222</ele>
        <time>2020-11-13T10:04:09.000Z</time>
      </trkpt>
      <trkpt lat="49.79169" lon="4.8407">
        <ele>222</ele>
        <time>2020-11-13T10:04:10.000Z</time>
      </trkpt>
      <trkpt lat="49.79166" lon="4.84079">
        <ele>222</ele>
        <time>2020-11-13T10:04:11.000Z</time>
      </trkpt>
      <trkpt lat="49.79162" lon="4.84086">
        <ele>222</ele>
        <time>2020-11-13T10:04:12.000Z</time>
      </trkpt>
      <trkpt lat="49.79157" lon="4.84093">
        <ele>222</ele>
        <time>2020-11-13T10:04:13.000Z</time>
      </trkpt>
      <trkpt lat="49.79153" lon="4.84101">
        <ele>222</ele>
        <time>2020-11-13T10:04:14.000Z</time>
      </trkpt>
      <trkpt lat="49.79148" lon="4.84107">
        <ele>222</ele>
        <time>2020-11-13T10:04:15.000Z</time>
      </trkpt>
      <trkpt lat="49.79143" lon="4.84114">
        <ele>222</ele>
        <time>2020-11-13T10:04:16.000Z</time>
      </trkpt>
      <trkpt lat="49.79138" lon="4.8412">
        <ele>222</ele>
        <time>2020-11-13T10:04:17.000Z</time>
      </trkpt>
      <trkpt lat="49.79133" lon="4.84127">
        <ele>222</ele>
        <time>2020-11-13T10:04:18.000Z</time>
      </trkpt>
      <trkpt lat="49.79128" lon="4.84133">
        <ele>222</ele>
        <time>2020-11-13T10:04:19.000Z</time>
      </trkpt>
      <trkpt lat="49.79124" lon="4.84139">
        <ele>222</ele>
        <time>2020-11-13T10:04:20.000Z</time>
      </trkpt>
      <trkpt lat="49.7912" lon="4.84144">
        <ele>222</ele>
        <time>2020-11-13T10:04:21.000Z</time>
      </trkpt>
      <trkpt lat="49.79115" lon="4.8415">
        <ele>222</ele>
        <time>2020-11-13T10:04:22.000Z</time>
      </trkpt>
      <trkpt lat="49.79111" lon="4.84155">
        <ele>221</ele>
        <time>2020-11-13T10:04:23.000Z</time>
      </trkpt>
      <trkpt lat="49.79106" lon="4.84161">
        <ele>221</ele>
        <time>2020-11-13T10:04:24.000Z</time>
      </trkpt>
      <trkpt lat="49.791" lon="4.84167">
        <ele>221</ele>
        <time>2020-11-13T10:04:25.000Z</time>
      </trkpt>
      <trkpt lat="49.79096" lon="4.84173">
        <ele>221</ele>
        <time>2020-11-13T10:04:26.000Z</time>
      </trkpt>
      <trkpt lat="49.79091" lon="4.84179">
        <ele>221</ele>
        <time>2020-11-13T10:04:27.000Z</time>
      </trkpt>
      <trkpt lat="49.79086" lon="4.84185">
        <ele>221</ele>
        <time>2020-11-13T10:04:28.000Z</time>
      </trkpt>
      <trkpt lat="49.79082" lon="4.84191">
        <ele>220</ele>
        <time>2020-11-13T10:04:29.000Z</time>
      </trkpt>
      <trkpt lat="49.79077" lon="4.84197">
        <ele>220</ele>
        <time>2020-11-13T10:04:30.000Z</time>
      </trkpt>
      <trkpt lat="49.79073" lon="4.84203">
        <ele>220</ele>
        <time>2020-11-13T10:04:31.000Z</time>
      </trkpt>
      <trkpt lat="49.79068" lon="4.84209">
        <ele>220</ele>
        <time>2020-11-13T10:04:32.000Z</time>
      </trkpt>
      <trkpt lat="49.79062" lon="4.84216">
        <ele>220</ele>
        <time>2020-11-13T10:04:33.000Z</time>
      </trkpt>
      <trkpt lat="49.79057" lon="4.84222">
        <ele>220</ele>
        <time>2020-11-13T10:04:34.000Z</time>
      </trkpt>
      <trkpt lat="49.79052" lon="4.84228">
        <ele>220</ele>
        <time>2020-11-13T10:04:35.000Z</time>
      </trkpt>
      <trkpt lat="49.79046" lon="4.84235">
        <ele>219</ele>
        <time>2020-11-13T10:04:36.000Z</time>
      </trkpt>
      <trkpt lat="49.79041" lon="4.84241">
        <ele>219</ele>
        <time>2020-11-13T10:04:37.000Z</time>
      </trkpt>
      <trkpt lat="49.79037" lon="4.84245">
        <ele>219</ele>
        <time>2020-11-13T10:04:38.000Z</time>
      </trkpt>
      <trkpt lat="49.79032" lon="4.8425">
        <ele>219</ele>
        <time>2020-11-13T10:04:39.000Z</time>
      </trkpt>
      <trkpt lat="49.79027" lon="4.84254">
        <ele>219</ele>
        <time>2020-11-13T10:04:40.000Z</time>
      </trkpt>
      <trkpt lat="49.79022" lon="4.84257">
        <ele>219</ele>
        <time>2020-11-13T10:04:41.000Z</time>
      </trkpt>
      <trkpt lat="49.79016" lon="4.84261">
        <ele>219</ele>
        <time>2020-11-13T10:04:42.000Z</time>
      </trkpt>
      <trkpt lat="49.7901" lon="4.84264">
        <ele>218</ele>
        <time>2020-11-13T10:04:43.000Z</time>
      </trkpt>
      <trkpt lat="49.79004" lon="4.84268">
        <ele>218</ele>
        <time>2020-11-13T10:04:44.000Z</time>
      </trkpt>
      <trkpt lat="49.78997" lon="4.84271">
        <ele>218</ele>
        <time>2020-11-13T10:04:45.000Z</time>
      </trkpt>
      <trkpt lat="49.78991" lon="4.84275">
        <ele>218</ele>
        <time>2020-11-13T10:04:46.000Z</time>
      </trkpt>
      <trkpt lat="49.78984" lon="4.84279">
        <ele>218</ele>
        <time>2020-11-13T10:04:47.000Z</time>
      </trkpt>
      <trkpt lat="49.78977" lon="4.84282">
        <ele>218</ele>
        <time>2020-11-13T10:04:48.000Z</time>
      </trkpt>
      <trkpt lat="49.78971" lon="4.84286">
        <ele>218</ele>
        <time>2020-11-13T10:04:49.000Z</time>
      </trkpt>
      <trkpt lat="49.78965" lon="4.84289">
        <ele>218</ele>
        <time>2020-11-13T10:04:50.000Z</time>
      </trkpt>
      <trkpt lat="49.78958" lon="4.84293">
        <ele>218</ele>
        <time>2020-11-13T10:04:51.000Z</time>
      </trkpt>
      <trkpt lat="49.78952" lon="4.84297">
        <ele>218</ele>
        <time>2020-11-13T10:04:52.000Z</time>
      </trkpt>
      <trkpt lat="49.78946" lon="4.843">
        <ele>217</ele>
        <time>2020-11-13T10:04:53.000Z</time>
      </trkpt>
      <trkpt lat="49.7894" lon="4.84304">
        <ele>217</ele>
        <time>2020-11-13T10:04:54.000Z</time>
      </trkpt>
      <trkpt lat="49.78934" lon="4.84307">
        <ele>217</ele>
        <time>2020-11-13T10:04:55.000Z</time>
      </trkpt>
      <trkpt lat="49.78928" lon="4.8431">
        <ele>216</ele>
        <time>2020-11-13T10:04:56.000Z</time>
      </trkpt>
      <trkpt lat="49.78923" lon="4.84311">
        <ele>216</ele>
        <time>2020-11-13T10:04:57.000Z</time>
      </trkpt>
      <trkpt lat="49.78917" lon="4.84313">
        <ele>216</ele>
        <time>2020-11-13T10:04:58.000Z</time>
      </trkpt>
      <trkpt lat="49.78911" lon="4.84315">
        <ele>215</ele>
        <time>2020-11-13T10:04:59.000Z</time>
      </trkpt>
      <trkpt lat="49.78904" lon="4.84317">
        <ele>215</ele>
        <time>2020-11-13T10:05:00.000Z</time>
      </trkpt>
      <trkpt lat="49.78898" lon="4.84319">
        <ele>214</ele>
        <time>2020-11-13T10:05:01.000Z</time>
      </trkpt>
      <trkpt lat="49.78892" lon="4.84321">
        <ele>214</ele>
        <time>2020-11-13T10:05:02.000Z</time>
      </trkpt>
      <trkpt lat="49.78885" lon="4.84321">
        <ele>214</ele>
        <time>2020-11-13T10:05:03.000Z</time>
      </trkpt>
      <trkpt lat="49.78877" lon="4.84322">
        <ele>213</ele>
        <time>2020-11-13T10:05:04.000Z</time>
      </trkpt>
      <trkpt lat="49.78869" lon="4.84323">
        <ele>213</ele>
        <time>2020-11-13T10:05:05.000Z</time>
      </trkpt>
      <trkpt lat="49.78862" lon="4.84323">
        <ele>213</ele>
        <time>2020-11-13T10:05:06.000Z</time>
      </trkpt>
      <trkpt lat="49.78854" lon="4.84323">
        <ele>212</ele>
        <time>2020-11-13T10:05:07.000Z</time>
      </trkpt>
      <trkpt lat="49.78847" lon="4.84322">
        <ele>212</ele>
        <time>2020-11-13T10:05:08.000Z</time>
      </trkpt>
      <trkpt lat="49.7884" lon="4.84322">
        <ele>212</ele>
        <time>2020-11-13T10:05:09.000Z</time>
      </trkpt>
      <trkpt lat="49.78832" lon="4.84322">
        <ele>211</ele>
        <time>2020-11-13T10:05:10.000Z</time>
      </trkpt>
      <trkpt lat="49.78825" lon="4.84322">
        <ele>211</ele>
        <time>2020-11-13T10:05:11.000Z</time>
      </trkpt>
      <trkpt lat="49.78817" lon="4.84322">
        <ele>211</ele>
        <time>2020-11-13T10:05:12.000Z</time>
      </trkpt>
      <trkpt lat="49.7881" lon="4.84321">
        <ele>211</ele>
        <time>2020-11-13T10:05:13.000Z</time>
      </trkpt>
      <trkpt lat="49.78802" lon="4.84321">
        <ele>210</ele>
        <time>2020-11-13T10:05:14.000Z</time>
      </trkpt>
      <trkpt lat="49.78795" lon="4.8432">
        <ele>210</ele>
        <time>2020-11-13T10:05:15.000Z</time>
      </trkpt>
      <trkpt lat="49.78787" lon="4.8432">
        <ele>210</ele>
        <time>2020-11-13T10:05:16.000Z</time>
      </trkpt>
      <trkpt lat="49.7878" lon="4.84319">
        <ele>209</ele>
        <time>2020-11-13T10:05:17.000Z</time>
      </trkpt>
      <trkpt lat="49.78773" lon="4.84319">
        <ele>209</ele>
        <time>2020-11-13T10:05:18.000Z</time>
      </trkpt>
      <trkpt lat="49.78766" lon="4.84318">
        <ele>209</ele>
        <time>2020-11-13T10:05:19.000Z</time>
      </trkpt>
      <trkpt lat="49.78759" lon="4.84318">
        <ele>208</ele>
        <time>2020-11-13T10:05:20.000Z</time>
      </trkpt>
      <trkpt lat="49.78751" lon="4.84317">
        <ele>208</ele>
        <time>2020-11-13T10:05:21.000Z</time>
      </trkpt>
      <trkpt lat="49.78744" lon="4.84316">
        <ele>208</ele>
        <time>2020-11-13T10:05:22.000Z</time>
      </trkpt>
      <trkpt lat="49.78737" lon="4.84316">
        <ele>207</ele>
        <time>2020-11-13T10:05:23.000Z</time>
      </trkpt>
      <trkpt lat="49.7873" lon="4.84316">
        <ele>207</ele>
        <time>2020-11-13T10:05:24.000Z</time>
      </trkpt>
      <trkpt lat="49.78722" lon="4.84315">
        <ele>207</ele>
        <time>2020-11-13T10:05:25.000Z</time>
      </trkpt>
      <trkpt lat="49.78715" lon="4.84314">
        <ele>207</ele>
        <time>2020-11-13T10:05:26.000Z</time>
      </trkpt>
      <trkpt lat="49.78708" lon="4.84314">
        <ele>206</ele>
        <time>2020-11-13T10:05:27.000Z</time>
      </trkpt>
      <trkpt lat="49.78701" lon="4.84314">
        <ele>206</ele>
        <time>2020-11-13T10:05:28.000Z</time>
      </trkpt>
      <trkpt lat="49.78694" lon="4.84313">
        <ele>206</ele>
        <time>2020-11-13T10:05:29.000Z</time>
      </trkpt>
      <trkpt lat="49.78687" lon="4.84313">
        <ele>205</ele>
        <time>2020-11-13T10:05:30.000Z</time>
      </trkpt>
      <trkpt lat="49.7868" lon="4.84313">
        <ele>205</ele>
        <time>2020-11-13T10:05:31.000Z</time>
      </trkpt>
      <trkpt lat="49.78673" lon="4.84314">
        <ele>205</ele>
        <time>2020-11-13T10:05:32.000Z</time>
      </trkpt>
      <trkpt lat="49.78666" lon="4.84313">
        <ele>204</ele>
        <time>2020-11-13T10:05:33.000Z</time>
      </trkpt>
      <trkpt lat="49.78659" lon="4.84313">
        <ele>204</ele>
        <time>2020-11-13T10:05:34.000Z</time>
      </trkpt>
      <trkpt lat="49.78653" lon="4.84313">
        <ele>204</ele>
        <time>2020-11-13T10:05:35.000Z</time>
      </trkpt>
      <trkpt lat="49.78646" lon="4.84313">
        <ele>203</ele>
        <time>2020-11-13T10:05:36.000Z</time>
      </trkpt>
      <trkpt lat="49.78639" lon="4.84312">
        <ele>203</ele>
        <time>2020-11-13T10:05:37.000Z</time>
      </trkpt>
      <trkpt lat="49.78632" lon="4.84312">
        <ele>203</ele>
        <time>2020-11-13T10:05:38.000Z</time>
      </trkpt>
      <trkpt lat="49.78625" lon="4.84311">
        <ele>202</ele>
        <time>2020-11-13T10:05:39.000Z</time>
      </trkpt>
      <trkpt lat="49.78618" lon="4.84311">
        <ele>202</ele>
        <time>2020-11-13T10:05:40.000Z</time>
      </trkpt>
      <trkpt lat="49.78612" lon="4.8431">
        <ele>202</ele>
        <time>2020-11-13T10:05:41.000Z</time>
      </trkpt>
      <trkpt lat="49.78605" lon="4.8431">
        <ele>202</ele>
        <time>2020-11-13T10:05:42.000Z</time>
      </trkpt>
      <trkpt lat="49.78598" lon="4.84309">
        <ele>201</ele>
        <time>2020-11-13T10:05:43.000Z</time>
      </trkpt>
      <trkpt lat="49.78591" lon="4.84309">
        <ele>201</ele>
        <time>2020-11-13T10:05:44.000Z</time>
      </trkpt>
      <trkpt lat="49.78584" lon="4.84308">
        <ele>201</ele>
        <time>2020-11-13T10:05:45.000Z</time>
      </trkpt>
      <trkpt lat="49.78577" lon="4.84308">
        <ele>201</ele>
        <time>2020-11-13T10:05:46.000Z</time>
      </trkpt>
      <trkpt lat="49.7857" lon="4.84308">
        <ele>201</ele>
        <time>2020-11-13T10:05:47.000Z</time>
      </trkpt>
      <trkpt lat="49.78563" lon="4.84307">
        <ele>200</ele>
        <time>2020-11-13T10:05:48.000Z</time>
      </trkpt>
      <trkpt lat="49.78556" lon="4.84306">
        <ele>200</ele>
        <time>2020-11-13T10:05:49.000Z</time>
      </trkpt>
      <trkpt lat="49.78549" lon="4.84306">
        <ele>200</ele>
        <time>2020-11-13T10:05:50.000Z</time>
      </trkpt>
      <trkpt lat="49.78542" lon="4.84306">
        <ele>199</ele>
        <time>2020-11-13T10:05:51.000Z</time>
      </trkpt>
      <trkpt lat="49.78535" lon="4.84306">
        <ele>199</ele>
        <time>2020-11-13T10:05:52.000Z</time>
      </trkpt>
      <trkpt lat="49.78528" lon="4.84305">
        <ele>199</ele>
        <time>2020-11-13T10:05:53.000Z</time>
      </trkpt>
      <trkpt lat="49.78522" lon="4.84304">
        <ele>198</ele>
        <time>2020-11-13T10:05:54.000Z</time>
      </trkpt>
      <trkpt lat="49.78515" lon="4.84304">
        <ele>198</ele>
        <time>2020-11-13T10:05:55.000Z</time>
      </trkpt>
      <trkpt lat="49.78508" lon="4.84303">
        <ele>198</ele>
        <time>2020-11-13T10:05:56.000Z</time>
      </trkpt>
      <trkpt lat="49.78501" lon="4.84303">
        <ele>197</ele>
        <time>2020-11-13T10:05:57.000Z</time>
      </trkpt>
      <trkpt lat="49.78495" lon="4.84303">
        <ele>197</ele>
        <time>2020-11-13T10:05:58.000Z</time>
      </trkpt>
      <trkpt lat="49.78488" lon="4.84302">
        <ele>197</ele>
        <time>2020-11-13T10:05:59.000Z</time>
      </trkpt>
      <trkpt lat="49.78482" lon="4.84302">
        <ele>197</ele>
        <time>2020-11-13T10:06:00.000Z</time>
      </trkpt>
      <trkpt lat="49.78475" lon="4.84302">
        <ele>196</ele>
        <time>2020-11-13T10:06:01.000Z</time>
      </trkpt>
      <trkpt lat="49.78469" lon="4.84301">
        <ele>196</ele>
        <time>2020-11-13T10:06:02.000Z</time>
      </trkpt>
      <trkpt lat="49.78463" lon="4.84301">
        <ele>196</ele>
        <time>2020-11-13T10:06:03.000Z</time>
      </trkpt>
      <trkpt lat="49.78456" lon="4.84301">
        <ele>196</ele>
        <time>2020-11-13T10:06:04.000Z</time>
      </trkpt>
      <trkpt lat="49.7845" lon="4.84301">
        <ele>196</ele>
        <time>2020-11-13T10:06:05.000Z</time>
      </trkpt>
      <trkpt lat="49.78444" lon="4.84302">
        <ele>196</ele>
        <time>2020-11-13T10:06:06.000Z</time>
      </trkpt>
      <trkpt lat="49.78438" lon="4.84304">
        <ele>196</ele>
        <time>2020-11-13T10:06:07.000Z</time>
      </trkpt>
      <trkpt lat="49.78433" lon="4.84309">
        <ele>196</ele>
        <time>2020-11-13T10:06:08.000Z</time>
      </trkpt>
      <trkpt lat="49.78427" lon="4.84313">
        <ele>196</ele>
        <time>2020-11-13T10:06:09.000Z</time>
      </trkpt>
      <trkpt lat="49.78422" lon="4.84318">
        <ele>196</ele>
        <time>2020-11-13T10:06:10.000Z</time>
      </trkpt>
      <trkpt lat="49.78416" lon="4.84323">
        <ele>196</ele>
        <time>2020-11-13T10:06:11.000Z</time>
      </trkpt>
      <trkpt lat="49.78411" lon="4.84327">
        <ele>196</ele>
        <time>2020-11-13T10:06:12.000Z</time>
      </trkpt>
      <trkpt lat="49.78406" lon="4.84332">
        <ele>196</ele>
        <time>2020-11-13T10:06:13.000Z</time>
      </trkpt>
      <trkpt lat="49.78402" lon="4.84337">
        <ele>196</ele>
        <time>2020-11-13T10:06:14.000Z</time>
      </trkpt>
      <trkpt lat="49.78397" lon="4.84341">
        <ele>196</ele>
        <time>2020-11-13T10:06:15.000Z</time>
      </trkpt>
      <trkpt lat="49.78393" lon="4.84343">
        <ele>196</ele>
        <time>2020-11-13T10:06:16.000Z</time>
      </trkpt>
      <trkpt lat="49.78388" lon="4.84346">
        <ele>196</ele>
        <time>2020-11-13T10:06:17.000Z</time>
      </trkpt>
      <trkpt lat="49.78383" lon="4.84346">
        <ele>196</ele>
        <time>2020-11-13T10:06:18.000Z</time>
      </trkpt>
      <trkpt lat="49.78378" lon="4.84345">
        <ele>196</ele>
        <time>2020-11-13T10:06:19.000Z</time>
      </trkpt>
      <trkpt lat="49.78374" lon="4.84342">
        <ele>196</ele>
        <time>2020-11-13T10:06:20.000Z</time>
      </trkpt>
      <trkpt lat="49.78369" lon="4.8434">
        <ele>196</ele>
        <time>2020-11-13T10:06:21.000Z</time>
      </trkpt>
      <trkpt lat="49.78364" lon="4.84336">
        <ele>196</ele>
        <time>2020-11-13T10:06:22.000Z</time>
      </trkpt>
      <trkpt lat="49.78359" lon="4.84334">
        <ele>196</ele>
        <time>2020-11-13T10:06:23.000Z</time>
      </trkpt>
      <trkpt lat="49.78354" lon="4.84331">
        <ele>195</ele>
        <time>2020-11-13T10:06:24.000Z</time>
      </trkpt>
      <trkpt lat="49.78349" lon="4.84327">
        <ele>195</ele>
        <time>2020-11-13T10:06:25.000Z</time>
      </trkpt>
      <trkpt lat="49.78344" lon="4.84323">
        <ele>195</ele>
        <time>2020-11-13T10:06:26.000Z</time>
      </trkpt>
      <trkpt lat="49.78338" lon="4.8432">
        <ele>195</ele>
        <time>2020-11-13T10:06:27.000Z</time>
      </trkpt>
      <trkpt lat="49.78333" lon="4.84317">
        <ele>195</ele>
        <time>2020-11-13T10:06:28.000Z</time>
      </trkpt>
      <trkpt lat="49.78328" lon="4.84313">
        <ele>195</ele>
        <time>2020-11-13T10:06:29.000Z</time>
      </trkpt>
      <trkpt lat="49.78322" lon="4.8431">
        <ele>195</ele>
        <time>2020-11-13T10:06:30.000Z</time>
      </trkpt>
      <trkpt lat="49.78317" lon="4.84306">
        <ele>195</ele>
        <time>2020-11-13T10:06:31.000Z</time>
      </trkpt>
      <trkpt lat="49.78311" lon="4.84302">
        <ele>195</ele>
        <time>2020-11-13T10:06:32.000Z</time>
      </trkpt>
      <trkpt lat="49.78305" lon="4.84298">
        <ele>194</ele>
        <time>2020-11-13T10:06:33.000Z</time>
      </trkpt>
      <trkpt lat="49.783" lon="4.84295">
        <ele>194</ele>
        <time>2020-11-13T10:06:34.000Z</time>
      </trkpt>
      <trkpt lat="49.78294" lon="4.84291">
        <ele>194</ele>
        <time>2020-11-13T10:06:35.000Z</time>
      </trkpt>
      <trkpt lat="49.78289" lon="4.84288">
        <ele>194</ele>
        <time>2020-11-13T10:06:36.000Z</time>
      </trkpt>
      <trkpt lat="49.78283" lon="4.84284">
        <ele>194</ele>
        <time>2020-11-13T10:06:37.000Z</time>
      </trkpt>
      <trkpt lat="49.78278" lon="4.8428">
        <ele>194</ele>
        <time>2020-11-13T10:06:38.000Z</time>
      </trkpt>
      <trkpt lat="49.78272" lon="4.84276">
        <ele>194</ele>
        <time>2020-11-13T10:06:39.000Z</time>
      </trkpt>
      <trkpt lat="49.78267" lon="4.84271">
        <ele>194</ele>
        <time>2020-11-13T10:06:40.000Z</time>
      </trkpt>
      <trkpt lat="49.78262" lon="4.84265">
        <ele>194</ele>
        <time>2020-11-13T10:06:41.000Z</time>
      </trkpt>
      <trkpt lat="49.78257" lon="4.84259">
        <ele>194</ele>
        <time>2020-11-13T10:06:42.000Z</time>
      </trkpt>
      <trkpt lat="49.78254" lon="4.84252">
        <ele>194</ele>
        <time>2020-11-13T10:06:43.000Z</time>
      </trkpt>
      <trkpt lat="49.7825" lon="4.84247">
        <ele>194</ele>
        <time>2020-11-13T10:06:44.000Z</time>
      </trkpt>
      <trkpt lat="49.78249" lon="4.84243">
        <ele>194</ele>
        <time>2020-11-13T10:06:45.000Z</time>
      </trkpt>
      <trkpt lat="49.78248" lon="4.84238">
        <ele>193</ele>
        <time>2020-11-13T10:06:46.000Z</time>
      </trkpt>
      <trkpt lat="49.78248" lon="4.84234">
        <ele>193</ele>
        <time>2020-11-13T10:06:47.000Z</time>
      </trkpt>
      <trkpt lat="49.78247" lon="4.8423">
        <ele>193</ele>
        <time>2020-11-13T10:06:48.000Z</time>
      </trkpt>
      <trkpt lat="49.78245" lon="4.84226">
        <ele>193</ele>
        <time>2020-11-13T10:06:49.000Z</time>
      </trkpt>
      <trkpt lat="49.78244" lon="4.84222">
        <ele>193</ele>
        <time>2020-11-13T10:06:50.000Z</time>
      </trkpt>
      <trkpt lat="49.78243" lon="4.84217">
        <ele>193</ele>
        <time>2020-11-13T10:06:51.000Z</time>
      </trkpt>
      <trkpt lat="49.78241" lon="4.84213">
        <ele>192</ele>
        <time>2020-11-13T10:06:52.000Z</time>
      </trkpt>
      <trkpt lat="49.7824" lon="4.84209">
        <ele>192</ele>
        <time>2020-11-13T10:06:53.000Z</time>
      </trkpt>
      <trkpt lat="49.78239" lon="4.84205">
        <ele>192</ele>
        <time>2020-11-13T10:06:54.000Z</time>
      </trkpt>
      <trkpt lat="49.78238" lon="4.84201">
        <ele>192</ele>
        <time>2020-11-13T10:06:55.000Z</time>
      </trkpt>
      <trkpt lat="49.78237" lon="4.84198">
        <ele>191</ele>
        <time>2020-11-13T10:06:56.000Z</time>
      </trkpt>
      <trkpt lat="49.78237" lon="4.84195">
        <ele>191</ele>
        <time>2020-11-13T10:06:57.000Z</time>
      </trkpt>
      <trkpt lat="49.78235" lon="4.84192">
        <ele>191</ele>
        <time>2020-11-13T10:06:58.000Z</time>
      </trkpt>
      <trkpt lat="49.78234" lon="4.84188">
        <ele>191</ele>
        <time>2020-11-13T10:06:59.000Z</time>
      </trkpt>
      <trkpt lat="49.78233" lon="4.84185">
        <ele>190</ele>
        <time>2020-11-13T10:07:00.000Z</time>
      </trkpt>
      <trkpt lat="49.78232" lon="4.84182">
        <ele>190</ele>
        <time>2020-11-13T10:07:01.000Z</time>
      </trkpt>
      <trkpt lat="49.78231" lon="4.84179">
        <ele>190</ele>
        <time>2020-11-13T10:07:02.000Z</time>
      </trkpt>
      <trkpt lat="49.78229" lon="4.84175">
        <ele>190</ele>
        <time>2020-11-13T10:07:03.000Z</time>
      </trkpt>
      <trkpt lat="49.78228" lon="4.84172">
        <ele>190</ele>
        <time>2020-11-13T10:07:04.000Z</time>
      </trkpt>
      <trkpt lat="49.78227" lon="4.84169">
        <ele>190</ele>
        <time>2020-11-13T10:07:05.000Z</time>
      </trkpt>
      <trkpt lat="49.78226" lon="4.84166">
        <ele>189</ele>
        <time>2020-11-13T10:07:06.000Z</time>
      </trkpt>
      <trkpt lat="49.78225" lon="4.84162">
        <ele>189</ele>
        <time>2020-11-13T10:07:07.000Z</time>
      </trkpt>
      <trkpt lat="49.78223" lon="4.84159">
        <ele>189</ele>
        <time>2020-11-13T10:07:08.000Z</time>
      </trkpt>
      <trkpt lat="49.78221" lon="4.84155">
        <ele>189</ele>
        <time>2020-11-13T10:07:09.000Z</time>
      </trkpt>
      <trkpt lat="49.7822" lon="4.84152">
        <ele>189</ele>
        <time>2020-11-13T10:07:10.000Z</time>
      </trkpt>
      <trkpt lat="49.78218" lon="4.84149">
        <ele>188</ele>
        <time>2020-11-13T10:07:11.000Z</time>
      </trkpt>
      <trkpt lat="49.78216" lon="4.84146">
        <ele>188</ele>
        <time>2020-11-13T10:07:12.000Z</time>
      </trkpt>
      <trkpt lat="49.78215" lon="4.84143">
        <ele>188</ele>
        <time>2020-11-13T10:07:13.000Z</time>
      </trkpt>
      <trkpt lat="49.78213" lon="4.84141">
        <ele>188</ele>
        <time>2020-11-13T10:07:14.000Z</time>
      </trkpt>
      <trkpt lat="49.78212" lon="4.84139">
        <ele>188</ele>
        <time>2020-11-13T10:07:15.000Z</time>
      </trkpt>
      <trkpt lat="49.7821" lon="4.84137">
        <ele>187</ele>
        <time>2020-11-13T10:07:16.000Z</time>
      </trkpt>
      <trkpt lat="49.78208" lon="4.84134">
        <ele>187</ele>
        <time>2020-11-13T10:07:17.000Z</time>
      </trkpt>
      <trkpt lat="49.78205" lon="4.84132">
        <ele>187</ele>
        <time>2020-11-13T10:07:18.000Z</time>
      </trkpt>
      <trkpt lat="49.78203" lon="4.8413">
        <ele>187</ele>
        <time>2020-11-13T10:07:19.000Z</time>
      </trkpt>
      <trkpt lat="49.78201" lon="4.84128">
        <ele>187</ele>
        <time>2020-11-13T10:07:20.000Z</time>
      </trkpt>
      <trkpt lat="49.78198" lon="4.84125">
        <ele>187</ele>
        <time>2020-11-13T10:07:21.000Z</time>
      </trkpt>
      <trkpt lat="49.78196" lon="4.84122">
        <ele>187</ele>
        <time>2020-11-13T10:07:22.000Z</time>
      </trkpt>
      <trkpt lat="49.78194" lon="4.8412">
        <ele>187</ele>
        <time>2020-11-13T10:07:23.000Z</time>
      </trkpt>
      <trkpt lat="49.78192" lon="4.84118">
        <ele>187</ele>
        <time>2020-11-13T10:07:24.000Z</time>
      </trkpt>
      <trkpt lat="49.78189" lon="4.84116">
        <ele>187</ele>
        <time>2020-11-13T10:07:25.000Z</time>
      </trkpt>
      <trkpt lat="49.78187" lon="4.84115">
        <ele>187</ele>
        <time>2020-11-13T10:07:26.000Z</time>
      </trkpt>
      <trkpt lat="49.78184" lon="4.84114">
        <ele>187</ele>
        <time>2020-11-13T10:07:27.000Z</time>
      </trkpt>
      <trkpt lat="49.78182" lon="4.84112">
        <ele>187</ele>
        <time>2020-11-13T10:07:28.000Z</time>
      </trkpt>
      <trkpt lat="49.7818" lon="4.8411">
        <ele>187</ele>
        <time>2020-11-13T10:07:29.000Z</time>
      </trkpt>
      <trkpt lat="49.78177" lon="4.84109">
        <ele>187</ele>
        <time>2020-11-13T10:07:30.000Z</time>
      </trkpt>
      <trkpt lat="49.78174" lon="4.84107">
        <ele>187</ele>
        <time>2020-11-13T10:07:31.000Z</time>
      </trkpt>
      <trkpt lat="49.78172" lon="4.84105">
        <ele>188</ele>
        <time>2020-11-13T10:07:32.000Z</time>
      </trkpt>
      <trkpt lat="49.7817" lon="4.84103">
        <ele>188</ele>
        <time>2020-11-13T10:07:33.000Z</time>
      </trkpt>
      <trkpt lat="49.78167" lon="4.84101">
        <ele>188</ele>
        <time>2020-11-13T10:07:34.000Z</time>
      </trkpt>
      <trkpt lat="49.78164" lon="4.841">
        <ele>188</ele>
        <time>2020-11-13T10:07:35.000Z</time>
      </trkpt>
      <trkpt lat="49.78162" lon="4.84098">
        <ele>188</ele>
        <time>2020-11-13T10:07:36.000Z</time>
      </trkpt>
      <trkpt lat="49.78159" lon="4.84097">
        <ele>188</ele>
        <time>2020-11-13T10:07:37.000Z</time>
      </trkpt>
      <trkpt lat="49.78156" lon="4.84095">
        <ele>188</ele>
        <time>2020-11-13T10:07:38.000Z</time>
      </trkpt>
      <trkpt lat="49.78152" lon="4.84094">
        <ele>189</ele>
        <time>2020-11-13T10:07:39.000Z</time>
      </trkpt>
      <trkpt lat="49.78149" lon="4.84092">
        <ele>189</ele>
        <time>2020-11-13T10:07:40.000Z</time>
      </trkpt>
      <trkpt lat="49.78146" lon="4.8409">
        <ele>189</ele>
        <time>2020-11-13T10:07:41.000Z</time>
      </trkpt>
      <trkpt lat="49.78143" lon="4.84088">
        <ele>189</ele>
        <time>2020-11-13T10:07:42.000Z</time>
      </trkpt>
      <trkpt lat="49.7814" lon="4.84086">
        <ele>189</ele>
        <time>2020-11-13T10:07:43.000Z</time>
      </trkpt>
      <trkpt lat="49.78137" lon="4.84084">
        <ele>190</ele>
        <time>2020-11-13T10:07:44.000Z</time>
      </trkpt>
      <trkpt lat="49.78134" lon="4.84082">
        <ele>190</ele>
        <time>2020-11-13T10:07:45.000Z</time>
      </trkpt>
      <trkpt lat="49.78131" lon="4.8408">
        <ele>190</ele>
        <time>2020-11-13T10:07:46.000Z</time>
      </trkpt>
      <trkpt lat="49.78128" lon="4.84078">
        <ele>190</ele>
        <time>2020-11-13T10:07:47.000Z</time>
      </trkpt>
      <trkpt lat="49.78125" lon="4.84076">
        <ele>190</ele>
        <time>2020-11-13T10:07:48.000Z</time>
      </trkpt>
      <trkpt lat="49.78122" lon="4.84074">
        <ele>191</ele>
        <time>2020-11-13T10:07:49.000Z</time>
      </trkpt>
      <trkpt lat="49.78119" lon="4.84073">
        <ele>191</ele>
        <time>2020-11-13T10:07:50.000Z</time>
      </trkpt>
      <trkpt lat="49.78116" lon="4.84071">
        <ele>191</ele>
        <time>2020-11-13T10:07:51.000Z</time>
      </trkpt>
      <trkpt lat="49.78113" lon="4.84069">
        <ele>191</ele>
        <time>2020-11-13T10:07:52.000Z</time>
      </trkpt>
      <trkpt lat="49.7811" lon="4.84068">
        <ele>191</ele>
        <time>2020-11-13T10:07:53.000Z</time>
      </trkpt>
      <trkpt lat="49.78107" lon="4.84066">
        <ele>192</ele>
        <time>2020-11-13T10:07:54.000Z</time>
      </trkpt>
      <trkpt lat="49.78104" lon="4.84065">
        <ele>192</ele>
        <time>2020-11-13T10:07:55.000Z</time>
      </trkpt>
      <trkpt lat="49.781" lon="4.84063">
        <ele>192</ele>
        <time>2020-11-13T10:07:56.000Z</time>
      </trkpt>
      <trkpt lat="49.78097" lon="4.84061">
        <ele>192</ele>
        <time>2020-11-13T10:07:57.000Z</time>
      </trkpt>
      <trkpt lat="49.78095" lon="4.8406">
        <ele>192</ele>
        <time>2020-11-13T10:07:58.000Z</time>
      </trkpt>
      <trkpt lat="49.78092" lon="4.84058">
        <ele>192</ele>
        <time>2020-11-13T10:07:59.000Z</time>
      </trkpt>
      <trkpt lat="49.78089" lon="4.84057">
        <ele>192</ele>
        <time>2020-11-13T10:08:00.000Z</time>
      </trkpt>
      <trkpt lat="49.78086" lon="4.84056">
        <ele>192</ele>
        <time>2020-11-13T10:08:01.000Z</time>
      </trkpt>
      <trkpt lat="49.78083" lon="4.84054">
        <ele>192</ele>
        <time>2020-11-13T10:08:02.000Z</time>
      </trkpt>
      <trkpt lat="49.7808" lon="4.84052">
        <ele>193</ele>
        <time>2020-11-13T10:08:03.000Z</time>
      </trkpt>
      <trkpt lat="49.78077" lon="4.84051">
        <ele>193</ele>
        <time>2020-11-13T10:08:04.000Z</time>
      </trkpt>
      <trkpt lat="49.78073" lon="4.84048">
        <ele>193</ele>
        <time>2020-11-13T10:08:05.000Z</time>
      </trkpt>
      <trkpt lat="49.7807" lon="4.84046">
        <ele>193</ele>
        <time>2020-11-13T10:08:06.000Z</time>
      </trkpt>
      <trkpt lat="49.78067" lon="4.84044">
        <ele>193</ele>
        <time>2020-11-13T10:08:07.000Z</time>
      </trkpt>
      <trkpt lat="49.78064" lon="4.84042">
        <ele>193</ele>
        <time>2020-11-13T10:08:08.000Z</time>
      </trkpt>
      <trkpt lat="49.78061" lon="4.8404">
        <ele>194</ele>
        <time>2020-11-13T10:08:09.000Z</time>
      </trkpt>
      <trkpt lat="49.78058" lon="4.84039">
        <ele>194</ele>
        <time>2020-11-13T10:08:10.000Z</time>
      </trkpt>
      <trkpt lat="49.78054" lon="4.84037">
        <ele>194</ele>
        <time>2020-11-13T10:08:11.000Z</time>
      </trkpt>
      <trkpt lat="49.78051" lon="4.84036">
        <ele>194</ele>
        <time>2020-11-13T10:08:12.000Z</time>
      </trkpt>
      <trkpt lat="49.78048" lon="4.84033">
        <ele>194</ele>
        <time>2020-11-13T10:08:13.000Z</time>
      </trkpt>
      <trkpt lat="49.78044" lon="4.84032">
        <ele>195</ele>
        <time>2020-11-13T10:08:14.000Z</time>
      </trkpt>
      <trkpt lat="49.78041" lon="4.8403">
        <ele>195</ele>
        <time>2020-11-13T10:08:15.000Z</time>
      </trkpt>
      <trkpt lat="49.78038" lon="4.84028">
        <ele>195</ele>
        <time>2020-11-13T10:08:16.000Z</time>
      </trkpt>
      <trkpt lat="49.78034" lon="4.84026">
        <ele>195</ele>
        <time>2020-11-13T10:08:17.000Z</time>
      </trkpt>
      <trkpt lat="49.78031" lon="4.84024">
        <ele>195</ele>
        <time>2020-11-13T10:08:18.000Z</time>
      </trkpt>
      <trkpt lat="49.78028" lon="4.84023">
        <ele>195</ele>
        <time>2020-11-13T10:08:19.000Z</time>
      </trkpt>
      <trkpt lat="49.78025" lon="4.8402">
        <ele>195</ele>
        <time>2020-11-13T10:08:20.000Z</time>
      </trkpt>
      <trkpt lat="49.78021" lon="4.84017">
        <ele>196</ele>
        <time>2020-11-13T10:08:21.000Z</time>
      </trkpt>
      <trkpt lat="49.78018" lon="4.84014">
        <ele>196</ele>
        <time>2020-11-13T10:08:22.000Z</time>
      </trkpt>
      <trkpt lat="49.78014" lon="4.84011">
        <ele>196</ele>
        <time>2020-11-13T10:08:23.000Z</time>
      </trkpt>
      <trkpt lat="49.78011" lon="4.84008">
        <ele>196</ele>
        <time>2020-11-13T10:08:24.000Z</time>
      </trkpt>
      <trkpt lat="49.78007" lon="4.84005">
        <ele>196</ele>
        <time>2020-11-13T10:08:25.000Z</time>
      </trkpt>
      <trkpt lat="49.78004" lon="4.84002">
        <ele>196</ele>
        <time>2020-11-13T10:08:26.000Z</time>
      </trkpt>
      <trkpt lat="49.78" lon="4.83998">
        <ele>196</ele>
        <time>2020-11-13T10:08:27.000Z</time>
      </trkpt>
      <trkpt lat="49.77997" lon="4.83994">
        <ele>196</ele>
        <time>2020-11-13T10:08:28.000Z</time>
      </trkpt>
      <trkpt lat="49.77994" lon="4.83991">
        <ele>196</ele>
        <time>2020-11-13T10:08:29.000Z</time>
      </trkpt>
      <trkpt lat="49.77991" lon="4.83987">
        <ele>196</ele>
        <time>2020-11-13T10:08:30.000Z</time>
      </trkpt>
      <trkpt lat="49.77988" lon="4.83983">
        <ele>196</ele>
        <time>2020-11-13T10:08:31.000Z</time>
      </trkpt>
      <trkpt lat="49.77985" lon="4.8398">
        <ele>196</ele>
        <time>2020-11-13T10:08:32.000Z</time>
      </trkpt>
      <trkpt lat="49.77982" lon="4.83977">
        <ele>196</ele>
        <time>2020-11-13T10:08:33.000Z</time>
      </trkpt>
      <trkpt lat="49.77979" lon="4.83973">
        <ele>196</ele>
        <time>2020-11-13T10:08:34.000Z</time>
      </trkpt>
      <trkpt lat="49.77976" lon="4.83969">
        <ele>196</ele>
        <time>2020-11-13T10:08:35.000Z</time>
      </trkpt>
      <trkpt lat="49.77973" lon="4.83966">
        <ele>196</ele>
        <time>2020-11-13T10:08:36.000Z</time>
      </trkpt>
      <trkpt lat="49.7797" lon="4.83962">
        <ele>196</ele>
        <time>2020-11-13T10:08:37.000Z</time>
      </trkpt>
      <trkpt lat="49.77967" lon="4.83958">
        <ele>196</ele>
        <time>2020-11-13T10:08:38.000Z</time>
      </trkpt>
      <trkpt lat="49.77964" lon="4.83955">
        <ele>196</ele>
        <time>2020-11-13T10:08:39.000Z</time>
      </trkpt>
      <trkpt lat="49.77961" lon="4.83951">
        <ele>196</ele>
        <time>2020-11-13T10:08:40.000Z</time>
      </trkpt>
      <trkpt lat="49.77959" lon="4.83947">
        <ele>196</ele>
        <time>2020-11-13T10:08:41.000Z</time>
      </trkpt>
      <trkpt lat="49.77956" lon="4.83943">
        <ele>196</ele>
        <time>2020-11-13T10:08:42.000Z</time>
      </trkpt>
      <trkpt lat="49.77953" lon="4.8394">
        <ele>196</ele>
        <time>2020-11-13T10:08:43.000Z</time>
      </trkpt>
      <trkpt lat="49.7795" lon="4.83936">
        <ele>196</ele>
        <time>2020-11-13T10:08:44.000Z</time>
      </trkpt>
      <trkpt lat="49.77947" lon="4.83933">
        <ele>196</ele>
        <time>2020-11-13T10:08:45.000Z</time>
      </trkpt>
      <trkpt lat="49.77945" lon="4.83929">
        <ele>196</ele>
        <time>2020-11-13T10:08:46.000Z</time>
      </trkpt>
      <trkpt lat="49.77942" lon="4.83926">
        <ele>196</ele>
        <time>2020-11-13T10:08:47.000Z</time>
      </trkpt>
      <trkpt lat="49.7794" lon="4.83922">
        <ele>196</ele>
        <time>2020-11-13T10:08:48.000Z</time>
      </trkpt>
      <trkpt lat="49.77938" lon="4.83918">
        <ele>196</ele>
        <time>2020-11-13T10:08:49.000Z</time>
      </trkpt>
      <trkpt lat="49.77938" lon="4.83913">
        <ele>196</ele>
        <time>2020-11-13T10:08:50.000Z</time>
      </trkpt>
      <trkpt lat="49.7794" lon="4.83909">
        <ele>196</ele>
        <time>2020-11-13T10:08:51.000Z</time>
      </trkpt>
      <trkpt lat="49.77942" lon="4.83904">
        <ele>196</ele>
        <time>2020-11-13T10:08:52.000Z</time>
      </trkpt>
      <trkpt lat="49.77945" lon="4.83899">
        <ele>196</ele>
        <time>2020-11-13T10:08:53.000Z</time>
      </trkpt>
      <trkpt lat="49.77949" lon="4.83894">
        <ele>195</ele>
        <time>2020-11-13T10:08:54.000Z</time>
      </trkpt>
      <trkpt lat="49.77954" lon="4.83889">
        <ele>195</ele>
        <time>2020-11-13T10:08:55.000Z</time>
      </trkpt>
      <trkpt lat="49.7796" lon="4.83883">
        <ele>194</ele>
        <time>2020-11-13T10:08:56.000Z</time>
      </trkpt>
      <trkpt lat="49.77965" lon="4.83878">
        <ele>194</ele>
        <time>2020-11-13T10:08:57.000Z</time>
      </trkpt>
      <trkpt lat="49.77971" lon="4.83872">
        <ele>193</ele>
        <time>2020-11-13T10:08:58.000Z</time>
      </trkpt>
      <trkpt lat="49.77976" lon="4.83866">
        <ele>193</ele>
        <time>2020-11-13T10:08:59.000Z</time>
      </trkpt>
      <trkpt lat="49.7798" lon="4.83862">
        <ele>193</ele>
        <time>2020-11-13T10:09:00.000Z</time>
      </trkpt>
      <trkpt lat="49.77985" lon="4.83857">
        <ele>193</ele>
        <time>2020-11-13T10:09:01.000Z</time>
      </trkpt>
      <trkpt lat="49.77989" lon="4.83853">
        <ele>192</ele>
        <time>2020-11-13T10:09:02.000Z</time>
      </trkpt>
      <trkpt lat="49.77993" lon="4.83849">
        <ele>192</ele>
        <time>2020-11-13T10:09:03.000Z</time>
      </trkpt>
      <trkpt lat="49.77997" lon="4.83847">
        <ele>192</ele>
        <time>2020-11-13T10:09:04.000Z</time>
      </trkpt>
      <trkpt lat="49.78002" lon="4.83846">
        <ele>192</ele>
        <time>2020-11-13T10:09:05.000Z</time>
      </trkpt>
      <trkpt lat="49.78006" lon="4.83845">
        <ele>192</ele>
        <time>2020-11-13T10:09:06.000Z</time>
      </trkpt>
      <trkpt lat="49.78011" lon="4.83845">
        <ele>192</ele>
        <time>2020-11-13T10:09:07.000Z</time>
      </trkpt>
      <trkpt lat="49.78015" lon="4.83846">
        <ele>192</ele>
        <time>2020-11-13T10:09:08.000Z</time>
      </trkpt>
      <trkpt lat="49.78019" lon="4.83846">
        <ele>192</ele>
        <time>2020-11-13T10:09:09.000Z</time>
      </trkpt>
      <trkpt lat="49.78023" lon="4.83845">
        <ele>192</ele>
        <time>2020-11-13T10:09:10.000Z</time>
      </trkpt>
      <trkpt lat="49.78027" lon="4.83845">
        <ele>192</ele>
        <time>2020-11-13T10:09:11.000Z</time>
      </trkpt>
      <trkpt lat="49.78031" lon="4.83845">
        <ele>192</ele>
        <time>2020-11-13T10:09:12.000Z</time>
      </trkpt>
      <trkpt lat="49.78035" lon="4.83846">
        <ele>192</ele>
        <time>2020-11-13T10:09:13.000Z</time>
      </trkpt>
      <trkpt lat="49.7804" lon="4.83846">
        <ele>191</ele>
        <time>2020-11-13T10:09:14.000Z</time>
      </trkpt>
      <trkpt lat="49.78045" lon="4.83846">
        <ele>191</ele>
        <time>2020-11-13T10:09:15.000Z</time>
      </trkpt>
      <trkpt lat="49.78049" lon="4.83846">
        <ele>191</ele>
        <time>2020-11-13T10:09:16.000Z</time>
      </trkpt>
      <trkpt lat="49.78053" lon="4.83846">
        <ele>191</ele>
        <time>2020-11-13T10:09:17.000Z</time>
      </trkpt>
      <trkpt lat="49.78057" lon="4.83846">
        <ele>191</ele>
        <time>2020-11-13T10:09:18.000Z</time>
      </trkpt>
      <trkpt lat="49.78061" lon="4.83847">
        <ele>191</ele>
        <time>2020-11-13T10:09:19.000Z</time>
      </trkpt>
      <trkpt lat="49.78065" lon="4.83847">
        <ele>191</ele>
        <time>2020-11-13T10:09:20.000Z</time>
      </trkpt>
      <trkpt lat="49.78069" lon="4.83847">
        <ele>191</ele>
        <time>2020-11-13T10:09:21.000Z</time>
      </trkpt>
      <trkpt lat="49.78072" lon="4.83848">
        <ele>191</ele>
        <time>2020-11-13T10:09:22.000Z</time>
      </trkpt>
      <trkpt lat="49.78075" lon="4.83848">
        <ele>191</ele>
        <time>2020-11-13T10:09:23.000Z</time>
      </trkpt>
      <trkpt lat="49.78078" lon="4.83847">
        <ele>190</ele>
        <time>2020-11-13T10:09:24.000Z</time>
      </trkpt>
      <trkpt lat="49.78081" lon="4.83848">
        <ele>190</ele>
        <time>2020-11-13T10:09:25.000Z</time>
      </trkpt>
      <trkpt lat="49.78083" lon="4.83847">
        <ele>190</ele>
        <time>2020-11-13T10:09:26.000Z</time>
      </trkpt>
      <trkpt lat="49.78085" lon="4.83847">
        <ele>190</ele>
        <time>2020-11-13T10:09:27.000Z</time>
      </trkpt>
      <trkpt lat="49.78087" lon="4.83847">
        <ele>190</ele>
        <time>2020-11-13T10:09:28.000Z</time>
      </trkpt>
      <trkpt lat="49.78089" lon="4.83847">
        <ele>190</ele>
        <time>2020-11-13T10:09:29.000Z</time>
      </trkpt>
      <trkpt lat="49.78091" lon="4.83847">
        <ele>190</ele>
        <time>2020-11-13T10:09:30.000Z</time>
      </trkpt>
      <trkpt lat="49.78093" lon="4.83847">
        <ele>190</ele>
        <time>2020-11-13T10:09:31.000Z</time>
      </trkpt>
      <trkpt lat="49.78095" lon="4.83847">
        <ele>190</ele>
        <time>2020-11-13T10:09:32.000Z</time>
      </trkpt>
      <trkpt lat="49.78097" lon="4.83847">
        <ele>190</ele>
        <time>2020-11-13T10:09:33.000Z</time>
      </trkpt>
      <trkpt lat="49.78099" lon="4.83846">
        <ele>190</ele>
        <time>2020-11-13T10:09:34.000Z</time>
      </trkpt>
      <trkpt lat="49.78102" lon="4.83846">
        <ele>190</ele>
        <time>2020-11-13T10:09:35.000Z</time>
      </trkpt>
      <trkpt lat="49.78104" lon="4.83847">
        <ele>190</ele>
        <time>2020-11-13T10:09:36.000Z</time>
      </trkpt>
      <trkpt lat="49.78106" lon="4.83847">
        <ele>190</ele>
        <time>2020-11-13T10:09:37.000Z</time>
      </trkpt>
      <trkpt lat="49.78108" lon="4.83847">
        <ele>190</ele>
        <time>2020-11-13T10:09:38.000Z</time>
      </trkpt>
      <trkpt lat="49.7811" lon="4.83847">
        <ele>190</ele>
        <time>2020-11-13T10:09:39.000Z</time>
      </trkpt>
      <trkpt lat="49.78111" lon="4.83848">
        <ele>190</ele>
        <time>2020-11-13T10:09:40.000Z</time>
      </trkpt>
      <trkpt lat="49.78113" lon="4.83848">
        <ele>190</ele>
        <time>2020-11-13T10:09:41.000Z</time>
      </trkpt>
      <trkpt lat="49.78115" lon="4.83848">
        <ele>190</ele>
        <time>2020-11-13T10:09:42.000Z</time>
      </trkpt>
      <trkpt lat="49.78118" lon="4.83847">
        <ele>190</ele>
        <time>2020-11-13T10:09:43.000Z</time>
      </trkpt>
      <trkpt lat="49.7812" lon="4.83847">
        <ele>190</ele>
        <time>2020-11-13T10:09:44.000Z</time>
      </trkpt>
      <trkpt lat="49.78123" lon="4.83847">
        <ele>190</ele>
        <time>2020-11-13T10:09:45.000Z</time>
      </trkpt>
      <trkpt lat="49.78126" lon="4.83847">
        <ele>190</ele>
        <time>2020-11-13T10:09:46.000Z</time>
      </trkpt>
      <trkpt lat="49.78129" lon="4.83847">
        <ele>190</ele>
        <time>2020-11-13T10:09:47.000Z</time>
      </trkpt>
      <trkpt lat="49.78131" lon="4.83847">
        <ele>190</ele>
        <time>2020-11-13T10:09:48.000Z</time>
      </trkpt>
      <trkpt lat="49.78134" lon="4.83847">
        <ele>190</ele>
        <time>2020-11-13T10:09:49.000Z</time>
      </trkpt>
      <trkpt lat="49.78137" lon="4.83846">
        <ele>190</ele>
        <time>2020-11-13T10:09:50.000Z</time>
      </trkpt>
      <trkpt lat="49.7814" lon="4.83846">
        <ele>190</ele>
        <time>2020-11-13T10:09:51.000Z</time>
      </trkpt>
      <trkpt lat="49.78143" lon="4.83846">
        <ele>190</ele>
        <time>2020-11-13T10:09:52.000Z</time>
      </trkpt>
      <trkpt lat="49.78145" lon="4.83846">
        <ele>190</ele>
        <time>2020-11-13T10:09:53.000Z</time>
      </trkpt>
      <trkpt lat="49.78147" lon="4.83845">
        <ele>190</ele>
        <time>2020-11-13T10:09:54.000Z</time>
      </trkpt>
      <trkpt lat="49.7815" lon="4.83845">
        <ele>190</ele>
        <time>2020-11-13T10:09:55.000Z</time>
      </trkpt>
      <trkpt lat="49.78152" lon="4.83844">
        <ele>190</ele>
        <time>2020-11-13T10:09:56.000Z</time>
      </trkpt>
      <trkpt lat="49.78155" lon="4.83844">
        <ele>189</ele>
        <time>2020-11-13T10:09:57.000Z</time>
      </trkpt>
      <trkpt lat="49.78158" lon="4.83842">
        <ele>189</ele>
        <time>2020-11-13T10:09:58.000Z</time>
      </trkpt>
      <trkpt lat="49.7816" lon="4.83841">
        <ele>189</ele>
        <time>2020-11-13T10:09:59.000Z</time>
      </trkpt>
      <trkpt lat="49.78163" lon="4.8384">
        <ele>189</ele>
        <time>2020-11-13T10:10:00.000Z</time>
      </trkpt>
      <trkpt lat="49.78166" lon="4.83838">
        <ele>190</ele>
        <time>2020-11-13T10:10:01.000Z</time>
      </trkpt>
      <trkpt lat="49.7817" lon="4.83836">
        <ele>190</ele>
        <time>2020-11-13T10:10:02.000Z</time>
      </trkpt>
      <trkpt lat="49.78172" lon="4.83833">
        <ele>190</ele>
        <time>2020-11-13T10:10:03.000Z</time>
      </trkpt>
      <trkpt lat="49.78175" lon="4.83831">
        <ele>190</ele>
        <time>2020-11-13T10:10:04.000Z</time>
      </trkpt>
      <trkpt lat="49.78177" lon="4.83829">
        <ele>190</ele>
        <time>2020-11-13T10:10:05.000Z</time>
      </trkpt>
      <trkpt lat="49.7818" lon="4.83827">
        <ele>190</ele>
        <time>2020-11-13T10:10:06.000Z</time>
      </trkpt>
      <trkpt lat="49.78182" lon="4.83824">
        <ele>190</ele>
        <time>2020-11-13T10:10:07.000Z</time>
      </trkpt>
      <trkpt lat="49.78185" lon="4.83822">
        <ele>191</ele>
        <time>2020-11-13T10:10:08.000Z</time>
      </trkpt>
      <trkpt lat="49.78186" lon="4.8382">
        <ele>191</ele>
        <time>2020-11-13T10:10:09.000Z</time>
      </trkpt>
      <trkpt lat="49.78188" lon="4.83818">
        <ele>191</ele>
        <time>2020-11-13T10:10:10.000Z</time>
      </trkpt>
      <trkpt lat="49.7819" lon="4.83816">
        <ele>191</ele>
        <time>2020-11-13T10:10:11.000Z</time>
      </trkpt>
      <trkpt lat="49.78192" lon="4.83814">
        <ele>191</ele>
        <time>2020-11-13T10:10:12.000Z</time>
      </trkpt>
      <trkpt lat="49.78194" lon="4.83812">
        <ele>192</ele>
        <time>2020-11-13T10:10:13.000Z</time>
      </trkpt>
      <trkpt lat="49.78197" lon="4.8381">
        <ele>192</ele>
        <time>2020-11-13T10:10:14.000Z</time>
      </trkpt>
      <trkpt lat="49.78199" lon="4.83808">
        <ele>192</ele>
        <time>2020-11-13T10:10:15.000Z</time>
      </trkpt>
      <trkpt lat="49.78202" lon="4.83807">
        <ele>192</ele>
        <time>2020-11-13T10:10:16.000Z</time>
      </trkpt>
      <trkpt lat="49.78204" lon="4.83805">
        <ele>192</ele>
        <time>2020-11-13T10:10:17.000Z</time>
      </trkpt>
      <trkpt lat="49.78206" lon="4.83803">
        <ele>192</ele>
        <time>2020-11-13T10:10:18.000Z</time>
      </trkpt>
      <trkpt lat="49.78209" lon="4.83801">
        <ele>193</ele>
        <time>2020-11-13T10:10:19.000Z</time>
      </trkpt>
      <trkpt lat="49.78211" lon="4.83799">
        <ele>193</ele>
        <time>2020-11-13T10:10:20.000Z</time>
      </trkpt>
      <trkpt lat="49.78213" lon="4.83798">
        <ele>193</ele>
        <time>2020-11-13T10:10:21.000Z</time>
      </trkpt>
      <trkpt lat="49.78215" lon="4.83797">
        <ele>193</ele>
        <time>2020-11-13T10:10:22.000Z</time>
      </trkpt>
      <trkpt lat="49.78217" lon="4.83795">
        <ele>193</ele>
        <time>2020-11-13T10:10:23.000Z</time>
      </trkpt>
      <trkpt lat="49.78218" lon="4.83792">
        <ele>193</ele>
        <time>2020-11-13T10:10:24.000Z</time>
      </trkpt>
      <trkpt lat="49.78219" lon="4.83789">
        <ele>193</ele>
        <time>2020-11-13T10:10:25.000Z</time>
      </trkpt>
      <trkpt lat="49.78219" lon="4.83786">
        <ele>194</ele>
        <time>2020-11-13T10:10:26.000Z</time>
      </trkpt>
      <trkpt lat="49.78219" lon="4.83783">
        <ele>194</ele>
        <time>2020-11-13T10:10:27.000Z</time>
      </trkpt>
      <trkpt lat="49.78218" lon="4.8378">
        <ele>194</ele>
        <time>2020-11-13T10:10:28.000Z</time>
      </trkpt>
      <trkpt lat="49.78218" lon="4.83777">
        <ele>194</ele>
        <time>2020-11-13T10:10:29.000Z</time>
      </trkpt>
      <trkpt lat="49.78219" lon="4.83774">
        <ele>194</ele>
        <time>2020-11-13T10:10:30.000Z</time>
      </trkpt>
      <trkpt lat="49.7822" lon="4.83772">
        <ele>194</ele>
        <time>2020-11-13T10:10:31.000Z</time>
      </trkpt>
      <trkpt lat="49.78221" lon="4.83769">
        <ele>195</ele>
        <time>2020-11-13T10:10:32.000Z</time>
      </trkpt>
      <trkpt lat="49.78222" lon="4.83765">
        <ele>195</ele>
        <time>2020-11-13T10:10:33.000Z</time>
      </trkpt>
      <trkpt lat="49.78222" lon="4.83761">
        <ele>195</ele>
        <time>2020-11-13T10:10:34.000Z</time>
      </trkpt>
      <trkpt lat="49.78221" lon="4.83758">
        <ele>195</ele>
        <time>2020-11-13T10:10:35.000Z</time>
      </trkpt>
      <trkpt lat="49.78221" lon="4.83754">
        <ele>196</ele>
        <time>2020-11-13T10:10:36.000Z</time>
      </trkpt>
      <trkpt lat="49.7822" lon="4.83751">
        <ele>196</ele>
        <time>2020-11-13T10:10:37.000Z</time>
      </trkpt>
      <trkpt lat="49.78219" lon="4.83747">
        <ele>196</ele>
        <time>2020-11-13T10:10:38.000Z</time>
      </trkpt>
      <trkpt lat="49.7822" lon="4.83743">
        <ele>196</ele>
        <time>2020-11-13T10:10:39.000Z</time>
      </trkpt>
      <trkpt lat="49.78221" lon="4.8374">
        <ele>196</ele>
        <time>2020-11-13T10:10:40.000Z</time>
      </trkpt>
      <trkpt lat="49.78222" lon="4.83736">
        <ele>196</ele>
        <time>2020-11-13T10:10:41.000Z</time>
      </trkpt>
      <trkpt lat="49.78223" lon="4.83732">
        <ele>196</ele>
        <time>2020-11-13T10:10:42.000Z</time>
      </trkpt>
      <trkpt lat="49.78224" lon="4.83729">
        <ele>197</ele>
        <time>2020-11-13T10:10:43.000Z</time>
      </trkpt>
      <trkpt lat="49.78225" lon="4.83725">
        <ele>197</ele>
        <time>2020-11-13T10:10:44.000Z</time>
      </trkpt>
      <trkpt lat="49.78226" lon="4.83722">
        <ele>197</ele>
        <time>2020-11-13T10:10:45.000Z</time>
      </trkpt>
      <trkpt lat="49.78227" lon="4.83718">
        <ele>197</ele>
        <time>2020-11-13T10:10:46.000Z</time>
      </trkpt>
      <trkpt lat="49.78227" lon="4.83715">
        <ele>197</ele>
        <time>2020-11-13T10:10:47.000Z</time>
      </trkpt>
      <trkpt lat="49.78226" lon="4.83711">
        <ele>198</ele>
        <time>2020-11-13T10:10:48.000Z</time>
      </trkpt>
      <trkpt lat="49.78225" lon="4.83708">
        <ele>198</ele>
        <time>2020-11-13T10:10:49.000Z</time>
      </trkpt>
      <trkpt lat="49.78224" lon="4.83705">
        <ele>198</ele>
        <time>2020-11-13T10:10:50.000Z</time>
      </trkpt>
      <trkpt lat="49.78223" lon="4.83701">
        <ele>198</ele>
        <time>2020-11-13T10:10:51.000Z</time>
      </trkpt>
      <trkpt lat="49.78222" lon="4.83699">
        <ele>198</ele>
        <time>2020-11-13T10:10:52.000Z</time>
      </trkpt>
      <trkpt lat="49.78221" lon="4.83696">
        <ele>199</ele>
        <time>2020-11-13T10:10:53.000Z</time>
      </trkpt>
      <trkpt lat="49.78221" lon="4.83694">
        <ele>199</ele>
        <time>2020-11-13T10:10:54.000Z</time>
      </trkpt>
      <trkpt lat="49.7822" lon="4.83691">
        <ele>199</ele>
        <time>2020-11-13T10:10:55.000Z</time>
      </trkpt>
      <trkpt lat="49.78219" lon="4.83688">
        <ele>199</ele>
        <time>2020-11-13T10:10:56.000Z</time>
      </trkpt>
      <trkpt lat="49.78217" lon="4.83685">
        <ele>199</ele>
        <time>2020-11-13T10:10:57.000Z</time>
      </trkpt>
      <trkpt lat="49.78217" lon="4.83683">
        <ele>199</ele>
        <time>2020-11-13T10:10:58.000Z</time>
      </trkpt>
      <trkpt lat="49.78216" lon="4.8368">
        <ele>200</ele>
        <time>2020-11-13T10:10:59.000Z</time>
      </trkpt>
      <trkpt lat="49.78216" lon="4.83678">
        <ele>200</ele>
        <time>2020-11-13T10:11:00.000Z</time>
      </trkpt>
      <trkpt lat="49.78215" lon="4.83675">
        <ele>200</ele>
        <time>2020-11-13T10:11:01.000Z</time>
      </trkpt>
      <trkpt lat="49.78215" lon="4.83671">
        <ele>200</ele>
        <time>2020-11-13T10:11:02.000Z</time>
      </trkpt>
      <trkpt lat="49.78215" lon="4.83667">
        <ele>200</ele>
        <time>2020-11-13T10:11:03.000Z</time>
      </trkpt>
      <trkpt lat="49.78215" lon="4.83663">
        <ele>200</ele>
        <time>2020-11-13T10:11:04.000Z</time>
      </trkpt>
      <trkpt lat="49.78215" lon="4.8366">
        <ele>200</ele>
        <time>2020-11-13T10:11:05.000Z</time>
      </trkpt>
      <trkpt lat="49.78216" lon="4.83657">
        <ele>200</ele>
        <time>2020-11-13T10:11:06.000Z</time>
      </trkpt>
      <trkpt lat="49.78216" lon="4.83654">
        <ele>200</ele>
        <time>2020-11-13T10:11:07.000Z</time>
      </trkpt>
      <trkpt lat="49.78216" lon="4.83651">
        <ele>201</ele>
        <time>2020-11-13T10:11:08.000Z</time>
      </trkpt>
      <trkpt lat="49.78216" lon="4.83648">
        <ele>201</ele>
        <time>2020-11-13T10:11:09.000Z</time>
      </trkpt>
      <trkpt lat="49.78216" lon="4.83644">
        <ele>201</ele>
        <time>2020-11-13T10:11:10.000Z</time>
      </trkpt>
      <trkpt lat="49.78215" lon="4.83641">
        <ele>201</ele>
        <time>2020-11-13T10:11:11.000Z</time>
      </trkpt>
      <trkpt lat="49.78215" lon="4.83638">
        <ele>202</ele>
        <time>2020-11-13T10:11:12.000Z</time>
      </trkpt>
      <trkpt lat="49.78214" lon="4.83634">
        <ele>202</ele>
        <time>2020-11-13T10:11:13.000Z</time>
      </trkpt>
      <trkpt lat="49.78213" lon="4.83632">
        <ele>202</ele>
        <time>2020-11-13T10:11:14.000Z</time>
      </trkpt>
      <trkpt lat="49.78212" lon="4.83629">
        <ele>202</ele>
        <time>2020-11-13T10:11:15.000Z</time>
      </trkpt>
      <trkpt lat="49.78212" lon="4.83627">
        <ele>203</ele>
        <time>2020-11-13T10:11:16.000Z</time>
      </trkpt>
      <trkpt lat="49.7821" lon="4.83625">
        <ele>203</ele>
        <time>2020-11-13T10:11:17.000Z</time>
      </trkpt>
      <trkpt lat="49.78209" lon="4.83622">
        <ele>203</ele>
        <time>2020-11-13T10:11:18.000Z</time>
      </trkpt>
      <trkpt lat="49.78208" lon="4.8362">
        <ele>203</ele>
        <time>2020-11-13T10:11:19.000Z</time>
      </trkpt>
      <trkpt lat="49.78206" lon="4.83617">
        <ele>203</ele>
        <time>2020-11-13T10:11:20.000Z</time>
      </trkpt>
      <trkpt lat="49.78205" lon="4.83614">
        <ele>203</ele>
        <time>2020-11-13T10:11:21.000Z</time>
      </trkpt>
      <trkpt lat="49.78203" lon="4.83612">
        <ele>204</ele>
        <time>2020-11-13T10:11:22.000Z</time>
      </trkpt>
      <trkpt lat="49.78202" lon="4.8361">
        <ele>204</ele>
        <time>2020-11-13T10:11:23.000Z</time>
      </trkpt>
      <trkpt lat="49.78199" lon="4.83609">
        <ele>204</ele>
        <time>2020-11-13T10:11:24.000Z</time>
      </trkpt>
      <trkpt lat="49.78198" lon="4.83608">
        <ele>204</ele>
        <time>2020-11-13T10:11:25.000Z</time>
      </trkpt>
      <trkpt lat="49.78196" lon="4.83607">
        <ele>205</ele>
        <time>2020-11-13T10:11:26.000Z</time>
      </trkpt>
      <trkpt lat="49.78195" lon="4.83604">
        <ele>205</ele>
        <time>2020-11-13T10:11:27.000Z</time>
      </trkpt>
      <trkpt lat="49.78193" lon="4.83601">
        <ele>205</ele>
        <time>2020-11-13T10:11:28.000Z</time>
      </trkpt>
      <trkpt lat="49.78193" lon="4.83597">
        <ele>206</ele>
        <time>2020-11-13T10:11:29.000Z</time>
      </trkpt>
      <trkpt lat="49.78192" lon="4.83593">
        <ele>206</ele>
        <time>2020-11-13T10:11:30.000Z</time>
      </trkpt>
      <trkpt lat="49.78191" lon="4.83589">
        <ele>206</ele>
        <time>2020-11-13T10:11:31.000Z</time>
      </trkpt>
      <trkpt lat="49.7819" lon="4.83586">
        <ele>206</ele>
        <time>2020-11-13T10:11:32.000Z</time>
      </trkpt>
      <trkpt lat="49.78189" lon="4.83583">
        <ele>207</ele>
        <time>2020-11-13T10:11:33.000Z</time>
      </trkpt>
      <trkpt lat="49.78188" lon="4.83581">
        <ele>207</ele>
        <time>2020-11-13T10:11:34.000Z</time>
      </trkpt>
      <trkpt lat="49.78187" lon="4.8358">
        <ele>207</ele>
        <time>2020-11-13T10:11:35.000Z</time>
      </trkpt>
      <trkpt lat="49.78185" lon="4.83578">
        <ele>207</ele>
        <time>2020-11-13T10:11:36.000Z</time>
      </trkpt>
      <trkpt lat="49.78183" lon="4.83576">
        <ele>207</ele>
        <time>2020-11-13T10:11:37.000Z</time>
      </trkpt>
      <trkpt lat="49.78182" lon="4.83574">
        <ele>207</ele>
        <time>2020-11-13T10:11:38.000Z</time>
      </trkpt>
      <trkpt lat="49.7818" lon="4.83573">
        <ele>207</ele>
        <time>2020-11-13T10:11:39.000Z</time>
      </trkpt>
      <trkpt lat="49.78179" lon="4.83571">
        <ele>207</ele>
        <time>2020-11-13T10:11:40.000Z</time>
      </trkpt>
      <trkpt lat="49.78178" lon="4.83569">
        <ele>208</ele>
        <time>2020-11-13T10:11:41.000Z</time>
      </trkpt>
      <trkpt lat="49.78176" lon="4.83567">
        <ele>208</ele>
        <time>2020-11-13T10:11:42.000Z</time>
      </trkpt>
      <trkpt lat="49.78175" lon="4.83564">
        <ele>208</ele>
        <time>2020-11-13T10:11:43.000Z</time>
      </trkpt>
      <trkpt lat="49.78173" lon="4.83561">
        <ele>208</ele>
        <time>2020-11-13T10:11:44.000Z</time>
      </trkpt>
      <trkpt lat="49.78171" lon="4.83559">
        <ele>208</ele>
        <time>2020-11-13T10:11:45.000Z</time>
      </trkpt>
      <trkpt lat="49.7817" lon="4.83556">
        <ele>208</ele>
        <time>2020-11-13T10:11:46.000Z</time>
      </trkpt>
      <trkpt lat="49.78167" lon="4.83553">
        <ele>208</ele>
        <time>2020-11-13T10:11:47.000Z</time>
      </trkpt>
      <trkpt lat="49.78166" lon="4.8355">
        <ele>208</ele>
        <time>2020-11-13T10:11:48.000Z</time>
      </trkpt>
      <trkpt lat="49.78164" lon="4.83547">
        <ele>208</ele>
        <time>2020-11-13T10:11:49.000Z</time>
      </trkpt>
      <trkpt lat="49.78163" lon="4.83544">
        <ele>208</ele>
        <time>2020-11-13T10:11:50.000Z</time>
      </trkpt>
      <trkpt lat="49.78163" lon="4.83541">
        <ele>208</ele>
        <time>2020-11-13T10:11:51.000Z</time>
      </trkpt>
      <trkpt lat="49.78161" lon="4.83537">
        <ele>208</ele>
        <time>2020-11-13T10:11:52.000Z</time>
      </trkpt>
      <trkpt lat="49.7816" lon="4.83534">
        <ele>208</ele>
        <time>2020-11-13T10:11:53.000Z</time>
      </trkpt>
      <trkpt lat="49.7816" lon="4.83531">
        <ele>208</ele>
        <time>2020-11-13T10:11:54.000Z</time>
      </trkpt>
      <trkpt lat="49.78159" lon="4.83528">
        <ele>208</ele>
        <time>2020-11-13T10:11:55.000Z</time>
      </trkpt>
      <trkpt lat="49.78158" lon="4.83524">
        <ele>208</ele>
        <time>2020-11-13T10:11:56.000Z</time>
      </trkpt>
      <trkpt lat="49.78158" lon="4.8352">
        <ele>208</ele>
        <time>2020-11-13T10:11:57.000Z</time>
      </trkpt>
      <trkpt lat="49.78158" lon="4.83517">
        <ele>208</ele>
        <time>2020-11-13T10:11:58.000Z</time>
      </trkpt>
      <trkpt lat="49.78157" lon="4.83514">
        <ele>208</ele>
        <time>2020-11-13T10:11:59.000Z</time>
      </trkpt>
      <trkpt lat="49.78157" lon="4.8351">
        <ele>208</ele>
        <time>2020-11-13T10:12:00.000Z</time>
      </trkpt>
      <trkpt lat="49.78158" lon="4.83507">
        <ele>207</ele>
        <time>2020-11-13T10:12:01.000Z</time>
      </trkpt>
      <trkpt lat="49.78158" lon="4.83504">
        <ele>207</ele>
        <time>2020-11-13T10:12:02.000Z</time>
      </trkpt>
      <trkpt lat="49.78159" lon="4.83501">
        <ele>207</ele>
        <time>2020-11-13T10:12:03.000Z</time>
      </trkpt>
      <trkpt lat="49.7816" lon="4.83498">
        <ele>207</ele>
        <time>2020-11-13T10:12:04.000Z</time>
      </trkpt>
      <trkpt lat="49.7816" lon="4.83494">
        <ele>207</ele>
        <time>2020-11-13T10:12:05.000Z</time>
      </trkpt>
      <trkpt lat="49.7816" lon="4.83491">
        <ele>207</ele>
        <time>2020-11-13T10:12:06.000Z</time>
      </trkpt>
      <trkpt lat="49.7816" lon="4.83487">
        <ele>207</ele>
        <time>2020-11-13T10:12:07.000Z</time>
      </trkpt>
      <trkpt lat="49.7816" lon="4.83483">
        <ele>208</ele>
        <time>2020-11-13T10:12:08.000Z</time>
      </trkpt>
      <trkpt lat="49.7816" lon="4.83479">
        <ele>208</ele>
        <time>2020-11-13T10:12:09.000Z</time>
      </trkpt>
      <trkpt lat="49.7816" lon="4.83476">
        <ele>207</ele>
        <time>2020-11-13T10:12:10.000Z</time>
      </trkpt>
      <trkpt lat="49.78159" lon="4.83472">
        <ele>207</ele>
        <time>2020-11-13T10:12:11.000Z</time>
      </trkpt>
      <trkpt lat="49.78159" lon="4.83468">
        <ele>207</ele>
        <time>2020-11-13T10:12:12.000Z</time>
      </trkpt>
      <trkpt lat="49.78158" lon="4.83464">
        <ele>207</ele>
        <time>2020-11-13T10:12:13.000Z</time>
      </trkpt>
      <trkpt lat="49.78158" lon="4.83461">
        <ele>208</ele>
        <time>2020-11-13T10:12:14.000Z</time>
      </trkpt>
      <trkpt lat="49.78157" lon="4.83457">
        <ele>208</ele>
        <time>2020-11-13T10:12:15.000Z</time>
      </trkpt>
      <trkpt lat="49.78157" lon="4.83452">
        <ele>208</ele>
        <time>2020-11-13T10:12:16.000Z</time>
      </trkpt>
      <trkpt lat="49.78157" lon="4.83448">
        <ele>208</ele>
        <time>2020-11-13T10:12:17.000Z</time>
      </trkpt>
      <trkpt lat="49.78157" lon="4.83444">
        <ele>208</ele>
        <time>2020-11-13T10:12:18.000Z</time>
      </trkpt>
      <trkpt lat="49.78156" lon="4.8344">
        <ele>208</ele>
        <time>2020-11-13T10:12:19.000Z</time>
      </trkpt>
      <trkpt lat="49.78156" lon="4.83437">
        <ele>208</ele>
        <time>2020-11-13T10:12:20.000Z</time>
      </trkpt>
      <trkpt lat="49.78155" lon="4.83433">
        <ele>209</ele>
        <time>2020-11-13T10:12:21.000Z</time>
      </trkpt>
      <trkpt lat="49.78155" lon="4.83429">
        <ele>209</ele>
        <time>2020-11-13T10:12:22.000Z</time>
      </trkpt>
      <trkpt lat="49.78155" lon="4.83424">
        <ele>209</ele>
        <time>2020-11-13T10:12:23.000Z</time>
      </trkpt>
      <trkpt lat="49.78155" lon="4.83421">
        <ele>209</ele>
        <time>2020-11-13T10:12:24.000Z</time>
      </trkpt>
      <trkpt lat="49.78155" lon="4.83417">
        <ele>210</ele>
        <time>2020-11-13T10:12:25.000Z</time>
      </trkpt>
      <trkpt lat="49.78154" lon="4.83413">
        <ele>210</ele>
        <time>2020-11-13T10:12:26.000Z</time>
      </trkpt>
      <trkpt lat="49.78154" lon="4.83409">
        <ele>210</ele>
        <time>2020-11-13T10:12:27.000Z</time>
      </trkpt>
      <trkpt lat="49.78154" lon="4.83406">
        <ele>210</ele>
        <time>2020-11-13T10:12:28.000Z</time>
      </trkpt>
      <trkpt lat="49.78153" lon="4.83402">
        <ele>211</ele>
        <time>2020-11-13T10:12:29.000Z</time>
      </trkpt>
      <trkpt lat="49.78153" lon="4.83398">
        <ele>211</ele>
        <time>2020-11-13T10:12:30.000Z</time>
      </trkpt>
      <trkpt lat="49.78153" lon="4.83394">
        <ele>211</ele>
        <time>2020-11-13T10:12:31.000Z</time>
      </trkpt>
      <trkpt lat="49.78153" lon="4.8339">
        <ele>212</ele>
        <time>2020-11-13T10:12:32.000Z</time>
      </trkpt>
      <trkpt lat="49.78153" lon="4.83386">
        <ele>212</ele>
        <time>2020-11-13T10:12:33.000Z</time>
      </trkpt>
      <trkpt lat="49.78152" lon="4.83383">
        <ele>212</ele>
        <time>2020-11-13T10:12:34.000Z</time>
      </trkpt>
      <trkpt lat="49.78152" lon="4.8338">
        <ele>212</ele>
        <time>2020-11-13T10:12:35.000Z</time>
      </trkpt>
      <trkpt lat="49.78151" lon="4.83378">
        <ele>212</ele>
        <time>2020-11-13T10:12:36.000Z</time>
      </trkpt>
      <trkpt lat="49.7815" lon="4.83376">
        <ele>212</ele>
        <time>2020-11-13T10:12:37.000Z</time>
      </trkpt>
      <trkpt lat="49.78149" lon="4.83374">
        <ele>213</ele>
        <time>2020-11-13T10:12:38.000Z</time>
      </trkpt>
      <trkpt lat="49.78148" lon="4.83372">
        <ele>213</ele>
        <time>2020-11-13T10:12:39.000Z</time>
      </trkpt>
      <trkpt lat="49.78147" lon="4.8337">
        <ele>213</ele>
        <time>2020-11-13T10:12:40.000Z</time>
      </trkpt>
      <trkpt lat="49.78146" lon="4.83367">
        <ele>213</ele>
        <time>2020-11-13T10:12:41.000Z</time>
      </trkpt>
      <trkpt lat="49.78145" lon="4.83365">
        <ele>213</ele>
        <time>2020-11-13T10:12:42.000Z</time>
      </trkpt>
      <trkpt lat="49.78144" lon="4.83362">
        <ele>213</ele>
        <time>2020-11-13T10:12:43.000Z</time>
      </trkpt>
      <trkpt lat="49.78143" lon="4.83359">
        <ele>213</ele>
        <time>2020-11-13T10:12:44.000Z</time>
      </trkpt>
      <trkpt lat="49.78142" lon="4.83356">
        <ele>213</ele>
        <time>2020-11-13T10:12:45.000Z</time>
      </trkpt>
      <trkpt lat="49.78141" lon="4.83353">
        <ele>213</ele>
        <time>2020-11-13T10:12:46.000Z</time>
      </trkpt>
      <trkpt lat="49.78139" lon="4.8335">
        <ele>213</ele>
        <time>2020-11-13T10:12:47.000Z</time>
      </trkpt>
      <trkpt lat="49.78138" lon="4.83347">
        <ele>213</ele>
        <time>2020-11-13T10:12:48.000Z</time>
      </trkpt>
      <trkpt lat="49.78137" lon="4.83344">
        <ele>214</ele>
        <time>2020-11-13T10:12:49.000Z</time>
      </trkpt>
      <trkpt lat="49.78135" lon="4.83342">
        <ele>214</ele>
        <time>2020-11-13T10:12:50.000Z</time>
      </trkpt>
      <trkpt lat="49.78134" lon="4.83339">
        <ele>214</ele>
        <time>2020-11-13T10:12:51.000Z</time>
      </trkpt>
      <trkpt lat="49.78133" lon="4.83336">
        <ele>214</ele>
        <time>2020-11-13T10:12:52.000Z</time>
      </trkpt>
      <trkpt lat="49.78131" lon="4.83333">
        <ele>214</ele>
        <time>2020-11-13T10:12:53.000Z</time>
      </trkpt>
      <trkpt lat="49.7813" lon="4.8333">
        <ele>214</ele>
        <time>2020-11-13T10:12:54.000Z</time>
      </trkpt>
      <trkpt lat="49.78129" lon="4.83328">
        <ele>215</ele>
        <time>2020-11-13T10:12:55.000Z</time>
      </trkpt>
      <trkpt lat="49.78128" lon="4.83325">
        <ele>215</ele>
        <time>2020-11-13T10:12:56.000Z</time>
      </trkpt>
      <trkpt lat="49.78126" lon="4.83322">
        <ele>215</ele>
        <time>2020-11-13T10:12:57.000Z</time>
      </trkpt>
      <trkpt lat="49.78125" lon="4.83319">
        <ele>215</ele>
        <time>2020-11-13T10:12:58.000Z</time>
      </trkpt>
      <trkpt lat="49.78123" lon="4.83316">
        <ele>215</ele>
        <time>2020-11-13T10:12:59.000Z</time>
      </trkpt>
      <trkpt lat="49.78122" lon="4.83313">
        <ele>215</ele>
        <time>2020-11-13T10:13:00.000Z</time>
      </trkpt>
      <trkpt lat="49.78121" lon="4.83311">
        <ele>216</ele>
        <time>2020-11-13T10:13:01.000Z</time>
      </trkpt>
      <trkpt lat="49.7812" lon="4.83307">
        <ele>216</ele>
        <time>2020-11-13T10:13:02.000Z</time>
      </trkpt>
      <trkpt lat="49.78118" lon="4.83304">
        <ele>216</ele>
        <time>2020-11-13T10:13:03.000Z</time>
      </trkpt>
      <trkpt lat="49.78117" lon="4.83301">
        <ele>216</ele>
        <time>2020-11-13T10:13:04.000Z</time>
      </trkpt>
      <trkpt lat="49.78116" lon="4.83299">
        <ele>216</ele>
        <time>2020-11-13T10:13:05.000Z</time>
      </trkpt>
      <trkpt lat="49.78114" lon="4.83296">
        <ele>216</ele>
        <time>2020-11-13T10:13:06.000Z</time>
      </trkpt>
      <trkpt lat="49.78113" lon="4.83293">
        <ele>216</ele>
        <time>2020-11-13T10:13:07.000Z</time>
      </trkpt>
      <trkpt lat="49.78112" lon="4.8329">
        <ele>217</ele>
        <time>2020-11-13T10:13:08.000Z</time>
      </trkpt>
      <trkpt lat="49.78111" lon="4.83287">
        <ele>217</ele>
        <time>2020-11-13T10:13:09.000Z</time>
      </trkpt>
      <trkpt lat="49.7811" lon="4.83284">
        <ele>217</ele>
        <time>2020-11-13T10:13:10.000Z</time>
      </trkpt>
      <trkpt lat="49.78109" lon="4.83281">
        <ele>217</ele>
        <time>2020-11-13T10:13:11.000Z</time>
      </trkpt>
      <trkpt lat="49.78108" lon="4.83279">
        <ele>217</ele>
        <time>2020-11-13T10:13:12.000Z</time>
      </trkpt>
      <trkpt lat="49.78106" lon="4.83276">
        <ele>218</ele>
        <time>2020-11-13T10:13:13.000Z</time>
      </trkpt>
      <trkpt lat="49.78105" lon="4.83274">
        <ele>218</ele>
        <time>2020-11-13T10:13:14.000Z</time>
      </trkpt>
      <trkpt lat="49.78104" lon="4.83271">
        <ele>218</ele>
        <time>2020-11-13T10:13:15.000Z</time>
      </trkpt>
      <trkpt lat="49.78103" lon="4.83269">
        <ele>218</ele>
        <time>2020-11-13T10:13:16.000Z</time>
      </trkpt>
      <trkpt lat="49.78101" lon="4.83266">
        <ele>218</ele>
        <time>2020-11-13T10:13:17.000Z</time>
      </trkpt>
      <trkpt lat="49.781" lon="4.83264">
        <ele>218</ele>
        <time>2020-11-13T10:13:18.000Z</time>
      </trkpt>
      <trkpt lat="49.78099" lon="4.83262">
        <ele>219</ele>
        <time>2020-11-13T10:13:19.000Z</time>
      </trkpt>
      <trkpt lat="49.78098" lon="4.8326">
        <ele>219</ele>
        <time>2020-11-13T10:13:20.000Z</time>
      </trkpt>
      <trkpt lat="49.78097" lon="4.83258">
        <ele>219</ele>
        <time>2020-11-13T10:13:21.000Z</time>
      </trkpt>
      <trkpt lat="49.78096" lon="4.83257">
        <ele>219</ele>
        <time>2020-11-13T10:13:22.000Z</time>
      </trkpt>
      <trkpt lat="49.78095" lon="4.83254">
        <ele>219</ele>
        <time>2020-11-13T10:13:23.000Z</time>
      </trkpt>
      <trkpt lat="49.78095" lon="4.83252">
        <ele>219</ele>
        <time>2020-11-13T10:13:24.000Z</time>
      </trkpt>
      <trkpt lat="49.78094" lon="4.8325">
        <ele>220</ele>
        <time>2020-11-13T10:13:25.000Z</time>
      </trkpt>
      <trkpt lat="49.78093" lon="4.83248">
        <ele>220</ele>
        <time>2020-11-13T10:13:26.000Z</time>
      </trkpt>
      <trkpt lat="49.78092" lon="4.83246">
        <ele>220</ele>
        <time>2020-11-13T10:13:27.000Z</time>
      </trkpt>
      <trkpt lat="49.78091" lon="4.83244">
        <ele>220</ele>
        <time>2020-11-13T10:13:28.000Z</time>
      </trkpt>
      <trkpt lat="49.7809" lon="4.83241">
        <ele>220</ele>
        <time>2020-11-13T10:13:29.000Z</time>
      </trkpt>
      <trkpt lat="49.78089" lon="4.83238">
        <ele>220</ele>
        <time>2020-11-13T10:13:30.000Z</time>
      </trkpt>
      <trkpt lat="49.78088" lon="4.83236">
        <ele>220</ele>
        <time>2020-11-13T10:13:31.000Z</time>
      </trkpt>
      <trkpt lat="49.78087" lon="4.83233">
        <ele>221</ele>
        <time>2020-11-13T10:13:32.000Z</time>
      </trkpt>
      <trkpt lat="49.78086" lon="4.83231">
        <ele>221</ele>
        <time>2020-11-13T10:13:33.000Z</time>
      </trkpt>
      <trkpt lat="49.78085" lon="4.83229">
        <ele>221</ele>
        <time>2020-11-13T10:13:34.000Z</time>
      </trkpt>
      <trkpt lat="49.78084" lon="4.83226">
        <ele>221</ele>
        <time>2020-11-13T10:13:35.000Z</time>
      </trkpt>
      <trkpt lat="49.78083" lon="4.83224">
        <ele>221</ele>
        <time>2020-11-13T10:13:36.000Z</time>
      </trkpt>
      <trkpt lat="49.78082" lon="4.83221">
        <ele>221</ele>
        <time>2020-11-13T10:13:37.000Z</time>
      </trkpt>
      <trkpt lat="49.78081" lon="4.83218">
        <ele>222</ele>
        <time>2020-11-13T10:13:38.000Z</time>
      </trkpt>
      <trkpt lat="49.7808" lon="4.83215">
        <ele>222</ele>
        <time>2020-11-13T10:13:39.000Z</time>
      </trkpt>
      <trkpt lat="49.7808" lon="4.83213">
        <ele>222</ele>
        <time>2020-11-13T10:13:40.000Z</time>
      </trkpt>
      <trkpt lat="49.7808" lon="4.8321">
        <ele>222</ele>
        <time>2020-11-13T10:13:41.000Z</time>
      </trkpt>
      <trkpt lat="49.78081" lon="4.83208">
        <ele>222</ele>
        <time>2020-11-13T10:13:42.000Z</time>
      </trkpt>
      <trkpt lat="49.78082" lon="4.83207">
        <ele>222</ele>
        <time>2020-11-13T10:13:43.000Z</time>
      </trkpt>
      <trkpt lat="49.78084" lon="4.83206">
        <ele>223</ele>
        <time>2020-11-13T10:13:44.000Z</time>
      </trkpt>
      <trkpt lat="49.78086" lon="4.83205">
        <ele>223</ele>
        <time>2020-11-13T10:13:45.000Z</time>
      </trkpt>
      <trkpt lat="49.78089" lon="4.83204">
        <ele>223</ele>
        <time>2020-11-13T10:13:46.000Z</time>
      </trkpt>
      <trkpt lat="49.78092" lon="4.83204">
        <ele>223</ele>
        <time>2020-11-13T10:13:47.000Z</time>
      </trkpt>
      <trkpt lat="49.78095" lon="4.83204">
        <ele>223</ele>
        <time>2020-11-13T10:13:48.000Z</time>
      </trkpt>
      <trkpt lat="49.78099" lon="4.83204">
        <ele>223</ele>
        <time>2020-11-13T10:13:49.000Z</time>
      </trkpt>
      <trkpt lat="49.78103" lon="4.83203">
        <ele>224</ele>
        <time>2020-11-13T10:13:50.000Z</time>
      </trkpt>
      <trkpt lat="49.78108" lon="4.83203">
        <ele>224</ele>
        <time>2020-11-13T10:13:51.000Z</time>
      </trkpt>
      <trkpt lat="49.78112" lon="4.83202">
        <ele>224</ele>
        <time>2020-11-13T10:13:52.000Z</time>
      </trkpt>
      <trkpt lat="49.78117" lon="4.83201">
        <ele>224</ele>
        <time>2020-11-13T10:13:53.000Z</time>
      </trkpt>
      <trkpt lat="49.78122" lon="4.832">
        <ele>224</ele>
        <time>2020-11-13T10:13:54.000Z</time>
      </trkpt>
      <trkpt lat="49.78127" lon="4.83199">
        <ele>224</ele>
        <time>2020-11-13T10:13:55.000Z</time>
      </trkpt>
      <trkpt lat="49.78132" lon="4.83198">
        <ele>225</ele>
        <time>2020-11-13T10:13:56.000Z</time>
      </trkpt>
      <trkpt lat="49.78136" lon="4.83197">
        <ele>225</ele>
        <time>2020-11-13T10:13:57.000Z</time>
      </trkpt>
      <trkpt lat="49.78139" lon="4.83195">
        <ele>225</ele>
        <time>2020-11-13T10:13:58.000Z</time>
      </trkpt>
      <trkpt lat="49.78142" lon="4.83191">
        <ele>225</ele>
        <time>2020-11-13T10:13:59.000Z</time>
      </trkpt>
      <trkpt lat="49.78144" lon="4.83187">
        <ele>225</ele>
        <time>2020-11-13T10:14:00.000Z</time>
      </trkpt>
      <trkpt lat="49.78146" lon="4.83183">
        <ele>225</ele>
        <time>2020-11-13T10:14:01.000Z</time>
      </trkpt>
      <trkpt lat="49.78147" lon="4.83179">
        <ele>226</ele>
        <time>2020-11-13T10:14:02.000Z</time>
      </trkpt>
      <trkpt lat="49.78148" lon="4.83175">
        <ele>226</ele>
        <time>2020-11-13T10:14:03.000Z</time>
      </trkpt>
      <trkpt lat="49.78148" lon="4.83172">
        <ele>226</ele>
        <time>2020-11-13T10:14:04.000Z</time>
      </trkpt>
      <trkpt lat="49.78149" lon="4.83168">
        <ele>226</ele>
        <time>2020-11-13T10:14:05.000Z</time>
      </trkpt>
      <trkpt lat="49.78149" lon="4.83164">
        <ele>226</ele>
        <time>2020-11-13T10:14:06.000Z</time>
      </trkpt>
      <trkpt lat="49.7815" lon="4.8316">
        <ele>226</ele>
        <time>2020-11-13T10:14:07.000Z</time>
      </trkpt>
      <trkpt lat="49.78151" lon="4.83157">
        <ele>227</ele>
        <time>2020-11-13T10:14:08.000Z</time>
      </trkpt>
      <trkpt lat="49.78151" lon="4.83153">
        <ele>227</ele>
        <time>2020-11-13T10:14:09.000Z</time>
      </trkpt>
      <trkpt lat="49.78152" lon="4.8315">
        <ele>227</ele>
        <time>2020-11-13T10:14:10.000Z</time>
      </trkpt>
      <trkpt lat="49.78152" lon="4.83146">
        <ele>227</ele>
        <time>2020-11-13T10:14:11.000Z</time>
      </trkpt>
      <trkpt lat="49.78152" lon="4.83142">
        <ele>227</ele>
        <time>2020-11-13T10:14:12.000Z</time>
      </trkpt>
      <trkpt lat="49.78152" lon="4.83139">
        <ele>227</ele>
        <time>2020-11-13T10:14:13.000Z</time>
      </trkpt>
      <trkpt lat="49.78153" lon="4.83136">
        <ele>228</ele>
        <time>2020-11-13T10:14:14.000Z</time>
      </trkpt>
      <trkpt lat="49.78152" lon="4.83133">
        <ele>228</ele>
        <time>2020-11-13T10:14:15.000Z</time>
      </trkpt>
      <trkpt lat="49.78153" lon="4.83129">
        <ele>228</ele>
        <time>2020-11-13T10:14:16.000Z</time>
      </trkpt>
      <trkpt lat="49.78153" lon="4.83126">
        <ele>228</ele>
        <time>2020-11-13T10:14:17.000Z</time>
      </trkpt>
      <trkpt lat="49.78153" lon="4.83123">
        <ele>228</ele>
        <time>2020-11-13T10:14:18.000Z</time>
      </trkpt>
      <trkpt lat="49.78153" lon="4.8312">
        <ele>229</ele>
        <time>2020-11-13T10:14:19.000Z</time>
      </trkpt>
      <trkpt lat="49.78154" lon="4.83116">
        <ele>229</ele>
        <time>2020-11-13T10:14:20.000Z</time>
      </trkpt>
      <trkpt lat="49.78153" lon="4.83113">
        <ele>229</ele>
        <time>2020-11-13T10:14:21.000Z</time>
      </trkpt>
      <trkpt lat="49.78153" lon="4.8311">
        <ele>229</ele>
        <time>2020-11-13T10:14:22.000Z</time>
      </trkpt>
      <trkpt lat="49.78153" lon="4.83106">
        <ele>229</ele>
        <time>2020-11-13T10:14:23.000Z</time>
      </trkpt>
      <trkpt lat="49.78154" lon="4.83103">
        <ele>229</ele>
        <time>2020-11-13T10:14:24.000Z</time>
      </trkpt>
      <trkpt lat="49.78155" lon="4.831">
        <ele>230</ele>
        <time>2020-11-13T10:14:25.000Z</time>
      </trkpt>
      <trkpt lat="49.78155" lon="4.83097">
        <ele>230</ele>
        <time>2020-11-13T10:14:26.000Z</time>
      </trkpt>
      <trkpt lat="49.78156" lon="4.83094">
        <ele>230</ele>
        <time>2020-11-13T10:14:27.000Z</time>
      </trkpt>
      <trkpt lat="49.78156" lon="4.83091">
        <ele>230</ele>
        <time>2020-11-13T10:14:28.000Z</time>
      </trkpt>
      <trkpt lat="49.78157" lon="4.83088">
        <ele>230</ele>
        <time>2020-11-13T10:14:29.000Z</time>
      </trkpt>
      <trkpt lat="49.78158" lon="4.83085">
        <ele>230</ele>
        <time>2020-11-13T10:14:30.000Z</time>
      </trkpt>
      <trkpt lat="49.78158" lon="4.83082">
        <ele>230</ele>
        <time>2020-11-13T10:14:31.000Z</time>
      </trkpt>
      <trkpt lat="49.78158" lon="4.83078">
        <ele>231</ele>
        <time>2020-11-13T10:14:32.000Z</time>
      </trkpt>
      <trkpt lat="49.78159" lon="4.83075">
        <ele>231</ele>
        <time>2020-11-13T10:14:33.000Z</time>
      </trkpt>
      <trkpt lat="49.78158" lon="4.83073">
        <ele>231</ele>
        <time>2020-11-13T10:14:34.000Z</time>
      </trkpt>
      <trkpt lat="49.78158" lon="4.83071">
        <ele>231</ele>
        <time>2020-11-13T10:14:35.000Z</time>
      </trkpt>
      <trkpt lat="49.78158" lon="4.83068">
        <ele>231</ele>
        <time>2020-11-13T10:14:36.000Z</time>
      </trkpt>
      <trkpt lat="49.78158" lon="4.83065">
        <ele>231</ele>
        <time>2020-11-13T10:14:37.000Z</time>
      </trkpt>
      <trkpt lat="49.78158" lon="4.83061">
        <ele>231</ele>
        <time>2020-11-13T10:14:38.000Z</time>
      </trkpt>
      <trkpt lat="49.78157" lon="4.83058">
        <ele>232</ele>
        <time>2020-11-13T10:14:39.000Z</time>
      </trkpt>
      <trkpt lat="49.78157" lon="4.83056">
        <ele>232</ele>
        <time>2020-11-13T10:14:40.000Z</time>
      </trkpt>
      <trkpt lat="49.78156" lon="4.83053">
        <ele>232</ele>
        <time>2020-11-13T10:14:41.000Z</time>
      </trkpt>
      <trkpt lat="49.78156" lon="4.8305">
        <ele>232</ele>
        <time>2020-11-13T10:14:42.000Z</time>
      </trkpt>
      <trkpt lat="49.78156" lon="4.83046">
        <ele>232</ele>
        <time>2020-11-13T10:14:43.000Z</time>
      </trkpt>
      <trkpt lat="49.78156" lon="4.83043">
        <ele>232</ele>
        <time>2020-11-13T10:14:44.000Z</time>
      </trkpt>
      <trkpt lat="49.78156" lon="4.8304">
        <ele>233</ele>
        <time>2020-11-13T10:14:45.000Z</time>
      </trkpt>
      <trkpt lat="49.78157" lon="4.83036">
        <ele>233</ele>
        <time>2020-11-13T10:14:46.000Z</time>
      </trkpt>
      <trkpt lat="49.78157" lon="4.83033">
        <ele>233</ele>
        <time>2020-11-13T10:14:47.000Z</time>
      </trkpt>
      <trkpt lat="49.78157" lon="4.83029">
        <ele>233</ele>
        <time>2020-11-13T10:14:48.000Z</time>
      </trkpt>
      <trkpt lat="49.78157" lon="4.83026">
        <ele>233</ele>
        <time>2020-11-13T10:14:49.000Z</time>
      </trkpt>
      <trkpt lat="49.78157" lon="4.83023">
        <ele>233</ele>
        <time>2020-11-13T10:14:50.000Z</time>
      </trkpt>
      <trkpt lat="49.78157" lon="4.8302">
        <ele>233</ele>
        <time>2020-11-13T10:14:51.000Z</time>
      </trkpt>
      <trkpt lat="49.78157" lon="4.83017">
        <ele>233</ele>
        <time>2020-11-13T10:14:52.000Z</time>
      </trkpt>
      <trkpt lat="49.78157" lon="4.83014">
        <ele>233</ele>
        <time>2020-11-13T10:14:53.000Z</time>
      </trkpt>
      <trkpt lat="49.78158" lon="4.83011">
        <ele>233</ele>
        <time>2020-11-13T10:14:54.000Z</time>
      </trkpt>
      <trkpt lat="49.78159" lon="4.83008">
        <ele>233</ele>
        <time>2020-11-13T10:14:55.000Z</time>
      </trkpt>
      <trkpt lat="49.78158" lon="4.83006">
        <ele>234</ele>
        <time>2020-11-13T10:14:56.000Z</time>
      </trkpt>
      <trkpt lat="49.78158" lon="4.83004">
        <ele>234</ele>
        <time>2020-11-13T10:14:57.000Z</time>
      </trkpt>
      <trkpt lat="49.78157" lon="4.83002">
        <ele>234</ele>
        <time>2020-11-13T10:14:58.000Z</time>
      </trkpt>
      <trkpt lat="49.78156" lon="4.83001">
        <ele>234</ele>
        <time>2020-11-13T10:14:59.000Z</time>
      </trkpt>
      <trkpt lat="49.78155" lon="4.83">
        <ele>234</ele>
        <time>2020-11-13T10:15:00.000Z</time>
      </trkpt>
      <trkpt lat="49.78154" lon="4.82998">
        <ele>234</ele>
        <time>2020-11-13T10:15:01.000Z</time>
      </trkpt>
      <trkpt lat="49.78153" lon="4.82997">
        <ele>235</ele>
        <time>2020-11-13T10:15:02.000Z</time>
      </trkpt>
      <trkpt lat="49.78152" lon="4.82996">
        <ele>235</ele>
        <time>2020-11-13T10:15:03.000Z</time>
      </trkpt>
      <trkpt lat="49.7815" lon="4.82994">
        <ele>235</ele>
        <time>2020-11-13T10:15:04.000Z</time>
      </trkpt>
      <trkpt lat="49.78149" lon="4.82993">
        <ele>236</ele>
        <time>2020-11-13T10:15:05.000Z</time>
      </trkpt>
      <trkpt lat="49.78148" lon="4.82992">
        <ele>236</ele>
        <time>2020-11-13T10:15:06.000Z</time>
      </trkpt>
      <trkpt lat="49.78148" lon="4.82991">
        <ele>236</ele>
        <time>2020-11-13T10:15:07.000Z</time>
      </trkpt>
      <trkpt lat="49.78147" lon="4.82991">
        <ele>236</ele>
        <time>2020-11-13T10:15:08.000Z</time>
      </trkpt>
      <trkpt lat="49.78146" lon="4.82991">
        <ele>237</ele>
        <time>2020-11-13T10:15:09.000Z</time>
      </trkpt>
      <trkpt lat="49.78145" lon="4.82991">
        <ele>237</ele>
        <time>2020-11-13T10:15:10.000Z</time>
      </trkpt>
      <trkpt lat="49.78144" lon="4.82991">
        <ele>238</ele>
        <time>2020-11-13T10:15:11.000Z</time>
      </trkpt>
      <trkpt lat="49.78142" lon="4.82991">
        <ele>238</ele>
        <time>2020-11-13T10:15:12.000Z</time>
      </trkpt>
      <trkpt lat="49.78141" lon="4.82991">
        <ele>238</ele>
        <time>2020-11-13T10:15:13.000Z</time>
      </trkpt>
      <trkpt lat="49.78139" lon="4.8299">
        <ele>239</ele>
        <time>2020-11-13T10:15:14.000Z</time>
      </trkpt>
      <trkpt lat="49.78137" lon="4.82991">
        <ele>239</ele>
        <time>2020-11-13T10:15:15.000Z</time>
      </trkpt>
      <trkpt lat="49.78136" lon="4.82991">
        <ele>240</ele>
        <time>2020-11-13T10:15:16.000Z</time>
      </trkpt>
      <trkpt lat="49.78135" lon="4.82991">
        <ele>240</ele>
        <time>2020-11-13T10:15:17.000Z</time>
      </trkpt>
      <trkpt lat="49.78134" lon="4.82991">
        <ele>241</ele>
        <time>2020-11-13T10:15:18.000Z</time>
      </trkpt>
      <trkpt lat="49.78132" lon="4.82992">
        <ele>241</ele>
        <time>2020-11-13T10:15:19.000Z</time>
      </trkpt>
      <trkpt lat="49.78131" lon="4.82992">
        <ele>241</ele>
        <time>2020-11-13T10:15:20.000Z</time>
      </trkpt>
      <trkpt lat="49.78129" lon="4.82992">
        <ele>242</ele>
        <time>2020-11-13T10:15:21.000Z</time>
      </trkpt>
      <trkpt lat="49.78128" lon="4.82993">
        <ele>242</ele>
        <time>2020-11-13T10:15:22.000Z</time>
      </trkpt>
      <trkpt lat="49.78127" lon="4.82994">
        <ele>243</ele>
        <time>2020-11-13T10:15:23.000Z</time>
      </trkpt>
      <trkpt lat="49.78126" lon="4.82994">
        <ele>243</ele>
        <time>2020-11-13T10:15:24.000Z</time>
      </trkpt>
      <trkpt lat="49.78124" lon="4.82995">
        <ele>243</ele>
        <time>2020-11-13T10:15:25.000Z</time>
      </trkpt>
      <trkpt lat="49.78123" lon="4.82996">
        <ele>244</ele>
        <time>2020-11-13T10:15:26.000Z</time>
      </trkpt>
      <trkpt lat="49.78122" lon="4.82997">
        <ele>244</ele>
        <time>2020-11-13T10:15:27.000Z</time>
      </trkpt>
      <trkpt lat="49.78121" lon="4.82997">
        <ele>244</ele>
        <time>2020-11-13T10:15:28.000Z</time>
      </trkpt>
      <trkpt lat="49.78119" lon="4.82998">
        <ele>245</ele>
        <time>2020-11-13T10:15:29.000Z</time>
      </trkpt>
      <trkpt lat="49.78117" lon="4.82999">
        <ele>245</ele>
        <time>2020-11-13T10:15:30.000Z</time>
      </trkpt>
      <trkpt lat="49.78116" lon="4.83">
        <ele>246</ele>
        <time>2020-11-13T10:15:31.000Z</time>
      </trkpt>
      <trkpt lat="49.78114" lon="4.83001">
        <ele>246</ele>
        <time>2020-11-13T10:15:32.000Z</time>
      </trkpt>
      <trkpt lat="49.78113" lon="4.83002">
        <ele>246</ele>
        <time>2020-11-13T10:15:33.000Z</time>
      </trkpt>
      <trkpt lat="49.78111" lon="4.83002">
        <ele>247</ele>
        <time>2020-11-13T10:15:34.000Z</time>
      </trkpt>
      <trkpt lat="49.7811" lon="4.83003">
        <ele>247</ele>
        <time>2020-11-13T10:15:35.000Z</time>
      </trkpt>
      <trkpt lat="49.78108" lon="4.83005">
        <ele>247</ele>
        <time>2020-11-13T10:15:36.000Z</time>
      </trkpt>
      <trkpt lat="49.78107" lon="4.83006">
        <ele>248</ele>
        <time>2020-11-13T10:15:37.000Z</time>
      </trkpt>
      <trkpt lat="49.78106" lon="4.83007">
        <ele>248</ele>
        <time>2020-11-13T10:15:38.000Z</time>
      </trkpt>
      <trkpt lat="49.78105" lon="4.83008">
        <ele>249</ele>
        <time>2020-11-13T10:15:39.000Z</time>
      </trkpt>
      <trkpt lat="49.78104" lon="4.83009">
        <ele>249</ele>
        <time>2020-11-13T10:15:40.000Z</time>
      </trkpt>
      <trkpt lat="49.78103" lon="4.83009">
        <ele>249</ele>
        <time>2020-11-13T10:15:41.000Z</time>
      </trkpt>
      <trkpt lat="49.78102" lon="4.8301">
        <ele>250</ele>
        <time>2020-11-13T10:15:42.000Z</time>
      </trkpt>
      <trkpt lat="49.78101" lon="4.83011">
        <ele>250</ele>
        <time>2020-11-13T10:15:43.000Z</time>
      </trkpt>
      <trkpt lat="49.781" lon="4.83013">
        <ele>250</ele>
        <time>2020-11-13T10:15:44.000Z</time>
      </trkpt>
      <trkpt lat="49.78099" lon="4.83014">
        <ele>251</ele>
        <time>2020-11-13T10:15:45.000Z</time>
      </trkpt>
      <trkpt lat="49.78098" lon="4.83015">
        <ele>251</ele>
        <time>2020-11-13T10:15:46.000Z</time>
      </trkpt>
      <trkpt lat="49.78097" lon="4.83016">
        <ele>251</ele>
        <time>2020-11-13T10:15:47.000Z</time>
      </trkpt>
      <trkpt lat="49.78096" lon="4.83017">
        <ele>251</ele>
        <time>2020-11-13T10:15:48.000Z</time>
      </trkpt>
      <trkpt lat="49.78095" lon="4.83019">
        <ele>252</ele>
        <time>2020-11-13T10:15:49.000Z</time>
      </trkpt>
      <trkpt lat="49.78094" lon="4.8302">
        <ele>252</ele>
        <time>2020-11-13T10:15:50.000Z</time>
      </trkpt>
      <trkpt lat="49.78092" lon="4.83021">
        <ele>252</ele>
        <time>2020-11-13T10:15:51.000Z</time>
      </trkpt>
      <trkpt lat="49.78091" lon="4.83023">
        <ele>252</ele>
        <time>2020-11-13T10:15:52.000Z</time>
      </trkpt>
      <trkpt lat="49.7809" lon="4.83024">
        <ele>252</ele>
        <time>2020-11-13T10:15:53.000Z</time>
      </trkpt>
      <trkpt lat="49.78089" lon="4.83026">
        <ele>252</ele>
        <time>2020-11-13T10:15:54.000Z</time>
      </trkpt>
      <trkpt lat="49.78087" lon="4.83027">
        <ele>252</ele>
        <time>2020-11-13T10:15:55.000Z</time>
      </trkpt>
      <trkpt lat="49.78086" lon="4.83029">
        <ele>253</ele>
        <time>2020-11-13T10:15:56.000Z</time>
      </trkpt>
      <trkpt lat="49.78086" lon="4.83031">
        <ele>253</ele>
        <time>2020-11-13T10:15:57.000Z</time>
      </trkpt>
      <trkpt lat="49.78085" lon="4.83033">
        <ele>253</ele>
        <time>2020-11-13T10:15:58.000Z</time>
      </trkpt>
      <trkpt lat="49.78084" lon="4.83035">
        <ele>253</ele>
        <time>2020-11-13T10:15:59.000Z</time>
      </trkpt>
      <trkpt lat="49.78082" lon="4.83036">
        <ele>253</ele>
        <time>2020-11-13T10:16:00.000Z</time>
      </trkpt>
      <trkpt lat="49.78081" lon="4.83038">
        <ele>253</ele>
        <time>2020-11-13T10:16:01.000Z</time>
      </trkpt>
      <trkpt lat="49.7808" lon="4.83039">
        <ele>253</ele>
        <time>2020-11-13T10:16:02.000Z</time>
      </trkpt>
      <trkpt lat="49.78079" lon="4.83041">
        <ele>253</ele>
        <time>2020-11-13T10:16:03.000Z</time>
      </trkpt>
      <trkpt lat="49.78077" lon="4.83042">
        <ele>253</ele>
        <time>2020-11-13T10:16:04.000Z</time>
      </trkpt>
      <trkpt lat="49.78075" lon="4.83044">
        <ele>253</ele>
        <time>2020-11-13T10:16:05.000Z</time>
      </trkpt>
      <trkpt lat="49.78074" lon="4.83045">
        <ele>253</ele>
        <time>2020-11-13T10:16:06.000Z</time>
      </trkpt>
      <trkpt lat="49.78073" lon="4.83046">
        <ele>253</ele>
        <time>2020-11-13T10:16:07.000Z</time>
      </trkpt>
      <trkpt lat="49.78071" lon="4.83048">
        <ele>253</ele>
        <time>2020-11-13T10:16:08.000Z</time>
      </trkpt>
      <trkpt lat="49.7807" lon="4.8305">
        <ele>254</ele>
        <time>2020-11-13T10:16:09.000Z</time>
      </trkpt>
      <trkpt lat="49.78069" lon="4.83052">
        <ele>254</ele>
        <time>2020-11-13T10:16:10.000Z</time>
      </trkpt>
      <trkpt lat="49.78068" lon="4.83053">
        <ele>254</ele>
        <time>2020-11-13T10:16:11.000Z</time>
      </trkpt>
      <trkpt lat="49.78067" lon="4.83055">
        <ele>254</ele>
        <time>2020-11-13T10:16:12.000Z</time>
      </trkpt>
      <trkpt lat="49.78066" lon="4.83056">
        <ele>254</ele>
        <time>2020-11-13T10:16:13.000Z</time>
      </trkpt>
      <trkpt lat="49.78065" lon="4.83057">
        <ele>254</ele>
        <time>2020-11-13T10:16:14.000Z</time>
      </trkpt>
      <trkpt lat="49.78064" lon="4.83059">
        <ele>254</ele>
        <time>2020-11-13T10:16:15.000Z</time>
      </trkpt>
      <trkpt lat="49.78062" lon="4.8306">
        <ele>254</ele>
        <time>2020-11-13T10:16:16.000Z</time>
      </trkpt>
      <trkpt lat="49.78061" lon="4.83061">
        <ele>254</ele>
        <time>2020-11-13T10:16:17.000Z</time>
      </trkpt>
      <trkpt lat="49.7806" lon="4.83062">
        <ele>254</ele>
        <time>2020-11-13T10:16:18.000Z</time>
      </trkpt>
      <trkpt lat="49.78058" lon="4.83063">
        <ele>254</ele>
        <time>2020-11-13T10:16:19.000Z</time>
      </trkpt>
      <trkpt lat="49.78056" lon="4.83064">
        <ele>254</ele>
        <time>2020-11-13T10:16:20.000Z</time>
      </trkpt>
      <trkpt lat="49.78055" lon="4.83064">
        <ele>254</ele>
        <time>2020-11-13T10:16:21.000Z</time>
      </trkpt>
      <trkpt lat="49.78054" lon="4.83065">
        <ele>254</ele>
        <time>2020-11-13T10:16:22.000Z</time>
      </trkpt>
      <trkpt lat="49.78052" lon="4.83066">
        <ele>255</ele>
        <time>2020-11-13T10:16:23.000Z</time>
      </trkpt>
      <trkpt lat="49.78051" lon="4.83066">
        <ele>255</ele>
        <time>2020-11-13T10:16:24.000Z</time>
      </trkpt>
      <trkpt lat="49.7805" lon="4.83067">
        <ele>255</ele>
        <time>2020-11-13T10:16:25.000Z</time>
      </trkpt>
      <trkpt lat="49.78049" lon="4.83068">
        <ele>255</ele>
        <time>2020-11-13T10:16:26.000Z</time>
      </trkpt>
      <trkpt lat="49.78048" lon="4.83069">
        <ele>255</ele>
        <time>2020-11-13T10:16:27.000Z</time>
      </trkpt>
      <trkpt lat="49.78047" lon="4.83069">
        <ele>255</ele>
        <time>2020-11-13T10:16:28.000Z</time>
      </trkpt>
      <trkpt lat="49.78045" lon="4.83069">
        <ele>255</ele>
        <time>2020-11-13T10:16:29.000Z</time>
      </trkpt>
      <trkpt lat="49.78044" lon="4.8307">
        <ele>255</ele>
        <time>2020-11-13T10:16:30.000Z</time>
      </trkpt>
      <trkpt lat="49.78042" lon="4.8307">
        <ele>255</ele>
        <time>2020-11-13T10:16:31.000Z</time>
      </trkpt>
      <trkpt lat="49.78041" lon="4.83069">
        <ele>255</ele>
        <time>2020-11-13T10:16:32.000Z</time>
      </trkpt>
      <trkpt lat="49.78039" lon="4.83069">
        <ele>255</ele>
        <time>2020-11-13T10:16:33.000Z</time>
      </trkpt>
      <trkpt lat="49.78038" lon="4.83069">
        <ele>256</ele>
        <time>2020-11-13T10:16:34.000Z</time>
      </trkpt>
      <trkpt lat="49.78036" lon="4.83069">
        <ele>256</ele>
        <time>2020-11-13T10:16:35.000Z</time>
      </trkpt>
      <trkpt lat="49.78035" lon="4.83069">
        <ele>256</ele>
        <time>2020-11-13T10:16:36.000Z</time>
      </trkpt>
      <trkpt lat="49.78033" lon="4.83069">
        <ele>256</ele>
        <time>2020-11-13T10:16:37.000Z</time>
      </trkpt>
      <trkpt lat="49.78031" lon="4.83068">
        <ele>256</ele>
        <time>2020-11-13T10:16:38.000Z</time>
      </trkpt>
      <trkpt lat="49.7803" lon="4.83068">
        <ele>256</ele>
        <time>2020-11-13T10:16:39.000Z</time>
      </trkpt>
      <trkpt lat="49.78029" lon="4.83068">
        <ele>256</ele>
        <time>2020-11-13T10:16:40.000Z</time>
      </trkpt>
      <trkpt lat="49.78027" lon="4.83067">
        <ele>256</ele>
        <time>2020-11-13T10:16:41.000Z</time>
      </trkpt>
      <trkpt lat="49.78026" lon="4.83066">
        <ele>256</ele>
        <time>2020-11-13T10:16:42.000Z</time>
      </trkpt>
      <trkpt lat="49.78024" lon="4.83065">
        <ele>256</ele>
        <time>2020-11-13T10:16:43.000Z</time>
      </trkpt>
      <trkpt lat="49.78023" lon="4.83064">
        <ele>256</ele>
        <time>2020-11-13T10:16:44.000Z</time>
      </trkpt>
      <trkpt lat="49.78021" lon="4.83063">
        <ele>256</ele>
        <time>2020-11-13T10:16:45.000Z</time>
      </trkpt>
      <trkpt lat="49.78019" lon="4.83062">
        <ele>256</ele>
        <time>2020-11-13T10:16:46.000Z</time>
      </trkpt>
      <trkpt lat="49.78018" lon="4.83061">
        <ele>256</ele>
        <time>2020-11-13T10:16:47.000Z</time>
      </trkpt>
      <trkpt lat="49.78016" lon="4.83059">
        <ele>256</ele>
        <time>2020-11-13T10:16:48.000Z</time>
      </trkpt>
      <trkpt lat="49.78015" lon="4.83058">
        <ele>256</ele>
        <time>2020-11-13T10:16:49.000Z</time>
      </trkpt>
      <trkpt lat="49.78014" lon="4.83056">
        <ele>256</ele>
        <time>2020-11-13T10:16:50.000Z</time>
      </trkpt>
      <trkpt lat="49.78013" lon="4.83054">
        <ele>256</ele>
        <time>2020-11-13T10:16:51.000Z</time>
      </trkpt>
      <trkpt lat="49.78011" lon="4.83052">
        <ele>256</ele>
        <time>2020-11-13T10:16:52.000Z</time>
      </trkpt>
      <trkpt lat="49.7801" lon="4.8305">
        <ele>256</ele>
        <time>2020-11-13T10:16:53.000Z</time>
      </trkpt>
      <trkpt lat="49.78009" lon="4.83048">
        <ele>256</ele>
        <time>2020-11-13T10:16:54.000Z</time>
      </trkpt>
      <trkpt lat="49.78009" lon="4.83046">
        <ele>256</ele>
        <time>2020-11-13T10:16:55.000Z</time>
      </trkpt>
      <trkpt lat="49.78008" lon="4.83044">
        <ele>256</ele>
        <time>2020-11-13T10:16:56.000Z</time>
      </trkpt>
      <trkpt lat="49.78007" lon="4.83042">
        <ele>256</ele>
        <time>2020-11-13T10:16:57.000Z</time>
      </trkpt>
      <trkpt lat="49.78006" lon="4.83041">
        <ele>256</ele>
        <time>2020-11-13T10:16:58.000Z</time>
      </trkpt>
      <trkpt lat="49.78005" lon="4.83039">
        <ele>256</ele>
        <time>2020-11-13T10:16:59.000Z</time>
      </trkpt>
      <trkpt lat="49.78004" lon="4.83038">
        <ele>256</ele>
        <time>2020-11-13T10:17:00.000Z</time>
      </trkpt>
      <trkpt lat="49.78003" lon="4.83036">
        <ele>256</ele>
        <time>2020-11-13T10:17:01.000Z</time>
      </trkpt>
      <trkpt lat="49.78002" lon="4.83034">
        <ele>256</ele>
        <time>2020-11-13T10:17:02.000Z</time>
      </trkpt>
      <trkpt lat="49.78001" lon="4.83032">
        <ele>256</ele>
        <time>2020-11-13T10:17:03.000Z</time>
      </trkpt>
      <trkpt lat="49.78" lon="4.8303">
        <ele>256</ele>
        <time>2020-11-13T10:17:04.000Z</time>
      </trkpt>
      <trkpt lat="49.77999" lon="4.83028">
        <ele>256</ele>
        <time>2020-11-13T10:17:05.000Z</time>
      </trkpt>
      <trkpt lat="49.77998" lon="4.83026">
        <ele>256</ele>
        <time>2020-11-13T10:17:06.000Z</time>
      </trkpt>
      <trkpt lat="49.77997" lon="4.83024">
        <ele>256</ele>
        <time>2020-11-13T10:17:07.000Z</time>
      </trkpt>
      <trkpt lat="49.77996" lon="4.83022">
        <ele>256</ele>
        <time>2020-11-13T10:17:08.000Z</time>
      </trkpt>
      <trkpt lat="49.77995" lon="4.8302">
        <ele>256</ele>
        <time>2020-11-13T10:17:09.000Z</time>
      </trkpt>
      <trkpt lat="49.77994" lon="4.83017">
        <ele>257</ele>
        <time>2020-11-13T10:17:10.000Z</time>
      </trkpt>
      <trkpt lat="49.77993" lon="4.83015">
        <ele>257</ele>
        <time>2020-11-13T10:17:11.000Z</time>
      </trkpt>
      <trkpt lat="49.77992" lon="4.83013">
        <ele>257</ele>
        <time>2020-11-13T10:17:12.000Z</time>
      </trkpt>
      <trkpt lat="49.77991" lon="4.83011">
        <ele>257</ele>
        <time>2020-11-13T10:17:13.000Z</time>
      </trkpt>
      <trkpt lat="49.7799" lon="4.83009">
        <ele>258</ele>
        <time>2020-11-13T10:17:14.000Z</time>
      </trkpt>
      <trkpt lat="49.77989" lon="4.83007">
        <ele>258</ele>
        <time>2020-11-13T10:17:15.000Z</time>
      </trkpt>
      <trkpt lat="49.77988" lon="4.83005">
        <ele>258</ele>
        <time>2020-11-13T10:17:16.000Z</time>
      </trkpt>
      <trkpt lat="49.77986" lon="4.83003">
        <ele>259</ele>
        <time>2020-11-13T10:17:17.000Z</time>
      </trkpt>
      <trkpt lat="49.77985" lon="4.83001">
        <ele>259</ele>
        <time>2020-11-13T10:17:18.000Z</time>
      </trkpt>
      <trkpt lat="49.77984" lon="4.82999">
        <ele>259</ele>
        <time>2020-11-13T10:17:19.000Z</time>
      </trkpt>
      <trkpt lat="49.77983" lon="4.82997">
        <ele>259</ele>
        <time>2020-11-13T10:17:20.000Z</time>
      </trkpt>
      <trkpt lat="49.77983" lon="4.82994">
        <ele>260</ele>
        <time>2020-11-13T10:17:21.000Z</time>
      </trkpt>
      <trkpt lat="49.77982" lon="4.82992">
        <ele>260</ele>
        <time>2020-11-13T10:17:22.000Z</time>
      </trkpt>
      <trkpt lat="49.77981" lon="4.8299">
        <ele>260</ele>
        <time>2020-11-13T10:17:23.000Z</time>
      </trkpt>
      <trkpt lat="49.7798" lon="4.82987">
        <ele>260</ele>
        <time>2020-11-13T10:17:24.000Z</time>
      </trkpt>
      <trkpt lat="49.77979" lon="4.82985">
        <ele>261</ele>
        <time>2020-11-13T10:17:25.000Z</time>
      </trkpt>
      <trkpt lat="49.77978" lon="4.82983">
        <ele>261</ele>
        <time>2020-11-13T10:17:26.000Z</time>
      </trkpt>
      <trkpt lat="49.77977" lon="4.82981">
        <ele>261</ele>
        <time>2020-11-13T10:17:27.000Z</time>
      </trkpt>
      <trkpt lat="49.77976" lon="4.82979">
        <ele>261</ele>
        <time>2020-11-13T10:17:28.000Z</time>
      </trkpt>
      <trkpt lat="49.77975" lon="4.82977">
        <ele>262</ele>
        <time>2020-11-13T10:17:29.000Z</time>
      </trkpt>
      <trkpt lat="49.77974" lon="4.82975">
        <ele>262</ele>
        <time>2020-11-13T10:17:30.000Z</time>
      </trkpt>
      <trkpt lat="49.77973" lon="4.82973">
        <ele>262</ele>
        <time>2020-11-13T10:17:31.000Z</time>
      </trkpt>
      <trkpt lat="49.77973" lon="4.82971">
        <ele>262</ele>
        <time>2020-11-13T10:17:32.000Z</time>
      </trkpt>
      <trkpt lat="49.77972" lon="4.82969">
        <ele>263</ele>
        <time>2020-11-13T10:17:33.000Z</time>
      </trkpt>
      <trkpt lat="49.77971" lon="4.82967">
        <ele>263</ele>
        <time>2020-11-13T10:17:34.000Z</time>
      </trkpt>
      <trkpt lat="49.7797" lon="4.82965">
        <ele>263</ele>
        <time>2020-11-13T10:17:35.000Z</time>
      </trkpt>
      <trkpt lat="49.7797" lon="4.82963">
        <ele>263</ele>
        <time>2020-11-13T10:17:36.000Z</time>
      </trkpt>
      <trkpt lat="49.77969" lon="4.82962">
        <ele>264</ele>
        <time>2020-11-13T10:17:37.000Z</time>
      </trkpt>
      <trkpt lat="49.77969" lon="4.8296">
        <ele>264</ele>
        <time>2020-11-13T10:17:38.000Z</time>
      </trkpt>
      <trkpt lat="49.77968" lon="4.82959">
        <ele>264</ele>
        <time>2020-11-13T10:17:39.000Z</time>
      </trkpt>
      <trkpt lat="49.77967" lon="4.82957">
        <ele>265</ele>
        <time>2020-11-13T10:17:40.000Z</time>
      </trkpt>
      <trkpt lat="49.77966" lon="4.82955">
        <ele>265</ele>
        <time>2020-11-13T10:17:41.000Z</time>
      </trkpt>
      <trkpt lat="49.77965" lon="4.82954">
        <ele>265</ele>
        <time>2020-11-13T10:17:42.000Z</time>
      </trkpt>
      <trkpt lat="49.77965" lon="4.82952">
        <ele>266</ele>
        <time>2020-11-13T10:17:43.000Z</time>
      </trkpt>
      <trkpt lat="49.77964" lon="4.8295">
        <ele>266</ele>
        <time>2020-11-13T10:17:44.000Z</time>
      </trkpt>
      <trkpt lat="49.77964" lon="4.82947">
        <ele>266</ele>
        <time>2020-11-13T10:17:45.000Z</time>
      </trkpt>
      <trkpt lat="49.77963" lon="4.82945">
        <ele>266</ele>
        <time>2020-11-13T10:17:46.000Z</time>
      </trkpt>
      <trkpt lat="49.77962" lon="4.82943">
        <ele>266</ele>
        <time>2020-11-13T10:17:47.000Z</time>
      </trkpt>
      <trkpt lat="49.77961" lon="4.82941">
        <ele>267</ele>
        <time>2020-11-13T10:17:48.000Z</time>
      </trkpt>
      <trkpt lat="49.77959" lon="4.82939">
        <ele>267</ele>
        <time>2020-11-13T10:17:49.000Z</time>
      </trkpt>
      <trkpt lat="49.77959" lon="4.82937">
        <ele>267</ele>
        <time>2020-11-13T10:17:50.000Z</time>
      </trkpt>
      <trkpt lat="49.77958" lon="4.82935">
        <ele>267</ele>
        <time>2020-11-13T10:17:51.000Z</time>
      </trkpt>
      <trkpt lat="49.77957" lon="4.82933">
        <ele>268</ele>
        <time>2020-11-13T10:17:52.000Z</time>
      </trkpt>
      <trkpt lat="49.77956" lon="4.82931">
        <ele>268</ele>
        <time>2020-11-13T10:17:53.000Z</time>
      </trkpt>
      <trkpt lat="49.77956" lon="4.82928">
        <ele>268</ele>
        <time>2020-11-13T10:17:54.000Z</time>
      </trkpt>
      <trkpt lat="49.77955" lon="4.82926">
        <ele>268</ele>
        <time>2020-11-13T10:17:55.000Z</time>
      </trkpt>
      <trkpt lat="49.77954" lon="4.82924">
        <ele>268</ele>
        <time>2020-11-13T10:17:56.000Z</time>
      </trkpt>
      <trkpt lat="49.77952" lon="4.82922">
        <ele>269</ele>
        <time>2020-11-13T10:17:57.000Z</time>
      </trkpt>
      <trkpt lat="49.77951" lon="4.8292">
        <ele>269</ele>
        <time>2020-11-13T10:17:58.000Z</time>
      </trkpt>
      <trkpt lat="49.7795" lon="4.82918">
        <ele>269</ele>
        <time>2020-11-13T10:17:59.000Z</time>
      </trkpt>
      <trkpt lat="49.77949" lon="4.82916">
        <ele>269</ele>
        <time>2020-11-13T10:18:00.000Z</time>
      </trkpt>
      <trkpt lat="49.77948" lon="4.82914">
        <ele>270</ele>
        <time>2020-11-13T10:18:01.000Z</time>
      </trkpt>
      <trkpt lat="49.77946" lon="4.82911">
        <ele>270</ele>
        <time>2020-11-13T10:18:02.000Z</time>
      </trkpt>
      <trkpt lat="49.77945" lon="4.82909">
        <ele>270</ele>
        <time>2020-11-13T10:18:03.000Z</time>
      </trkpt>
      <trkpt lat="49.77944" lon="4.82906">
        <ele>270</ele>
        <time>2020-11-13T10:18:04.000Z</time>
      </trkpt>
      <trkpt lat="49.77943" lon="4.82904">
        <ele>270</ele>
        <time>2020-11-13T10:18:05.000Z</time>
      </trkpt>
      <trkpt lat="49.77942" lon="4.82901">
        <ele>270</ele>
        <time>2020-11-13T10:18:06.000Z</time>
      </trkpt>
      <trkpt lat="49.7794" lon="4.82899">
        <ele>269</ele>
        <time>2020-11-13T10:18:07.000Z</time>
      </trkpt>
      <trkpt lat="49.77939" lon="4.82896">
        <ele>269</ele>
        <time>2020-11-13T10:18:08.000Z</time>
      </trkpt>
      <trkpt lat="49.77939" lon="4.82893">
        <ele>269</ele>
        <time>2020-11-13T10:18:09.000Z</time>
      </trkpt>
      <trkpt lat="49.77938" lon="4.82891">
        <ele>269</ele>
        <time>2020-11-13T10:18:10.000Z</time>
      </trkpt>
      <trkpt lat="49.77937" lon="4.82888">
        <ele>269</ele>
        <time>2020-11-13T10:18:11.000Z</time>
      </trkpt>
      <trkpt lat="49.77936" lon="4.82886">
        <ele>269</ele>
        <time>2020-11-13T10:18:12.000Z</time>
      </trkpt>
      <trkpt lat="49.77935" lon="4.82884">
        <ele>269</ele>
        <time>2020-11-13T10:18:13.000Z</time>
      </trkpt>
      <trkpt lat="49.77935" lon="4.82882">
        <ele>269</ele>
        <time>2020-11-13T10:18:14.000Z</time>
      </trkpt>
      <trkpt lat="49.77934" lon="4.82879">
        <ele>269</ele>
        <time>2020-11-13T10:18:15.000Z</time>
      </trkpt>
      <trkpt lat="49.77934" lon="4.82877">
        <ele>270</ele>
        <time>2020-11-13T10:18:16.000Z</time>
      </trkpt>
      <trkpt lat="49.77933" lon="4.82875">
        <ele>270</ele>
        <time>2020-11-13T10:18:17.000Z</time>
      </trkpt>
      <trkpt lat="49.77932" lon="4.82872">
        <ele>270</ele>
        <time>2020-11-13T10:18:18.000Z</time>
      </trkpt>
      <trkpt lat="49.77931" lon="4.8287">
        <ele>270</ele>
        <time>2020-11-13T10:18:19.000Z</time>
      </trkpt>
      <trkpt lat="49.7793" lon="4.82867">
        <ele>270</ele>
        <time>2020-11-13T10:18:20.000Z</time>
      </trkpt>
      <trkpt lat="49.77929" lon="4.82864">
        <ele>271</ele>
        <time>2020-11-13T10:18:21.000Z</time>
      </trkpt>
      <trkpt lat="49.77927" lon="4.82861">
        <ele>271</ele>
        <time>2020-11-13T10:18:22.000Z</time>
      </trkpt>
      <trkpt lat="49.77926" lon="4.82858">
        <ele>271</ele>
        <time>2020-11-13T10:18:23.000Z</time>
      </trkpt>
      <trkpt lat="49.77924" lon="4.82855">
        <ele>271</ele>
        <time>2020-11-13T10:18:24.000Z</time>
      </trkpt>
      <trkpt lat="49.77923" lon="4.82852">
        <ele>271</ele>
        <time>2020-11-13T10:18:25.000Z</time>
      </trkpt>
      <trkpt lat="49.77922" lon="4.82849">
        <ele>271</ele>
        <time>2020-11-13T10:18:26.000Z</time>
      </trkpt>
      <trkpt lat="49.77921" lon="4.82846">
        <ele>272</ele>
        <time>2020-11-13T10:18:27.000Z</time>
      </trkpt>
      <trkpt lat="49.7792" lon="4.82843">
        <ele>272</ele>
        <time>2020-11-13T10:18:28.000Z</time>
      </trkpt>
      <trkpt lat="49.77919" lon="4.8284">
        <ele>272</ele>
        <time>2020-11-13T10:18:29.000Z</time>
      </trkpt>
      <trkpt lat="49.77918" lon="4.82836">
        <ele>272</ele>
        <time>2020-11-13T10:18:30.000Z</time>
      </trkpt>
      <trkpt lat="49.77917" lon="4.82833">
        <ele>272</ele>
        <time>2020-11-13T10:18:31.000Z</time>
      </trkpt>
      <trkpt lat="49.77916" lon="4.8283">
        <ele>273</ele>
        <time>2020-11-13T10:18:32.000Z</time>
      </trkpt>
      <trkpt lat="49.77915" lon="4.82827">
        <ele>273</ele>
        <time>2020-11-13T10:18:33.000Z</time>
      </trkpt>
      <trkpt lat="49.77914" lon="4.82824">
        <ele>273</ele>
        <time>2020-11-13T10:18:34.000Z</time>
      </trkpt>
      <trkpt lat="49.77912" lon="4.82821">
        <ele>273</ele>
        <time>2020-11-13T10:18:35.000Z</time>
      </trkpt>
      <trkpt lat="49.77911" lon="4.82818">
        <ele>273</ele>
        <time>2020-11-13T10:18:36.000Z</time>
      </trkpt>
      <trkpt lat="49.7791" lon="4.82814">
        <ele>273</ele>
        <time>2020-11-13T10:18:37.000Z</time>
      </trkpt>
      <trkpt lat="49.77909" lon="4.82811">
        <ele>273</ele>
        <time>2020-11-13T10:18:38.000Z</time>
      </trkpt>
      <trkpt lat="49.77908" lon="4.82808">
        <ele>273</ele>
        <time>2020-11-13T10:18:39.000Z</time>
      </trkpt>
      <trkpt lat="49.77907" lon="4.82805">
        <ele>273</ele>
        <time>2020-11-13T10:18:40.000Z</time>
      </trkpt>
      <trkpt lat="49.77906" lon="4.82803">
        <ele>273</ele>
        <time>2020-11-13T10:18:41.000Z</time>
      </trkpt>
      <trkpt lat="49.77904" lon="4.828">
        <ele>273</ele>
        <time>2020-11-13T10:18:42.000Z</time>
      </trkpt>
      <trkpt lat="49.77902" lon="4.82796">
        <ele>273</ele>
        <time>2020-11-13T10:18:43.000Z</time>
      </trkpt>
      <trkpt lat="49.779" lon="4.82793">
        <ele>273</ele>
        <time>2020-11-13T10:18:44.000Z</time>
      </trkpt>
      <trkpt lat="49.77898" lon="4.82789">
        <ele>273</ele>
        <time>2020-11-13T10:18:45.000Z</time>
      </trkpt>
      <trkpt lat="49.77896" lon="4.82785">
        <ele>273</ele>
        <time>2020-11-13T10:18:46.000Z</time>
      </trkpt>
      <trkpt lat="49.77895" lon="4.82782">
        <ele>273</ele>
        <time>2020-11-13T10:18:47.000Z</time>
      </trkpt>
      <trkpt lat="49.77893" lon="4.82778">
        <ele>273</ele>
        <time>2020-11-13T10:18:48.000Z</time>
      </trkpt>
      <trkpt lat="49.77891" lon="4.82774">
        <ele>273</ele>
        <time>2020-11-13T10:18:49.000Z</time>
      </trkpt>
      <trkpt lat="49.77889" lon="4.82769">
        <ele>272</ele>
        <time>2020-11-13T10:18:50.000Z</time>
      </trkpt>
      <trkpt lat="49.77888" lon="4.82765">
        <ele>272</ele>
        <time>2020-11-13T10:18:51.000Z</time>
      </trkpt>
      <trkpt lat="49.77886" lon="4.8276">
        <ele>272</ele>
        <time>2020-11-13T10:18:52.000Z</time>
      </trkpt>
      <trkpt lat="49.77884" lon="4.82756">
        <ele>272</ele>
        <time>2020-11-13T10:18:53.000Z</time>
      </trkpt>
      <trkpt lat="49.77883" lon="4.82751">
        <ele>273</ele>
        <time>2020-11-13T10:18:54.000Z</time>
      </trkpt>
      <trkpt lat="49.77881" lon="4.82746">
        <ele>273</ele>
        <time>2020-11-13T10:18:55.000Z</time>
      </trkpt>
      <trkpt lat="49.77878" lon="4.82742">
        <ele>273</ele>
        <time>2020-11-13T10:18:56.000Z</time>
      </trkpt>
      <trkpt lat="49.77877" lon="4.82737">
        <ele>273</ele>
        <time>2020-11-13T10:18:57.000Z</time>
      </trkpt>
      <trkpt lat="49.77875" lon="4.82733">
        <ele>273</ele>
        <time>2020-11-13T10:18:58.000Z</time>
      </trkpt>
      <trkpt lat="49.77874" lon="4.82728">
        <ele>273</ele>
        <time>2020-11-13T10:18:59.000Z</time>
      </trkpt>
      <trkpt lat="49.77872" lon="4.82724">
        <ele>273</ele>
        <time>2020-11-13T10:19:00.000Z</time>
      </trkpt>
      <trkpt lat="49.7787" lon="4.82719">
        <ele>273</ele>
        <time>2020-11-13T10:19:01.000Z</time>
      </trkpt>
      <trkpt lat="49.77868" lon="4.82714">
        <ele>273</ele>
        <time>2020-11-13T10:19:02.000Z</time>
      </trkpt>
      <trkpt lat="49.77866" lon="4.8271">
        <ele>273</ele>
        <time>2020-11-13T10:19:03.000Z</time>
      </trkpt>
      <trkpt lat="49.77864" lon="4.82705">
        <ele>273</ele>
        <time>2020-11-13T10:19:04.000Z</time>
      </trkpt>
      <trkpt lat="49.77862" lon="4.827">
        <ele>273</ele>
        <time>2020-11-13T10:19:05.000Z</time>
      </trkpt>
      <trkpt lat="49.7786" lon="4.82693">
        <ele>273</ele>
        <time>2020-11-13T10:19:06.000Z</time>
      </trkpt>
      <trkpt lat="49.77858" lon="4.82687">
        <ele>272</ele>
        <time>2020-11-13T10:19:07.000Z</time>
      </trkpt>
      <trkpt lat="49.77856" lon="4.82681">
        <ele>272</ele>
        <time>2020-11-13T10:19:08.000Z</time>
      </trkpt>
      <trkpt lat="49.77855" lon="4.82676">
        <ele>272</ele>
        <time>2020-11-13T10:19:09.000Z</time>
      </trkpt>
      <trkpt lat="49.77854" lon="4.8267">
        <ele>272</ele>
        <time>2020-11-13T10:19:10.000Z</time>
      </trkpt>
      <trkpt lat="49.77853" lon="4.82665">
        <ele>272</ele>
        <time>2020-11-13T10:19:11.000Z</time>
      </trkpt>
      <trkpt lat="49.77852" lon="4.8266">
        <ele>272</ele>
        <time>2020-11-13T10:19:12.000Z</time>
      </trkpt>
      <trkpt lat="49.77851" lon="4.82656">
        <ele>272</ele>
        <time>2020-11-13T10:19:13.000Z</time>
      </trkpt>
      <trkpt lat="49.7785" lon="4.82653">
        <ele>272</ele>
        <time>2020-11-13T10:19:14.000Z</time>
      </trkpt>
      <trkpt lat="49.7785" lon="4.8265">
        <ele>272</ele>
        <time>2020-11-13T10:19:15.000Z</time>
      </trkpt>
      <trkpt lat="49.77851" lon="4.82646">
        <ele>272</ele>
        <time>2020-11-13T10:19:16.000Z</time>
      </trkpt>
      <trkpt lat="49.7785" lon="4.82643">
        <ele>272</ele>
        <time>2020-11-13T10:19:17.000Z</time>
      </trkpt>
      <trkpt lat="49.7785" lon="4.82639">
        <ele>272</ele>
        <time>2020-11-13T10:19:18.000Z</time>
      </trkpt>
      <trkpt lat="49.77849" lon="4.82634">
        <ele>272</ele>
        <time>2020-11-13T10:19:19.000Z</time>
      </trkpt>
      <trkpt lat="49.7785" lon="4.82629">
        <ele>272</ele>
        <time>2020-11-13T10:19:20.000Z</time>
      </trkpt>
      <trkpt lat="49.7785" lon="4.82626">
        <ele>272</ele>
        <time>2020-11-13T10:19:21.000Z</time>
      </trkpt>
      <trkpt lat="49.7785" lon="4.82622">
        <ele>272</ele>
        <time>2020-11-13T10:19:22.000Z</time>
      </trkpt>
      <trkpt lat="49.77849" lon="4.8262">
        <ele>272</ele>
        <time>2020-11-13T10:19:23.000Z</time>
      </trkpt>
      <trkpt lat="49.77849" lon="4.82618">
        <ele>272</ele>
        <time>2020-11-13T10:19:24.000Z</time>
      </trkpt>
      <trkpt lat="49.77848" lon="4.82616">
        <ele>272</ele>
        <time>2020-11-13T10:19:25.000Z</time>
      </trkpt>
      <trkpt lat="49.77847" lon="4.82615">
        <ele>272</ele>
        <time>2020-11-13T10:19:26.000Z</time>
      </trkpt>
      <trkpt lat="49.77846" lon="4.82616">
        <ele>272</ele>
        <time>2020-11-13T10:19:27.000Z</time>
      </trkpt>
      <trkpt lat="49.77845" lon="4.82617">
        <ele>272</ele>
        <time>2020-11-13T10:19:28.000Z</time>
      </trkpt>
      <trkpt lat="49.77843" lon="4.82618">
        <ele>272</ele>
        <time>2020-11-13T10:19:29.000Z</time>
      </trkpt>
      <trkpt lat="49.77841" lon="4.8262">
        <ele>272</ele>
        <time>2020-11-13T10:19:30.000Z</time>
      </trkpt>
      <trkpt lat="49.77839" lon="4.82622">
        <ele>272</ele>
        <time>2020-11-13T10:19:31.000Z</time>
      </trkpt>
      <trkpt lat="49.77837" lon="4.82624">
        <ele>272</ele>
        <time>2020-11-13T10:19:32.000Z</time>
      </trkpt>
      <trkpt lat="49.77833" lon="4.82625">
        <ele>272</ele>
        <time>2020-11-13T10:19:33.000Z</time>
      </trkpt>
      <trkpt lat="49.7783" lon="4.82625">
        <ele>272</ele>
        <time>2020-11-13T10:19:34.000Z</time>
      </trkpt>
      <trkpt lat="49.77826" lon="4.82625">
        <ele>272</ele>
        <time>2020-11-13T10:19:35.000Z</time>
      </trkpt>
      <trkpt lat="49.77823" lon="4.82623">
        <ele>272</ele>
        <time>2020-11-13T10:19:36.000Z</time>
      </trkpt>
      <trkpt lat="49.77819" lon="4.82622">
        <ele>272</ele>
        <time>2020-11-13T10:19:37.000Z</time>
      </trkpt>
      <trkpt lat="49.77814" lon="4.82622">
        <ele>272</ele>
        <time>2020-11-13T10:19:38.000Z</time>
      </trkpt>
      <trkpt lat="49.77809" lon="4.82622">
        <ele>272</ele>
        <time>2020-11-13T10:19:39.000Z</time>
      </trkpt>
      <trkpt lat="49.77804" lon="4.82623">
        <ele>272</ele>
        <time>2020-11-13T10:19:40.000Z</time>
      </trkpt>
      <trkpt lat="49.77798" lon="4.82626">
        <ele>272</ele>
        <time>2020-11-13T10:19:41.000Z</time>
      </trkpt>
      <trkpt lat="49.77793" lon="4.82631">
        <ele>272</ele>
        <time>2020-11-13T10:19:42.000Z</time>
      </trkpt>
      <trkpt lat="49.77788" lon="4.82637">
        <ele>272</ele>
        <time>2020-11-13T10:19:43.000Z</time>
      </trkpt>
      <trkpt lat="49.77782" lon="4.82643">
        <ele>272</ele>
        <time>2020-11-13T10:19:44.000Z</time>
      </trkpt>
      <trkpt lat="49.77776" lon="4.82648">
        <ele>272</ele>
        <time>2020-11-13T10:19:45.000Z</time>
      </trkpt>
      <trkpt lat="49.7777" lon="4.82653">
        <ele>271</ele>
        <time>2020-11-13T10:19:46.000Z</time>
      </trkpt>
      <trkpt lat="49.77762" lon="4.82655">
        <ele>271</ele>
        <time>2020-11-13T10:19:47.000Z</time>
      </trkpt>
      <trkpt lat="49.77754" lon="4.82653">
        <ele>271</ele>
        <time>2020-11-13T10:19:48.000Z</time>
      </trkpt>
      <trkpt lat="49.77746" lon="4.82649">
        <ele>270</ele>
        <time>2020-11-13T10:19:49.000Z</time>
      </trkpt>
      <trkpt lat="49.77738" lon="4.82644">
        <ele>270</ele>
        <time>2020-11-13T10:19:50.000Z</time>
      </trkpt>
      <trkpt lat="49.7773" lon="4.82639">
        <ele>270</ele>
        <time>2020-11-13T10:19:51.000Z</time>
      </trkpt>
      <trkpt lat="49.77723" lon="4.82635">
        <ele>269</ele>
        <time>2020-11-13T10:19:52.000Z</time>
      </trkpt>
      <trkpt lat="49.77715" lon="4.82632">
        <ele>269</ele>
        <time>2020-11-13T10:19:53.000Z</time>
      </trkpt>
      <trkpt lat="49.77707" lon="4.8263">
        <ele>268</ele>
        <time>2020-11-13T10:19:54.000Z</time>
      </trkpt>
      <trkpt lat="49.77699" lon="4.82626">
        <ele>268</ele>
        <time>2020-11-13T10:19:55.000Z</time>
      </trkpt>
      <trkpt lat="49.77692" lon="4.82623">
        <ele>267</ele>
        <time>2020-11-13T10:19:56.000Z</time>
      </trkpt>
      <trkpt lat="49.77685" lon="4.82619">
        <ele>266</ele>
        <time>2020-11-13T10:19:57.000Z</time>
      </trkpt>
      <trkpt lat="49.77678" lon="4.82615">
        <ele>266</ele>
        <time>2020-11-13T10:19:58.000Z</time>
      </trkpt>
      <trkpt lat="49.77672" lon="4.82611">
        <ele>265</ele>
        <time>2020-11-13T10:19:59.000Z</time>
      </trkpt>
      <trkpt lat="49.77666" lon="4.82608">
        <ele>264</ele>
        <time>2020-11-13T10:20:00.000Z</time>
      </trkpt>
      <trkpt lat="49.7766" lon="4.82604">
        <ele>264</ele>
        <time>2020-11-13T10:20:01.000Z</time>
      </trkpt>
      <trkpt lat="49.77653" lon="4.826">
        <ele>263</ele>
        <time>2020-11-13T10:20:02.000Z</time>
      </trkpt>
      <trkpt lat="49.77647" lon="4.82596">
        <ele>262</ele>
        <time>2020-11-13T10:20:03.000Z</time>
      </trkpt>
      <trkpt lat="49.77641" lon="4.82591">
        <ele>262</ele>
        <time>2020-11-13T10:20:04.000Z</time>
      </trkpt>
      <trkpt lat="49.77635" lon="4.82584">
        <ele>261</ele>
        <time>2020-11-13T10:20:05.000Z</time>
      </trkpt>
      <trkpt lat="49.7763" lon="4.82578">
        <ele>260</ele>
        <time>2020-11-13T10:20:06.000Z</time>
      </trkpt>
      <trkpt lat="49.77627" lon="4.82569">
        <ele>259</ele>
        <time>2020-11-13T10:20:07.000Z</time>
      </trkpt>
      <trkpt lat="49.77624" lon="4.8256">
        <ele>258</ele>
        <time>2020-11-13T10:20:08.000Z</time>
      </trkpt>
      <trkpt lat="49.77623" lon="4.8255">
        <ele>257</ele>
        <time>2020-11-13T10:20:09.000Z</time>
      </trkpt>
      <trkpt lat="49.77623" lon="4.82539">
        <ele>256</ele>
        <time>2020-11-13T10:20:10.000Z</time>
      </trkpt>
      <trkpt lat="49.77624" lon="4.8253">
        <ele>255</ele>
        <time>2020-11-13T10:20:11.000Z</time>
      </trkpt>
      <trkpt lat="49.77626" lon="4.82521">
        <ele>255</ele>
        <time>2020-11-13T10:20:12.000Z</time>
      </trkpt>
      <trkpt lat="49.77628" lon="4.82512">
        <ele>254</ele>
        <time>2020-11-13T10:20:13.000Z</time>
      </trkpt>
      <trkpt lat="49.77629" lon="4.82503">
        <ele>253</ele>
        <time>2020-11-13T10:20:14.000Z</time>
      </trkpt>
      <trkpt lat="49.77631" lon="4.82493">
        <ele>252</ele>
        <time>2020-11-13T10:20:15.000Z</time>
      </trkpt>
      <trkpt lat="49.77632" lon="4.82483">
        <ele>251</ele>
        <time>2020-11-13T10:20:16.000Z</time>
      </trkpt>
      <trkpt lat="49.77632" lon="4.82472">
        <ele>250</ele>
        <time>2020-11-13T10:20:17.000Z</time>
      </trkpt>
      <trkpt lat="49.77632" lon="4.82462">
        <ele>250</ele>
        <time>2020-11-13T10:20:18.000Z</time>
      </trkpt>
      <trkpt lat="49.77633" lon="4.82451">
        <ele>249</ele>
        <time>2020-11-13T10:20:19.000Z</time>
      </trkpt>
      <trkpt lat="49.77634" lon="4.82441">
        <ele>248</ele>
        <time>2020-11-13T10:20:20.000Z</time>
      </trkpt>
      <trkpt lat="49.77636" lon="4.82433">
        <ele>247</ele>
        <time>2020-11-13T10:20:21.000Z</time>
      </trkpt>
      <trkpt lat="49.77638" lon="4.82426">
        <ele>247</ele>
        <time>2020-11-13T10:20:22.000Z</time>
      </trkpt>
      <trkpt lat="49.7764" lon="4.82419">
        <ele>246</ele>
        <time>2020-11-13T10:20:23.000Z</time>
      </trkpt>
      <trkpt lat="49.77638" lon="4.82413">
        <ele>245</ele>
        <time>2020-11-13T10:20:24.000Z</time>
      </trkpt>
      <trkpt lat="49.77637" lon="4.8241">
        <ele>245</ele>
        <time>2020-11-13T10:20:25.000Z</time>
      </trkpt>
      <trkpt lat="49.77636" lon="4.82408">
        <ele>244</ele>
        <time>2020-11-13T10:20:26.000Z</time>
      </trkpt>
      <trkpt lat="49.77635" lon="4.82411">
        <ele>244</ele>
        <time>2020-11-13T10:20:27.000Z</time>
      </trkpt>
      <trkpt lat="49.77633" lon="4.82415">
        <ele>244</ele>
        <time>2020-11-13T10:20:28.000Z</time>
      </trkpt>
      <trkpt lat="49.77631" lon="4.82421">
        <ele>243</ele>
        <time>2020-11-13T10:20:29.000Z</time>
      </trkpt>
      <trkpt lat="49.77628" lon="4.8243">
        <ele>243</ele>
        <time>2020-11-13T10:20:30.000Z</time>
      </trkpt>
      <trkpt lat="49.77624" lon="4.82438">
        <ele>242</ele>
        <time>2020-11-13T10:20:31.000Z</time>
      </trkpt>
      <trkpt lat="49.7762" lon="4.82447">
        <ele>242</ele>
        <time>2020-11-13T10:20:32.000Z</time>
      </trkpt>
      <trkpt lat="49.77616" lon="4.82455">
        <ele>242</ele>
        <time>2020-11-13T10:20:33.000Z</time>
      </trkpt>
      <trkpt lat="49.7761" lon="4.82463">
        <ele>242</ele>
        <time>2020-11-13T10:20:34.000Z</time>
      </trkpt>
      <trkpt lat="49.77605" lon="4.8247">
        <ele>241</ele>
        <time>2020-11-13T10:20:35.000Z</time>
      </trkpt>
      <trkpt lat="49.77599" lon="4.82475">
        <ele>241</ele>
        <time>2020-11-13T10:20:36.000Z</time>
      </trkpt>
      <trkpt lat="49.77592" lon="4.8248">
        <ele>241</ele>
        <time>2020-11-13T10:20:37.000Z</time>
      </trkpt>
      <trkpt lat="49.77585" lon="4.82483">
        <ele>241</ele>
        <time>2020-11-13T10:20:38.000Z</time>
      </trkpt>
      <trkpt lat="49.77577" lon="4.82486">
        <ele>240</ele>
        <time>2020-11-13T10:20:39.000Z</time>
      </trkpt>
      <trkpt lat="49.77569" lon="4.82489">
        <ele>240</ele>
        <time>2020-11-13T10:20:40.000Z</time>
      </trkpt>
      <trkpt lat="49.77562" lon="4.82491">
        <ele>239</ele>
        <time>2020-11-13T10:20:41.000Z</time>
      </trkpt>
      <trkpt lat="49.77556" lon="4.82495">
        <ele>239</ele>
        <time>2020-11-13T10:20:42.000Z</time>
      </trkpt>
      <trkpt lat="49.7755" lon="4.82501">
        <ele>238</ele>
        <time>2020-11-13T10:20:43.000Z</time>
      </trkpt>
      <trkpt lat="49.77544" lon="4.82506">
        <ele>237</ele>
        <time>2020-11-13T10:20:44.000Z</time>
      </trkpt>
      <trkpt lat="49.77538" lon="4.8251">
        <ele>236</ele>
        <time>2020-11-13T10:20:45.000Z</time>
      </trkpt>
      <trkpt lat="49.77532" lon="4.82512">
        <ele>235</ele>
        <time>2020-11-13T10:20:46.000Z</time>
      </trkpt>
      <trkpt lat="49.77526" lon="4.82511">
        <ele>234</ele>
        <time>2020-11-13T10:20:47.000Z</time>
      </trkpt>
      <trkpt lat="49.77521" lon="4.82509">
        <ele>233</ele>
        <time>2020-11-13T10:20:48.000Z</time>
      </trkpt>
      <trkpt lat="49.77516" lon="4.82507">
        <ele>232</ele>
        <time>2020-11-13T10:20:49.000Z</time>
      </trkpt>
      <trkpt lat="49.77511" lon="4.82506">
        <ele>232</ele>
        <time>2020-11-13T10:20:50.000Z</time>
      </trkpt>
      <trkpt lat="49.77507" lon="4.82505">
        <ele>231</ele>
        <time>2020-11-13T10:20:51.000Z</time>
      </trkpt>
      <trkpt lat="49.77503" lon="4.82503">
        <ele>230</ele>
        <time>2020-11-13T10:20:52.000Z</time>
      </trkpt>
      <trkpt lat="49.77499" lon="4.82501">
        <ele>230</ele>
        <time>2020-11-13T10:20:53.000Z</time>
      </trkpt>
      <trkpt lat="49.77494" lon="4.82499">
        <ele>229</ele>
        <time>2020-11-13T10:20:54.000Z</time>
      </trkpt>
      <trkpt lat="49.7749" lon="4.82496">
        <ele>229</ele>
        <time>2020-11-13T10:20:55.000Z</time>
      </trkpt>
      <trkpt lat="49.77486" lon="4.82494">
        <ele>228</ele>
        <time>2020-11-13T10:20:56.000Z</time>
      </trkpt>
      <trkpt lat="49.77481" lon="4.82492">
        <ele>228</ele>
        <time>2020-11-13T10:20:57.000Z</time>
      </trkpt>
      <trkpt lat="49.77477" lon="4.82489">
        <ele>227</ele>
        <time>2020-11-13T10:20:58.000Z</time>
      </trkpt>
      <trkpt lat="49.77472" lon="4.82487">
        <ele>227</ele>
        <time>2020-11-13T10:20:59.000Z</time>
      </trkpt>
      <trkpt lat="49.77468" lon="4.82485">
        <ele>226</ele>
        <time>2020-11-13T10:21:00.000Z</time>
      </trkpt>
      <trkpt lat="49.77463" lon="4.82483">
        <ele>226</ele>
        <time>2020-11-13T10:21:01.000Z</time>
      </trkpt>
      <trkpt lat="49.77459" lon="4.82479">
        <ele>226</ele>
        <time>2020-11-13T10:21:02.000Z</time>
      </trkpt>
      <trkpt lat="49.77455" lon="4.82477">
        <ele>225</ele>
        <time>2020-11-13T10:21:03.000Z</time>
      </trkpt>
      <trkpt lat="49.7745" lon="4.82476">
        <ele>225</ele>
        <time>2020-11-13T10:21:04.000Z</time>
      </trkpt>
      <trkpt lat="49.77445" lon="4.82475">
        <ele>224</ele>
        <time>2020-11-13T10:21:05.000Z</time>
      </trkpt>
      <trkpt lat="49.7744" lon="4.82473">
        <ele>224</ele>
        <time>2020-11-13T10:21:06.000Z</time>
      </trkpt>
      <trkpt lat="49.77435" lon="4.82471">
        <ele>223</ele>
        <time>2020-11-13T10:21:07.000Z</time>
      </trkpt>
      <trkpt lat="49.7743" lon="4.82469">
        <ele>223</ele>
        <time>2020-11-13T10:21:08.000Z</time>
      </trkpt>
      <trkpt lat="49.77426" lon="4.82467">
        <ele>223</ele>
        <time>2020-11-13T10:21:09.000Z</time>
      </trkpt>
      <trkpt lat="49.77421" lon="4.82465">
        <ele>223</ele>
        <time>2020-11-13T10:21:10.000Z</time>
      </trkpt>
      <trkpt lat="49.77416" lon="4.82463">
        <ele>222</ele>
        <time>2020-11-13T10:21:11.000Z</time>
      </trkpt>
      <trkpt lat="49.77412" lon="4.82461">
        <ele>222</ele>
        <time>2020-11-13T10:21:12.000Z</time>
      </trkpt>
      <trkpt lat="49.77407" lon="4.82459">
        <ele>222</ele>
        <time>2020-11-13T10:21:13.000Z</time>
      </trkpt>
      <trkpt lat="49.77403" lon="4.82458">
        <ele>222</ele>
        <time>2020-11-13T10:21:14.000Z</time>
      </trkpt>
      <trkpt lat="49.77398" lon="4.82456">
        <ele>222</ele>
        <time>2020-11-13T10:21:15.000Z</time>
      </trkpt>
      <trkpt lat="49.77394" lon="4.82454">
        <ele>222</ele>
        <time>2020-11-13T10:21:16.000Z</time>
      </trkpt>
      <trkpt lat="49.77389" lon="4.82452">
        <ele>222</ele>
        <time>2020-11-13T10:21:17.000Z</time>
      </trkpt>
      <trkpt lat="49.77385" lon="4.82451">
        <ele>221</ele>
        <time>2020-11-13T10:21:18.000Z</time>
      </trkpt>
      <trkpt lat="49.7738" lon="4.82449">
        <ele>221</ele>
        <time>2020-11-13T10:21:19.000Z</time>
      </trkpt>
      <trkpt lat="49.77375" lon="4.82448">
        <ele>221</ele>
        <time>2020-11-13T10:21:20.000Z</time>
      </trkpt>
      <trkpt lat="49.7737" lon="4.82448">
        <ele>221</ele>
        <time>2020-11-13T10:21:21.000Z</time>
      </trkpt>
      <trkpt lat="49.77365" lon="4.82447">
        <ele>221</ele>
        <time>2020-11-13T10:21:22.000Z</time>
      </trkpt>
      <trkpt lat="49.7736" lon="4.82446">
        <ele>221</ele>
        <time>2020-11-13T10:21:23.000Z</time>
      </trkpt>
      <trkpt lat="49.77355" lon="4.82445">
        <ele>221</ele>
        <time>2020-11-13T10:21:24.000Z</time>
      </trkpt>
      <trkpt lat="49.77351" lon="4.82443">
        <ele>221</ele>
        <time>2020-11-13T10:21:25.000Z</time>
      </trkpt>
      <trkpt lat="49.77346" lon="4.82442">
        <ele>221</ele>
        <time>2020-11-13T10:21:26.000Z</time>
      </trkpt>
      <trkpt lat="49.77341" lon="4.8244">
        <ele>221</ele>
        <time>2020-11-13T10:21:27.000Z</time>
      </trkpt>
      <trkpt lat="49.77336" lon="4.82439">
        <ele>221</ele>
        <time>2020-11-13T10:21:28.000Z</time>
      </trkpt>
      <trkpt lat="49.77331" lon="4.82437">
        <ele>221</ele>
        <time>2020-11-13T10:21:29.000Z</time>
      </trkpt>
      <trkpt lat="49.77326" lon="4.82435">
        <ele>221</ele>
        <time>2020-11-13T10:21:30.000Z</time>
      </trkpt>
      <trkpt lat="49.77321" lon="4.82433">
        <ele>221</ele>
        <time>2020-11-13T10:21:31.000Z</time>
      </trkpt>
      <trkpt lat="49.77317" lon="4.82432">
        <ele>221</ele>
        <time>2020-11-13T10:21:32.000Z</time>
      </trkpt>
      <trkpt lat="49.77312" lon="4.82431">
        <ele>221</ele>
        <time>2020-11-13T10:21:33.000Z</time>
      </trkpt>
      <trkpt lat="49.77308" lon="4.82429">
        <ele>221</ele>
        <time>2020-11-13T10:21:34.000Z</time>
      </trkpt>
      <trkpt lat="49.77304" lon="4.82428">
        <ele>221</ele>
        <time>2020-11-13T10:21:35.000Z</time>
      </trkpt>
      <trkpt lat="49.773" lon="4.82426">
        <ele>222</ele>
        <time>2020-11-13T10:21:36.000Z</time>
      </trkpt>
      <trkpt lat="49.77297" lon="4.82426">
        <ele>222</ele>
        <time>2020-11-13T10:21:37.000Z</time>
      </trkpt>
      <trkpt lat="49.77294" lon="4.82425">
        <ele>222</ele>
        <time>2020-11-13T10:21:38.000Z</time>
      </trkpt>
      <trkpt lat="49.7729" lon="4.82425">
        <ele>222</ele>
        <time>2020-11-13T10:21:39.000Z</time>
      </trkpt>
      <trkpt lat="49.77287" lon="4.82424">
        <ele>222</ele>
        <time>2020-11-13T10:21:40.000Z</time>
      </trkpt>
      <trkpt lat="49.77283" lon="4.82423">
        <ele>222</ele>
        <time>2020-11-13T10:21:41.000Z</time>
      </trkpt>
      <trkpt lat="49.77279" lon="4.82423">
        <ele>222</ele>
        <time>2020-11-13T10:21:42.000Z</time>
      </trkpt>
      <trkpt lat="49.77276" lon="4.82422">
        <ele>223</ele>
        <time>2020-11-13T10:21:43.000Z</time>
      </trkpt>
      <trkpt lat="49.77273" lon="4.82421">
        <ele>223</ele>
        <time>2020-11-13T10:21:44.000Z</time>
      </trkpt>
      <trkpt lat="49.7727" lon="4.8242">
        <ele>223</ele>
        <time>2020-11-13T10:21:45.000Z</time>
      </trkpt>
      <trkpt lat="49.77266" lon="4.82418">
        <ele>223</ele>
        <time>2020-11-13T10:21:46.000Z</time>
      </trkpt>
      <trkpt lat="49.77263" lon="4.82417">
        <ele>223</ele>
        <time>2020-11-13T10:21:47.000Z</time>
      </trkpt>
      <trkpt lat="49.7726" lon="4.82416">
        <ele>223</ele>
        <time>2020-11-13T10:21:48.000Z</time>
      </trkpt>
      <trkpt lat="49.77257" lon="4.82415">
        <ele>223</ele>
        <time>2020-11-13T10:21:49.000Z</time>
      </trkpt>
      <trkpt lat="49.77253" lon="4.82413">
        <ele>223</ele>
        <time>2020-11-13T10:21:50.000Z</time>
      </trkpt>
      <trkpt lat="49.7725" lon="4.82412">
        <ele>223</ele>
        <time>2020-11-13T10:21:51.000Z</time>
      </trkpt>
      <trkpt lat="49.77246" lon="4.82411">
        <ele>223</ele>
        <time>2020-11-13T10:21:52.000Z</time>
      </trkpt>
      <trkpt lat="49.77243" lon="4.8241">
        <ele>223</ele>
        <time>2020-11-13T10:21:53.000Z</time>
      </trkpt>
      <trkpt lat="49.7724" lon="4.82409">
        <ele>223</ele>
        <time>2020-11-13T10:21:54.000Z</time>
      </trkpt>
      <trkpt lat="49.77236" lon="4.82408">
        <ele>223</ele>
        <time>2020-11-13T10:21:55.000Z</time>
      </trkpt>
      <trkpt lat="49.77232" lon="4.82407">
        <ele>223</ele>
        <time>2020-11-13T10:21:56.000Z</time>
      </trkpt>
      <trkpt lat="49.77228" lon="4.82407">
        <ele>223</ele>
        <time>2020-11-13T10:21:57.000Z</time>
      </trkpt>
      <trkpt lat="49.77224" lon="4.82406">
        <ele>223</ele>
        <time>2020-11-13T10:21:58.000Z</time>
      </trkpt>
      <trkpt lat="49.77219" lon="4.82405">
        <ele>224</ele>
        <time>2020-11-13T10:21:59.000Z</time>
      </trkpt>
      <trkpt lat="49.77215" lon="4.82403">
        <ele>224</ele>
        <time>2020-11-13T10:22:00.000Z</time>
      </trkpt>
      <trkpt lat="49.77211" lon="4.82402">
        <ele>224</ele>
        <time>2020-11-13T10:22:01.000Z</time>
      </trkpt>
      <trkpt lat="49.77207" lon="4.82401">
        <ele>224</ele>
        <time>2020-11-13T10:22:02.000Z</time>
      </trkpt>
      <trkpt lat="49.77203" lon="4.824">
        <ele>224</ele>
        <time>2020-11-13T10:22:03.000Z</time>
      </trkpt>
      <trkpt lat="49.77199" lon="4.82398">
        <ele>225</ele>
        <time>2020-11-13T10:22:04.000Z</time>
      </trkpt>
      <trkpt lat="49.77195" lon="4.82397">
        <ele>225</ele>
        <time>2020-11-13T10:22:05.000Z</time>
      </trkpt>
      <trkpt lat="49.77191" lon="4.82396">
        <ele>225</ele>
        <time>2020-11-13T10:22:06.000Z</time>
      </trkpt>
      <trkpt lat="49.77188" lon="4.82395">
        <ele>225</ele>
        <time>2020-11-13T10:22:07.000Z</time>
      </trkpt>
      <trkpt lat="49.77185" lon="4.82394">
        <ele>225</ele>
        <time>2020-11-13T10:22:08.000Z</time>
      </trkpt>
      <trkpt lat="49.77181" lon="4.82393">
        <ele>225</ele>
        <time>2020-11-13T10:22:09.000Z</time>
      </trkpt>
      <trkpt lat="49.77178" lon="4.82392">
        <ele>225</ele>
        <time>2020-11-13T10:22:10.000Z</time>
      </trkpt>
      <trkpt lat="49.77174" lon="4.8239">
        <ele>225</ele>
        <time>2020-11-13T10:22:11.000Z</time>
      </trkpt>
      <trkpt lat="49.77171" lon="4.82389">
        <ele>225</ele>
        <time>2020-11-13T10:22:12.000Z</time>
      </trkpt>
      <trkpt lat="49.77167" lon="4.82388">
        <ele>225</ele>
        <time>2020-11-13T10:22:13.000Z</time>
      </trkpt>
      <trkpt lat="49.77163" lon="4.82387">
        <ele>225</ele>
        <time>2020-11-13T10:22:14.000Z</time>
      </trkpt>
      <trkpt lat="49.77159" lon="4.82387">
        <ele>225</ele>
        <time>2020-11-13T10:22:15.000Z</time>
      </trkpt>
      <trkpt lat="49.77156" lon="4.82385">
        <ele>225</ele>
        <time>2020-11-13T10:22:16.000Z</time>
      </trkpt>
      <trkpt lat="49.77152" lon="4.82384">
        <ele>225</ele>
        <time>2020-11-13T10:22:17.000Z</time>
      </trkpt>
      <trkpt lat="49.77148" lon="4.82383">
        <ele>225</ele>
        <time>2020-11-13T10:22:18.000Z</time>
      </trkpt>
      <trkpt lat="49.77144" lon="4.82383">
        <ele>225</ele>
        <time>2020-11-13T10:22:19.000Z</time>
      </trkpt>
      <trkpt lat="49.77141" lon="4.82382">
        <ele>225</ele>
        <time>2020-11-13T10:22:20.000Z</time>
      </trkpt>
      <trkpt lat="49.77137" lon="4.82382">
        <ele>226</ele>
        <time>2020-11-13T10:22:21.000Z</time>
      </trkpt>
      <trkpt lat="49.77134" lon="4.82381">
        <ele>226</ele>
        <time>2020-11-13T10:22:22.000Z</time>
      </trkpt>
      <trkpt lat="49.77131" lon="4.8238">
        <ele>226</ele>
        <time>2020-11-13T10:22:23.000Z</time>
      </trkpt>
      <trkpt lat="49.77129" lon="4.82379">
        <ele>226</ele>
        <time>2020-11-13T10:22:24.000Z</time>
      </trkpt>
      <trkpt lat="49.77126" lon="4.82378">
        <ele>227</ele>
        <time>2020-11-13T10:22:25.000Z</time>
      </trkpt>
      <trkpt lat="49.77122" lon="4.82377">
        <ele>227</ele>
        <time>2020-11-13T10:22:26.000Z</time>
      </trkpt>
      <trkpt lat="49.7712" lon="4.82377">
        <ele>227</ele>
        <time>2020-11-13T10:22:27.000Z</time>
      </trkpt>
      <trkpt lat="49.77116" lon="4.82378">
        <ele>228</ele>
        <time>2020-11-13T10:22:28.000Z</time>
      </trkpt>
      <trkpt lat="49.77112" lon="4.82378">
        <ele>228</ele>
        <time>2020-11-13T10:22:29.000Z</time>
      </trkpt>
      <trkpt lat="49.77109" lon="4.82378">
        <ele>228</ele>
        <time>2020-11-13T10:22:30.000Z</time>
      </trkpt>
      <trkpt lat="49.77106" lon="4.82379">
        <ele>228</ele>
        <time>2020-11-13T10:22:31.000Z</time>
      </trkpt>
      <trkpt lat="49.77102" lon="4.8238">
        <ele>229</ele>
        <time>2020-11-13T10:22:32.000Z</time>
      </trkpt>
      <trkpt lat="49.77098" lon="4.82381">
        <ele>229</ele>
        <time>2020-11-13T10:22:33.000Z</time>
      </trkpt>
      <trkpt lat="49.77094" lon="4.82382">
        <ele>229</ele>
        <time>2020-11-13T10:22:34.000Z</time>
      </trkpt>
      <trkpt lat="49.7709" lon="4.82382">
        <ele>229</ele>
        <time>2020-11-13T10:22:35.000Z</time>
      </trkpt>
      <trkpt lat="49.77086" lon="4.82382">
        <ele>229</ele>
        <time>2020-11-13T10:22:36.000Z</time>
      </trkpt>
      <trkpt lat="49.77082" lon="4.82383">
        <ele>230</ele>
        <time>2020-11-13T10:22:37.000Z</time>
      </trkpt>
      <trkpt lat="49.77077" lon="4.82384">
        <ele>230</ele>
        <time>2020-11-13T10:22:38.000Z</time>
      </trkpt>
      <trkpt lat="49.77074" lon="4.82383">
        <ele>230</ele>
        <time>2020-11-13T10:22:39.000Z</time>
      </trkpt>
      <trkpt lat="49.77071" lon="4.82383">
        <ele>230</ele>
        <time>2020-11-13T10:22:40.000Z</time>
      </trkpt>
      <trkpt lat="49.77067" lon="4.82383">
        <ele>230</ele>
        <time>2020-11-13T10:22:41.000Z</time>
      </trkpt>
      <trkpt lat="49.77064" lon="4.82383">
        <ele>230</ele>
        <time>2020-11-13T10:22:42.000Z</time>
      </trkpt>
      <trkpt lat="49.77061" lon="4.82382">
        <ele>230</ele>
        <time>2020-11-13T10:22:43.000Z</time>
      </trkpt>
      <trkpt lat="49.77058" lon="4.82382">
        <ele>230</ele>
        <time>2020-11-13T10:22:44.000Z</time>
      </trkpt>
      <trkpt lat="49.77054" lon="4.82382">
        <ele>230</ele>
        <time>2020-11-13T10:22:45.000Z</time>
      </trkpt>
      <trkpt lat="49.77051" lon="4.82382">
        <ele>230</ele>
        <time>2020-11-13T10:22:46.000Z</time>
      </trkpt>
      <trkpt lat="49.77047" lon="4.82382">
        <ele>230</ele>
        <time>2020-11-13T10:22:47.000Z</time>
      </trkpt>
      <trkpt lat="49.77044" lon="4.82382">
        <ele>229</ele>
        <time>2020-11-13T10:22:48.000Z</time>
      </trkpt>
      <trkpt lat="49.7704" lon="4.82382">
        <ele>229</ele>
        <time>2020-11-13T10:22:49.000Z</time>
      </trkpt>
      <trkpt lat="49.77037" lon="4.82382">
        <ele>229</ele>
        <time>2020-11-13T10:22:50.000Z</time>
      </trkpt>
      <trkpt lat="49.77034" lon="4.82381">
        <ele>229</ele>
        <time>2020-11-13T10:22:51.000Z</time>
      </trkpt>
      <trkpt lat="49.7703" lon="4.82381">
        <ele>229</ele>
        <time>2020-11-13T10:22:52.000Z</time>
      </trkpt>
      <trkpt lat="49.77027" lon="4.8238">
        <ele>229</ele>
        <time>2020-11-13T10:22:53.000Z</time>
      </trkpt>
      <trkpt lat="49.77025" lon="4.82379">
        <ele>229</ele>
        <time>2020-11-13T10:22:54.000Z</time>
      </trkpt>
      <trkpt lat="49.77022" lon="4.82378">
        <ele>228</ele>
        <time>2020-11-13T10:22:55.000Z</time>
      </trkpt>
      <trkpt lat="49.7702" lon="4.82377">
        <ele>228</ele>
        <time>2020-11-13T10:22:56.000Z</time>
      </trkpt>
      <trkpt lat="49.77017" lon="4.82376">
        <ele>228</ele>
        <time>2020-11-13T10:22:57.000Z</time>
      </trkpt>
      <trkpt lat="49.77015" lon="4.82374">
        <ele>228</ele>
        <time>2020-11-13T10:22:58.000Z</time>
      </trkpt>
      <trkpt lat="49.77012" lon="4.82371">
        <ele>228</ele>
        <time>2020-11-13T10:22:59.000Z</time>
      </trkpt>
      <trkpt lat="49.77009" lon="4.82369">
        <ele>228</ele>
        <time>2020-11-13T10:23:00.000Z</time>
      </trkpt>
      <trkpt lat="49.77006" lon="4.82366">
        <ele>228</ele>
        <time>2020-11-13T10:23:01.000Z</time>
      </trkpt>
      <trkpt lat="49.77003" lon="4.82363">
        <ele>228</ele>
        <time>2020-11-13T10:23:02.000Z</time>
      </trkpt>
      <trkpt lat="49.76999" lon="4.82359">
        <ele>228</ele>
        <time>2020-11-13T10:23:03.000Z</time>
      </trkpt>
      <trkpt lat="49.76996" lon="4.82356">
        <ele>228</ele>
        <time>2020-11-13T10:23:04.000Z</time>
      </trkpt>
      <trkpt lat="49.76992" lon="4.82353">
        <ele>228</ele>
        <time>2020-11-13T10:23:05.000Z</time>
      </trkpt>
      <trkpt lat="49.76989" lon="4.8235">
        <ele>228</ele>
        <time>2020-11-13T10:23:06.000Z</time>
      </trkpt>
      <trkpt lat="49.76985" lon="4.82346">
        <ele>228</ele>
        <time>2020-11-13T10:23:07.000Z</time>
      </trkpt>
      <trkpt lat="49.76982" lon="4.82343">
        <ele>228</ele>
        <time>2020-11-13T10:23:08.000Z</time>
      </trkpt>
      <trkpt lat="49.76978" lon="4.82338">
        <ele>228</ele>
        <time>2020-11-13T10:23:09.000Z</time>
      </trkpt>
      <trkpt lat="49.76974" lon="4.82335">
        <ele>228</ele>
        <time>2020-11-13T10:23:10.000Z</time>
      </trkpt>
      <trkpt lat="49.7697" lon="4.8233">
        <ele>228</ele>
        <time>2020-11-13T10:23:11.000Z</time>
      </trkpt>
      <trkpt lat="49.76966" lon="4.82326">
        <ele>228</ele>
        <time>2020-11-13T10:23:12.000Z</time>
      </trkpt>
      <trkpt lat="49.76961" lon="4.82323">
        <ele>228</ele>
        <time>2020-11-13T10:23:13.000Z</time>
      </trkpt>
      <trkpt lat="49.76956" lon="4.82319">
        <ele>228</ele>
        <time>2020-11-13T10:23:14.000Z</time>
      </trkpt>
      <trkpt lat="49.76952" lon="4.82314">
        <ele>228</ele>
        <time>2020-11-13T10:23:15.000Z</time>
      </trkpt>
      <trkpt lat="49.76948" lon="4.82309">
        <ele>228</ele>
        <time>2020-11-13T10:23:16.000Z</time>
      </trkpt>
      <trkpt lat="49.76943" lon="4.82304">
        <ele>228</ele>
        <time>2020-11-13T10:23:17.000Z</time>
      </trkpt>
      <trkpt lat="49.76939" lon="4.823">
        <ele>228</ele>
        <time>2020-11-13T10:23:18.000Z</time>
      </trkpt>
      <trkpt lat="49.76935" lon="4.82295">
        <ele>228</ele>
        <time>2020-11-13T10:23:19.000Z</time>
      </trkpt>
      <trkpt lat="49.7693" lon="4.8229">
        <ele>229</ele>
        <time>2020-11-13T10:23:20.000Z</time>
      </trkpt>
      <trkpt lat="49.76926" lon="4.82286">
        <ele>229</ele>
        <time>2020-11-13T10:23:21.000Z</time>
      </trkpt>
      <trkpt lat="49.76922" lon="4.82281">
        <ele>229</ele>
        <time>2020-11-13T10:23:22.000Z</time>
      </trkpt>
      <trkpt lat="49.76919" lon="4.82276">
        <ele>229</ele>
        <time>2020-11-13T10:23:23.000Z</time>
      </trkpt>
      <trkpt lat="49.76915" lon="4.82271">
        <ele>229</ele>
        <time>2020-11-13T10:23:24.000Z</time>
      </trkpt>
      <trkpt lat="49.76911" lon="4.82266">
        <ele>229</ele>
        <time>2020-11-13T10:23:25.000Z</time>
      </trkpt>
      <trkpt lat="49.76907" lon="4.82261">
        <ele>229</ele>
        <time>2020-11-13T10:23:26.000Z</time>
      </trkpt>
      <trkpt lat="49.76903" lon="4.82257">
        <ele>230</ele>
        <time>2020-11-13T10:23:27.000Z</time>
      </trkpt>
      <trkpt lat="49.76899" lon="4.82253">
        <ele>230</ele>
        <time>2020-11-13T10:23:28.000Z</time>
      </trkpt>
      <trkpt lat="49.76895" lon="4.82247">
        <ele>230</ele>
        <time>2020-11-13T10:23:29.000Z</time>
      </trkpt>
      <trkpt lat="49.76892" lon="4.82241">
        <ele>230</ele>
        <time>2020-11-13T10:23:30.000Z</time>
      </trkpt>
      <trkpt lat="49.76889" lon="4.82235">
        <ele>230</ele>
        <time>2020-11-13T10:23:31.000Z</time>
      </trkpt>
      <trkpt lat="49.76886" lon="4.8223">
        <ele>230</ele>
        <time>2020-11-13T10:23:32.000Z</time>
      </trkpt>
      <trkpt lat="49.76883" lon="4.82224">
        <ele>231</ele>
        <time>2020-11-13T10:23:33.000Z</time>
      </trkpt>
      <trkpt lat="49.76881" lon="4.82219">
        <ele>231</ele>
        <time>2020-11-13T10:23:34.000Z</time>
      </trkpt>
      <trkpt lat="49.76878" lon="4.82213">
        <ele>231</ele>
        <time>2020-11-13T10:23:35.000Z</time>
      </trkpt>
      <trkpt lat="49.76876" lon="4.82208">
        <ele>231</ele>
        <time>2020-11-13T10:23:36.000Z</time>
      </trkpt>
      <trkpt lat="49.76874" lon="4.82203">
        <ele>231</ele>
        <time>2020-11-13T10:23:37.000Z</time>
      </trkpt>
      <trkpt lat="49.76872" lon="4.82197">
        <ele>232</ele>
        <time>2020-11-13T10:23:38.000Z</time>
      </trkpt>
      <trkpt lat="49.76869" lon="4.82191">
        <ele>232</ele>
        <time>2020-11-13T10:23:39.000Z</time>
      </trkpt>
      <trkpt lat="49.76867" lon="4.82186">
        <ele>232</ele>
        <time>2020-11-13T10:23:40.000Z</time>
      </trkpt>
      <trkpt lat="49.76864" lon="4.82181">
        <ele>232</ele>
        <time>2020-11-13T10:23:41.000Z</time>
      </trkpt>
      <trkpt lat="49.76862" lon="4.82175">
        <ele>232</ele>
        <time>2020-11-13T10:23:42.000Z</time>
      </trkpt>
      <trkpt lat="49.7686" lon="4.82169">
        <ele>232</ele>
        <time>2020-11-13T10:23:43.000Z</time>
      </trkpt>
      <trkpt lat="49.76857" lon="4.82163">
        <ele>232</ele>
        <time>2020-11-13T10:23:44.000Z</time>
      </trkpt>
      <trkpt lat="49.76855" lon="4.82157">
        <ele>233</ele>
        <time>2020-11-13T10:23:45.000Z</time>
      </trkpt>
      <trkpt lat="49.76852" lon="4.82151">
        <ele>233</ele>
        <time>2020-11-13T10:23:46.000Z</time>
      </trkpt>
      <trkpt lat="49.76849" lon="4.82144">
        <ele>233</ele>
        <time>2020-11-13T10:23:47.000Z</time>
      </trkpt>
      <trkpt lat="49.76846" lon="4.82137">
        <ele>233</ele>
        <time>2020-11-13T10:23:48.000Z</time>
      </trkpt>
      <trkpt lat="49.76843" lon="4.8213">
        <ele>233</ele>
        <time>2020-11-13T10:23:49.000Z</time>
      </trkpt>
      <trkpt lat="49.7684" lon="4.82123">
        <ele>233</ele>
        <time>2020-11-13T10:23:50.000Z</time>
      </trkpt>
      <trkpt lat="49.76838" lon="4.82115">
        <ele>233</ele>
        <time>2020-11-13T10:23:51.000Z</time>
      </trkpt>
      <trkpt lat="49.76835" lon="4.82107">
        <ele>233</ele>
        <time>2020-11-13T10:23:52.000Z</time>
      </trkpt>
      <trkpt lat="49.76832" lon="4.82099">
        <ele>233</ele>
        <time>2020-11-13T10:23:53.000Z</time>
      </trkpt>
      <trkpt lat="49.76829" lon="4.82092">
        <ele>233</ele>
        <time>2020-11-13T10:23:54.000Z</time>
      </trkpt>
      <trkpt lat="49.76826" lon="4.82084">
        <ele>233</ele>
        <time>2020-11-13T10:23:55.000Z</time>
      </trkpt>
      <trkpt lat="49.76824" lon="4.82076">
        <ele>233</ele>
        <time>2020-11-13T10:23:56.000Z</time>
      </trkpt>
      <trkpt lat="49.76821" lon="4.82068">
        <ele>233</ele>
        <time>2020-11-13T10:23:57.000Z</time>
      </trkpt>
      <trkpt lat="49.76818" lon="4.8206">
        <ele>233</ele>
        <time>2020-11-13T10:23:58.000Z</time>
      </trkpt>
      <trkpt lat="49.76815" lon="4.82052">
        <ele>233</ele>
        <time>2020-11-13T10:23:59.000Z</time>
      </trkpt>
      <trkpt lat="49.76812" lon="4.82044">
        <ele>233</ele>
        <time>2020-11-13T10:24:00.000Z</time>
      </trkpt>
      <trkpt lat="49.7681" lon="4.82035">
        <ele>233</ele>
        <time>2020-11-13T10:24:01.000Z</time>
      </trkpt>
      <trkpt lat="49.76807" lon="4.82027">
        <ele>233</ele>
        <time>2020-11-13T10:24:02.000Z</time>
      </trkpt>
      <trkpt lat="49.76805" lon="4.82019">
        <ele>233</ele>
        <time>2020-11-13T10:24:03.000Z</time>
      </trkpt>
      <trkpt lat="49.76802" lon="4.82011">
        <ele>233</ele>
        <time>2020-11-13T10:24:04.000Z</time>
      </trkpt>
      <trkpt lat="49.768" lon="4.82002">
        <ele>233</ele>
        <time>2020-11-13T10:24:05.000Z</time>
      </trkpt>
      <trkpt lat="49.76798" lon="4.81994">
        <ele>233</ele>
        <time>2020-11-13T10:24:06.000Z</time>
      </trkpt>
      <trkpt lat="49.76795" lon="4.81986">
        <ele>234</ele>
        <time>2020-11-13T10:24:07.000Z</time>
      </trkpt>
      <trkpt lat="49.76793" lon="4.81978">
        <ele>234</ele>
        <time>2020-11-13T10:24:08.000Z</time>
      </trkpt>
      <trkpt lat="49.76791" lon="4.81969">
        <ele>234</ele>
        <time>2020-11-13T10:24:09.000Z</time>
      </trkpt>
      <trkpt lat="49.76789" lon="4.81961">
        <ele>234</ele>
        <time>2020-11-13T10:24:10.000Z</time>
      </trkpt>
      <trkpt lat="49.76786" lon="4.81953">
        <ele>234</ele>
        <time>2020-11-13T10:24:11.000Z</time>
      </trkpt>
      <trkpt lat="49.76784" lon="4.81945">
        <ele>234</ele>
        <time>2020-11-13T10:24:12.000Z</time>
      </trkpt>
      <trkpt lat="49.76784" lon="4.81936">
        <ele>234</ele>
        <time>2020-11-13T10:24:13.000Z</time>
      </trkpt>
      <trkpt lat="49.76784" lon="4.81927">
        <ele>234</ele>
        <time>2020-11-13T10:24:14.000Z</time>
      </trkpt>
      <trkpt lat="49.76785" lon="4.81918">
        <ele>234</ele>
        <time>2020-11-13T10:24:15.000Z</time>
      </trkpt>
      <trkpt lat="49.76787" lon="4.81909">
        <ele>234</ele>
        <time>2020-11-13T10:24:16.000Z</time>
      </trkpt>
      <trkpt lat="49.76788" lon="4.81901">
        <ele>234</ele>
        <time>2020-11-13T10:24:17.000Z</time>
      </trkpt>
      <trkpt lat="49.76789" lon="4.81893">
        <ele>234</ele>
        <time>2020-11-13T10:24:18.000Z</time>
      </trkpt>
      <trkpt lat="49.7679" lon="4.81885">
        <ele>234</ele>
        <time>2020-11-13T10:24:19.000Z</time>
      </trkpt>
      <trkpt lat="49.7679" lon="4.81876">
        <ele>234</ele>
        <time>2020-11-13T10:24:20.000Z</time>
      </trkpt>
      <trkpt lat="49.76791" lon="4.81868">
        <ele>234</ele>
        <time>2020-11-13T10:24:21.000Z</time>
      </trkpt>
      <trkpt lat="49.76791" lon="4.8186">
        <ele>234</ele>
        <time>2020-11-13T10:24:22.000Z</time>
      </trkpt>
      <trkpt lat="49.76791" lon="4.81852">
        <ele>235</ele>
        <time>2020-11-13T10:24:23.000Z</time>
      </trkpt>
      <trkpt lat="49.76791" lon="4.81845">
        <ele>235</ele>
        <time>2020-11-13T10:24:24.000Z</time>
      </trkpt>
      <trkpt lat="49.76791" lon="4.81837">
        <ele>235</ele>
        <time>2020-11-13T10:24:25.000Z</time>
      </trkpt>
      <trkpt lat="49.76791" lon="4.81829">
        <ele>235</ele>
        <time>2020-11-13T10:24:26.000Z</time>
      </trkpt>
      <trkpt lat="49.7679" lon="4.81822">
        <ele>235</ele>
        <time>2020-11-13T10:24:27.000Z</time>
      </trkpt>
      <trkpt lat="49.76788" lon="4.81815">
        <ele>235</ele>
        <time>2020-11-13T10:24:28.000Z</time>
      </trkpt>
      <trkpt lat="49.76787" lon="4.81808">
        <ele>235</ele>
        <time>2020-11-13T10:24:29.000Z</time>
      </trkpt>
      <trkpt lat="49.76785" lon="4.81802">
        <ele>235</ele>
        <time>2020-11-13T10:24:30.000Z</time>
      </trkpt>
      <trkpt lat="49.76784" lon="4.81795">
        <ele>235</ele>
        <time>2020-11-13T10:24:31.000Z</time>
      </trkpt>
      <trkpt lat="49.76785" lon="4.81789">
        <ele>236</ele>
        <time>2020-11-13T10:24:32.000Z</time>
      </trkpt>
      <trkpt lat="49.76787" lon="4.81785">
        <ele>236</ele>
        <time>2020-11-13T10:24:33.000Z</time>
      </trkpt>
      <trkpt lat="49.7679" lon="4.81783">
        <ele>236</ele>
        <time>2020-11-13T10:24:34.000Z</time>
      </trkpt>
      <trkpt lat="49.76794" lon="4.81783">
        <ele>236</ele>
        <time>2020-11-13T10:24:35.000Z</time>
      </trkpt>
      <trkpt lat="49.76798" lon="4.81783">
        <ele>236</ele>
        <time>2020-11-13T10:24:36.000Z</time>
      </trkpt>
      <trkpt lat="49.76801" lon="4.8178">
        <ele>236</ele>
        <time>2020-11-13T10:24:37.000Z</time>
      </trkpt>
      <trkpt lat="49.76803" lon="4.81775">
        <ele>237</ele>
        <time>2020-11-13T10:24:38.000Z</time>
      </trkpt>
      <trkpt lat="49.76805" lon="4.8177">
        <ele>237</ele>
        <time>2020-11-13T10:24:39.000Z</time>
      </trkpt>
      <trkpt lat="49.76807" lon="4.81764">
        <ele>237</ele>
        <time>2020-11-13T10:24:40.000Z</time>
      </trkpt>
      <trkpt lat="49.76809" lon="4.81758">
        <ele>237</ele>
        <time>2020-11-13T10:24:41.000Z</time>
      </trkpt>
      <trkpt lat="49.76811" lon="4.81753">
        <ele>237</ele>
        <time>2020-11-13T10:24:42.000Z</time>
      </trkpt>
      <trkpt lat="49.76813" lon="4.81747">
        <ele>237</ele>
        <time>2020-11-13T10:24:43.000Z</time>
      </trkpt>
      <trkpt lat="49.76814" lon="4.81741">
        <ele>238</ele>
        <time>2020-11-13T10:24:44.000Z</time>
      </trkpt>
      <trkpt lat="49.76816" lon="4.81735">
        <ele>238</ele>
        <time>2020-11-13T10:24:45.000Z</time>
      </trkpt>
      <trkpt lat="49.76817" lon="4.81729">
        <ele>238</ele>
        <time>2020-11-13T10:24:46.000Z</time>
      </trkpt>
      <trkpt lat="49.76819" lon="4.81723">
        <ele>238</ele>
        <time>2020-11-13T10:24:47.000Z</time>
      </trkpt>
      <trkpt lat="49.7682" lon="4.81717">
        <ele>238</ele>
        <time>2020-11-13T10:24:48.000Z</time>
      </trkpt>
      <trkpt lat="49.76821" lon="4.8171">
        <ele>238</ele>
        <time>2020-11-13T10:24:49.000Z</time>
      </trkpt>
      <trkpt lat="49.76823" lon="4.81704">
        <ele>239</ele>
        <time>2020-11-13T10:24:50.000Z</time>
      </trkpt>
      <trkpt lat="49.76824" lon="4.81698">
        <ele>239</ele>
        <time>2020-11-13T10:24:51.000Z</time>
      </trkpt>
      <trkpt lat="49.76825" lon="4.81691">
        <ele>239</ele>
        <time>2020-11-13T10:24:52.000Z</time>
      </trkpt>
      <trkpt lat="49.76827" lon="4.81684">
        <ele>239</ele>
        <time>2020-11-13T10:24:53.000Z</time>
      </trkpt>
      <trkpt lat="49.76827" lon="4.81678">
        <ele>239</ele>
        <time>2020-11-13T10:24:54.000Z</time>
      </trkpt>
      <trkpt lat="49.76829" lon="4.81671">
        <ele>239</ele>
        <time>2020-11-13T10:24:55.000Z</time>
      </trkpt>
      <trkpt lat="49.7683" lon="4.81664">
        <ele>239</ele>
        <time>2020-11-13T10:24:56.000Z</time>
      </trkpt>
      <trkpt lat="49.76833" lon="4.81658">
        <ele>239</ele>
        <time>2020-11-13T10:24:57.000Z</time>
      </trkpt>
      <trkpt lat="49.76836" lon="4.81653">
        <ele>240</ele>
        <time>2020-11-13T10:24:58.000Z</time>
      </trkpt>
      <trkpt lat="49.76839" lon="4.81649">
        <ele>240</ele>
        <time>2020-11-13T10:24:59.000Z</time>
      </trkpt>
      <trkpt lat="49.76842" lon="4.81644">
        <ele>240</ele>
        <time>2020-11-13T10:25:00.000Z</time>
      </trkpt>
      <trkpt lat="49.76845" lon="4.8164">
        <ele>241</ele>
        <time>2020-11-13T10:25:01.000Z</time>
      </trkpt>
      <trkpt lat="49.76848" lon="4.81637">
        <ele>241</ele>
        <time>2020-11-13T10:25:02.000Z</time>
      </trkpt>
      <trkpt lat="49.76851" lon="4.81635">
        <ele>241</ele>
        <time>2020-11-13T10:25:03.000Z</time>
      </trkpt>
      <trkpt lat="49.76854" lon="4.81631">
        <ele>241</ele>
        <time>2020-11-13T10:25:04.000Z</time>
      </trkpt>
      <trkpt lat="49.76857" lon="4.81628">
        <ele>241</ele>
        <time>2020-11-13T10:25:05.000Z</time>
      </trkpt>
      <trkpt lat="49.7686" lon="4.81624">
        <ele>242</ele>
        <time>2020-11-13T10:25:06.000Z</time>
      </trkpt>
      <trkpt lat="49.76863" lon="4.81621">
        <ele>242</ele>
        <time>2020-11-13T10:25:07.000Z</time>
      </trkpt>
      <trkpt lat="49.76866" lon="4.81617">
        <ele>242</ele>
        <time>2020-11-13T10:25:08.000Z</time>
      </trkpt>
      <trkpt lat="49.7687" lon="4.81614">
        <ele>242</ele>
        <time>2020-11-13T10:25:09.000Z</time>
      </trkpt>
      <trkpt lat="49.76872" lon="4.8161">
        <ele>243</ele>
        <time>2020-11-13T10:25:10.000Z</time>
      </trkpt>
      <trkpt lat="49.76875" lon="4.81606">
        <ele>243</ele>
        <time>2020-11-13T10:25:11.000Z</time>
      </trkpt>
      <trkpt lat="49.76878" lon="4.81602">
        <ele>243</ele>
        <time>2020-11-13T10:25:12.000Z</time>
      </trkpt>
      <trkpt lat="49.7688" lon="4.81598">
        <ele>244</ele>
        <time>2020-11-13T10:25:13.000Z</time>
      </trkpt>
      <trkpt lat="49.76883" lon="4.81594">
        <ele>244</ele>
        <time>2020-11-13T10:25:14.000Z</time>
      </trkpt>
      <trkpt lat="49.76885" lon="4.8159">
        <ele>244</ele>
        <time>2020-11-13T10:25:15.000Z</time>
      </trkpt>
      <trkpt lat="49.76888" lon="4.81586">
        <ele>244</ele>
        <time>2020-11-13T10:25:16.000Z</time>
      </trkpt>
      <trkpt lat="49.7689" lon="4.81582">
        <ele>245</ele>
        <time>2020-11-13T10:25:17.000Z</time>
      </trkpt>
      <trkpt lat="49.76893" lon="4.81578">
        <ele>245</ele>
        <time>2020-11-13T10:25:18.000Z</time>
      </trkpt>
      <trkpt lat="49.76895" lon="4.81573">
        <ele>245</ele>
        <time>2020-11-13T10:25:19.000Z</time>
      </trkpt>
      <trkpt lat="49.76897" lon="4.81568">
        <ele>245</ele>
        <time>2020-11-13T10:25:20.000Z</time>
      </trkpt>
      <trkpt lat="49.769" lon="4.81563">
        <ele>246</ele>
        <time>2020-11-13T10:25:21.000Z</time>
      </trkpt>
      <trkpt lat="49.76902" lon="4.81558">
        <ele>246</ele>
        <time>2020-11-13T10:25:22.000Z</time>
      </trkpt>
      <trkpt lat="49.76904" lon="4.81553">
        <ele>246</ele>
        <time>2020-11-13T10:25:23.000Z</time>
      </trkpt>
      <trkpt lat="49.76906" lon="4.81548">
        <ele>246</ele>
        <time>2020-11-13T10:25:24.000Z</time>
      </trkpt>
      <trkpt lat="49.76908" lon="4.81542">
        <ele>247</ele>
        <time>2020-11-13T10:25:25.000Z</time>
      </trkpt>
      <trkpt lat="49.76911" lon="4.81537">
        <ele>247</ele>
        <time>2020-11-13T10:25:26.000Z</time>
      </trkpt>
      <trkpt lat="49.76912" lon="4.81532">
        <ele>247</ele>
        <time>2020-11-13T10:25:27.000Z</time>
      </trkpt>
      <trkpt lat="49.76914" lon="4.81527">
        <ele>247</ele>
        <time>2020-11-13T10:25:28.000Z</time>
      </trkpt>
      <trkpt lat="49.76917" lon="4.81522">
        <ele>248</ele>
        <time>2020-11-13T10:25:29.000Z</time>
      </trkpt>
      <trkpt lat="49.76918" lon="4.81518">
        <ele>248</ele>
        <time>2020-11-13T10:25:30.000Z</time>
      </trkpt>
      <trkpt lat="49.7692" lon="4.81513">
        <ele>248</ele>
        <time>2020-11-13T10:25:31.000Z</time>
      </trkpt>
      <trkpt lat="49.76923" lon="4.81508">
        <ele>249</ele>
        <time>2020-11-13T10:25:32.000Z</time>
      </trkpt>
      <trkpt lat="49.76925" lon="4.81504">
        <ele>249</ele>
        <time>2020-11-13T10:25:33.000Z</time>
      </trkpt>
      <trkpt lat="49.76927" lon="4.815">
        <ele>249</ele>
        <time>2020-11-13T10:25:34.000Z</time>
      </trkpt>
      <trkpt lat="49.76929" lon="4.81495">
        <ele>249</ele>
        <time>2020-11-13T10:25:35.000Z</time>
      </trkpt>
      <trkpt lat="49.76931" lon="4.81491">
        <ele>249</ele>
        <time>2020-11-13T10:25:36.000Z</time>
      </trkpt>
      <trkpt lat="49.76934" lon="4.81487">
        <ele>250</ele>
        <time>2020-11-13T10:25:37.000Z</time>
      </trkpt>
      <trkpt lat="49.76936" lon="4.81483">
        <ele>250</ele>
        <time>2020-11-13T10:25:38.000Z</time>
      </trkpt>
      <trkpt lat="49.76938" lon="4.81478">
        <ele>250</ele>
        <time>2020-11-13T10:25:39.000Z</time>
      </trkpt>
      <trkpt lat="49.76941" lon="4.81474">
        <ele>250</ele>
        <time>2020-11-13T10:25:40.000Z</time>
      </trkpt>
      <trkpt lat="49.76943" lon="4.8147">
        <ele>251</ele>
        <time>2020-11-13T10:25:41.000Z</time>
      </trkpt>
      <trkpt lat="49.76945" lon="4.81466">
        <ele>251</ele>
        <time>2020-11-13T10:25:42.000Z</time>
      </trkpt>
      <trkpt lat="49.76948" lon="4.81462">
        <ele>251</ele>
        <time>2020-11-13T10:25:43.000Z</time>
      </trkpt>
      <trkpt lat="49.76951" lon="4.81458">
        <ele>251</ele>
        <time>2020-11-13T10:25:44.000Z</time>
      </trkpt>
      <trkpt lat="49.76954" lon="4.81454">
        <ele>252</ele>
        <time>2020-11-13T10:25:45.000Z</time>
      </trkpt>
      <trkpt lat="49.76957" lon="4.8145">
        <ele>252</ele>
        <time>2020-11-13T10:25:46.000Z</time>
      </trkpt>
      <trkpt lat="49.7696" lon="4.81446">
        <ele>252</ele>
        <time>2020-11-13T10:25:47.000Z</time>
      </trkpt>
      <trkpt lat="49.76963" lon="4.81443">
        <ele>252</ele>
        <time>2020-11-13T10:25:48.000Z</time>
      </trkpt>
      <trkpt lat="49.76966" lon="4.81439">
        <ele>253</ele>
        <time>2020-11-13T10:25:49.000Z</time>
      </trkpt>
      <trkpt lat="49.7697" lon="4.81436">
        <ele>253</ele>
        <time>2020-11-13T10:25:50.000Z</time>
      </trkpt>
      <trkpt lat="49.76973" lon="4.81432">
        <ele>253</ele>
        <time>2020-11-13T10:25:51.000Z</time>
      </trkpt>
      <trkpt lat="49.76976" lon="4.81429">
        <ele>253</ele>
        <time>2020-11-13T10:25:52.000Z</time>
      </trkpt>
      <trkpt lat="49.76979" lon="4.81426">
        <ele>254</ele>
        <time>2020-11-13T10:25:53.000Z</time>
      </trkpt>
      <trkpt lat="49.76983" lon="4.81423">
        <ele>254</ele>
        <time>2020-11-13T10:25:54.000Z</time>
      </trkpt>
      <trkpt lat="49.76986" lon="4.8142">
        <ele>254</ele>
        <time>2020-11-13T10:25:55.000Z</time>
      </trkpt>
      <trkpt lat="49.76989" lon="4.81417">
        <ele>254</ele>
        <time>2020-11-13T10:25:56.000Z</time>
      </trkpt>
      <trkpt lat="49.76993" lon="4.81414">
        <ele>254</ele>
        <time>2020-11-13T10:25:57.000Z</time>
      </trkpt>
      <trkpt lat="49.76996" lon="4.81411">
        <ele>255</ele>
        <time>2020-11-13T10:25:58.000Z</time>
      </trkpt>
      <trkpt lat="49.76999" lon="4.81408">
        <ele>255</ele>
        <time>2020-11-13T10:25:59.000Z</time>
      </trkpt>
      <trkpt lat="49.77003" lon="4.81405">
        <ele>255</ele>
        <time>2020-11-13T10:26:00.000Z</time>
      </trkpt>
      <trkpt lat="49.77006" lon="4.81402">
        <ele>255</ele>
        <time>2020-11-13T10:26:01.000Z</time>
      </trkpt>
      <trkpt lat="49.77009" lon="4.81399">
        <ele>256</ele>
        <time>2020-11-13T10:26:02.000Z</time>
      </trkpt>
      <trkpt lat="49.77012" lon="4.81396">
        <ele>256</ele>
        <time>2020-11-13T10:26:03.000Z</time>
      </trkpt>
      <trkpt lat="49.77016" lon="4.81393">
        <ele>256</ele>
        <time>2020-11-13T10:26:04.000Z</time>
      </trkpt>
      <trkpt lat="49.77019" lon="4.8139">
        <ele>256</ele>
        <time>2020-11-13T10:26:05.000Z</time>
      </trkpt>
      <trkpt lat="49.77022" lon="4.81387">
        <ele>256</ele>
        <time>2020-11-13T10:26:06.000Z</time>
      </trkpt>
      <trkpt lat="49.77025" lon="4.81385">
        <ele>257</ele>
        <time>2020-11-13T10:26:07.000Z</time>
      </trkpt>
      <trkpt lat="49.77028" lon="4.81382">
        <ele>257</ele>
        <time>2020-11-13T10:26:08.000Z</time>
      </trkpt>
      <trkpt lat="49.77031" lon="4.81379">
        <ele>257</ele>
        <time>2020-11-13T10:26:09.000Z</time>
      </trkpt>
      <trkpt lat="49.77035" lon="4.81376">
        <ele>257</ele>
        <time>2020-11-13T10:26:10.000Z</time>
      </trkpt>
      <trkpt lat="49.77038" lon="4.81373">
        <ele>257</ele>
        <time>2020-11-13T10:26:11.000Z</time>
      </trkpt>
      <trkpt lat="49.77041" lon="4.81369">
        <ele>257</ele>
        <time>2020-11-13T10:26:12.000Z</time>
      </trkpt>
      <trkpt lat="49.77045" lon="4.81366">
        <ele>257</ele>
        <time>2020-11-13T10:26:13.000Z</time>
      </trkpt>
      <trkpt lat="49.77049" lon="4.81364">
        <ele>257</ele>
        <time>2020-11-13T10:26:14.000Z</time>
      </trkpt>
      <trkpt lat="49.77053" lon="4.81361">
        <ele>257</ele>
        <time>2020-11-13T10:26:15.000Z</time>
      </trkpt>
      <trkpt lat="49.77057" lon="4.81358">
        <ele>257</ele>
        <time>2020-11-13T10:26:16.000Z</time>
      </trkpt>
      <trkpt lat="49.7706" lon="4.81355">
        <ele>257</ele>
        <time>2020-11-13T10:26:17.000Z</time>
      </trkpt>
      <trkpt lat="49.77064" lon="4.81352">
        <ele>257</ele>
        <time>2020-11-13T10:26:18.000Z</time>
      </trkpt>
      <trkpt lat="49.77068" lon="4.81348">
        <ele>257</ele>
        <time>2020-11-13T10:26:19.000Z</time>
      </trkpt>
      <trkpt lat="49.77072" lon="4.81345">
        <ele>257</ele>
        <time>2020-11-13T10:26:20.000Z</time>
      </trkpt>
      <trkpt lat="49.77076" lon="4.81341">
        <ele>257</ele>
        <time>2020-11-13T10:26:21.000Z</time>
      </trkpt>
      <trkpt lat="49.7708" lon="4.81338">
        <ele>257</ele>
        <time>2020-11-13T10:26:22.000Z</time>
      </trkpt>
      <trkpt lat="49.77085" lon="4.81334">
        <ele>257</ele>
        <time>2020-11-13T10:26:23.000Z</time>
      </trkpt>
      <trkpt lat="49.77089" lon="4.8133">
        <ele>257</ele>
        <time>2020-11-13T10:26:24.000Z</time>
      </trkpt>
      <trkpt lat="49.77093" lon="4.81326">
        <ele>257</ele>
        <time>2020-11-13T10:26:25.000Z</time>
      </trkpt>
      <trkpt lat="49.77097" lon="4.81322">
        <ele>257</ele>
        <time>2020-11-13T10:26:26.000Z</time>
      </trkpt>
      <trkpt lat="49.77102" lon="4.81318">
        <ele>257</ele>
        <time>2020-11-13T10:26:27.000Z</time>
      </trkpt>
      <trkpt lat="49.77106" lon="4.81314">
        <ele>257</ele>
        <time>2020-11-13T10:26:28.000Z</time>
      </trkpt>
      <trkpt lat="49.7711" lon="4.81309">
        <ele>257</ele>
        <time>2020-11-13T10:26:29.000Z</time>
      </trkpt>
      <trkpt lat="49.77115" lon="4.81305">
        <ele>257</ele>
        <time>2020-11-13T10:26:30.000Z</time>
      </trkpt>
      <trkpt lat="49.77119" lon="4.81301">
        <ele>257</ele>
        <time>2020-11-13T10:26:31.000Z</time>
      </trkpt>
      <trkpt lat="49.77124" lon="4.81297">
        <ele>257</ele>
        <time>2020-11-13T10:26:32.000Z</time>
      </trkpt>
      <trkpt lat="49.77128" lon="4.81292">
        <ele>257</ele>
        <time>2020-11-13T10:26:33.000Z</time>
      </trkpt>
      <trkpt lat="49.77133" lon="4.81288">
        <ele>257</ele>
        <time>2020-11-13T10:26:34.000Z</time>
      </trkpt>
      <trkpt lat="49.77137" lon="4.81284">
        <ele>257</ele>
        <time>2020-11-13T10:26:35.000Z</time>
      </trkpt>
      <trkpt lat="49.77142" lon="4.8128">
        <ele>257</ele>
        <time>2020-11-13T10:26:36.000Z</time>
      </trkpt>
      <trkpt lat="49.77146" lon="4.81276">
        <ele>258</ele>
        <time>2020-11-13T10:26:37.000Z</time>
      </trkpt>
      <trkpt lat="49.77151" lon="4.81272">
        <ele>258</ele>
        <time>2020-11-13T10:26:38.000Z</time>
      </trkpt>
      <trkpt lat="49.77155" lon="4.81268">
        <ele>258</ele>
        <time>2020-11-13T10:26:39.000Z</time>
      </trkpt>
      <trkpt lat="49.77159" lon="4.81264">
        <ele>258</ele>
        <time>2020-11-13T10:26:40.000Z</time>
      </trkpt>
      <trkpt lat="49.77163" lon="4.8126">
        <ele>258</ele>
        <time>2020-11-13T10:26:41.000Z</time>
      </trkpt>
      <trkpt lat="49.77167" lon="4.81257">
        <ele>258</ele>
        <time>2020-11-13T10:26:42.000Z</time>
      </trkpt>
      <trkpt lat="49.77171" lon="4.81254">
        <ele>258</ele>
        <time>2020-11-13T10:26:43.000Z</time>
      </trkpt>
      <trkpt lat="49.77175" lon="4.8125">
        <ele>259</ele>
        <time>2020-11-13T10:26:44.000Z</time>
      </trkpt>
      <trkpt lat="49.77179" lon="4.81247">
        <ele>259</ele>
        <time>2020-11-13T10:26:45.000Z</time>
      </trkpt>
      <trkpt lat="49.77182" lon="4.81244">
        <ele>259</ele>
        <time>2020-11-13T10:26:46.000Z</time>
      </trkpt>
      <trkpt lat="49.77185" lon="4.81241">
        <ele>259</ele>
        <time>2020-11-13T10:26:47.000Z</time>
      </trkpt>
      <trkpt lat="49.77188" lon="4.81238">
        <ele>259</ele>
        <time>2020-11-13T10:26:48.000Z</time>
      </trkpt>
      <trkpt lat="49.77191" lon="4.81234">
        <ele>259</ele>
        <time>2020-11-13T10:26:49.000Z</time>
      </trkpt>
      <trkpt lat="49.77195" lon="4.81231">
        <ele>259</ele>
        <time>2020-11-13T10:26:50.000Z</time>
      </trkpt>
      <trkpt lat="49.77197" lon="4.81228">
        <ele>259</ele>
        <time>2020-11-13T10:26:51.000Z</time>
      </trkpt>
      <trkpt lat="49.772" lon="4.81225">
        <ele>260</ele>
        <time>2020-11-13T10:26:52.000Z</time>
      </trkpt>
      <trkpt lat="49.77203" lon="4.81222">
        <ele>260</ele>
        <time>2020-11-13T10:26:53.000Z</time>
      </trkpt>
      <trkpt lat="49.77206" lon="4.81218">
        <ele>260</ele>
        <time>2020-11-13T10:26:54.000Z</time>
      </trkpt>
      <trkpt lat="49.77209" lon="4.81214">
        <ele>260</ele>
        <time>2020-11-13T10:26:55.000Z</time>
      </trkpt>
      <trkpt lat="49.77213" lon="4.8121">
        <ele>260</ele>
        <time>2020-11-13T10:26:56.000Z</time>
      </trkpt>
      <trkpt lat="49.77216" lon="4.81206">
        <ele>260</ele>
        <time>2020-11-13T10:26:57.000Z</time>
      </trkpt>
      <trkpt lat="49.77219" lon="4.81202">
        <ele>261</ele>
        <time>2020-11-13T10:26:58.000Z</time>
      </trkpt>
      <trkpt lat="49.77222" lon="4.81198">
        <ele>261</ele>
        <time>2020-11-13T10:26:59.000Z</time>
      </trkpt>
      <trkpt lat="49.77225" lon="4.81194">
        <ele>261</ele>
        <time>2020-11-13T10:27:00.000Z</time>
      </trkpt>
      <trkpt lat="49.77228" lon="4.8119">
        <ele>261</ele>
        <time>2020-11-13T10:27:01.000Z</time>
      </trkpt>
      <trkpt lat="49.77231" lon="4.81186">
        <ele>261</ele>
        <time>2020-11-13T10:27:02.000Z</time>
      </trkpt>
      <trkpt lat="49.77234" lon="4.81182">
        <ele>262</ele>
        <time>2020-11-13T10:27:03.000Z</time>
      </trkpt>
      <trkpt lat="49.77237" lon="4.81178">
        <ele>262</ele>
        <time>2020-11-13T10:27:04.000Z</time>
      </trkpt>
      <trkpt lat="49.7724" lon="4.81174">
        <ele>262</ele>
        <time>2020-11-13T10:27:05.000Z</time>
      </trkpt>
      <trkpt lat="49.77243" lon="4.81171">
        <ele>262</ele>
        <time>2020-11-13T10:27:06.000Z</time>
      </trkpt>
      <trkpt lat="49.77245" lon="4.81167">
        <ele>262</ele>
        <time>2020-11-13T10:27:07.000Z</time>
      </trkpt>
      <trkpt lat="49.77247" lon="4.81164">
        <ele>263</ele>
        <time>2020-11-13T10:27:08.000Z</time>
      </trkpt>
      <trkpt lat="49.7725" lon="4.81161">
        <ele>263</ele>
        <time>2020-11-13T10:27:09.000Z</time>
      </trkpt>
      <trkpt lat="49.77251" lon="4.81159">
        <ele>263</ele>
        <time>2020-11-13T10:27:10.000Z</time>
      </trkpt>
      <trkpt lat="49.77253" lon="4.81156">
        <ele>263</ele>
        <time>2020-11-13T10:27:11.000Z</time>
      </trkpt>
      <trkpt lat="49.77256" lon="4.81153">
        <ele>263</ele>
        <time>2020-11-13T10:27:12.000Z</time>
      </trkpt>
      <trkpt lat="49.77258" lon="4.8115">
        <ele>263</ele>
        <time>2020-11-13T10:27:13.000Z</time>
      </trkpt>
      <trkpt lat="49.7726" lon="4.81146">
        <ele>263</ele>
        <time>2020-11-13T10:27:14.000Z</time>
      </trkpt>
      <trkpt lat="49.77263" lon="4.81143">
        <ele>263</ele>
        <time>2020-11-13T10:27:15.000Z</time>
      </trkpt>
      <trkpt lat="49.77265" lon="4.8114">
        <ele>264</ele>
        <time>2020-11-13T10:27:16.000Z</time>
      </trkpt>
      <trkpt lat="49.77267" lon="4.81138">
        <ele>264</ele>
        <time>2020-11-13T10:27:17.000Z</time>
      </trkpt>
      <trkpt lat="49.77268" lon="4.81134">
        <ele>264</ele>
        <time>2020-11-13T10:27:18.000Z</time>
      </trkpt>
      <trkpt lat="49.77271" lon="4.81131">
        <ele>264</ele>
        <time>2020-11-13T10:27:19.000Z</time>
      </trkpt>
      <trkpt lat="49.77273" lon="4.81128">
        <ele>264</ele>
        <time>2020-11-13T10:27:20.000Z</time>
      </trkpt>
      <trkpt lat="49.77275" lon="4.81124">
        <ele>264</ele>
        <time>2020-11-13T10:27:21.000Z</time>
      </trkpt>
      <trkpt lat="49.77278" lon="4.8112">
        <ele>264</ele>
        <time>2020-11-13T10:27:22.000Z</time>
      </trkpt>
      <trkpt lat="49.7728" lon="4.81116">
        <ele>264</ele>
        <time>2020-11-13T10:27:23.000Z</time>
      </trkpt>
      <trkpt lat="49.77282" lon="4.81113">
        <ele>265</ele>
        <time>2020-11-13T10:27:24.000Z</time>
      </trkpt>
      <trkpt lat="49.77285" lon="4.81109">
        <ele>265</ele>
        <time>2020-11-13T10:27:25.000Z</time>
      </trkpt>
      <trkpt lat="49.77288" lon="4.81105">
        <ele>265</ele>
        <time>2020-11-13T10:27:26.000Z</time>
      </trkpt>
      <trkpt lat="49.77291" lon="4.81101">
        <ele>265</ele>
        <time>2020-11-13T10:27:27.000Z</time>
      </trkpt>
      <trkpt lat="49.77294" lon="4.81097">
        <ele>265</ele>
        <time>2020-11-13T10:27:28.000Z</time>
      </trkpt>
      <trkpt lat="49.77297" lon="4.81093">
        <ele>265</ele>
        <time>2020-11-13T10:27:29.000Z</time>
      </trkpt>
      <trkpt lat="49.773" lon="4.81089">
        <ele>265</ele>
        <time>2020-11-13T10:27:30.000Z</time>
      </trkpt>
      <trkpt lat="49.77303" lon="4.81085">
        <ele>265</ele>
        <time>2020-11-13T10:27:31.000Z</time>
      </trkpt>
      <trkpt lat="49.77305" lon="4.8108">
        <ele>265</ele>
        <time>2020-11-13T10:27:32.000Z</time>
      </trkpt>
      <trkpt lat="49.77308" lon="4.81075">
        <ele>266</ele>
        <time>2020-11-13T10:27:33.000Z</time>
      </trkpt>
      <trkpt lat="49.77311" lon="4.81071">
        <ele>266</ele>
        <time>2020-11-13T10:27:34.000Z</time>
      </trkpt>
      <trkpt lat="49.77314" lon="4.81066">
        <ele>266</ele>
        <time>2020-11-13T10:27:35.000Z</time>
      </trkpt>
      <trkpt lat="49.77317" lon="4.81061">
        <ele>266</ele>
        <time>2020-11-13T10:27:36.000Z</time>
      </trkpt>
      <trkpt lat="49.77319" lon="4.81056">
        <ele>266</ele>
        <time>2020-11-13T10:27:37.000Z</time>
      </trkpt>
      <trkpt lat="49.77321" lon="4.81051">
        <ele>266</ele>
        <time>2020-11-13T10:27:38.000Z</time>
      </trkpt>
      <trkpt lat="49.77323" lon="4.81046">
        <ele>266</ele>
        <time>2020-11-13T10:27:39.000Z</time>
      </trkpt>
      <trkpt lat="49.77324" lon="4.81041">
        <ele>267</ele>
        <time>2020-11-13T10:27:40.000Z</time>
      </trkpt>
      <trkpt lat="49.77324" lon="4.81036">
        <ele>267</ele>
        <time>2020-11-13T10:27:41.000Z</time>
      </trkpt>
      <trkpt lat="49.77323" lon="4.81032">
        <ele>267</ele>
        <time>2020-11-13T10:27:42.000Z</time>
      </trkpt>
      <trkpt lat="49.77322" lon="4.81028">
        <ele>267</ele>
        <time>2020-11-13T10:27:43.000Z</time>
      </trkpt>
      <trkpt lat="49.7732" lon="4.81025">
        <ele>267</ele>
        <time>2020-11-13T10:27:44.000Z</time>
      </trkpt>
      <trkpt lat="49.77319" lon="4.81021">
        <ele>267</ele>
        <time>2020-11-13T10:27:45.000Z</time>
      </trkpt>
      <trkpt lat="49.77317" lon="4.81018">
        <ele>267</ele>
        <time>2020-11-13T10:27:46.000Z</time>
      </trkpt>
      <trkpt lat="49.77315" lon="4.81014">
        <ele>267</ele>
        <time>2020-11-13T10:27:47.000Z</time>
      </trkpt>
      <trkpt lat="49.77314" lon="4.8101">
        <ele>267</ele>
        <time>2020-11-13T10:27:48.000Z</time>
      </trkpt>
      <trkpt lat="49.77312" lon="4.81007">
        <ele>267</ele>
        <time>2020-11-13T10:27:49.000Z</time>
      </trkpt>
      <trkpt lat="49.77311" lon="4.81003">
        <ele>267</ele>
        <time>2020-11-13T10:27:50.000Z</time>
      </trkpt>
      <trkpt lat="49.77309" lon="4.81">
        <ele>268</ele>
        <time>2020-11-13T10:27:51.000Z</time>
      </trkpt>
      <trkpt lat="49.77308" lon="4.80996">
        <ele>268</ele>
        <time>2020-11-13T10:27:52.000Z</time>
      </trkpt>
      <trkpt lat="49.77306" lon="4.80993">
        <ele>268</ele>
        <time>2020-11-13T10:27:53.000Z</time>
      </trkpt>
      <trkpt lat="49.77305" lon="4.80989">
        <ele>268</ele>
        <time>2020-11-13T10:27:54.000Z</time>
      </trkpt>
      <trkpt lat="49.77303" lon="4.80985">
        <ele>268</ele>
        <time>2020-11-13T10:27:55.000Z</time>
      </trkpt>
      <trkpt lat="49.77302" lon="4.80982">
        <ele>268</ele>
        <time>2020-11-13T10:27:56.000Z</time>
      </trkpt>
      <trkpt lat="49.773" lon="4.80978">
        <ele>268</ele>
        <time>2020-11-13T10:27:57.000Z</time>
      </trkpt>
      <trkpt lat="49.77299" lon="4.80975">
        <ele>268</ele>
        <time>2020-11-13T10:27:58.000Z</time>
      </trkpt>
      <trkpt lat="49.77297" lon="4.80972">
        <ele>268</ele>
        <time>2020-11-13T10:27:59.000Z</time>
      </trkpt>
      <trkpt lat="49.77296" lon="4.80969">
        <ele>268</ele>
        <time>2020-11-13T10:28:00.000Z</time>
      </trkpt>
      <trkpt lat="49.77294" lon="4.80965">
        <ele>268</ele>
        <time>2020-11-13T10:28:01.000Z</time>
      </trkpt>
      <trkpt lat="49.77293" lon="4.80962">
        <ele>269</ele>
        <time>2020-11-13T10:28:02.000Z</time>
      </trkpt>
      <trkpt lat="49.77291" lon="4.80959">
        <ele>269</ele>
        <time>2020-11-13T10:28:03.000Z</time>
      </trkpt>
      <trkpt lat="49.7729" lon="4.80956">
        <ele>269</ele>
        <time>2020-11-13T10:28:04.000Z</time>
      </trkpt>
      <trkpt lat="49.77289" lon="4.80952">
        <ele>269</ele>
        <time>2020-11-13T10:28:05.000Z</time>
      </trkpt>
      <trkpt lat="49.77287" lon="4.80949">
        <ele>269</ele>
        <time>2020-11-13T10:28:06.000Z</time>
      </trkpt>
      <trkpt lat="49.77286" lon="4.80946">
        <ele>269</ele>
        <time>2020-11-13T10:28:07.000Z</time>
      </trkpt>
      <trkpt lat="49.77285" lon="4.80943">
        <ele>270</ele>
        <time>2020-11-13T10:28:08.000Z</time>
      </trkpt>
      <trkpt lat="49.77283" lon="4.8094">
        <ele>270</ele>
        <time>2020-11-13T10:28:09.000Z</time>
      </trkpt>
      <trkpt lat="49.77282" lon="4.80937">
        <ele>270</ele>
        <time>2020-11-13T10:28:10.000Z</time>
      </trkpt>
      <trkpt lat="49.77281" lon="4.80934">
        <ele>270</ele>
        <time>2020-11-13T10:28:11.000Z</time>
      </trkpt>
      <trkpt lat="49.7728" lon="4.80932">
        <ele>270</ele>
        <time>2020-11-13T10:28:12.000Z</time>
      </trkpt>
      <trkpt lat="49.77278" lon="4.80929">
        <ele>270</ele>
        <time>2020-11-13T10:28:13.000Z</time>
      </trkpt>
      <trkpt lat="49.77277" lon="4.80926">
        <ele>271</ele>
        <time>2020-11-13T10:28:14.000Z</time>
      </trkpt>
      <trkpt lat="49.77276" lon="4.80923">
        <ele>271</ele>
        <time>2020-11-13T10:28:15.000Z</time>
      </trkpt>
      <trkpt lat="49.77274" lon="4.8092">
        <ele>271</ele>
        <time>2020-11-13T10:28:16.000Z</time>
      </trkpt>
      <trkpt lat="49.77273" lon="4.80917">
        <ele>271</ele>
        <time>2020-11-13T10:28:17.000Z</time>
      </trkpt>
      <trkpt lat="49.77271" lon="4.80914">
        <ele>271</ele>
        <time>2020-11-13T10:28:18.000Z</time>
      </trkpt>
      <trkpt lat="49.7727" lon="4.80911">
        <ele>271</ele>
        <time>2020-11-13T10:28:19.000Z</time>
      </trkpt>
      <trkpt lat="49.77268" lon="4.80907">
        <ele>272</ele>
        <time>2020-11-13T10:28:20.000Z</time>
      </trkpt>
      <trkpt lat="49.77267" lon="4.80904">
        <ele>272</ele>
        <time>2020-11-13T10:28:21.000Z</time>
      </trkpt>
      <trkpt lat="49.77266" lon="4.809">
        <ele>272</ele>
        <time>2020-11-13T10:28:22.000Z</time>
      </trkpt>
      <trkpt lat="49.77264" lon="4.80897">
        <ele>272</ele>
        <time>2020-11-13T10:28:23.000Z</time>
      </trkpt>
      <trkpt lat="49.77262" lon="4.80893">
        <ele>272</ele>
        <time>2020-11-13T10:28:24.000Z</time>
      </trkpt>
      <trkpt lat="49.77261" lon="4.8089">
        <ele>272</ele>
        <time>2020-11-13T10:28:25.000Z</time>
      </trkpt>
      <trkpt lat="49.77259" lon="4.80886">
        <ele>273</ele>
        <time>2020-11-13T10:28:26.000Z</time>
      </trkpt>
      <trkpt lat="49.77258" lon="4.80883">
        <ele>273</ele>
        <time>2020-11-13T10:28:27.000Z</time>
      </trkpt>
      <trkpt lat="49.77256" lon="4.80879">
        <ele>273</ele>
        <time>2020-11-13T10:28:28.000Z</time>
      </trkpt>
      <trkpt lat="49.77255" lon="4.80876">
        <ele>273</ele>
        <time>2020-11-13T10:28:29.000Z</time>
      </trkpt>
      <trkpt lat="49.77255" lon="4.80874">
        <ele>273</ele>
        <time>2020-11-13T10:28:30.000Z</time>
      </trkpt>
      <trkpt lat="49.77255" lon="4.80871">
        <ele>273</ele>
        <time>2020-11-13T10:28:31.000Z</time>
      </trkpt>
      <trkpt lat="49.77255" lon="4.80868">
        <ele>274</ele>
        <time>2020-11-13T10:28:32.000Z</time>
      </trkpt>
      <trkpt lat="49.77255" lon="4.80865">
        <ele>274</ele>
        <time>2020-11-13T10:28:33.000Z</time>
      </trkpt>
      <trkpt lat="49.77256" lon="4.80863">
        <ele>274</ele>
        <time>2020-11-13T10:28:34.000Z</time>
      </trkpt>
      <trkpt lat="49.77257" lon="4.80861">
        <ele>274</ele>
        <time>2020-11-13T10:28:35.000Z</time>
      </trkpt>
      <trkpt lat="49.77258" lon="4.80859">
        <ele>274</ele>
        <time>2020-11-13T10:28:36.000Z</time>
      </trkpt>
      <trkpt lat="49.7726" lon="4.80857">
        <ele>274</ele>
        <time>2020-11-13T10:28:37.000Z</time>
      </trkpt>
      <trkpt lat="49.77261" lon="4.80855">
        <ele>275</ele>
        <time>2020-11-13T10:28:38.000Z</time>
      </trkpt>
      <trkpt lat="49.77262" lon="4.80853">
        <ele>275</ele>
        <time>2020-11-13T10:28:39.000Z</time>
      </trkpt>
      <trkpt lat="49.77264" lon="4.80851">
        <ele>275</ele>
        <time>2020-11-13T10:28:40.000Z</time>
      </trkpt>
      <trkpt lat="49.77265" lon="4.80849">
        <ele>275</ele>
        <time>2020-11-13T10:28:41.000Z</time>
      </trkpt>
      <trkpt lat="49.77267" lon="4.80847">
        <ele>275</ele>
        <time>2020-11-13T10:28:42.000Z</time>
      </trkpt>
      <trkpt lat="49.77269" lon="4.80844">
        <ele>275</ele>
        <time>2020-11-13T10:28:43.000Z</time>
      </trkpt>
      <trkpt lat="49.7727" lon="4.80842">
        <ele>275</ele>
        <time>2020-11-13T10:28:44.000Z</time>
      </trkpt>
      <trkpt lat="49.77272" lon="4.8084">
        <ele>276</ele>
        <time>2020-11-13T10:28:45.000Z</time>
      </trkpt>
      <trkpt lat="49.77274" lon="4.80838">
        <ele>276</ele>
        <time>2020-11-13T10:28:46.000Z</time>
      </trkpt>
      <trkpt lat="49.77275" lon="4.80836">
        <ele>276</ele>
        <time>2020-11-13T10:28:47.000Z</time>
      </trkpt>
      <trkpt lat="49.77277" lon="4.80833">
        <ele>276</ele>
        <time>2020-11-13T10:28:48.000Z</time>
      </trkpt>
      <trkpt lat="49.77278" lon="4.80831">
        <ele>276</ele>
        <time>2020-11-13T10:28:49.000Z</time>
      </trkpt>
      <trkpt lat="49.7728" lon="4.80829">
        <ele>276</ele>
        <time>2020-11-13T10:28:50.000Z</time>
      </trkpt>
      <trkpt lat="49.77282" lon="4.80827">
        <ele>276</ele>
        <time>2020-11-13T10:28:51.000Z</time>
      </trkpt>
      <trkpt lat="49.77283" lon="4.80825">
        <ele>277</ele>
        <time>2020-11-13T10:28:52.000Z</time>
      </trkpt>
      <trkpt lat="49.77285" lon="4.80823">
        <ele>277</ele>
        <time>2020-11-13T10:28:53.000Z</time>
      </trkpt>
      <trkpt lat="49.77287" lon="4.80821">
        <ele>277</ele>
        <time>2020-11-13T10:28:54.000Z</time>
      </trkpt>
      <trkpt lat="49.77288" lon="4.80819">
        <ele>277</ele>
        <time>2020-11-13T10:28:55.000Z</time>
      </trkpt>
      <trkpt lat="49.7729" lon="4.80816">
        <ele>277</ele>
        <time>2020-11-13T10:28:56.000Z</time>
      </trkpt>
      <trkpt lat="49.77292" lon="4.80814">
        <ele>277</ele>
        <time>2020-11-13T10:28:57.000Z</time>
      </trkpt>
      <trkpt lat="49.77293" lon="4.80812">
        <ele>277</ele>
        <time>2020-11-13T10:28:58.000Z</time>
      </trkpt>
      <trkpt lat="49.77295" lon="4.80809">
        <ele>278</ele>
        <time>2020-11-13T10:28:59.000Z</time>
      </trkpt>
      <trkpt lat="49.77297" lon="4.80807">
        <ele>278</ele>
        <time>2020-11-13T10:29:00.000Z</time>
      </trkpt>
      <trkpt lat="49.77299" lon="4.80805">
        <ele>278</ele>
        <time>2020-11-13T10:29:01.000Z</time>
      </trkpt>
      <trkpt lat="49.773" lon="4.80803">
        <ele>278</ele>
        <time>2020-11-13T10:29:02.000Z</time>
      </trkpt>
      <trkpt lat="49.77302" lon="4.80801">
        <ele>278</ele>
        <time>2020-11-13T10:29:03.000Z</time>
      </trkpt>
      <trkpt lat="49.77304" lon="4.80799">
        <ele>278</ele>
        <time>2020-11-13T10:29:04.000Z</time>
      </trkpt>
      <trkpt lat="49.77305" lon="4.80796">
        <ele>278</ele>
        <time>2020-11-13T10:29:05.000Z</time>
      </trkpt>
      <trkpt lat="49.77307" lon="4.80794">
        <ele>279</ele>
        <time>2020-11-13T10:29:06.000Z</time>
      </trkpt>
      <trkpt lat="49.77309" lon="4.80792">
        <ele>279</ele>
        <time>2020-11-13T10:29:07.000Z</time>
      </trkpt>
      <trkpt lat="49.77311" lon="4.8079">
        <ele>279</ele>
        <time>2020-11-13T10:29:08.000Z</time>
      </trkpt>
      <trkpt lat="49.77312" lon="4.80788">
        <ele>279</ele>
        <time>2020-11-13T10:29:09.000Z</time>
      </trkpt>
      <trkpt lat="49.77314" lon="4.80786">
        <ele>279</ele>
        <time>2020-11-13T10:29:10.000Z</time>
      </trkpt>
      <trkpt lat="49.77316" lon="4.80784">
        <ele>279</ele>
        <time>2020-11-13T10:29:11.000Z</time>
      </trkpt>
      <trkpt lat="49.77317" lon="4.80781">
        <ele>279</ele>
        <time>2020-11-13T10:29:12.000Z</time>
      </trkpt>
      <trkpt lat="49.77319" lon="4.80779">
        <ele>280</ele>
        <time>2020-11-13T10:29:13.000Z</time>
      </trkpt>
      <trkpt lat="49.77319" lon="4.80775">
        <ele>280</ele>
        <time>2020-11-13T10:29:14.000Z</time>
      </trkpt>
      <trkpt lat="49.77319" lon="4.80772">
        <ele>280</ele>
        <time>2020-11-13T10:29:15.000Z</time>
      </trkpt>
      <trkpt lat="49.77318" lon="4.8077">
        <ele>280</ele>
        <time>2020-11-13T10:29:16.000Z</time>
      </trkpt>
      <trkpt lat="49.77317" lon="4.80767">
        <ele>280</ele>
        <time>2020-11-13T10:29:17.000Z</time>
      </trkpt>
      <trkpt lat="49.77315" lon="4.80764">
        <ele>280</ele>
        <time>2020-11-13T10:29:18.000Z</time>
      </trkpt>
      <trkpt lat="49.77314" lon="4.80761">
        <ele>281</ele>
        <time>2020-11-13T10:29:19.000Z</time>
      </trkpt>
      <trkpt lat="49.77313" lon="4.80758">
        <ele>281</ele>
        <time>2020-11-13T10:29:20.000Z</time>
      </trkpt>
      <trkpt lat="49.77312" lon="4.80756">
        <ele>281</ele>
        <time>2020-11-13T10:29:21.000Z</time>
      </trkpt>
      <trkpt lat="49.7731" lon="4.80753">
        <ele>281</ele>
        <time>2020-11-13T10:29:22.000Z</time>
      </trkpt>
      <trkpt lat="49.77309" lon="4.80751">
        <ele>281</ele>
        <time>2020-11-13T10:29:23.000Z</time>
      </trkpt>
      <trkpt lat="49.77308" lon="4.80748">
        <ele>281</ele>
        <time>2020-11-13T10:29:24.000Z</time>
      </trkpt>
      <trkpt lat="49.77306" lon="4.80745">
        <ele>281</ele>
        <time>2020-11-13T10:29:25.000Z</time>
      </trkpt>
      <trkpt lat="49.77305" lon="4.80742">
        <ele>282</ele>
        <time>2020-11-13T10:29:26.000Z</time>
      </trkpt>
      <trkpt lat="49.77304" lon="4.8074">
        <ele>282</ele>
        <time>2020-11-13T10:29:27.000Z</time>
      </trkpt>
      <trkpt lat="49.77302" lon="4.80737">
        <ele>282</ele>
        <time>2020-11-13T10:29:28.000Z</time>
      </trkpt>
      <trkpt lat="49.77301" lon="4.80734">
        <ele>282</ele>
        <time>2020-11-13T10:29:29.000Z</time>
      </trkpt>
      <trkpt lat="49.77299" lon="4.80731">
        <ele>282</ele>
        <time>2020-11-13T10:29:30.000Z</time>
      </trkpt>
      <trkpt lat="49.77298" lon="4.80728">
        <ele>282</ele>
        <time>2020-11-13T10:29:31.000Z</time>
      </trkpt>
      <trkpt lat="49.77297" lon="4.80725">
        <ele>282</ele>
        <time>2020-11-13T10:29:32.000Z</time>
      </trkpt>
      <trkpt lat="49.77295" lon="4.80722">
        <ele>283</ele>
        <time>2020-11-13T10:29:33.000Z</time>
      </trkpt>
      <trkpt lat="49.77294" lon="4.80719">
        <ele>283</ele>
        <time>2020-11-13T10:29:34.000Z</time>
      </trkpt>
      <trkpt lat="49.77292" lon="4.80717">
        <ele>283</ele>
        <time>2020-11-13T10:29:35.000Z</time>
      </trkpt>
      <trkpt lat="49.77291" lon="4.80714">
        <ele>283</ele>
        <time>2020-11-13T10:29:36.000Z</time>
      </trkpt>
      <trkpt lat="49.77289" lon="4.80711">
        <ele>283</ele>
        <time>2020-11-13T10:29:37.000Z</time>
      </trkpt>
      <trkpt lat="49.77288" lon="4.80708">
        <ele>283</ele>
        <time>2020-11-13T10:29:38.000Z</time>
      </trkpt>
      <trkpt lat="49.77287" lon="4.80705">
        <ele>283</ele>
        <time>2020-11-13T10:29:39.000Z</time>
      </trkpt>
      <trkpt lat="49.77285" lon="4.80702">
        <ele>283</ele>
        <time>2020-11-13T10:29:40.000Z</time>
      </trkpt>
      <trkpt lat="49.77284" lon="4.80699">
        <ele>284</ele>
        <time>2020-11-13T10:29:41.000Z</time>
      </trkpt>
      <trkpt lat="49.77282" lon="4.80696">
        <ele>284</ele>
        <time>2020-11-13T10:29:42.000Z</time>
      </trkpt>
      <trkpt lat="49.77281" lon="4.80693">
        <ele>284</ele>
        <time>2020-11-13T10:29:43.000Z</time>
      </trkpt>
      <trkpt lat="49.7728" lon="4.8069">
        <ele>284</ele>
        <time>2020-11-13T10:29:44.000Z</time>
      </trkpt>
      <trkpt lat="49.77278" lon="4.80687">
        <ele>284</ele>
        <time>2020-11-13T10:29:45.000Z</time>
      </trkpt>
      <trkpt lat="49.77277" lon="4.80684">
        <ele>284</ele>
        <time>2020-11-13T10:29:46.000Z</time>
      </trkpt>
      <trkpt lat="49.77276" lon="4.80681">
        <ele>284</ele>
        <time>2020-11-13T10:29:47.000Z</time>
      </trkpt>
      <trkpt lat="49.77274" lon="4.80678">
        <ele>284</ele>
        <time>2020-11-13T10:29:48.000Z</time>
      </trkpt>
      <trkpt lat="49.77273" lon="4.80675">
        <ele>284</ele>
        <time>2020-11-13T10:29:49.000Z</time>
      </trkpt>
      <trkpt lat="49.77271" lon="4.80671">
        <ele>284</ele>
        <time>2020-11-13T10:29:50.000Z</time>
      </trkpt>
      <trkpt lat="49.7727" lon="4.80668">
        <ele>284</ele>
        <time>2020-11-13T10:29:51.000Z</time>
      </trkpt>
      <trkpt lat="49.77269" lon="4.80664">
        <ele>284</ele>
        <time>2020-11-13T10:29:52.000Z</time>
      </trkpt>
      <trkpt lat="49.77268" lon="4.80661">
        <ele>285</ele>
        <time>2020-11-13T10:29:53.000Z</time>
      </trkpt>
      <trkpt lat="49.77267" lon="4.80658">
        <ele>285</ele>
        <time>2020-11-13T10:29:54.000Z</time>
      </trkpt>
      <trkpt lat="49.77266" lon="4.80655">
        <ele>285</ele>
        <time>2020-11-13T10:29:55.000Z</time>
      </trkpt>
      <trkpt lat="49.77265" lon="4.80651">
        <ele>285</ele>
        <time>2020-11-13T10:29:56.000Z</time>
      </trkpt>
      <trkpt lat="49.77264" lon="4.80648">
        <ele>285</ele>
        <time>2020-11-13T10:29:57.000Z</time>
      </trkpt>
      <trkpt lat="49.77263" lon="4.80644">
        <ele>285</ele>
        <time>2020-11-13T10:29:58.000Z</time>
      </trkpt>
      <trkpt lat="49.77262" lon="4.8064">
        <ele>285</ele>
        <time>2020-11-13T10:29:59.000Z</time>
      </trkpt>
      <trkpt lat="49.77261" lon="4.80636">
        <ele>285</ele>
        <time>2020-11-13T10:30:00.000Z</time>
      </trkpt>
      <trkpt lat="49.7726" lon="4.80633">
        <ele>285</ele>
        <time>2020-11-13T10:30:01.000Z</time>
      </trkpt>
      <trkpt lat="49.7726" lon="4.8063">
        <ele>285</ele>
        <time>2020-11-13T10:30:02.000Z</time>
      </trkpt>
      <trkpt lat="49.77259" lon="4.80627">
        <ele>285</ele>
        <time>2020-11-13T10:30:03.000Z</time>
      </trkpt>
      <trkpt lat="49.77259" lon="4.80623">
        <ele>285</ele>
        <time>2020-11-13T10:30:04.000Z</time>
      </trkpt>
      <trkpt lat="49.77258" lon="4.80619">
        <ele>285</ele>
        <time>2020-11-13T10:30:05.000Z</time>
      </trkpt>
      <trkpt lat="49.77257" lon="4.80615">
        <ele>285</ele>
        <time>2020-11-13T10:30:06.000Z</time>
      </trkpt>
      <trkpt lat="49.77256" lon="4.80611">
        <ele>285</ele>
        <time>2020-11-13T10:30:07.000Z</time>
      </trkpt>
      <trkpt lat="49.77255" lon="4.80607">
        <ele>285</ele>
        <time>2020-11-13T10:30:08.000Z</time>
      </trkpt>
      <trkpt lat="49.77254" lon="4.80602">
        <ele>284</ele>
        <time>2020-11-13T10:30:09.000Z</time>
      </trkpt>
      <trkpt lat="49.77253" lon="4.80597">
        <ele>284</ele>
        <time>2020-11-13T10:30:10.000Z</time>
      </trkpt>
      <trkpt lat="49.77252" lon="4.80592">
        <ele>284</ele>
        <time>2020-11-13T10:30:11.000Z</time>
      </trkpt>
      <trkpt lat="49.77251" lon="4.80587">
        <ele>284</ele>
        <time>2020-11-13T10:30:12.000Z</time>
      </trkpt>
      <trkpt lat="49.7725" lon="4.80582">
        <ele>284</ele>
        <time>2020-11-13T10:30:13.000Z</time>
      </trkpt>
      <trkpt lat="49.77249" lon="4.80577">
        <ele>284</ele>
        <time>2020-11-13T10:30:14.000Z</time>
      </trkpt>
      <trkpt lat="49.77248" lon="4.80571">
        <ele>284</ele>
        <time>2020-11-13T10:30:15.000Z</time>
      </trkpt>
      <trkpt lat="49.77246" lon="4.80566">
        <ele>284</ele>
        <time>2020-11-13T10:30:16.000Z</time>
      </trkpt>
      <trkpt lat="49.77245" lon="4.8056">
        <ele>283</ele>
        <time>2020-11-13T10:30:17.000Z</time>
      </trkpt>
      <trkpt lat="49.77244" lon="4.80554">
        <ele>283</ele>
        <time>2020-11-13T10:30:18.000Z</time>
      </trkpt>
      <trkpt lat="49.77243" lon="4.80548">
        <ele>283</ele>
        <time>2020-11-13T10:30:19.000Z</time>
      </trkpt>
      <trkpt lat="49.77241" lon="4.80542">
        <ele>283</ele>
        <time>2020-11-13T10:30:20.000Z</time>
      </trkpt>
      <trkpt lat="49.7724" lon="4.80536">
        <ele>283</ele>
        <time>2020-11-13T10:30:21.000Z</time>
      </trkpt>
      <trkpt lat="49.77239" lon="4.8053">
        <ele>283</ele>
        <time>2020-11-13T10:30:22.000Z</time>
      </trkpt>
      <trkpt lat="49.77237" lon="4.80524">
        <ele>282</ele>
        <time>2020-11-13T10:30:23.000Z</time>
      </trkpt>
      <trkpt lat="49.77236" lon="4.80519">
        <ele>282</ele>
        <time>2020-11-13T10:30:24.000Z</time>
      </trkpt>
      <trkpt lat="49.77235" lon="4.80513">
        <ele>282</ele>
        <time>2020-11-13T10:30:25.000Z</time>
      </trkpt>
      <trkpt lat="49.77234" lon="4.80508">
        <ele>282</ele>
        <time>2020-11-13T10:30:26.000Z</time>
      </trkpt>
      <trkpt lat="49.77233" lon="4.80502">
        <ele>282</ele>
        <time>2020-11-13T10:30:27.000Z</time>
      </trkpt>
      <trkpt lat="49.77232" lon="4.80497">
        <ele>282</ele>
        <time>2020-11-13T10:30:28.000Z</time>
      </trkpt>
      <trkpt lat="49.7723" lon="4.80491">
        <ele>282</ele>
        <time>2020-11-13T10:30:29.000Z</time>
      </trkpt>
      <trkpt lat="49.77229" lon="4.80486">
        <ele>282</ele>
        <time>2020-11-13T10:30:30.000Z</time>
      </trkpt>
      <trkpt lat="49.77228" lon="4.8048">
        <ele>282</ele>
        <time>2020-11-13T10:30:31.000Z</time>
      </trkpt>
      <trkpt lat="49.77227" lon="4.80475">
        <ele>282</ele>
        <time>2020-11-13T10:30:32.000Z</time>
      </trkpt>
      <trkpt lat="49.77226" lon="4.8047">
        <ele>282</ele>
        <time>2020-11-13T10:30:33.000Z</time>
      </trkpt>
      <trkpt lat="49.77225" lon="4.80465">
        <ele>282</ele>
        <time>2020-11-13T10:30:34.000Z</time>
      </trkpt>
      <trkpt lat="49.77224" lon="4.8046">
        <ele>282</ele>
        <time>2020-11-13T10:30:35.000Z</time>
      </trkpt>
      <trkpt lat="49.77223" lon="4.80456">
        <ele>282</ele>
        <time>2020-11-13T10:30:36.000Z</time>
      </trkpt>
      <trkpt lat="49.77222" lon="4.80452">
        <ele>282</ele>
        <time>2020-11-13T10:30:37.000Z</time>
      </trkpt>
      <trkpt lat="49.77222" lon="4.80448">
        <ele>283</ele>
        <time>2020-11-13T10:30:38.000Z</time>
      </trkpt>
      <trkpt lat="49.77221" lon="4.80444">
        <ele>283</ele>
        <time>2020-11-13T10:30:39.000Z</time>
      </trkpt>
      <trkpt lat="49.7722" lon="4.80441">
        <ele>283</ele>
        <time>2020-11-13T10:30:40.000Z</time>
      </trkpt>
      <trkpt lat="49.77219" lon="4.80437">
        <ele>283</ele>
        <time>2020-11-13T10:30:41.000Z</time>
      </trkpt>
      <trkpt lat="49.77219" lon="4.80433">
        <ele>283</ele>
        <time>2020-11-13T10:30:42.000Z</time>
      </trkpt>
      <trkpt lat="49.77219" lon="4.80429">
        <ele>284</ele>
        <time>2020-11-13T10:30:43.000Z</time>
      </trkpt>
      <trkpt lat="49.77219" lon="4.80427">
        <ele>284</ele>
        <time>2020-11-13T10:30:44.000Z</time>
      </trkpt>
      <trkpt lat="49.77219" lon="4.80424">
        <ele>284</ele>
        <time>2020-11-13T10:30:45.000Z</time>
      </trkpt>
      <trkpt lat="49.77218" lon="4.80421">
        <ele>284</ele>
        <time>2020-11-13T10:30:46.000Z</time>
      </trkpt>
      <trkpt lat="49.77217" lon="4.80417">
        <ele>284</ele>
        <time>2020-11-13T10:30:47.000Z</time>
      </trkpt>
      <trkpt lat="49.77217" lon="4.80414">
        <ele>285</ele>
        <time>2020-11-13T10:30:48.000Z</time>
      </trkpt>
      <trkpt lat="49.77216" lon="4.80412">
        <ele>285</ele>
        <time>2020-11-13T10:30:49.000Z</time>
      </trkpt>
      <trkpt lat="49.77215" lon="4.80409">
        <ele>285</ele>
        <time>2020-11-13T10:30:50.000Z</time>
      </trkpt>
      <trkpt lat="49.77215" lon="4.80406">
        <ele>285</ele>
        <time>2020-11-13T10:30:51.000Z</time>
      </trkpt>
      <trkpt lat="49.77214" lon="4.80404">
        <ele>286</ele>
        <time>2020-11-13T10:30:52.000Z</time>
      </trkpt>
      <trkpt lat="49.77214" lon="4.80401">
        <ele>286</ele>
        <time>2020-11-13T10:30:53.000Z</time>
      </trkpt>
      <trkpt lat="49.77213" lon="4.80399">
        <ele>286</ele>
        <time>2020-11-13T10:30:54.000Z</time>
      </trkpt>
      <trkpt lat="49.77212" lon="4.80397">
        <ele>286</ele>
        <time>2020-11-13T10:30:55.000Z</time>
      </trkpt>
      <trkpt lat="49.77212" lon="4.80394">
        <ele>286</ele>
        <time>2020-11-13T10:30:56.000Z</time>
      </trkpt>
      <trkpt lat="49.77212" lon="4.80391">
        <ele>287</ele>
        <time>2020-11-13T10:30:57.000Z</time>
      </trkpt>
      <trkpt lat="49.77212" lon="4.80388">
        <ele>287</ele>
        <time>2020-11-13T10:30:58.000Z</time>
      </trkpt>
      <trkpt lat="49.77213" lon="4.80386">
        <ele>287</ele>
        <time>2020-11-13T10:30:59.000Z</time>
      </trkpt>
      <trkpt lat="49.77214" lon="4.80384">
        <ele>287</ele>
        <time>2020-11-13T10:31:00.000Z</time>
      </trkpt>
      <trkpt lat="49.77216" lon="4.80383">
        <ele>287</ele>
        <time>2020-11-13T10:31:01.000Z</time>
      </trkpt>
      <trkpt lat="49.77217" lon="4.80381">
        <ele>287</ele>
        <time>2020-11-13T10:31:02.000Z</time>
      </trkpt>
      <trkpt lat="49.77218" lon="4.80378">
        <ele>287</ele>
        <time>2020-11-13T10:31:03.000Z</time>
      </trkpt>
      <trkpt lat="49.77219" lon="4.80376">
        <ele>288</ele>
        <time>2020-11-13T10:31:04.000Z</time>
      </trkpt>
      <trkpt lat="49.77219" lon="4.80374">
        <ele>288</ele>
        <time>2020-11-13T10:31:05.000Z</time>
      </trkpt>
      <trkpt lat="49.77218" lon="4.80373">
        <ele>288</ele>
        <time>2020-11-13T10:31:06.000Z</time>
      </trkpt>
      <trkpt lat="49.77217" lon="4.80371">
        <ele>288</ele>
        <time>2020-11-13T10:31:07.000Z</time>
      </trkpt>
      <trkpt lat="49.77216" lon="4.8037">
        <ele>288</ele>
        <time>2020-11-13T10:31:08.000Z</time>
      </trkpt>
      <trkpt lat="49.77215" lon="4.80368">
        <ele>288</ele>
        <time>2020-11-13T10:31:09.000Z</time>
      </trkpt>
      <trkpt lat="49.77214" lon="4.80366">
        <ele>288</ele>
        <time>2020-11-13T10:31:10.000Z</time>
      </trkpt>
      <trkpt lat="49.77214" lon="4.80364">
        <ele>289</ele>
        <time>2020-11-13T10:31:11.000Z</time>
      </trkpt>
      <trkpt lat="49.77213" lon="4.80361">
        <ele>289</ele>
        <time>2020-11-13T10:31:12.000Z</time>
      </trkpt>
      <trkpt lat="49.77212" lon="4.80359">
        <ele>289</ele>
        <time>2020-11-13T10:31:13.000Z</time>
      </trkpt>
      <trkpt lat="49.77212" lon="4.80357">
        <ele>289</ele>
        <time>2020-11-13T10:31:14.000Z</time>
      </trkpt>
      <trkpt lat="49.77211" lon="4.80355">
        <ele>289</ele>
        <time>2020-11-13T10:31:15.000Z</time>
      </trkpt>
      <trkpt lat="49.7721" lon="4.80354">
        <ele>290</ele>
        <time>2020-11-13T10:31:16.000Z</time>
      </trkpt>
      <trkpt lat="49.77209" lon="4.80351">
        <ele>290</ele>
        <time>2020-11-13T10:31:17.000Z</time>
      </trkpt>
      <trkpt lat="49.77208" lon="4.80349">
        <ele>290</ele>
        <time>2020-11-13T10:31:18.000Z</time>
      </trkpt>
      <trkpt lat="49.77208" lon="4.80348">
        <ele>291</ele>
        <time>2020-11-13T10:31:19.000Z</time>
      </trkpt>
      <trkpt lat="49.77207" lon="4.80345">
        <ele>291</ele>
        <time>2020-11-13T10:31:20.000Z</time>
      </trkpt>
      <trkpt lat="49.77206" lon="4.80343">
        <ele>291</ele>
        <time>2020-11-13T10:31:21.000Z</time>
      </trkpt>
      <trkpt lat="49.77206" lon="4.80342">
        <ele>291</ele>
        <time>2020-11-13T10:31:22.000Z</time>
      </trkpt>
      <trkpt lat="49.77204" lon="4.8034">
        <ele>292</ele>
        <time>2020-11-13T10:31:23.000Z</time>
      </trkpt>
      <trkpt lat="49.77203" lon="4.80338">
        <ele>292</ele>
        <time>2020-11-13T10:31:24.000Z</time>
      </trkpt>
      <trkpt lat="49.77202" lon="4.80336">
        <ele>292</ele>
        <time>2020-11-13T10:31:25.000Z</time>
      </trkpt>
      <trkpt lat="49.77202" lon="4.80333">
        <ele>293</ele>
        <time>2020-11-13T10:31:26.000Z</time>
      </trkpt>
      <trkpt lat="49.77201" lon="4.80331">
        <ele>293</ele>
        <time>2020-11-13T10:31:27.000Z</time>
      </trkpt>
      <trkpt lat="49.772" lon="4.80328">
        <ele>293</ele>
        <time>2020-11-13T10:31:28.000Z</time>
      </trkpt>
      <trkpt lat="49.77199" lon="4.80325">
        <ele>293</ele>
        <time>2020-11-13T10:31:29.000Z</time>
      </trkpt>
      <trkpt lat="49.77199" lon="4.80322">
        <ele>294</ele>
        <time>2020-11-13T10:31:30.000Z</time>
      </trkpt>
      <trkpt lat="49.77199" lon="4.8032">
        <ele>294</ele>
        <time>2020-11-13T10:31:31.000Z</time>
      </trkpt>
      <trkpt lat="49.77199" lon="4.80317">
        <ele>294</ele>
        <time>2020-11-13T10:31:32.000Z</time>
      </trkpt>
      <trkpt lat="49.77199" lon="4.80314">
        <ele>294</ele>
        <time>2020-11-13T10:31:33.000Z</time>
      </trkpt>
      <trkpt lat="49.77199" lon="4.80311">
        <ele>295</ele>
        <time>2020-11-13T10:31:34.000Z</time>
      </trkpt>
      <trkpt lat="49.77199" lon="4.80308">
        <ele>295</ele>
        <time>2020-11-13T10:31:35.000Z</time>
      </trkpt>
      <trkpt lat="49.77198" lon="4.80305">
        <ele>295</ele>
        <time>2020-11-13T10:31:36.000Z</time>
      </trkpt>
      <trkpt lat="49.77196" lon="4.80301">
        <ele>295</ele>
        <time>2020-11-13T10:31:37.000Z</time>
      </trkpt>
      <trkpt lat="49.77194" lon="4.80298">
        <ele>295</ele>
        <time>2020-11-13T10:31:38.000Z</time>
      </trkpt>
      <trkpt lat="49.77192" lon="4.80296">
        <ele>295</ele>
        <time>2020-11-13T10:31:39.000Z</time>
      </trkpt>
      <trkpt lat="49.77191" lon="4.80293">
        <ele>295</ele>
        <time>2020-11-13T10:31:40.000Z</time>
      </trkpt>
      <trkpt lat="49.77189" lon="4.8029">
        <ele>296</ele>
        <time>2020-11-13T10:31:41.000Z</time>
      </trkpt>
      <trkpt lat="49.77186" lon="4.80287">
        <ele>296</ele>
        <time>2020-11-13T10:31:42.000Z</time>
      </trkpt>
      <trkpt lat="49.77184" lon="4.80284">
        <ele>296</ele>
        <time>2020-11-13T10:31:43.000Z</time>
      </trkpt>
      <trkpt lat="49.77182" lon="4.80281">
        <ele>296</ele>
        <time>2020-11-13T10:31:44.000Z</time>
      </trkpt>
      <trkpt lat="49.77179" lon="4.80278">
        <ele>296</ele>
        <time>2020-11-13T10:31:45.000Z</time>
      </trkpt>
      <trkpt lat="49.77177" lon="4.80275">
        <ele>296</ele>
        <time>2020-11-13T10:31:46.000Z</time>
      </trkpt>
      <trkpt lat="49.77174" lon="4.80272">
        <ele>296</ele>
        <time>2020-11-13T10:31:47.000Z</time>
      </trkpt>
      <trkpt lat="49.77171" lon="4.8027">
        <ele>296</ele>
        <time>2020-11-13T10:31:48.000Z</time>
      </trkpt>
      <trkpt lat="49.77169" lon="4.80267">
        <ele>296</ele>
        <time>2020-11-13T10:31:49.000Z</time>
      </trkpt>
      <trkpt lat="49.77166" lon="4.80264">
        <ele>297</ele>
        <time>2020-11-13T10:31:50.000Z</time>
      </trkpt>
      <trkpt lat="49.77164" lon="4.8026">
        <ele>297</ele>
        <time>2020-11-13T10:31:51.000Z</time>
      </trkpt>
      <trkpt lat="49.77161" lon="4.80257">
        <ele>297</ele>
        <time>2020-11-13T10:31:52.000Z</time>
      </trkpt>
      <trkpt lat="49.7716" lon="4.80254">
        <ele>297</ele>
        <time>2020-11-13T10:31:53.000Z</time>
      </trkpt>
      <trkpt lat="49.77158" lon="4.80251">
        <ele>297</ele>
        <time>2020-11-13T10:31:54.000Z</time>
      </trkpt>
      <trkpt lat="49.77156" lon="4.80249">
        <ele>297</ele>
        <time>2020-11-13T10:31:55.000Z</time>
      </trkpt>
      <trkpt lat="49.77154" lon="4.80246">
        <ele>298</ele>
        <time>2020-11-13T10:31:56.000Z</time>
      </trkpt>
      <trkpt lat="49.77151" lon="4.80242">
        <ele>298</ele>
        <time>2020-11-13T10:31:57.000Z</time>
      </trkpt>
      <trkpt lat="49.77149" lon="4.80239">
        <ele>298</ele>
        <time>2020-11-13T10:31:58.000Z</time>
      </trkpt>
      <trkpt lat="49.77146" lon="4.80236">
        <ele>298</ele>
        <time>2020-11-13T10:31:59.000Z</time>
      </trkpt>
      <trkpt lat="49.77143" lon="4.80233">
        <ele>298</ele>
        <time>2020-11-13T10:32:00.000Z</time>
      </trkpt>
      <trkpt lat="49.77141" lon="4.8023">
        <ele>298</ele>
        <time>2020-11-13T10:32:01.000Z</time>
      </trkpt>
      <trkpt lat="49.77138" lon="4.80226">
        <ele>298</ele>
        <time>2020-11-13T10:32:02.000Z</time>
      </trkpt>
      <trkpt lat="49.77135" lon="4.80223">
        <ele>299</ele>
        <time>2020-11-13T10:32:03.000Z</time>
      </trkpt>
      <trkpt lat="49.77133" lon="4.8022">
        <ele>299</ele>
        <time>2020-11-13T10:32:04.000Z</time>
      </trkpt>
      <trkpt lat="49.7713" lon="4.80216">
        <ele>299</ele>
        <time>2020-11-13T10:32:05.000Z</time>
      </trkpt>
      <trkpt lat="49.77128" lon="4.80211">
        <ele>299</ele>
        <time>2020-11-13T10:32:06.000Z</time>
      </trkpt>
      <trkpt lat="49.77125" lon="4.80207">
        <ele>299</ele>
        <time>2020-11-13T10:32:07.000Z</time>
      </trkpt>
      <trkpt lat="49.77122" lon="4.80203">
        <ele>299</ele>
        <time>2020-11-13T10:32:08.000Z</time>
      </trkpt>
      <trkpt lat="49.77119" lon="4.80198">
        <ele>299</ele>
        <time>2020-11-13T10:32:09.000Z</time>
      </trkpt>
      <trkpt lat="49.77116" lon="4.80195">
        <ele>300</ele>
        <time>2020-11-13T10:32:10.000Z</time>
      </trkpt>
      <trkpt lat="49.77114" lon="4.80191">
        <ele>300</ele>
        <time>2020-11-13T10:32:11.000Z</time>
      </trkpt>
      <trkpt lat="49.77111" lon="4.80187">
        <ele>300</ele>
        <time>2020-11-13T10:32:12.000Z</time>
      </trkpt>
      <trkpt lat="49.77109" lon="4.80183">
        <ele>299</ele>
        <time>2020-11-13T10:32:13.000Z</time>
      </trkpt>
      <trkpt lat="49.77106" lon="4.80179">
        <ele>299</ele>
        <time>2020-11-13T10:32:14.000Z</time>
      </trkpt>
      <trkpt lat="49.77103" lon="4.80177">
        <ele>299</ele>
        <time>2020-11-13T10:32:15.000Z</time>
      </trkpt>
      <trkpt lat="49.771" lon="4.80173">
        <ele>299</ele>
        <time>2020-11-13T10:32:16.000Z</time>
      </trkpt>
      <trkpt lat="49.77097" lon="4.8017">
        <ele>299</ele>
        <time>2020-11-13T10:32:17.000Z</time>
      </trkpt>
      <trkpt lat="49.77095" lon="4.80167">
        <ele>299</ele>
        <time>2020-11-13T10:32:18.000Z</time>
      </trkpt>
      <trkpt lat="49.77092" lon="4.80164">
        <ele>299</ele>
        <time>2020-11-13T10:32:19.000Z</time>
      </trkpt>
      <trkpt lat="49.7709" lon="4.80161">
        <ele>300</ele>
        <time>2020-11-13T10:32:20.000Z</time>
      </trkpt>
      <trkpt lat="49.77087" lon="4.8016">
        <ele>300</ele>
        <time>2020-11-13T10:32:21.000Z</time>
      </trkpt>
      <trkpt lat="49.77084" lon="4.8016">
        <ele>300</ele>
        <time>2020-11-13T10:32:22.000Z</time>
      </trkpt>
      <trkpt lat="49.77082" lon="4.80161">
        <ele>300</ele>
        <time>2020-11-13T10:32:23.000Z</time>
      </trkpt>
      <trkpt lat="49.77079" lon="4.80163">
        <ele>300</ele>
        <time>2020-11-13T10:32:24.000Z</time>
      </trkpt>
      <trkpt lat="49.77076" lon="4.80166">
        <ele>300</ele>
        <time>2020-11-13T10:32:25.000Z</time>
      </trkpt>
      <trkpt lat="49.77073" lon="4.8017">
        <ele>300</ele>
        <time>2020-11-13T10:32:26.000Z</time>
      </trkpt>
      <trkpt lat="49.7707" lon="4.80174">
        <ele>301</ele>
        <time>2020-11-13T10:32:27.000Z</time>
      </trkpt>
      <trkpt lat="49.77067" lon="4.80178">
        <ele>301</ele>
        <time>2020-11-13T10:32:28.000Z</time>
      </trkpt>
      <trkpt lat="49.77064" lon="4.80183">
        <ele>301</ele>
        <time>2020-11-13T10:32:29.000Z</time>
      </trkpt>
      <trkpt lat="49.7706" lon="4.80188">
        <ele>301</ele>
        <time>2020-11-13T10:32:30.000Z</time>
      </trkpt>
      <trkpt lat="49.77056" lon="4.80193">
        <ele>301</ele>
        <time>2020-11-13T10:32:31.000Z</time>
      </trkpt>
      <trkpt lat="49.77051" lon="4.80198">
        <ele>301</ele>
        <time>2020-11-13T10:32:32.000Z</time>
      </trkpt>
      <trkpt lat="49.77046" lon="4.80202">
        <ele>301</ele>
        <time>2020-11-13T10:32:33.000Z</time>
      </trkpt>
      <trkpt lat="49.77041" lon="4.80206">
        <ele>301</ele>
        <time>2020-11-13T10:32:34.000Z</time>
      </trkpt>
      <trkpt lat="49.77035" lon="4.80211">
        <ele>301</ele>
        <time>2020-11-13T10:32:35.000Z</time>
      </trkpt>
      <trkpt lat="49.7703" lon="4.80215">
        <ele>301</ele>
        <time>2020-11-13T10:32:36.000Z</time>
      </trkpt>
      <trkpt lat="49.77025" lon="4.80221">
        <ele>301</ele>
        <time>2020-11-13T10:32:37.000Z</time>
      </trkpt>
      <trkpt lat="49.7702" lon="4.80226">
        <ele>301</ele>
        <time>2020-11-13T10:32:38.000Z</time>
      </trkpt>
      <trkpt lat="49.77015" lon="4.80232">
        <ele>301</ele>
        <time>2020-11-13T10:32:39.000Z</time>
      </trkpt>
      <trkpt lat="49.7701" lon="4.80238">
        <ele>301</ele>
        <time>2020-11-13T10:32:40.000Z</time>
      </trkpt>
      <trkpt lat="49.77005" lon="4.80245">
        <ele>300</ele>
        <time>2020-11-13T10:32:41.000Z</time>
      </trkpt>
      <trkpt lat="49.76999" lon="4.80251">
        <ele>300</ele>
        <time>2020-11-13T10:32:42.000Z</time>
      </trkpt>
      <trkpt lat="49.76993" lon="4.80258">
        <ele>300</ele>
        <time>2020-11-13T10:32:43.000Z</time>
      </trkpt>
      <trkpt lat="49.76988" lon="4.80265">
        <ele>300</ele>
        <time>2020-11-13T10:32:44.000Z</time>
      </trkpt>
      <trkpt lat="49.76982" lon="4.80272">
        <ele>300</ele>
        <time>2020-11-13T10:32:45.000Z</time>
      </trkpt>
      <trkpt lat="49.76976" lon="4.80281">
        <ele>300</ele>
        <time>2020-11-13T10:32:46.000Z</time>
      </trkpt>
      <trkpt lat="49.7697" lon="4.80289">
        <ele>300</ele>
        <time>2020-11-13T10:32:47.000Z</time>
      </trkpt>
      <trkpt lat="49.76963" lon="4.80297">
        <ele>299</ele>
        <time>2020-11-13T10:32:48.000Z</time>
      </trkpt>
      <trkpt lat="49.76957" lon="4.80306">
        <ele>299</ele>
        <time>2020-11-13T10:32:49.000Z</time>
      </trkpt>
      <trkpt lat="49.7695" lon="4.80315">
        <ele>299</ele>
        <time>2020-11-13T10:32:50.000Z</time>
      </trkpt>
      <trkpt lat="49.76944" lon="4.80323">
        <ele>298</ele>
        <time>2020-11-13T10:32:51.000Z</time>
      </trkpt>
      <trkpt lat="49.76936" lon="4.80331">
        <ele>298</ele>
        <time>2020-11-13T10:32:52.000Z</time>
      </trkpt>
      <trkpt lat="49.76929" lon="4.80338">
        <ele>297</ele>
        <time>2020-11-13T10:32:53.000Z</time>
      </trkpt>
      <trkpt lat="49.76922" lon="4.80346">
        <ele>296</ele>
        <time>2020-11-13T10:32:54.000Z</time>
      </trkpt>
      <trkpt lat="49.76916" lon="4.80355">
        <ele>296</ele>
        <time>2020-11-13T10:32:55.000Z</time>
      </trkpt>
      <trkpt lat="49.7691" lon="4.80364">
        <ele>295</ele>
        <time>2020-11-13T10:32:56.000Z</time>
      </trkpt>
      <trkpt lat="49.76904" lon="4.80371">
        <ele>295</ele>
        <time>2020-11-13T10:32:57.000Z</time>
      </trkpt>
      <trkpt lat="49.76898" lon="4.80378">
        <ele>294</ele>
        <time>2020-11-13T10:32:58.000Z</time>
      </trkpt>
      <trkpt lat="49.76892" lon="4.80383">
        <ele>294</ele>
        <time>2020-11-13T10:32:59.000Z</time>
      </trkpt>
      <trkpt lat="49.76886" lon="4.80388">
        <ele>293</ele>
        <time>2020-11-13T10:33:00.000Z</time>
      </trkpt>
      <trkpt lat="49.7688" lon="4.80391">
        <ele>293</ele>
        <time>2020-11-13T10:33:01.000Z</time>
      </trkpt>
      <trkpt lat="49.76873" lon="4.80395">
        <ele>292</ele>
        <time>2020-11-13T10:33:02.000Z</time>
      </trkpt>
      <trkpt lat="49.76866" lon="4.80398">
        <ele>292</ele>
        <time>2020-11-13T10:33:03.000Z</time>
      </trkpt>
      <trkpt lat="49.76859" lon="4.80402">
        <ele>291</ele>
        <time>2020-11-13T10:33:04.000Z</time>
      </trkpt>
      <trkpt lat="49.76853" lon="4.80406">
        <ele>291</ele>
        <time>2020-11-13T10:33:05.000Z</time>
      </trkpt>
      <trkpt lat="49.76846" lon="4.8041">
        <ele>291</ele>
        <time>2020-11-13T10:33:06.000Z</time>
      </trkpt>
      <trkpt lat="49.76841" lon="4.80414">
        <ele>290</ele>
        <time>2020-11-13T10:33:07.000Z</time>
      </trkpt>
      <trkpt lat="49.76836" lon="4.80419">
        <ele>290</ele>
        <time>2020-11-13T10:33:08.000Z</time>
      </trkpt>
      <trkpt lat="49.7683" lon="4.80423">
        <ele>290</ele>
        <time>2020-11-13T10:33:09.000Z</time>
      </trkpt>
      <trkpt lat="49.76824" lon="4.80427">
        <ele>289</ele>
        <time>2020-11-13T10:33:10.000Z</time>
      </trkpt>
      <trkpt lat="49.76817" lon="4.80431">
        <ele>289</ele>
        <time>2020-11-13T10:33:11.000Z</time>
      </trkpt>
      <trkpt lat="49.76811" lon="4.80435">
        <ele>289</ele>
        <time>2020-11-13T10:33:12.000Z</time>
      </trkpt>
      <trkpt lat="49.76804" lon="4.80439">
        <ele>289</ele>
        <time>2020-11-13T10:33:13.000Z</time>
      </trkpt>
      <trkpt lat="49.76799" lon="4.80443">
        <ele>289</ele>
        <time>2020-11-13T10:33:14.000Z</time>
      </trkpt>
      <trkpt lat="49.76793" lon="4.80446">
        <ele>289</ele>
        <time>2020-11-13T10:33:15.000Z</time>
      </trkpt>
      <trkpt lat="49.76788" lon="4.80449">
        <ele>288</ele>
        <time>2020-11-13T10:33:16.000Z</time>
      </trkpt>
      <trkpt lat="49.76783" lon="4.80452">
        <ele>288</ele>
        <time>2020-11-13T10:33:17.000Z</time>
      </trkpt>
      <trkpt lat="49.76778" lon="4.80453">
        <ele>288</ele>
        <time>2020-11-13T10:33:18.000Z</time>
      </trkpt>
      <trkpt lat="49.76772" lon="4.80455">
        <ele>288</ele>
        <time>2020-11-13T10:33:19.000Z</time>
      </trkpt>
      <trkpt lat="49.76767" lon="4.80457">
        <ele>288</ele>
        <time>2020-11-13T10:33:20.000Z</time>
      </trkpt>
      <trkpt lat="49.76762" lon="4.80459">
        <ele>288</ele>
        <time>2020-11-13T10:33:21.000Z</time>
      </trkpt>
      <trkpt lat="49.76755" lon="4.8046">
        <ele>288</ele>
        <time>2020-11-13T10:33:22.000Z</time>
      </trkpt>
      <trkpt lat="49.7675" lon="4.80462">
        <ele>287</ele>
        <time>2020-11-13T10:33:23.000Z</time>
      </trkpt>
      <trkpt lat="49.76744" lon="4.80464">
        <ele>287</ele>
        <time>2020-11-13T10:33:24.000Z</time>
      </trkpt>
      <trkpt lat="49.76738" lon="4.80467">
        <ele>287</ele>
        <time>2020-11-13T10:33:25.000Z</time>
      </trkpt>
      <trkpt lat="49.76732" lon="4.80469">
        <ele>287</ele>
        <time>2020-11-13T10:33:26.000Z</time>
      </trkpt>
      <trkpt lat="49.76726" lon="4.8047">
        <ele>287</ele>
        <time>2020-11-13T10:33:27.000Z</time>
      </trkpt>
      <trkpt lat="49.7672" lon="4.80472">
        <ele>286</ele>
        <time>2020-11-13T10:33:28.000Z</time>
      </trkpt>
      <trkpt lat="49.76715" lon="4.80474">
        <ele>286</ele>
        <time>2020-11-13T10:33:29.000Z</time>
      </trkpt>
      <trkpt lat="49.76709" lon="4.80476">
        <ele>286</ele>
        <time>2020-11-13T10:33:30.000Z</time>
      </trkpt>
      <trkpt lat="49.76703" lon="4.80478">
        <ele>286</ele>
        <time>2020-11-13T10:33:31.000Z</time>
      </trkpt>
      <trkpt lat="49.76697" lon="4.80481">
        <ele>286</ele>
        <time>2020-11-13T10:33:32.000Z</time>
      </trkpt>
      <trkpt lat="49.76692" lon="4.80483">
        <ele>286</ele>
        <time>2020-11-13T10:33:33.000Z</time>
      </trkpt>
      <trkpt lat="49.76686" lon="4.80485">
        <ele>285</ele>
        <time>2020-11-13T10:33:34.000Z</time>
      </trkpt>
      <trkpt lat="49.7668" lon="4.80485">
        <ele>285</ele>
        <time>2020-11-13T10:33:35.000Z</time>
      </trkpt>
      <trkpt lat="49.76674" lon="4.80484">
        <ele>285</ele>
        <time>2020-11-13T10:33:36.000Z</time>
      </trkpt>
      <trkpt lat="49.76668" lon="4.80483">
        <ele>285</ele>
        <time>2020-11-13T10:33:37.000Z</time>
      </trkpt>
      <trkpt lat="49.76662" lon="4.80482">
        <ele>285</ele>
        <time>2020-11-13T10:33:38.000Z</time>
      </trkpt>
      <trkpt lat="49.76657" lon="4.80482">
        <ele>285</ele>
        <time>2020-11-13T10:33:39.000Z</time>
      </trkpt>
      <trkpt lat="49.76651" lon="4.80483">
        <ele>285</ele>
        <time>2020-11-13T10:33:40.000Z</time>
      </trkpt>
      <trkpt lat="49.76645" lon="4.80484">
        <ele>285</ele>
        <time>2020-11-13T10:33:41.000Z</time>
      </trkpt>
      <trkpt lat="49.7664" lon="4.80486">
        <ele>285</ele>
        <time>2020-11-13T10:33:42.000Z</time>
      </trkpt>
      <trkpt lat="49.76635" lon="4.80487">
        <ele>285</ele>
        <time>2020-11-13T10:33:43.000Z</time>
      </trkpt>
      <trkpt lat="49.7663" lon="4.80488">
        <ele>285</ele>
        <time>2020-11-13T10:33:44.000Z</time>
      </trkpt>
      <trkpt lat="49.76626" lon="4.8049">
        <ele>284</ele>
        <time>2020-11-13T10:33:45.000Z</time>
      </trkpt>
      <trkpt lat="49.7662" lon="4.80492">
        <ele>284</ele>
        <time>2020-11-13T10:33:46.000Z</time>
      </trkpt>
      <trkpt lat="49.76615" lon="4.80494">
        <ele>284</ele>
        <time>2020-11-13T10:33:47.000Z</time>
      </trkpt>
      <trkpt lat="49.76609" lon="4.80496">
        <ele>284</ele>
        <time>2020-11-13T10:33:48.000Z</time>
      </trkpt>
      <trkpt lat="49.76602" lon="4.80497">
        <ele>284</ele>
        <time>2020-11-13T10:33:49.000Z</time>
      </trkpt>
      <trkpt lat="49.76596" lon="4.80499">
        <ele>284</ele>
        <time>2020-11-13T10:33:50.000Z</time>
      </trkpt>
      <trkpt lat="49.76589" lon="4.80501">
        <ele>284</ele>
        <time>2020-11-13T10:33:51.000Z</time>
      </trkpt>
      <trkpt lat="49.76582" lon="4.80504">
        <ele>284</ele>
        <time>2020-11-13T10:33:52.000Z</time>
      </trkpt>
      <trkpt lat="49.76574" lon="4.80507">
        <ele>284</ele>
        <time>2020-11-13T10:33:53.000Z</time>
      </trkpt>
      <trkpt lat="49.76567" lon="4.80509">
        <ele>284</ele>
        <time>2020-11-13T10:33:54.000Z</time>
      </trkpt>
      <trkpt lat="49.7656" lon="4.80511">
        <ele>284</ele>
        <time>2020-11-13T10:33:55.000Z</time>
      </trkpt>
      <trkpt lat="49.76553" lon="4.80514">
        <ele>284</ele>
        <time>2020-11-13T10:33:56.000Z</time>
      </trkpt>
      <trkpt lat="49.76547" lon="4.80516">
        <ele>283</ele>
        <time>2020-11-13T10:33:57.000Z</time>
      </trkpt>
      <trkpt lat="49.76542" lon="4.80518">
        <ele>283</ele>
        <time>2020-11-13T10:33:58.000Z</time>
      </trkpt>
      <trkpt lat="49.76538" lon="4.80518">
        <ele>283</ele>
        <time>2020-11-13T10:33:59.000Z</time>
      </trkpt>
      <trkpt lat="49.76534" lon="4.80519">
        <ele>283</ele>
        <time>2020-11-13T10:34:00.000Z</time>
      </trkpt>
      <trkpt lat="49.7653" lon="4.80519">
        <ele>283</ele>
        <time>2020-11-13T10:34:01.000Z</time>
      </trkpt>
      <trkpt lat="49.76526" lon="4.80519">
        <ele>283</ele>
        <time>2020-11-13T10:34:02.000Z</time>
      </trkpt>
      <trkpt lat="49.76522" lon="4.8052">
        <ele>282</ele>
        <time>2020-11-13T10:34:03.000Z</time>
      </trkpt>
      <trkpt lat="49.76518" lon="4.80523">
        <ele>282</ele>
        <time>2020-11-13T10:34:04.000Z</time>
      </trkpt>
      <trkpt lat="49.76514" lon="4.80527">
        <ele>282</ele>
        <time>2020-11-13T10:34:05.000Z</time>
      </trkpt>
      <trkpt lat="49.7651" lon="4.80532">
        <ele>282</ele>
        <time>2020-11-13T10:34:06.000Z</time>
      </trkpt>
      <trkpt lat="49.76506" lon="4.80536">
        <ele>281</ele>
        <time>2020-11-13T10:34:07.000Z</time>
      </trkpt>
      <trkpt lat="49.76501" lon="4.80541">
        <ele>281</ele>
        <time>2020-11-13T10:34:08.000Z</time>
      </trkpt>
      <trkpt lat="49.76497" lon="4.80546">
        <ele>281</ele>
        <time>2020-11-13T10:34:09.000Z</time>
      </trkpt>
      <trkpt lat="49.76493" lon="4.80551">
        <ele>280</ele>
        <time>2020-11-13T10:34:10.000Z</time>
      </trkpt>
      <trkpt lat="49.76488" lon="4.80556">
        <ele>280</ele>
        <time>2020-11-13T10:34:11.000Z</time>
      </trkpt>
      <trkpt lat="49.76484" lon="4.80561">
        <ele>280</ele>
        <time>2020-11-13T10:34:12.000Z</time>
      </trkpt>
      <trkpt lat="49.76479" lon="4.80565">
        <ele>279</ele>
        <time>2020-11-13T10:34:13.000Z</time>
      </trkpt>
      <trkpt lat="49.76474" lon="4.80569">
        <ele>279</ele>
        <time>2020-11-13T10:34:14.000Z</time>
      </trkpt>
      <trkpt lat="49.76469" lon="4.80574">
        <ele>279</ele>
        <time>2020-11-13T10:34:15.000Z</time>
      </trkpt>
      <trkpt lat="49.76464" lon="4.80578">
        <ele>279</ele>
        <time>2020-11-13T10:34:16.000Z</time>
      </trkpt>
      <trkpt lat="49.76459" lon="4.80582">
        <ele>278</ele>
        <time>2020-11-13T10:34:17.000Z</time>
      </trkpt>
      <trkpt lat="49.76454" lon="4.80586">
        <ele>278</ele>
        <time>2020-11-13T10:34:18.000Z</time>
      </trkpt>
      <trkpt lat="49.76449" lon="4.8059">
        <ele>278</ele>
        <time>2020-11-13T10:34:19.000Z</time>
      </trkpt>
      <trkpt lat="49.76445" lon="4.80593">
        <ele>278</ele>
        <time>2020-11-13T10:34:20.000Z</time>
      </trkpt>
      <trkpt lat="49.7644" lon="4.80597">
        <ele>277</ele>
        <time>2020-11-13T10:34:21.000Z</time>
      </trkpt>
      <trkpt lat="49.76435" lon="4.806">
        <ele>277</ele>
        <time>2020-11-13T10:34:22.000Z</time>
      </trkpt>
      <trkpt lat="49.7643" lon="4.80604">
        <ele>277</ele>
        <time>2020-11-13T10:34:23.000Z</time>
      </trkpt>
      <trkpt lat="49.76425" lon="4.80607">
        <ele>277</ele>
        <time>2020-11-13T10:34:24.000Z</time>
      </trkpt>
      <trkpt lat="49.7642" lon="4.80611">
        <ele>277</ele>
        <time>2020-11-13T10:34:25.000Z</time>
      </trkpt>
      <trkpt lat="49.76415" lon="4.80614">
        <ele>276</ele>
        <time>2020-11-13T10:34:26.000Z</time>
      </trkpt>
      <trkpt lat="49.76411" lon="4.80617">
        <ele>276</ele>
        <time>2020-11-13T10:34:27.000Z</time>
      </trkpt>
      <trkpt lat="49.76406" lon="4.8062">
        <ele>276</ele>
        <time>2020-11-13T10:34:28.000Z</time>
      </trkpt>
      <trkpt lat="49.76401" lon="4.80624">
        <ele>276</ele>
        <time>2020-11-13T10:34:29.000Z</time>
      </trkpt>
      <trkpt lat="49.76397" lon="4.80627">
        <ele>276</ele>
        <time>2020-11-13T10:34:30.000Z</time>
      </trkpt>
      <trkpt lat="49.76392" lon="4.80631">
        <ele>276</ele>
        <time>2020-11-13T10:34:31.000Z</time>
      </trkpt>
      <trkpt lat="49.76388" lon="4.80634">
        <ele>276</ele>
        <time>2020-11-13T10:34:32.000Z</time>
      </trkpt>
      <trkpt lat="49.76384" lon="4.80638">
        <ele>276</ele>
        <time>2020-11-13T10:34:33.000Z</time>
      </trkpt>
      <trkpt lat="49.7638" lon="4.80641">
        <ele>276</ele>
        <time>2020-11-13T10:34:34.000Z</time>
      </trkpt>
      <trkpt lat="49.76376" lon="4.80644">
        <ele>276</ele>
        <time>2020-11-13T10:34:35.000Z</time>
      </trkpt>
      <trkpt lat="49.76373" lon="4.80648">
        <ele>276</ele>
        <time>2020-11-13T10:34:36.000Z</time>
      </trkpt>
      <trkpt lat="49.76369" lon="4.80652">
        <ele>276</ele>
        <time>2020-11-13T10:34:37.000Z</time>
      </trkpt>
      <trkpt lat="49.76365" lon="4.80656">
        <ele>276</ele>
        <time>2020-11-13T10:34:38.000Z</time>
      </trkpt>
      <trkpt lat="49.76362" lon="4.8066">
        <ele>276</ele>
        <time>2020-11-13T10:34:39.000Z</time>
      </trkpt>
      <trkpt lat="49.76358" lon="4.80665">
        <ele>276</ele>
        <time>2020-11-13T10:34:40.000Z</time>
      </trkpt>
      <trkpt lat="49.76354" lon="4.80669">
        <ele>276</ele>
        <time>2020-11-13T10:34:41.000Z</time>
      </trkpt>
      <trkpt lat="49.76351" lon="4.80673">
        <ele>276</ele>
        <time>2020-11-13T10:34:42.000Z</time>
      </trkpt>
      <trkpt lat="49.76347" lon="4.80678">
        <ele>276</ele>
        <time>2020-11-13T10:34:43.000Z</time>
      </trkpt>
      <trkpt lat="49.76344" lon="4.80683">
        <ele>276</ele>
        <time>2020-11-13T10:34:44.000Z</time>
      </trkpt>
      <trkpt lat="49.76341" lon="4.80689">
        <ele>276</ele>
        <time>2020-11-13T10:34:45.000Z</time>
      </trkpt>
      <trkpt lat="49.76338" lon="4.80694">
        <ele>276</ele>
        <time>2020-11-13T10:34:46.000Z</time>
      </trkpt>
      <trkpt lat="49.76335" lon="4.80699">
        <ele>276</ele>
        <time>2020-11-13T10:34:47.000Z</time>
      </trkpt>
      <trkpt lat="49.76332" lon="4.80705">
        <ele>276</ele>
        <time>2020-11-13T10:34:48.000Z</time>
      </trkpt>
      <trkpt lat="49.76329" lon="4.80711">
        <ele>276</ele>
        <time>2020-11-13T10:34:49.000Z</time>
      </trkpt>
      <trkpt lat="49.76326" lon="4.80717">
        <ele>276</ele>
        <time>2020-11-13T10:34:50.000Z</time>
      </trkpt>
      <trkpt lat="49.76324" lon="4.80723">
        <ele>276</ele>
        <time>2020-11-13T10:34:51.000Z</time>
      </trkpt>
      <trkpt lat="49.76321" lon="4.80729">
        <ele>276</ele>
        <time>2020-11-13T10:34:52.000Z</time>
      </trkpt>
      <trkpt lat="49.76318" lon="4.80735">
        <ele>276</ele>
        <time>2020-11-13T10:34:53.000Z</time>
      </trkpt>
      <trkpt lat="49.76316" lon="4.80741">
        <ele>276</ele>
        <time>2020-11-13T10:34:54.000Z</time>
      </trkpt>
      <trkpt lat="49.76315" lon="4.80748">
        <ele>276</ele>
        <time>2020-11-13T10:34:55.000Z</time>
      </trkpt>
      <trkpt lat="49.76314" lon="4.80755">
        <ele>276</ele>
        <time>2020-11-13T10:34:56.000Z</time>
      </trkpt>
      <trkpt lat="49.76313" lon="4.80761">
        <ele>276</ele>
        <time>2020-11-13T10:34:57.000Z</time>
      </trkpt>
      <trkpt lat="49.76312" lon="4.80768">
        <ele>276</ele>
        <time>2020-11-13T10:34:58.000Z</time>
      </trkpt>
      <trkpt lat="49.76312" lon="4.80775">
        <ele>276</ele>
        <time>2020-11-13T10:34:59.000Z</time>
      </trkpt>
      <trkpt lat="49.76312" lon="4.80782">
        <ele>276</ele>
        <time>2020-11-13T10:35:00.000Z</time>
      </trkpt>
      <trkpt lat="49.76312" lon="4.80789">
        <ele>276</ele>
        <time>2020-11-13T10:35:01.000Z</time>
      </trkpt>
      <trkpt lat="49.76312" lon="4.80796">
        <ele>276</ele>
        <time>2020-11-13T10:35:02.000Z</time>
      </trkpt>
      <trkpt lat="49.76312" lon="4.80802">
        <ele>276</ele>
        <time>2020-11-13T10:35:03.000Z</time>
      </trkpt>
      <trkpt lat="49.76312" lon="4.80808">
        <ele>276</ele>
        <time>2020-11-13T10:35:04.000Z</time>
      </trkpt>
      <trkpt lat="49.76312" lon="4.80814">
        <ele>276</ele>
        <time>2020-11-13T10:35:05.000Z</time>
      </trkpt>
      <trkpt lat="49.76312" lon="4.80821">
        <ele>276</ele>
        <time>2020-11-13T10:35:06.000Z</time>
      </trkpt>
      <trkpt lat="49.76313" lon="4.80828">
        <ele>276</ele>
        <time>2020-11-13T10:35:07.000Z</time>
      </trkpt>
      <trkpt lat="49.76313" lon="4.80835">
        <ele>276</ele>
        <time>2020-11-13T10:35:08.000Z</time>
      </trkpt>
      <trkpt lat="49.76313" lon="4.80842">
        <ele>276</ele>
        <time>2020-11-13T10:35:09.000Z</time>
      </trkpt>
      <trkpt lat="49.76313" lon="4.8085">
        <ele>276</ele>
        <time>2020-11-13T10:35:10.000Z</time>
      </trkpt>
      <trkpt lat="49.76313" lon="4.80857">
        <ele>276</ele>
        <time>2020-11-13T10:35:11.000Z</time>
      </trkpt>
      <trkpt lat="49.76312" lon="4.80864">
        <ele>276</ele>
        <time>2020-11-13T10:35:12.000Z</time>
      </trkpt>
      <trkpt lat="49.76312" lon="4.80871">
        <ele>276</ele>
        <time>2020-11-13T10:35:13.000Z</time>
      </trkpt>
      <trkpt lat="49.76312" lon="4.80879">
        <ele>276</ele>
        <time>2020-11-13T10:35:14.000Z</time>
      </trkpt>
      <trkpt lat="49.76311" lon="4.80887">
        <ele>275</ele>
        <time>2020-11-13T10:35:15.000Z</time>
      </trkpt>
      <trkpt lat="49.76311" lon="4.80894">
        <ele>275</ele>
        <time>2020-11-13T10:35:16.000Z</time>
      </trkpt>
      <trkpt lat="49.7631" lon="4.80901">
        <ele>275</ele>
        <time>2020-11-13T10:35:17.000Z</time>
      </trkpt>
      <trkpt lat="49.76309" lon="4.80909">
        <ele>275</ele>
        <time>2020-11-13T10:35:18.000Z</time>
      </trkpt>
      <trkpt lat="49.76308" lon="4.80917">
        <ele>275</ele>
        <time>2020-11-13T10:35:19.000Z</time>
      </trkpt>
      <trkpt lat="49.76307" lon="4.80925">
        <ele>275</ele>
        <time>2020-11-13T10:35:20.000Z</time>
      </trkpt>
      <trkpt lat="49.76306" lon="4.80933">
        <ele>275</ele>
        <time>2020-11-13T10:35:21.000Z</time>
      </trkpt>
      <trkpt lat="49.76303" lon="4.80938">
        <ele>275</ele>
        <time>2020-11-13T10:35:22.000Z</time>
      </trkpt>
      <trkpt lat="49.763" lon="4.80941">
        <ele>275</ele>
        <time>2020-11-13T10:35:23.000Z</time>
      </trkpt>
      <trkpt lat="49.76295" lon="4.8094">
        <ele>275</ele>
        <time>2020-11-13T10:35:24.000Z</time>
      </trkpt>
      <trkpt lat="49.7629" lon="4.80938">
        <ele>275</ele>
        <time>2020-11-13T10:35:25.000Z</time>
      </trkpt>
      <trkpt lat="49.76284" lon="4.80936">
        <ele>274</ele>
        <time>2020-11-13T10:35:26.000Z</time>
      </trkpt>
      <trkpt lat="49.76279" lon="4.80934">
        <ele>274</ele>
        <time>2020-11-13T10:35:27.000Z</time>
      </trkpt>
      <trkpt lat="49.76274" lon="4.80931">
        <ele>274</ele>
        <time>2020-11-13T10:35:28.000Z</time>
      </trkpt>
      <trkpt lat="49.76268" lon="4.80929">
        <ele>273</ele>
        <time>2020-11-13T10:35:29.000Z</time>
      </trkpt>
      <trkpt lat="49.76262" lon="4.80926">
        <ele>273</ele>
        <time>2020-11-13T10:35:30.000Z</time>
      </trkpt>
      <trkpt lat="49.76256" lon="4.80924">
        <ele>272</ele>
        <time>2020-11-13T10:35:31.000Z</time>
      </trkpt>
      <trkpt lat="49.7625" lon="4.80921">
        <ele>272</ele>
        <time>2020-11-13T10:35:32.000Z</time>
      </trkpt>
      <trkpt lat="49.76244" lon="4.80918">
        <ele>271</ele>
        <time>2020-11-13T10:35:33.000Z</time>
      </trkpt>
      <trkpt lat="49.76237" lon="4.80915">
        <ele>270</ele>
        <time>2020-11-13T10:35:34.000Z</time>
      </trkpt>
      <trkpt lat="49.7623" lon="4.80911">
        <ele>270</ele>
        <time>2020-11-13T10:35:35.000Z</time>
      </trkpt>
      <trkpt lat="49.76224" lon="4.80909">
        <ele>269</ele>
        <time>2020-11-13T10:35:36.000Z</time>
      </trkpt>
      <trkpt lat="49.76217" lon="4.80908">
        <ele>268</ele>
        <time>2020-11-13T10:35:37.000Z</time>
      </trkpt>
      <trkpt lat="49.76211" lon="4.80909">
        <ele>267</ele>
        <time>2020-11-13T10:35:38.000Z</time>
      </trkpt>
      <trkpt lat="49.76206" lon="4.80912">
        <ele>267</ele>
        <time>2020-11-13T10:35:39.000Z</time>
      </trkpt>
      <trkpt lat="49.76201" lon="4.80914">
        <ele>266</ele>
        <time>2020-11-13T10:35:40.000Z</time>
      </trkpt>
      <trkpt lat="49.76197" lon="4.80918">
        <ele>266</ele>
        <time>2020-11-13T10:35:41.000Z</time>
      </trkpt>
      <trkpt lat="49.76195" lon="4.80923">
        <ele>265</ele>
        <time>2020-11-13T10:35:42.000Z</time>
      </trkpt>
      <trkpt lat="49.76195" lon="4.80929">
        <ele>265</ele>
        <time>2020-11-13T10:35:43.000Z</time>
      </trkpt>
      <trkpt lat="49.76196" lon="4.80935">
        <ele>265</ele>
        <time>2020-11-13T10:35:44.000Z</time>
      </trkpt>
      <trkpt lat="49.76198" lon="4.80942">
        <ele>265</ele>
        <time>2020-11-13T10:35:45.000Z</time>
      </trkpt>
      <trkpt lat="49.76199" lon="4.80948">
        <ele>265</ele>
        <time>2020-11-13T10:35:46.000Z</time>
      </trkpt>
      <trkpt lat="49.76199" lon="4.80955">
        <ele>265</ele>
        <time>2020-11-13T10:35:47.000Z</time>
      </trkpt>
      <trkpt lat="49.76199" lon="4.80963">
        <ele>265</ele>
        <time>2020-11-13T10:35:48.000Z</time>
      </trkpt>
      <trkpt lat="49.762" lon="4.80972">
        <ele>265</ele>
        <time>2020-11-13T10:35:49.000Z</time>
      </trkpt>
      <trkpt lat="49.76199" lon="4.80981">
        <ele>265</ele>
        <time>2020-11-13T10:35:50.000Z</time>
      </trkpt>
      <trkpt lat="49.76199" lon="4.8099">
        <ele>265</ele>
        <time>2020-11-13T10:35:51.000Z</time>
      </trkpt>
      <trkpt lat="49.76198" lon="4.80999">
        <ele>265</ele>
        <time>2020-11-13T10:35:52.000Z</time>
      </trkpt>
      <trkpt lat="49.76198" lon="4.81008">
        <ele>265</ele>
        <time>2020-11-13T10:35:53.000Z</time>
      </trkpt>
      <trkpt lat="49.76197" lon="4.81018">
        <ele>265</ele>
        <time>2020-11-13T10:35:54.000Z</time>
      </trkpt>
      <trkpt lat="49.76197" lon="4.81027">
        <ele>265</ele>
        <time>2020-11-13T10:35:55.000Z</time>
      </trkpt>
      <trkpt lat="49.76198" lon="4.81037">
        <ele>265</ele>
        <time>2020-11-13T10:35:56.000Z</time>
      </trkpt>
      <trkpt lat="49.76198" lon="4.81047">
        <ele>265</ele>
        <time>2020-11-13T10:35:57.000Z</time>
      </trkpt>
      <trkpt lat="49.76197" lon="4.81056">
        <ele>266</ele>
        <time>2020-11-13T10:35:58.000Z</time>
      </trkpt>
      <trkpt lat="49.76197" lon="4.81065">
        <ele>266</ele>
        <time>2020-11-13T10:35:59.000Z</time>
      </trkpt>
      <trkpt lat="49.76196" lon="4.81074">
        <ele>266</ele>
        <time>2020-11-13T10:36:00.000Z</time>
      </trkpt>
      <trkpt lat="49.76196" lon="4.81082">
        <ele>266</ele>
        <time>2020-11-13T10:36:01.000Z</time>
      </trkpt>
      <trkpt lat="49.76196" lon="4.8109">
        <ele>266</ele>
        <time>2020-11-13T10:36:02.000Z</time>
      </trkpt>
      <trkpt lat="49.76196" lon="4.81098">
        <ele>266</ele>
        <time>2020-11-13T10:36:03.000Z</time>
      </trkpt>
      <trkpt lat="49.76197" lon="4.81104">
        <ele>266</ele>
        <time>2020-11-13T10:36:04.000Z</time>
      </trkpt>
      <trkpt lat="49.76197" lon="4.81111">
        <ele>266</ele>
        <time>2020-11-13T10:36:05.000Z</time>
      </trkpt>
      <trkpt lat="49.76197" lon="4.81117">
        <ele>266</ele>
        <time>2020-11-13T10:36:06.000Z</time>
      </trkpt>
      <trkpt lat="49.76196" lon="4.81124">
        <ele>266</ele>
        <time>2020-11-13T10:36:07.000Z</time>
      </trkpt>
      <trkpt lat="49.76196" lon="4.81131">
        <ele>266</ele>
        <time>2020-11-13T10:36:08.000Z</time>
      </trkpt>
      <trkpt lat="49.76196" lon="4.81137">
        <ele>266</ele>
        <time>2020-11-13T10:36:09.000Z</time>
      </trkpt>
      <trkpt lat="49.76195" lon="4.81144">
        <ele>266</ele>
        <time>2020-11-13T10:36:10.000Z</time>
      </trkpt>
      <trkpt lat="49.76195" lon="4.81151">
        <ele>266</ele>
        <time>2020-11-13T10:36:11.000Z</time>
      </trkpt>
      <trkpt lat="49.76195" lon="4.81158">
        <ele>266</ele>
        <time>2020-11-13T10:36:12.000Z</time>
      </trkpt>
      <trkpt lat="49.76195" lon="4.81165">
        <ele>266</ele>
        <time>2020-11-13T10:36:13.000Z</time>
      </trkpt>
      <trkpt lat="49.76195" lon="4.81172">
        <ele>266</ele>
        <time>2020-11-13T10:36:14.000Z</time>
      </trkpt>
      <trkpt lat="49.76194" lon="4.81179">
        <ele>266</ele>
        <time>2020-11-13T10:36:15.000Z</time>
      </trkpt>
      <trkpt lat="49.76194" lon="4.81186">
        <ele>266</ele>
        <time>2020-11-13T10:36:16.000Z</time>
      </trkpt>
      <trkpt lat="49.76194" lon="4.81193">
        <ele>266</ele>
        <time>2020-11-13T10:36:17.000Z</time>
      </trkpt>
      <trkpt lat="49.76193" lon="4.812">
        <ele>266</ele>
        <time>2020-11-13T10:36:18.000Z</time>
      </trkpt>
      <trkpt lat="49.76193" lon="4.81207">
        <ele>266</ele>
        <time>2020-11-13T10:36:19.000Z</time>
      </trkpt>
      <trkpt lat="49.76193" lon="4.81214">
        <ele>266</ele>
        <time>2020-11-13T10:36:20.000Z</time>
      </trkpt>
      <trkpt lat="49.76194" lon="4.8122">
        <ele>267</ele>
        <time>2020-11-13T10:36:21.000Z</time>
      </trkpt>
      <trkpt lat="49.76196" lon="4.81224">
        <ele>267</ele>
        <time>2020-11-13T10:36:22.000Z</time>
      </trkpt>
      <trkpt lat="49.76197" lon="4.8123">
        <ele>267</ele>
        <time>2020-11-13T10:36:23.000Z</time>
      </trkpt>
      <trkpt lat="49.76198" lon="4.81236">
        <ele>267</ele>
        <time>2020-11-13T10:36:24.000Z</time>
      </trkpt>
      <trkpt lat="49.76197" lon="4.81241">
        <ele>267</ele>
        <time>2020-11-13T10:36:25.000Z</time>
      </trkpt>
      <trkpt lat="49.76194" lon="4.81246">
        <ele>267</ele>
        <time>2020-11-13T10:36:26.000Z</time>
      </trkpt>
      <trkpt lat="49.76193" lon="4.81253">
        <ele>267</ele>
        <time>2020-11-13T10:36:27.000Z</time>
      </trkpt>
      <trkpt lat="49.76192" lon="4.8126">
        <ele>267</ele>
        <time>2020-11-13T10:36:28.000Z</time>
      </trkpt>
      <trkpt lat="49.76191" lon="4.81269">
        <ele>267</ele>
        <time>2020-11-13T10:36:29.000Z</time>
      </trkpt>
      <trkpt lat="49.76191" lon="4.81278">
        <ele>267</ele>
        <time>2020-11-13T10:36:30.000Z</time>
      </trkpt>
      <trkpt lat="49.7619" lon="4.81288">
        <ele>267</ele>
        <time>2020-11-13T10:36:31.000Z</time>
      </trkpt>
      <trkpt lat="49.76189" lon="4.813">
        <ele>267</ele>
        <time>2020-11-13T10:36:32.000Z</time>
      </trkpt>
      <trkpt lat="49.76188" lon="4.81312">
        <ele>267</ele>
        <time>2020-11-13T10:36:33.000Z</time>
      </trkpt>
      <trkpt lat="49.76187" lon="4.81323">
        <ele>267</ele>
        <time>2020-11-13T10:36:34.000Z</time>
      </trkpt>
      <trkpt lat="49.76186" lon="4.81333">
        <ele>267</ele>
        <time>2020-11-13T10:36:35.000Z</time>
      </trkpt>
      <trkpt lat="49.76186" lon="4.81343">
        <ele>267</ele>
        <time>2020-11-13T10:36:36.000Z</time>
      </trkpt>
      <trkpt lat="49.76186" lon="4.81352">
        <ele>267</ele>
        <time>2020-11-13T10:36:37.000Z</time>
      </trkpt>
      <trkpt lat="49.76185" lon="4.81359">
        <ele>267</ele>
        <time>2020-11-13T10:36:38.000Z</time>
      </trkpt>
      <trkpt lat="49.76185" lon="4.81365">
        <ele>267</ele>
        <time>2020-11-13T10:36:39.000Z</time>
      </trkpt>
      <trkpt lat="49.76185" lon="4.81371">
        <ele>267</ele>
        <time>2020-11-13T10:36:40.000Z</time>
      </trkpt>
      <trkpt lat="49.76185" lon="4.81377">
        <ele>267</ele>
        <time>2020-11-13T10:36:41.000Z</time>
      </trkpt>
      <trkpt lat="49.76185" lon="4.81382">
        <ele>267</ele>
        <time>2020-11-13T10:36:42.000Z</time>
      </trkpt>
      <trkpt lat="49.76185" lon="4.81388">
        <ele>267</ele>
        <time>2020-11-13T10:36:43.000Z</time>
      </trkpt>
      <trkpt lat="49.76185" lon="4.81393">
        <ele>267</ele>
        <time>2020-11-13T10:36:44.000Z</time>
      </trkpt>
      <trkpt lat="49.76184" lon="4.81399">
        <ele>267</ele>
        <time>2020-11-13T10:36:45.000Z</time>
      </trkpt>
      <trkpt lat="49.76184" lon="4.81405">
        <ele>268</ele>
        <time>2020-11-13T10:36:46.000Z</time>
      </trkpt>
      <trkpt lat="49.76183" lon="4.8141">
        <ele>268</ele>
        <time>2020-11-13T10:36:47.000Z</time>
      </trkpt>
      <trkpt lat="49.76183" lon="4.81416">
        <ele>268</ele>
        <time>2020-11-13T10:36:48.000Z</time>
      </trkpt>
      <trkpt lat="49.76183" lon="4.81421">
        <ele>268</ele>
        <time>2020-11-13T10:36:49.000Z</time>
      </trkpt>
      <trkpt lat="49.76184" lon="4.81425">
        <ele>268</ele>
        <time>2020-11-13T10:36:50.000Z</time>
      </trkpt>
      <trkpt lat="49.76184" lon="4.81429">
        <ele>269</ele>
        <time>2020-11-13T10:36:51.000Z</time>
      </trkpt>
      <trkpt lat="49.76184" lon="4.81434">
        <ele>269</ele>
        <time>2020-11-13T10:36:52.000Z</time>
      </trkpt>
      <trkpt lat="49.76183" lon="4.81438">
        <ele>269</ele>
        <time>2020-11-13T10:36:53.000Z</time>
      </trkpt>
      <trkpt lat="49.76181" lon="4.81441">
        <ele>269</ele>
        <time>2020-11-13T10:36:54.000Z</time>
      </trkpt>
      <trkpt lat="49.76178" lon="4.81442">
        <ele>269</ele>
        <time>2020-11-13T10:36:55.000Z</time>
      </trkpt>
      <trkpt lat="49.76175" lon="4.81442">
        <ele>269</ele>
        <time>2020-11-13T10:36:56.000Z</time>
      </trkpt>
      <trkpt lat="49.76171" lon="4.81441">
        <ele>269</ele>
        <time>2020-11-13T10:36:57.000Z</time>
      </trkpt>
      <trkpt lat="49.76168" lon="4.8144">
        <ele>269</ele>
        <time>2020-11-13T10:36:58.000Z</time>
      </trkpt>
      <trkpt lat="49.76164" lon="4.81438">
        <ele>269</ele>
        <time>2020-11-13T10:36:59.000Z</time>
      </trkpt>
      <trkpt lat="49.7616" lon="4.81438">
        <ele>269</ele>
        <time>2020-11-13T10:37:00.000Z</time>
      </trkpt>
      <trkpt lat="49.76155" lon="4.81438">
        <ele>269</ele>
        <time>2020-11-13T10:37:01.000Z</time>
      </trkpt>
      <trkpt lat="49.7615" lon="4.81437">
        <ele>270</ele>
        <time>2020-11-13T10:37:02.000Z</time>
      </trkpt>
      <trkpt lat="49.76146" lon="4.81437">
        <ele>270</ele>
        <time>2020-11-13T10:37:03.000Z</time>
      </trkpt>
      <trkpt lat="49.76141" lon="4.81437">
        <ele>270</ele>
        <time>2020-11-13T10:37:04.000Z</time>
      </trkpt>
      <trkpt lat="49.76137" lon="4.81436">
        <ele>270</ele>
        <time>2020-11-13T10:37:05.000Z</time>
      </trkpt>
      <trkpt lat="49.76132" lon="4.81436">
        <ele>270</ele>
        <time>2020-11-13T10:37:06.000Z</time>
      </trkpt>
      <trkpt lat="49.76127" lon="4.81436">
        <ele>270</ele>
        <time>2020-11-13T10:37:07.000Z</time>
      </trkpt>
      <trkpt lat="49.76123" lon="4.81436">
        <ele>270</ele>
        <time>2020-11-13T10:37:08.000Z</time>
      </trkpt>
      <trkpt lat="49.76118" lon="4.81435">
        <ele>270</ele>
        <time>2020-11-13T10:37:09.000Z</time>
      </trkpt>
      <trkpt lat="49.76113" lon="4.81434">
        <ele>270</ele>
        <time>2020-11-13T10:37:10.000Z</time>
      </trkpt>
      <trkpt lat="49.76108" lon="4.81432">
        <ele>271</ele>
        <time>2020-11-13T10:37:11.000Z</time>
      </trkpt>
      <trkpt lat="49.76102" lon="4.81429">
        <ele>271</ele>
        <time>2020-11-13T10:37:12.000Z</time>
      </trkpt>
      <trkpt lat="49.76097" lon="4.81426">
        <ele>271</ele>
        <time>2020-11-13T10:37:13.000Z</time>
      </trkpt>
      <trkpt lat="49.76092" lon="4.81423">
        <ele>271</ele>
        <time>2020-11-13T10:37:14.000Z</time>
      </trkpt>
      <trkpt lat="49.76086" lon="4.8142">
        <ele>271</ele>
        <time>2020-11-13T10:37:15.000Z</time>
      </trkpt>
      <trkpt lat="49.76081" lon="4.81416">
        <ele>271</ele>
        <time>2020-11-13T10:37:16.000Z</time>
      </trkpt>
      <trkpt lat="49.76076" lon="4.81413">
        <ele>271</ele>
        <time>2020-11-13T10:37:17.000Z</time>
      </trkpt>
      <trkpt lat="49.76071" lon="4.8141">
        <ele>271</ele>
        <time>2020-11-13T10:37:18.000Z</time>
      </trkpt>
      <trkpt lat="49.76065" lon="4.81406">
        <ele>271</ele>
        <time>2020-11-13T10:37:19.000Z</time>
      </trkpt>
      <trkpt lat="49.76059" lon="4.81402">
        <ele>270</ele>
        <time>2020-11-13T10:37:20.000Z</time>
      </trkpt>
      <trkpt lat="49.76053" lon="4.81398">
        <ele>270</ele>
        <time>2020-11-13T10:37:21.000Z</time>
      </trkpt>
      <trkpt lat="49.76047" lon="4.81393">
        <ele>270</ele>
        <time>2020-11-13T10:37:22.000Z</time>
      </trkpt>
      <trkpt lat="49.76041" lon="4.81389">
        <ele>270</ele>
        <time>2020-11-13T10:37:23.000Z</time>
      </trkpt>
      <trkpt lat="49.76035" lon="4.81385">
        <ele>269</ele>
        <time>2020-11-13T10:37:24.000Z</time>
      </trkpt>
      <trkpt lat="49.76028" lon="4.8138">
        <ele>269</ele>
        <time>2020-11-13T10:37:25.000Z</time>
      </trkpt>
      <trkpt lat="49.76022" lon="4.81376">
        <ele>269</ele>
        <time>2020-11-13T10:37:26.000Z</time>
      </trkpt>
      <trkpt lat="49.76016" lon="4.81372">
        <ele>269</ele>
        <time>2020-11-13T10:37:27.000Z</time>
      </trkpt>
      <trkpt lat="49.7601" lon="4.81368">
        <ele>269</ele>
        <time>2020-11-13T10:37:28.000Z</time>
      </trkpt>
      <trkpt lat="49.76004" lon="4.81364">
        <ele>268</ele>
        <time>2020-11-13T10:37:29.000Z</time>
      </trkpt>
      <trkpt lat="49.75998" lon="4.8136">
        <ele>268</ele>
        <time>2020-11-13T10:37:30.000Z</time>
      </trkpt>
      <trkpt lat="49.75992" lon="4.81357">
        <ele>268</ele>
        <time>2020-11-13T10:37:31.000Z</time>
      </trkpt>
      <trkpt lat="49.75985" lon="4.81354">
        <ele>268</ele>
        <time>2020-11-13T10:37:32.000Z</time>
      </trkpt>
      <trkpt lat="49.75979" lon="4.81351">
        <ele>268</ele>
        <time>2020-11-13T10:37:33.000Z</time>
      </trkpt>
      <trkpt lat="49.75973" lon="4.81347">
        <ele>268</ele>
        <time>2020-11-13T10:37:34.000Z</time>
      </trkpt>
      <trkpt lat="49.75967" lon="4.81345">
        <ele>268</ele>
        <time>2020-11-13T10:37:35.000Z</time>
      </trkpt>
      <trkpt lat="49.75961" lon="4.81342">
        <ele>268</ele>
        <time>2020-11-13T10:37:36.000Z</time>
      </trkpt>
      <trkpt lat="49.75955" lon="4.81339">
        <ele>267</ele>
        <time>2020-11-13T10:37:37.000Z</time>
      </trkpt>
      <trkpt lat="49.75949" lon="4.81337">
        <ele>267</ele>
        <time>2020-11-13T10:37:38.000Z</time>
      </trkpt>
      <trkpt lat="49.75943" lon="4.81334">
        <ele>267</ele>
        <time>2020-11-13T10:37:39.000Z</time>
      </trkpt>
      <trkpt lat="49.75937" lon="4.81332">
        <ele>267</ele>
        <time>2020-11-13T10:37:40.000Z</time>
      </trkpt>
      <trkpt lat="49.75931" lon="4.8133">
        <ele>267</ele>
        <time>2020-11-13T10:37:41.000Z</time>
      </trkpt>
      <trkpt lat="49.75925" lon="4.81329">
        <ele>267</ele>
        <time>2020-11-13T10:37:42.000Z</time>
      </trkpt>
      <trkpt lat="49.75919" lon="4.81329">
        <ele>267</ele>
        <time>2020-11-13T10:37:43.000Z</time>
      </trkpt>
      <trkpt lat="49.75912" lon="4.81329">
        <ele>267</ele>
        <time>2020-11-13T10:37:44.000Z</time>
      </trkpt>
      <trkpt lat="49.75906" lon="4.8133">
        <ele>267</ele>
        <time>2020-11-13T10:37:45.000Z</time>
      </trkpt>
      <trkpt lat="49.759" lon="4.81332">
        <ele>267</ele>
        <time>2020-11-13T10:37:46.000Z</time>
      </trkpt>
      <trkpt lat="49.75894" lon="4.81334">
        <ele>267</ele>
        <time>2020-11-13T10:37:47.000Z</time>
      </trkpt>
      <trkpt lat="49.75888" lon="4.81336">
        <ele>267</ele>
        <time>2020-11-13T10:37:48.000Z</time>
      </trkpt>
      <trkpt lat="49.75882" lon="4.81338">
        <ele>267</ele>
        <time>2020-11-13T10:37:49.000Z</time>
      </trkpt>
      <trkpt lat="49.75877" lon="4.81341">
        <ele>267</ele>
        <time>2020-11-13T10:37:50.000Z</time>
      </trkpt>
      <trkpt lat="49.75871" lon="4.81344">
        <ele>266</ele>
        <time>2020-11-13T10:37:51.000Z</time>
      </trkpt>
      <trkpt lat="49.75865" lon="4.81347">
        <ele>266</ele>
        <time>2020-11-13T10:37:52.000Z</time>
      </trkpt>
      <trkpt lat="49.7586" lon="4.8135">
        <ele>266</ele>
        <time>2020-11-13T10:37:53.000Z</time>
      </trkpt>
      <trkpt lat="49.75855" lon="4.81353">
        <ele>266</ele>
        <time>2020-11-13T10:37:54.000Z</time>
      </trkpt>
      <trkpt lat="49.7585" lon="4.81356">
        <ele>266</ele>
        <time>2020-11-13T10:37:55.000Z</time>
      </trkpt>
      <trkpt lat="49.75845" lon="4.8136">
        <ele>265</ele>
        <time>2020-11-13T10:37:56.000Z</time>
      </trkpt>
      <trkpt lat="49.7584" lon="4.81365">
        <ele>265</ele>
        <time>2020-11-13T10:37:57.000Z</time>
      </trkpt>
      <trkpt lat="49.75836" lon="4.81371">
        <ele>265</ele>
        <time>2020-11-13T10:37:58.000Z</time>
      </trkpt>
      <trkpt lat="49.75832" lon="4.81376">
        <ele>265</ele>
        <time>2020-11-13T10:37:59.000Z</time>
      </trkpt>
      <trkpt lat="49.75827" lon="4.81381">
        <ele>264</ele>
        <time>2020-11-13T10:38:00.000Z</time>
      </trkpt>
      <trkpt lat="49.75823" lon="4.81387">
        <ele>264</ele>
        <time>2020-11-13T10:38:01.000Z</time>
      </trkpt>
      <trkpt lat="49.75819" lon="4.81394">
        <ele>264</ele>
        <time>2020-11-13T10:38:02.000Z</time>
      </trkpt>
      <trkpt lat="49.75815" lon="4.814">
        <ele>263</ele>
        <time>2020-11-13T10:38:03.000Z</time>
      </trkpt>
      <trkpt lat="49.7581" lon="4.81405">
        <ele>263</ele>
        <time>2020-11-13T10:38:04.000Z</time>
      </trkpt>
      <trkpt lat="49.75805" lon="4.8141">
        <ele>263</ele>
        <time>2020-11-13T10:38:05.000Z</time>
      </trkpt>
      <trkpt lat="49.75799" lon="4.81416">
        <ele>262</ele>
        <time>2020-11-13T10:38:06.000Z</time>
      </trkpt>
      <trkpt lat="49.75793" lon="4.81421">
        <ele>262</ele>
        <time>2020-11-13T10:38:07.000Z</time>
      </trkpt>
      <trkpt lat="49.75787" lon="4.81426">
        <ele>262</ele>
        <time>2020-11-13T10:38:08.000Z</time>
      </trkpt>
      <trkpt lat="49.75781" lon="4.8143">
        <ele>261</ele>
        <time>2020-11-13T10:38:09.000Z</time>
      </trkpt>
      <trkpt lat="49.75774" lon="4.81434">
        <ele>261</ele>
        <time>2020-11-13T10:38:10.000Z</time>
      </trkpt>
      <trkpt lat="49.75768" lon="4.81438">
        <ele>261</ele>
        <time>2020-11-13T10:38:11.000Z</time>
      </trkpt>
      <trkpt lat="49.75761" lon="4.81442">
        <ele>260</ele>
        <time>2020-11-13T10:38:12.000Z</time>
      </trkpt>
      <trkpt lat="49.75755" lon="4.81446">
        <ele>260</ele>
        <time>2020-11-13T10:38:13.000Z</time>
      </trkpt>
      <trkpt lat="49.75748" lon="4.8145">
        <ele>259</ele>
        <time>2020-11-13T10:38:14.000Z</time>
      </trkpt>
      <trkpt lat="49.75741" lon="4.81454">
        <ele>259</ele>
        <time>2020-11-13T10:38:15.000Z</time>
      </trkpt>
      <trkpt lat="49.75735" lon="4.81457">
        <ele>258</ele>
        <time>2020-11-13T10:38:16.000Z</time>
      </trkpt>
      <trkpt lat="49.75728" lon="4.81459">
        <ele>258</ele>
        <time>2020-11-13T10:38:17.000Z</time>
      </trkpt>
      <trkpt lat="49.75722" lon="4.81462">
        <ele>257</ele>
        <time>2020-11-13T10:38:18.000Z</time>
      </trkpt>
      <trkpt lat="49.75715" lon="4.81465">
        <ele>257</ele>
        <time>2020-11-13T10:38:19.000Z</time>
      </trkpt>
      <trkpt lat="49.75708" lon="4.81467">
        <ele>256</ele>
        <time>2020-11-13T10:38:20.000Z</time>
      </trkpt>
      <trkpt lat="49.75701" lon="4.8147">
        <ele>255</ele>
        <time>2020-11-13T10:38:21.000Z</time>
      </trkpt>
      <trkpt lat="49.75694" lon="4.81473">
        <ele>255</ele>
        <time>2020-11-13T10:38:22.000Z</time>
      </trkpt>
      <trkpt lat="49.75686" lon="4.81476">
        <ele>254</ele>
        <time>2020-11-13T10:38:23.000Z</time>
      </trkpt>
      <trkpt lat="49.75678" lon="4.81478">
        <ele>253</ele>
        <time>2020-11-13T10:38:24.000Z</time>
      </trkpt>
      <trkpt lat="49.7567" lon="4.81481">
        <ele>252</ele>
        <time>2020-11-13T10:38:25.000Z</time>
      </trkpt>
      <trkpt lat="49.75661" lon="4.81484">
        <ele>252</ele>
        <time>2020-11-13T10:38:26.000Z</time>
      </trkpt>
      <trkpt lat="49.75653" lon="4.81487">
        <ele>251</ele>
        <time>2020-11-13T10:38:27.000Z</time>
      </trkpt>
      <trkpt lat="49.75645" lon="4.8149">
        <ele>250</ele>
        <time>2020-11-13T10:38:28.000Z</time>
      </trkpt>
      <trkpt lat="49.75637" lon="4.81494">
        <ele>249</ele>
        <time>2020-11-13T10:38:29.000Z</time>
      </trkpt>
      <trkpt lat="49.75629" lon="4.81498">
        <ele>249</ele>
        <time>2020-11-13T10:38:30.000Z</time>
      </trkpt>
      <trkpt lat="49.75621" lon="4.81503">
        <ele>248</ele>
        <time>2020-11-13T10:38:31.000Z</time>
      </trkpt>
      <trkpt lat="49.75614" lon="4.81509">
        <ele>247</ele>
        <time>2020-11-13T10:38:32.000Z</time>
      </trkpt>
      <trkpt lat="49.75606" lon="4.81514">
        <ele>247</ele>
        <time>2020-11-13T10:38:33.000Z</time>
      </trkpt>
      <trkpt lat="49.75599" lon="4.81521">
        <ele>246</ele>
        <time>2020-11-13T10:38:34.000Z</time>
      </trkpt>
      <trkpt lat="49.75592" lon="4.81527">
        <ele>245</ele>
        <time>2020-11-13T10:38:35.000Z</time>
      </trkpt>
      <trkpt lat="49.75586" lon="4.81534">
        <ele>244</ele>
        <time>2020-11-13T10:38:36.000Z</time>
      </trkpt>
      <trkpt lat="49.7558" lon="4.81541">
        <ele>244</ele>
        <time>2020-11-13T10:38:37.000Z</time>
      </trkpt>
      <trkpt lat="49.75574" lon="4.81549">
        <ele>243</ele>
        <time>2020-11-13T10:38:38.000Z</time>
      </trkpt>
      <trkpt lat="49.75568" lon="4.81556">
        <ele>243</ele>
        <time>2020-11-13T10:38:39.000Z</time>
      </trkpt>
      <trkpt lat="49.75562" lon="4.81563">
        <ele>242</ele>
        <time>2020-11-13T10:38:40.000Z</time>
      </trkpt>
      <trkpt lat="49.75556" lon="4.81572">
        <ele>242</ele>
        <time>2020-11-13T10:38:41.000Z</time>
      </trkpt>
      <trkpt lat="49.75551" lon="4.8158">
        <ele>241</ele>
        <time>2020-11-13T10:38:42.000Z</time>
      </trkpt>
      <trkpt lat="49.75545" lon="4.81589">
        <ele>241</ele>
        <time>2020-11-13T10:38:43.000Z</time>
      </trkpt>
      <trkpt lat="49.75539" lon="4.81597">
        <ele>240</ele>
        <time>2020-11-13T10:38:44.000Z</time>
      </trkpt>
      <trkpt lat="49.75533" lon="4.81605">
        <ele>240</ele>
        <time>2020-11-13T10:38:45.000Z</time>
      </trkpt>
      <trkpt lat="49.75526" lon="4.81613">
        <ele>239</ele>
        <time>2020-11-13T10:38:46.000Z</time>
      </trkpt>
      <trkpt lat="49.75519" lon="4.8162">
        <ele>239</ele>
        <time>2020-11-13T10:38:47.000Z</time>
      </trkpt>
      <trkpt lat="49.75511" lon="4.81628">
        <ele>238</ele>
        <time>2020-11-13T10:38:48.000Z</time>
      </trkpt>
      <trkpt lat="49.75503" lon="4.81635">
        <ele>238</ele>
        <time>2020-11-13T10:38:49.000Z</time>
      </trkpt>
      <trkpt lat="49.75496" lon="4.81642">
        <ele>237</ele>
        <time>2020-11-13T10:38:50.000Z</time>
      </trkpt>
      <trkpt lat="49.75488" lon="4.81648">
        <ele>237</ele>
        <time>2020-11-13T10:38:51.000Z</time>
      </trkpt>
      <trkpt lat="49.7548" lon="4.81654">
        <ele>236</ele>
        <time>2020-11-13T10:38:52.000Z</time>
      </trkpt>
      <trkpt lat="49.75472" lon="4.81659">
        <ele>236</ele>
        <time>2020-11-13T10:38:53.000Z</time>
      </trkpt>
      <trkpt lat="49.75463" lon="4.81664">
        <ele>236</ele>
        <time>2020-11-13T10:38:54.000Z</time>
      </trkpt>
      <trkpt lat="49.75455" lon="4.81668">
        <ele>235</ele>
        <time>2020-11-13T10:38:55.000Z</time>
      </trkpt>
      <trkpt lat="49.75446" lon="4.81673">
        <ele>234</ele>
        <time>2020-11-13T10:38:56.000Z</time>
      </trkpt>
      <trkpt lat="49.75438" lon="4.81679">
        <ele>234</ele>
        <time>2020-11-13T10:38:57.000Z</time>
      </trkpt>
      <trkpt lat="49.7543" lon="4.81685">
        <ele>233</ele>
        <time>2020-11-13T10:38:58.000Z</time>
      </trkpt>
      <trkpt lat="49.75422" lon="4.8169">
        <ele>233</ele>
        <time>2020-11-13T10:38:59.000Z</time>
      </trkpt>
      <trkpt lat="49.75413" lon="4.81696">
        <ele>232</ele>
        <time>2020-11-13T10:39:00.000Z</time>
      </trkpt>
      <trkpt lat="49.75405" lon="4.81701">
        <ele>231</ele>
        <time>2020-11-13T10:39:01.000Z</time>
      </trkpt>
      <trkpt lat="49.75397" lon="4.81706">
        <ele>230</ele>
        <time>2020-11-13T10:39:02.000Z</time>
      </trkpt>
      <trkpt lat="49.75389" lon="4.8171">
        <ele>230</ele>
        <time>2020-11-13T10:39:03.000Z</time>
      </trkpt>
      <trkpt lat="49.75382" lon="4.81716">
        <ele>229</ele>
        <time>2020-11-13T10:39:04.000Z</time>
      </trkpt>
      <trkpt lat="49.75374" lon="4.81723">
        <ele>228</ele>
        <time>2020-11-13T10:39:05.000Z</time>
      </trkpt>
      <trkpt lat="49.75367" lon="4.8173">
        <ele>227</ele>
        <time>2020-11-13T10:39:06.000Z</time>
      </trkpt>
      <trkpt lat="49.7536" lon="4.81738">
        <ele>227</ele>
        <time>2020-11-13T10:39:07.000Z</time>
      </trkpt>
      <trkpt lat="49.75352" lon="4.81744">
        <ele>226</ele>
        <time>2020-11-13T10:39:08.000Z</time>
      </trkpt>
      <trkpt lat="49.75344" lon="4.81748">
        <ele>225</ele>
        <time>2020-11-13T10:39:09.000Z</time>
      </trkpt>
      <trkpt lat="49.75336" lon="4.81751">
        <ele>224</ele>
        <time>2020-11-13T10:39:10.000Z</time>
      </trkpt>
      <trkpt lat="49.75327" lon="4.81753">
        <ele>224</ele>
        <time>2020-11-13T10:39:11.000Z</time>
      </trkpt>
      <trkpt lat="49.75319" lon="4.81754">
        <ele>223</ele>
        <time>2020-11-13T10:39:12.000Z</time>
      </trkpt>
      <trkpt lat="49.75311" lon="4.81755">
        <ele>222</ele>
        <time>2020-11-13T10:39:13.000Z</time>
      </trkpt>
      <trkpt lat="49.75303" lon="4.81756">
        <ele>222</ele>
        <time>2020-11-13T10:39:14.000Z</time>
      </trkpt>
      <trkpt lat="49.75295" lon="4.81756">
        <ele>221</ele>
        <time>2020-11-13T10:39:15.000Z</time>
      </trkpt>
      <trkpt lat="49.75288" lon="4.81756">
        <ele>221</ele>
        <time>2020-11-13T10:39:16.000Z</time>
      </trkpt>
      <trkpt lat="49.75279" lon="4.81755">
        <ele>220</ele>
        <time>2020-11-13T10:39:17.000Z</time>
      </trkpt>
      <trkpt lat="49.75272" lon="4.81754">
        <ele>219</ele>
        <time>2020-11-13T10:39:18.000Z</time>
      </trkpt>
      <trkpt lat="49.75264" lon="4.81751">
        <ele>219</ele>
        <time>2020-11-13T10:39:19.000Z</time>
      </trkpt>
      <trkpt lat="49.75256" lon="4.81747">
        <ele>218</ele>
        <time>2020-11-13T10:39:20.000Z</time>
      </trkpt>
      <trkpt lat="49.75249" lon="4.81742">
        <ele>217</ele>
        <time>2020-11-13T10:39:21.000Z</time>
      </trkpt>
      <trkpt lat="49.75242" lon="4.81737">
        <ele>217</ele>
        <time>2020-11-13T10:39:22.000Z</time>
      </trkpt>
      <trkpt lat="49.75235" lon="4.81732">
        <ele>216</ele>
        <time>2020-11-13T10:39:23.000Z</time>
      </trkpt>
      <trkpt lat="49.75229" lon="4.81726">
        <ele>215</ele>
        <time>2020-11-13T10:39:24.000Z</time>
      </trkpt>
      <trkpt lat="49.75222" lon="4.81721">
        <ele>215</ele>
        <time>2020-11-13T10:39:25.000Z</time>
      </trkpt>
      <trkpt lat="49.75215" lon="4.81715">
        <ele>214</ele>
        <time>2020-11-13T10:39:26.000Z</time>
      </trkpt>
      <trkpt lat="49.75209" lon="4.8171">
        <ele>214</ele>
        <time>2020-11-13T10:39:27.000Z</time>
      </trkpt>
      <trkpt lat="49.75202" lon="4.81705">
        <ele>213</ele>
        <time>2020-11-13T10:39:28.000Z</time>
      </trkpt>
      <trkpt lat="49.75195" lon="4.81703">
        <ele>213</ele>
        <time>2020-11-13T10:39:29.000Z</time>
      </trkpt>
      <trkpt lat="49.75188" lon="4.81703">
        <ele>212</ele>
        <time>2020-11-13T10:39:30.000Z</time>
      </trkpt>
      <trkpt lat="49.7518" lon="4.81706">
        <ele>212</ele>
        <time>2020-11-13T10:39:31.000Z</time>
      </trkpt>
      <trkpt lat="49.75173" lon="4.8171">
        <ele>211</ele>
        <time>2020-11-13T10:39:32.000Z</time>
      </trkpt>
      <trkpt lat="49.75165" lon="4.81717">
        <ele>211</ele>
        <time>2020-11-13T10:39:33.000Z</time>
      </trkpt>
      <trkpt lat="49.75158" lon="4.81723">
        <ele>210</ele>
        <time>2020-11-13T10:39:34.000Z</time>
      </trkpt>
      <trkpt lat="49.75152" lon="4.81729">
        <ele>210</ele>
        <time>2020-11-13T10:39:35.000Z</time>
      </trkpt>
      <trkpt lat="49.75146" lon="4.81735">
        <ele>209</ele>
        <time>2020-11-13T10:39:36.000Z</time>
      </trkpt>
      <trkpt lat="49.75142" lon="4.81741">
        <ele>208</ele>
        <time>2020-11-13T10:39:37.000Z</time>
      </trkpt>
      <trkpt lat="49.75138" lon="4.81745">
        <ele>208</ele>
        <time>2020-11-13T10:39:38.000Z</time>
      </trkpt>
      <trkpt lat="49.75135" lon="4.81749">
        <ele>207</ele>
        <time>2020-11-13T10:39:39.000Z</time>
      </trkpt>
      <trkpt lat="49.75134" lon="4.81754">
        <ele>207</ele>
        <time>2020-11-13T10:39:40.000Z</time>
      </trkpt>
      <trkpt lat="49.75135" lon="4.81761">
        <ele>206</ele>
        <time>2020-11-13T10:39:41.000Z</time>
      </trkpt>
      <trkpt lat="49.75137" lon="4.81767">
        <ele>206</ele>
        <time>2020-11-13T10:39:42.000Z</time>
      </trkpt>
      <trkpt lat="49.7514" lon="4.81772">
        <ele>206</ele>
        <time>2020-11-13T10:39:43.000Z</time>
      </trkpt>
      <trkpt lat="49.75144" lon="4.81778">
        <ele>206</ele>
        <time>2020-11-13T10:39:44.000Z</time>
      </trkpt>
      <trkpt lat="49.75147" lon="4.81784">
        <ele>206</ele>
        <time>2020-11-13T10:39:45.000Z</time>
      </trkpt>
      <trkpt lat="49.75151" lon="4.8179">
        <ele>206</ele>
        <time>2020-11-13T10:39:46.000Z</time>
      </trkpt>
      <trkpt lat="49.75154" lon="4.81796">
        <ele>206</ele>
        <time>2020-11-13T10:39:47.000Z</time>
      </trkpt>
      <trkpt lat="49.75157" lon="4.81801">
        <ele>205</ele>
        <time>2020-11-13T10:39:48.000Z</time>
      </trkpt>
      <trkpt lat="49.75161" lon="4.81807">
        <ele>205</ele>
        <time>2020-11-13T10:39:49.000Z</time>
      </trkpt>
      <trkpt lat="49.75165" lon="4.81814">
        <ele>205</ele>
        <time>2020-11-13T10:39:50.000Z</time>
      </trkpt>
      <trkpt lat="49.75169" lon="4.8182">
        <ele>205</ele>
        <time>2020-11-13T10:39:51.000Z</time>
      </trkpt>
      <trkpt lat="49.75173" lon="4.81826">
        <ele>204</ele>
        <time>2020-11-13T10:39:52.000Z</time>
      </trkpt>
      <trkpt lat="49.75177" lon="4.81833">
        <ele>204</ele>
        <time>2020-11-13T10:39:53.000Z</time>
      </trkpt>
      <trkpt lat="49.75181" lon="4.8184">
        <ele>204</ele>
        <time>2020-11-13T10:39:54.000Z</time>
      </trkpt>
      <trkpt lat="49.75185" lon="4.81847">
        <ele>204</ele>
        <time>2020-11-13T10:39:55.000Z</time>
      </trkpt>
      <trkpt lat="49.75189" lon="4.81853">
        <ele>203</ele>
        <time>2020-11-13T10:39:56.000Z</time>
      </trkpt>
      <trkpt lat="49.75193" lon="4.81859">
        <ele>203</ele>
        <time>2020-11-13T10:39:57.000Z</time>
      </trkpt>
      <trkpt lat="49.75197" lon="4.81866">
        <ele>203</ele>
        <time>2020-11-13T10:39:58.000Z</time>
      </trkpt>
      <trkpt lat="49.75202" lon="4.81872">
        <ele>202</ele>
        <time>2020-11-13T10:39:59.000Z</time>
      </trkpt>
      <trkpt lat="49.75206" lon="4.81878">
        <ele>202</ele>
        <time>2020-11-13T10:40:00.000Z</time>
      </trkpt>
      <trkpt lat="49.75211" lon="4.81883">
        <ele>202</ele>
        <time>2020-11-13T10:40:01.000Z</time>
      </trkpt>
      <trkpt lat="49.75216" lon="4.81889">
        <ele>202</ele>
        <time>2020-11-13T10:40:02.000Z</time>
      </trkpt>
      <trkpt lat="49.75221" lon="4.81895">
        <ele>201</ele>
        <time>2020-11-13T10:40:03.000Z</time>
      </trkpt>
      <trkpt lat="49.75225" lon="4.81901">
        <ele>201</ele>
        <time>2020-11-13T10:40:04.000Z</time>
      </trkpt>
      <trkpt lat="49.7523" lon="4.81907">
        <ele>201</ele>
        <time>2020-11-13T10:40:05.000Z</time>
      </trkpt>
      <trkpt lat="49.75236" lon="4.81913">
        <ele>200</ele>
        <time>2020-11-13T10:40:06.000Z</time>
      </trkpt>
      <trkpt lat="49.75241" lon="4.81918">
        <ele>200</ele>
        <time>2020-11-13T10:40:07.000Z</time>
      </trkpt>
      <trkpt lat="49.75246" lon="4.81925">
        <ele>200</ele>
        <time>2020-11-13T10:40:08.000Z</time>
      </trkpt>
      <trkpt lat="49.7525" lon="4.81932">
        <ele>199</ele>
        <time>2020-11-13T10:40:09.000Z</time>
      </trkpt>
      <trkpt lat="49.75255" lon="4.81939">
        <ele>199</ele>
        <time>2020-11-13T10:40:10.000Z</time>
      </trkpt>
      <trkpt lat="49.7526" lon="4.81945">
        <ele>199</ele>
        <time>2020-11-13T10:40:11.000Z</time>
      </trkpt>
      <trkpt lat="49.75265" lon="4.81951">
        <ele>198</ele>
        <time>2020-11-13T10:40:12.000Z</time>
      </trkpt>
      <trkpt lat="49.75271" lon="4.81957">
        <ele>198</ele>
        <time>2020-11-13T10:40:13.000Z</time>
      </trkpt>
      <trkpt lat="49.75277" lon="4.81961">
        <ele>197</ele>
        <time>2020-11-13T10:40:14.000Z</time>
      </trkpt>
      <trkpt lat="49.75283" lon="4.81966">
        <ele>197</ele>
        <time>2020-11-13T10:40:15.000Z</time>
      </trkpt>
      <trkpt lat="49.75289" lon="4.81971">
        <ele>197</ele>
        <time>2020-11-13T10:40:16.000Z</time>
      </trkpt>
      <trkpt lat="49.75295" lon="4.81976">
        <ele>196</ele>
        <time>2020-11-13T10:40:17.000Z</time>
      </trkpt>
      <trkpt lat="49.75301" lon="4.8198">
        <ele>196</ele>
        <time>2020-11-13T10:40:18.000Z</time>
      </trkpt>
      <trkpt lat="49.75307" lon="4.81984">
        <ele>196</ele>
        <time>2020-11-13T10:40:19.000Z</time>
      </trkpt>
      <trkpt lat="49.75313" lon="4.81988">
        <ele>195</ele>
        <time>2020-11-13T10:40:20.000Z</time>
      </trkpt>
      <trkpt lat="49.7532" lon="4.81992">
        <ele>195</ele>
        <time>2020-11-13T10:40:21.000Z</time>
      </trkpt>
      <trkpt lat="49.75326" lon="4.81996">
        <ele>194</ele>
        <time>2020-11-13T10:40:22.000Z</time>
      </trkpt>
      <trkpt lat="49.75333" lon="4.82001">
        <ele>194</ele>
        <time>2020-11-13T10:40:23.000Z</time>
      </trkpt>
      <trkpt lat="49.7534" lon="4.82004">
        <ele>193</ele>
        <time>2020-11-13T10:40:24.000Z</time>
      </trkpt>
      <trkpt lat="49.75346" lon="4.82008">
        <ele>193</ele>
        <time>2020-11-13T10:40:25.000Z</time>
      </trkpt>
      <trkpt lat="49.75352" lon="4.82011">
        <ele>193</ele>
        <time>2020-11-13T10:40:26.000Z</time>
      </trkpt>
      <trkpt lat="49.75358" lon="4.82015">
        <ele>192</ele>
        <time>2020-11-13T10:40:27.000Z</time>
      </trkpt>
      <trkpt lat="49.75364" lon="4.82018">
        <ele>192</ele>
        <time>2020-11-13T10:40:28.000Z</time>
      </trkpt>
      <trkpt lat="49.75369" lon="4.82021">
        <ele>192</ele>
        <time>2020-11-13T10:40:29.000Z</time>
      </trkpt>
      <trkpt lat="49.75375" lon="4.82025">
        <ele>192</ele>
        <time>2020-11-13T10:40:30.000Z</time>
      </trkpt>
      <trkpt lat="49.75381" lon="4.82028">
        <ele>192</ele>
        <time>2020-11-13T10:40:31.000Z</time>
      </trkpt>
      <trkpt lat="49.75387" lon="4.82032">
        <ele>192</ele>
        <time>2020-11-13T10:40:32.000Z</time>
      </trkpt>
      <trkpt lat="49.75393" lon="4.82036">
        <ele>192</ele>
        <time>2020-11-13T10:40:33.000Z</time>
      </trkpt>
      <trkpt lat="49.75398" lon="4.82041">
        <ele>192</ele>
        <time>2020-11-13T10:40:34.000Z</time>
      </trkpt>
      <trkpt lat="49.75404" lon="4.82046">
        <ele>191</ele>
        <time>2020-11-13T10:40:35.000Z</time>
      </trkpt>
      <trkpt lat="49.75409" lon="4.82051">
        <ele>191</ele>
        <time>2020-11-13T10:40:36.000Z</time>
      </trkpt>
      <trkpt lat="49.75415" lon="4.82057">
        <ele>191</ele>
        <time>2020-11-13T10:40:37.000Z</time>
      </trkpt>
      <trkpt lat="49.7542" lon="4.82062">
        <ele>191</ele>
        <time>2020-11-13T10:40:38.000Z</time>
      </trkpt>
      <trkpt lat="49.75426" lon="4.82068">
        <ele>191</ele>
        <time>2020-11-13T10:40:39.000Z</time>
      </trkpt>
      <trkpt lat="49.75431" lon="4.82073">
        <ele>191</ele>
        <time>2020-11-13T10:40:40.000Z</time>
      </trkpt>
      <trkpt lat="49.75436" lon="4.82079">
        <ele>191</ele>
        <time>2020-11-13T10:40:41.000Z</time>
      </trkpt>
      <trkpt lat="49.75442" lon="4.82085">
        <ele>191</ele>
        <time>2020-11-13T10:40:42.000Z</time>
      </trkpt>
      <trkpt lat="49.75447" lon="4.82089">
        <ele>191</ele>
        <time>2020-11-13T10:40:43.000Z</time>
      </trkpt>
      <trkpt lat="49.75453" lon="4.82094">
        <ele>191</ele>
        <time>2020-11-13T10:40:44.000Z</time>
      </trkpt>
      <trkpt lat="49.75458" lon="4.821">
        <ele>191</ele>
        <time>2020-11-13T10:40:45.000Z</time>
      </trkpt>
      <trkpt lat="49.75463" lon="4.82106">
        <ele>191</ele>
        <time>2020-11-13T10:40:46.000Z</time>
      </trkpt>
      <trkpt lat="49.75468" lon="4.82113">
        <ele>191</ele>
        <time>2020-11-13T10:40:47.000Z</time>
      </trkpt>
      <trkpt lat="49.75472" lon="4.8212">
        <ele>190</ele>
        <time>2020-11-13T10:40:48.000Z</time>
      </trkpt>
      <trkpt lat="49.75477" lon="4.82127">
        <ele>190</ele>
        <time>2020-11-13T10:40:49.000Z</time>
      </trkpt>
      <trkpt lat="49.75482" lon="4.82134">
        <ele>190</ele>
        <time>2020-11-13T10:40:50.000Z</time>
      </trkpt>
      <trkpt lat="49.75486" lon="4.82141">
        <ele>190</ele>
        <time>2020-11-13T10:40:51.000Z</time>
      </trkpt>
      <trkpt lat="49.75491" lon="4.82148">
        <ele>190</ele>
        <time>2020-11-13T10:40:52.000Z</time>
      </trkpt>
      <trkpt lat="49.75495" lon="4.82155">
        <ele>190</ele>
        <time>2020-11-13T10:40:53.000Z</time>
      </trkpt>
      <trkpt lat="49.755" lon="4.82162">
        <ele>189</ele>
        <time>2020-11-13T10:40:54.000Z</time>
      </trkpt>
      <trkpt lat="49.75504" lon="4.82169">
        <ele>189</ele>
        <time>2020-11-13T10:40:55.000Z</time>
      </trkpt>
      <trkpt lat="49.75507" lon="4.82176">
        <ele>189</ele>
        <time>2020-11-13T10:40:56.000Z</time>
      </trkpt>
      <trkpt lat="49.75511" lon="4.82184">
        <ele>189</ele>
        <time>2020-11-13T10:40:57.000Z</time>
      </trkpt>
      <trkpt lat="49.75514" lon="4.82192">
        <ele>189</ele>
        <time>2020-11-13T10:40:58.000Z</time>
      </trkpt>
      <trkpt lat="49.75518" lon="4.822">
        <ele>189</ele>
        <time>2020-11-13T10:40:59.000Z</time>
      </trkpt>
      <trkpt lat="49.75523" lon="4.82208">
        <ele>189</ele>
        <time>2020-11-13T10:41:00.000Z</time>
      </trkpt>
      <trkpt lat="49.75527" lon="4.82216">
        <ele>189</ele>
        <time>2020-11-13T10:41:01.000Z</time>
      </trkpt>
      <trkpt lat="49.75532" lon="4.82224">
        <ele>188</ele>
        <time>2020-11-13T10:41:02.000Z</time>
      </trkpt>
      <trkpt lat="49.75536" lon="4.82232">
        <ele>188</ele>
        <time>2020-11-13T10:41:03.000Z</time>
      </trkpt>
      <trkpt lat="49.7554" lon="4.8224">
        <ele>188</ele>
        <time>2020-11-13T10:41:04.000Z</time>
      </trkpt>
      <trkpt lat="49.75544" lon="4.82248">
        <ele>188</ele>
        <time>2020-11-13T10:41:05.000Z</time>
      </trkpt>
      <trkpt lat="49.75546" lon="4.82257">
        <ele>188</ele>
        <time>2020-11-13T10:41:06.000Z</time>
      </trkpt>
      <trkpt lat="49.75547" lon="4.82265">
        <ele>188</ele>
        <time>2020-11-13T10:41:07.000Z</time>
      </trkpt>
      <trkpt lat="49.75546" lon="4.8227">
        <ele>187</ele>
        <time>2020-11-13T10:41:08.000Z</time>
      </trkpt>
      <trkpt lat="49.75545" lon="4.82273">
        <ele>187</ele>
        <time>2020-11-13T10:41:09.000Z</time>
      </trkpt>
      <trkpt lat="49.75544" lon="4.82275">
        <ele>187</ele>
        <time>2020-11-13T10:41:10.000Z</time>
      </trkpt>
      <trkpt lat="49.75543" lon="4.82277">
        <ele>187</ele>
        <time>2020-11-13T10:41:11.000Z</time>
      </trkpt>
      <trkpt lat="49.7554" lon="4.82279">
        <ele>187</ele>
        <time>2020-11-13T10:41:12.000Z</time>
      </trkpt>
      <trkpt lat="49.75537" lon="4.82279">
        <ele>187</ele>
        <time>2020-11-13T10:41:13.000Z</time>
      </trkpt>
      <trkpt lat="49.75533" lon="4.82278">
        <ele>187</ele>
        <time>2020-11-13T10:41:14.000Z</time>
      </trkpt>
      <trkpt lat="49.75528" lon="4.82275">
        <ele>187</ele>
        <time>2020-11-13T10:41:15.000Z</time>
      </trkpt>
      <trkpt lat="49.75523" lon="4.82273">
        <ele>187</ele>
        <time>2020-11-13T10:41:16.000Z</time>
      </trkpt>
      <trkpt lat="49.75518" lon="4.82271">
        <ele>187</ele>
        <time>2020-11-13T10:41:17.000Z</time>
      </trkpt>
      <trkpt lat="49.75513" lon="4.82268">
        <ele>186</ele>
        <time>2020-11-13T10:41:18.000Z</time>
      </trkpt>
      <trkpt lat="49.75508" lon="4.82265">
        <ele>186</ele>
        <time>2020-11-13T10:41:19.000Z</time>
      </trkpt>
      <trkpt lat="49.75502" lon="4.82262">
        <ele>186</ele>
        <time>2020-11-13T10:41:20.000Z</time>
      </trkpt>
      <trkpt lat="49.75497" lon="4.82259">
        <ele>186</ele>
        <time>2020-11-13T10:41:21.000Z</time>
      </trkpt>
      <trkpt lat="49.75491" lon="4.82255">
        <ele>186</ele>
        <time>2020-11-13T10:41:22.000Z</time>
      </trkpt>
      <trkpt lat="49.75486" lon="4.8225">
        <ele>186</ele>
        <time>2020-11-13T10:41:23.000Z</time>
      </trkpt>
      <trkpt lat="49.75481" lon="4.82245">
        <ele>186</ele>
        <time>2020-11-13T10:41:24.000Z</time>
      </trkpt>
      <trkpt lat="49.75476" lon="4.8224">
        <ele>186</ele>
        <time>2020-11-13T10:41:25.000Z</time>
      </trkpt>
      <trkpt lat="49.75472" lon="4.82234">
        <ele>186</ele>
        <time>2020-11-13T10:41:26.000Z</time>
      </trkpt>
      <trkpt lat="49.75467" lon="4.82229">
        <ele>186</ele>
        <time>2020-11-13T10:41:27.000Z</time>
      </trkpt>
      <trkpt lat="49.75463" lon="4.82225">
        <ele>186</ele>
        <time>2020-11-13T10:41:28.000Z</time>
      </trkpt>
      <trkpt lat="49.75458" lon="4.82222">
        <ele>186</ele>
        <time>2020-11-13T10:41:29.000Z</time>
      </trkpt>
      <trkpt lat="49.75452" lon="4.8222">
        <ele>186</ele>
        <time>2020-11-13T10:41:30.000Z</time>
      </trkpt>
      <trkpt lat="49.75447" lon="4.82217">
        <ele>186</ele>
        <time>2020-11-13T10:41:31.000Z</time>
      </trkpt>
      <trkpt lat="49.75442" lon="4.82214">
        <ele>186</ele>
        <time>2020-11-13T10:41:32.000Z</time>
      </trkpt>
      <trkpt lat="49.75436" lon="4.8221">
        <ele>186</ele>
        <time>2020-11-13T10:41:33.000Z</time>
      </trkpt>
      <trkpt lat="49.75431" lon="4.82208">
        <ele>186</ele>
        <time>2020-11-13T10:41:34.000Z</time>
      </trkpt>
      <trkpt lat="49.75425" lon="4.82205">
        <ele>186</ele>
        <time>2020-11-13T10:41:35.000Z</time>
      </trkpt>
      <trkpt lat="49.7542" lon="4.82202">
        <ele>186</ele>
        <time>2020-11-13T10:41:36.000Z</time>
      </trkpt>
      <trkpt lat="49.75414" lon="4.822">
        <ele>186</ele>
        <time>2020-11-13T10:41:37.000Z</time>
      </trkpt>
      <trkpt lat="49.75409" lon="4.82197">
        <ele>186</ele>
        <time>2020-11-13T10:41:38.000Z</time>
      </trkpt>
      <trkpt lat="49.75403" lon="4.82195">
        <ele>186</ele>
        <time>2020-11-13T10:41:39.000Z</time>
      </trkpt>
      <trkpt lat="49.75398" lon="4.82194">
        <ele>186</ele>
        <time>2020-11-13T10:41:40.000Z</time>
      </trkpt>
      <trkpt lat="49.75393" lon="4.82193">
        <ele>187</ele>
        <time>2020-11-13T10:41:41.000Z</time>
      </trkpt>
      <trkpt lat="49.75389" lon="4.82194">
        <ele>187</ele>
        <time>2020-11-13T10:41:42.000Z</time>
      </trkpt>
      <trkpt lat="49.75385" lon="4.82196">
        <ele>187</ele>
        <time>2020-11-13T10:41:43.000Z</time>
      </trkpt>
      <trkpt lat="49.75381" lon="4.822">
        <ele>187</ele>
        <time>2020-11-13T10:41:44.000Z</time>
      </trkpt>
      <trkpt lat="49.75379" lon="4.82203">
        <ele>187</ele>
        <time>2020-11-13T10:41:45.000Z</time>
      </trkpt>
      <trkpt lat="49.75377" lon="4.82205">
        <ele>187</ele>
        <time>2020-11-13T10:41:46.000Z</time>
      </trkpt>
      <trkpt lat="49.75376" lon="4.82206">
        <ele>187</ele>
        <time>2020-11-13T10:41:47.000Z</time>
      </trkpt>
      <trkpt lat="49.75375" lon="4.82207">
        <ele>187</ele>
        <time>2020-11-13T10:41:48.000Z</time>
      </trkpt>
      <trkpt lat="49.75374" lon="4.82207">
        <ele>187</ele>
        <time>2020-11-13T10:41:49.000Z</time>
      </trkpt>
    </trkseg>
  </trk>
</gpx>